<?xml version='1.0' encoding='UTF-8'?><gpx version="1.1" creator="JPX - https://github.com/jenetics/jpx" xmlns="http://www.topografix.com/GPX/1/1"><trk><trkseg><trkpt lat="45.2287866" lon="7.6009898"><ele>345.0</ele><time>2026-05-03T14:10:05.184Z</time></trkpt><trkpt lat="45.228738" lon="7.6009069"><ele>345.0</ele><time>2026-05-03T14:10:08.183Z</time></trkpt><trkpt lat="45.2286284" lon="7.600859"><ele>345.0</ele><time>2026-05-03T14:10:10.183Z</time></trkpt><trkpt lat="45.2285613" lon="7.6008535"><ele>345.0</ele><time>2026-05-03T14:10:11.184Z</time></trkpt><trkpt lat="45.2284787" lon="7.6008049"><ele>345.0</ele><time>2026-05-03T14:10:13.183Z</time></trkpt><trkpt lat="45.2284125" lon="7.6008226"><ele>345.0</ele><time>2026-05-03T14:10:15.183Z</time></trkpt><trkpt lat="45.2283411" lon="7.6009162"><ele>345.0</ele><time>2026-05-03T14:10:17.183Z</time></trkpt><trkpt lat="45.2282708" lon="7.6009078"><ele>345.0</ele><time>2026-05-03T14:10:18.184Z</time></trkpt><trkpt lat="45.2281973" lon="7.6008868"><ele>345.0</ele><time>2026-05-03T14:10:19.183Z</time></trkpt><trkpt lat="45.2281164" lon="7.6008439"><ele>345.0</ele><time>2026-05-03T14:10:20.184Z</time></trkpt><trkpt lat="45.2280334" lon="7.6007842"><ele>345.0</ele><time>2026-05-03T14:10:21.183Z</time></trkpt><trkpt lat="45.2279495" lon="7.6007096"><ele>345.0</ele><time>2026-05-03T14:10:22.183Z</time></trkpt><trkpt lat="45.2278668" lon="7.600641"><ele>344.6666666666667</ele><time>2026-05-03T14:10:23.184Z</time></trkpt><trkpt lat="45.2277724" lon="7.6006028"><ele>344.3333333333333</ele><time>2026-05-03T14:10:24.183Z</time></trkpt><trkpt lat="45.227681" lon="7.6005595"><ele>344.0</ele><time>2026-05-03T14:10:25.184Z</time></trkpt><trkpt lat="45.2276064" lon="7.6005189"><ele>343.66666666666663</ele><time>2026-05-03T14:10:26.183Z</time></trkpt><trkpt lat="45.2275325" lon="7.6004531"><ele>343.3333333333333</ele><time>2026-05-03T14:10:28.183Z</time></trkpt><trkpt lat="45.2274617" lon="7.6004976"><ele>343.0</ele><time>2026-05-03T14:10:32.183Z</time></trkpt><trkpt lat="45.2274377" lon="7.6005892"><ele>343.0</ele><time>2026-05-03T14:10:33.183Z</time></trkpt><trkpt lat="45.2274072" lon="7.6006997"><ele>343.0</ele><time>2026-05-03T14:10:34.183Z</time></trkpt><trkpt lat="45.2273645" lon="7.6008209"><ele>343.0</ele><time>2026-05-03T14:10:35.183Z</time></trkpt><trkpt lat="45.2273155" lon="7.6009517"><ele>343.0</ele><time>2026-05-03T14:10:36.184Z</time></trkpt><trkpt lat="45.2272684" lon="7.6010831"><ele>343.0</ele><time>2026-05-03T14:10:37.184Z</time></trkpt><trkpt lat="45.2272232" lon="7.6012296"><ele>342.75</ele><time>2026-05-03T14:10:38.183Z</time></trkpt><trkpt lat="45.2271746" lon="7.6013888"><ele>342.5</ele><time>2026-05-03T14:10:39.183Z</time></trkpt><trkpt lat="45.2271198" lon="7.6015515"><ele>342.25</ele><time>2026-05-03T14:10:40.184Z</time></trkpt><trkpt lat="45.2270633" lon="7.6017082"><ele>342.0</ele><time>2026-05-03T14:10:41.183Z</time></trkpt><trkpt lat="45.227012" lon="7.6018541"><ele>342.0</ele><time>2026-05-03T14:10:42.184Z</time></trkpt><trkpt lat="45.2269573" lon="7.6019827"><ele>342.0</ele><time>2026-05-03T14:10:43.183Z</time></trkpt><trkpt lat="45.2269319" lon="7.6020966"><ele>342.0</ele><time>2026-05-03T14:10:44.183Z</time></trkpt><trkpt lat="45.2268977" lon="7.6021923"><ele>342.0</ele><time>2026-05-03T14:10:45.183Z</time></trkpt><trkpt lat="45.2267802" lon="7.6022452"><ele>342.0</ele><time>2026-05-03T14:10:47.183Z</time></trkpt><trkpt lat="45.2267061" lon="7.6022143"><ele>342.0</ele><time>2026-05-03T14:10:48.183Z</time></trkpt><trkpt lat="45.2266274" lon="7.6021643"><ele>342.0</ele><time>2026-05-03T14:10:49.183Z</time></trkpt><trkpt lat="45.2265342" lon="7.6020969"><ele>342.0</ele><time>2026-05-03T14:10:50.183Z</time></trkpt><trkpt lat="45.2264307" lon="7.6020263"><ele>342.0</ele><time>2026-05-03T14:10:51.184Z</time></trkpt><trkpt lat="45.2263176" lon="7.6019509"><ele>342.0</ele><time>2026-05-03T14:10:52.184Z</time></trkpt><trkpt lat="45.2262022" lon="7.6018699"><ele>342.0</ele><time>2026-05-03T14:10:53.183Z</time></trkpt><trkpt lat="45.2260829" lon="7.601779"><ele>342.0</ele><time>2026-05-03T14:10:54.184Z</time></trkpt><trkpt lat="45.225961" lon="7.601698"><ele>342.0</ele><time>2026-05-03T14:10:55.183Z</time></trkpt><trkpt lat="45.2258489" lon="7.6016059"><ele>342.0</ele><time>2026-05-03T14:10:56.184Z</time></trkpt><trkpt lat="45.2257371" lon="7.6015258"><ele>341.6666666666667</ele><time>2026-05-03T14:10:57.183Z</time></trkpt><trkpt lat="45.2256442" lon="7.6014482"><ele>341.3333333333333</ele><time>2026-05-03T14:10:58.184Z</time></trkpt><trkpt lat="45.225568" lon="7.6013869"><ele>341.0</ele><time>2026-05-03T14:10:59.184Z</time></trkpt><trkpt lat="45.2255043" lon="7.601345"><ele>340.66666666666663</ele><time>2026-05-03T14:11:00.183Z</time></trkpt><trkpt lat="45.22542" lon="7.6012998"><ele>340.3333333333333</ele><time>2026-05-03T14:11:01.184Z</time></trkpt><trkpt lat="45.2253386" lon="7.6012452"><ele>340.0</ele><time>2026-05-03T14:11:02.183Z</time></trkpt><trkpt lat="45.2252579" lon="7.6012016"><ele>340.0</ele><time>2026-05-03T14:11:03.183Z</time></trkpt><trkpt lat="45.2251976" lon="7.6011462"><ele>340.0</ele><time>2026-05-03T14:11:04.183Z</time></trkpt><trkpt lat="45.2251094" lon="7.6011343"><ele>340.0</ele><time>2026-05-03T14:11:06.183Z</time></trkpt><trkpt lat="45.2250571" lon="7.6012726"><ele>340.0</ele><time>2026-05-03T14:11:08.184Z</time></trkpt><trkpt lat="45.2250413" lon="7.601376"><ele>340.0</ele><time>2026-05-03T14:11:09.183Z</time></trkpt><trkpt lat="45.2249826" lon="7.6015107"><ele>340.0</ele><time>2026-05-03T14:11:10.183Z</time></trkpt><trkpt lat="45.224901" lon="7.6016634"><ele>340.0</ele><time>2026-05-03T14:11:11.183Z</time></trkpt><trkpt lat="45.2248115" lon="7.6018115"><ele>340.0</ele><time>2026-05-03T14:11:12.184Z</time></trkpt><trkpt lat="45.2247174" lon="7.6019704"><ele>340.0</ele><time>2026-05-03T14:11:13.184Z</time></trkpt><trkpt lat="45.2246164" lon="7.6021533"><ele>339.3333333333333</ele><time>2026-05-03T14:11:14.183Z</time></trkpt><trkpt lat="45.2245192" lon="7.6023368"><ele>338.6666666666667</ele><time>2026-05-03T14:11:15.183Z</time></trkpt><trkpt lat="45.2244228" lon="7.6025288"><ele>338.0</ele><time>2026-05-03T14:11:16.183Z</time></trkpt><trkpt lat="45.2243224" lon="7.602737"><ele>338.33333333333337</ele><time>2026-05-03T14:11:17.183Z</time></trkpt><trkpt lat="45.2242235" lon="7.6029503"><ele>338.6666666666667</ele><time>2026-05-03T14:11:18.183Z</time></trkpt><trkpt lat="45.224127" lon="7.6031706"><ele>339.0</ele><time>2026-05-03T14:11:19.183Z</time></trkpt><trkpt lat="45.2240266" lon="7.6033935"><ele>338.3333333333333</ele><time>2026-05-03T14:11:20.183Z</time></trkpt><trkpt lat="45.2239285" lon="7.6036224"><ele>337.66666666666663</ele><time>2026-05-03T14:11:21.183Z</time></trkpt><trkpt lat="45.2238302" lon="7.6038464"><ele>337.0</ele><time>2026-05-03T14:11:22.183Z</time></trkpt><trkpt lat="45.2237312" lon="7.6040792"><ele>337.0</ele><time>2026-05-03T14:11:23.183Z</time></trkpt><trkpt lat="45.2236284" lon="7.6043053"><ele>337.0</ele><time>2026-05-03T14:11:24.184Z</time></trkpt><trkpt lat="45.2235202" lon="7.6045449"><ele>337.0</ele><time>2026-05-03T14:11:25.183Z</time></trkpt><trkpt lat="45.2234049" lon="7.6047887"><ele>337.0</ele><time>2026-05-03T14:11:26.183Z</time></trkpt><trkpt lat="45.2232873" lon="7.605035"><ele>337.0</ele><time>2026-05-03T14:11:27.183Z</time></trkpt><trkpt lat="45.2231574" lon="7.6052905"><ele>337.0</ele><time>2026-05-03T14:11:28.184Z</time></trkpt><trkpt lat="45.2230199" lon="7.6055705"><ele>336.0</ele><time>2026-05-03T14:11:29.183Z</time></trkpt><trkpt lat="45.2228768" lon="7.6058536"><ele>335.0</ele><time>2026-05-03T14:11:30.183Z</time></trkpt><trkpt lat="45.2227299" lon="7.6061325"><ele>334.5</ele><time>2026-05-03T14:11:31.183Z</time></trkpt><trkpt lat="45.222585" lon="7.6064058"><ele>334.0</ele><time>2026-05-03T14:11:32.183Z</time></trkpt><trkpt lat="45.2224458" lon="7.6066635"><ele>333.66666666666663</ele><time>2026-05-03T14:11:33.184Z</time></trkpt><trkpt lat="45.2223053" lon="7.6069119"><ele>333.3333333333333</ele><time>2026-05-03T14:11:34.183Z</time></trkpt><trkpt lat="45.2221678" lon="7.6071489"><ele>333.0</ele><time>2026-05-03T14:11:35.184Z</time></trkpt><trkpt lat="45.2220328" lon="7.6073624"><ele>332.6666666666667</ele><time>2026-05-03T14:11:36.183Z</time></trkpt><trkpt lat="45.2218982" lon="7.6075571"><ele>332.33333333333337</ele><time>2026-05-03T14:11:37.183Z</time></trkpt><trkpt lat="45.2217707" lon="7.6077316"><ele>332.0</ele><time>2026-05-03T14:11:38.184Z</time></trkpt><trkpt lat="45.2216476" lon="7.6078762"><ele>332.0</ele><time>2026-05-03T14:11:39.183Z</time></trkpt><trkpt lat="45.2215357" lon="7.6080115"><ele>332.0</ele><time>2026-05-03T14:11:40.184Z</time></trkpt><trkpt lat="45.2214346" lon="7.608116"><ele>332.0</ele><time>2026-05-03T14:11:41.184Z</time></trkpt><trkpt lat="45.2213489" lon="7.6082007"><ele>332.0</ele><time>2026-05-03T14:11:42.183Z</time></trkpt><trkpt lat="45.2212637" lon="7.6082481"><ele>331.8</ele><time>2026-05-03T14:11:43.183Z</time></trkpt><trkpt lat="45.2211654" lon="7.6082545"><ele>331.6</ele><time>2026-05-03T14:11:44.183Z</time></trkpt><trkpt lat="45.2210657" lon="7.6082489"><ele>331.40000000000003</ele><time>2026-05-03T14:11:45.184Z</time></trkpt><trkpt lat="45.2209851" lon="7.6083123"><ele>331.20000000000005</ele><time>2026-05-03T14:11:46.183Z</time></trkpt><trkpt lat="45.2209226" lon="7.6084324"><ele>331.0</ele><time>2026-05-03T14:11:47.184Z</time></trkpt><trkpt lat="45.2208507" lon="7.6085723"><ele>331.0</ele><time>2026-05-03T14:11:48.183Z</time></trkpt><trkpt lat="45.220766" lon="7.6087315"><ele>331.0</ele><time>2026-05-03T14:11:49.184Z</time></trkpt><trkpt lat="45.2206479" lon="7.6088777"><ele>331.0</ele><time>2026-05-03T14:11:50.183Z</time></trkpt><trkpt lat="45.2205082" lon="7.6090168"><ele>331.0</ele><time>2026-05-03T14:11:51.183Z</time></trkpt><trkpt lat="45.220357" lon="7.6091394"><ele>331.0</ele><time>2026-05-03T14:11:52.183Z</time></trkpt><trkpt lat="45.2201957" lon="7.6092643"><ele>331.0</ele><time>2026-05-03T14:11:53.183Z</time></trkpt><trkpt lat="45.2200184" lon="7.6093863"><ele>330.66666666666663</ele><time>2026-05-03T14:11:54.183Z</time></trkpt><trkpt lat="45.2198287" lon="7.6095188"><ele>330.3333333333333</ele><time>2026-05-03T14:11:55.183Z</time></trkpt><trkpt lat="45.2196323" lon="7.6096529"><ele>330.0</ele><time>2026-05-03T14:11:56.183Z</time></trkpt><trkpt lat="45.2194353" lon="7.6097825"><ele>329.0</ele><time>2026-05-03T14:11:57.183Z</time></trkpt><trkpt lat="45.2192339" lon="7.6099157"><ele>328.0</ele><time>2026-05-03T14:11:58.184Z</time></trkpt><trkpt lat="45.2190226" lon="7.6100529"><ele>328.0</ele><time>2026-05-03T14:11:59.183Z</time></trkpt><trkpt lat="45.2188123" lon="7.6101954"><ele>328.0</ele><time>2026-05-03T14:12:00.184Z</time></trkpt><trkpt lat="45.2186052" lon="7.6103356"><ele>328.0</ele><time>2026-05-03T14:12:01.183Z</time></trkpt><trkpt lat="45.218392" lon="7.6104774"><ele>328.0</ele><time>2026-05-03T14:12:02.183Z</time></trkpt><trkpt lat="45.2181794" lon="7.6106157"><ele>327.5</ele><time>2026-05-03T14:12:03.183Z</time></trkpt><trkpt lat="45.2179704" lon="7.610752"><ele>327.0</ele><time>2026-05-03T14:12:04.184Z</time></trkpt><trkpt lat="45.2177618" lon="7.61089"><ele>327.0</ele><time>2026-05-03T14:12:05.183Z</time></trkpt><trkpt lat="45.2175529" lon="7.611028"><ele>327.0</ele><time>2026-05-03T14:12:06.183Z</time></trkpt><trkpt lat="45.2173441" lon="7.6111602"><ele>326.6666666666667</ele><time>2026-05-03T14:12:07.183Z</time></trkpt><trkpt lat="45.2171423" lon="7.6112916"><ele>326.33333333333337</ele><time>2026-05-03T14:12:08.183Z</time></trkpt><trkpt lat="45.2169443" lon="7.6114211"><ele>326.0</ele><time>2026-05-03T14:12:09.183Z</time></trkpt><trkpt lat="45.2167569" lon="7.6115512"><ele>326.0</ele><time>2026-05-03T14:12:10.184Z</time></trkpt><trkpt lat="45.2165794" lon="7.6116579"><ele>326.0</ele><time>2026-05-03T14:12:11.184Z</time></trkpt><trkpt lat="45.2164114" lon="7.6117612"><ele>326.0</ele><time>2026-05-03T14:12:12.183Z</time></trkpt><trkpt lat="45.2162535" lon="7.6118605"><ele>326.0</ele><time>2026-05-03T14:12:13.183Z</time></trkpt><trkpt lat="45.2161024" lon="7.6119556"><ele>326.0</ele><time>2026-05-03T14:12:14.184Z</time></trkpt><trkpt lat="45.2159714" lon="7.6120401"><ele>326.0</ele><time>2026-05-03T14:12:15.184Z</time></trkpt><trkpt lat="45.215853" lon="7.6121129"><ele>326.0</ele><time>2026-05-03T14:12:16.183Z</time></trkpt><trkpt lat="45.2157492" lon="7.6121731"><ele>325.6</ele><time>2026-05-03T14:12:17.183Z</time></trkpt><trkpt lat="45.2156489" lon="7.6122039"><ele>325.20000000000005</ele><time>2026-05-03T14:12:18.184Z</time></trkpt><trkpt lat="45.2155556" lon="7.6122002"><ele>324.79999999999995</ele><time>2026-05-03T14:12:19.184Z</time></trkpt><trkpt lat="45.2154738" lon="7.6121938"><ele>324.4</ele><time>2026-05-03T14:12:20.183Z</time></trkpt><trkpt lat="45.2153891" lon="7.6122197"><ele>324.0</ele><time>2026-05-03T14:12:21.183Z</time></trkpt><trkpt lat="45.2153114" lon="7.6122832"><ele>324.0</ele><time>2026-05-03T14:12:22.184Z</time></trkpt><trkpt lat="45.2152396" lon="7.6123853"><ele>324.0</ele><time>2026-05-03T14:12:23.183Z</time></trkpt><trkpt lat="45.2151622" lon="7.6125139"><ele>324.0</ele><time>2026-05-03T14:12:24.184Z</time></trkpt><trkpt lat="45.2150534" lon="7.6126475"><ele>324.0</ele><time>2026-05-03T14:12:25.184Z</time></trkpt><trkpt lat="45.2149015" lon="7.6127571"><ele>323.3333333333333</ele><time>2026-05-03T14:12:26.184Z</time></trkpt><trkpt lat="45.2147354" lon="7.6128542"><ele>322.66666666666663</ele><time>2026-05-03T14:12:27.183Z</time></trkpt><trkpt lat="45.2145567" lon="7.6129716"><ele>322.0</ele><time>2026-05-03T14:12:28.183Z</time></trkpt><trkpt lat="45.2143634" lon="7.613107"><ele>322.0</ele><time>2026-05-03T14:12:29.183Z</time></trkpt><trkpt lat="45.2141612" lon="7.6132474"><ele>322.0</ele><time>2026-05-03T14:12:30.183Z</time></trkpt><trkpt lat="45.2139484" lon="7.6133913"><ele>321.5</ele><time>2026-05-03T14:12:31.183Z</time></trkpt><trkpt lat="45.2137381" lon="7.6135291"><ele>321.0</ele><time>2026-05-03T14:12:32.183Z</time></trkpt><trkpt lat="45.2135209" lon="7.6136709"><ele>321.0</ele><time>2026-05-03T14:12:33.183Z</time></trkpt><trkpt lat="45.2132996" lon="7.6138189"><ele>321.0</ele><time>2026-05-03T14:12:34.183Z</time></trkpt><trkpt lat="45.2130769" lon="7.6139695"><ele>320.5</ele><time>2026-05-03T14:12:35.183Z</time></trkpt><trkpt lat="45.2128511" lon="7.614128"><ele>320.0</ele><time>2026-05-03T14:12:36.183Z</time></trkpt><trkpt lat="45.2126193" lon="7.6142903"><ele>320.0</ele><time>2026-05-03T14:12:37.184Z</time></trkpt><trkpt lat="45.2123789" lon="7.6144547"><ele>320.0</ele><time>2026-05-03T14:12:38.183Z</time></trkpt><trkpt lat="45.2121369" lon="7.6146234"><ele>319.5</ele><time>2026-05-03T14:12:39.183Z</time></trkpt><trkpt lat="45.2118915" lon="7.6147907"><ele>319.0</ele><time>2026-05-03T14:12:40.183Z</time></trkpt><trkpt lat="45.2116439" lon="7.6149603"><ele>319.5</ele><time>2026-05-03T14:12:41.184Z</time></trkpt><trkpt lat="45.2113995" lon="7.6151231"><ele>320.0</ele><time>2026-05-03T14:12:42.183Z</time></trkpt><trkpt lat="45.2111545" lon="7.6152913"><ele>320.5</ele><time>2026-05-03T14:12:43.183Z</time></trkpt><trkpt lat="45.2109041" lon="7.6154526"><ele>321.0</ele><time>2026-05-03T14:12:44.183Z</time></trkpt><trkpt lat="45.2106501" lon="7.6156179"><ele>320.0</ele><time>2026-05-03T14:12:45.184Z</time></trkpt><trkpt lat="45.2103949" lon="7.6157908"><ele>319.0</ele><time>2026-05-03T14:12:46.183Z</time></trkpt><trkpt lat="45.2101402" lon="7.6159647"><ele>319.0</ele><time>2026-05-03T14:12:47.183Z</time></trkpt><trkpt lat="45.209878" lon="7.6161371"><ele>319.0</ele><time>2026-05-03T14:12:48.184Z</time></trkpt><trkpt lat="45.2096158" lon="7.6163075"><ele>319.0</ele><time>2026-05-03T14:12:49.184Z</time></trkpt><trkpt lat="45.2093583" lon="7.6164761"><ele>319.0</ele><time>2026-05-03T14:12:50.184Z</time></trkpt><trkpt lat="45.2091017" lon="7.6166479"><ele>318.0</ele><time>2026-05-03T14:12:51.184Z</time></trkpt><trkpt lat="45.2088428" lon="7.6168189"><ele>317.0</ele><time>2026-05-03T14:12:52.183Z</time></trkpt><trkpt lat="45.2085849" lon="7.6169848"><ele>316.5</ele><time>2026-05-03T14:12:53.184Z</time></trkpt><trkpt lat="45.2083301" lon="7.6171564"><ele>316.0</ele><time>2026-05-03T14:12:54.183Z</time></trkpt><trkpt lat="45.2080745" lon="7.6173239"><ele>316.0</ele><time>2026-05-03T14:12:55.183Z</time></trkpt><trkpt lat="45.2078221" lon="7.6174928"><ele>316.0</ele><time>2026-05-03T14:12:56.183Z</time></trkpt><trkpt lat="45.207577" lon="7.6176552"><ele>316.0</ele><time>2026-05-03T14:12:57.183Z</time></trkpt><trkpt lat="45.207342" lon="7.61781"><ele>316.0</ele><time>2026-05-03T14:12:58.183Z</time></trkpt><trkpt lat="45.2071279" lon="7.6179587"><ele>315.66666666666663</ele><time>2026-05-03T14:12:59.183Z</time></trkpt><trkpt lat="45.2069316" lon="7.6180958"><ele>315.3333333333333</ele><time>2026-05-03T14:13:00.183Z</time></trkpt><trkpt lat="45.2067416" lon="7.6182266"><ele>315.0</ele><time>2026-05-03T14:13:01.183Z</time></trkpt><trkpt lat="45.2065736" lon="7.6183385"><ele>315.0</ele><time>2026-05-03T14:13:02.183Z</time></trkpt><trkpt lat="45.2064248" lon="7.6184369"><ele>315.0</ele><time>2026-05-03T14:13:03.183Z</time></trkpt><trkpt lat="45.2062894" lon="7.6185311"><ele>315.0</ele><time>2026-05-03T14:13:04.183Z</time></trkpt><trkpt lat="45.2061729" lon="7.6186064"><ele>315.0</ele><time>2026-05-03T14:13:05.184Z</time></trkpt><trkpt lat="45.2060697" lon="7.618668"><ele>315.4</ele><time>2026-05-03T14:13:06.183Z</time></trkpt><trkpt lat="45.2059742" lon="7.6187356"><ele>315.8</ele><time>2026-05-03T14:13:07.183Z</time></trkpt><trkpt lat="45.2058794" lon="7.6187925"><ele>316.2</ele><time>2026-05-03T14:13:08.183Z</time></trkpt><trkpt lat="45.2057866" lon="7.618825"><ele>316.6</ele><time>2026-05-03T14:13:09.183Z</time></trkpt><trkpt lat="45.2057027" lon="7.6188334"><ele>317.0</ele><time>2026-05-03T14:13:10.184Z</time></trkpt><trkpt lat="45.2056182" lon="7.6188197"><ele>317.0</ele><time>2026-05-03T14:13:11.184Z</time></trkpt><trkpt lat="45.2055395" lon="7.6188243"><ele>317.0</ele><time>2026-05-03T14:13:12.183Z</time></trkpt><trkpt lat="45.2054721" lon="7.6188648"><ele>317.0</ele><time>2026-05-03T14:13:13.183Z</time></trkpt><trkpt lat="45.2054225" lon="7.6189464"><ele>317.0</ele><time>2026-05-03T14:13:14.183Z</time></trkpt><trkpt lat="45.2053769" lon="7.6190497"><ele>317.0</ele><time>2026-05-03T14:13:15.184Z</time></trkpt><trkpt lat="45.205319" lon="7.6191317"><ele>317.0</ele><time>2026-05-03T14:13:16.183Z</time></trkpt><trkpt lat="45.2052369" lon="7.6192247"><ele>317.0</ele><time>2026-05-03T14:13:17.183Z</time></trkpt><trkpt lat="45.2051371" lon="7.6193073"><ele>317.0</ele><time>2026-05-03T14:13:18.184Z</time></trkpt><trkpt lat="45.205026" lon="7.6193892"><ele>317.0</ele><time>2026-05-03T14:13:19.183Z</time></trkpt><trkpt lat="45.2049165" lon="7.6194661"><ele>317.0</ele><time>2026-05-03T14:13:20.183Z</time></trkpt><trkpt lat="45.204808" lon="7.6195459"><ele>316.75</ele><time>2026-05-03T14:13:21.183Z</time></trkpt><trkpt lat="45.204703" lon="7.6196121"><ele>316.5</ele><time>2026-05-03T14:13:22.184Z</time></trkpt><trkpt lat="45.2045961" lon="7.6196917"><ele>316.25</ele><time>2026-05-03T14:13:23.183Z</time></trkpt><trkpt lat="45.2044829" lon="7.619769"><ele>316.0</ele><time>2026-05-03T14:13:24.183Z</time></trkpt><trkpt lat="45.2043733" lon="7.6198538"><ele>316.0</ele><time>2026-05-03T14:13:25.183Z</time></trkpt><trkpt lat="45.2042682" lon="7.6199316"><ele>316.0</ele><time>2026-05-03T14:13:26.183Z</time></trkpt><trkpt lat="45.2041601" lon="7.6200084"><ele>316.0</ele><time>2026-05-03T14:13:27.183Z</time></trkpt><trkpt lat="45.2040497" lon="7.6200854"><ele>316.0</ele><time>2026-05-03T14:13:28.184Z</time></trkpt><trkpt lat="45.2039372" lon="7.6201677"><ele>315.75</ele><time>2026-05-03T14:13:29.184Z</time></trkpt><trkpt lat="45.2038332" lon="7.6202454"><ele>315.5</ele><time>2026-05-03T14:13:30.183Z</time></trkpt><trkpt lat="45.2037294" lon="7.620325"><ele>315.25</ele><time>2026-05-03T14:13:31.183Z</time></trkpt><trkpt lat="45.2036236" lon="7.6204037"><ele>315.0</ele><time>2026-05-03T14:13:32.183Z</time></trkpt><trkpt lat="45.2035041" lon="7.6204896"><ele>315.0</ele><time>2026-05-03T14:13:33.183Z</time></trkpt><trkpt lat="45.2033662" lon="7.6205916"><ele>315.0</ele><time>2026-05-03T14:13:34.184Z</time></trkpt><trkpt lat="45.2032144" lon="7.6206997"><ele>315.0</ele><time>2026-05-03T14:13:35.183Z</time></trkpt><trkpt lat="45.2030514" lon="7.6208084"><ele>314.0</ele><time>2026-05-03T14:13:36.184Z</time></trkpt><trkpt lat="45.2028794" lon="7.6209229"><ele>313.0</ele><time>2026-05-03T14:13:37.184Z</time></trkpt><trkpt lat="45.2026988" lon="7.6210334"><ele>312.0</ele><time>2026-05-03T14:13:38.184Z</time></trkpt><trkpt lat="45.2025096" lon="7.6211414"><ele>311.3333333333333</ele><time>2026-05-03T14:13:39.184Z</time></trkpt><trkpt lat="45.202317" lon="7.621251"><ele>310.66666666666663</ele><time>2026-05-03T14:13:40.183Z</time></trkpt><trkpt lat="45.2021261" lon="7.6213626"><ele>310.0</ele><time>2026-05-03T14:13:41.183Z</time></trkpt><trkpt lat="45.2019338" lon="7.6214698"><ele>310.0</ele><time>2026-05-03T14:13:42.184Z</time></trkpt><trkpt lat="45.2017413" lon="7.6215781"><ele>310.0</ele><time>2026-05-03T14:13:43.183Z</time></trkpt><trkpt lat="45.2015501" lon="7.6216818"><ele>310.0</ele><time>2026-05-03T14:13:44.183Z</time></trkpt><trkpt lat="45.2013667" lon="7.6217827"><ele>309.66666666666663</ele><time>2026-05-03T14:13:45.184Z</time></trkpt><trkpt lat="45.2011889" lon="7.6218834"><ele>309.3333333333333</ele><time>2026-05-03T14:13:46.183Z</time></trkpt><trkpt lat="45.2010125" lon="7.6219744"><ele>309.0</ele><time>2026-05-03T14:13:47.183Z</time></trkpt><trkpt lat="45.2008385" lon="7.6220611"><ele>308.6666666666667</ele><time>2026-05-03T14:13:48.184Z</time></trkpt><trkpt lat="45.2006621" lon="7.6221399"><ele>308.33333333333337</ele><time>2026-05-03T14:13:49.183Z</time></trkpt><trkpt lat="45.2004871" lon="7.6222022"><ele>308.0</ele><time>2026-05-03T14:13:50.184Z</time></trkpt><trkpt lat="45.2002988" lon="7.6222354"><ele>308.0</ele><time>2026-05-03T14:13:51.183Z</time></trkpt><trkpt lat="45.2001013" lon="7.6222494"><ele>308.0</ele><time>2026-05-03T14:13:52.183Z</time></trkpt><trkpt lat="45.199898" lon="7.6222462"><ele>308.0</ele><time>2026-05-03T14:13:53.183Z</time></trkpt><trkpt lat="45.1996898" lon="7.6222594"><ele>308.0</ele><time>2026-05-03T14:13:54.183Z</time></trkpt><trkpt lat="45.1994745" lon="7.6222819"><ele>308.0</ele><time>2026-05-03T14:13:55.183Z</time></trkpt><trkpt lat="45.1992612" lon="7.6223202"><ele>308.0</ele><time>2026-05-03T14:13:56.184Z</time></trkpt><trkpt lat="45.1990516" lon="7.6223779"><ele>307.6666666666667</ele><time>2026-05-03T14:13:57.183Z</time></trkpt><trkpt lat="45.1988496" lon="7.6224621"><ele>307.3333333333333</ele><time>2026-05-03T14:13:58.184Z</time></trkpt><trkpt lat="45.198657" lon="7.6225609"><ele>307.0</ele><time>2026-05-03T14:13:59.183Z</time></trkpt><trkpt lat="45.1984665" lon="7.622683"><ele>307.0</ele><time>2026-05-03T14:14:00.183Z</time></trkpt><trkpt lat="45.1982843" lon="7.6228204"><ele>307.0</ele><time>2026-05-03T14:14:01.184Z</time></trkpt><trkpt lat="45.1981002" lon="7.6229735"><ele>307.0</ele><time>2026-05-03T14:14:02.184Z</time></trkpt><trkpt lat="45.1979188" lon="7.6231158"><ele>307.0</ele><time>2026-05-03T14:14:03.183Z</time></trkpt><trkpt lat="45.1977467" lon="7.6232496"><ele>307.0</ele><time>2026-05-03T14:14:04.184Z</time></trkpt><trkpt lat="45.1975862" lon="7.6233819"><ele>307.0</ele><time>2026-05-03T14:14:05.184Z</time></trkpt><trkpt lat="45.1974218" lon="7.623517"><ele>305.66666666666663</ele><time>2026-05-03T14:14:06.183Z</time></trkpt><trkpt lat="45.1972544" lon="7.6236501"><ele>304.3333333333333</ele><time>2026-05-03T14:14:07.183Z</time></trkpt><trkpt lat="45.1970849" lon="7.6237808"><ele>303.0</ele><time>2026-05-03T14:14:08.183Z</time></trkpt><trkpt lat="45.1969123" lon="7.6239178"><ele>303.0</ele><time>2026-05-03T14:14:09.183Z</time></trkpt><trkpt lat="45.1967502" lon="7.6240446"><ele>303.0</ele><time>2026-05-03T14:14:10.183Z</time></trkpt><trkpt lat="45.1965968" lon="7.6241609"><ele>303.0</ele><time>2026-05-03T14:14:11.183Z</time></trkpt><trkpt lat="45.1964693" lon="7.6242569"><ele>303.2</ele><time>2026-05-03T14:14:12.183Z</time></trkpt><trkpt lat="45.196362" lon="7.6243381"><ele>303.4</ele><time>2026-05-03T14:14:13.183Z</time></trkpt><trkpt lat="45.196267" lon="7.6244043"><ele>303.59999999999997</ele><time>2026-05-03T14:14:14.183Z</time></trkpt><trkpt lat="45.1961863" lon="7.6244599"><ele>303.8</ele><time>2026-05-03T14:14:15.183Z</time></trkpt><trkpt lat="45.1960821" lon="7.6245169"><ele>304.0</ele><time>2026-05-03T14:14:17.183Z</time></trkpt><trkpt lat="45.1959909" lon="7.6245279"><ele>303.59999999999997</ele><time>2026-05-03T14:14:19.183Z</time></trkpt><trkpt lat="45.195886" lon="7.6245303"><ele>303.2</ele><time>2026-05-03T14:14:21.183Z</time></trkpt><trkpt lat="45.1957833" lon="7.6246062"><ele>302.79999999999995</ele><time>2026-05-03T14:14:23.184Z</time></trkpt><trkpt lat="45.1957416" lon="7.6246976"><ele>302.4</ele><time>2026-05-03T14:14:24.184Z</time></trkpt><trkpt lat="45.1956995" lon="7.6248059"><ele>302.0</ele><time>2026-05-03T14:14:25.184Z</time></trkpt><trkpt lat="45.1956451" lon="7.624926"><ele>302.0</ele><time>2026-05-03T14:14:26.183Z</time></trkpt><trkpt lat="45.1955649" lon="7.6250493"><ele>302.0</ele><time>2026-05-03T14:14:27.184Z</time></trkpt><trkpt lat="45.1954674" lon="7.6251718"><ele>302.0</ele><time>2026-05-03T14:14:28.183Z</time></trkpt><trkpt lat="45.1953496" lon="7.6253327"><ele>302.0</ele><time>2026-05-03T14:14:29.183Z</time></trkpt><trkpt lat="45.195228" lon="7.6254927"><ele>301.6666666666667</ele><time>2026-05-03T14:14:30.183Z</time></trkpt><trkpt lat="45.1951002" lon="7.6256641"><ele>301.3333333333333</ele><time>2026-05-03T14:14:31.183Z</time></trkpt><trkpt lat="45.1949744" lon="7.6258475"><ele>301.0</ele><time>2026-05-03T14:14:32.188Z</time></trkpt><trkpt lat="45.1948556" lon="7.6260383"><ele>300.66666666666663</ele><time>2026-05-03T14:14:33.189Z</time></trkpt><trkpt lat="45.1947427" lon="7.6262288"><ele>300.3333333333333</ele><time>2026-05-03T14:14:34.188Z</time></trkpt><trkpt lat="45.1946354" lon="7.6264219"><ele>300.0</ele><time>2026-05-03T14:14:35.189Z</time></trkpt><trkpt lat="45.1945341" lon="7.6266053"><ele>300.0</ele><time>2026-05-03T14:14:36.188Z</time></trkpt><trkpt lat="45.194445" lon="7.6267737"><ele>300.0</ele><time>2026-05-03T14:14:37.188Z</time></trkpt><trkpt lat="45.1943639" lon="7.6269249"><ele>300.0</ele><time>2026-05-03T14:14:38.188Z</time></trkpt><trkpt lat="45.194295" lon="7.6270635"><ele>300.0</ele><time>2026-05-03T14:14:39.188Z</time></trkpt><trkpt lat="45.1942382" lon="7.6271804"><ele>300.0</ele><time>2026-05-03T14:14:40.188Z</time></trkpt><trkpt lat="45.1941835" lon="7.6272668"><ele>300.0</ele><time>2026-05-03T14:14:41.189Z</time></trkpt><trkpt lat="45.1941348" lon="7.6273417"><ele>300.0</ele><time>2026-05-03T14:14:42.188Z</time></trkpt><trkpt lat="45.1940837" lon="7.6273986"><ele>300.0</ele><time>2026-05-03T14:14:43.188Z</time></trkpt><trkpt lat="45.1940186" lon="7.6274425"><ele>300.0</ele><time>2026-05-03T14:14:44.188Z</time></trkpt><trkpt lat="45.1939505" lon="7.6274895"><ele>300.0</ele><time>2026-05-03T14:14:45.188Z</time></trkpt><trkpt lat="45.1938984" lon="7.6275839"><ele>300.0</ele><time>2026-05-03T14:14:46.189Z</time></trkpt><trkpt lat="45.1938737" lon="7.6277041"><ele>300.0</ele><time>2026-05-03T14:14:47.188Z</time></trkpt><trkpt lat="45.193852" lon="7.6278456"><ele>300.0</ele><time>2026-05-03T14:14:48.188Z</time></trkpt><trkpt lat="45.1938035" lon="7.6279921"><ele>300.0</ele><time>2026-05-03T14:14:49.188Z</time></trkpt><trkpt lat="45.1937269" lon="7.6281501"><ele>300.0</ele><time>2026-05-03T14:14:50.188Z</time></trkpt><trkpt lat="45.1936304" lon="7.6283216"><ele>300.0</ele><time>2026-05-03T14:14:51.188Z</time></trkpt><trkpt lat="45.1935214" lon="7.6285192"><ele>300.0</ele><time>2026-05-03T14:14:52.189Z</time></trkpt><trkpt lat="45.1934011" lon="7.628747"><ele>300.0</ele><time>2026-05-03T14:14:53.188Z</time></trkpt><trkpt lat="45.1932732" lon="7.6289865"><ele>299.0</ele><time>2026-05-03T14:14:54.188Z</time></trkpt><trkpt lat="45.1931393" lon="7.6292432"><ele>298.0</ele><time>2026-05-03T14:14:55.188Z</time></trkpt><trkpt lat="45.1930035" lon="7.6295045"><ele>297.5</ele><time>2026-05-03T14:14:56.189Z</time></trkpt><trkpt lat="45.1928705" lon="7.6297725"><ele>297.0</ele><time>2026-05-03T14:14:57.188Z</time></trkpt><trkpt lat="45.1927391" lon="7.6300249"><ele>297.0</ele><time>2026-05-03T14:14:58.188Z</time></trkpt><trkpt lat="45.1926145" lon="7.6302698"><ele>297.0</ele><time>2026-05-03T14:14:59.188Z</time></trkpt><trkpt lat="45.1924859" lon="7.6305158"><ele>297.0</ele><time>2026-05-03T14:15:00.189Z</time></trkpt><trkpt lat="45.1923576" lon="7.6307791"><ele>297.0</ele><time>2026-05-03T14:15:01.188Z</time></trkpt><trkpt lat="45.1922192" lon="7.631038"><ele>297.0</ele><time>2026-05-03T14:15:02.189Z</time></trkpt><trkpt lat="45.1920764" lon="7.6313073"><ele>297.0</ele><time>2026-05-03T14:15:03.188Z</time></trkpt><trkpt lat="45.1919349" lon="7.6315765"><ele>297.0</ele><time>2026-05-03T14:15:04.188Z</time></trkpt><trkpt lat="45.1917984" lon="7.6318367"><ele>297.3333333333333</ele><time>2026-05-03T14:15:05.188Z</time></trkpt><trkpt lat="45.1916697" lon="7.6320826"><ele>297.66666666666663</ele><time>2026-05-03T14:15:06.188Z</time></trkpt><trkpt lat="45.1915413" lon="7.632323"><ele>298.0</ele><time>2026-05-03T14:15:07.188Z</time></trkpt><trkpt lat="45.1914166" lon="7.6325527"><ele>297.3333333333333</ele><time>2026-05-03T14:15:08.188Z</time></trkpt><trkpt lat="45.1913055" lon="7.6327588"><ele>296.6666666666667</ele><time>2026-05-03T14:15:09.188Z</time></trkpt><trkpt lat="45.1912063" lon="7.6329481"><ele>296.0</ele><time>2026-05-03T14:15:10.188Z</time></trkpt><trkpt lat="45.1911173" lon="7.6331287"><ele>296.0</ele><time>2026-05-03T14:15:11.188Z</time></trkpt><trkpt lat="45.1910343" lon="7.6333043"><ele>296.0</ele><time>2026-05-03T14:15:12.189Z</time></trkpt><trkpt lat="45.1909567" lon="7.6334829"><ele>296.0</ele><time>2026-05-03T14:15:13.188Z</time></trkpt><trkpt lat="45.1908699" lon="7.6336742"><ele>295.33333333333337</ele><time>2026-05-03T14:15:14.188Z</time></trkpt><trkpt lat="45.1907854" lon="7.6338777"><ele>294.6666666666667</ele><time>2026-05-03T14:15:15.188Z</time></trkpt><trkpt lat="45.1907023" lon="7.6340916"><ele>294.0</ele><time>2026-05-03T14:15:16.188Z</time></trkpt><trkpt lat="45.1906135" lon="7.6343275"><ele>293.3333333333333</ele><time>2026-05-03T14:15:17.188Z</time></trkpt><trkpt lat="45.1905204" lon="7.6345615"><ele>292.66666666666663</ele><time>2026-05-03T14:15:18.188Z</time></trkpt><trkpt lat="45.190421" lon="7.634801"><ele>292.0</ele><time>2026-05-03T14:15:19.188Z</time></trkpt><trkpt lat="45.190321" lon="7.6350446"><ele>292.0</ele><time>2026-05-03T14:15:20.189Z</time></trkpt><trkpt lat="45.1902257" lon="7.6352862"><ele>292.0</ele><time>2026-05-03T14:15:21.189Z</time></trkpt><trkpt lat="45.1901301" lon="7.6355406"><ele>292.0</ele><time>2026-05-03T14:15:22.188Z</time></trkpt><trkpt lat="45.1900286" lon="7.6358199"><ele>292.0</ele><time>2026-05-03T14:15:23.188Z</time></trkpt><trkpt lat="45.1899194" lon="7.6361011"><ele>292.0</ele><time>2026-05-03T14:15:24.188Z</time></trkpt><trkpt lat="45.1898118" lon="7.6363774"><ele>292.0</ele><time>2026-05-03T14:15:25.188Z</time></trkpt><trkpt lat="45.1897077" lon="7.6366524"><ele>292.0</ele><time>2026-05-03T14:15:26.189Z</time></trkpt><trkpt lat="45.189606" lon="7.636913"><ele>292.0</ele><time>2026-05-03T14:15:27.188Z</time></trkpt><trkpt lat="45.1895179" lon="7.637167"><ele>292.0</ele><time>2026-05-03T14:15:28.188Z</time></trkpt><trkpt lat="45.1894394" lon="7.6373934"><ele>291.75</ele><time>2026-05-03T14:15:29.189Z</time></trkpt><trkpt lat="45.1893669" lon="7.6375979"><ele>291.5</ele><time>2026-05-03T14:15:30.188Z</time></trkpt><trkpt lat="45.1893107" lon="7.6377646"><ele>291.25</ele><time>2026-05-03T14:15:31.188Z</time></trkpt><trkpt lat="45.1892622" lon="7.6379042"><ele>291.0</ele><time>2026-05-03T14:15:32.188Z</time></trkpt><trkpt lat="45.1892259" lon="7.6380085"><ele>290.8333333333333</ele><time>2026-05-03T14:15:33.188Z</time></trkpt><trkpt lat="45.1892022" lon="7.6380955"><ele>290.6666666666667</ele><time>2026-05-03T14:15:34.188Z</time></trkpt><trkpt lat="45.1891678" lon="7.6381975"><ele>290.5</ele><time>2026-05-03T14:15:36.189Z</time></trkpt><trkpt lat="45.1891322" lon="7.6382932"><ele>290.33333333333337</ele><time>2026-05-03T14:15:57.188Z</time></trkpt><trkpt lat="45.1890722" lon="7.6384389"><ele>290.1666666666667</ele><time>2026-05-03T14:15:59.188Z</time></trkpt><trkpt lat="45.1890218" lon="7.6385643"><ele>290.0</ele><time>2026-05-03T14:16:00.188Z</time></trkpt><trkpt lat="45.188969" lon="7.6387219"><ele>289.0</ele><time>2026-05-03T14:16:01.189Z</time></trkpt><trkpt lat="45.1889039" lon="7.6389036"><ele>288.0</ele><time>2026-05-03T14:16:02.188Z</time></trkpt><trkpt lat="45.1888289" lon="7.6391011"><ele>287.0</ele><time>2026-05-03T14:16:03.188Z</time></trkpt><trkpt lat="45.1887547" lon="7.6393148"><ele>287.33333333333337</ele><time>2026-05-03T14:16:04.189Z</time></trkpt><trkpt lat="45.1886769" lon="7.6395376"><ele>287.6666666666667</ele><time>2026-05-03T14:16:05.189Z</time></trkpt><trkpt lat="45.1885912" lon="7.639767"><ele>288.0</ele><time>2026-05-03T14:16:06.188Z</time></trkpt><trkpt lat="45.1885021" lon="7.6400118"><ele>288.0</ele><time>2026-05-03T14:16:07.188Z</time></trkpt><trkpt lat="45.1884046" lon="7.6402634"><ele>288.0</ele><time>2026-05-03T14:16:08.188Z</time></trkpt><trkpt lat="45.188307" lon="7.6405138"><ele>288.0</ele><time>2026-05-03T14:16:09.188Z</time></trkpt><trkpt lat="45.1882062" lon="7.6407741"><ele>287.6666666666667</ele><time>2026-05-03T14:16:10.189Z</time></trkpt><trkpt lat="45.1881014" lon="7.641034"><ele>287.33333333333337</ele><time>2026-05-03T14:16:11.189Z</time></trkpt><trkpt lat="45.1879964" lon="7.6412987"><ele>287.0</ele><time>2026-05-03T14:16:12.188Z</time></trkpt><trkpt lat="45.1878771" lon="7.6415528"><ele>287.0</ele><time>2026-05-03T14:16:13.189Z</time></trkpt><trkpt lat="45.1877572" lon="7.6418062"><ele>287.0</ele><time>2026-05-03T14:16:14.188Z</time></trkpt><trkpt lat="45.1876279" lon="7.642056"><ele>287.0</ele><time>2026-05-03T14:16:15.188Z</time></trkpt><trkpt lat="45.1874985" lon="7.6422955"><ele>287.0</ele><time>2026-05-03T14:16:16.188Z</time></trkpt><trkpt lat="45.1873667" lon="7.642541"><ele>287.0</ele><time>2026-05-03T14:16:17.188Z</time></trkpt><trkpt lat="45.1872359" lon="7.6427869"><ele>287.0</ele><time>2026-05-03T14:16:18.188Z</time></trkpt><trkpt lat="45.1871104" lon="7.643034"><ele>286.6666666666667</ele><time>2026-05-03T14:16:19.188Z</time></trkpt><trkpt lat="45.1869884" lon="7.6432674"><ele>286.3333333333333</ele><time>2026-05-03T14:16:20.188Z</time></trkpt><trkpt lat="45.1868689" lon="7.6434878"><ele>286.0</ele><time>2026-05-03T14:16:21.188Z</time></trkpt><trkpt lat="45.1867428" lon="7.643698"><ele>285.66666666666663</ele><time>2026-05-03T14:16:22.188Z</time></trkpt><trkpt lat="45.1866059" lon="7.6438802"><ele>285.3333333333333</ele><time>2026-05-03T14:16:23.188Z</time></trkpt><trkpt lat="45.186465" lon="7.6440513"><ele>285.0</ele><time>2026-05-03T14:16:24.188Z</time></trkpt><trkpt lat="45.1863212" lon="7.6441939"><ele>284.6666666666667</ele><time>2026-05-03T14:16:25.188Z</time></trkpt><trkpt lat="45.1861712" lon="7.6443345"><ele>284.33333333333337</ele><time>2026-05-03T14:16:26.188Z</time></trkpt><trkpt lat="45.1860273" lon="7.6444517"><ele>284.0</ele><time>2026-05-03T14:16:27.188Z</time></trkpt><trkpt lat="45.1858878" lon="7.6445593"><ele>284.0</ele><time>2026-05-03T14:16:28.189Z</time></trkpt><trkpt lat="45.1857521" lon="7.6446642"><ele>284.0</ele><time>2026-05-03T14:16:29.188Z</time></trkpt><trkpt lat="45.1856168" lon="7.6447613"><ele>284.0</ele><time>2026-05-03T14:16:30.188Z</time></trkpt><trkpt lat="45.1854809" lon="7.6448616"><ele>284.6666666666667</ele><time>2026-05-03T14:16:31.188Z</time></trkpt><trkpt lat="45.1853364" lon="7.6449477"><ele>285.3333333333333</ele><time>2026-05-03T14:16:32.188Z</time></trkpt><trkpt lat="45.1851849" lon="7.64501"><ele>286.0</ele><time>2026-05-03T14:16:33.189Z</time></trkpt><trkpt lat="45.185032" lon="7.6450604"><ele>286.0</ele><time>2026-05-03T14:16:34.188Z</time></trkpt><trkpt lat="45.1848797" lon="7.6451032"><ele>286.0</ele><time>2026-05-03T14:16:35.188Z</time></trkpt><trkpt lat="45.1847221" lon="7.6451361"><ele>286.0</ele><time>2026-05-03T14:16:36.188Z</time></trkpt><trkpt lat="45.1845614" lon="7.6451726"><ele>284.66666666666663</ele><time>2026-05-03T14:16:37.188Z</time></trkpt><trkpt lat="45.1843979" lon="7.6452032"><ele>283.3333333333333</ele><time>2026-05-03T14:16:38.188Z</time></trkpt><trkpt lat="45.1842342" lon="7.6452386"><ele>282.0</ele><time>2026-05-03T14:16:39.188Z</time></trkpt><trkpt lat="45.1840697" lon="7.6452697"><ele>282.0</ele><time>2026-05-03T14:16:40.188Z</time></trkpt><trkpt lat="45.1839036" lon="7.6452966"><ele>282.0</ele><time>2026-05-03T14:16:41.188Z</time></trkpt><trkpt lat="45.1837417" lon="7.6453238"><ele>282.0</ele><time>2026-05-03T14:16:42.189Z</time></trkpt><trkpt lat="45.1835755" lon="7.6453465"><ele>282.0</ele><time>2026-05-03T14:16:43.188Z</time></trkpt><trkpt lat="45.1834102" lon="7.6453765"><ele>282.0</ele><time>2026-05-03T14:16:44.188Z</time></trkpt><trkpt lat="45.1832425" lon="7.6454138"><ele>282.0</ele><time>2026-05-03T14:16:45.189Z</time></trkpt><trkpt lat="45.1830793" lon="7.6454594"><ele>282.0</ele><time>2026-05-03T14:16:46.188Z</time></trkpt><trkpt lat="45.1829148" lon="7.645518"><ele>282.0</ele><time>2026-05-03T14:16:47.188Z</time></trkpt><trkpt lat="45.1827599" lon="7.6455944"><ele>282.0</ele><time>2026-05-03T14:16:48.188Z</time></trkpt><trkpt lat="45.1826065" lon="7.6456914"><ele>282.0</ele><time>2026-05-03T14:16:49.188Z</time></trkpt><trkpt lat="45.1824493" lon="7.6458175"><ele>282.0</ele><time>2026-05-03T14:16:50.188Z</time></trkpt><trkpt lat="45.1822947" lon="7.6459628"><ele>282.0</ele><time>2026-05-03T14:16:51.188Z</time></trkpt><trkpt lat="45.1821375" lon="7.6461317"><ele>281.6666666666667</ele><time>2026-05-03T14:16:52.189Z</time></trkpt><trkpt lat="45.1819768" lon="7.6463281"><ele>281.33333333333337</ele><time>2026-05-03T14:16:53.188Z</time></trkpt><trkpt lat="45.1818195" lon="7.6465566"><ele>281.0</ele><time>2026-05-03T14:16:54.188Z</time></trkpt><trkpt lat="45.1816627" lon="7.6468125"><ele>279.0</ele><time>2026-05-03T14:16:55.189Z</time></trkpt><trkpt lat="45.1815133" lon="7.6470845"><ele>277.0</ele><time>2026-05-03T14:16:56.188Z</time></trkpt><trkpt lat="45.1813603" lon="7.6473812"><ele>277.0</ele><time>2026-05-03T14:16:57.188Z</time></trkpt><trkpt lat="45.1812048" lon="7.6476904"><ele>277.0</ele><time>2026-05-03T14:16:58.188Z</time></trkpt><trkpt lat="45.1810471" lon="7.6480065"><ele>277.0</ele><time>2026-05-03T14:16:59.189Z</time></trkpt><trkpt lat="45.1808881" lon="7.648333"><ele>277.0</ele><time>2026-05-03T14:17:00.189Z</time></trkpt><trkpt lat="45.1807261" lon="7.648657"><ele>278.0</ele><time>2026-05-03T14:17:01.188Z</time></trkpt><trkpt lat="45.1805664" lon="7.6489792"><ele>279.0</ele><time>2026-05-03T14:17:02.188Z</time></trkpt><trkpt lat="45.1804095" lon="7.6493007"><ele>278.5</ele><time>2026-05-03T14:17:03.188Z</time></trkpt><trkpt lat="45.1802507" lon="7.6496337"><ele>278.0</ele><time>2026-05-03T14:17:04.188Z</time></trkpt><trkpt lat="45.1800928" lon="7.6499655"><ele>277.5</ele><time>2026-05-03T14:17:05.189Z</time></trkpt><trkpt lat="45.1799374" lon="7.6502998"><ele>277.0</ele><time>2026-05-03T14:17:06.188Z</time></trkpt><trkpt lat="45.1797899" lon="7.6506371"><ele>277.0</ele><time>2026-05-03T14:17:07.188Z</time></trkpt><trkpt lat="45.1796497" lon="7.6509815"><ele>277.0</ele><time>2026-05-03T14:17:08.189Z</time></trkpt><trkpt lat="45.1795089" lon="7.6513273"><ele>277.0</ele><time>2026-05-03T14:17:09.189Z</time></trkpt><trkpt lat="45.1793744" lon="7.6516717"><ele>277.0</ele><time>2026-05-03T14:17:10.188Z</time></trkpt><trkpt lat="45.17924" lon="7.6520221"><ele>276.5</ele><time>2026-05-03T14:17:11.189Z</time></trkpt><trkpt lat="45.1791067" lon="7.6523727"><ele>276.0</ele><time>2026-05-03T14:17:12.188Z</time></trkpt><trkpt lat="45.1789777" lon="7.6527152"><ele>275.5</ele><time>2026-05-03T14:17:13.188Z</time></trkpt><trkpt lat="45.1788506" lon="7.6530581"><ele>275.0</ele><time>2026-05-03T14:17:14.189Z</time></trkpt><trkpt lat="45.1787308" lon="7.6534027"><ele>274.5</ele><time>2026-05-03T14:17:15.189Z</time></trkpt><trkpt lat="45.1786209" lon="7.6537512"><ele>274.0</ele><time>2026-05-03T14:17:16.189Z</time></trkpt><trkpt lat="45.1785159" lon="7.6540948"><ele>274.0</ele><time>2026-05-03T14:17:17.188Z</time></trkpt><trkpt lat="45.1784117" lon="7.6544309"><ele>274.0</ele><time>2026-05-03T14:17:18.188Z</time></trkpt><trkpt lat="45.1783174" lon="7.65477"><ele>274.0</ele><time>2026-05-03T14:17:19.188Z</time></trkpt><trkpt lat="45.1782224" lon="7.6551254"><ele>274.0</ele><time>2026-05-03T14:17:20.189Z</time></trkpt><trkpt lat="45.1781299" lon="7.6554777"><ele>274.0</ele><time>2026-05-03T14:17:21.188Z</time></trkpt><trkpt lat="45.1780353" lon="7.6558324"><ele>274.0</ele><time>2026-05-03T14:17:22.188Z</time></trkpt><trkpt lat="45.1779387" lon="7.6561858"><ele>274.5</ele><time>2026-05-03T14:17:23.188Z</time></trkpt><trkpt lat="45.1778405" lon="7.6565475"><ele>275.0</ele><time>2026-05-03T14:17:24.189Z</time></trkpt><trkpt lat="45.1777394" lon="7.6569198"><ele>275.0</ele><time>2026-05-03T14:17:25.188Z</time></trkpt><trkpt lat="45.1776334" lon="7.6572997"><ele>275.0</ele><time>2026-05-03T14:17:26.189Z</time></trkpt><trkpt lat="45.1775295" lon="7.6576896"><ele>274.0</ele><time>2026-05-03T14:17:27.189Z</time></trkpt><trkpt lat="45.1774229" lon="7.6580747"><ele>273.0</ele><time>2026-05-03T14:17:28.188Z</time></trkpt><trkpt lat="45.1773165" lon="7.6584732"><ele>272.0</ele><time>2026-05-03T14:17:29.188Z</time></trkpt><trkpt lat="45.1772056" lon="7.6588667"><ele>271.0</ele><time>2026-05-03T14:17:30.188Z</time></trkpt><trkpt lat="45.1770937" lon="7.6592705"><ele>270.5</ele><time>2026-05-03T14:17:31.189Z</time></trkpt><trkpt lat="45.1769869" lon="7.65968"><ele>270.0</ele><time>2026-05-03T14:17:32.189Z</time></trkpt><trkpt lat="45.1768852" lon="7.6600833"><ele>270.0</ele><time>2026-05-03T14:17:33.188Z</time></trkpt><trkpt lat="45.1767831" lon="7.6604971"><ele>270.0</ele><time>2026-05-03T14:17:34.188Z</time></trkpt><trkpt lat="45.1766797" lon="7.6609066"><ele>270.0</ele><time>2026-05-03T14:17:35.189Z</time></trkpt><trkpt lat="45.1765731" lon="7.6613119"><ele>270.0</ele><time>2026-05-03T14:17:36.188Z</time></trkpt><trkpt lat="45.1764646" lon="7.6617124"><ele>269.5</ele><time>2026-05-03T14:17:37.189Z</time></trkpt><trkpt lat="45.1763595" lon="7.6621192"><ele>269.0</ele><time>2026-05-03T14:17:38.188Z</time></trkpt><trkpt lat="45.1762485" lon="7.6625132"><ele>269.0</ele><time>2026-05-03T14:17:39.188Z</time></trkpt><trkpt lat="45.1761426" lon="7.6629013"><ele>269.0</ele><time>2026-05-03T14:17:40.188Z</time></trkpt><trkpt lat="45.1760296" lon="7.6633015"><ele>268.5</ele><time>2026-05-03T14:17:41.189Z</time></trkpt><trkpt lat="45.1759164" lon="7.6637101"><ele>268.0</ele><time>2026-05-03T14:17:42.188Z</time></trkpt><trkpt lat="45.1758077" lon="7.6641242"><ele>267.0</ele><time>2026-05-03T14:17:43.188Z</time></trkpt><trkpt lat="45.1756958" lon="7.6645339"><ele>266.0</ele><time>2026-05-03T14:17:44.188Z</time></trkpt><trkpt lat="45.1755866" lon="7.6649429"><ele>266.0</ele><time>2026-05-03T14:17:45.189Z</time></trkpt><trkpt lat="45.1754797" lon="7.6653519"><ele>266.0</ele><time>2026-05-03T14:17:46.189Z</time></trkpt><trkpt lat="45.1753663" lon="7.6657597"><ele>266.0</ele><time>2026-05-03T14:17:47.189Z</time></trkpt><trkpt lat="45.1752539" lon="7.6661761"><ele>266.0</ele><time>2026-05-03T14:17:48.189Z</time></trkpt><trkpt lat="45.1751395" lon="7.666587"><ele>265.0</ele><time>2026-05-03T14:17:49.188Z</time></trkpt><trkpt lat="45.1750288" lon="7.666993"><ele>264.0</ele><time>2026-05-03T14:17:50.188Z</time></trkpt><trkpt lat="45.1749177" lon="7.6673965"><ele>264.0</ele><time>2026-05-03T14:17:51.188Z</time></trkpt><trkpt lat="45.1748042" lon="7.667806"><ele>264.0</ele><time>2026-05-03T14:17:52.188Z</time></trkpt><trkpt lat="45.1746941" lon="7.6682164"><ele>265.0</ele><time>2026-05-03T14:17:53.189Z</time></trkpt><trkpt lat="45.1745825" lon="7.6686217"><ele>266.0</ele><time>2026-05-03T14:17:54.188Z</time></trkpt><trkpt lat="45.1744723" lon="7.6690238"><ele>266.0</ele><time>2026-05-03T14:17:55.188Z</time></trkpt><trkpt lat="45.1743613" lon="7.6694289"><ele>266.0</ele><time>2026-05-03T14:17:56.188Z</time></trkpt><trkpt lat="45.1742511" lon="7.6698355"><ele>264.5</ele><time>2026-05-03T14:17:57.189Z</time></trkpt><trkpt lat="45.1741409" lon="7.6702379"><ele>263.0</ele><time>2026-05-03T14:17:58.188Z</time></trkpt><trkpt lat="45.174026" lon="7.6706385"><ele>262.5</ele><time>2026-05-03T14:17:59.188Z</time></trkpt><trkpt lat="45.1739107" lon="7.6710398"><ele>262.0</ele><time>2026-05-03T14:18:00.188Z</time></trkpt><trkpt lat="45.1737903" lon="7.6714367"><ele>262.0</ele><time>2026-05-03T14:18:01.188Z</time></trkpt><trkpt lat="45.1736647" lon="7.671842"><ele>262.0</ele><time>2026-05-03T14:18:02.188Z</time></trkpt><trkpt lat="45.1735303" lon="7.6722512"><ele>262.0</ele><time>2026-05-03T14:18:03.188Z</time></trkpt><trkpt lat="45.1733871" lon="7.6726507"><ele>262.0</ele><time>2026-05-03T14:18:04.189Z</time></trkpt><trkpt lat="45.1732381" lon="7.6730515"><ele>262.0</ele><time>2026-05-03T14:18:05.188Z</time></trkpt><trkpt lat="45.1730876" lon="7.6734375"><ele>262.0</ele><time>2026-05-03T14:18:06.189Z</time></trkpt><trkpt lat="45.1729337" lon="7.673824"><ele>261.0</ele><time>2026-05-03T14:18:07.189Z</time></trkpt><trkpt lat="45.1727724" lon="7.6742094"><ele>260.0</ele><time>2026-05-03T14:18:08.188Z</time></trkpt><trkpt lat="45.1726075" lon="7.6746025"><ele>260.0</ele><time>2026-05-03T14:18:09.188Z</time></trkpt><trkpt lat="45.1724339" lon="7.674988"><ele>260.0</ele><time>2026-05-03T14:18:10.189Z</time></trkpt><trkpt lat="45.1722528" lon="7.6753739"><ele>260.0</ele><time>2026-05-03T14:18:11.188Z</time></trkpt><trkpt lat="45.172062" lon="7.6757479"><ele>260.0</ele><time>2026-05-03T14:18:12.188Z</time></trkpt><trkpt lat="45.1718705" lon="7.6761187"><ele>260.0</ele><time>2026-05-03T14:18:13.188Z</time></trkpt><trkpt lat="45.1716756" lon="7.6764802"><ele>260.0</ele><time>2026-05-03T14:18:14.188Z</time></trkpt><trkpt lat="45.1714763" lon="7.6768384"><ele>259.0</ele><time>2026-05-03T14:18:15.188Z</time></trkpt><trkpt lat="45.1712699" lon="7.6771964"><ele>258.0</ele><time>2026-05-03T14:18:16.188Z</time></trkpt><trkpt lat="45.171063" lon="7.6775462"><ele>258.0</ele><time>2026-05-03T14:18:17.188Z</time></trkpt><trkpt lat="45.1708503" lon="7.6778946"><ele>258.0</ele><time>2026-05-03T14:18:18.188Z</time></trkpt><trkpt lat="45.1706336" lon="7.678237"><ele>258.5</ele><time>2026-05-03T14:18:19.188Z</time></trkpt><trkpt lat="45.1704139" lon="7.6785798"><ele>259.0</ele><time>2026-05-03T14:18:20.188Z</time></trkpt><trkpt lat="45.1701823" lon="7.6789125"><ele>259.5</ele><time>2026-05-03T14:18:21.189Z</time></trkpt><trkpt lat="45.1699521" lon="7.6792431"><ele>260.0</ele><time>2026-05-03T14:18:22.188Z</time></trkpt><trkpt lat="45.169715" lon="7.6795677"><ele>258.5</ele><time>2026-05-03T14:18:23.188Z</time></trkpt><trkpt lat="45.1694817" lon="7.6798799"><ele>257.0</ele><time>2026-05-03T14:18:24.189Z</time></trkpt><trkpt lat="45.1692432" lon="7.6801807"><ele>255.0</ele><time>2026-05-03T14:18:25.188Z</time></trkpt><trkpt lat="45.1690041" lon="7.6804711"><ele>253.0</ele><time>2026-05-03T14:18:26.188Z</time></trkpt><trkpt lat="45.1687647" lon="7.6807478"><ele>253.0</ele><time>2026-05-03T14:18:27.188Z</time></trkpt><trkpt lat="45.1685258" lon="7.6810173"><ele>253.0</ele><time>2026-05-03T14:18:28.189Z</time></trkpt><trkpt lat="45.1682808" lon="7.6812793"><ele>253.5</ele><time>2026-05-03T14:18:29.188Z</time></trkpt><trkpt lat="45.1680317" lon="7.6815429"><ele>254.0</ele><time>2026-05-03T14:18:30.188Z</time></trkpt><trkpt lat="45.1677827" lon="7.6817966"><ele>253.5</ele><time>2026-05-03T14:18:31.189Z</time></trkpt><trkpt lat="45.1675313" lon="7.6820454"><ele>253.0</ele><time>2026-05-03T14:18:32.189Z</time></trkpt><trkpt lat="45.1672895" lon="7.6822797"><ele>253.0</ele><time>2026-05-03T14:18:33.188Z</time></trkpt><trkpt lat="45.1670487" lon="7.6825026"><ele>253.0</ele><time>2026-05-03T14:18:34.188Z</time></trkpt><trkpt lat="45.1668036" lon="7.6827203"><ele>253.5</ele><time>2026-05-03T14:18:35.188Z</time></trkpt><trkpt lat="45.1665603" lon="7.6829332"><ele>254.0</ele><time>2026-05-03T14:18:36.188Z</time></trkpt><trkpt lat="45.1663092" lon="7.683136"><ele>254.5</ele><time>2026-05-03T14:18:37.188Z</time></trkpt><trkpt lat="45.1660577" lon="7.6833326"><ele>255.0</ele><time>2026-05-03T14:18:38.189Z</time></trkpt><trkpt lat="45.165803" lon="7.683525"><ele>254.5</ele><time>2026-05-03T14:18:39.188Z</time></trkpt><trkpt lat="45.165542" lon="7.683716"><ele>254.0</ele><time>2026-05-03T14:18:40.188Z</time></trkpt><trkpt lat="45.16528" lon="7.6839071"><ele>254.0</ele><time>2026-05-03T14:18:41.189Z</time></trkpt><trkpt lat="45.1650104" lon="7.6840912"><ele>254.0</ele><time>2026-05-03T14:18:42.188Z</time></trkpt><trkpt lat="45.1647361" lon="7.6842666"><ele>252.5</ele><time>2026-05-03T14:18:43.188Z</time></trkpt><trkpt lat="45.1644506" lon="7.6844405"><ele>251.0</ele><time>2026-05-03T14:18:44.189Z</time></trkpt><trkpt lat="45.1641648" lon="7.6846116"><ele>251.5</ele><time>2026-05-03T14:18:45.189Z</time></trkpt><trkpt lat="45.1638773" lon="7.6847774"><ele>252.0</ele><time>2026-05-03T14:18:46.188Z</time></trkpt><trkpt lat="45.1635902" lon="7.6849331"><ele>252.0</ele><time>2026-05-03T14:18:47.188Z</time></trkpt><trkpt lat="45.1633013" lon="7.6850811"><ele>252.0</ele><time>2026-05-03T14:18:48.189Z</time></trkpt><trkpt lat="45.1630173" lon="7.6852141"><ele>251.0</ele><time>2026-05-03T14:18:49.189Z</time></trkpt><trkpt lat="45.1627345" lon="7.6853417"><ele>250.0</ele><time>2026-05-03T14:18:50.189Z</time></trkpt><trkpt lat="45.1624514" lon="7.685453"><ele>250.0</ele><time>2026-05-03T14:18:51.189Z</time></trkpt><trkpt lat="45.1621782" lon="7.6855643"><ele>250.0</ele><time>2026-05-03T14:18:52.189Z</time></trkpt><trkpt lat="45.1619071" lon="7.6856642"><ele>250.0</ele><time>2026-05-03T14:18:53.188Z</time></trkpt><trkpt lat="45.1616435" lon="7.6857554"><ele>250.0</ele><time>2026-05-03T14:18:54.189Z</time></trkpt><trkpt lat="45.1613785" lon="7.6858424"><ele>249.0</ele><time>2026-05-03T14:18:55.189Z</time></trkpt><trkpt lat="45.1611182" lon="7.6859232"><ele>248.0</ele><time>2026-05-03T14:18:56.188Z</time></trkpt><trkpt lat="45.1608594" lon="7.6859957"><ele>247.5</ele><time>2026-05-03T14:18:57.188Z</time></trkpt><trkpt lat="45.1606055" lon="7.6860672"><ele>247.0</ele><time>2026-05-03T14:18:58.189Z</time></trkpt><trkpt lat="45.1603545" lon="7.6861262"><ele>247.0</ele><time>2026-05-03T14:18:59.188Z</time></trkpt><trkpt lat="45.1601072" lon="7.6861838"><ele>247.0</ele><time>2026-05-03T14:19:00.189Z</time></trkpt><trkpt lat="45.1598589" lon="7.6862379"><ele>246.0</ele><time>2026-05-03T14:19:01.189Z</time></trkpt><trkpt lat="45.1596099" lon="7.6862795"><ele>245.0</ele><time>2026-05-03T14:19:02.188Z</time></trkpt><trkpt lat="45.1593612" lon="7.6863112"><ele>245.0</ele><time>2026-05-03T14:19:03.189Z</time></trkpt><trkpt lat="45.1591104" lon="7.6863304"><ele>245.0</ele><time>2026-05-03T14:19:04.188Z</time></trkpt><trkpt lat="45.158862" lon="7.6863546"><ele>246.0</ele><time>2026-05-03T14:19:05.189Z</time></trkpt><trkpt lat="45.1586159" lon="7.6863813"><ele>247.0</ele><time>2026-05-03T14:19:06.188Z</time></trkpt><trkpt lat="45.1583772" lon="7.6864147"><ele>247.5</ele><time>2026-05-03T14:19:07.188Z</time></trkpt><trkpt lat="45.1581389" lon="7.6864466"><ele>248.0</ele><time>2026-05-03T14:19:08.189Z</time></trkpt><trkpt lat="45.1579065" lon="7.6864846"><ele>248.0</ele><time>2026-05-03T14:19:09.188Z</time></trkpt><trkpt lat="45.1576767" lon="7.6865208"><ele>248.0</ele><time>2026-05-03T14:19:10.188Z</time></trkpt><trkpt lat="45.1574465" lon="7.6865521"><ele>247.0</ele><time>2026-05-03T14:19:11.188Z</time></trkpt><trkpt lat="45.1572097" lon="7.6865793"><ele>246.0</ele><time>2026-05-03T14:19:12.188Z</time></trkpt><trkpt lat="45.1569674" lon="7.6866162"><ele>246.0</ele><time>2026-05-03T14:19:13.189Z</time></trkpt><trkpt lat="45.1567223" lon="7.6866507"><ele>246.0</ele><time>2026-05-03T14:19:14.188Z</time></trkpt><trkpt lat="45.1564661" lon="7.6866941"><ele>245.5</ele><time>2026-05-03T14:19:15.188Z</time></trkpt><trkpt lat="45.1562025" lon="7.68674"><ele>245.0</ele><time>2026-05-03T14:19:16.189Z</time></trkpt><trkpt lat="45.1559284" lon="7.6867835"><ele>244.5</ele><time>2026-05-03T14:19:17.188Z</time></trkpt><trkpt lat="45.1556446" lon="7.686827"><ele>244.0</ele><time>2026-05-03T14:19:18.188Z</time></trkpt><trkpt lat="45.155356" lon="7.6868655"><ele>244.0</ele><time>2026-05-03T14:19:19.189Z</time></trkpt><trkpt lat="45.1550585" lon="7.6869122"><ele>244.0</ele><time>2026-05-03T14:19:20.188Z</time></trkpt><trkpt lat="45.1547576" lon="7.686947"><ele>243.0</ele><time>2026-05-03T14:19:21.188Z</time></trkpt><trkpt lat="45.1544567" lon="7.6869712"><ele>242.0</ele><time>2026-05-03T14:19:22.188Z</time></trkpt><trkpt lat="45.154156" lon="7.6869988"><ele>242.0</ele><time>2026-05-03T14:19:23.189Z</time></trkpt><trkpt lat="45.1538597" lon="7.6870273"><ele>242.0</ele><time>2026-05-03T14:19:24.189Z</time></trkpt><trkpt lat="45.1535598" lon="7.6870581"><ele>242.0</ele><time>2026-05-03T14:19:25.189Z</time></trkpt><trkpt lat="45.153261" lon="7.6870918"><ele>242.0</ele><time>2026-05-03T14:19:26.188Z</time></trkpt><trkpt lat="45.1529639" lon="7.6871299"><ele>243.0</ele><time>2026-05-03T14:19:27.189Z</time></trkpt><trkpt lat="45.1526708" lon="7.6871673"><ele>244.0</ele><time>2026-05-03T14:19:28.188Z</time></trkpt><trkpt lat="45.152379" lon="7.6872032"><ele>244.0</ele><time>2026-05-03T14:19:29.189Z</time></trkpt><trkpt lat="45.1520832" lon="7.6872445"><ele>244.0</ele><time>2026-05-03T14:19:30.189Z</time></trkpt><trkpt lat="45.1517855" lon="7.6872944"><ele>245.0</ele><time>2026-05-03T14:19:31.189Z</time></trkpt><trkpt lat="45.151486" lon="7.6873479"><ele>246.0</ele><time>2026-05-03T14:19:32.188Z</time></trkpt><trkpt lat="45.1511848" lon="7.6874024"><ele>246.0</ele><time>2026-05-03T14:19:33.188Z</time></trkpt><trkpt lat="45.150881" lon="7.6874475"><ele>246.0</ele><time>2026-05-03T14:19:34.188Z</time></trkpt><trkpt lat="45.1505744" lon="7.6874943"><ele>244.5</ele><time>2026-05-03T14:19:35.188Z</time></trkpt><trkpt lat="45.1502668" lon="7.6875397"><ele>243.0</ele><time>2026-05-03T14:19:36.188Z</time></trkpt><trkpt lat="45.1499592" lon="7.6875772"><ele>243.0</ele><time>2026-05-03T14:19:37.189Z</time></trkpt><trkpt lat="45.1496514" lon="7.6876211"><ele>243.0</ele><time>2026-05-03T14:19:38.188Z</time></trkpt><trkpt lat="45.1493443" lon="7.687659"><ele>242.5</ele><time>2026-05-03T14:19:39.188Z</time></trkpt><trkpt lat="45.1490404" lon="7.6876989"><ele>242.0</ele><time>2026-05-03T14:19:40.189Z</time></trkpt><trkpt lat="45.1487345" lon="7.6877402"><ele>241.5</ele><time>2026-05-03T14:19:41.188Z</time></trkpt><trkpt lat="45.1484284" lon="7.6877923"><ele>241.0</ele><time>2026-05-03T14:19:42.188Z</time></trkpt><trkpt lat="45.1481255" lon="7.6878492"><ele>240.5</ele><time>2026-05-03T14:19:43.188Z</time></trkpt><trkpt lat="45.1478211" lon="7.6879144"><ele>240.0</ele><time>2026-05-03T14:19:44.188Z</time></trkpt><trkpt lat="45.1475208" lon="7.6879941"><ele>240.5</ele><time>2026-05-03T14:19:45.189Z</time></trkpt><trkpt lat="45.1472226" lon="7.6880771"><ele>241.0</ele><time>2026-05-03T14:19:46.189Z</time></trkpt><trkpt lat="45.1469257" lon="7.6881684"><ele>241.0</ele><time>2026-05-03T14:19:47.189Z</time></trkpt><trkpt lat="45.1466248" lon="7.6882662"><ele>241.0</ele><time>2026-05-03T14:19:48.188Z</time></trkpt><trkpt lat="45.1463207" lon="7.6883687"><ele>241.0</ele><time>2026-05-03T14:19:49.188Z</time></trkpt><trkpt lat="45.1460224" lon="7.6884789"><ele>241.0</ele><time>2026-05-03T14:19:50.188Z</time></trkpt><trkpt lat="45.1457269" lon="7.6885915"><ele>240.0</ele><time>2026-05-03T14:19:51.189Z</time></trkpt><trkpt lat="45.1454342" lon="7.6887159"><ele>239.0</ele><time>2026-05-03T14:19:52.188Z</time></trkpt><trkpt lat="45.1451418" lon="7.6888444"><ele>239.5</ele><time>2026-05-03T14:19:53.189Z</time></trkpt><trkpt lat="45.1448507" lon="7.6889821"><ele>240.0</ele><time>2026-05-03T14:19:54.188Z</time></trkpt><trkpt lat="45.1445606" lon="7.6891291"><ele>240.0</ele><time>2026-05-03T14:19:55.189Z</time></trkpt><trkpt lat="45.1442697" lon="7.6892847"><ele>240.0</ele><time>2026-05-03T14:19:56.188Z</time></trkpt><trkpt lat="45.143984" lon="7.6894469"><ele>238.5</ele><time>2026-05-03T14:19:57.189Z</time></trkpt><trkpt lat="45.1436981" lon="7.6896152"><ele>237.0</ele><time>2026-05-03T14:19:58.188Z</time></trkpt><trkpt lat="45.1434097" lon="7.68978"><ele>237.5</ele><time>2026-05-03T14:19:59.188Z</time></trkpt><trkpt lat="45.1431267" lon="7.6899518"><ele>238.0</ele><time>2026-05-03T14:20:00.188Z</time></trkpt><trkpt lat="45.1428406" lon="7.6901208"><ele>238.0</ele><time>2026-05-03T14:20:01.188Z</time></trkpt><trkpt lat="45.1425559" lon="7.6902877"><ele>238.0</ele><time>2026-05-03T14:20:02.189Z</time></trkpt><trkpt lat="45.1422702" lon="7.6904526"><ele>238.0</ele><time>2026-05-03T14:20:03.189Z</time></trkpt><trkpt lat="45.1419901" lon="7.6906167"><ele>238.0</ele><time>2026-05-03T14:20:04.188Z</time></trkpt><trkpt lat="45.1417094" lon="7.690782"><ele>237.5</ele><time>2026-05-03T14:20:05.188Z</time></trkpt><trkpt lat="45.1414268" lon="7.69095"><ele>237.0</ele><time>2026-05-03T14:20:06.189Z</time></trkpt><trkpt lat="45.1411403" lon="7.69111"><ele>236.5</ele><time>2026-05-03T14:20:07.189Z</time></trkpt><trkpt lat="45.1408588" lon="7.6912776"><ele>236.0</ele><time>2026-05-03T14:20:08.188Z</time></trkpt><trkpt lat="45.140581" lon="7.6914364"><ele>237.5</ele><time>2026-05-03T14:20:09.188Z</time></trkpt><trkpt lat="45.1403069" lon="7.6915887"><ele>239.0</ele><time>2026-05-03T14:20:10.188Z</time></trkpt><trkpt lat="45.14003" lon="7.6917412"><ele>237.5</ele><time>2026-05-03T14:20:11.188Z</time></trkpt><trkpt lat="45.1397555" lon="7.6918935"><ele>236.0</ele><time>2026-05-03T14:20:12.188Z</time></trkpt><trkpt lat="45.1394804" lon="7.6920431"><ele>236.0</ele><time>2026-05-03T14:20:13.188Z</time></trkpt><trkpt lat="45.1392136" lon="7.6921791"><ele>236.0</ele><time>2026-05-03T14:20:14.188Z</time></trkpt><trkpt lat="45.1389497" lon="7.6923084"><ele>235.5</ele><time>2026-05-03T14:20:15.188Z</time></trkpt><trkpt lat="45.1386857" lon="7.6924366"><ele>235.0</ele><time>2026-05-03T14:20:16.188Z</time></trkpt><trkpt lat="45.1384206" lon="7.6925603"><ele>234.5</ele><time>2026-05-03T14:20:17.188Z</time></trkpt><trkpt lat="45.1381584" lon="7.692684"><ele>234.0</ele><time>2026-05-03T14:20:18.188Z</time></trkpt><trkpt lat="45.1378948" lon="7.6928032"><ele>234.0</ele><time>2026-05-03T14:20:19.188Z</time></trkpt><trkpt lat="45.1376333" lon="7.6929153"><ele>234.0</ele><time>2026-05-03T14:20:20.188Z</time></trkpt><trkpt lat="45.1373686" lon="7.6930189"><ele>234.0</ele><time>2026-05-03T14:20:21.188Z</time></trkpt><trkpt lat="45.1371047" lon="7.6931203"><ele>234.0</ele><time>2026-05-03T14:20:22.188Z</time></trkpt><trkpt lat="45.1368417" lon="7.693212"><ele>234.0</ele><time>2026-05-03T14:20:23.188Z</time></trkpt><trkpt lat="45.1365798" lon="7.6932965"><ele>234.0</ele><time>2026-05-03T14:20:24.189Z</time></trkpt><trkpt lat="45.1363151" lon="7.6933726"><ele>233.5</ele><time>2026-05-03T14:20:25.188Z</time></trkpt><trkpt lat="45.1360456" lon="7.6934386"><ele>233.0</ele><time>2026-05-03T14:20:26.188Z</time></trkpt><trkpt lat="45.1357723" lon="7.6934981"><ele>233.0</ele><time>2026-05-03T14:20:27.188Z</time></trkpt><trkpt lat="45.1355042" lon="7.6935444"><ele>233.0</ele><time>2026-05-03T14:20:28.188Z</time></trkpt><trkpt lat="45.1352404" lon="7.6935821"><ele>233.0</ele><time>2026-05-03T14:20:29.189Z</time></trkpt><trkpt lat="45.1349767" lon="7.6936182"><ele>233.0</ele><time>2026-05-03T14:20:30.189Z</time></trkpt><trkpt lat="45.1347159" lon="7.6936523"><ele>233.0</ele><time>2026-05-03T14:20:31.188Z</time></trkpt><trkpt lat="45.1344546" lon="7.6936817"><ele>233.0</ele><time>2026-05-03T14:20:32.188Z</time></trkpt><trkpt lat="45.1341934" lon="7.6937119"><ele>232.5</ele><time>2026-05-03T14:20:33.188Z</time></trkpt><trkpt lat="45.1339397" lon="7.6937518"><ele>232.0</ele><time>2026-05-03T14:20:34.188Z</time></trkpt><trkpt lat="45.133697" lon="7.6937874"><ele>232.0</ele><time>2026-05-03T14:20:35.188Z</time></trkpt><trkpt lat="45.1334606" lon="7.6938251"><ele>232.0</ele><time>2026-05-03T14:20:36.188Z</time></trkpt><trkpt lat="45.1332217" lon="7.6938681"><ele>232.0</ele><time>2026-05-03T14:20:37.189Z</time></trkpt><trkpt lat="45.1329956" lon="7.6939116"><ele>232.0</ele><time>2026-05-03T14:20:38.189Z</time></trkpt><trkpt lat="45.1327838" lon="7.6939551"><ele>232.0</ele><time>2026-05-03T14:20:39.189Z</time></trkpt><trkpt lat="45.1325807" lon="7.6939944"><ele>232.33333333333331</ele><time>2026-05-03T14:20:40.188Z</time></trkpt><trkpt lat="45.1323797" lon="7.6940373"><ele>232.66666666666669</ele><time>2026-05-03T14:20:41.189Z</time></trkpt><trkpt lat="45.1321801" lon="7.694082"><ele>233.0</ele><time>2026-05-03T14:20:42.189Z</time></trkpt><trkpt lat="45.1319783" lon="7.6941306"><ele>233.0</ele><time>2026-05-03T14:20:43.188Z</time></trkpt><trkpt lat="45.131783" lon="7.694181"><ele>233.0</ele><time>2026-05-03T14:20:44.188Z</time></trkpt><trkpt lat="45.1315939" lon="7.6942365"><ele>233.0</ele><time>2026-05-03T14:20:45.189Z</time></trkpt><trkpt lat="45.1314003" lon="7.6942879"><ele>232.66666666666669</ele><time>2026-05-03T14:20:46.188Z</time></trkpt><trkpt lat="45.1312078" lon="7.6943365"><ele>232.33333333333331</ele><time>2026-05-03T14:20:47.188Z</time></trkpt><trkpt lat="45.1310161" lon="7.6943876"><ele>232.0</ele><time>2026-05-03T14:20:48.189Z</time></trkpt><trkpt lat="45.1308311" lon="7.6944382"><ele>231.33333333333331</ele><time>2026-05-03T14:20:49.188Z</time></trkpt><trkpt lat="45.1306504" lon="7.6944879"><ele>230.66666666666669</ele><time>2026-05-03T14:20:50.189Z</time></trkpt><trkpt lat="45.1304717" lon="7.6945387"><ele>230.0</ele><time>2026-05-03T14:20:51.189Z</time></trkpt><trkpt lat="45.1302974" lon="7.6945836"><ele>230.0</ele><time>2026-05-03T14:20:52.189Z</time></trkpt><trkpt lat="45.1301266" lon="7.6946305"><ele>230.0</ele><time>2026-05-03T14:20:53.188Z</time></trkpt><trkpt lat="45.1299625" lon="7.6946759"><ele>230.0</ele><time>2026-05-03T14:20:54.189Z</time></trkpt><trkpt lat="45.1298014" lon="7.6947144"><ele>230.33333333333334</ele><time>2026-05-03T14:20:55.188Z</time></trkpt><trkpt lat="45.1296384" lon="7.6947586"><ele>230.66666666666669</ele><time>2026-05-03T14:20:56.188Z</time></trkpt><trkpt lat="45.1294735" lon="7.6948016"><ele>231.0</ele><time>2026-05-03T14:20:57.188Z</time></trkpt><trkpt lat="45.1293082" lon="7.6948452"><ele>231.0</ele><time>2026-05-03T14:20:58.188Z</time></trkpt><trkpt lat="45.1291448" lon="7.6948763"><ele>231.0</ele><time>2026-05-03T14:20:59.188Z</time></trkpt><trkpt lat="45.1289827" lon="7.6949103"><ele>231.0</ele><time>2026-05-03T14:21:00.188Z</time></trkpt><trkpt lat="45.1288196" lon="7.6949412"><ele>231.5</ele><time>2026-05-03T14:21:01.188Z</time></trkpt><trkpt lat="45.1286605" lon="7.6949724"><ele>232.0</ele><time>2026-05-03T14:21:02.188Z</time></trkpt><trkpt lat="45.128511" lon="7.6950086"><ele>232.5</ele><time>2026-05-03T14:21:03.188Z</time></trkpt><trkpt lat="45.1283767" lon="7.6950416"><ele>233.0</ele><time>2026-05-03T14:21:04.188Z</time></trkpt><trkpt lat="45.1282412" lon="7.6950778"><ele>233.0</ele><time>2026-05-03T14:21:05.188Z</time></trkpt><trkpt lat="45.1281013" lon="7.6951096"><ele>233.0</ele><time>2026-05-03T14:21:06.188Z</time></trkpt><trkpt lat="45.1279697" lon="7.6951227"><ele>233.0</ele><time>2026-05-03T14:21:07.189Z</time></trkpt><trkpt lat="45.1278498" lon="7.6951125"><ele>233.0</ele><time>2026-05-03T14:21:08.188Z</time></trkpt><trkpt lat="45.1277366" lon="7.6950771"><ele>233.0</ele><time>2026-05-03T14:21:09.188Z</time></trkpt><trkpt lat="45.1276304" lon="7.6950162"><ele>233.0</ele><time>2026-05-03T14:21:10.188Z</time></trkpt><trkpt lat="45.127533" lon="7.6949359"><ele>233.0</ele><time>2026-05-03T14:21:11.189Z</time></trkpt><trkpt lat="45.1274412" lon="7.6948279"><ele>233.0</ele><time>2026-05-03T14:21:12.188Z</time></trkpt><trkpt lat="45.1273637" lon="7.6947027"><ele>232.25</ele><time>2026-05-03T14:21:13.191Z</time></trkpt><trkpt lat="45.1273036" lon="7.6945653"><ele>231.5</ele><time>2026-05-03T14:21:14.191Z</time></trkpt><trkpt lat="45.1272574" lon="7.6944194"><ele>230.75</ele><time>2026-05-03T14:21:15.191Z</time></trkpt><trkpt lat="45.1272223" lon="7.6942719"><ele>230.0</ele><time>2026-05-03T14:21:16.19Z</time></trkpt><trkpt lat="45.1271836" lon="7.694116"><ele>230.0</ele><time>2026-05-03T14:21:17.19Z</time></trkpt><trkpt lat="45.1271258" lon="7.6939738"><ele>230.0</ele><time>2026-05-03T14:21:18.19Z</time></trkpt><trkpt lat="45.1270503" lon="7.6938358"><ele>230.0</ele><time>2026-05-03T14:21:19.191Z</time></trkpt><trkpt lat="45.1269642" lon="7.6937265"><ele>230.0</ele><time>2026-05-03T14:21:20.19Z</time></trkpt><trkpt lat="45.12687" lon="7.6936265"><ele>230.0</ele><time>2026-05-03T14:21:21.19Z</time></trkpt><trkpt lat="45.1267607" lon="7.6935557"><ele>230.0</ele><time>2026-05-03T14:21:22.19Z</time></trkpt><trkpt lat="45.1266478" lon="7.6935191"><ele>230.0</ele><time>2026-05-03T14:21:23.191Z</time></trkpt><trkpt lat="45.1265359" lon="7.6935162"><ele>230.0</ele><time>2026-05-03T14:21:24.19Z</time></trkpt><trkpt lat="45.1264187" lon="7.6935371"><ele>230.25</ele><time>2026-05-03T14:21:25.19Z</time></trkpt><trkpt lat="45.1263028" lon="7.6935887"><ele>230.5</ele><time>2026-05-03T14:21:26.19Z</time></trkpt><trkpt lat="45.1261963" lon="7.6936726"><ele>230.75</ele><time>2026-05-03T14:21:27.191Z</time></trkpt><trkpt lat="45.126097" lon="7.6937869"><ele>231.0</ele><time>2026-05-03T14:21:28.19Z</time></trkpt><trkpt lat="45.1260103" lon="7.6939143"><ele>231.0</ele><time>2026-05-03T14:21:29.19Z</time></trkpt><trkpt lat="45.1259453" lon="7.6940623"><ele>231.0</ele><time>2026-05-03T14:21:30.191Z</time></trkpt><trkpt lat="45.1258939" lon="7.6942226"><ele>231.0</ele><time>2026-05-03T14:21:31.191Z</time></trkpt><trkpt lat="45.12587" lon="7.6944017"><ele>231.0</ele><time>2026-05-03T14:21:32.191Z</time></trkpt><trkpt lat="45.1258613" lon="7.6945814"><ele>231.0</ele><time>2026-05-03T14:21:33.191Z</time></trkpt><trkpt lat="45.1258855" lon="7.6947769"><ele>231.0</ele><time>2026-05-03T14:21:34.19Z</time></trkpt><trkpt lat="45.1259143" lon="7.694983"><ele>231.0</ele><time>2026-05-03T14:21:35.19Z</time></trkpt><trkpt lat="45.1259472" lon="7.6951842"><ele>231.0</ele><time>2026-05-03T14:21:36.191Z</time></trkpt><trkpt lat="45.1259768" lon="7.6953883"><ele>231.0</ele><time>2026-05-03T14:21:37.191Z</time></trkpt><trkpt lat="45.1260034" lon="7.6955654"><ele>231.0</ele><time>2026-05-03T14:21:38.191Z</time></trkpt><trkpt lat="45.1260251" lon="7.6957289"><ele>231.0</ele><time>2026-05-03T14:21:39.19Z</time></trkpt><trkpt lat="45.1260485" lon="7.6958877"><ele>231.0</ele><time>2026-05-03T14:21:40.191Z</time></trkpt><trkpt lat="45.1260787" lon="7.6960507"><ele>230.5</ele><time>2026-05-03T14:21:41.19Z</time></trkpt><trkpt lat="45.1261014" lon="7.6962033"><ele>230.0</ele><time>2026-05-03T14:21:42.19Z</time></trkpt><trkpt lat="45.1261248" lon="7.6963602"><ele>229.5</ele><time>2026-05-03T14:21:43.191Z</time></trkpt><trkpt lat="45.1261662" lon="7.6965311"><ele>229.0</ele><time>2026-05-03T14:21:44.191Z</time></trkpt><trkpt lat="45.1262298" lon="7.6967019"><ele>229.0</ele><time>2026-05-03T14:21:45.19Z</time></trkpt><trkpt lat="45.1263123" lon="7.6968545"><ele>229.0</ele><time>2026-05-03T14:21:46.19Z</time></trkpt><trkpt lat="45.126407" lon="7.6969928"><ele>229.0</ele><time>2026-05-03T14:21:47.19Z</time></trkpt><trkpt lat="45.1265165" lon="7.6971252"><ele>229.0</ele><time>2026-05-03T14:21:48.19Z</time></trkpt><trkpt lat="45.1266374" lon="7.6972673"><ele>228.66666666666666</ele><time>2026-05-03T14:21:49.19Z</time></trkpt><trkpt lat="45.1267754" lon="7.6974059"><ele>228.33333333333331</ele><time>2026-05-03T14:21:50.191Z</time></trkpt><trkpt lat="45.1269146" lon="7.6975468"><ele>228.0</ele><time>2026-05-03T14:21:51.191Z</time></trkpt><trkpt lat="45.1270649" lon="7.6977106"><ele>227.66666666666669</ele><time>2026-05-03T14:21:52.191Z</time></trkpt><trkpt lat="45.1272344" lon="7.6978967"><ele>227.33333333333334</ele><time>2026-05-03T14:21:53.19Z</time></trkpt><trkpt lat="45.1274108" lon="7.6980871"><ele>227.0</ele><time>2026-05-03T14:21:54.19Z</time></trkpt><trkpt lat="45.1275849" lon="7.6982881"><ele>227.0</ele><time>2026-05-03T14:21:55.19Z</time></trkpt><trkpt lat="45.12776" lon="7.6984803"><ele>227.0</ele><time>2026-05-03T14:21:56.19Z</time></trkpt><trkpt lat="45.1279277" lon="7.698668"><ele>227.0</ele><time>2026-05-03T14:21:57.19Z</time></trkpt><trkpt lat="45.1280946" lon="7.6988523"><ele>227.33333333333334</ele><time>2026-05-03T14:21:58.19Z</time></trkpt><trkpt lat="45.1282651" lon="7.6990309"><ele>227.66666666666669</ele><time>2026-05-03T14:21:59.19Z</time></trkpt><trkpt lat="45.1284265" lon="7.6991996"><ele>228.0</ele><time>2026-05-03T14:22:00.19Z</time></trkpt><trkpt lat="45.1285787" lon="7.6993662"><ele>227.66666666666669</ele><time>2026-05-03T14:22:01.191Z</time></trkpt><trkpt lat="45.1287213" lon="7.6995238"><ele>227.33333333333334</ele><time>2026-05-03T14:22:02.191Z</time></trkpt><trkpt lat="45.1288583" lon="7.6996711"><ele>227.0</ele><time>2026-05-03T14:22:03.191Z</time></trkpt><trkpt lat="45.1289862" lon="7.6998122"><ele>227.75</ele><time>2026-05-03T14:22:04.19Z</time></trkpt><trkpt lat="45.1291124" lon="7.6999424"><ele>228.5</ele><time>2026-05-03T14:22:05.19Z</time></trkpt><trkpt lat="45.1292394" lon="7.7000436"><ele>229.25</ele><time>2026-05-03T14:22:06.19Z</time></trkpt><trkpt lat="45.1293685" lon="7.7001295"><ele>230.0</ele><time>2026-05-03T14:22:07.19Z</time></trkpt><trkpt lat="45.1294972" lon="7.7001654"><ele>230.0</ele><time>2026-05-03T14:22:08.19Z</time></trkpt><trkpt lat="45.1296311" lon="7.7001706"><ele>230.0</ele><time>2026-05-03T14:22:09.19Z</time></trkpt><trkpt lat="45.1297522" lon="7.7001578"><ele>230.0</ele><time>2026-05-03T14:22:10.19Z</time></trkpt><trkpt lat="45.1298674" lon="7.7001193"><ele>230.0</ele><time>2026-05-03T14:22:11.191Z</time></trkpt><trkpt lat="45.1299967" lon="7.7000612"><ele>230.33333333333334</ele><time>2026-05-03T14:22:12.19Z</time></trkpt><trkpt lat="45.1301237" lon="7.6999904"><ele>230.66666666666669</ele><time>2026-05-03T14:22:13.19Z</time></trkpt><trkpt lat="45.13027" lon="7.6999095"><ele>231.0</ele><time>2026-05-03T14:22:14.19Z</time></trkpt><trkpt lat="45.1304234" lon="7.6998252"><ele>231.0</ele><time>2026-05-03T14:22:15.19Z</time></trkpt><trkpt lat="45.1305891" lon="7.6997356"><ele>231.0</ele><time>2026-05-03T14:22:16.19Z</time></trkpt><trkpt lat="45.1307572" lon="7.6996509"><ele>231.0</ele><time>2026-05-03T14:22:17.191Z</time></trkpt><trkpt lat="45.1309185" lon="7.6995689"><ele>230.66666666666669</ele><time>2026-05-03T14:22:18.191Z</time></trkpt><trkpt lat="45.1310868" lon="7.6994927"><ele>230.33333333333334</ele><time>2026-05-03T14:22:19.19Z</time></trkpt><trkpt lat="45.1312567" lon="7.6994051"><ele>230.0</ele><time>2026-05-03T14:22:20.19Z</time></trkpt><trkpt lat="45.1314207" lon="7.6993163"><ele>230.33333333333334</ele><time>2026-05-03T14:22:21.19Z</time></trkpt><trkpt lat="45.131564" lon="7.699193"><ele>230.66666666666669</ele><time>2026-05-03T14:22:22.191Z</time></trkpt><trkpt lat="45.131672" lon="7.6990533"><ele>231.0</ele><time>2026-05-03T14:22:23.19Z</time></trkpt><trkpt lat="45.1317421" lon="7.6988699"><ele>231.0</ele><time>2026-05-03T14:22:24.19Z</time></trkpt><trkpt lat="45.1317922" lon="7.6986779"><ele>231.0</ele><time>2026-05-03T14:22:25.19Z</time></trkpt><trkpt lat="45.1318124" lon="7.6984906"><ele>231.0</ele><time>2026-05-03T14:22:26.191Z</time></trkpt><trkpt lat="45.1317975" lon="7.698302"><ele>231.0</ele><time>2026-05-03T14:22:27.19Z</time></trkpt><trkpt lat="45.1317606" lon="7.6981257"><ele>231.0</ele><time>2026-05-03T14:22:28.191Z</time></trkpt><trkpt lat="45.1317053" lon="7.6979504"><ele>231.0</ele><time>2026-05-03T14:22:29.19Z</time></trkpt><trkpt lat="45.1316326" lon="7.6977986"><ele>231.0</ele><time>2026-05-03T14:22:30.19Z</time></trkpt><trkpt lat="45.1315235" lon="7.6976655"><ele>231.0</ele><time>2026-05-03T14:22:31.19Z</time></trkpt><trkpt lat="45.1314084" lon="7.6975354"><ele>231.0</ele><time>2026-05-03T14:22:32.19Z</time></trkpt><trkpt lat="45.1312898" lon="7.6974099"><ele>231.0</ele><time>2026-05-03T14:22:33.19Z</time></trkpt><trkpt lat="45.1311752" lon="7.6972875"><ele>231.0</ele><time>2026-05-03T14:22:34.19Z</time></trkpt><trkpt lat="45.1310552" lon="7.6971566"><ele>231.0</ele><time>2026-05-03T14:22:35.19Z</time></trkpt><trkpt lat="45.1309344" lon="7.6970226"><ele>230.66666666666669</ele><time>2026-05-03T14:22:36.19Z</time></trkpt><trkpt lat="45.1308076" lon="7.6968893"><ele>230.33333333333334</ele><time>2026-05-03T14:22:37.191Z</time></trkpt><trkpt lat="45.1306784" lon="7.6967518"><ele>230.0</ele><time>2026-05-03T14:22:38.191Z</time></trkpt><trkpt lat="45.1305489" lon="7.6966126"><ele>229.33333333333334</ele><time>2026-05-03T14:22:39.191Z</time></trkpt><trkpt lat="45.130421" lon="7.6964731"><ele>228.66666666666669</ele><time>2026-05-03T14:22:40.19Z</time></trkpt><trkpt lat="45.130299" lon="7.6963297"><ele>228.0</ele><time>2026-05-03T14:22:41.191Z</time></trkpt><trkpt lat="45.1301876" lon="7.6961748"><ele>227.66666666666669</ele><time>2026-05-03T14:22:42.19Z</time></trkpt><trkpt lat="45.1300897" lon="7.6960122"><ele>227.33333333333334</ele><time>2026-05-03T14:22:43.19Z</time></trkpt><trkpt lat="45.1300091" lon="7.6958266"><ele>227.0</ele><time>2026-05-03T14:22:44.19Z</time></trkpt><trkpt lat="45.129936" lon="7.695635"><ele>227.66666666666669</ele><time>2026-05-03T14:22:45.191Z</time></trkpt><trkpt lat="45.1298765" lon="7.69544"><ele>228.33333333333331</ele><time>2026-05-03T14:22:46.191Z</time></trkpt><trkpt lat="45.1298268" lon="7.6952412"><ele>229.0</ele><time>2026-05-03T14:22:47.19Z</time></trkpt><trkpt lat="45.1297828" lon="7.6950262"><ele>229.33333333333331</ele><time>2026-05-03T14:22:48.191Z</time></trkpt><trkpt lat="45.1297434" lon="7.6948076"><ele>229.66666666666669</ele><time>2026-05-03T14:22:49.19Z</time></trkpt><trkpt lat="45.1297032" lon="7.6945786"><ele>230.0</ele><time>2026-05-03T14:22:50.191Z</time></trkpt><trkpt lat="45.129661" lon="7.6943479"><ele>230.0</ele><time>2026-05-03T14:22:51.19Z</time></trkpt><trkpt lat="45.1296209" lon="7.6941025"><ele>230.0</ele><time>2026-05-03T14:22:52.19Z</time></trkpt><trkpt lat="45.129575" lon="7.6938358"><ele>230.0</ele><time>2026-05-03T14:22:53.19Z</time></trkpt><trkpt lat="45.1295313" lon="7.6935599"><ele>229.66666666666669</ele><time>2026-05-03T14:22:54.19Z</time></trkpt><trkpt lat="45.1294905" lon="7.6932699"><ele>229.33333333333331</ele><time>2026-05-03T14:22:55.19Z</time></trkpt><trkpt lat="45.1294513" lon="7.6929658"><ele>229.0</ele><time>2026-05-03T14:22:56.19Z</time></trkpt><trkpt lat="45.1294082" lon="7.6926548"><ele>229.0</ele><time>2026-05-03T14:22:57.191Z</time></trkpt><trkpt lat="45.1293624" lon="7.6923216"><ele>229.0</ele><time>2026-05-03T14:22:58.19Z</time></trkpt><trkpt lat="45.1293238" lon="7.6919834"><ele>229.5</ele><time>2026-05-03T14:22:59.19Z</time></trkpt><trkpt lat="45.129287" lon="7.6916353"><ele>230.0</ele><time>2026-05-03T14:23:00.191Z</time></trkpt><trkpt lat="45.1292507" lon="7.6912786"><ele>231.0</ele><time>2026-05-03T14:23:01.19Z</time></trkpt><trkpt lat="45.129211" lon="7.6909079"><ele>232.0</ele><time>2026-05-03T14:23:02.19Z</time></trkpt><trkpt lat="45.1291731" lon="7.6905174"><ele>231.5</ele><time>2026-05-03T14:23:03.191Z</time></trkpt><trkpt lat="45.1291413" lon="7.6901178"><ele>231.0</ele><time>2026-05-03T14:23:04.19Z</time></trkpt><trkpt lat="45.1291058" lon="7.6897038"><ele>230.5</ele><time>2026-05-03T14:23:05.19Z</time></trkpt><trkpt lat="45.1290707" lon="7.6892939"><ele>230.0</ele><time>2026-05-03T14:23:06.19Z</time></trkpt><trkpt lat="45.1290331" lon="7.6888789"><ele>230.5</ele><time>2026-05-03T14:23:07.191Z</time></trkpt><trkpt lat="45.1290001" lon="7.6884647"><ele>231.0</ele><time>2026-05-03T14:23:08.191Z</time></trkpt><trkpt lat="45.1289652" lon="7.6880482"><ele>230.0</ele><time>2026-05-03T14:23:09.191Z</time></trkpt><trkpt lat="45.1289363" lon="7.6876343"><ele>229.0</ele><time>2026-05-03T14:23:10.191Z</time></trkpt><trkpt lat="45.1289041" lon="7.6872143"><ele>230.0</ele><time>2026-05-03T14:23:11.19Z</time></trkpt><trkpt lat="45.1288694" lon="7.6867898"><ele>231.0</ele><time>2026-05-03T14:23:12.19Z</time></trkpt><trkpt lat="45.128832" lon="7.6863588"><ele>229.5</ele><time>2026-05-03T14:23:13.19Z</time></trkpt><trkpt lat="45.1287953" lon="7.6859332"><ele>228.0</ele><time>2026-05-03T14:23:14.19Z</time></trkpt><trkpt lat="45.1287592" lon="7.6855036"><ele>227.5</ele><time>2026-05-03T14:23:15.19Z</time></trkpt><trkpt lat="45.1287245" lon="7.6850718"><ele>227.0</ele><time>2026-05-03T14:23:16.19Z</time></trkpt><trkpt lat="45.1286899" lon="7.6846397"><ele>228.5</ele><time>2026-05-03T14:23:17.191Z</time></trkpt><trkpt lat="45.1286547" lon="7.6842122"><ele>230.0</ele><time>2026-05-03T14:23:18.191Z</time></trkpt><trkpt lat="45.1286178" lon="7.6837841"><ele>231.5</ele><time>2026-05-03T14:23:19.19Z</time></trkpt><trkpt lat="45.1285817" lon="7.6833596"><ele>233.0</ele><time>2026-05-03T14:23:20.191Z</time></trkpt><trkpt lat="45.1285478" lon="7.6829291"><ele>232.5</ele><time>2026-05-03T14:23:21.191Z</time></trkpt><trkpt lat="45.1285092" lon="7.6825002"><ele>232.0</ele><time>2026-05-03T14:23:22.191Z</time></trkpt><trkpt lat="45.1284738" lon="7.6820788"><ele>230.5</ele><time>2026-05-03T14:23:23.191Z</time></trkpt><trkpt lat="45.1284396" lon="7.6816587"><ele>229.0</ele><time>2026-05-03T14:23:24.191Z</time></trkpt><trkpt lat="45.1284066" lon="7.6812396"><ele>229.0</ele><time>2026-05-03T14:23:25.19Z</time></trkpt><trkpt lat="45.1283713" lon="7.6808171"><ele>229.0</ele><time>2026-05-03T14:23:26.191Z</time></trkpt><trkpt lat="45.128338" lon="7.6803855"><ele>230.5</ele><time>2026-05-03T14:23:27.191Z</time></trkpt><trkpt lat="45.1283029" lon="7.6799534"><ele>232.0</ele><time>2026-05-03T14:23:28.19Z</time></trkpt><trkpt lat="45.1282663" lon="7.6795197"><ele>232.5</ele><time>2026-05-03T14:23:29.191Z</time></trkpt><trkpt lat="45.1282288" lon="7.6790843"><ele>233.0</ele><time>2026-05-03T14:23:30.19Z</time></trkpt><trkpt lat="45.1281895" lon="7.6786509"><ele>232.0</ele><time>2026-05-03T14:23:31.19Z</time></trkpt><trkpt lat="45.1281507" lon="7.6782091"><ele>231.0</ele><time>2026-05-03T14:23:32.191Z</time></trkpt><trkpt lat="45.1281168" lon="7.6777732"><ele>231.0</ele><time>2026-05-03T14:23:33.19Z</time></trkpt><trkpt lat="45.1280786" lon="7.6773394"><ele>231.0</ele><time>2026-05-03T14:23:34.19Z</time></trkpt><trkpt lat="45.1280446" lon="7.6769035"><ele>231.0</ele><time>2026-05-03T14:23:35.191Z</time></trkpt><trkpt lat="45.1280089" lon="7.6764641"><ele>231.0</ele><time>2026-05-03T14:23:36.19Z</time></trkpt><trkpt lat="45.1279738" lon="7.676023"><ele>230.5</ele><time>2026-05-03T14:23:37.191Z</time></trkpt><trkpt lat="45.1279401" lon="7.6755865"><ele>230.0</ele><time>2026-05-03T14:23:38.19Z</time></trkpt><trkpt lat="45.1279066" lon="7.6751512"><ele>230.0</ele><time>2026-05-03T14:23:39.19Z</time></trkpt><trkpt lat="45.1278695" lon="7.6747141"><ele>230.0</ele><time>2026-05-03T14:23:40.191Z</time></trkpt><trkpt lat="45.1278294" lon="7.6742772"><ele>230.0</ele><time>2026-05-03T14:23:41.19Z</time></trkpt><trkpt lat="45.1277894" lon="7.6738427"><ele>230.0</ele><time>2026-05-03T14:23:42.191Z</time></trkpt><trkpt lat="45.1277517" lon="7.6734068"><ele>231.0</ele><time>2026-05-03T14:23:43.19Z</time></trkpt><trkpt lat="45.1277174" lon="7.6729698"><ele>232.0</ele><time>2026-05-03T14:23:44.19Z</time></trkpt><trkpt lat="45.1276829" lon="7.6725331"><ele>233.5</ele><time>2026-05-03T14:23:45.191Z</time></trkpt><trkpt lat="45.1276467" lon="7.672092"><ele>235.0</ele><time>2026-05-03T14:23:46.191Z</time></trkpt><trkpt lat="45.1276095" lon="7.6716489"><ele>235.0</ele><time>2026-05-03T14:23:47.19Z</time></trkpt><trkpt lat="45.1275732" lon="7.6712103"><ele>235.0</ele><time>2026-05-03T14:23:48.191Z</time></trkpt><trkpt lat="45.1275368" lon="7.6707704"><ele>236.0</ele><time>2026-05-03T14:23:49.191Z</time></trkpt><trkpt lat="45.1275004" lon="7.6703376"><ele>237.0</ele><time>2026-05-03T14:23:50.19Z</time></trkpt><trkpt lat="45.1274618" lon="7.6699038"><ele>237.0</ele><time>2026-05-03T14:23:51.19Z</time></trkpt><trkpt lat="45.127426" lon="7.6694734"><ele>237.0</ele><time>2026-05-03T14:23:52.19Z</time></trkpt><trkpt lat="45.1273909" lon="7.6690427"><ele>236.0</ele><time>2026-05-03T14:23:53.19Z</time></trkpt><trkpt lat="45.127353" lon="7.6686148"><ele>235.0</ele><time>2026-05-03T14:23:54.191Z</time></trkpt><trkpt lat="45.1273191" lon="7.6681823"><ele>234.5</ele><time>2026-05-03T14:23:55.19Z</time></trkpt><trkpt lat="45.1272865" lon="7.6677533"><ele>234.0</ele><time>2026-05-03T14:23:56.19Z</time></trkpt><trkpt lat="45.1272518" lon="7.6673206"><ele>235.0</ele><time>2026-05-03T14:23:57.19Z</time></trkpt><trkpt lat="45.1272155" lon="7.6668855"><ele>236.0</ele><time>2026-05-03T14:23:58.19Z</time></trkpt><trkpt lat="45.127183" lon="7.6664497"><ele>236.5</ele><time>2026-05-03T14:23:59.19Z</time></trkpt><trkpt lat="45.1271473" lon="7.6660137"><ele>237.0</ele><time>2026-05-03T14:24:00.19Z</time></trkpt><trkpt lat="45.1271115" lon="7.6655822"><ele>236.5</ele><time>2026-05-03T14:24:01.19Z</time></trkpt><trkpt lat="45.1270745" lon="7.6651455"><ele>236.0</ele><time>2026-05-03T14:24:02.19Z</time></trkpt><trkpt lat="45.127037" lon="7.664707"><ele>236.5</ele><time>2026-05-03T14:24:03.19Z</time></trkpt><trkpt lat="45.1270002" lon="7.6642693"><ele>237.0</ele><time>2026-05-03T14:24:04.19Z</time></trkpt><trkpt lat="45.1269656" lon="7.6638333"><ele>237.5</ele><time>2026-05-03T14:24:05.19Z</time></trkpt><trkpt lat="45.1269267" lon="7.6634002"><ele>238.0</ele><time>2026-05-03T14:24:06.19Z</time></trkpt><trkpt lat="45.1268904" lon="7.6629634"><ele>238.0</ele><time>2026-05-03T14:24:07.19Z</time></trkpt><trkpt lat="45.1268525" lon="7.662527"><ele>238.0</ele><time>2026-05-03T14:24:08.19Z</time></trkpt><trkpt lat="45.1268163" lon="7.662091"><ele>239.0</ele><time>2026-05-03T14:24:09.19Z</time></trkpt><trkpt lat="45.1267791" lon="7.6616575"><ele>240.0</ele><time>2026-05-03T14:24:10.19Z</time></trkpt><trkpt lat="45.126735" lon="7.6612356"><ele>240.5</ele><time>2026-05-03T14:24:11.191Z</time></trkpt><trkpt lat="45.126692" lon="7.660826"><ele>241.0</ele><time>2026-05-03T14:24:12.19Z</time></trkpt><trkpt lat="45.1266491" lon="7.6604086"><ele>241.0</ele><time>2026-05-03T14:24:13.19Z</time></trkpt><trkpt lat="45.1265955" lon="7.6599936"><ele>241.0</ele><time>2026-05-03T14:24:14.19Z</time></trkpt><trkpt lat="45.1265269" lon="7.6595953"><ele>241.5</ele><time>2026-05-03T14:24:15.19Z</time></trkpt><trkpt lat="45.1264545" lon="7.6592185"><ele>242.0</ele><time>2026-05-03T14:24:16.19Z</time></trkpt><trkpt lat="45.126374" lon="7.6588696"><ele>241.5</ele><time>2026-05-03T14:24:17.19Z</time></trkpt><trkpt lat="45.1262895" lon="7.6585505"><ele>241.0</ele><time>2026-05-03T14:24:18.19Z</time></trkpt><trkpt lat="45.1262086" lon="7.6582598"><ele>241.0</ele><time>2026-05-03T14:24:19.19Z</time></trkpt><trkpt lat="45.1261165" lon="7.6579707"><ele>241.0</ele><time>2026-05-03T14:24:20.19Z</time></trkpt><trkpt lat="45.1260179" lon="7.6576747"><ele>239.5</ele><time>2026-05-03T14:24:21.19Z</time></trkpt><trkpt lat="45.1259169" lon="7.6573646"><ele>238.0</ele><time>2026-05-03T14:24:22.19Z</time></trkpt><trkpt lat="45.1258156" lon="7.6570376"><ele>238.0</ele><time>2026-05-03T14:24:23.19Z</time></trkpt><trkpt lat="45.125706" lon="7.6567113"><ele>238.0</ele><time>2026-05-03T14:24:24.191Z</time></trkpt><trkpt lat="45.1255947" lon="7.6563723"><ele>237.0</ele><time>2026-05-03T14:24:25.191Z</time></trkpt><trkpt lat="45.1254855" lon="7.6560346"><ele>236.0</ele><time>2026-05-03T14:24:26.19Z</time></trkpt><trkpt lat="45.1253784" lon="7.6556812"><ele>236.0</ele><time>2026-05-03T14:24:27.19Z</time></trkpt><trkpt lat="45.12526" lon="7.6553187"><ele>236.0</ele><time>2026-05-03T14:24:28.191Z</time></trkpt><trkpt lat="45.1251412" lon="7.6549532"><ele>235.0</ele><time>2026-05-03T14:24:29.19Z</time></trkpt><trkpt lat="45.1250212" lon="7.6545784"><ele>234.0</ele><time>2026-05-03T14:24:30.19Z</time></trkpt><trkpt lat="45.1248946" lon="7.6541918"><ele>237.5</ele><time>2026-05-03T14:24:31.19Z</time></trkpt><trkpt lat="45.1247738" lon="7.6538123"><ele>241.0</ele><time>2026-05-03T14:24:32.191Z</time></trkpt><trkpt lat="45.1246537" lon="7.6534262"><ele>244.5</ele><time>2026-05-03T14:24:33.191Z</time></trkpt><trkpt lat="45.1245354" lon="7.6530394"><ele>248.0</ele><time>2026-05-03T14:24:34.191Z</time></trkpt><trkpt lat="45.1244217" lon="7.6526591"><ele>249.5</ele><time>2026-05-03T14:24:35.19Z</time></trkpt><trkpt lat="45.1243097" lon="7.6522897"><ele>251.0</ele><time>2026-05-03T14:24:36.19Z</time></trkpt><trkpt lat="45.1241831" lon="7.6519249"><ele>250.0</ele><time>2026-05-03T14:24:37.19Z</time></trkpt><trkpt lat="45.1240546" lon="7.6515406"><ele>249.0</ele><time>2026-05-03T14:24:38.191Z</time></trkpt><trkpt lat="45.1239393" lon="7.651156"><ele>249.5</ele><time>2026-05-03T14:24:39.19Z</time></trkpt><trkpt lat="45.1238144" lon="7.6507726"><ele>250.0</ele><time>2026-05-03T14:24:40.191Z</time></trkpt><trkpt lat="45.1236924" lon="7.6503893"><ele>251.0</ele><time>2026-05-03T14:24:41.19Z</time></trkpt><trkpt lat="45.1235651" lon="7.6499904"><ele>252.0</ele><time>2026-05-03T14:24:42.191Z</time></trkpt><trkpt lat="45.1234383" lon="7.6495997"><ele>251.5</ele><time>2026-05-03T14:24:43.191Z</time></trkpt><trkpt lat="45.1233077" lon="7.6492123"><ele>251.0</ele><time>2026-05-03T14:24:44.19Z</time></trkpt><trkpt lat="45.1231872" lon="7.6488283"><ele>251.0</ele><time>2026-05-03T14:24:45.191Z</time></trkpt><trkpt lat="45.1230602" lon="7.6484415"><ele>251.0</ele><time>2026-05-03T14:24:46.19Z</time></trkpt><trkpt lat="45.1229355" lon="7.6480535"><ele>253.0</ele><time>2026-05-03T14:24:47.191Z</time></trkpt><trkpt lat="45.1228086" lon="7.6476603"><ele>255.0</ele><time>2026-05-03T14:24:48.19Z</time></trkpt><trkpt lat="45.1226794" lon="7.6472683"><ele>254.0</ele><time>2026-05-03T14:24:49.19Z</time></trkpt><trkpt lat="45.1225504" lon="7.6468706"><ele>253.0</ele><time>2026-05-03T14:24:50.191Z</time></trkpt><trkpt lat="45.1224218" lon="7.6464742"><ele>254.0</ele><time>2026-05-03T14:24:51.19Z</time></trkpt><trkpt lat="45.1223006" lon="7.6460814"><ele>255.0</ele><time>2026-05-03T14:24:52.19Z</time></trkpt><trkpt lat="45.1221719" lon="7.6456803"><ele>253.0</ele><time>2026-05-03T14:24:53.19Z</time></trkpt><trkpt lat="45.1220415" lon="7.6452813"><ele>251.0</ele><time>2026-05-03T14:24:54.19Z</time></trkpt><trkpt lat="45.1219129" lon="7.6448808"><ele>251.0</ele><time>2026-05-03T14:24:55.19Z</time></trkpt><trkpt lat="45.1217826" lon="7.6444772"><ele>251.0</ele><time>2026-05-03T14:24:56.191Z</time></trkpt><trkpt lat="45.1216564" lon="7.6440712"><ele>253.5</ele><time>2026-05-03T14:24:57.19Z</time></trkpt><trkpt lat="45.1215292" lon="7.6436681"><ele>256.0</ele><time>2026-05-03T14:24:58.19Z</time></trkpt><trkpt lat="45.1213982" lon="7.6432642"><ele>256.0</ele><time>2026-05-03T14:24:59.191Z</time></trkpt><trkpt lat="45.1212675" lon="7.6428625"><ele>256.0</ele><time>2026-05-03T14:25:00.19Z</time></trkpt><trkpt lat="45.1211409" lon="7.6424588"><ele>254.5</ele><time>2026-05-03T14:25:01.19Z</time></trkpt><trkpt lat="45.1210135" lon="7.6420544"><ele>253.0</ele><time>2026-05-03T14:25:02.19Z</time></trkpt><trkpt lat="45.1208877" lon="7.6416554"><ele>253.0</ele><time>2026-05-03T14:25:03.19Z</time></trkpt><trkpt lat="45.1207641" lon="7.6412579"><ele>253.0</ele><time>2026-05-03T14:25:04.191Z</time></trkpt><trkpt lat="45.1206379" lon="7.6408736"><ele>253.5</ele><time>2026-05-03T14:25:05.19Z</time></trkpt><trkpt lat="45.1205157" lon="7.6404963"><ele>254.0</ele><time>2026-05-03T14:25:06.19Z</time></trkpt><trkpt lat="45.1203941" lon="7.640117"><ele>254.5</ele><time>2026-05-03T14:25:07.19Z</time></trkpt><trkpt lat="45.1202743" lon="7.6397357"><ele>255.0</ele><time>2026-05-03T14:25:08.191Z</time></trkpt><trkpt lat="45.1201518" lon="7.6393528"><ele>255.0</ele><time>2026-05-03T14:25:09.191Z</time></trkpt><trkpt lat="45.1200283" lon="7.6389732"><ele>255.0</ele><time>2026-05-03T14:25:10.19Z</time></trkpt><trkpt lat="45.1199092" lon="7.6385946"><ele>255.5</ele><time>2026-05-03T14:25:11.19Z</time></trkpt><trkpt lat="45.1197884" lon="7.6382145"><ele>256.0</ele><time>2026-05-03T14:25:12.19Z</time></trkpt><trkpt lat="45.1196608" lon="7.6378227"><ele>257.0</ele><time>2026-05-03T14:25:13.19Z</time></trkpt><trkpt lat="45.1195405" lon="7.6374219"><ele>258.0</ele><time>2026-05-03T14:25:14.191Z</time></trkpt><trkpt lat="45.1194128" lon="7.6370173"><ele>258.5</ele><time>2026-05-03T14:25:15.19Z</time></trkpt><trkpt lat="45.1192826" lon="7.6366095"><ele>259.0</ele><time>2026-05-03T14:25:16.19Z</time></trkpt><trkpt lat="45.1191591" lon="7.6362084"><ele>258.0</ele><time>2026-05-03T14:25:17.19Z</time></trkpt><trkpt lat="45.1190282" lon="7.6358037"><ele>257.0</ele><time>2026-05-03T14:25:18.19Z</time></trkpt><trkpt lat="45.1188924" lon="7.6353992"><ele>257.5</ele><time>2026-05-03T14:25:19.19Z</time></trkpt><trkpt lat="45.1187577" lon="7.6349873"><ele>258.0</ele><time>2026-05-03T14:25:20.19Z</time></trkpt><trkpt lat="45.1186269" lon="7.6345911"><ele>259.0</ele><time>2026-05-03T14:25:21.191Z</time></trkpt><trkpt lat="45.1185007" lon="7.6342041"><ele>260.0</ele><time>2026-05-03T14:25:22.19Z</time></trkpt><trkpt lat="45.1183785" lon="7.633825"><ele>260.0</ele><time>2026-05-03T14:25:23.19Z</time></trkpt><trkpt lat="45.1182606" lon="7.6334508"><ele>260.0</ele><time>2026-05-03T14:25:24.191Z</time></trkpt><trkpt lat="45.1181446" lon="7.6330851"><ele>261.0</ele><time>2026-05-03T14:25:25.19Z</time></trkpt><trkpt lat="45.1180308" lon="7.632713"><ele>262.0</ele><time>2026-05-03T14:25:26.191Z</time></trkpt><trkpt lat="45.1179136" lon="7.6323426"><ele>263.0</ele><time>2026-05-03T14:25:27.19Z</time></trkpt><trkpt lat="45.1177936" lon="7.6319704"><ele>264.0</ele><time>2026-05-03T14:25:28.191Z</time></trkpt><trkpt lat="45.1176735" lon="7.6316006"><ele>264.0</ele><time>2026-05-03T14:25:29.19Z</time></trkpt><trkpt lat="45.1175623" lon="7.6312461"><ele>264.0</ele><time>2026-05-03T14:25:30.19Z</time></trkpt><trkpt lat="45.117451" lon="7.6308971"><ele>264.0</ele><time>2026-05-03T14:25:31.191Z</time></trkpt><trkpt lat="45.1173403" lon="7.6305468"><ele>264.0</ele><time>2026-05-03T14:25:32.19Z</time></trkpt><trkpt lat="45.1172255" lon="7.6302011"><ele>264.0</ele><time>2026-05-03T14:25:33.19Z</time></trkpt><trkpt lat="45.1171175" lon="7.6298569"><ele>264.0</ele><time>2026-05-03T14:25:34.19Z</time></trkpt><trkpt lat="45.1170019" lon="7.629507"><ele>263.5</ele><time>2026-05-03T14:25:35.191Z</time></trkpt><trkpt lat="45.1168826" lon="7.6291395"><ele>263.0</ele><time>2026-05-03T14:25:36.19Z</time></trkpt><trkpt lat="45.1167623" lon="7.6287653"><ele>263.5</ele><time>2026-05-03T14:25:37.19Z</time></trkpt><trkpt lat="45.1166367" lon="7.6283874"><ele>264.0</ele><time>2026-05-03T14:25:38.19Z</time></trkpt><trkpt lat="45.1165113" lon="7.627996"><ele>264.0</ele><time>2026-05-03T14:25:39.19Z</time></trkpt><trkpt lat="45.1163897" lon="7.6276048"><ele>264.0</ele><time>2026-05-03T14:25:40.191Z</time></trkpt><trkpt lat="45.1162622" lon="7.6272151"><ele>264.0</ele><time>2026-05-03T14:25:41.191Z</time></trkpt><trkpt lat="45.11613" lon="7.626818"><ele>264.0</ele><time>2026-05-03T14:25:42.19Z</time></trkpt><trkpt lat="45.1159915" lon="7.6264215"><ele>264.5</ele><time>2026-05-03T14:25:43.191Z</time></trkpt><trkpt lat="45.1158478" lon="7.6260112"><ele>265.0</ele><time>2026-05-03T14:25:44.19Z</time></trkpt><trkpt lat="45.1157012" lon="7.6255994"><ele>264.0</ele><time>2026-05-03T14:25:45.191Z</time></trkpt><trkpt lat="45.1155449" lon="7.6251817"><ele>263.0</ele><time>2026-05-03T14:25:46.19Z</time></trkpt><trkpt lat="45.1153774" lon="7.6247692"><ele>265.0</ele><time>2026-05-03T14:25:47.19Z</time></trkpt><trkpt lat="45.1152065" lon="7.6243606"><ele>267.0</ele><time>2026-05-03T14:25:48.19Z</time></trkpt><trkpt lat="45.1150322" lon="7.6239413"><ele>267.0</ele><time>2026-05-03T14:25:49.19Z</time></trkpt><trkpt lat="45.1148656" lon="7.6235289"><ele>267.0</ele><time>2026-05-03T14:25:50.19Z</time></trkpt><trkpt lat="45.1146911" lon="7.6231226"><ele>267.5</ele><time>2026-05-03T14:25:51.191Z</time></trkpt><trkpt lat="45.1145167" lon="7.622723"><ele>268.0</ele><time>2026-05-03T14:25:52.191Z</time></trkpt><trkpt lat="45.1143402" lon="7.6223302"><ele>269.0</ele><time>2026-05-03T14:25:53.191Z</time></trkpt><trkpt lat="45.114166" lon="7.6219317"><ele>270.0</ele><time>2026-05-03T14:25:54.19Z</time></trkpt><trkpt lat="45.1139929" lon="7.6215454"><ele>270.0</ele><time>2026-05-03T14:25:55.191Z</time></trkpt><trkpt lat="45.1138222" lon="7.6211631"><ele>270.0</ele><time>2026-05-03T14:25:56.19Z</time></trkpt><trkpt lat="45.1136474" lon="7.6207836"><ele>270.0</ele><time>2026-05-03T14:25:57.191Z</time></trkpt><trkpt lat="45.1134669" lon="7.6203994"><ele>270.0</ele><time>2026-05-03T14:25:58.191Z</time></trkpt><trkpt lat="45.1132958" lon="7.6200137"><ele>270.0</ele><time>2026-05-03T14:25:59.191Z</time></trkpt><trkpt lat="45.1131141" lon="7.6196417"><ele>270.0</ele><time>2026-05-03T14:26:00.19Z</time></trkpt><trkpt lat="45.1129372" lon="7.6192668"><ele>271.0</ele><time>2026-05-03T14:26:01.19Z</time></trkpt><trkpt lat="45.1127621" lon="7.6188994"><ele>272.0</ele><time>2026-05-03T14:26:02.191Z</time></trkpt><trkpt lat="45.1125861" lon="7.6185375"><ele>272.0</ele><time>2026-05-03T14:26:03.19Z</time></trkpt><trkpt lat="45.1124147" lon="7.6181802"><ele>272.0</ele><time>2026-05-03T14:26:04.19Z</time></trkpt><trkpt lat="45.1122485" lon="7.6178285"><ele>272.5</ele><time>2026-05-03T14:26:05.19Z</time></trkpt><trkpt lat="45.1120869" lon="7.617486"><ele>273.0</ele><time>2026-05-03T14:26:06.19Z</time></trkpt><trkpt lat="45.1119215" lon="7.6171456"><ele>273.0</ele><time>2026-05-03T14:26:07.19Z</time></trkpt><trkpt lat="45.1117565" lon="7.6168031"><ele>273.0</ele><time>2026-05-03T14:26:08.191Z</time></trkpt><trkpt lat="45.1115785" lon="7.6164558"><ele>273.0</ele><time>2026-05-03T14:26:09.191Z</time></trkpt><trkpt lat="45.1114051" lon="7.6160997"><ele>273.0</ele><time>2026-05-03T14:26:10.19Z</time></trkpt><trkpt lat="45.1112295" lon="7.6157423"><ele>273.0</ele><time>2026-05-03T14:26:11.19Z</time></trkpt><trkpt lat="45.1110548" lon="7.6153919"><ele>273.0</ele><time>2026-05-03T14:26:12.19Z</time></trkpt><trkpt lat="45.110889" lon="7.615043"><ele>273.0</ele><time>2026-05-03T14:26:13.19Z</time></trkpt><trkpt lat="45.1107181" lon="7.6146943"><ele>273.0</ele><time>2026-05-03T14:26:14.19Z</time></trkpt><trkpt lat="45.1105561" lon="7.6143528"><ele>273.0</ele><time>2026-05-03T14:26:15.191Z</time></trkpt><trkpt lat="45.1103955" lon="7.6140065"><ele>273.0</ele><time>2026-05-03T14:26:16.19Z</time></trkpt><trkpt lat="45.1102333" lon="7.6136658"><ele>273.5</ele><time>2026-05-03T14:26:17.19Z</time></trkpt><trkpt lat="45.1100735" lon="7.6133267"><ele>274.0</ele><time>2026-05-03T14:26:18.19Z</time></trkpt><trkpt lat="45.109911" lon="7.6129777"><ele>274.5</ele><time>2026-05-03T14:26:19.19Z</time></trkpt><trkpt lat="45.1097426" lon="7.6126326"><ele>275.0</ele><time>2026-05-03T14:26:20.19Z</time></trkpt><trkpt lat="45.1095783" lon="7.6122849"><ele>274.0</ele><time>2026-05-03T14:26:21.19Z</time></trkpt><trkpt lat="45.1094095" lon="7.6119385"><ele>273.0</ele><time>2026-05-03T14:26:22.19Z</time></trkpt><trkpt lat="45.1092439" lon="7.6115978"><ele>273.0</ele><time>2026-05-03T14:26:23.19Z</time></trkpt><trkpt lat="45.1090749" lon="7.6112546"><ele>273.0</ele><time>2026-05-03T14:26:24.19Z</time></trkpt><trkpt lat="45.1089204" lon="7.6109138"><ele>273.0</ele><time>2026-05-03T14:26:25.19Z</time></trkpt><trkpt lat="45.1087647" lon="7.6105796"><ele>273.0</ele><time>2026-05-03T14:26:26.19Z</time></trkpt><trkpt lat="45.1086102" lon="7.6102497"><ele>273.0</ele><time>2026-05-03T14:26:27.19Z</time></trkpt><trkpt lat="45.1084493" lon="7.6099146"><ele>273.0</ele><time>2026-05-03T14:26:28.191Z</time></trkpt><trkpt lat="45.1082919" lon="7.6095778"><ele>274.0</ele><time>2026-05-03T14:26:29.19Z</time></trkpt><trkpt lat="45.1081308" lon="7.609234"><ele>275.0</ele><time>2026-05-03T14:26:30.19Z</time></trkpt><trkpt lat="45.1079704" lon="7.6088954"><ele>274.0</ele><time>2026-05-03T14:26:31.191Z</time></trkpt><trkpt lat="45.1078125" lon="7.6085578"><ele>273.0</ele><time>2026-05-03T14:26:32.191Z</time></trkpt><trkpt lat="45.1076536" lon="7.6082112"><ele>273.0</ele><time>2026-05-03T14:26:33.19Z</time></trkpt><trkpt lat="45.1074922" lon="7.6078664"><ele>273.0</ele><time>2026-05-03T14:26:34.19Z</time></trkpt><trkpt lat="45.1073341" lon="7.6075123"><ele>273.0</ele><time>2026-05-03T14:26:35.19Z</time></trkpt><trkpt lat="45.1071768" lon="7.6071459"><ele>273.0</ele><time>2026-05-03T14:26:36.191Z</time></trkpt><trkpt lat="45.1070191" lon="7.6067778"><ele>273.0</ele><time>2026-05-03T14:26:37.19Z</time></trkpt><trkpt lat="45.1068707" lon="7.6064087"><ele>273.0</ele><time>2026-05-03T14:26:38.19Z</time></trkpt><trkpt lat="45.1067224" lon="7.606031"><ele>275.0</ele><time>2026-05-03T14:26:39.191Z</time></trkpt><trkpt lat="45.1065712" lon="7.6056518"><ele>277.0</ele><time>2026-05-03T14:26:40.191Z</time></trkpt><trkpt lat="45.1064213" lon="7.6052607"><ele>277.0</ele><time>2026-05-03T14:26:41.19Z</time></trkpt><trkpt lat="45.1062773" lon="7.604866"><ele>277.0</ele><time>2026-05-03T14:26:42.191Z</time></trkpt><trkpt lat="45.106136" lon="7.6044661"><ele>277.0</ele><time>2026-05-03T14:26:43.191Z</time></trkpt><trkpt lat="45.1059989" lon="7.6040632"><ele>277.0</ele><time>2026-05-03T14:26:44.19Z</time></trkpt><trkpt lat="45.1058642" lon="7.603661"><ele>276.0</ele><time>2026-05-03T14:26:45.19Z</time></trkpt><trkpt lat="45.1057349" lon="7.6032539"><ele>275.0</ele><time>2026-05-03T14:26:46.191Z</time></trkpt><trkpt lat="45.1056005" lon="7.6028385"><ele>276.0</ele><time>2026-05-03T14:26:47.19Z</time></trkpt><trkpt lat="45.1054709" lon="7.6024284"><ele>277.0</ele><time>2026-05-03T14:26:48.19Z</time></trkpt><trkpt lat="45.1053449" lon="7.6020097"><ele>277.0</ele><time>2026-05-03T14:26:49.19Z</time></trkpt><trkpt lat="45.1052242" lon="7.6015902"><ele>277.0</ele><time>2026-05-03T14:26:50.191Z</time></trkpt><trkpt lat="45.1051077" lon="7.6011752"><ele>277.0</ele><time>2026-05-03T14:26:51.191Z</time></trkpt><trkpt lat="45.1049915" lon="7.6007583"><ele>277.0</ele><time>2026-05-03T14:26:52.191Z</time></trkpt><trkpt lat="45.1048784" lon="7.6003389"><ele>277.5</ele><time>2026-05-03T14:26:53.19Z</time></trkpt><trkpt lat="45.1047626" lon="7.5999239"><ele>278.0</ele><time>2026-05-03T14:26:54.19Z</time></trkpt><trkpt lat="45.1046488" lon="7.5995052"><ele>279.0</ele><time>2026-05-03T14:26:55.19Z</time></trkpt><trkpt lat="45.1045347" lon="7.599081"><ele>280.0</ele><time>2026-05-03T14:26:56.19Z</time></trkpt><trkpt lat="45.1044185" lon="7.5986589"><ele>281.0</ele><time>2026-05-03T14:26:57.19Z</time></trkpt><trkpt lat="45.1043026" lon="7.5982312"><ele>282.0</ele><time>2026-05-03T14:26:58.191Z</time></trkpt><trkpt lat="45.1041908" lon="7.5978084"><ele>282.0</ele><time>2026-05-03T14:26:59.19Z</time></trkpt><trkpt lat="45.1040759" lon="7.597391"><ele>282.0</ele><time>2026-05-03T14:27:00.19Z</time></trkpt><trkpt lat="45.1039612" lon="7.5969791"><ele>282.0</ele><time>2026-05-03T14:27:01.19Z</time></trkpt><trkpt lat="45.1038492" lon="7.5965733"><ele>282.0</ele><time>2026-05-03T14:27:02.191Z</time></trkpt><trkpt lat="45.103737" lon="7.5961716"><ele>282.5</ele><time>2026-05-03T14:27:03.191Z</time></trkpt><trkpt lat="45.1036251" lon="7.595764"><ele>283.0</ele><time>2026-05-03T14:27:04.191Z</time></trkpt><trkpt lat="45.103509" lon="7.59535"><ele>282.5</ele><time>2026-05-03T14:27:05.19Z</time></trkpt><trkpt lat="45.1033949" lon="7.5949373"><ele>282.0</ele><time>2026-05-03T14:27:06.191Z</time></trkpt><trkpt lat="45.1032797" lon="7.5945198"><ele>282.5</ele><time>2026-05-03T14:27:07.19Z</time></trkpt><trkpt lat="45.1031646" lon="7.5941007"><ele>283.0</ele><time>2026-05-03T14:27:08.19Z</time></trkpt><trkpt lat="45.103048" lon="7.5936809"><ele>282.0</ele><time>2026-05-03T14:27:09.191Z</time></trkpt><trkpt lat="45.1029298" lon="7.5932579"><ele>281.0</ele><time>2026-05-03T14:27:10.19Z</time></trkpt><trkpt lat="45.1028151" lon="7.5928489"><ele>282.0</ele><time>2026-05-03T14:27:11.19Z</time></trkpt><trkpt lat="45.1027009" lon="7.59244"><ele>283.0</ele><time>2026-05-03T14:27:12.19Z</time></trkpt><trkpt lat="45.1025877" lon="7.5920261"><ele>284.5</ele><time>2026-05-03T14:27:13.19Z</time></trkpt><trkpt lat="45.1024738" lon="7.5916128"><ele>286.0</ele><time>2026-05-03T14:27:14.19Z</time></trkpt><trkpt lat="45.1023597" lon="7.5912003"><ele>285.5</ele><time>2026-05-03T14:27:15.191Z</time></trkpt><trkpt lat="45.1022453" lon="7.5907843"><ele>285.0</ele><time>2026-05-03T14:27:16.19Z</time></trkpt><trkpt lat="45.102131" lon="7.5903702"><ele>283.5</ele><time>2026-05-03T14:27:17.19Z</time></trkpt><trkpt lat="45.1020204" lon="7.5899608"><ele>282.0</ele><time>2026-05-03T14:27:18.191Z</time></trkpt><trkpt lat="45.1019073" lon="7.5895521"><ele>283.0</ele><time>2026-05-03T14:27:19.19Z</time></trkpt><trkpt lat="45.1017982" lon="7.5891497"><ele>284.0</ele><time>2026-05-03T14:27:20.19Z</time></trkpt><trkpt lat="45.1016908" lon="7.588753"><ele>285.0</ele><time>2026-05-03T14:27:21.19Z</time></trkpt><trkpt lat="45.1015816" lon="7.5883591"><ele>286.0</ele><time>2026-05-03T14:27:22.191Z</time></trkpt><trkpt lat="45.1014728" lon="7.587968"><ele>286.0</ele><time>2026-05-03T14:27:23.191Z</time></trkpt><trkpt lat="45.1013672" lon="7.5875788"><ele>286.0</ele><time>2026-05-03T14:27:24.191Z</time></trkpt><trkpt lat="45.101261" lon="7.587193"><ele>286.5</ele><time>2026-05-03T14:27:25.19Z</time></trkpt><trkpt lat="45.1011497" lon="7.5867987"><ele>287.0</ele><time>2026-05-03T14:27:26.19Z</time></trkpt><trkpt lat="45.1010356" lon="7.5863933"><ele>287.0</ele><time>2026-05-03T14:27:27.19Z</time></trkpt><trkpt lat="45.1009186" lon="7.5859804"><ele>287.0</ele><time>2026-05-03T14:27:28.19Z</time></trkpt><trkpt lat="45.100802" lon="7.5855586"><ele>287.0</ele><time>2026-05-03T14:27:29.19Z</time></trkpt><trkpt lat="45.1006842" lon="7.5851317"><ele>287.0</ele><time>2026-05-03T14:27:30.19Z</time></trkpt><trkpt lat="45.1005644" lon="7.5846991"><ele>286.5</ele><time>2026-05-03T14:27:31.192Z</time></trkpt><trkpt lat="45.1004433" lon="7.5842593"><ele>286.0</ele><time>2026-05-03T14:27:32.191Z</time></trkpt><trkpt lat="45.1003259" lon="7.5838214"><ele>287.0</ele><time>2026-05-03T14:27:33.191Z</time></trkpt><trkpt lat="45.1002052" lon="7.5833889"><ele>288.0</ele><time>2026-05-03T14:27:34.192Z</time></trkpt><trkpt lat="45.1000851" lon="7.5829604"><ele>288.5</ele><time>2026-05-03T14:27:35.191Z</time></trkpt><trkpt lat="45.0999652" lon="7.5825318"><ele>289.0</ele><time>2026-05-03T14:27:36.191Z</time></trkpt><trkpt lat="45.0998468" lon="7.5821068"><ele>288.5</ele><time>2026-05-03T14:27:37.192Z</time></trkpt><trkpt lat="45.0997292" lon="7.5816814"><ele>288.0</ele><time>2026-05-03T14:27:38.192Z</time></trkpt><trkpt lat="45.0996106" lon="7.5812518"><ele>289.0</ele><time>2026-05-03T14:27:39.191Z</time></trkpt><trkpt lat="45.0994951" lon="7.5808229"><ele>290.0</ele><time>2026-05-03T14:27:40.191Z</time></trkpt><trkpt lat="45.0993803" lon="7.580395"><ele>291.0</ele><time>2026-05-03T14:27:41.191Z</time></trkpt><trkpt lat="45.099265" lon="7.5799646"><ele>292.0</ele><time>2026-05-03T14:27:42.191Z</time></trkpt><trkpt lat="45.0991496" lon="7.5795365"><ele>292.0</ele><time>2026-05-03T14:27:43.191Z</time></trkpt><trkpt lat="45.0990288" lon="7.5791031"><ele>292.0</ele><time>2026-05-03T14:27:44.192Z</time></trkpt><trkpt lat="45.0989106" lon="7.5786673"><ele>293.0</ele><time>2026-05-03T14:27:45.191Z</time></trkpt><trkpt lat="45.0987887" lon="7.5782332"><ele>294.0</ele><time>2026-05-03T14:27:46.191Z</time></trkpt><trkpt lat="45.0986676" lon="7.5777976"><ele>294.5</ele><time>2026-05-03T14:27:47.192Z</time></trkpt><trkpt lat="45.0985377" lon="7.5773667"><ele>295.0</ele><time>2026-05-03T14:27:48.191Z</time></trkpt><trkpt lat="45.0983984" lon="7.5769427"><ele>294.5</ele><time>2026-05-03T14:27:49.191Z</time></trkpt><trkpt lat="45.098248" lon="7.5765303"><ele>294.0</ele><time>2026-05-03T14:27:50.191Z</time></trkpt><trkpt lat="45.0980913" lon="7.5761252"><ele>295.0</ele><time>2026-05-03T14:27:51.191Z</time></trkpt><trkpt lat="45.0979232" lon="7.5757337"><ele>296.0</ele><time>2026-05-03T14:27:52.191Z</time></trkpt><trkpt lat="45.0977519" lon="7.5753518"><ele>296.0</ele><time>2026-05-03T14:27:53.194Z</time></trkpt><trkpt lat="45.0975755" lon="7.5749783"><ele>296.0</ele><time>2026-05-03T14:27:54.194Z</time></trkpt><trkpt lat="45.097391" lon="7.5746097"><ele>296.0</ele><time>2026-05-03T14:27:55.195Z</time></trkpt><trkpt lat="45.0971966" lon="7.5742454"><ele>296.0</ele><time>2026-05-03T14:27:56.195Z</time></trkpt><trkpt lat="45.096994" lon="7.5739024"><ele>296.0</ele><time>2026-05-03T14:27:57.194Z</time></trkpt><trkpt lat="45.0967842" lon="7.5735667"><ele>296.0</ele><time>2026-05-03T14:27:58.195Z</time></trkpt><trkpt lat="45.0965718" lon="7.5732382"><ele>296.5</ele><time>2026-05-03T14:27:59.194Z</time></trkpt><trkpt lat="45.0963602" lon="7.5729285"><ele>297.0</ele><time>2026-05-03T14:28:00.194Z</time></trkpt><trkpt lat="45.0961465" lon="7.5726297"><ele>297.5</ele><time>2026-05-03T14:28:01.194Z</time></trkpt><trkpt lat="45.095927" lon="7.5723361"><ele>298.0</ele><time>2026-05-03T14:28:02.194Z</time></trkpt><trkpt lat="45.0956988" lon="7.5720412"><ele>297.5</ele><time>2026-05-03T14:28:03.194Z</time></trkpt><trkpt lat="45.0954607" lon="7.5717393"><ele>297.0</ele><time>2026-05-03T14:28:04.195Z</time></trkpt><trkpt lat="45.095226" lon="7.5714349"><ele>298.0</ele><time>2026-05-03T14:28:05.194Z</time></trkpt><trkpt lat="45.0949811" lon="7.571127"><ele>299.0</ele><time>2026-05-03T14:28:06.195Z</time></trkpt><trkpt lat="45.0947373" lon="7.5708276"><ele>299.0</ele><time>2026-05-03T14:28:07.194Z</time></trkpt><trkpt lat="45.094499" lon="7.5705291"><ele>299.0</ele><time>2026-05-03T14:28:08.195Z</time></trkpt><trkpt lat="45.0942579" lon="7.5702241"><ele>300.0</ele><time>2026-05-03T14:28:09.195Z</time></trkpt><trkpt lat="45.0940189" lon="7.5699209"><ele>301.0</ele><time>2026-05-03T14:28:10.194Z</time></trkpt><trkpt lat="45.0937751" lon="7.5696155"><ele>301.5</ele><time>2026-05-03T14:28:11.194Z</time></trkpt><trkpt lat="45.0935334" lon="7.5693138"><ele>302.0</ele><time>2026-05-03T14:28:12.194Z</time></trkpt><trkpt lat="45.0932898" lon="7.5690167"><ele>300.5</ele><time>2026-05-03T14:28:13.194Z</time></trkpt><trkpt lat="45.0930448" lon="7.5687036"><ele>299.0</ele><time>2026-05-03T14:28:14.194Z</time></trkpt><trkpt lat="45.0928007" lon="7.5683962"><ele>299.0</ele><time>2026-05-03T14:28:15.194Z</time></trkpt><trkpt lat="45.0925557" lon="7.5680904"><ele>299.0</ele><time>2026-05-03T14:28:16.195Z</time></trkpt><trkpt lat="45.0923225" lon="7.5677938"><ele>298.0</ele><time>2026-05-03T14:28:17.194Z</time></trkpt><trkpt lat="45.0920882" lon="7.5674993"><ele>297.0</ele><time>2026-05-03T14:28:18.195Z</time></trkpt><trkpt lat="45.0918537" lon="7.5671995"><ele>298.0</ele><time>2026-05-03T14:28:19.194Z</time></trkpt><trkpt lat="45.091618" lon="7.5669038"><ele>299.0</ele><time>2026-05-03T14:28:20.194Z</time></trkpt><trkpt lat="45.0913891" lon="7.566614"><ele>297.0</ele><time>2026-05-03T14:28:21.194Z</time></trkpt><trkpt lat="45.0911564" lon="7.5663301"><ele>295.0</ele><time>2026-05-03T14:28:22.194Z</time></trkpt><trkpt lat="45.0909239" lon="7.5660339"><ele>293.5</ele><time>2026-05-03T14:28:23.194Z</time></trkpt><trkpt lat="45.0906897" lon="7.5657395"><ele>292.0</ele><time>2026-05-03T14:28:24.195Z</time></trkpt><trkpt lat="45.0904585" lon="7.5654461"><ele>292.5</ele><time>2026-05-03T14:28:25.194Z</time></trkpt><trkpt lat="45.0902265" lon="7.5651565"><ele>293.0</ele><time>2026-05-03T14:28:26.194Z</time></trkpt><trkpt lat="45.0900014" lon="7.5648695"><ele>292.5</ele><time>2026-05-03T14:28:27.194Z</time></trkpt><trkpt lat="45.0897779" lon="7.5645878"><ele>292.0</ele><time>2026-05-03T14:28:28.195Z</time></trkpt><trkpt lat="45.0895575" lon="7.5643049"><ele>293.0</ele><time>2026-05-03T14:28:29.195Z</time></trkpt><trkpt lat="45.0893245" lon="7.5640173"><ele>294.0</ele><time>2026-05-03T14:28:30.194Z</time></trkpt><trkpt lat="45.0890956" lon="7.5637295"><ele>293.5</ele><time>2026-05-03T14:28:31.194Z</time></trkpt><trkpt lat="45.0888726" lon="7.56344"><ele>293.0</ele><time>2026-05-03T14:28:32.195Z</time></trkpt><trkpt lat="45.0886483" lon="7.5631553"><ele>293.0</ele><time>2026-05-03T14:28:33.195Z</time></trkpt><trkpt lat="45.088428" lon="7.5628736"><ele>293.0</ele><time>2026-05-03T14:28:34.194Z</time></trkpt><trkpt lat="45.0882076" lon="7.5626015"><ele>295.0</ele><time>2026-05-03T14:28:35.194Z</time></trkpt><trkpt lat="45.0879925" lon="7.562328"><ele>297.0</ele><time>2026-05-03T14:28:36.194Z</time></trkpt><trkpt lat="45.087781" lon="7.5620541"><ele>297.5</ele><time>2026-05-03T14:28:37.194Z</time></trkpt><trkpt lat="45.0875766" lon="7.5617947"><ele>298.0</ele><time>2026-05-03T14:28:38.194Z</time></trkpt><trkpt lat="45.0873753" lon="7.5615365"><ele>300.0</ele><time>2026-05-03T14:28:39.194Z</time></trkpt><trkpt lat="45.0871733" lon="7.5612778"><ele>302.0</ele><time>2026-05-03T14:28:40.195Z</time></trkpt><trkpt lat="45.0869679" lon="7.5610222"><ele>304.0</ele><time>2026-05-03T14:28:41.194Z</time></trkpt><trkpt lat="45.0867597" lon="7.5607668"><ele>306.0</ele><time>2026-05-03T14:28:42.195Z</time></trkpt><trkpt lat="45.0865537" lon="7.5605068"><ele>308.5</ele><time>2026-05-03T14:28:43.194Z</time></trkpt><trkpt lat="45.0863471" lon="7.560247"><ele>311.0</ele><time>2026-05-03T14:28:44.194Z</time></trkpt><trkpt lat="45.0861386" lon="7.5599856"><ele>311.0</ele><time>2026-05-03T14:28:45.195Z</time></trkpt><trkpt lat="45.0859268" lon="7.5597145"><ele>311.0</ele><time>2026-05-03T14:28:46.194Z</time></trkpt><trkpt lat="45.0857102" lon="7.5594372"><ele>313.0</ele><time>2026-05-03T14:28:47.194Z</time></trkpt><trkpt lat="45.0854918" lon="7.5591631"><ele>315.0</ele><time>2026-05-03T14:28:48.195Z</time></trkpt><trkpt lat="45.0852724" lon="7.5588906"><ele>314.5</ele><time>2026-05-03T14:28:49.195Z</time></trkpt><trkpt lat="45.0850419" lon="7.5586021"><ele>314.0</ele><time>2026-05-03T14:28:50.195Z</time></trkpt><trkpt lat="45.0848043" lon="7.5583004"><ele>313.5</ele><time>2026-05-03T14:28:51.194Z</time></trkpt><trkpt lat="45.0845623" lon="7.5579948"><ele>313.0</ele><time>2026-05-03T14:28:52.194Z</time></trkpt><trkpt lat="45.0843271" lon="7.5576945"><ele>313.0</ele><time>2026-05-03T14:28:53.195Z</time></trkpt><trkpt lat="45.0840984" lon="7.557411"><ele>313.0</ele><time>2026-05-03T14:28:54.195Z</time></trkpt><trkpt lat="45.0838766" lon="7.5571221"><ele>314.0</ele><time>2026-05-03T14:28:55.195Z</time></trkpt><trkpt lat="45.0836597" lon="7.5568363"><ele>315.0</ele><time>2026-05-03T14:28:56.195Z</time></trkpt><trkpt lat="45.0834592" lon="7.5565506"><ele>315.0</ele><time>2026-05-03T14:28:57.195Z</time></trkpt><trkpt lat="45.0832683" lon="7.5562551"><ele>315.0</ele><time>2026-05-03T14:28:58.194Z</time></trkpt><trkpt lat="45.0830923" lon="7.555956"><ele>316.0</ele><time>2026-05-03T14:28:59.195Z</time></trkpt><trkpt lat="45.0829186" lon="7.5556518"><ele>317.0</ele><time>2026-05-03T14:29:00.195Z</time></trkpt><trkpt lat="45.0827554" lon="7.5553526"><ele>317.0</ele><time>2026-05-03T14:29:01.194Z</time></trkpt><trkpt lat="45.0825985" lon="7.5550426"><ele>317.0</ele><time>2026-05-03T14:29:02.194Z</time></trkpt><trkpt lat="45.0824482" lon="7.5547268"><ele>316.0</ele><time>2026-05-03T14:29:03.195Z</time></trkpt><trkpt lat="45.0823016" lon="7.5544023"><ele>315.0</ele><time>2026-05-03T14:29:04.194Z</time></trkpt><trkpt lat="45.0821605" lon="7.5540688"><ele>315.0</ele><time>2026-05-03T14:29:05.195Z</time></trkpt><trkpt lat="45.0820275" lon="7.5537405"><ele>315.0</ele><time>2026-05-03T14:29:06.195Z</time></trkpt><trkpt lat="45.0819005" lon="7.5533993"><ele>315.5</ele><time>2026-05-03T14:29:07.194Z</time></trkpt><trkpt lat="45.0817883" lon="7.5530626"><ele>316.0</ele><time>2026-05-03T14:29:08.194Z</time></trkpt><trkpt lat="45.081685" lon="7.5527432"><ele>312.5</ele><time>2026-05-03T14:29:09.194Z</time></trkpt><trkpt lat="45.0815977" lon="7.552414"><ele>309.0</ele><time>2026-05-03T14:29:10.194Z</time></trkpt><trkpt lat="45.0815102" lon="7.5520831"><ele>310.5</ele><time>2026-05-03T14:29:11.195Z</time></trkpt><trkpt lat="45.081427" lon="7.5517568"><ele>312.0</ele><time>2026-05-03T14:29:12.194Z</time></trkpt><trkpt lat="45.0813467" lon="7.5514349"><ele>313.5</ele><time>2026-05-03T14:29:13.194Z</time></trkpt><trkpt lat="45.0812654" lon="7.5511215"><ele>315.0</ele><time>2026-05-03T14:29:14.194Z</time></trkpt><trkpt lat="45.081182" lon="7.5508163"><ele>315.0</ele><time>2026-05-03T14:29:15.194Z</time></trkpt><trkpt lat="45.0810801" lon="7.5505185"><ele>315.0</ele><time>2026-05-03T14:29:16.194Z</time></trkpt><trkpt lat="45.0809656" lon="7.5502336"><ele>315.5</ele><time>2026-05-03T14:29:17.195Z</time></trkpt><trkpt lat="45.0808287" lon="7.5499694"><ele>316.0</ele><time>2026-05-03T14:29:18.195Z</time></trkpt><trkpt lat="45.0806793" lon="7.5497238"><ele>317.5</ele><time>2026-05-03T14:29:19.194Z</time></trkpt><trkpt lat="45.0805211" lon="7.5494955"><ele>319.0</ele><time>2026-05-03T14:29:20.194Z</time></trkpt><trkpt lat="45.0803497" lon="7.5492764"><ele>319.0</ele><time>2026-05-03T14:29:21.194Z</time></trkpt><trkpt lat="45.080164" lon="7.5490799"><ele>319.0</ele><time>2026-05-03T14:29:22.195Z</time></trkpt><trkpt lat="45.0799501" lon="7.5489026"><ele>320.0</ele><time>2026-05-03T14:29:23.194Z</time></trkpt><trkpt lat="45.0797313" lon="7.5487486"><ele>321.0</ele><time>2026-05-03T14:29:24.194Z</time></trkpt><trkpt lat="45.0795076" lon="7.548635"><ele>322.0</ele><time>2026-05-03T14:29:25.194Z</time></trkpt><trkpt lat="45.079268" lon="7.5485326"><ele>323.0</ele><time>2026-05-03T14:29:26.195Z</time></trkpt><trkpt lat="45.0790108" lon="7.5484438"><ele>323.5</ele><time>2026-05-03T14:29:27.194Z</time></trkpt><trkpt lat="45.0787369" lon="7.5483677"><ele>324.0</ele><time>2026-05-03T14:29:28.194Z</time></trkpt><trkpt lat="45.0784585" lon="7.5482887"><ele>323.5</ele><time>2026-05-03T14:29:29.194Z</time></trkpt><trkpt lat="45.0781787" lon="7.5481973"><ele>323.0</ele><time>2026-05-03T14:29:30.194Z</time></trkpt><trkpt lat="45.0778873" lon="7.5481047"><ele>323.0</ele><time>2026-05-03T14:29:31.195Z</time></trkpt><trkpt lat="45.0775965" lon="7.548014"><ele>323.0</ele><time>2026-05-03T14:29:32.195Z</time></trkpt><trkpt lat="45.0773168" lon="7.5479293"><ele>325.5</ele><time>2026-05-03T14:29:33.195Z</time></trkpt><trkpt lat="45.0770458" lon="7.5478436"><ele>328.0</ele><time>2026-05-03T14:29:34.194Z</time></trkpt><trkpt lat="45.0767797" lon="7.5477526"><ele>328.0</ele><time>2026-05-03T14:29:35.195Z</time></trkpt><trkpt lat="45.0765085" lon="7.5476622"><ele>328.0</ele><time>2026-05-03T14:29:36.195Z</time></trkpt><trkpt lat="45.0762319" lon="7.5475715"><ele>328.0</ele><time>2026-05-03T14:29:37.194Z</time></trkpt><trkpt lat="45.0759511" lon="7.5474838"><ele>328.0</ele><time>2026-05-03T14:29:38.194Z</time></trkpt><trkpt lat="45.0756678" lon="7.5473896"><ele>326.0</ele><time>2026-05-03T14:29:39.194Z</time></trkpt><trkpt lat="45.0753813" lon="7.5472979"><ele>324.0</ele><time>2026-05-03T14:29:40.195Z</time></trkpt><trkpt lat="45.0750958" lon="7.5472089"><ele>323.0</ele><time>2026-05-03T14:29:41.195Z</time></trkpt><trkpt lat="45.0748146" lon="7.5471219"><ele>322.0</ele><time>2026-05-03T14:29:42.194Z</time></trkpt><trkpt lat="45.074534" lon="7.5470359"><ele>324.0</ele><time>2026-05-03T14:29:43.195Z</time></trkpt><trkpt lat="45.0742548" lon="7.5469511"><ele>326.0</ele><time>2026-05-03T14:29:44.194Z</time></trkpt><trkpt lat="45.073972" lon="7.546867"><ele>326.0</ele><time>2026-05-03T14:29:45.194Z</time></trkpt><trkpt lat="45.0736913" lon="7.5467787"><ele>326.0</ele><time>2026-05-03T14:29:46.194Z</time></trkpt><trkpt lat="45.0734064" lon="7.5466892"><ele>324.5</ele><time>2026-05-03T14:29:47.195Z</time></trkpt><trkpt lat="45.0731099" lon="7.5466016"><ele>323.0</ele><time>2026-05-03T14:29:48.194Z</time></trkpt><trkpt lat="45.0728063" lon="7.5465059"><ele>323.0</ele><time>2026-05-03T14:29:49.194Z</time></trkpt><trkpt lat="45.0724983" lon="7.546405"><ele>323.0</ele><time>2026-05-03T14:29:50.195Z</time></trkpt><trkpt lat="45.0721876" lon="7.5463014"><ele>324.0</ele><time>2026-05-03T14:29:51.194Z</time></trkpt><trkpt lat="45.0718783" lon="7.5462106"><ele>325.0</ele><time>2026-05-03T14:29:52.194Z</time></trkpt><trkpt lat="45.0715699" lon="7.5461221"><ele>325.0</ele><time>2026-05-03T14:29:53.195Z</time></trkpt><trkpt lat="45.0712662" lon="7.5460245"><ele>325.0</ele><time>2026-05-03T14:29:54.194Z</time></trkpt><trkpt lat="45.0709712" lon="7.5459341"><ele>325.0</ele><time>2026-05-03T14:29:55.194Z</time></trkpt><trkpt lat="45.0706789" lon="7.5458515"><ele>325.0</ele><time>2026-05-03T14:29:56.194Z</time></trkpt><trkpt lat="45.0703919" lon="7.5457656"><ele>325.0</ele><time>2026-05-03T14:29:57.194Z</time></trkpt><trkpt lat="45.0701037" lon="7.5456818"><ele>325.0</ele><time>2026-05-03T14:29:58.194Z</time></trkpt><trkpt lat="45.0698146" lon="7.5455978"><ele>324.0</ele><time>2026-05-03T14:29:59.194Z</time></trkpt><trkpt lat="45.0695226" lon="7.5455029"><ele>323.0</ele><time>2026-05-03T14:30:00.194Z</time></trkpt><trkpt lat="45.0692247" lon="7.5454132"><ele>322.5</ele><time>2026-05-03T14:30:01.194Z</time></trkpt><trkpt lat="45.0689277" lon="7.5453192"><ele>322.0</ele><time>2026-05-03T14:30:02.194Z</time></trkpt><trkpt lat="45.0686247" lon="7.5452289"><ele>322.0</ele><time>2026-05-03T14:30:03.195Z</time></trkpt><trkpt lat="45.0683144" lon="7.5451362"><ele>322.0</ele><time>2026-05-03T14:30:04.194Z</time></trkpt><trkpt lat="45.0679905" lon="7.5450314"><ele>320.5</ele><time>2026-05-03T14:30:05.195Z</time></trkpt><trkpt lat="45.0676658" lon="7.5449342"><ele>319.0</ele><time>2026-05-03T14:30:06.195Z</time></trkpt><trkpt lat="45.0673391" lon="7.5448292"><ele>319.0</ele><time>2026-05-03T14:30:07.194Z</time></trkpt><trkpt lat="45.0670113" lon="7.5447301"><ele>319.0</ele><time>2026-05-03T14:30:08.195Z</time></trkpt><trkpt lat="45.0666872" lon="7.5446319"><ele>320.0</ele><time>2026-05-03T14:30:09.195Z</time></trkpt><trkpt lat="45.0663665" lon="7.5445285"><ele>321.0</ele><time>2026-05-03T14:30:10.194Z</time></trkpt><trkpt lat="45.0660476" lon="7.5444303"><ele>319.5</ele><time>2026-05-03T14:30:11.194Z</time></trkpt><trkpt lat="45.065727" lon="7.5443313"><ele>318.0</ele><time>2026-05-03T14:30:12.194Z</time></trkpt><trkpt lat="45.0654115" lon="7.5442368"><ele>318.0</ele><time>2026-05-03T14:30:13.195Z</time></trkpt><trkpt lat="45.065097" lon="7.5441384"><ele>318.0</ele><time>2026-05-03T14:30:14.194Z</time></trkpt><trkpt lat="45.0647794" lon="7.5440384"><ele>317.5</ele><time>2026-05-03T14:30:15.194Z</time></trkpt><trkpt lat="45.0644652" lon="7.5439409"><ele>317.0</ele><time>2026-05-03T14:30:16.194Z</time></trkpt><trkpt lat="45.0641471" lon="7.5438428"><ele>316.0</ele><time>2026-05-03T14:30:17.195Z</time></trkpt><trkpt lat="45.0638322" lon="7.5437461"><ele>315.0</ele><time>2026-05-03T14:30:18.194Z</time></trkpt><trkpt lat="45.0635177" lon="7.5436525"><ele>313.5</ele><time>2026-05-03T14:30:19.194Z</time></trkpt><trkpt lat="45.0632024" lon="7.5435647"><ele>312.0</ele><time>2026-05-03T14:30:20.194Z</time></trkpt><trkpt lat="45.0628896" lon="7.5434766"><ele>312.0</ele><time>2026-05-03T14:30:21.194Z</time></trkpt><trkpt lat="45.0625807" lon="7.5434028"><ele>312.0</ele><time>2026-05-03T14:30:22.195Z</time></trkpt><trkpt lat="45.0622761" lon="7.5433453"><ele>313.0</ele><time>2026-05-03T14:30:23.194Z</time></trkpt><trkpt lat="45.0619708" lon="7.5433076"><ele>314.0</ele><time>2026-05-03T14:30:24.194Z</time></trkpt><trkpt lat="45.0616569" lon="7.5432858"><ele>313.5</ele><time>2026-05-03T14:30:25.194Z</time></trkpt><trkpt lat="45.0613404" lon="7.5432893"><ele>313.0</ele><time>2026-05-03T14:30:26.194Z</time></trkpt><trkpt lat="45.0610294" lon="7.5433062"><ele>313.5</ele><time>2026-05-03T14:30:27.194Z</time></trkpt><trkpt lat="45.0607244" lon="7.543343"><ele>314.0</ele><time>2026-05-03T14:30:28.195Z</time></trkpt><trkpt lat="45.06042" lon="7.5433952"><ele>314.0</ele><time>2026-05-03T14:30:29.194Z</time></trkpt><trkpt lat="45.0601118" lon="7.5434754"><ele>314.0</ele><time>2026-05-03T14:30:30.194Z</time></trkpt><trkpt lat="45.0598022" lon="7.5435654"><ele>315.0</ele><time>2026-05-03T14:30:31.195Z</time></trkpt><trkpt lat="45.059493" lon="7.5436608"><ele>316.0</ele><time>2026-05-03T14:30:32.194Z</time></trkpt><trkpt lat="45.0591852" lon="7.5437573"><ele>313.5</ele><time>2026-05-03T14:30:33.195Z</time></trkpt><trkpt lat="45.058879" lon="7.5438633"><ele>311.0</ele><time>2026-05-03T14:30:34.195Z</time></trkpt><trkpt lat="45.0585862" lon="7.5439626"><ele>311.0</ele><time>2026-05-03T14:30:35.194Z</time></trkpt><trkpt lat="45.0582974" lon="7.5440649"><ele>311.0</ele><time>2026-05-03T14:30:36.194Z</time></trkpt><trkpt lat="45.0579932" lon="7.5441672"><ele>311.0</ele><time>2026-05-03T14:30:37.195Z</time></trkpt><trkpt lat="45.0576852" lon="7.5442741"><ele>311.0</ele><time>2026-05-03T14:30:38.194Z</time></trkpt><trkpt lat="45.0573697" lon="7.5443837"><ele>310.0</ele><time>2026-05-03T14:30:39.194Z</time></trkpt><trkpt lat="45.0570485" lon="7.544493"><ele>309.0</ele><time>2026-05-03T14:30:40.195Z</time></trkpt><trkpt lat="45.0567211" lon="7.5446083"><ele>308.0</ele><time>2026-05-03T14:30:41.194Z</time></trkpt><trkpt lat="45.0564087" lon="7.5447183"><ele>307.0</ele><time>2026-05-03T14:30:42.194Z</time></trkpt><trkpt lat="45.0561109" lon="7.5448222"><ele>307.0</ele><time>2026-05-03T14:30:43.194Z</time></trkpt><trkpt lat="45.0558241" lon="7.5449234"><ele>307.0</ele><time>2026-05-03T14:30:44.195Z</time></trkpt><trkpt lat="45.0555387" lon="7.5450197"><ele>307.0</ele><time>2026-05-03T14:30:45.195Z</time></trkpt><trkpt lat="45.0552463" lon="7.5451227"><ele>307.0</ele><time>2026-05-03T14:30:46.194Z</time></trkpt><trkpt lat="45.0549458" lon="7.5452255"><ele>307.0</ele><time>2026-05-03T14:30:47.194Z</time></trkpt><trkpt lat="45.0546455" lon="7.5453311"><ele>307.0</ele><time>2026-05-03T14:30:48.194Z</time></trkpt><trkpt lat="45.0543404" lon="7.5454313"><ele>307.5</ele><time>2026-05-03T14:30:49.194Z</time></trkpt><trkpt lat="45.0540354" lon="7.5455361"><ele>308.0</ele><time>2026-05-03T14:30:50.194Z</time></trkpt><trkpt lat="45.053727" lon="7.5456416"><ele>308.0</ele><time>2026-05-03T14:30:51.195Z</time></trkpt><trkpt lat="45.0534173" lon="7.5457478"><ele>308.0</ele><time>2026-05-03T14:30:52.194Z</time></trkpt><trkpt lat="45.0531099" lon="7.5458517"><ele>307.5</ele><time>2026-05-03T14:30:53.194Z</time></trkpt><trkpt lat="45.0527986" lon="7.5459545"><ele>307.0</ele><time>2026-05-03T14:30:54.194Z</time></trkpt><trkpt lat="45.0524856" lon="7.5460516"><ele>307.5</ele><time>2026-05-03T14:30:55.195Z</time></trkpt><trkpt lat="45.0521715" lon="7.5461531"><ele>308.0</ele><time>2026-05-03T14:30:56.195Z</time></trkpt><trkpt lat="45.0518534" lon="7.5462535"><ele>306.5</ele><time>2026-05-03T14:30:57.194Z</time></trkpt><trkpt lat="45.0515356" lon="7.5463609"><ele>305.0</ele><time>2026-05-03T14:30:58.194Z</time></trkpt><trkpt lat="45.0512164" lon="7.546471"><ele>305.0</ele><time>2026-05-03T14:30:59.195Z</time></trkpt><trkpt lat="45.0509" lon="7.5465817"><ele>305.0</ele><time>2026-05-03T14:31:00.194Z</time></trkpt><trkpt lat="45.0505813" lon="7.5466913"><ele>304.5</ele><time>2026-05-03T14:31:01.195Z</time></trkpt><trkpt lat="45.0502628" lon="7.546798"><ele>304.0</ele><time>2026-05-03T14:31:02.194Z</time></trkpt><trkpt lat="45.0499414" lon="7.5469071"><ele>303.0</ele><time>2026-05-03T14:31:03.194Z</time></trkpt><trkpt lat="45.049626" lon="7.5470131"><ele>302.0</ele><time>2026-05-03T14:31:04.195Z</time></trkpt><trkpt lat="45.0493189" lon="7.5471164"><ele>301.5</ele><time>2026-05-03T14:31:05.194Z</time></trkpt><trkpt lat="45.0490144" lon="7.5472218"><ele>301.0</ele><time>2026-05-03T14:31:06.194Z</time></trkpt><trkpt lat="45.0487055" lon="7.5473306"><ele>301.0</ele><time>2026-05-03T14:31:07.195Z</time></trkpt><trkpt lat="45.0483934" lon="7.5474411"><ele>301.0</ele><time>2026-05-03T14:31:08.194Z</time></trkpt><trkpt lat="45.0480781" lon="7.5475562"><ele>300.5</ele><time>2026-05-03T14:31:09.194Z</time></trkpt><trkpt lat="45.0477665" lon="7.5476704"><ele>300.0</ele><time>2026-05-03T14:31:10.194Z</time></trkpt><trkpt lat="45.0474606" lon="7.5477793"><ele>298.0</ele><time>2026-05-03T14:31:11.195Z</time></trkpt><trkpt lat="45.0471615" lon="7.5478879"><ele>296.0</ele><time>2026-05-03T14:31:12.194Z</time></trkpt><trkpt lat="45.0468716" lon="7.5480035"><ele>297.0</ele><time>2026-05-03T14:31:13.195Z</time></trkpt><trkpt lat="45.046588" lon="7.5481403"><ele>298.0</ele><time>2026-05-03T14:31:14.194Z</time></trkpt><trkpt lat="45.0463084" lon="7.5482974"><ele>298.0</ele><time>2026-05-03T14:31:15.194Z</time></trkpt><trkpt lat="45.046036" lon="7.5484698"><ele>298.0</ele><time>2026-05-03T14:31:16.194Z</time></trkpt><trkpt lat="45.045769" lon="7.5486471"><ele>297.5</ele><time>2026-05-03T14:31:17.194Z</time></trkpt><trkpt lat="45.0455088" lon="7.5488385"><ele>297.0</ele><time>2026-05-03T14:31:18.194Z</time></trkpt><trkpt lat="45.0452587" lon="7.5490396"><ele>297.0</ele><time>2026-05-03T14:31:19.194Z</time></trkpt><trkpt lat="45.0450183" lon="7.5492513"><ele>297.0</ele><time>2026-05-03T14:31:20.194Z</time></trkpt><trkpt lat="45.0447814" lon="7.5494713"><ele>294.0</ele><time>2026-05-03T14:31:21.194Z</time></trkpt><trkpt lat="45.0445452" lon="7.5497085"><ele>291.0</ele><time>2026-05-03T14:31:22.195Z</time></trkpt><trkpt lat="45.0443066" lon="7.5499636"><ele>291.5</ele><time>2026-05-03T14:31:23.194Z</time></trkpt><trkpt lat="45.0440703" lon="7.5502348"><ele>292.0</ele><time>2026-05-03T14:31:24.195Z</time></trkpt><trkpt lat="45.0438365" lon="7.5505159"><ele>293.5</ele><time>2026-05-03T14:31:25.194Z</time></trkpt><trkpt lat="45.0436061" lon="7.5508116"><ele>295.0</ele><time>2026-05-03T14:31:26.194Z</time></trkpt><trkpt lat="45.0433783" lon="7.5511147"><ele>294.5</ele><time>2026-05-03T14:31:27.194Z</time></trkpt><trkpt lat="45.0431596" lon="7.5514305"><ele>294.0</ele><time>2026-05-03T14:31:28.195Z</time></trkpt><trkpt lat="45.042952" lon="7.5517536"><ele>295.0</ele><time>2026-05-03T14:31:29.194Z</time></trkpt><trkpt lat="45.0427485" lon="7.5520901"><ele>296.0</ele><time>2026-05-03T14:31:30.194Z</time></trkpt><trkpt lat="45.0425525" lon="7.5524384"><ele>293.5</ele><time>2026-05-03T14:31:31.194Z</time></trkpt><trkpt lat="45.0423679" lon="7.552792"><ele>291.0</ele><time>2026-05-03T14:31:32.194Z</time></trkpt><trkpt lat="45.0421947" lon="7.5531567"><ele>291.0</ele><time>2026-05-03T14:31:33.195Z</time></trkpt><trkpt lat="45.0420286" lon="7.5535246"><ele>291.0</ele><time>2026-05-03T14:31:34.194Z</time></trkpt><trkpt lat="45.0418696" lon="7.5539042"><ele>290.5</ele><time>2026-05-03T14:31:35.194Z</time></trkpt><trkpt lat="45.0417205" lon="7.5542947"><ele>290.0</ele><time>2026-05-03T14:31:36.195Z</time></trkpt><trkpt lat="45.0415845" lon="7.5546886"><ele>290.0</ele><time>2026-05-03T14:31:37.194Z</time></trkpt><trkpt lat="45.0414595" lon="7.5550832"><ele>290.0</ele><time>2026-05-03T14:31:38.195Z</time></trkpt><trkpt lat="45.0413415" lon="7.5554849"><ele>290.0</ele><time>2026-05-03T14:31:39.194Z</time></trkpt><trkpt lat="45.0412313" lon="7.5558932"><ele>290.0</ele><time>2026-05-03T14:31:40.194Z</time></trkpt><trkpt lat="45.0411245" lon="7.5562914"><ele>290.0</ele><time>2026-05-03T14:31:41.194Z</time></trkpt><trkpt lat="45.0410134" lon="7.5566946"><ele>290.0</ele><time>2026-05-03T14:31:42.195Z</time></trkpt><trkpt lat="45.0409018" lon="7.5570947"><ele>290.0</ele><time>2026-05-03T14:31:43.195Z</time></trkpt><trkpt lat="45.040784" lon="7.5574995"><ele>290.0</ele><time>2026-05-03T14:31:44.194Z</time></trkpt><trkpt lat="45.0406695" lon="7.5579067"><ele>289.0</ele><time>2026-05-03T14:31:45.195Z</time></trkpt><trkpt lat="45.040555" lon="7.558314"><ele>288.0</ele><time>2026-05-03T14:31:46.194Z</time></trkpt><trkpt lat="45.0404419" lon="7.5587231"><ele>288.0</ele><time>2026-05-03T14:31:47.194Z</time></trkpt><trkpt lat="45.0403292" lon="7.559139"><ele>288.0</ele><time>2026-05-03T14:31:48.195Z</time></trkpt><trkpt lat="45.0402164" lon="7.5595578"><ele>288.0</ele><time>2026-05-03T14:31:49.194Z</time></trkpt><trkpt lat="45.040105" lon="7.5599773"><ele>288.0</ele><time>2026-05-03T14:31:50.194Z</time></trkpt><trkpt lat="45.0399899" lon="7.5603985"><ele>287.0</ele><time>2026-05-03T14:31:51.194Z</time></trkpt><trkpt lat="45.0398725" lon="7.5608234"><ele>286.0</ele><time>2026-05-03T14:31:52.194Z</time></trkpt><trkpt lat="45.0397551" lon="7.5612525"><ele>285.0</ele><time>2026-05-03T14:31:53.194Z</time></trkpt><trkpt lat="45.0396373" lon="7.561686"><ele>284.0</ele><time>2026-05-03T14:31:54.194Z</time></trkpt><trkpt lat="45.0395191" lon="7.5621279"><ele>283.5</ele><time>2026-05-03T14:31:55.194Z</time></trkpt><trkpt lat="45.0393999" lon="7.5625694"><ele>283.0</ele><time>2026-05-03T14:31:56.194Z</time></trkpt><trkpt lat="45.0392804" lon="7.5630104"><ele>283.5</ele><time>2026-05-03T14:31:57.194Z</time></trkpt><trkpt lat="45.0391599" lon="7.5634501"><ele>284.0</ele><time>2026-05-03T14:31:58.195Z</time></trkpt><trkpt lat="45.0390398" lon="7.5638811"><ele>284.0</ele><time>2026-05-03T14:31:59.194Z</time></trkpt><trkpt lat="45.0389235" lon="7.5643086"><ele>284.0</ele><time>2026-05-03T14:32:00.194Z</time></trkpt><trkpt lat="45.0388092" lon="7.5647364"><ele>284.0</ele><time>2026-05-03T14:32:01.195Z</time></trkpt><trkpt lat="45.0386931" lon="7.5651603"><ele>284.0</ele><time>2026-05-03T14:32:02.195Z</time></trkpt><trkpt lat="45.0385741" lon="7.5655865"><ele>284.0</ele><time>2026-05-03T14:32:03.194Z</time></trkpt><trkpt lat="45.0384575" lon="7.566013"><ele>284.0</ele><time>2026-05-03T14:32:04.194Z</time></trkpt><trkpt lat="45.0383403" lon="7.5664383"><ele>282.0</ele><time>2026-05-03T14:32:05.194Z</time></trkpt><trkpt lat="45.0382214" lon="7.5668599"><ele>280.0</ele><time>2026-05-03T14:32:06.194Z</time></trkpt><trkpt lat="45.038104" lon="7.5672824"><ele>280.0</ele><time>2026-05-03T14:32:07.194Z</time></trkpt><trkpt lat="45.0379901" lon="7.5677071"><ele>280.0</ele><time>2026-05-03T14:32:08.194Z</time></trkpt><trkpt lat="45.0378759" lon="7.5681316"><ele>280.0</ele><time>2026-05-03T14:32:09.195Z</time></trkpt><trkpt lat="45.0377601" lon="7.5685523"><ele>280.0</ele><time>2026-05-03T14:32:10.196Z</time></trkpt><trkpt lat="45.0376445" lon="7.5689748"><ele>280.0</ele><time>2026-05-03T14:32:11.195Z</time></trkpt><trkpt lat="45.0375278" lon="7.5693973"><ele>280.0</ele><time>2026-05-03T14:32:12.195Z</time></trkpt><trkpt lat="45.0374138" lon="7.5698176"><ele>280.0</ele><time>2026-05-03T14:32:13.195Z</time></trkpt><trkpt lat="45.0373007" lon="7.5702328"><ele>280.0</ele><time>2026-05-03T14:32:14.195Z</time></trkpt><trkpt lat="45.0371873" lon="7.5706498"><ele>279.0</ele><time>2026-05-03T14:32:15.195Z</time></trkpt><trkpt lat="45.0370696" lon="7.5710697"><ele>278.0</ele><time>2026-05-03T14:32:16.195Z</time></trkpt><trkpt lat="45.0369538" lon="7.5714943"><ele>277.5</ele><time>2026-05-03T14:32:17.195Z</time></trkpt><trkpt lat="45.0368366" lon="7.57192"><ele>277.0</ele><time>2026-05-03T14:32:18.195Z</time></trkpt><trkpt lat="45.0367232" lon="7.5723405"><ele>277.0</ele><time>2026-05-03T14:32:19.195Z</time></trkpt><trkpt lat="45.0366058" lon="7.5727594"><ele>277.0</ele><time>2026-05-03T14:32:20.196Z</time></trkpt><trkpt lat="45.0364917" lon="7.5731784"><ele>276.0</ele><time>2026-05-03T14:32:21.195Z</time></trkpt><trkpt lat="45.0363793" lon="7.5735954"><ele>275.0</ele><time>2026-05-03T14:32:22.195Z</time></trkpt><trkpt lat="45.0362694" lon="7.5740082"><ele>275.0</ele><time>2026-05-03T14:32:23.195Z</time></trkpt><trkpt lat="45.0361602" lon="7.5744087"><ele>275.0</ele><time>2026-05-03T14:32:24.195Z</time></trkpt><trkpt lat="45.0360542" lon="7.5747996"><ele>275.0</ele><time>2026-05-03T14:32:25.195Z</time></trkpt><trkpt lat="45.0359515" lon="7.5751885"><ele>275.0</ele><time>2026-05-03T14:32:26.195Z</time></trkpt><trkpt lat="45.035847" lon="7.5755762"><ele>275.0</ele><time>2026-05-03T14:32:27.196Z</time></trkpt><trkpt lat="45.0357407" lon="7.5759754"><ele>275.0</ele><time>2026-05-03T14:32:28.195Z</time></trkpt><trkpt lat="45.0356299" lon="7.5763829"><ele>275.0</ele><time>2026-05-03T14:32:29.195Z</time></trkpt><trkpt lat="45.0355157" lon="7.5768023"><ele>275.0</ele><time>2026-05-03T14:32:30.196Z</time></trkpt><trkpt lat="45.0353969" lon="7.5772323"><ele>275.0</ele><time>2026-05-03T14:32:31.195Z</time></trkpt><trkpt lat="45.0352751" lon="7.5776639"><ele>275.0</ele><time>2026-05-03T14:32:32.195Z</time></trkpt><trkpt lat="45.035152" lon="7.5781029"><ele>273.0</ele><time>2026-05-03T14:32:33.195Z</time></trkpt><trkpt lat="45.0350285" lon="7.5785529"><ele>271.0</ele><time>2026-05-03T14:32:34.195Z</time></trkpt><trkpt lat="45.0349012" lon="7.5790083"><ele>270.5</ele><time>2026-05-03T14:32:35.195Z</time></trkpt><trkpt lat="45.0347754" lon="7.5794635"><ele>270.0</ele><time>2026-05-03T14:32:36.195Z</time></trkpt><trkpt lat="45.0346513" lon="7.5799172"><ele>268.5</ele><time>2026-05-03T14:32:37.195Z</time></trkpt><trkpt lat="45.0345287" lon="7.5803596"><ele>267.0</ele><time>2026-05-03T14:32:38.196Z</time></trkpt><trkpt lat="45.0344081" lon="7.5807931"><ele>266.5</ele><time>2026-05-03T14:32:39.196Z</time></trkpt><trkpt lat="45.0342907" lon="7.5812183"><ele>266.0</ele><time>2026-05-03T14:32:40.195Z</time></trkpt><trkpt lat="45.0341745" lon="7.5816414"><ele>267.0</ele><time>2026-05-03T14:32:41.195Z</time></trkpt><trkpt lat="45.0340586" lon="7.5820599"><ele>268.0</ele><time>2026-05-03T14:32:42.195Z</time></trkpt><trkpt lat="45.0339417" lon="7.5824781"><ele>266.0</ele><time>2026-05-03T14:32:43.196Z</time></trkpt><trkpt lat="45.0338256" lon="7.5828971"><ele>264.0</ele><time>2026-05-03T14:32:44.196Z</time></trkpt><trkpt lat="45.0337124" lon="7.583319"><ele>264.5</ele><time>2026-05-03T14:32:45.196Z</time></trkpt><trkpt lat="45.0336" lon="7.5837436"><ele>265.0</ele><time>2026-05-03T14:32:46.196Z</time></trkpt><trkpt lat="45.0334876" lon="7.5841725"><ele>265.5</ele><time>2026-05-03T14:32:47.196Z</time></trkpt><trkpt lat="45.0333729" lon="7.5846025"><ele>266.0</ele><time>2026-05-03T14:32:48.195Z</time></trkpt><trkpt lat="45.0332514" lon="7.5850372"><ele>266.5</ele><time>2026-05-03T14:32:49.195Z</time></trkpt><trkpt lat="45.0331274" lon="7.5854736"><ele>267.0</ele><time>2026-05-03T14:32:50.196Z</time></trkpt><trkpt lat="45.0330015" lon="7.5859086"><ele>266.5</ele><time>2026-05-03T14:32:51.196Z</time></trkpt><trkpt lat="45.0328671" lon="7.5863343"><ele>266.0</ele><time>2026-05-03T14:32:52.195Z</time></trkpt><trkpt lat="45.032714" lon="7.5867507"><ele>266.0</ele><time>2026-05-03T14:32:53.195Z</time></trkpt><trkpt lat="45.032551" lon="7.5871683"><ele>266.0</ele><time>2026-05-03T14:32:54.196Z</time></trkpt><trkpt lat="45.0323765" lon="7.5875736"><ele>266.0</ele><time>2026-05-03T14:32:55.195Z</time></trkpt><trkpt lat="45.0321922" lon="7.587967"><ele>266.0</ele><time>2026-05-03T14:32:56.195Z</time></trkpt><trkpt lat="45.0319942" lon="7.5883642"><ele>266.0</ele><time>2026-05-03T14:32:57.195Z</time></trkpt><trkpt lat="45.0317759" lon="7.5887435"><ele>266.0</ele><time>2026-05-03T14:32:58.195Z</time></trkpt><trkpt lat="45.0315485" lon="7.5891269"><ele>266.0</ele><time>2026-05-03T14:32:59.195Z</time></trkpt><trkpt lat="45.0313098" lon="7.5894982"><ele>266.0</ele><time>2026-05-03T14:33:00.195Z</time></trkpt><trkpt lat="45.0310605" lon="7.589867"><ele>265.5</ele><time>2026-05-03T14:33:01.195Z</time></trkpt><trkpt lat="45.0308045" lon="7.5902136"><ele>265.0</ele><time>2026-05-03T14:33:02.195Z</time></trkpt><trkpt lat="45.0305331" lon="7.590546"><ele>265.5</ele><time>2026-05-03T14:33:03.195Z</time></trkpt><trkpt lat="45.0302562" lon="7.5908642"><ele>266.0</ele><time>2026-05-03T14:33:04.196Z</time></trkpt><trkpt lat="45.0299746" lon="7.5911473"><ele>266.0</ele><time>2026-05-03T14:33:05.195Z</time></trkpt><trkpt lat="45.0296765" lon="7.5914242"><ele>266.0</ele><time>2026-05-03T14:33:06.196Z</time></trkpt><trkpt lat="45.0293745" lon="7.5916971"><ele>266.0</ele><time>2026-05-03T14:33:07.195Z</time></trkpt><trkpt lat="45.0290758" lon="7.5919502"><ele>266.0</ele><time>2026-05-03T14:33:08.195Z</time></trkpt><trkpt lat="45.0287875" lon="7.5922003"><ele>266.0</ele><time>2026-05-03T14:33:09.196Z</time></trkpt><trkpt lat="45.0285088" lon="7.5924429"><ele>266.0</ele><time>2026-05-03T14:33:10.196Z</time></trkpt><trkpt lat="45.0282262" lon="7.5926885"><ele>266.5</ele><time>2026-05-03T14:33:11.196Z</time></trkpt><trkpt lat="45.027939" lon="7.592944"><ele>267.0</ele><time>2026-05-03T14:33:12.196Z</time></trkpt><trkpt lat="45.0276454" lon="7.5931955"><ele>266.5</ele><time>2026-05-03T14:33:13.195Z</time></trkpt><trkpt lat="45.0273548" lon="7.5934496"><ele>266.0</ele><time>2026-05-03T14:33:14.196Z</time></trkpt><trkpt lat="45.0270702" lon="7.5936885"><ele>266.0</ele><time>2026-05-03T14:33:15.196Z</time></trkpt><trkpt lat="45.026797" lon="7.5939262"><ele>266.0</ele><time>2026-05-03T14:33:16.196Z</time></trkpt><trkpt lat="45.0265187" lon="7.5941653"><ele>265.5</ele><time>2026-05-03T14:33:17.196Z</time></trkpt><trkpt lat="45.0262355" lon="7.5944113"><ele>265.0</ele><time>2026-05-03T14:33:18.195Z</time></trkpt><trkpt lat="45.0259513" lon="7.5946532"><ele>265.0</ele><time>2026-05-03T14:33:19.196Z</time></trkpt><trkpt lat="45.025667" lon="7.5948938"><ele>265.0</ele><time>2026-05-03T14:33:20.195Z</time></trkpt><trkpt lat="45.025382" lon="7.5951403"><ele>265.5</ele><time>2026-05-03T14:33:21.195Z</time></trkpt><trkpt lat="45.0250932" lon="7.5953894"><ele>266.0</ele><time>2026-05-03T14:33:22.195Z</time></trkpt><trkpt lat="45.0248029" lon="7.5956343"><ele>265.0</ele><time>2026-05-03T14:33:23.196Z</time></trkpt><trkpt lat="45.0245182" lon="7.5958828"><ele>264.0</ele><time>2026-05-03T14:33:24.196Z</time></trkpt><trkpt lat="45.02423" lon="7.5961277"><ele>262.5</ele><time>2026-05-03T14:33:25.196Z</time></trkpt><trkpt lat="45.0239453" lon="7.5963717"><ele>261.0</ele><time>2026-05-03T14:33:26.195Z</time></trkpt><trkpt lat="45.02366" lon="7.5966153"><ele>261.0</ele><time>2026-05-03T14:33:27.195Z</time></trkpt><trkpt lat="45.0233718" lon="7.5968582"><ele>261.0</ele><time>2026-05-03T14:33:28.195Z</time></trkpt><trkpt lat="45.0230835" lon="7.597099"><ele>259.5</ele><time>2026-05-03T14:33:29.196Z</time></trkpt><trkpt lat="45.0227926" lon="7.5973431"><ele>258.0</ele><time>2026-05-03T14:33:30.196Z</time></trkpt><trkpt lat="45.0225021" lon="7.5975846"><ele>258.0</ele><time>2026-05-03T14:33:31.195Z</time></trkpt><trkpt lat="45.0222113" lon="7.5978291"><ele>258.0</ele><time>2026-05-03T14:33:32.195Z</time></trkpt><trkpt lat="45.0219179" lon="7.5980835"><ele>257.5</ele><time>2026-05-03T14:33:33.196Z</time></trkpt><trkpt lat="45.021629" lon="7.5983359"><ele>257.0</ele><time>2026-05-03T14:33:34.196Z</time></trkpt><trkpt lat="45.0213394" lon="7.5985805"><ele>256.5</ele><time>2026-05-03T14:33:35.196Z</time></trkpt><trkpt lat="45.0210518" lon="7.5988195"><ele>256.0</ele><time>2026-05-03T14:33:36.195Z</time></trkpt><trkpt lat="45.0207637" lon="7.5990507"><ele>255.5</ele><time>2026-05-03T14:33:37.195Z</time></trkpt><trkpt lat="45.0204734" lon="7.5992829"><ele>255.0</ele><time>2026-05-03T14:33:38.196Z</time></trkpt><trkpt lat="45.0201863" lon="7.5995104"><ele>255.0</ele><time>2026-05-03T14:33:39.195Z</time></trkpt><trkpt lat="45.0198936" lon="7.5997243"><ele>255.0</ele><time>2026-05-03T14:33:40.196Z</time></trkpt><trkpt lat="45.0196124" lon="7.5999196"><ele>255.0</ele><time>2026-05-03T14:33:41.195Z</time></trkpt><trkpt lat="45.019333" lon="7.6001088"><ele>255.0</ele><time>2026-05-03T14:33:42.195Z</time></trkpt><trkpt lat="45.0190525" lon="7.6002897"><ele>254.5</ele><time>2026-05-03T14:33:43.195Z</time></trkpt><trkpt lat="45.0187662" lon="7.6004694"><ele>254.0</ele><time>2026-05-03T14:33:44.195Z</time></trkpt><trkpt lat="45.018479" lon="7.6006439"><ele>254.0</ele><time>2026-05-03T14:33:45.195Z</time></trkpt><trkpt lat="45.0181919" lon="7.6008108"><ele>254.0</ele><time>2026-05-03T14:33:46.195Z</time></trkpt><trkpt lat="45.0179035" lon="7.6009651"><ele>254.0</ele><time>2026-05-03T14:33:47.195Z</time></trkpt><trkpt lat="45.0176111" lon="7.6011173"><ele>254.0</ele><time>2026-05-03T14:33:48.195Z</time></trkpt><trkpt lat="45.0173127" lon="7.6012674"><ele>252.5</ele><time>2026-05-03T14:33:49.195Z</time></trkpt><trkpt lat="45.0170074" lon="7.601412"><ele>251.0</ele><time>2026-05-03T14:33:50.195Z</time></trkpt><trkpt lat="45.0166986" lon="7.6015551"><ele>251.0</ele><time>2026-05-03T14:33:51.195Z</time></trkpt><trkpt lat="45.0163924" lon="7.6016932"><ele>251.0</ele><time>2026-05-03T14:33:52.195Z</time></trkpt><trkpt lat="45.016083" lon="7.6018309"><ele>250.0</ele><time>2026-05-03T14:33:53.195Z</time></trkpt><trkpt lat="45.0157747" lon="7.6019709"><ele>249.0</ele><time>2026-05-03T14:33:54.195Z</time></trkpt><trkpt lat="45.0154612" lon="7.6021113"><ele>249.0</ele><time>2026-05-03T14:33:55.195Z</time></trkpt><trkpt lat="45.0151495" lon="7.6022549"><ele>249.0</ele><time>2026-05-03T14:33:56.195Z</time></trkpt><trkpt lat="45.0148411" lon="7.6024059"><ele>247.5</ele><time>2026-05-03T14:33:57.195Z</time></trkpt><trkpt lat="45.0145339" lon="7.6025707"><ele>246.0</ele><time>2026-05-03T14:33:58.196Z</time></trkpt><trkpt lat="45.0142393" lon="7.6027595"><ele>245.5</ele><time>2026-05-03T14:33:59.195Z</time></trkpt><trkpt lat="45.0139473" lon="7.6029653"><ele>245.0</ele><time>2026-05-03T14:34:00.196Z</time></trkpt><trkpt lat="45.0136602" lon="7.6031858"><ele>245.0</ele><time>2026-05-03T14:34:01.195Z</time></trkpt><trkpt lat="45.0133838" lon="7.6034259"><ele>245.0</ele><time>2026-05-03T14:34:02.196Z</time></trkpt><trkpt lat="45.0131106" lon="7.6036834"><ele>242.5</ele><time>2026-05-03T14:34:03.195Z</time></trkpt><trkpt lat="45.0128503" lon="7.6039526"><ele>240.0</ele><time>2026-05-03T14:34:04.195Z</time></trkpt><trkpt lat="45.0125974" lon="7.6042363"><ele>240.5</ele><time>2026-05-03T14:34:05.196Z</time></trkpt><trkpt lat="45.0123566" lon="7.6045412"><ele>241.0</ele><time>2026-05-03T14:34:06.195Z</time></trkpt><trkpt lat="45.0121202" lon="7.6048549"><ele>241.0</ele><time>2026-05-03T14:34:07.195Z</time></trkpt><trkpt lat="45.0118877" lon="7.6051827"><ele>241.0</ele><time>2026-05-03T14:34:08.195Z</time></trkpt><trkpt lat="45.0116712" lon="7.6055286"><ele>240.5</ele><time>2026-05-03T14:34:09.195Z</time></trkpt><trkpt lat="45.0114625" lon="7.6058892"><ele>240.0</ele><time>2026-05-03T14:34:10.196Z</time></trkpt><trkpt lat="45.0112687" lon="7.6062592"><ele>240.0</ele><time>2026-05-03T14:34:11.195Z</time></trkpt><trkpt lat="45.0110865" lon="7.6066395"><ele>240.0</ele><time>2026-05-03T14:34:12.195Z</time></trkpt><trkpt lat="45.0109116" lon="7.6070308"><ele>240.0</ele><time>2026-05-03T14:34:13.195Z</time></trkpt><trkpt lat="45.0107543" lon="7.6074322"><ele>240.0</ele><time>2026-05-03T14:34:14.195Z</time></trkpt><trkpt lat="45.0106151" lon="7.6078487"><ele>239.5</ele><time>2026-05-03T14:34:15.195Z</time></trkpt><trkpt lat="45.0104784" lon="7.608253"><ele>239.0</ele><time>2026-05-03T14:34:16.195Z</time></trkpt><trkpt lat="45.0103615" lon="7.6086561"><ele>238.0</ele><time>2026-05-03T14:34:17.196Z</time></trkpt><trkpt lat="45.010253" lon="7.6090649"><ele>237.0</ele><time>2026-05-03T14:34:18.195Z</time></trkpt><trkpt lat="45.010159" lon="7.6094643"><ele>236.5</ele><time>2026-05-03T14:34:19.195Z</time></trkpt><trkpt lat="45.0100823" lon="7.6098661"><ele>236.0</ele><time>2026-05-03T14:34:20.196Z</time></trkpt><trkpt lat="45.0100113" lon="7.6102732"><ele>238.5</ele><time>2026-05-03T14:34:21.195Z</time></trkpt><trkpt lat="45.0099502" lon="7.6106809"><ele>241.0</ele><time>2026-05-03T14:34:22.196Z</time></trkpt><trkpt lat="45.0099004" lon="7.6111007"><ele>241.0</ele><time>2026-05-03T14:34:23.195Z</time></trkpt><trkpt lat="45.0098651" lon="7.6115189"><ele>241.0</ele><time>2026-05-03T14:34:24.196Z</time></trkpt><trkpt lat="45.0098254" lon="7.6119259"><ele>240.5</ele><time>2026-05-03T14:34:25.195Z</time></trkpt><trkpt lat="45.0097844" lon="7.6123313"><ele>240.0</ele><time>2026-05-03T14:34:26.195Z</time></trkpt><trkpt lat="45.0097399" lon="7.6127307"><ele>239.5</ele><time>2026-05-03T14:34:27.196Z</time></trkpt><trkpt lat="45.0096974" lon="7.6131309"><ele>239.0</ele><time>2026-05-03T14:34:28.195Z</time></trkpt><trkpt lat="45.0096521" lon="7.6135142"><ele>239.0</ele><time>2026-05-03T14:34:29.195Z</time></trkpt><trkpt lat="45.0096129" lon="7.6139026"><ele>239.0</ele><time>2026-05-03T14:34:30.196Z</time></trkpt><trkpt lat="45.0095716" lon="7.6142852"><ele>238.0</ele><time>2026-05-03T14:34:31.195Z</time></trkpt><trkpt lat="45.0095268" lon="7.6146552"><ele>237.0</ele><time>2026-05-03T14:34:32.196Z</time></trkpt><trkpt lat="45.0094821" lon="7.6150268"><ele>237.0</ele><time>2026-05-03T14:34:33.195Z</time></trkpt><trkpt lat="45.0094349" lon="7.6154061"><ele>237.0</ele><time>2026-05-03T14:34:34.2Z</time></trkpt><trkpt lat="45.0093729" lon="7.6157854"><ele>237.0</ele><time>2026-05-03T14:34:35.201Z</time></trkpt><trkpt lat="45.0092893" lon="7.6161754"><ele>237.0</ele><time>2026-05-03T14:34:36.2Z</time></trkpt><trkpt lat="45.0091896" lon="7.6165593"><ele>236.0</ele><time>2026-05-03T14:34:37.2Z</time></trkpt><trkpt lat="45.0090732" lon="7.6169398"><ele>235.0</ele><time>2026-05-03T14:34:38.2Z</time></trkpt><trkpt lat="45.0089399" lon="7.6173135"><ele>234.5</ele><time>2026-05-03T14:34:39.2Z</time></trkpt><trkpt lat="45.0087865" lon="7.6176839"><ele>234.0</ele><time>2026-05-03T14:34:40.2Z</time></trkpt><trkpt lat="45.0086236" lon="7.6180323"><ele>233.5</ele><time>2026-05-03T14:34:41.2Z</time></trkpt><trkpt lat="45.0084468" lon="7.6183736"><ele>233.0</ele><time>2026-05-03T14:34:42.2Z</time></trkpt><trkpt lat="45.0082565" lon="7.6186938"><ele>236.0</ele><time>2026-05-03T14:34:43.201Z</time></trkpt><trkpt lat="45.0080545" lon="7.6190015"><ele>239.0</ele><time>2026-05-03T14:34:44.201Z</time></trkpt><trkpt lat="45.0078404" lon="7.6192977"><ele>238.0</ele><time>2026-05-03T14:34:45.2Z</time></trkpt><trkpt lat="45.0076085" lon="7.6195902"><ele>237.0</ele><time>2026-05-03T14:34:46.2Z</time></trkpt><trkpt lat="45.0073616" lon="7.6198548"><ele>236.5</ele><time>2026-05-03T14:34:47.2Z</time></trkpt><trkpt lat="45.0070988" lon="7.6201016"><ele>236.0</ele><time>2026-05-03T14:34:48.201Z</time></trkpt><trkpt lat="45.0068353" lon="7.6203359"><ele>235.5</ele><time>2026-05-03T14:34:49.2Z</time></trkpt><trkpt lat="45.0065573" lon="7.6205451"><ele>235.0</ele><time>2026-05-03T14:34:50.2Z</time></trkpt><trkpt lat="45.0062736" lon="7.6207316"><ele>235.0</ele><time>2026-05-03T14:34:51.2Z</time></trkpt><trkpt lat="45.0059743" lon="7.6208961"><ele>235.0</ele><time>2026-05-03T14:34:52.2Z</time></trkpt><trkpt lat="45.005673" lon="7.6210438"><ele>237.0</ele><time>2026-05-03T14:34:53.2Z</time></trkpt><trkpt lat="45.0053713" lon="7.6211715"><ele>239.0</ele><time>2026-05-03T14:34:54.2Z</time></trkpt><trkpt lat="45.0050742" lon="7.6213005"><ele>238.0</ele><time>2026-05-03T14:34:55.201Z</time></trkpt><trkpt lat="45.0047777" lon="7.6214388"><ele>237.0</ele><time>2026-05-03T14:34:56.2Z</time></trkpt><trkpt lat="45.0044778" lon="7.6215803"><ele>237.0</ele><time>2026-05-03T14:34:57.201Z</time></trkpt><trkpt lat="45.0041772" lon="7.6217204"><ele>237.0</ele><time>2026-05-03T14:34:58.201Z</time></trkpt><trkpt lat="45.0038801" lon="7.6218618"><ele>237.0</ele><time>2026-05-03T14:34:59.2Z</time></trkpt><trkpt lat="45.0035903" lon="7.621999"><ele>237.0</ele><time>2026-05-03T14:35:00.2Z</time></trkpt><trkpt lat="45.0033049" lon="7.622135"><ele>237.0</ele><time>2026-05-03T14:35:01.2Z</time></trkpt><trkpt lat="45.0030154" lon="7.6222703"><ele>237.0</ele><time>2026-05-03T14:35:02.201Z</time></trkpt><trkpt lat="45.0027246" lon="7.6224084"><ele>237.0</ele><time>2026-05-03T14:35:03.2Z</time></trkpt><trkpt lat="45.0024359" lon="7.6225475"><ele>237.0</ele><time>2026-05-03T14:35:04.2Z</time></trkpt><trkpt lat="45.0021457" lon="7.6226842"><ele>236.5</ele><time>2026-05-03T14:35:05.2Z</time></trkpt><trkpt lat="45.0018513" lon="7.6228214"><ele>236.0</ele><time>2026-05-03T14:35:06.2Z</time></trkpt><trkpt lat="45.0015596" lon="7.6229567"><ele>236.0</ele><time>2026-05-03T14:35:07.2Z</time></trkpt><trkpt lat="45.001268" lon="7.6230884"><ele>236.0</ele><time>2026-05-03T14:35:08.2Z</time></trkpt><trkpt lat="45.0009777" lon="7.6232243"><ele>236.0</ele><time>2026-05-03T14:35:09.201Z</time></trkpt><trkpt lat="45.0006847" lon="7.6233625"><ele>236.0</ele><time>2026-05-03T14:35:10.201Z</time></trkpt><trkpt lat="45.0003901" lon="7.6235051"><ele>236.0</ele><time>2026-05-03T14:35:11.2Z</time></trkpt><trkpt lat="45.000094" lon="7.62364"><ele>236.0</ele><time>2026-05-03T14:35:12.2Z</time></trkpt><trkpt lat="44.9998022" lon="7.6237752"><ele>236.5</ele><time>2026-05-03T14:35:13.201Z</time></trkpt><trkpt lat="44.9995113" lon="7.6239104"><ele>237.0</ele><time>2026-05-03T14:35:14.2Z</time></trkpt><trkpt lat="44.9992211" lon="7.6240451"><ele>235.5</ele><time>2026-05-03T14:35:15.2Z</time></trkpt><trkpt lat="44.9989314" lon="7.6241823"><ele>234.0</ele><time>2026-05-03T14:35:16.201Z</time></trkpt><trkpt lat="44.9986399" lon="7.6243189"><ele>234.0</ele><time>2026-05-03T14:35:17.2Z</time></trkpt><trkpt lat="44.9983514" lon="7.6244552"><ele>234.0</ele><time>2026-05-03T14:35:18.2Z</time></trkpt><trkpt lat="44.9980631" lon="7.6245945"><ele>234.5</ele><time>2026-05-03T14:35:19.2Z</time></trkpt><trkpt lat="44.997774" lon="7.6247433"><ele>235.0</ele><time>2026-05-03T14:35:20.2Z</time></trkpt><trkpt lat="44.997484" lon="7.6249006"><ele>235.0</ele><time>2026-05-03T14:35:21.201Z</time></trkpt><trkpt lat="44.9971928" lon="7.6250696"><ele>235.0</ele><time>2026-05-03T14:35:22.201Z</time></trkpt><trkpt lat="44.9969046" lon="7.6252456"><ele>234.0</ele><time>2026-05-03T14:35:23.2Z</time></trkpt><trkpt lat="44.9966181" lon="7.6254214"><ele>233.0</ele><time>2026-05-03T14:35:24.2Z</time></trkpt><trkpt lat="44.9963327" lon="7.6256108"><ele>233.0</ele><time>2026-05-03T14:35:25.2Z</time></trkpt><trkpt lat="44.9960498" lon="7.6258079"><ele>233.0</ele><time>2026-05-03T14:35:26.201Z</time></trkpt><trkpt lat="44.9957718" lon="7.6260122"><ele>233.0</ele><time>2026-05-03T14:35:27.2Z</time></trkpt><trkpt lat="44.9954945" lon="7.6262216"><ele>233.0</ele><time>2026-05-03T14:35:28.201Z</time></trkpt><trkpt lat="44.9952177" lon="7.6264369"><ele>231.5</ele><time>2026-05-03T14:35:29.201Z</time></trkpt><trkpt lat="44.9949432" lon="7.6266622"><ele>230.0</ele><time>2026-05-03T14:35:30.2Z</time></trkpt><trkpt lat="44.9946701" lon="7.626893"><ele>231.0</ele><time>2026-05-03T14:35:31.2Z</time></trkpt><trkpt lat="44.9943951" lon="7.6271364"><ele>232.0</ele><time>2026-05-03T14:35:32.2Z</time></trkpt><trkpt lat="44.9941204" lon="7.627387"><ele>232.0</ele><time>2026-05-03T14:35:33.2Z</time></trkpt><trkpt lat="44.9938471" lon="7.6276426"><ele>232.0</ele><time>2026-05-03T14:35:34.2Z</time></trkpt><trkpt lat="44.9935745" lon="7.6279113"><ele>234.0</ele><time>2026-05-03T14:35:35.2Z</time></trkpt><trkpt lat="44.9933048" lon="7.6281902"><ele>236.0</ele><time>2026-05-03T14:35:36.201Z</time></trkpt><trkpt lat="44.9930411" lon="7.6284779"><ele>235.5</ele><time>2026-05-03T14:35:37.201Z</time></trkpt><trkpt lat="44.9927802" lon="7.6287767"><ele>235.0</ele><time>2026-05-03T14:35:38.2Z</time></trkpt><trkpt lat="44.9925229" lon="7.629077"><ele>235.0</ele><time>2026-05-03T14:35:39.2Z</time></trkpt><trkpt lat="44.9922699" lon="7.6293838"><ele>235.0</ele><time>2026-05-03T14:35:40.2Z</time></trkpt><trkpt lat="44.992019" lon="7.6296993"><ele>235.0</ele><time>2026-05-03T14:35:41.2Z</time></trkpt><trkpt lat="44.9917738" lon="7.6300185"><ele>235.0</ele><time>2026-05-03T14:35:42.201Z</time></trkpt><trkpt lat="44.9915339" lon="7.6303406"><ele>234.0</ele><time>2026-05-03T14:35:43.201Z</time></trkpt><trkpt lat="44.9912992" lon="7.6306648"><ele>233.0</ele><time>2026-05-03T14:35:44.2Z</time></trkpt><trkpt lat="44.9910718" lon="7.6309934"><ele>234.0</ele><time>2026-05-03T14:35:45.201Z</time></trkpt><trkpt lat="44.9908533" lon="7.6313249"><ele>235.0</ele><time>2026-05-03T14:35:46.2Z</time></trkpt><trkpt lat="44.9906379" lon="7.6316531"><ele>235.0</ele><time>2026-05-03T14:35:47.2Z</time></trkpt><trkpt lat="44.9904192" lon="7.6319843"><ele>235.0</ele><time>2026-05-03T14:35:48.2Z</time></trkpt><trkpt lat="44.9901931" lon="7.6323131"><ele>235.0</ele><time>2026-05-03T14:35:49.2Z</time></trkpt><trkpt lat="44.9899655" lon="7.6326479"><ele>235.0</ele><time>2026-05-03T14:35:50.2Z</time></trkpt><trkpt lat="44.9897367" lon="7.6329916"><ele>235.0</ele><time>2026-05-03T14:35:51.201Z</time></trkpt><trkpt lat="44.9895044" lon="7.6333324"><ele>235.0</ele><time>2026-05-03T14:35:52.2Z</time></trkpt><trkpt lat="44.9892725" lon="7.6336753"><ele>236.0</ele><time>2026-05-03T14:35:53.2Z</time></trkpt><trkpt lat="44.9890451" lon="7.634019"><ele>237.0</ele><time>2026-05-03T14:35:54.2Z</time></trkpt><trkpt lat="44.9888189" lon="7.6343609"><ele>235.5</ele><time>2026-05-03T14:35:55.2Z</time></trkpt><trkpt lat="44.9885908" lon="7.6347039"><ele>234.0</ele><time>2026-05-03T14:35:56.2Z</time></trkpt><trkpt lat="44.988359" lon="7.6350455"><ele>234.0</ele><time>2026-05-03T14:35:57.2Z</time></trkpt><trkpt lat="44.988131" lon="7.6353865"><ele>234.0</ele><time>2026-05-03T14:35:58.201Z</time></trkpt><trkpt lat="44.9879059" lon="7.635734"><ele>234.0</ele><time>2026-05-03T14:35:59.201Z</time></trkpt><trkpt lat="44.9876766" lon="7.6360819"><ele>234.0</ele><time>2026-05-03T14:36:00.201Z</time></trkpt><trkpt lat="44.9874439" lon="7.636431"><ele>234.5</ele><time>2026-05-03T14:36:01.2Z</time></trkpt><trkpt lat="44.9872143" lon="7.6367834"><ele>235.0</ele><time>2026-05-03T14:36:02.2Z</time></trkpt><trkpt lat="44.986986" lon="7.6371312"><ele>234.5</ele><time>2026-05-03T14:36:03.2Z</time></trkpt><trkpt lat="44.9867605" lon="7.6374654"><ele>234.0</ele><time>2026-05-03T14:36:04.2Z</time></trkpt><trkpt lat="44.9865294" lon="7.6378106"><ele>234.0</ele><time>2026-05-03T14:36:05.2Z</time></trkpt><trkpt lat="44.9863077" lon="7.6381475"><ele>234.0</ele><time>2026-05-03T14:36:06.201Z</time></trkpt><trkpt lat="44.9860875" lon="7.6384895"><ele>233.0</ele><time>2026-05-03T14:36:07.201Z</time></trkpt><trkpt lat="44.9858624" lon="7.638824"><ele>232.0</ele><time>2026-05-03T14:36:08.2Z</time></trkpt><trkpt lat="44.9856405" lon="7.6391594"><ele>231.0</ele><time>2026-05-03T14:36:09.201Z</time></trkpt><trkpt lat="44.9854216" lon="7.6394826"><ele>230.0</ele><time>2026-05-03T14:36:10.201Z</time></trkpt><trkpt lat="44.9852177" lon="7.6397917"><ele>230.0</ele><time>2026-05-03T14:36:11.201Z</time></trkpt><trkpt lat="44.9850182" lon="7.6400935"><ele>230.0</ele><time>2026-05-03T14:36:12.2Z</time></trkpt><trkpt lat="44.9848257" lon="7.6403909"><ele>231.0</ele><time>2026-05-03T14:36:13.2Z</time></trkpt><trkpt lat="44.9846338" lon="7.6406869"><ele>232.0</ele><time>2026-05-03T14:36:14.2Z</time></trkpt><trkpt lat="44.9844435" lon="7.6409867"><ele>231.0</ele><time>2026-05-03T14:36:15.2Z</time></trkpt><trkpt lat="44.9842459" lon="7.6413027"><ele>230.0</ele><time>2026-05-03T14:36:16.2Z</time></trkpt><trkpt lat="44.9840387" lon="7.6416226"><ele>229.5</ele><time>2026-05-03T14:36:17.2Z</time></trkpt><trkpt lat="44.9838314" lon="7.6419496"><ele>229.0</ele><time>2026-05-03T14:36:18.2Z</time></trkpt><trkpt lat="44.9836182" lon="7.64229"><ele>229.5</ele><time>2026-05-03T14:36:19.2Z</time></trkpt><trkpt lat="44.9834047" lon="7.6426284"><ele>230.0</ele><time>2026-05-03T14:36:20.201Z</time></trkpt><trkpt lat="44.983191" lon="7.6429708"><ele>230.0</ele><time>2026-05-03T14:36:21.2Z</time></trkpt><trkpt lat="44.9829789" lon="7.6433143"><ele>230.0</ele><time>2026-05-03T14:36:22.2Z</time></trkpt><trkpt lat="44.9827668" lon="7.6436513"><ele>230.0</ele><time>2026-05-03T14:36:23.2Z</time></trkpt><trkpt lat="44.9825601" lon="7.6439851"><ele>230.0</ele><time>2026-05-03T14:36:24.2Z</time></trkpt><trkpt lat="44.9823567" lon="7.644314"><ele>228.5</ele><time>2026-05-03T14:36:25.2Z</time></trkpt><trkpt lat="44.9821533" lon="7.6446456"><ele>227.0</ele><time>2026-05-03T14:36:26.201Z</time></trkpt><trkpt lat="44.9819482" lon="7.6449838"><ele>226.5</ele><time>2026-05-03T14:36:27.2Z</time></trkpt><trkpt lat="44.9817435" lon="7.6453225"><ele>226.0</ele><time>2026-05-03T14:36:28.2Z</time></trkpt><trkpt lat="44.9815348" lon="7.6456617"><ele>227.0</ele><time>2026-05-03T14:36:29.2Z</time></trkpt><trkpt lat="44.9813294" lon="7.6459896"><ele>228.0</ele><time>2026-05-03T14:36:30.201Z</time></trkpt><trkpt lat="44.9811203" lon="7.6463252"><ele>228.0</ele><time>2026-05-03T14:36:31.201Z</time></trkpt><trkpt lat="44.9809111" lon="7.6466663"><ele>228.0</ele><time>2026-05-03T14:36:32.2Z</time></trkpt><trkpt lat="44.9807041" lon="7.6470048"><ele>228.0</ele><time>2026-05-03T14:36:33.201Z</time></trkpt><trkpt lat="44.9804974" lon="7.6473607"><ele>228.0</ele><time>2026-05-03T14:36:34.2Z</time></trkpt><trkpt lat="44.9802818" lon="7.6477025"><ele>228.0</ele><time>2026-05-03T14:36:35.2Z</time></trkpt><trkpt lat="44.9800707" lon="7.6480432"><ele>228.0</ele><time>2026-05-03T14:36:36.2Z</time></trkpt><trkpt lat="44.9798631" lon="7.648388"><ele>227.5</ele><time>2026-05-03T14:36:37.201Z</time></trkpt><trkpt lat="44.9796519" lon="7.6487367"><ele>227.0</ele><time>2026-05-03T14:36:38.2Z</time></trkpt><trkpt lat="44.9794426" lon="7.6490849"><ele>227.0</ele><time>2026-05-03T14:36:39.2Z</time></trkpt><trkpt lat="44.9792308" lon="7.649434"><ele>227.0</ele><time>2026-05-03T14:36:40.2Z</time></trkpt><trkpt lat="44.9790209" lon="7.6497735"><ele>226.5</ele><time>2026-05-03T14:36:41.2Z</time></trkpt><trkpt lat="44.9788172" lon="7.6501163"><ele>226.0</ele><time>2026-05-03T14:36:42.201Z</time></trkpt><trkpt lat="44.9786147" lon="7.6504587"><ele>226.0</ele><time>2026-05-03T14:36:43.2Z</time></trkpt><trkpt lat="44.9784089" lon="7.6508085"><ele>226.0</ele><time>2026-05-03T14:36:44.2Z</time></trkpt><trkpt lat="44.978212" lon="7.6511761"><ele>226.0</ele><time>2026-05-03T14:36:45.2Z</time></trkpt><trkpt lat="44.9780103" lon="7.6515471"><ele>226.0</ele><time>2026-05-03T14:36:46.2Z</time></trkpt><trkpt lat="44.9778123" lon="7.6519204"><ele>225.5</ele><time>2026-05-03T14:36:47.201Z</time></trkpt><trkpt lat="44.9776195" lon="7.6522844"><ele>225.0</ele><time>2026-05-03T14:36:48.2Z</time></trkpt><trkpt lat="44.9774322" lon="7.6526498"><ele>226.0</ele><time>2026-05-03T14:36:49.2Z</time></trkpt><trkpt lat="44.9772501" lon="7.653018"><ele>227.0</ele><time>2026-05-03T14:36:50.2Z</time></trkpt><trkpt lat="44.9770705" lon="7.653389"><ele>226.0</ele><time>2026-05-03T14:36:51.2Z</time></trkpt><trkpt lat="44.9768934" lon="7.6537582"><ele>225.0</ele><time>2026-05-03T14:36:52.2Z</time></trkpt><trkpt lat="44.9767174" lon="7.6541327"><ele>225.0</ele><time>2026-05-03T14:36:53.2Z</time></trkpt><trkpt lat="44.9765419" lon="7.6545116"><ele>225.0</ele><time>2026-05-03T14:36:54.201Z</time></trkpt><trkpt lat="44.9763669" lon="7.6548857"><ele>225.0</ele><time>2026-05-03T14:36:55.2Z</time></trkpt><trkpt lat="44.9761962" lon="7.6552613"><ele>225.0</ele><time>2026-05-03T14:36:56.201Z</time></trkpt><trkpt lat="44.9760267" lon="7.6556371"><ele>225.0</ele><time>2026-05-03T14:36:57.201Z</time></trkpt><trkpt lat="44.9758733" lon="7.6560047"><ele>225.0</ele><time>2026-05-03T14:36:58.201Z</time></trkpt><trkpt lat="44.9757217" lon="7.6563725"><ele>226.0</ele><time>2026-05-03T14:36:59.2Z</time></trkpt><trkpt lat="44.975572" lon="7.6567433"><ele>227.0</ele><time>2026-05-03T14:37:00.201Z</time></trkpt><trkpt lat="44.9754231" lon="7.6571178"><ele>226.5</ele><time>2026-05-03T14:37:01.201Z</time></trkpt><trkpt lat="44.9752749" lon="7.6574989"><ele>226.0</ele><time>2026-05-03T14:37:02.201Z</time></trkpt><trkpt lat="44.9751292" lon="7.6578797"><ele>226.0</ele><time>2026-05-03T14:37:03.2Z</time></trkpt><trkpt lat="44.9749894" lon="7.6582629"><ele>226.0</ele><time>2026-05-03T14:37:04.2Z</time></trkpt><trkpt lat="44.9748541" lon="7.6586429"><ele>226.0</ele><time>2026-05-03T14:37:05.201Z</time></trkpt><trkpt lat="44.974716" lon="7.6590367"><ele>226.0</ele><time>2026-05-03T14:37:06.2Z</time></trkpt><trkpt lat="44.9745828" lon="7.6594342"><ele>227.5</ele><time>2026-05-03T14:37:07.2Z</time></trkpt><trkpt lat="44.9744481" lon="7.6598332"><ele>229.0</ele><time>2026-05-03T14:37:08.201Z</time></trkpt><trkpt lat="44.9743186" lon="7.6602345"><ele>226.5</ele><time>2026-05-03T14:37:09.2Z</time></trkpt><trkpt lat="44.974192" lon="7.6606312"><ele>224.0</ele><time>2026-05-03T14:37:10.2Z</time></trkpt><trkpt lat="44.9740714" lon="7.6610268"><ele>223.5</ele><time>2026-05-03T14:37:11.201Z</time></trkpt><trkpt lat="44.9739522" lon="7.6614235"><ele>223.0</ele><time>2026-05-03T14:37:12.201Z</time></trkpt><trkpt lat="44.9738355" lon="7.6618213"><ele>222.0</ele><time>2026-05-03T14:37:13.2Z</time></trkpt><trkpt lat="44.9737219" lon="7.6622198"><ele>221.0</ele><time>2026-05-03T14:37:14.2Z</time></trkpt><trkpt lat="44.9736114" lon="7.6626281"><ele>222.0</ele><time>2026-05-03T14:37:15.2Z</time></trkpt><trkpt lat="44.9735038" lon="7.6630381"><ele>223.0</ele><time>2026-05-03T14:37:16.2Z</time></trkpt><trkpt lat="44.9734011" lon="7.6634522"><ele>223.5</ele><time>2026-05-03T14:37:17.2Z</time></trkpt><trkpt lat="44.9733006" lon="7.663866"><ele>224.0</ele><time>2026-05-03T14:37:18.2Z</time></trkpt><trkpt lat="44.9732021" lon="7.6642782"><ele>223.5</ele><time>2026-05-03T14:37:19.2Z</time></trkpt><trkpt lat="44.9731025" lon="7.6646913"><ele>223.0</ele><time>2026-05-03T14:37:20.201Z</time></trkpt><trkpt lat="44.9730041" lon="7.6651085"><ele>222.5</ele><time>2026-05-03T14:37:21.2Z</time></trkpt><trkpt lat="44.9729068" lon="7.6655194"><ele>222.0</ele><time>2026-05-03T14:37:22.2Z</time></trkpt><trkpt lat="44.9728071" lon="7.6659277"><ele>222.0</ele><time>2026-05-03T14:37:23.201Z</time></trkpt><trkpt lat="44.9727075" lon="7.6663405"><ele>222.0</ele><time>2026-05-03T14:37:24.2Z</time></trkpt><trkpt lat="44.9726036" lon="7.6667526"><ele>223.0</ele><time>2026-05-03T14:37:25.201Z</time></trkpt><trkpt lat="44.9724968" lon="7.667169"><ele>224.0</ele><time>2026-05-03T14:37:26.201Z</time></trkpt><trkpt lat="44.9723912" lon="7.6675853"><ele>224.0</ele><time>2026-05-03T14:37:27.2Z</time></trkpt><trkpt lat="44.97229" lon="7.6680056"><ele>224.0</ele><time>2026-05-03T14:37:28.2Z</time></trkpt><trkpt lat="44.9721881" lon="7.6684291"><ele>224.5</ele><time>2026-05-03T14:37:29.2Z</time></trkpt><trkpt lat="44.9720864" lon="7.6688505"><ele>225.0</ele><time>2026-05-03T14:37:30.201Z</time></trkpt><trkpt lat="44.9719862" lon="7.669267"><ele>224.5</ele><time>2026-05-03T14:37:31.2Z</time></trkpt><trkpt lat="44.9718853" lon="7.669685"><ele>224.0</ele><time>2026-05-03T14:37:32.2Z</time></trkpt><trkpt lat="44.9717855" lon="7.6701052"><ele>224.0</ele><time>2026-05-03T14:37:33.201Z</time></trkpt><trkpt lat="44.9716913" lon="7.6705296"><ele>224.0</ele><time>2026-05-03T14:37:34.2Z</time></trkpt><trkpt lat="44.9715992" lon="7.6709539"><ele>223.0</ele><time>2026-05-03T14:37:35.2Z</time></trkpt><trkpt lat="44.971502" lon="7.6713754"><ele>222.0</ele><time>2026-05-03T14:37:36.201Z</time></trkpt><trkpt lat="44.9714046" lon="7.6717921"><ele>222.0</ele><time>2026-05-03T14:37:37.201Z</time></trkpt><trkpt lat="44.9713074" lon="7.6722102"><ele>222.0</ele><time>2026-05-03T14:37:38.2Z</time></trkpt><trkpt lat="44.971208" lon="7.6726282"><ele>222.0</ele><time>2026-05-03T14:37:39.2Z</time></trkpt><trkpt lat="44.9711092" lon="7.6730462"><ele>222.0</ele><time>2026-05-03T14:37:40.2Z</time></trkpt><trkpt lat="44.9710088" lon="7.6734633"><ele>222.0</ele><time>2026-05-03T14:37:41.2Z</time></trkpt><trkpt lat="44.9709079" lon="7.6738818"><ele>222.0</ele><time>2026-05-03T14:37:42.201Z</time></trkpt><trkpt lat="44.9708085" lon="7.6742946"><ele>222.5</ele><time>2026-05-03T14:37:43.2Z</time></trkpt><trkpt lat="44.9707108" lon="7.6747111"><ele>223.0</ele><time>2026-05-03T14:37:44.2Z</time></trkpt><trkpt lat="44.9706124" lon="7.6751309"><ele>222.5</ele><time>2026-05-03T14:37:45.2Z</time></trkpt><trkpt lat="44.970513" lon="7.675547"><ele>222.0</ele><time>2026-05-03T14:37:46.2Z</time></trkpt><trkpt lat="44.9704135" lon="7.6759672"><ele>222.0</ele><time>2026-05-03T14:37:47.201Z</time></trkpt><trkpt lat="44.9703166" lon="7.6763924"><ele>222.0</ele><time>2026-05-03T14:37:48.2Z</time></trkpt><trkpt lat="44.9702269" lon="7.6768239"><ele>222.5</ele><time>2026-05-03T14:37:49.201Z</time></trkpt><trkpt lat="44.9701474" lon="7.6772511"><ele>223.0</ele><time>2026-05-03T14:37:50.2Z</time></trkpt><trkpt lat="44.97008" lon="7.6776755"><ele>222.5</ele><time>2026-05-03T14:37:51.2Z</time></trkpt><trkpt lat="44.9700172" lon="7.6781037"><ele>222.0</ele><time>2026-05-03T14:37:52.2Z</time></trkpt><trkpt lat="44.9699611" lon="7.6785364"><ele>221.5</ele><time>2026-05-03T14:37:53.2Z</time></trkpt><trkpt lat="44.969913" lon="7.6789737"><ele>221.0</ele><time>2026-05-03T14:37:54.201Z</time></trkpt><trkpt lat="44.9698652" lon="7.6794168"><ele>221.0</ele><time>2026-05-03T14:37:55.2Z</time></trkpt><trkpt lat="44.9698287" lon="7.6798634"><ele>221.0</ele><time>2026-05-03T14:37:56.2Z</time></trkpt><trkpt lat="44.9698024" lon="7.6803092"><ele>221.0</ele><time>2026-05-03T14:37:57.2Z</time></trkpt><trkpt lat="44.9697848" lon="7.6807538"><ele>221.0</ele><time>2026-05-03T14:37:58.2Z</time></trkpt><trkpt lat="44.96978" lon="7.6811995"><ele>220.5</ele><time>2026-05-03T14:37:59.2Z</time></trkpt><trkpt lat="44.9697863" lon="7.6816455"><ele>220.0</ele><time>2026-05-03T14:38:00.2Z</time></trkpt><trkpt lat="44.9697987" lon="7.6820883"><ele>221.0</ele><time>2026-05-03T14:38:01.2Z</time></trkpt><trkpt lat="44.9698148" lon="7.6825354"><ele>222.0</ele><time>2026-05-03T14:38:02.201Z</time></trkpt><trkpt lat="44.9698362" lon="7.6829836"><ele>223.0</ele><time>2026-05-03T14:38:03.201Z</time></trkpt><trkpt lat="44.9698658" lon="7.6834311"><ele>224.0</ele><time>2026-05-03T14:38:04.201Z</time></trkpt><trkpt lat="44.9699053" lon="7.6838718"><ele>224.0</ele><time>2026-05-03T14:38:05.201Z</time></trkpt><trkpt lat="44.9699477" lon="7.6843103"><ele>224.0</ele><time>2026-05-03T14:38:06.2Z</time></trkpt><trkpt lat="44.9699881" lon="7.6847458"><ele>223.5</ele><time>2026-05-03T14:38:07.2Z</time></trkpt><trkpt lat="44.9700264" lon="7.6851766"><ele>223.0</ele><time>2026-05-03T14:38:08.2Z</time></trkpt><trkpt lat="44.9700677" lon="7.6856062"><ele>223.0</ele><time>2026-05-03T14:38:09.2Z</time></trkpt><trkpt lat="44.9701081" lon="7.6860397"><ele>223.0</ele><time>2026-05-03T14:38:10.2Z</time></trkpt><trkpt lat="44.970143" lon="7.6864715"><ele>223.0</ele><time>2026-05-03T14:38:11.2Z</time></trkpt><trkpt lat="44.9701763" lon="7.6868983"><ele>223.0</ele><time>2026-05-03T14:38:12.2Z</time></trkpt><trkpt lat="44.9702122" lon="7.6873165"><ele>223.0</ele><time>2026-05-03T14:38:13.201Z</time></trkpt><trkpt lat="44.9702551" lon="7.6877326"><ele>223.0</ele><time>2026-05-03T14:38:14.2Z</time></trkpt><trkpt lat="44.9702997" lon="7.6881546"><ele>223.0</ele><time>2026-05-03T14:38:15.201Z</time></trkpt><trkpt lat="44.9703459" lon="7.6885902"><ele>223.0</ele><time>2026-05-03T14:38:16.201Z</time></trkpt><trkpt lat="44.9703926" lon="7.6890317"><ele>223.0</ele><time>2026-05-03T14:38:17.201Z</time></trkpt><trkpt lat="44.9704357" lon="7.6894698"><ele>223.0</ele><time>2026-05-03T14:38:18.2Z</time></trkpt><trkpt lat="44.9704748" lon="7.6898973"><ele>223.5</ele><time>2026-05-03T14:38:19.2Z</time></trkpt><trkpt lat="44.9705142" lon="7.6903221"><ele>224.0</ele><time>2026-05-03T14:38:20.2Z</time></trkpt><trkpt lat="44.9705495" lon="7.6907388"><ele>224.5</ele><time>2026-05-03T14:38:21.2Z</time></trkpt><trkpt lat="44.9705891" lon="7.6911685"><ele>225.0</ele><time>2026-05-03T14:38:22.201Z</time></trkpt><trkpt lat="44.9706305" lon="7.6916207"><ele>222.0</ele><time>2026-05-03T14:38:23.201Z</time></trkpt><trkpt lat="44.9706745" lon="7.692086"><ele>219.0</ele><time>2026-05-03T14:38:24.201Z</time></trkpt><trkpt lat="44.970718" lon="7.6925453"><ele>218.0</ele><time>2026-05-03T14:38:25.2Z</time></trkpt><trkpt lat="44.9707565" lon="7.6929953"><ele>217.0</ele><time>2026-05-03T14:38:26.2Z</time></trkpt><trkpt lat="44.9707909" lon="7.6934334"><ele>217.5</ele><time>2026-05-03T14:38:27.2Z</time></trkpt><trkpt lat="44.9708274" lon="7.6938542"><ele>218.0</ele><time>2026-05-03T14:38:28.2Z</time></trkpt><trkpt lat="44.9708631" lon="7.6942574"><ele>219.5</ele><time>2026-05-03T14:38:29.2Z</time></trkpt><trkpt lat="44.9708936" lon="7.6946263"><ele>221.0</ele><time>2026-05-03T14:38:30.201Z</time></trkpt><trkpt lat="44.9709165" lon="7.6949608"><ele>220.33333333333334</ele><time>2026-05-03T14:38:31.201Z</time></trkpt><trkpt lat="44.9709365" lon="7.6952671"><ele>219.66666666666669</ele><time>2026-05-03T14:38:32.201Z</time></trkpt><trkpt lat="44.9709552" lon="7.6955597"><ele>219.0</ele><time>2026-05-03T14:38:33.201Z</time></trkpt><trkpt lat="44.9709697" lon="7.6958532"><ele>220.66666666666669</ele><time>2026-05-03T14:38:34.2Z</time></trkpt><trkpt lat="44.9709771" lon="7.696156"><ele>222.33333333333334</ele><time>2026-05-03T14:38:35.201Z</time></trkpt><trkpt lat="44.9709796" lon="7.6964513"><ele>224.0</ele><time>2026-05-03T14:38:36.2Z</time></trkpt><trkpt lat="44.9709805" lon="7.6967333"><ele>224.0</ele><time>2026-05-03T14:38:37.2Z</time></trkpt><trkpt lat="44.9709841" lon="7.6969946"><ele>224.0</ele><time>2026-05-03T14:38:38.2Z</time></trkpt><trkpt lat="44.9709841" lon="7.6972379"><ele>224.0</ele><time>2026-05-03T14:38:39.201Z</time></trkpt><trkpt lat="44.9709893" lon="7.6974647"><ele>224.0</ele><time>2026-05-03T14:38:40.201Z</time></trkpt><trkpt lat="44.970992" lon="7.6976831"><ele>224.0</ele><time>2026-05-03T14:38:41.2Z</time></trkpt><trkpt lat="44.9709901" lon="7.6978899"><ele>224.0</ele><time>2026-05-03T14:38:42.2Z</time></trkpt><trkpt lat="44.9709796" lon="7.6980962"><ele>224.0</ele><time>2026-05-03T14:38:43.201Z</time></trkpt><trkpt lat="44.9709473" lon="7.6983105"><ele>223.66666666666669</ele><time>2026-05-03T14:38:44.2Z</time></trkpt><trkpt lat="44.9708866" lon="7.6985238"><ele>223.33333333333331</ele><time>2026-05-03T14:38:45.2Z</time></trkpt><trkpt lat="44.9708045" lon="7.6987447"><ele>223.0</ele><time>2026-05-03T14:38:46.201Z</time></trkpt><trkpt lat="44.9706962" lon="7.698968"><ele>222.66666666666666</ele><time>2026-05-03T14:38:47.2Z</time></trkpt><trkpt lat="44.9705543" lon="7.6991858"><ele>222.33333333333331</ele><time>2026-05-03T14:38:48.201Z</time></trkpt><trkpt lat="44.970384" lon="7.6993758"><ele>222.0</ele><time>2026-05-03T14:38:49.2Z</time></trkpt><trkpt lat="44.9701916" lon="7.6995494"><ele>221.5</ele><time>2026-05-03T14:38:50.201Z</time></trkpt><trkpt lat="44.9699833" lon="7.6997158"><ele>221.0</ele><time>2026-05-03T14:38:51.201Z</time></trkpt><trkpt lat="44.9697777" lon="7.6999155"><ele>221.0</ele><time>2026-05-03T14:38:52.201Z</time></trkpt><trkpt lat="44.9695917" lon="7.7001613"><ele>221.0</ele><time>2026-05-03T14:38:53.2Z</time></trkpt><trkpt lat="44.9694108" lon="7.7004408"><ele>221.0</ele><time>2026-05-03T14:38:54.2Z</time></trkpt><trkpt lat="44.9692475" lon="7.7007408"><ele>221.0</ele><time>2026-05-03T14:38:55.2Z</time></trkpt><trkpt lat="44.9691098" lon="7.7010544"><ele>220.5</ele><time>2026-05-03T14:38:56.201Z</time></trkpt><trkpt lat="44.9689909" lon="7.7013703"><ele>220.0</ele><time>2026-05-03T14:38:57.2Z</time></trkpt><trkpt lat="44.9688736" lon="7.7016826"><ele>222.0</ele><time>2026-05-03T14:38:58.2Z</time></trkpt><trkpt lat="44.968745" lon="7.7019787"><ele>224.0</ele><time>2026-05-03T14:38:59.2Z</time></trkpt><trkpt lat="44.9686002" lon="7.7022455"><ele>224.0</ele><time>2026-05-03T14:39:00.201Z</time></trkpt><trkpt lat="44.9684315" lon="7.7025078"><ele>224.0</ele><time>2026-05-03T14:39:01.2Z</time></trkpt><trkpt lat="44.9682338" lon="7.7027197"><ele>222.5</ele><time>2026-05-03T14:39:02.2Z</time></trkpt><trkpt lat="44.9680254" lon="7.7028872"><ele>221.0</ele><time>2026-05-03T14:39:03.2Z</time></trkpt><trkpt lat="44.9677925" lon="7.7030272"><ele>221.0</ele><time>2026-05-03T14:39:04.2Z</time></trkpt><trkpt lat="44.96755" lon="7.7031277"><ele>221.0</ele><time>2026-05-03T14:39:05.2Z</time></trkpt><trkpt lat="44.9672877" lon="7.703214"><ele>221.5</ele><time>2026-05-03T14:39:06.2Z</time></trkpt><trkpt lat="44.9670188" lon="7.7032878"><ele>222.0</ele><time>2026-05-03T14:39:07.201Z</time></trkpt><trkpt lat="44.9667465" lon="7.7033699"><ele>221.5</ele><time>2026-05-03T14:39:08.2Z</time></trkpt><trkpt lat="44.9664704" lon="7.7034577"><ele>221.0</ele><time>2026-05-03T14:39:09.201Z</time></trkpt><trkpt lat="44.9661883" lon="7.7035398"><ele>221.0</ele><time>2026-05-03T14:39:10.201Z</time></trkpt><trkpt lat="44.9658975" lon="7.7036285"><ele>221.0</ele><time>2026-05-03T14:39:11.201Z</time></trkpt><trkpt lat="44.9656065" lon="7.7037168"><ele>221.0</ele><time>2026-05-03T14:39:12.2Z</time></trkpt><trkpt lat="44.9653123" lon="7.7038041"><ele>221.0</ele><time>2026-05-03T14:39:13.201Z</time></trkpt><trkpt lat="44.9650199" lon="7.7038899"><ele>221.0</ele><time>2026-05-03T14:39:14.2Z</time></trkpt><trkpt lat="44.9647286" lon="7.7039738"><ele>221.0</ele><time>2026-05-03T14:39:15.201Z</time></trkpt><trkpt lat="44.964437" lon="7.7040552"><ele>222.0</ele><time>2026-05-03T14:39:16.2Z</time></trkpt><trkpt lat="44.9641481" lon="7.70414"><ele>223.0</ele><time>2026-05-03T14:39:17.2Z</time></trkpt><trkpt lat="44.9638538" lon="7.704221"><ele>223.0</ele><time>2026-05-03T14:39:18.2Z</time></trkpt><trkpt lat="44.9635562" lon="7.7043058"><ele>223.0</ele><time>2026-05-03T14:39:19.2Z</time></trkpt><trkpt lat="44.9632568" lon="7.7043991"><ele>222.5</ele><time>2026-05-03T14:39:20.2Z</time></trkpt><trkpt lat="44.9629558" lon="7.7044984"><ele>222.0</ele><time>2026-05-03T14:39:21.2Z</time></trkpt><trkpt lat="44.9626569" lon="7.704613"><ele>222.5</ele><time>2026-05-03T14:39:22.2Z</time></trkpt><trkpt lat="44.9623606" lon="7.7047479"><ele>223.0</ele><time>2026-05-03T14:39:23.2Z</time></trkpt><trkpt lat="44.9620649" lon="7.7048959"><ele>223.0</ele><time>2026-05-03T14:39:24.201Z</time></trkpt><trkpt lat="44.9617753" lon="7.7050685"><ele>223.0</ele><time>2026-05-03T14:39:25.2Z</time></trkpt><trkpt lat="44.9614923" lon="7.7052552"><ele>223.5</ele><time>2026-05-03T14:39:26.2Z</time></trkpt><trkpt lat="44.9612094" lon="7.7054538"><ele>224.0</ele><time>2026-05-03T14:39:27.2Z</time></trkpt><trkpt lat="44.96093" lon="7.7056648"><ele>224.0</ele><time>2026-05-03T14:39:28.201Z</time></trkpt><trkpt lat="44.9606571" lon="7.7058917"><ele>224.0</ele><time>2026-05-03T14:39:29.201Z</time></trkpt><trkpt lat="44.9603894" lon="7.7061333"><ele>224.0</ele><time>2026-05-03T14:39:30.2Z</time></trkpt><trkpt lat="44.9601268" lon="7.7063846"><ele>224.0</ele><time>2026-05-03T14:39:31.2Z</time></trkpt><trkpt lat="44.9598641" lon="7.7066462"><ele>223.5</ele><time>2026-05-03T14:39:32.2Z</time></trkpt><trkpt lat="44.9596077" lon="7.7069133"><ele>223.0</ele><time>2026-05-03T14:39:33.201Z</time></trkpt><trkpt lat="44.9593626" lon="7.7071906"><ele>223.0</ele><time>2026-05-03T14:39:34.201Z</time></trkpt><trkpt lat="44.9591218" lon="7.7074743"><ele>223.0</ele><time>2026-05-03T14:39:35.2Z</time></trkpt><trkpt lat="44.9588786" lon="7.7077691"><ele>223.0</ele><time>2026-05-03T14:39:36.201Z</time></trkpt><trkpt lat="44.9586325" lon="7.7080665"><ele>223.0</ele><time>2026-05-03T14:39:37.2Z</time></trkpt><trkpt lat="44.9583889" lon="7.7083563"><ele>223.5</ele><time>2026-05-03T14:39:38.2Z</time></trkpt><trkpt lat="44.9581444" lon="7.708646"><ele>224.0</ele><time>2026-05-03T14:39:39.2Z</time></trkpt><trkpt lat="44.9578993" lon="7.7089251"><ele>224.0</ele><time>2026-05-03T14:39:40.2Z</time></trkpt><trkpt lat="44.9576529" lon="7.7092021"><ele>224.0</ele><time>2026-05-03T14:39:41.201Z</time></trkpt><trkpt lat="44.957396" lon="7.7094701"><ele>225.5</ele><time>2026-05-03T14:39:42.2Z</time></trkpt><trkpt lat="44.9571386" lon="7.7097377"><ele>227.0</ele><time>2026-05-03T14:39:43.201Z</time></trkpt><trkpt lat="44.9568765" lon="7.709997"><ele>226.5</ele><time>2026-05-03T14:39:44.2Z</time></trkpt><trkpt lat="44.9566084" lon="7.7102443"><ele>226.0</ele><time>2026-05-03T14:39:45.2Z</time></trkpt><trkpt lat="44.9563398" lon="7.7104754"><ele>226.0</ele><time>2026-05-03T14:39:46.201Z</time></trkpt><trkpt lat="44.9560666" lon="7.7106959"><ele>226.0</ele><time>2026-05-03T14:39:47.201Z</time></trkpt><trkpt lat="44.9557882" lon="7.710918"><ele>223.5</ele><time>2026-05-03T14:39:48.201Z</time></trkpt><trkpt lat="44.9555065" lon="7.7111304"><ele>221.0</ele><time>2026-05-03T14:39:49.2Z</time></trkpt><trkpt lat="44.9552184" lon="7.7113316"><ele>222.5</ele><time>2026-05-03T14:39:50.201Z</time></trkpt><trkpt lat="44.9549305" lon="7.7115201"><ele>224.0</ele><time>2026-05-03T14:39:51.2Z</time></trkpt><trkpt lat="44.954639" lon="7.7116995"><ele>224.0</ele><time>2026-05-03T14:39:52.2Z</time></trkpt><trkpt lat="44.9543417" lon="7.7118729"><ele>224.0</ele><time>2026-05-03T14:39:53.201Z</time></trkpt><trkpt lat="44.9540368" lon="7.712037"><ele>224.0</ele><time>2026-05-03T14:39:54.2Z</time></trkpt><trkpt lat="44.9537262" lon="7.7121978"><ele>224.0</ele><time>2026-05-03T14:39:55.2Z</time></trkpt><trkpt lat="44.953414" lon="7.7123444"><ele>225.5</ele><time>2026-05-03T14:39:56.2Z</time></trkpt><trkpt lat="44.9530984" lon="7.7124783"><ele>227.0</ele><time>2026-05-03T14:39:57.2Z</time></trkpt><trkpt lat="44.9527747" lon="7.7125925"><ele>226.5</ele><time>2026-05-03T14:39:58.2Z</time></trkpt><trkpt lat="44.9524463" lon="7.7126844"><ele>226.0</ele><time>2026-05-03T14:39:59.2Z</time></trkpt><trkpt lat="44.9521224" lon="7.7127789"><ele>226.0</ele><time>2026-05-03T14:40:00.2Z</time></trkpt><trkpt lat="44.9518001" lon="7.7128738"><ele>226.0</ele><time>2026-05-03T14:40:01.201Z</time></trkpt><trkpt lat="44.9514798" lon="7.7129673"><ele>225.0</ele><time>2026-05-03T14:40:02.2Z</time></trkpt><trkpt lat="44.9511579" lon="7.7130664"><ele>224.0</ele><time>2026-05-03T14:40:03.201Z</time></trkpt><trkpt lat="44.9508374" lon="7.7131675"><ele>223.5</ele><time>2026-05-03T14:40:04.201Z</time></trkpt><trkpt lat="44.9505142" lon="7.713267"><ele>223.0</ele><time>2026-05-03T14:40:05.2Z</time></trkpt><trkpt lat="44.9501983" lon="7.7133704"><ele>224.5</ele><time>2026-05-03T14:40:06.2Z</time></trkpt><trkpt lat="44.9498837" lon="7.7134689"><ele>226.0</ele><time>2026-05-03T14:40:07.2Z</time></trkpt><trkpt lat="44.9495636" lon="7.7135704"><ele>225.5</ele><time>2026-05-03T14:40:08.201Z</time></trkpt><trkpt lat="44.9492471" lon="7.7136777"><ele>225.0</ele><time>2026-05-03T14:40:09.2Z</time></trkpt><trkpt lat="44.9489318" lon="7.713793"><ele>225.0</ele><time>2026-05-03T14:40:10.2Z</time></trkpt><trkpt lat="44.9486225" lon="7.7139112"><ele>225.0</ele><time>2026-05-03T14:40:11.201Z</time></trkpt><trkpt lat="44.9483162" lon="7.7140409"><ele>225.0</ele><time>2026-05-03T14:40:12.2Z</time></trkpt><trkpt lat="44.9480134" lon="7.7141799"><ele>225.0</ele><time>2026-05-03T14:40:13.2Z</time></trkpt><trkpt lat="44.9477127" lon="7.7143184"><ele>224.5</ele><time>2026-05-03T14:40:14.2Z</time></trkpt><trkpt lat="44.9474127" lon="7.7144712"><ele>224.0</ele><time>2026-05-03T14:40:15.2Z</time></trkpt><trkpt lat="44.9471162" lon="7.7146282"><ele>224.0</ele><time>2026-05-03T14:40:16.2Z</time></trkpt><trkpt lat="44.946822" lon="7.714793"><ele>224.0</ele><time>2026-05-03T14:40:17.201Z</time></trkpt><trkpt lat="44.9465283" lon="7.7149607"><ele>224.5</ele><time>2026-05-03T14:40:18.201Z</time></trkpt><trkpt lat="44.9462398" lon="7.7151418"><ele>225.0</ele><time>2026-05-03T14:40:19.2Z</time></trkpt><trkpt lat="44.9459558" lon="7.7153313"><ele>226.0</ele><time>2026-05-03T14:40:20.2Z</time></trkpt><trkpt lat="44.9456732" lon="7.7155216"><ele>227.0</ele><time>2026-05-03T14:40:21.2Z</time></trkpt><trkpt lat="44.9453924" lon="7.7157156"><ele>227.0</ele><time>2026-05-03T14:40:22.2Z</time></trkpt><trkpt lat="44.9451121" lon="7.7159064"><ele>227.0</ele><time>2026-05-03T14:40:23.2Z</time></trkpt><trkpt lat="44.9448339" lon="7.7160937"><ele>226.0</ele><time>2026-05-03T14:40:24.2Z</time></trkpt><trkpt lat="44.9445579" lon="7.7162858"><ele>225.0</ele><time>2026-05-03T14:40:25.2Z</time></trkpt><trkpt lat="44.9442821" lon="7.7164783"><ele>225.0</ele><time>2026-05-03T14:40:26.2Z</time></trkpt><trkpt lat="44.9440041" lon="7.7166796"><ele>225.0</ele><time>2026-05-03T14:40:27.2Z</time></trkpt><trkpt lat="44.9437225" lon="7.7168829"><ele>225.0</ele><time>2026-05-03T14:40:28.201Z</time></trkpt><trkpt lat="44.9434395" lon="7.7170903"><ele>225.0</ele><time>2026-05-03T14:40:29.2Z</time></trkpt><trkpt lat="44.94315" lon="7.7172982"><ele>225.0</ele><time>2026-05-03T14:40:30.2Z</time></trkpt><trkpt lat="44.9428576" lon="7.7175023"><ele>225.0</ele><time>2026-05-03T14:40:31.2Z</time></trkpt><trkpt lat="44.9425651" lon="7.7177062"><ele>226.0</ele><time>2026-05-03T14:40:32.2Z</time></trkpt><trkpt lat="44.9422688" lon="7.7179106"><ele>227.0</ele><time>2026-05-03T14:40:33.2Z</time></trkpt><trkpt lat="44.9419693" lon="7.7181167"><ele>225.5</ele><time>2026-05-03T14:40:34.2Z</time></trkpt><trkpt lat="44.9416698" lon="7.7183114"><ele>224.0</ele><time>2026-05-03T14:40:35.2Z</time></trkpt><trkpt lat="44.9413682" lon="7.7185001"><ele>224.0</ele><time>2026-05-03T14:40:36.2Z</time></trkpt><trkpt lat="44.9410633" lon="7.7186953"><ele>224.0</ele><time>2026-05-03T14:40:37.2Z</time></trkpt><trkpt lat="44.9407634" lon="7.7188895"><ele>225.0</ele><time>2026-05-03T14:40:38.2Z</time></trkpt><trkpt lat="44.9404645" lon="7.7190934"><ele>226.0</ele><time>2026-05-03T14:40:39.2Z</time></trkpt><trkpt lat="44.9401706" lon="7.7192916"><ele>226.0</ele><time>2026-05-03T14:40:40.2Z</time></trkpt><trkpt lat="44.9398772" lon="7.7194892"><ele>226.0</ele><time>2026-05-03T14:40:41.2Z</time></trkpt><trkpt lat="44.9395835" lon="7.7196886"><ele>226.0</ele><time>2026-05-03T14:40:42.201Z</time></trkpt><trkpt lat="44.9392926" lon="7.7198862"><ele>226.0</ele><time>2026-05-03T14:40:43.2Z</time></trkpt><trkpt lat="44.9389971" lon="7.7200911"><ele>227.0</ele><time>2026-05-03T14:40:44.2Z</time></trkpt><trkpt lat="44.9387008" lon="7.7202953"><ele>228.0</ele><time>2026-05-03T14:40:45.2Z</time></trkpt><trkpt lat="44.9384084" lon="7.7204972"><ele>228.5</ele><time>2026-05-03T14:40:46.201Z</time></trkpt><trkpt lat="44.9381158" lon="7.7207009"><ele>229.0</ele><time>2026-05-03T14:40:47.2Z</time></trkpt><trkpt lat="44.9378248" lon="7.7208992"><ele>228.0</ele><time>2026-05-03T14:40:48.2Z</time></trkpt><trkpt lat="44.937529" lon="7.7211025"><ele>227.0</ele><time>2026-05-03T14:40:49.2Z</time></trkpt><trkpt lat="44.9372357" lon="7.7213071"><ele>227.0</ele><time>2026-05-03T14:40:50.2Z</time></trkpt><trkpt lat="44.9369391" lon="7.7215033"><ele>227.0</ele><time>2026-05-03T14:40:51.2Z</time></trkpt><trkpt lat="44.9366427" lon="7.7217141"><ele>227.5</ele><time>2026-05-03T14:40:52.2Z</time></trkpt><trkpt lat="44.9363487" lon="7.7219223"><ele>228.0</ele><time>2026-05-03T14:40:53.201Z</time></trkpt><trkpt lat="44.9360551" lon="7.7221299"><ele>227.5</ele><time>2026-05-03T14:40:54.2Z</time></trkpt><trkpt lat="44.9357581" lon="7.7223316"><ele>227.0</ele><time>2026-05-03T14:40:55.201Z</time></trkpt><trkpt lat="44.9354619" lon="7.7225349"><ele>226.0</ele><time>2026-05-03T14:40:56.201Z</time></trkpt><trkpt lat="44.9351661" lon="7.7227389"><ele>225.0</ele><time>2026-05-03T14:40:57.2Z</time></trkpt><trkpt lat="44.9348737" lon="7.722945"><ele>224.5</ele><time>2026-05-03T14:40:58.201Z</time></trkpt><trkpt lat="44.9345782" lon="7.7231388"><ele>224.0</ele><time>2026-05-03T14:40:59.2Z</time></trkpt><trkpt lat="44.9342892" lon="7.7233389"><ele>224.5</ele><time>2026-05-03T14:41:00.2Z</time></trkpt><trkpt lat="44.9340002" lon="7.7235322"><ele>225.0</ele><time>2026-05-03T14:41:01.2Z</time></trkpt><trkpt lat="44.9337112" lon="7.7237357"><ele>225.5</ele><time>2026-05-03T14:41:02.2Z</time></trkpt><trkpt lat="44.9334231" lon="7.723935"><ele>226.0</ele><time>2026-05-03T14:41:03.201Z</time></trkpt><trkpt lat="44.9331349" lon="7.7241306"><ele>226.5</ele><time>2026-05-03T14:41:04.2Z</time></trkpt><trkpt lat="44.9328501" lon="7.7243289"><ele>227.0</ele><time>2026-05-03T14:41:05.201Z</time></trkpt><trkpt lat="44.9325609" lon="7.7245259"><ele>227.5</ele><time>2026-05-03T14:41:06.2Z</time></trkpt><trkpt lat="44.9322684" lon="7.724727"><ele>228.0</ele><time>2026-05-03T14:41:07.2Z</time></trkpt><trkpt lat="44.9319818" lon="7.7249285"><ele>228.5</ele><time>2026-05-03T14:41:08.201Z</time></trkpt><trkpt lat="44.9316889" lon="7.7251265"><ele>229.0</ele><time>2026-05-03T14:41:09.201Z</time></trkpt><trkpt lat="44.9313974" lon="7.7253263"><ele>227.5</ele><time>2026-05-03T14:41:10.202Z</time></trkpt><trkpt lat="44.9311077" lon="7.7255214"><ele>226.0</ele><time>2026-05-03T14:41:11.201Z</time></trkpt><trkpt lat="44.9308166" lon="7.7257271"><ele>226.0</ele><time>2026-05-03T14:41:12.201Z</time></trkpt><trkpt lat="44.9305251" lon="7.7259318"><ele>226.0</ele><time>2026-05-03T14:41:13.202Z</time></trkpt><trkpt lat="44.9302359" lon="7.7261346"><ele>225.5</ele><time>2026-05-03T14:41:14.203Z</time></trkpt><trkpt lat="44.9299456" lon="7.726333"><ele>225.0</ele><time>2026-05-03T14:41:15.203Z</time></trkpt><trkpt lat="44.9296539" lon="7.7265259"><ele>225.0</ele><time>2026-05-03T14:41:16.204Z</time></trkpt><trkpt lat="44.9293631" lon="7.7267287"><ele>225.0</ele><time>2026-05-03T14:41:17.203Z</time></trkpt><trkpt lat="44.9290737" lon="7.7269283"><ele>225.0</ele><time>2026-05-03T14:41:18.203Z</time></trkpt><trkpt lat="44.9287866" lon="7.7271256"><ele>225.0</ele><time>2026-05-03T14:41:19.204Z</time></trkpt><trkpt lat="44.9285007" lon="7.7273215"><ele>225.0</ele><time>2026-05-03T14:41:20.204Z</time></trkpt><trkpt lat="44.9282158" lon="7.7275153"><ele>225.0</ele><time>2026-05-03T14:41:21.203Z</time></trkpt><trkpt lat="44.927934" lon="7.7277079"><ele>225.5</ele><time>2026-05-03T14:41:22.203Z</time></trkpt><trkpt lat="44.9276533" lon="7.7279035"><ele>226.0</ele><time>2026-05-03T14:41:23.203Z</time></trkpt><trkpt lat="44.9273697" lon="7.7280998"><ele>226.0</ele><time>2026-05-03T14:41:24.203Z</time></trkpt><trkpt lat="44.9270854" lon="7.7282934"><ele>226.0</ele><time>2026-05-03T14:41:25.203Z</time></trkpt><trkpt lat="44.9267969" lon="7.7284897"><ele>225.5</ele><time>2026-05-03T14:41:26.203Z</time></trkpt><trkpt lat="44.9265089" lon="7.7286876"><ele>225.0</ele><time>2026-05-03T14:41:27.203Z</time></trkpt><trkpt lat="44.926218" lon="7.7288874"><ele>225.0</ele><time>2026-05-03T14:41:28.203Z</time></trkpt><trkpt lat="44.9259283" lon="7.7290882"><ele>225.0</ele><time>2026-05-03T14:41:29.203Z</time></trkpt><trkpt lat="44.9256416" lon="7.7292895"><ele>225.0</ele><time>2026-05-03T14:41:30.203Z</time></trkpt><trkpt lat="44.9253558" lon="7.7294964"><ele>225.0</ele><time>2026-05-03T14:41:31.203Z</time></trkpt><trkpt lat="44.9250665" lon="7.729706"><ele>226.0</ele><time>2026-05-03T14:41:32.204Z</time></trkpt><trkpt lat="44.9247725" lon="7.7299194"><ele>227.0</ele><time>2026-05-03T14:41:33.203Z</time></trkpt><trkpt lat="44.924476" lon="7.7301311"><ele>227.5</ele><time>2026-05-03T14:41:34.204Z</time></trkpt><trkpt lat="44.9241791" lon="7.7303418"><ele>228.0</ele><time>2026-05-03T14:41:35.203Z</time></trkpt><trkpt lat="44.9238813" lon="7.7305486"><ele>228.0</ele><time>2026-05-03T14:41:36.203Z</time></trkpt><trkpt lat="44.9235861" lon="7.7307543"><ele>228.0</ele><time>2026-05-03T14:41:37.203Z</time></trkpt><trkpt lat="44.9232889" lon="7.7309583"><ele>229.5</ele><time>2026-05-03T14:41:38.204Z</time></trkpt><trkpt lat="44.9229906" lon="7.7311646"><ele>231.0</ele><time>2026-05-03T14:41:39.203Z</time></trkpt><trkpt lat="44.9226905" lon="7.7313736"><ele>231.5</ele><time>2026-05-03T14:41:40.203Z</time></trkpt><trkpt lat="44.9223894" lon="7.7315765"><ele>232.0</ele><time>2026-05-03T14:41:41.203Z</time></trkpt><trkpt lat="44.9220866" lon="7.7317764"><ele>230.0</ele><time>2026-05-03T14:41:42.204Z</time></trkpt><trkpt lat="44.9217792" lon="7.7319717"><ele>228.0</ele><time>2026-05-03T14:41:43.204Z</time></trkpt><trkpt lat="44.9214747" lon="7.732166"><ele>227.5</ele><time>2026-05-03T14:41:44.204Z</time></trkpt><trkpt lat="44.9211734" lon="7.7323624"><ele>227.0</ele><time>2026-05-03T14:41:45.203Z</time></trkpt><trkpt lat="44.9208737" lon="7.7325653"><ele>227.0</ele><time>2026-05-03T14:41:46.204Z</time></trkpt><trkpt lat="44.9205752" lon="7.7327679"><ele>227.0</ele><time>2026-05-03T14:41:47.203Z</time></trkpt><trkpt lat="44.920277" lon="7.7329743"><ele>227.5</ele><time>2026-05-03T14:41:48.204Z</time></trkpt><trkpt lat="44.9199817" lon="7.7331796"><ele>228.0</ele><time>2026-05-03T14:41:49.203Z</time></trkpt><trkpt lat="44.9196845" lon="7.733378"><ele>227.0</ele><time>2026-05-03T14:41:50.203Z</time></trkpt><trkpt lat="44.9193853" lon="7.7335794"><ele>226.0</ele><time>2026-05-03T14:41:51.203Z</time></trkpt><trkpt lat="44.9190837" lon="7.7337833"><ele>228.0</ele><time>2026-05-03T14:41:52.203Z</time></trkpt><trkpt lat="44.9187814" lon="7.7339869"><ele>230.0</ele><time>2026-05-03T14:41:53.204Z</time></trkpt><trkpt lat="44.9184798" lon="7.7341914"><ele>230.0</ele><time>2026-05-03T14:41:54.203Z</time></trkpt><trkpt lat="44.9181778" lon="7.7344021"><ele>230.0</ele><time>2026-05-03T14:41:55.203Z</time></trkpt><trkpt lat="44.9178784" lon="7.7346085"><ele>230.0</ele><time>2026-05-03T14:41:56.203Z</time></trkpt><trkpt lat="44.9175794" lon="7.7348138"><ele>230.0</ele><time>2026-05-03T14:41:57.204Z</time></trkpt><trkpt lat="44.9172838" lon="7.7350215"><ele>230.5</ele><time>2026-05-03T14:41:58.203Z</time></trkpt><trkpt lat="44.9169898" lon="7.7352264"><ele>231.0</ele><time>2026-05-03T14:41:59.203Z</time></trkpt><trkpt lat="44.9166967" lon="7.7354288"><ele>229.5</ele><time>2026-05-03T14:42:00.203Z</time></trkpt><trkpt lat="44.916404" lon="7.7356292"><ele>228.0</ele><time>2026-05-03T14:42:01.203Z</time></trkpt><trkpt lat="44.9161115" lon="7.7358289"><ele>228.0</ele><time>2026-05-03T14:42:02.204Z</time></trkpt><trkpt lat="44.9158179" lon="7.7360287"><ele>228.0</ele><time>2026-05-03T14:42:03.203Z</time></trkpt><trkpt lat="44.9155243" lon="7.7362316"><ele>228.0</ele><time>2026-05-03T14:42:04.204Z</time></trkpt><trkpt lat="44.9152314" lon="7.7364345"><ele>228.0</ele><time>2026-05-03T14:42:05.204Z</time></trkpt><trkpt lat="44.9149352" lon="7.7366422"><ele>229.0</ele><time>2026-05-03T14:42:06.203Z</time></trkpt><trkpt lat="44.9146376" lon="7.7368493"><ele>230.0</ele><time>2026-05-03T14:42:07.203Z</time></trkpt><trkpt lat="44.9143365" lon="7.7370503"><ele>230.0</ele><time>2026-05-03T14:42:08.204Z</time></trkpt><trkpt lat="44.9140368" lon="7.737255"><ele>230.0</ele><time>2026-05-03T14:42:09.203Z</time></trkpt><trkpt lat="44.9137371" lon="7.737459"><ele>230.0</ele><time>2026-05-03T14:42:10.203Z</time></trkpt><trkpt lat="44.9134409" lon="7.737662"><ele>230.0</ele><time>2026-05-03T14:42:11.203Z</time></trkpt><trkpt lat="44.9131447" lon="7.7378673"><ele>230.0</ele><time>2026-05-03T14:42:12.204Z</time></trkpt><trkpt lat="44.9128495" lon="7.738073"><ele>230.0</ele><time>2026-05-03T14:42:13.203Z</time></trkpt><trkpt lat="44.9125528" lon="7.7382763"><ele>230.5</ele><time>2026-05-03T14:42:14.203Z</time></trkpt><trkpt lat="44.9122542" lon="7.7384828"><ele>231.0</ele><time>2026-05-03T14:42:15.204Z</time></trkpt><trkpt lat="44.911956" lon="7.7386887"><ele>231.5</ele><time>2026-05-03T14:42:16.203Z</time></trkpt><trkpt lat="44.9116541" lon="7.7388916"><ele>232.0</ele><time>2026-05-03T14:42:17.203Z</time></trkpt><trkpt lat="44.9113519" lon="7.7391046"><ele>232.0</ele><time>2026-05-03T14:42:18.203Z</time></trkpt><trkpt lat="44.911049" lon="7.7393158"><ele>232.0</ele><time>2026-05-03T14:42:19.203Z</time></trkpt><trkpt lat="44.9107456" lon="7.7395208"><ele>232.0</ele><time>2026-05-03T14:42:20.203Z</time></trkpt><trkpt lat="44.9104472" lon="7.7397289"><ele>232.0</ele><time>2026-05-03T14:42:21.203Z</time></trkpt><trkpt lat="44.9101477" lon="7.7399352"><ele>232.0</ele><time>2026-05-03T14:42:22.203Z</time></trkpt><trkpt lat="44.9098502" lon="7.7401392"><ele>232.0</ele><time>2026-05-03T14:42:23.204Z</time></trkpt><trkpt lat="44.9095526" lon="7.7403433"><ele>232.0</ele><time>2026-05-03T14:42:24.203Z</time></trkpt><trkpt lat="44.9092558" lon="7.7405463"><ele>232.0</ele><time>2026-05-03T14:42:25.204Z</time></trkpt><trkpt lat="44.9089588" lon="7.7407536"><ele>232.0</ele><time>2026-05-03T14:42:26.204Z</time></trkpt><trkpt lat="44.9086622" lon="7.7409535"><ele>232.0</ele><time>2026-05-03T14:42:27.203Z</time></trkpt><trkpt lat="44.9083635" lon="7.7411576"><ele>232.5</ele><time>2026-05-03T14:42:28.203Z</time></trkpt><trkpt lat="44.9080688" lon="7.7413581"><ele>233.0</ele><time>2026-05-03T14:42:29.203Z</time></trkpt><trkpt lat="44.9077763" lon="7.7415569"><ele>233.5</ele><time>2026-05-03T14:42:30.203Z</time></trkpt><trkpt lat="44.9074811" lon="7.7417422"><ele>234.0</ele><time>2026-05-03T14:42:31.203Z</time></trkpt><trkpt lat="44.9071819" lon="7.7419293"><ele>234.0</ele><time>2026-05-03T14:42:32.203Z</time></trkpt><trkpt lat="44.906883" lon="7.7421161"><ele>234.0</ele><time>2026-05-03T14:42:33.203Z</time></trkpt><trkpt lat="44.9065835" lon="7.7423012"><ele>235.0</ele><time>2026-05-03T14:42:34.203Z</time></trkpt><trkpt lat="44.9062803" lon="7.742479"><ele>236.0</ele><time>2026-05-03T14:42:35.203Z</time></trkpt><trkpt lat="44.9059756" lon="7.7426517"><ele>235.5</ele><time>2026-05-03T14:42:36.204Z</time></trkpt><trkpt lat="44.9056742" lon="7.7428164"><ele>235.0</ele><time>2026-05-03T14:42:37.203Z</time></trkpt><trkpt lat="44.9053673" lon="7.742983"><ele>235.0</ele><time>2026-05-03T14:42:38.204Z</time></trkpt><trkpt lat="44.9050607" lon="7.7431363"><ele>235.0</ele><time>2026-05-03T14:42:39.203Z</time></trkpt><trkpt lat="44.904754" lon="7.7432832"><ele>235.0</ele><time>2026-05-03T14:42:40.204Z</time></trkpt><trkpt lat="44.9044443" lon="7.7434271"><ele>235.0</ele><time>2026-05-03T14:42:41.204Z</time></trkpt><trkpt lat="44.9041368" lon="7.7435699"><ele>234.0</ele><time>2026-05-03T14:42:42.203Z</time></trkpt><trkpt lat="44.9038252" lon="7.7437019"><ele>233.0</ele><time>2026-05-03T14:42:43.203Z</time></trkpt><trkpt lat="44.9035155" lon="7.743831"><ele>233.5</ele><time>2026-05-03T14:42:44.204Z</time></trkpt><trkpt lat="44.9032043" lon="7.7439574"><ele>234.0</ele><time>2026-05-03T14:42:45.203Z</time></trkpt><trkpt lat="44.9028935" lon="7.7440671"><ele>234.0</ele><time>2026-05-03T14:42:46.203Z</time></trkpt><trkpt lat="44.9025834" lon="7.7441823"><ele>234.0</ele><time>2026-05-03T14:42:47.204Z</time></trkpt><trkpt lat="44.9022699" lon="7.7442832"><ele>234.5</ele><time>2026-05-03T14:42:48.203Z</time></trkpt><trkpt lat="44.9019588" lon="7.7443737"><ele>235.0</ele><time>2026-05-03T14:42:49.203Z</time></trkpt><trkpt lat="44.9016524" lon="7.7444582"><ele>235.5</ele><time>2026-05-03T14:42:50.204Z</time></trkpt><trkpt lat="44.9013414" lon="7.744536"><ele>236.0</ele><time>2026-05-03T14:42:51.203Z</time></trkpt><trkpt lat="44.9010281" lon="7.7446159"><ele>235.0</ele><time>2026-05-03T14:42:52.203Z</time></trkpt><trkpt lat="44.900715" lon="7.7446921"><ele>234.0</ele><time>2026-05-03T14:42:53.204Z</time></trkpt><trkpt lat="44.9003976" lon="7.744764"><ele>235.5</ele><time>2026-05-03T14:42:54.203Z</time></trkpt><trkpt lat="44.900077" lon="7.744833"><ele>237.0</ele><time>2026-05-03T14:42:55.204Z</time></trkpt><trkpt lat="44.8997573" lon="7.7448945"><ele>237.0</ele><time>2026-05-03T14:42:56.203Z</time></trkpt><trkpt lat="44.8994363" lon="7.7449509"><ele>237.0</ele><time>2026-05-03T14:42:57.203Z</time></trkpt><trkpt lat="44.8991118" lon="7.7450046"><ele>237.0</ele><time>2026-05-03T14:42:58.204Z</time></trkpt><trkpt lat="44.898785" lon="7.7450582"><ele>237.0</ele><time>2026-05-03T14:42:59.203Z</time></trkpt><trkpt lat="44.8984523" lon="7.7451006"><ele>236.0</ele><time>2026-05-03T14:43:00.203Z</time></trkpt><trkpt lat="44.8981192" lon="7.7451335"><ele>235.0</ele><time>2026-05-03T14:43:01.203Z</time></trkpt><trkpt lat="44.8977834" lon="7.7451622"><ele>234.5</ele><time>2026-05-03T14:43:02.203Z</time></trkpt><trkpt lat="44.8974462" lon="7.7451856"><ele>234.0</ele><time>2026-05-03T14:43:03.204Z</time></trkpt><trkpt lat="44.8971176" lon="7.7452118"><ele>233.5</ele><time>2026-05-03T14:43:04.204Z</time></trkpt><trkpt lat="44.8967878" lon="7.7452373"><ele>233.0</ele><time>2026-05-03T14:43:05.204Z</time></trkpt><trkpt lat="44.8964555" lon="7.7452623"><ele>232.5</ele><time>2026-05-03T14:43:06.203Z</time></trkpt><trkpt lat="44.8961314" lon="7.7452856"><ele>232.0</ele><time>2026-05-03T14:43:07.203Z</time></trkpt><trkpt lat="44.8958055" lon="7.7453101"><ele>232.0</ele><time>2026-05-03T14:43:08.204Z</time></trkpt><trkpt lat="44.8954775" lon="7.7453366"><ele>232.0</ele><time>2026-05-03T14:43:09.204Z</time></trkpt><trkpt lat="44.8951514" lon="7.7453576"><ele>231.5</ele><time>2026-05-03T14:43:10.203Z</time></trkpt><trkpt lat="44.8948227" lon="7.7453736"><ele>231.0</ele><time>2026-05-03T14:43:11.203Z</time></trkpt><trkpt lat="44.8944877" lon="7.7453908"><ele>232.0</ele><time>2026-05-03T14:43:12.204Z</time></trkpt><trkpt lat="44.8941532" lon="7.7454117"><ele>233.0</ele><time>2026-05-03T14:43:13.204Z</time></trkpt><trkpt lat="44.8938229" lon="7.7454385"><ele>233.0</ele><time>2026-05-03T14:43:14.204Z</time></trkpt><trkpt lat="44.893491" lon="7.7454701"><ele>233.0</ele><time>2026-05-03T14:43:15.203Z</time></trkpt><trkpt lat="44.8931574" lon="7.7454987"><ele>233.5</ele><time>2026-05-03T14:43:16.203Z</time></trkpt><trkpt lat="44.8928243" lon="7.7455285"><ele>234.0</ele><time>2026-05-03T14:43:17.203Z</time></trkpt><trkpt lat="44.8924895" lon="7.7455541"><ele>234.0</ele><time>2026-05-03T14:43:18.204Z</time></trkpt><trkpt lat="44.8921552" lon="7.7455798"><ele>234.0</ele><time>2026-05-03T14:43:19.203Z</time></trkpt><trkpt lat="44.8918214" lon="7.7456005"><ele>234.0</ele><time>2026-05-03T14:43:20.203Z</time></trkpt><trkpt lat="44.8914881" lon="7.7456197"><ele>234.0</ele><time>2026-05-03T14:43:21.203Z</time></trkpt><trkpt lat="44.8911586" lon="7.745641"><ele>234.0</ele><time>2026-05-03T14:43:22.204Z</time></trkpt><trkpt lat="44.890829" lon="7.7456739"><ele>234.0</ele><time>2026-05-03T14:43:23.203Z</time></trkpt><trkpt lat="44.8905024" lon="7.7457067"><ele>234.0</ele><time>2026-05-03T14:43:24.203Z</time></trkpt><trkpt lat="44.8901717" lon="7.7457355"><ele>234.0</ele><time>2026-05-03T14:43:25.203Z</time></trkpt><trkpt lat="44.8898399" lon="7.745764"><ele>235.0</ele><time>2026-05-03T14:43:26.203Z</time></trkpt><trkpt lat="44.8895116" lon="7.7457911"><ele>236.0</ele><time>2026-05-03T14:43:27.203Z</time></trkpt><trkpt lat="44.8891785" lon="7.7458176"><ele>236.0</ele><time>2026-05-03T14:43:28.203Z</time></trkpt><trkpt lat="44.8888458" lon="7.7458507"><ele>236.0</ele><time>2026-05-03T14:43:29.203Z</time></trkpt><trkpt lat="44.8885113" lon="7.7458792"><ele>235.5</ele><time>2026-05-03T14:43:30.203Z</time></trkpt><trkpt lat="44.8881751" lon="7.7459072"><ele>235.0</ele><time>2026-05-03T14:43:31.204Z</time></trkpt><trkpt lat="44.8878376" lon="7.7459352"><ele>235.0</ele><time>2026-05-03T14:43:32.203Z</time></trkpt><trkpt lat="44.8875036" lon="7.7459594"><ele>235.0</ele><time>2026-05-03T14:43:33.203Z</time></trkpt><trkpt lat="44.8871666" lon="7.7459833"><ele>235.0</ele><time>2026-05-03T14:43:34.204Z</time></trkpt><trkpt lat="44.8868278" lon="7.7460035"><ele>235.0</ele><time>2026-05-03T14:43:35.203Z</time></trkpt><trkpt lat="44.8864853" lon="7.7460299"><ele>235.0</ele><time>2026-05-03T14:43:36.203Z</time></trkpt><trkpt lat="44.8861435" lon="7.7460557"><ele>235.0</ele><time>2026-05-03T14:43:37.204Z</time></trkpt><trkpt lat="44.885804" lon="7.7460876"><ele>235.0</ele><time>2026-05-03T14:43:38.203Z</time></trkpt><trkpt lat="44.8854633" lon="7.746117"><ele>235.0</ele><time>2026-05-03T14:43:39.203Z</time></trkpt><trkpt lat="44.8851272" lon="7.7461423"><ele>235.5</ele><time>2026-05-03T14:43:40.204Z</time></trkpt><trkpt lat="44.884792" lon="7.7461739"><ele>236.0</ele><time>2026-05-03T14:43:41.204Z</time></trkpt><trkpt lat="44.8844546" lon="7.7462009"><ele>235.5</ele><time>2026-05-03T14:43:42.204Z</time></trkpt><trkpt lat="44.8841139" lon="7.746224"><ele>235.0</ele><time>2026-05-03T14:43:43.204Z</time></trkpt><trkpt lat="44.8837719" lon="7.746251"><ele>235.0</ele><time>2026-05-03T14:43:44.203Z</time></trkpt><trkpt lat="44.8834263" lon="7.7462761"><ele>235.0</ele><time>2026-05-03T14:43:45.204Z</time></trkpt><trkpt lat="44.8830801" lon="7.7462999"><ele>235.0</ele><time>2026-05-03T14:43:46.203Z</time></trkpt><trkpt lat="44.8827348" lon="7.7463302"><ele>235.0</ele><time>2026-05-03T14:43:47.203Z</time></trkpt><trkpt lat="44.8823902" lon="7.7463573"><ele>235.5</ele><time>2026-05-03T14:43:48.204Z</time></trkpt><trkpt lat="44.8820466" lon="7.7463848"><ele>236.0</ele><time>2026-05-03T14:43:49.204Z</time></trkpt><trkpt lat="44.8817002" lon="7.7464122"><ele>236.5</ele><time>2026-05-03T14:43:50.203Z</time></trkpt><trkpt lat="44.8813559" lon="7.7464439"><ele>237.0</ele><time>2026-05-03T14:43:51.204Z</time></trkpt><trkpt lat="44.8810153" lon="7.7464723"><ele>237.0</ele><time>2026-05-03T14:43:52.204Z</time></trkpt><trkpt lat="44.8806703" lon="7.7465033"><ele>237.0</ele><time>2026-05-03T14:43:53.203Z</time></trkpt><trkpt lat="44.8803278" lon="7.7465296"><ele>236.5</ele><time>2026-05-03T14:43:54.203Z</time></trkpt><trkpt lat="44.8799865" lon="7.7465518"><ele>236.0</ele><time>2026-05-03T14:43:55.204Z</time></trkpt><trkpt lat="44.8796436" lon="7.7465778"><ele>236.0</ele><time>2026-05-03T14:43:56.203Z</time></trkpt><trkpt lat="44.8793057" lon="7.7466066"><ele>236.0</ele><time>2026-05-03T14:43:57.203Z</time></trkpt><trkpt lat="44.8789747" lon="7.7466347"><ele>236.5</ele><time>2026-05-03T14:43:58.204Z</time></trkpt><trkpt lat="44.8786436" lon="7.7466647"><ele>237.0</ele><time>2026-05-03T14:43:59.203Z</time></trkpt><trkpt lat="44.8783201" lon="7.7466889"><ele>237.0</ele><time>2026-05-03T14:44:00.203Z</time></trkpt><trkpt lat="44.8779964" lon="7.7467233"><ele>237.0</ele><time>2026-05-03T14:44:01.203Z</time></trkpt><trkpt lat="44.8776793" lon="7.7467486"><ele>237.0</ele><time>2026-05-03T14:44:02.203Z</time></trkpt><trkpt lat="44.8773582" lon="7.7467728"><ele>237.0</ele><time>2026-05-03T14:44:03.203Z</time></trkpt><trkpt lat="44.8770446" lon="7.7467945"><ele>236.5</ele><time>2026-05-03T14:44:04.203Z</time></trkpt><trkpt lat="44.8767323" lon="7.7468116"><ele>236.0</ele><time>2026-05-03T14:44:05.203Z</time></trkpt><trkpt lat="44.8764196" lon="7.746835"><ele>236.0</ele><time>2026-05-03T14:44:06.203Z</time></trkpt><trkpt lat="44.8761105" lon="7.7468619"><ele>236.0</ele><time>2026-05-03T14:44:07.203Z</time></trkpt><trkpt lat="44.8758012" lon="7.7468897"><ele>236.5</ele><time>2026-05-03T14:44:08.203Z</time></trkpt><trkpt lat="44.8754914" lon="7.746909"><ele>237.0</ele><time>2026-05-03T14:44:09.203Z</time></trkpt><trkpt lat="44.8751746" lon="7.7469297"><ele>237.5</ele><time>2026-05-03T14:44:10.204Z</time></trkpt><trkpt lat="44.8748492" lon="7.7469589"><ele>238.0</ele><time>2026-05-03T14:44:11.203Z</time></trkpt><trkpt lat="44.8745209" lon="7.7469919"><ele>239.0</ele><time>2026-05-03T14:44:12.204Z</time></trkpt><trkpt lat="44.8741847" lon="7.7470185"><ele>240.0</ele><time>2026-05-03T14:44:13.204Z</time></trkpt><trkpt lat="44.8738503" lon="7.7470464"><ele>240.0</ele><time>2026-05-03T14:44:14.203Z</time></trkpt><trkpt lat="44.8735169" lon="7.7470741"><ele>240.0</ele><time>2026-05-03T14:44:15.203Z</time></trkpt><trkpt lat="44.8731854" lon="7.7471004"><ele>240.0</ele><time>2026-05-03T14:44:16.203Z</time></trkpt><trkpt lat="44.8728568" lon="7.7471242"><ele>240.0</ele><time>2026-05-03T14:44:17.204Z</time></trkpt><trkpt lat="44.8725365" lon="7.7471446"><ele>240.0</ele><time>2026-05-03T14:44:18.203Z</time></trkpt><trkpt lat="44.8722132" lon="7.7471753"><ele>240.0</ele><time>2026-05-03T14:44:19.203Z</time></trkpt><trkpt lat="44.8718896" lon="7.7472139"><ele>239.5</ele><time>2026-05-03T14:44:20.203Z</time></trkpt><trkpt lat="44.8715668" lon="7.7472537"><ele>239.0</ele><time>2026-05-03T14:44:21.203Z</time></trkpt><trkpt lat="44.8712462" lon="7.7472908"><ele>239.5</ele><time>2026-05-03T14:44:22.204Z</time></trkpt><trkpt lat="44.8709222" lon="7.7473211"><ele>240.0</ele><time>2026-05-03T14:44:23.204Z</time></trkpt><trkpt lat="44.8706001" lon="7.7473492"><ele>240.0</ele><time>2026-05-03T14:44:24.204Z</time></trkpt><trkpt lat="44.8702749" lon="7.7473694"><ele>240.0</ele><time>2026-05-03T14:44:25.203Z</time></trkpt><trkpt lat="44.8699469" lon="7.7473947"><ele>241.0</ele><time>2026-05-03T14:44:26.204Z</time></trkpt><trkpt lat="44.8696152" lon="7.7474202"><ele>242.0</ele><time>2026-05-03T14:44:27.203Z</time></trkpt><trkpt lat="44.869282" lon="7.7474437"><ele>242.0</ele><time>2026-05-03T14:44:28.203Z</time></trkpt><trkpt lat="44.8689468" lon="7.7474715"><ele>242.0</ele><time>2026-05-03T14:44:29.203Z</time></trkpt><trkpt lat="44.8686092" lon="7.7474893"><ele>241.0</ele><time>2026-05-03T14:44:30.203Z</time></trkpt><trkpt lat="44.8682757" lon="7.7475119"><ele>240.0</ele><time>2026-05-03T14:44:31.204Z</time></trkpt><trkpt lat="44.8679412" lon="7.7475306"><ele>239.5</ele><time>2026-05-03T14:44:32.204Z</time></trkpt><trkpt lat="44.8676057" lon="7.7475575"><ele>239.0</ele><time>2026-05-03T14:44:33.203Z</time></trkpt><trkpt lat="44.8672713" lon="7.7475792"><ele>239.0</ele><time>2026-05-03T14:44:34.203Z</time></trkpt><trkpt lat="44.8669352" lon="7.7476002"><ele>239.0</ele><time>2026-05-03T14:44:35.203Z</time></trkpt><trkpt lat="44.8665949" lon="7.7476265"><ele>239.0</ele><time>2026-05-03T14:44:36.203Z</time></trkpt><trkpt lat="44.8662542" lon="7.7476513"><ele>239.0</ele><time>2026-05-03T14:44:37.203Z</time></trkpt><trkpt lat="44.8659137" lon="7.7476733"><ele>239.0</ele><time>2026-05-03T14:44:38.203Z</time></trkpt><trkpt lat="44.8655715" lon="7.7476938"><ele>239.0</ele><time>2026-05-03T14:44:39.203Z</time></trkpt><trkpt lat="44.8652296" lon="7.7477208"><ele>238.5</ele><time>2026-05-03T14:44:40.203Z</time></trkpt><trkpt lat="44.8648891" lon="7.7477497"><ele>238.0</ele><time>2026-05-03T14:44:41.204Z</time></trkpt><trkpt lat="44.8645484" lon="7.7477715"><ele>238.5</ele><time>2026-05-03T14:44:42.203Z</time></trkpt><trkpt lat="44.8642016" lon="7.7477946"><ele>239.0</ele><time>2026-05-03T14:44:43.203Z</time></trkpt><trkpt lat="44.8638565" lon="7.7478157"><ele>239.0</ele><time>2026-05-03T14:44:44.203Z</time></trkpt><trkpt lat="44.8635088" lon="7.7478394"><ele>239.0</ele><time>2026-05-03T14:44:45.203Z</time></trkpt><trkpt lat="44.8631643" lon="7.7478665"><ele>239.5</ele><time>2026-05-03T14:44:46.204Z</time></trkpt><trkpt lat="44.8628225" lon="7.7478953"><ele>240.0</ele><time>2026-05-03T14:44:47.203Z</time></trkpt><trkpt lat="44.8624834" lon="7.7479193"><ele>240.0</ele><time>2026-05-03T14:44:48.203Z</time></trkpt><trkpt lat="44.862148" lon="7.747943"><ele>240.0</ele><time>2026-05-03T14:44:49.204Z</time></trkpt><trkpt lat="44.861809" lon="7.7479668"><ele>239.5</ele><time>2026-05-03T14:44:50.204Z</time></trkpt><trkpt lat="44.8614741" lon="7.7479915"><ele>239.0</ele><time>2026-05-03T14:44:51.203Z</time></trkpt><trkpt lat="44.8611434" lon="7.7480185"><ele>239.5</ele><time>2026-05-03T14:44:52.203Z</time></trkpt><trkpt lat="44.860808" lon="7.748045"><ele>240.0</ele><time>2026-05-03T14:44:53.204Z</time></trkpt><trkpt lat="44.8604796" lon="7.7480676"><ele>240.0</ele><time>2026-05-03T14:44:54.203Z</time></trkpt><trkpt lat="44.8601521" lon="7.7480884"><ele>240.0</ele><time>2026-05-03T14:44:55.204Z</time></trkpt><trkpt lat="44.8598229" lon="7.7481119"><ele>240.0</ele><time>2026-05-03T14:44:56.204Z</time></trkpt><trkpt lat="44.8594976" lon="7.7481243"><ele>240.0</ele><time>2026-05-03T14:44:57.203Z</time></trkpt><trkpt lat="44.8591822" lon="7.7481506"><ele>240.0</ele><time>2026-05-03T14:44:58.203Z</time></trkpt><trkpt lat="44.8588731" lon="7.7481704"><ele>240.0</ele><time>2026-05-03T14:44:59.203Z</time></trkpt><trkpt lat="44.8585695" lon="7.7481976"><ele>241.0</ele><time>2026-05-03T14:45:00.203Z</time></trkpt><trkpt lat="44.8582755" lon="7.7482193"><ele>242.0</ele><time>2026-05-03T14:45:01.203Z</time></trkpt><trkpt lat="44.8579908" lon="7.7482414"><ele>242.0</ele><time>2026-05-03T14:45:02.203Z</time></trkpt><trkpt lat="44.8577159" lon="7.7482633"><ele>242.0</ele><time>2026-05-03T14:45:03.203Z</time></trkpt><trkpt lat="44.8574441" lon="7.7482786"><ele>241.5</ele><time>2026-05-03T14:45:04.203Z</time></trkpt><trkpt lat="44.8571877" lon="7.7482925"><ele>241.0</ele><time>2026-05-03T14:45:05.203Z</time></trkpt><trkpt lat="44.8569362" lon="7.7483078"><ele>240.5</ele><time>2026-05-03T14:45:06.204Z</time></trkpt><trkpt lat="44.8566871" lon="7.7483185"><ele>240.0</ele><time>2026-05-03T14:45:07.203Z</time></trkpt><trkpt lat="44.8564495" lon="7.7483178"><ele>240.0</ele><time>2026-05-03T14:45:08.203Z</time></trkpt><trkpt lat="44.8562286" lon="7.748319"><ele>240.0</ele><time>2026-05-03T14:45:09.203Z</time></trkpt><trkpt lat="44.856024" lon="7.7483249"><ele>240.0</ele><time>2026-05-03T14:45:10.203Z</time></trkpt><trkpt lat="44.8558407" lon="7.7483341"><ele>241.0</ele><time>2026-05-03T14:45:11.204Z</time></trkpt><trkpt lat="44.8556711" lon="7.7483336"><ele>242.0</ele><time>2026-05-03T14:45:12.203Z</time></trkpt><trkpt lat="44.8555253" lon="7.7483176"><ele>243.0</ele><time>2026-05-03T14:45:13.203Z</time></trkpt><trkpt lat="44.8553949" lon="7.7482759"><ele>243.0</ele><time>2026-05-03T14:45:14.204Z</time></trkpt><trkpt lat="44.8552766" lon="7.7482237"><ele>243.0</ele><time>2026-05-03T14:45:15.203Z</time></trkpt><trkpt lat="44.8551606" lon="7.7481766"><ele>243.0</ele><time>2026-05-03T14:45:16.203Z</time></trkpt><trkpt lat="44.8550524" lon="7.7481239"><ele>243.0</ele><time>2026-05-03T14:45:17.203Z</time></trkpt><trkpt lat="44.8549474" lon="7.7480749"><ele>243.16666666666666</ele><time>2026-05-03T14:45:18.203Z</time></trkpt><trkpt lat="44.8548603" lon="7.7480472"><ele>243.33333333333331</ele><time>2026-05-03T14:45:19.203Z</time></trkpt><trkpt lat="44.8547826" lon="7.7480349"><ele>243.5</ele><time>2026-05-03T14:45:20.203Z</time></trkpt><trkpt lat="44.8547105" lon="7.7480346"><ele>243.66666666666666</ele><time>2026-05-03T14:45:21.203Z</time></trkpt><trkpt lat="44.8546329" lon="7.7480392"><ele>243.83333333333331</ele><time>2026-05-03T14:45:22.204Z</time></trkpt><trkpt lat="44.8545472" lon="7.7480526"><ele>244.0</ele><time>2026-05-03T14:45:23.203Z</time></trkpt><trkpt lat="44.854462" lon="7.7480639"><ele>244.0</ele><time>2026-05-03T14:45:24.203Z</time></trkpt><trkpt lat="44.8543811" lon="7.7480696"><ele>243.99999999999997</ele><time>2026-05-03T14:45:25.203Z</time></trkpt><trkpt lat="44.8543038" lon="7.7480772"><ele>243.99999999999997</ele><time>2026-05-03T14:45:26.203Z</time></trkpt><trkpt lat="44.854199" lon="7.7480891"><ele>244.0</ele><time>2026-05-03T14:45:28.203Z</time></trkpt><trkpt lat="44.8540814" lon="7.7480945"><ele>244.0</ele><time>2026-05-03T14:45:52.203Z</time></trkpt><trkpt lat="44.8539569" lon="7.748086"><ele>243.83333333333331</ele><time>2026-05-03T14:45:54.203Z</time></trkpt><trkpt lat="44.8538852" lon="7.7481031"><ele>243.66666666666666</ele><time>2026-05-03T14:45:55.204Z</time></trkpt><trkpt lat="44.8538119" lon="7.7481265"><ele>243.5</ele><time>2026-05-03T14:45:56.204Z</time></trkpt><trkpt lat="44.8537352" lon="7.74816"><ele>243.33333333333331</ele><time>2026-05-03T14:45:57.203Z</time></trkpt><trkpt lat="44.8536538" lon="7.7481982"><ele>243.16666666666666</ele><time>2026-05-03T14:45:58.203Z</time></trkpt><trkpt lat="44.853564" lon="7.7482381"><ele>243.0</ele><time>2026-05-03T14:45:59.203Z</time></trkpt><trkpt lat="44.8534617" lon="7.7482818"><ele>243.25</ele><time>2026-05-03T14:46:00.203Z</time></trkpt><trkpt lat="44.853344" lon="7.7483305"><ele>243.5</ele><time>2026-05-03T14:46:01.204Z</time></trkpt><trkpt lat="44.8532113" lon="7.7483728"><ele>243.75</ele><time>2026-05-03T14:46:02.204Z</time></trkpt><trkpt lat="44.85306" lon="7.748415"><ele>244.0</ele><time>2026-05-03T14:46:03.203Z</time></trkpt><trkpt lat="44.8529018" lon="7.7484503"><ele>244.0</ele><time>2026-05-03T14:46:04.203Z</time></trkpt><trkpt lat="44.8527345" lon="7.7484833"><ele>244.0</ele><time>2026-05-03T14:46:05.203Z</time></trkpt><trkpt lat="44.8525559" lon="7.7485191"><ele>244.0</ele><time>2026-05-03T14:46:06.204Z</time></trkpt><trkpt lat="44.8523636" lon="7.7485485"><ele>244.0</ele><time>2026-05-03T14:46:07.203Z</time></trkpt><trkpt lat="44.8521659" lon="7.7485678"><ele>244.0</ele><time>2026-05-03T14:46:08.203Z</time></trkpt><trkpt lat="44.8519595" lon="7.748593"><ele>244.0</ele><time>2026-05-03T14:46:09.204Z</time></trkpt><trkpt lat="44.8517457" lon="7.748611"><ele>244.0</ele><time>2026-05-03T14:46:10.203Z</time></trkpt><trkpt lat="44.8515267" lon="7.7486313"><ele>244.0</ele><time>2026-05-03T14:46:11.203Z</time></trkpt><trkpt lat="44.8512941" lon="7.7486478"><ele>244.0</ele><time>2026-05-03T14:46:12.203Z</time></trkpt><trkpt lat="44.8510565" lon="7.7486714"><ele>244.0</ele><time>2026-05-03T14:46:13.204Z</time></trkpt><trkpt lat="44.8508074" lon="7.7486926"><ele>244.0</ele><time>2026-05-03T14:46:14.203Z</time></trkpt><trkpt lat="44.8505518" lon="7.7487115"><ele>244.0</ele><time>2026-05-03T14:46:15.203Z</time></trkpt><trkpt lat="44.8502902" lon="7.7487337"><ele>243.5</ele><time>2026-05-03T14:46:16.204Z</time></trkpt><trkpt lat="44.8500213" lon="7.7487592"><ele>243.0</ele><time>2026-05-03T14:46:17.203Z</time></trkpt><trkpt lat="44.8497492" lon="7.7487794"><ele>243.0</ele><time>2026-05-03T14:46:18.203Z</time></trkpt><trkpt lat="44.8494719" lon="7.7487935"><ele>243.0</ele><time>2026-05-03T14:46:19.203Z</time></trkpt><trkpt lat="44.8491902" lon="7.7488112"><ele>241.5</ele><time>2026-05-03T14:46:20.203Z</time></trkpt><trkpt lat="44.8489045" lon="7.7488328"><ele>240.0</ele><time>2026-05-03T14:46:21.203Z</time></trkpt><trkpt lat="44.8486121" lon="7.7488505"><ele>241.5</ele><time>2026-05-03T14:46:22.203Z</time></trkpt><trkpt lat="44.8483201" lon="7.7488759"><ele>243.0</ele><time>2026-05-03T14:46:23.204Z</time></trkpt><trkpt lat="44.8480245" lon="7.7488947"><ele>243.0</ele><time>2026-05-03T14:46:24.203Z</time></trkpt><trkpt lat="44.847729" lon="7.748917"><ele>243.0</ele><time>2026-05-03T14:46:25.203Z</time></trkpt><trkpt lat="44.8474268" lon="7.7489337"><ele>244.0</ele><time>2026-05-03T14:46:26.203Z</time></trkpt><trkpt lat="44.8471254" lon="7.7489549"><ele>245.0</ele><time>2026-05-03T14:46:27.203Z</time></trkpt><trkpt lat="44.8468167" lon="7.7489728"><ele>243.5</ele><time>2026-05-03T14:46:28.204Z</time></trkpt><trkpt lat="44.8465085" lon="7.7489962"><ele>242.0</ele><time>2026-05-03T14:46:29.203Z</time></trkpt><trkpt lat="44.8461989" lon="7.7490172"><ele>242.5</ele><time>2026-05-03T14:46:30.203Z</time></trkpt><trkpt lat="44.8458916" lon="7.7490399"><ele>243.0</ele><time>2026-05-03T14:46:31.204Z</time></trkpt><trkpt lat="44.8455797" lon="7.7490586"><ele>243.0</ele><time>2026-05-03T14:46:32.203Z</time></trkpt><trkpt lat="44.8452678" lon="7.74908"><ele>243.0</ele><time>2026-05-03T14:46:33.203Z</time></trkpt><trkpt lat="44.844954" lon="7.7491025"><ele>242.5</ele><time>2026-05-03T14:46:34.203Z</time></trkpt><trkpt lat="44.8446392" lon="7.7491244"><ele>242.0</ele><time>2026-05-03T14:46:35.203Z</time></trkpt><trkpt lat="44.8443246" lon="7.7491483"><ele>243.0</ele><time>2026-05-03T14:46:36.203Z</time></trkpt><trkpt lat="44.8440078" lon="7.7491682"><ele>244.0</ele><time>2026-05-03T14:46:37.204Z</time></trkpt><trkpt lat="44.8436896" lon="7.7491896"><ele>243.5</ele><time>2026-05-03T14:46:38.203Z</time></trkpt><trkpt lat="44.8433695" lon="7.7492089"><ele>243.0</ele><time>2026-05-03T14:46:39.204Z</time></trkpt><trkpt lat="44.8430441" lon="7.7492385"><ele>243.0</ele><time>2026-05-03T14:46:40.204Z</time></trkpt><trkpt lat="44.8427149" lon="7.7492613"><ele>243.0</ele><time>2026-05-03T14:46:41.203Z</time></trkpt><trkpt lat="44.8423857" lon="7.7492867"><ele>243.0</ele><time>2026-05-03T14:46:42.203Z</time></trkpt><trkpt lat="44.8420596" lon="7.7493125"><ele>243.0</ele><time>2026-05-03T14:46:43.204Z</time></trkpt><trkpt lat="44.8417364" lon="7.7493269"><ele>243.0</ele><time>2026-05-03T14:46:44.204Z</time></trkpt><trkpt lat="44.8414076" lon="7.7493482"><ele>243.0</ele><time>2026-05-03T14:46:45.203Z</time></trkpt><trkpt lat="44.8410787" lon="7.7493676"><ele>243.5</ele><time>2026-05-03T14:46:46.203Z</time></trkpt><trkpt lat="44.8407509" lon="7.749394"><ele>244.0</ele><time>2026-05-03T14:46:47.204Z</time></trkpt><trkpt lat="44.8404149" lon="7.7494207"><ele>244.0</ele><time>2026-05-03T14:46:48.203Z</time></trkpt><trkpt lat="44.8400795" lon="7.7494499"><ele>244.0</ele><time>2026-05-03T14:46:49.203Z</time></trkpt><trkpt lat="44.8397484" lon="7.7494664"><ele>244.0</ele><time>2026-05-03T14:46:50.203Z</time></trkpt><trkpt lat="44.8394174" lon="7.7494902"><ele>244.0</ele><time>2026-05-03T14:46:51.204Z</time></trkpt><trkpt lat="44.8390875" lon="7.7495127"><ele>244.0</ele><time>2026-05-03T14:46:52.203Z</time></trkpt><trkpt lat="44.8387617" lon="7.7495352"><ele>244.0</ele><time>2026-05-03T14:46:53.204Z</time></trkpt><trkpt lat="44.838435" lon="7.7495592"><ele>245.0</ele><time>2026-05-03T14:46:54.203Z</time></trkpt><trkpt lat="44.8381086" lon="7.7495825"><ele>246.0</ele><time>2026-05-03T14:46:55.203Z</time></trkpt><trkpt lat="44.837781" lon="7.749602"><ele>244.5</ele><time>2026-05-03T14:46:56.204Z</time></trkpt><trkpt lat="44.8374485" lon="7.7496258"><ele>243.0</ele><time>2026-05-03T14:46:57.203Z</time></trkpt><trkpt lat="44.8371155" lon="7.7496488"><ele>243.5</ele><time>2026-05-03T14:46:58.203Z</time></trkpt><trkpt lat="44.8367819" lon="7.749672"><ele>244.0</ele><time>2026-05-03T14:46:59.203Z</time></trkpt><trkpt lat="44.8364486" lon="7.7496977"><ele>244.0</ele><time>2026-05-03T14:47:00.203Z</time></trkpt><trkpt lat="44.8361145" lon="7.7497208"><ele>244.0</ele><time>2026-05-03T14:47:01.204Z</time></trkpt><trkpt lat="44.8357815" lon="7.7497414"><ele>244.5</ele><time>2026-05-03T14:47:02.203Z</time></trkpt><trkpt lat="44.8354445" lon="7.7497568"><ele>245.0</ele><time>2026-05-03T14:47:03.204Z</time></trkpt><trkpt lat="44.8351108" lon="7.7497808"><ele>245.0</ele><time>2026-05-03T14:47:04.204Z</time></trkpt><trkpt lat="44.8347795" lon="7.7498084"><ele>245.0</ele><time>2026-05-03T14:47:05.203Z</time></trkpt><trkpt lat="44.8344454" lon="7.7498338"><ele>245.5</ele><time>2026-05-03T14:47:06.203Z</time></trkpt><trkpt lat="44.8341083" lon="7.7498646"><ele>246.0</ele><time>2026-05-03T14:47:07.203Z</time></trkpt><trkpt lat="44.833776" lon="7.7498939"><ele>245.5</ele><time>2026-05-03T14:47:08.204Z</time></trkpt><trkpt lat="44.8334428" lon="7.7499212"><ele>245.0</ele><time>2026-05-03T14:47:09.203Z</time></trkpt><trkpt lat="44.8331091" lon="7.7499564"><ele>245.0</ele><time>2026-05-03T14:47:10.203Z</time></trkpt><trkpt lat="44.8327772" lon="7.7499919"><ele>245.0</ele><time>2026-05-03T14:47:11.203Z</time></trkpt><trkpt lat="44.8324469" lon="7.7500188"><ele>245.0</ele><time>2026-05-03T14:47:12.204Z</time></trkpt><trkpt lat="44.8321163" lon="7.7500517"><ele>245.0</ele><time>2026-05-03T14:47:13.205Z</time></trkpt><trkpt lat="44.8317855" lon="7.7500788"><ele>245.5</ele><time>2026-05-03T14:47:14.205Z</time></trkpt><trkpt lat="44.8314529" lon="7.7501005"><ele>246.0</ele><time>2026-05-03T14:47:15.204Z</time></trkpt><trkpt lat="44.8311205" lon="7.7501259"><ele>246.0</ele><time>2026-05-03T14:47:16.204Z</time></trkpt><trkpt lat="44.8307863" lon="7.7501508"><ele>246.0</ele><time>2026-05-03T14:47:17.204Z</time></trkpt><trkpt lat="44.8304502" lon="7.7501728"><ele>245.0</ele><time>2026-05-03T14:47:18.204Z</time></trkpt><trkpt lat="44.8301143" lon="7.7501958"><ele>244.0</ele><time>2026-05-03T14:47:19.205Z</time></trkpt><trkpt lat="44.8297808" lon="7.7502161"><ele>244.0</ele><time>2026-05-03T14:47:20.205Z</time></trkpt><trkpt lat="44.8294489" lon="7.7502373"><ele>244.0</ele><time>2026-05-03T14:47:21.205Z</time></trkpt><trkpt lat="44.8291167" lon="7.750261"><ele>244.5</ele><time>2026-05-03T14:47:22.205Z</time></trkpt><trkpt lat="44.8287803" lon="7.7502787"><ele>245.0</ele><time>2026-05-03T14:47:23.205Z</time></trkpt><trkpt lat="44.8284512" lon="7.750298"><ele>245.5</ele><time>2026-05-03T14:47:24.205Z</time></trkpt><trkpt lat="44.8281194" lon="7.7503155"><ele>246.0</ele><time>2026-05-03T14:47:25.204Z</time></trkpt><trkpt lat="44.8277834" lon="7.7503211"><ele>246.5</ele><time>2026-05-03T14:47:26.204Z</time></trkpt><trkpt lat="44.8274485" lon="7.7503391"><ele>247.0</ele><time>2026-05-03T14:47:27.204Z</time></trkpt><trkpt lat="44.8271186" lon="7.7503598"><ele>246.5</ele><time>2026-05-03T14:47:28.205Z</time></trkpt><trkpt lat="44.8267885" lon="7.7503798"><ele>246.0</ele><time>2026-05-03T14:47:29.205Z</time></trkpt><trkpt lat="44.8264603" lon="7.750402"><ele>246.0</ele><time>2026-05-03T14:47:30.205Z</time></trkpt><trkpt lat="44.8261309" lon="7.7504224"><ele>246.0</ele><time>2026-05-03T14:47:31.205Z</time></trkpt><trkpt lat="44.8258014" lon="7.7504496"><ele>245.0</ele><time>2026-05-03T14:47:32.204Z</time></trkpt><trkpt lat="44.8254743" lon="7.7504693"><ele>244.0</ele><time>2026-05-03T14:47:33.205Z</time></trkpt><trkpt lat="44.8251473" lon="7.7504958"><ele>245.0</ele><time>2026-05-03T14:47:34.204Z</time></trkpt><trkpt lat="44.8248207" lon="7.7505172"><ele>246.0</ele><time>2026-05-03T14:47:35.204Z</time></trkpt><trkpt lat="44.8244928" lon="7.750548"><ele>245.5</ele><time>2026-05-03T14:47:36.204Z</time></trkpt><trkpt lat="44.8241641" lon="7.7505687"><ele>245.0</ele><time>2026-05-03T14:47:37.205Z</time></trkpt><trkpt lat="44.8238386" lon="7.7505913"><ele>245.0</ele><time>2026-05-03T14:47:38.205Z</time></trkpt><trkpt lat="44.8235154" lon="7.7506163"><ele>245.0</ele><time>2026-05-03T14:47:39.204Z</time></trkpt><trkpt lat="44.8231892" lon="7.7506347"><ele>246.0</ele><time>2026-05-03T14:47:40.204Z</time></trkpt><trkpt lat="44.8228581" lon="7.7506584"><ele>247.0</ele><time>2026-05-03T14:47:41.205Z</time></trkpt><trkpt lat="44.822529" lon="7.7506879"><ele>249.0</ele><time>2026-05-03T14:47:42.204Z</time></trkpt><trkpt lat="44.8222014" lon="7.7507117"><ele>251.0</ele><time>2026-05-03T14:47:43.205Z</time></trkpt><trkpt lat="44.8218672" lon="7.7507347"><ele>249.0</ele><time>2026-05-03T14:47:44.204Z</time></trkpt><trkpt lat="44.8215269" lon="7.7507553"><ele>247.0</ele><time>2026-05-03T14:47:45.204Z</time></trkpt><trkpt lat="44.8211757" lon="7.7507811"><ele>247.0</ele><time>2026-05-03T14:47:46.204Z</time></trkpt><trkpt lat="44.8208219" lon="7.7507996"><ele>247.0</ele><time>2026-05-03T14:47:47.204Z</time></trkpt><trkpt lat="44.8204671" lon="7.7508242"><ele>247.5</ele><time>2026-05-03T14:47:48.204Z</time></trkpt><trkpt lat="44.8201151" lon="7.7508499"><ele>248.0</ele><time>2026-05-03T14:47:49.205Z</time></trkpt><trkpt lat="44.819762" lon="7.7508798"><ele>248.0</ele><time>2026-05-03T14:47:50.205Z</time></trkpt><trkpt lat="44.8194094" lon="7.7509076"><ele>248.0</ele><time>2026-05-03T14:47:51.205Z</time></trkpt><trkpt lat="44.8190594" lon="7.7509345"><ele>247.5</ele><time>2026-05-03T14:47:52.205Z</time></trkpt><trkpt lat="44.8187095" lon="7.7509642"><ele>247.0</ele><time>2026-05-03T14:47:53.205Z</time></trkpt><trkpt lat="44.8183625" lon="7.7509852"><ele>247.0</ele><time>2026-05-03T14:47:54.204Z</time></trkpt><trkpt lat="44.8180188" lon="7.7510101"><ele>247.0</ele><time>2026-05-03T14:47:55.204Z</time></trkpt><trkpt lat="44.8176863" lon="7.7510287"><ele>248.0</ele><time>2026-05-03T14:47:56.205Z</time></trkpt><trkpt lat="44.8173623" lon="7.7510459"><ele>249.0</ele><time>2026-05-03T14:47:57.204Z</time></trkpt><trkpt lat="44.8170441" lon="7.7510696"><ele>249.5</ele><time>2026-05-03T14:47:58.204Z</time></trkpt><trkpt lat="44.8167314" lon="7.7510888"><ele>250.0</ele><time>2026-05-03T14:47:59.204Z</time></trkpt><trkpt lat="44.8164097" lon="7.7511108"><ele>250.0</ele><time>2026-05-03T14:48:00.204Z</time></trkpt><trkpt lat="44.8160928" lon="7.751129"><ele>250.0</ele><time>2026-05-03T14:48:01.204Z</time></trkpt><trkpt lat="44.8157774" lon="7.7511512"><ele>250.0</ele><time>2026-05-03T14:48:02.205Z</time></trkpt><trkpt lat="44.8154547" lon="7.7511761"><ele>250.0</ele><time>2026-05-03T14:48:03.204Z</time></trkpt><trkpt lat="44.8151321" lon="7.7511989"><ele>250.0</ele><time>2026-05-03T14:48:04.204Z</time></trkpt><trkpt lat="44.8148079" lon="7.7512223"><ele>250.0</ele><time>2026-05-03T14:48:05.204Z</time></trkpt><trkpt lat="44.8144831" lon="7.7512451"><ele>250.0</ele><time>2026-05-03T14:48:06.205Z</time></trkpt><trkpt lat="44.8141587" lon="7.7512694"><ele>250.0</ele><time>2026-05-03T14:48:07.204Z</time></trkpt><trkpt lat="44.8138335" lon="7.7512935"><ele>250.0</ele><time>2026-05-03T14:48:08.204Z</time></trkpt><trkpt lat="44.813508" lon="7.7513168"><ele>250.0</ele><time>2026-05-03T14:48:09.204Z</time></trkpt><trkpt lat="44.8131807" lon="7.7513492"><ele>250.0</ele><time>2026-05-03T14:48:10.204Z</time></trkpt><trkpt lat="44.8128565" lon="7.7513689"><ele>250.0</ele><time>2026-05-03T14:48:11.204Z</time></trkpt><trkpt lat="44.8125291" lon="7.7513912"><ele>250.5</ele><time>2026-05-03T14:48:12.204Z</time></trkpt><trkpt lat="44.8121976" lon="7.7514153"><ele>251.0</ele><time>2026-05-03T14:48:13.204Z</time></trkpt><trkpt lat="44.811865" lon="7.7514345"><ele>250.5</ele><time>2026-05-03T14:48:14.205Z</time></trkpt><trkpt lat="44.811534" lon="7.7514499"><ele>250.0</ele><time>2026-05-03T14:48:15.204Z</time></trkpt><trkpt lat="44.8112024" lon="7.7514741"><ele>250.0</ele><time>2026-05-03T14:48:16.204Z</time></trkpt><trkpt lat="44.8108686" lon="7.7514992"><ele>250.0</ele><time>2026-05-03T14:48:17.204Z</time></trkpt><trkpt lat="44.810539" lon="7.7515321"><ele>250.0</ele><time>2026-05-03T14:48:18.204Z</time></trkpt><trkpt lat="44.8102068" lon="7.7515612"><ele>250.0</ele><time>2026-05-03T14:48:19.205Z</time></trkpt><trkpt lat="44.8098796" lon="7.7515842"><ele>251.5</ele><time>2026-05-03T14:48:20.205Z</time></trkpt><trkpt lat="44.809554" lon="7.7516114"><ele>253.0</ele><time>2026-05-03T14:48:21.204Z</time></trkpt><trkpt lat="44.8092305" lon="7.7516256"><ele>253.5</ele><time>2026-05-03T14:48:22.204Z</time></trkpt><trkpt lat="44.8089082" lon="7.751644"><ele>254.0</ele><time>2026-05-03T14:48:23.204Z</time></trkpt><trkpt lat="44.8085802" lon="7.7516613"><ele>253.5</ele><time>2026-05-03T14:48:24.204Z</time></trkpt><trkpt lat="44.8082526" lon="7.7516866"><ele>253.0</ele><time>2026-05-03T14:48:25.204Z</time></trkpt><trkpt lat="44.8079228" lon="7.7517083"><ele>253.5</ele><time>2026-05-03T14:48:26.204Z</time></trkpt><trkpt lat="44.8075916" lon="7.7517302"><ele>254.0</ele><time>2026-05-03T14:48:27.205Z</time></trkpt><trkpt lat="44.8072635" lon="7.7517553"><ele>254.0</ele><time>2026-05-03T14:48:28.204Z</time></trkpt><trkpt lat="44.8069347" lon="7.7517876"><ele>254.0</ele><time>2026-05-03T14:48:29.205Z</time></trkpt><trkpt lat="44.8066029" lon="7.7518082"><ele>254.0</ele><time>2026-05-03T14:48:30.204Z</time></trkpt><trkpt lat="44.8062703" lon="7.7518352"><ele>254.0</ele><time>2026-05-03T14:48:31.205Z</time></trkpt><trkpt lat="44.8059402" lon="7.7518614"><ele>253.5</ele><time>2026-05-03T14:48:32.204Z</time></trkpt><trkpt lat="44.805606" lon="7.7518819"><ele>253.0</ele><time>2026-05-03T14:48:33.205Z</time></trkpt><trkpt lat="44.8052734" lon="7.7519061"><ele>252.5</ele><time>2026-05-03T14:48:34.205Z</time></trkpt><trkpt lat="44.8049388" lon="7.7519296"><ele>252.0</ele><time>2026-05-03T14:48:35.205Z</time></trkpt><trkpt lat="44.8046068" lon="7.7519502"><ele>252.5</ele><time>2026-05-03T14:48:36.204Z</time></trkpt><trkpt lat="44.8042704" lon="7.751975"><ele>253.0</ele><time>2026-05-03T14:48:37.204Z</time></trkpt><trkpt lat="44.803936" lon="7.7519957"><ele>253.0</ele><time>2026-05-03T14:48:38.204Z</time></trkpt><trkpt lat="44.803602" lon="7.7520173"><ele>253.0</ele><time>2026-05-03T14:48:39.204Z</time></trkpt><trkpt lat="44.8032698" lon="7.7520414"><ele>253.0</ele><time>2026-05-03T14:48:40.204Z</time></trkpt><trkpt lat="44.802937" lon="7.7520662"><ele>253.0</ele><time>2026-05-03T14:48:41.204Z</time></trkpt><trkpt lat="44.8026028" lon="7.7520874"><ele>253.0</ele><time>2026-05-03T14:48:42.204Z</time></trkpt><trkpt lat="44.8022691" lon="7.752109"><ele>253.0</ele><time>2026-05-03T14:48:43.204Z</time></trkpt><trkpt lat="44.8019375" lon="7.7521316"><ele>253.0</ele><time>2026-05-03T14:48:44.205Z</time></trkpt><trkpt lat="44.8016008" lon="7.7521584"><ele>253.0</ele><time>2026-05-03T14:48:45.205Z</time></trkpt><trkpt lat="44.8012682" lon="7.7521867"><ele>253.5</ele><time>2026-05-03T14:48:46.204Z</time></trkpt><trkpt lat="44.800934" lon="7.7522181"><ele>254.0</ele><time>2026-05-03T14:48:47.204Z</time></trkpt><trkpt lat="44.8006002" lon="7.7522349"><ele>254.0</ele><time>2026-05-03T14:48:48.204Z</time></trkpt><trkpt lat="44.8002632" lon="7.7522539"><ele>254.0</ele><time>2026-05-03T14:48:49.204Z</time></trkpt><trkpt lat="44.7999316" lon="7.7522786"><ele>254.5</ele><time>2026-05-03T14:48:50.204Z</time></trkpt><trkpt lat="44.7996024" lon="7.7523031"><ele>255.0</ele><time>2026-05-03T14:48:51.204Z</time></trkpt><trkpt lat="44.7992706" lon="7.7523328"><ele>255.0</ele><time>2026-05-03T14:48:52.204Z</time></trkpt><trkpt lat="44.798939" lon="7.7523576"><ele>255.0</ele><time>2026-05-03T14:48:53.204Z</time></trkpt><trkpt lat="44.7986065" lon="7.7523876"><ele>255.0</ele><time>2026-05-03T14:48:54.204Z</time></trkpt><trkpt lat="44.7982781" lon="7.7524196"><ele>255.0</ele><time>2026-05-03T14:48:55.204Z</time></trkpt><trkpt lat="44.797947" lon="7.7524495"><ele>255.5</ele><time>2026-05-03T14:48:56.206Z</time></trkpt><trkpt lat="44.7976149" lon="7.7524761"><ele>256.0</ele><time>2026-05-03T14:48:57.205Z</time></trkpt><trkpt lat="44.7972864" lon="7.7525053"><ele>256.0</ele><time>2026-05-03T14:48:58.206Z</time></trkpt><trkpt lat="44.7969544" lon="7.7525326"><ele>256.0</ele><time>2026-05-03T14:48:59.205Z</time></trkpt><trkpt lat="44.7966255" lon="7.7525533"><ele>256.0</ele><time>2026-05-03T14:49:00.206Z</time></trkpt><trkpt lat="44.7962934" lon="7.7525793"><ele>256.0</ele><time>2026-05-03T14:49:01.206Z</time></trkpt><trkpt lat="44.7959553" lon="7.7526016"><ele>255.5</ele><time>2026-05-03T14:49:02.206Z</time></trkpt><trkpt lat="44.7956195" lon="7.7526286"><ele>255.0</ele><time>2026-05-03T14:49:03.206Z</time></trkpt><trkpt lat="44.7952851" lon="7.7526517"><ele>253.5</ele><time>2026-05-03T14:49:04.205Z</time></trkpt><trkpt lat="44.7949504" lon="7.7526755"><ele>252.0</ele><time>2026-05-03T14:49:05.205Z</time></trkpt><trkpt lat="44.7946187" lon="7.7526985"><ele>252.0</ele><time>2026-05-03T14:49:06.205Z</time></trkpt><trkpt lat="44.794282" lon="7.7527225"><ele>252.0</ele><time>2026-05-03T14:49:07.205Z</time></trkpt><trkpt lat="44.7939485" lon="7.7527452"><ele>252.0</ele><time>2026-05-03T14:49:08.205Z</time></trkpt><trkpt lat="44.7936137" lon="7.7527684"><ele>252.0</ele><time>2026-05-03T14:49:09.205Z</time></trkpt><trkpt lat="44.7932801" lon="7.7527904"><ele>252.0</ele><time>2026-05-03T14:49:10.205Z</time></trkpt><trkpt lat="44.7929511" lon="7.7528136"><ele>252.0</ele><time>2026-05-03T14:49:11.206Z</time></trkpt><trkpt lat="44.7926181" lon="7.7528314"><ele>253.0</ele><time>2026-05-03T14:49:12.205Z</time></trkpt><trkpt lat="44.7922854" lon="7.7528497"><ele>254.0</ele><time>2026-05-03T14:49:13.205Z</time></trkpt><trkpt lat="44.7919541" lon="7.7528684"><ele>253.5</ele><time>2026-05-03T14:49:14.205Z</time></trkpt><trkpt lat="44.7916224" lon="7.7528819"><ele>253.0</ele><time>2026-05-03T14:49:15.205Z</time></trkpt><trkpt lat="44.7912887" lon="7.7528912"><ele>253.5</ele><time>2026-05-03T14:49:16.205Z</time></trkpt><trkpt lat="44.790954" lon="7.7529035"><ele>254.0</ele><time>2026-05-03T14:49:17.205Z</time></trkpt><trkpt lat="44.7906157" lon="7.7529227"><ele>254.0</ele><time>2026-05-03T14:49:18.206Z</time></trkpt><trkpt lat="44.7902831" lon="7.7529385"><ele>254.0</ele><time>2026-05-03T14:49:19.205Z</time></trkpt><trkpt lat="44.7899448" lon="7.7529634"><ele>254.0</ele><time>2026-05-03T14:49:20.205Z</time></trkpt><trkpt lat="44.7896065" lon="7.7529912"><ele>254.0</ele><time>2026-05-03T14:49:21.205Z</time></trkpt><trkpt lat="44.7892689" lon="7.753008"><ele>254.0</ele><time>2026-05-03T14:49:22.206Z</time></trkpt><trkpt lat="44.7889264" lon="7.7530149"><ele>254.0</ele><time>2026-05-03T14:49:23.205Z</time></trkpt><trkpt lat="44.7885866" lon="7.75302"><ele>255.5</ele><time>2026-05-03T14:49:24.206Z</time></trkpt><trkpt lat="44.7882478" lon="7.7530184"><ele>257.0</ele><time>2026-05-03T14:49:25.205Z</time></trkpt><trkpt lat="44.787907" lon="7.7530137"><ele>256.0</ele><time>2026-05-03T14:49:26.205Z</time></trkpt><trkpt lat="44.7875682" lon="7.7530085"><ele>255.0</ele><time>2026-05-03T14:49:27.205Z</time></trkpt><trkpt lat="44.7872275" lon="7.7530001"><ele>255.0</ele><time>2026-05-03T14:49:28.206Z</time></trkpt><trkpt lat="44.7868935" lon="7.7529856"><ele>255.0</ele><time>2026-05-03T14:49:29.206Z</time></trkpt><trkpt lat="44.7865588" lon="7.7529745"><ele>254.5</ele><time>2026-05-03T14:49:30.205Z</time></trkpt><trkpt lat="44.7862221" lon="7.7529536"><ele>254.0</ele><time>2026-05-03T14:49:31.205Z</time></trkpt><trkpt lat="44.7858844" lon="7.7529368"><ele>254.0</ele><time>2026-05-03T14:49:32.206Z</time></trkpt><trkpt lat="44.7855508" lon="7.7529086"><ele>254.0</ele><time>2026-05-03T14:49:33.205Z</time></trkpt><trkpt lat="44.7852186" lon="7.7528784"><ele>254.5</ele><time>2026-05-03T14:49:34.205Z</time></trkpt><trkpt lat="44.7848856" lon="7.7528551"><ele>255.0</ele><time>2026-05-03T14:49:35.205Z</time></trkpt><trkpt lat="44.7845524" lon="7.7528281"><ele>255.0</ele><time>2026-05-03T14:49:36.206Z</time></trkpt><trkpt lat="44.7842198" lon="7.7528012"><ele>255.0</ele><time>2026-05-03T14:49:37.206Z</time></trkpt><trkpt lat="44.7838869" lon="7.7527781"><ele>255.0</ele><time>2026-05-03T14:49:38.206Z</time></trkpt><trkpt lat="44.7835567" lon="7.7527477"><ele>255.0</ele><time>2026-05-03T14:49:39.205Z</time></trkpt><trkpt lat="44.7832235" lon="7.7527212"><ele>255.0</ele><time>2026-05-03T14:49:40.206Z</time></trkpt><trkpt lat="44.7828886" lon="7.7526896"><ele>255.0</ele><time>2026-05-03T14:49:41.205Z</time></trkpt><trkpt lat="44.7825516" lon="7.7526589"><ele>256.5</ele><time>2026-05-03T14:49:42.206Z</time></trkpt><trkpt lat="44.7822208" lon="7.7526267"><ele>258.0</ele><time>2026-05-03T14:49:43.205Z</time></trkpt><trkpt lat="44.7818817" lon="7.7525971"><ele>258.0</ele><time>2026-05-03T14:49:44.205Z</time></trkpt><trkpt lat="44.7815451" lon="7.7525625"><ele>258.0</ele><time>2026-05-03T14:49:45.206Z</time></trkpt><trkpt lat="44.7812098" lon="7.7525275"><ele>257.5</ele><time>2026-05-03T14:49:46.206Z</time></trkpt><trkpt lat="44.780872" lon="7.7524934"><ele>257.0</ele><time>2026-05-03T14:49:47.205Z</time></trkpt><trkpt lat="44.7805357" lon="7.7524576"><ele>257.0</ele><time>2026-05-03T14:49:48.205Z</time></trkpt><trkpt lat="44.7801949" lon="7.7524238"><ele>257.0</ele><time>2026-05-03T14:49:49.205Z</time></trkpt><trkpt lat="44.7798553" lon="7.7523927"><ele>256.0</ele><time>2026-05-03T14:49:50.206Z</time></trkpt><trkpt lat="44.7795132" lon="7.7523554"><ele>255.0</ele><time>2026-05-03T14:49:51.206Z</time></trkpt><trkpt lat="44.7791742" lon="7.7523198"><ele>255.0</ele><time>2026-05-03T14:49:52.205Z</time></trkpt><trkpt lat="44.7788351" lon="7.7522844"><ele>255.0</ele><time>2026-05-03T14:49:53.205Z</time></trkpt><trkpt lat="44.7784932" lon="7.7522477"><ele>255.0</ele><time>2026-05-03T14:49:54.206Z</time></trkpt><trkpt lat="44.7781549" lon="7.7522175"><ele>255.0</ele><time>2026-05-03T14:49:55.205Z</time></trkpt><trkpt lat="44.7778123" lon="7.7521824"><ele>255.5</ele><time>2026-05-03T14:49:56.205Z</time></trkpt><trkpt lat="44.7774722" lon="7.7521422"><ele>256.0</ele><time>2026-05-03T14:49:57.206Z</time></trkpt><trkpt lat="44.777134" lon="7.7521078"><ele>255.0</ele><time>2026-05-03T14:49:58.206Z</time></trkpt><trkpt lat="44.776796" lon="7.7520752"><ele>254.0</ele><time>2026-05-03T14:49:59.205Z</time></trkpt><trkpt lat="44.7764573" lon="7.7520408"><ele>254.0</ele><time>2026-05-03T14:50:00.205Z</time></trkpt><trkpt lat="44.7761217" lon="7.7520045"><ele>254.0</ele><time>2026-05-03T14:50:01.205Z</time></trkpt><trkpt lat="44.7757926" lon="7.7519689"><ele>254.5</ele><time>2026-05-03T14:50:02.206Z</time></trkpt><trkpt lat="44.7754605" lon="7.7519393"><ele>255.0</ele><time>2026-05-03T14:50:03.206Z</time></trkpt><trkpt lat="44.7751311" lon="7.7519016"><ele>254.5</ele><time>2026-05-03T14:50:04.206Z</time></trkpt><trkpt lat="44.7747978" lon="7.7518639"><ele>254.0</ele><time>2026-05-03T14:50:05.205Z</time></trkpt><trkpt lat="44.7744641" lon="7.7518208"><ele>254.0</ele><time>2026-05-03T14:50:06.205Z</time></trkpt><trkpt lat="44.7741311" lon="7.7517816"><ele>254.0</ele><time>2026-05-03T14:50:07.205Z</time></trkpt><trkpt lat="44.7737946" lon="7.7517452"><ele>254.0</ele><time>2026-05-03T14:50:08.206Z</time></trkpt><trkpt lat="44.7734612" lon="7.7517136"><ele>254.0</ele><time>2026-05-03T14:50:09.205Z</time></trkpt><trkpt lat="44.7731281" lon="7.7516819"><ele>254.0</ele><time>2026-05-03T14:50:10.206Z</time></trkpt><trkpt lat="44.7727956" lon="7.7516462"><ele>254.0</ele><time>2026-05-03T14:50:11.206Z</time></trkpt><trkpt lat="44.7724607" lon="7.7516125"><ele>254.5</ele><time>2026-05-03T14:50:12.206Z</time></trkpt><trkpt lat="44.7721297" lon="7.7515779"><ele>255.0</ele><time>2026-05-03T14:50:13.206Z</time></trkpt><trkpt lat="44.7718037" lon="7.751544"><ele>255.0</ele><time>2026-05-03T14:50:14.205Z</time></trkpt><trkpt lat="44.7714754" lon="7.7515077"><ele>255.0</ele><time>2026-05-03T14:50:15.205Z</time></trkpt><trkpt lat="44.7711484" lon="7.7514702"><ele>256.5</ele><time>2026-05-03T14:50:16.206Z</time></trkpt><trkpt lat="44.7708299" lon="7.7514385"><ele>258.0</ele><time>2026-05-03T14:50:17.205Z</time></trkpt><trkpt lat="44.7705121" lon="7.7514039"><ele>257.5</ele><time>2026-05-03T14:50:18.206Z</time></trkpt><trkpt lat="44.7701902" lon="7.7513736"><ele>257.0</ele><time>2026-05-03T14:50:19.205Z</time></trkpt><trkpt lat="44.7698655" lon="7.7513456"><ele>257.0</ele><time>2026-05-03T14:50:20.206Z</time></trkpt><trkpt lat="44.7695415" lon="7.7513186"><ele>257.0</ele><time>2026-05-03T14:50:21.205Z</time></trkpt><trkpt lat="44.7692138" lon="7.7512891"><ele>257.0</ele><time>2026-05-03T14:50:22.205Z</time></trkpt><trkpt lat="44.7688832" lon="7.7512637"><ele>257.0</ele><time>2026-05-03T14:50:23.206Z</time></trkpt><trkpt lat="44.7685543" lon="7.7512409"><ele>257.0</ele><time>2026-05-03T14:50:24.205Z</time></trkpt><trkpt lat="44.7682287" lon="7.7512112"><ele>257.0</ele><time>2026-05-03T14:50:25.205Z</time></trkpt><trkpt lat="44.7678997" lon="7.7511852"><ele>257.0</ele><time>2026-05-03T14:50:26.205Z</time></trkpt><trkpt lat="44.7675679" lon="7.751159"><ele>257.0</ele><time>2026-05-03T14:50:27.205Z</time></trkpt><trkpt lat="44.767238" lon="7.7511258"><ele>257.0</ele><time>2026-05-03T14:50:28.205Z</time></trkpt><trkpt lat="44.7669069" lon="7.7510896"><ele>257.0</ele><time>2026-05-03T14:50:29.205Z</time></trkpt><trkpt lat="44.7665809" lon="7.7510547"><ele>257.5</ele><time>2026-05-03T14:50:30.205Z</time></trkpt><trkpt lat="44.766255" lon="7.7510126"><ele>258.0</ele><time>2026-05-03T14:50:31.205Z</time></trkpt><trkpt lat="44.7659265" lon="7.750977"><ele>258.0</ele><time>2026-05-03T14:50:32.205Z</time></trkpt><trkpt lat="44.7655998" lon="7.7509449"><ele>258.0</ele><time>2026-05-03T14:50:33.205Z</time></trkpt><trkpt lat="44.7652731" lon="7.7509121"><ele>258.0</ele><time>2026-05-03T14:50:34.206Z</time></trkpt><trkpt lat="44.7649479" lon="7.7508887"><ele>258.0</ele><time>2026-05-03T14:50:35.205Z</time></trkpt><trkpt lat="44.7646234" lon="7.7508577"><ele>258.0</ele><time>2026-05-03T14:50:36.206Z</time></trkpt><trkpt lat="44.7643039" lon="7.7508267"><ele>258.0</ele><time>2026-05-03T14:50:37.205Z</time></trkpt><trkpt lat="44.7639837" lon="7.7507942"><ele>258.0</ele><time>2026-05-03T14:50:38.205Z</time></trkpt><trkpt lat="44.7636626" lon="7.7507603"><ele>258.0</ele><time>2026-05-03T14:50:39.206Z</time></trkpt><trkpt lat="44.7633438" lon="7.7507284"><ele>258.0</ele><time>2026-05-03T14:50:40.205Z</time></trkpt><trkpt lat="44.7630265" lon="7.7506964"><ele>258.0</ele><time>2026-05-03T14:50:41.205Z</time></trkpt><trkpt lat="44.7627101" lon="7.7506649"><ele>258.0</ele><time>2026-05-03T14:50:42.205Z</time></trkpt><trkpt lat="44.7623939" lon="7.750632"><ele>258.0</ele><time>2026-05-03T14:50:43.205Z</time></trkpt><trkpt lat="44.7620748" lon="7.7506035"><ele>258.0</ele><time>2026-05-03T14:50:44.206Z</time></trkpt><trkpt lat="44.7617607" lon="7.7505709"><ele>258.0</ele><time>2026-05-03T14:50:45.205Z</time></trkpt><trkpt lat="44.7614465" lon="7.7505346"><ele>258.0</ele><time>2026-05-03T14:50:46.205Z</time></trkpt><trkpt lat="44.7611293" lon="7.7505035"><ele>258.0</ele><time>2026-05-03T14:50:47.205Z</time></trkpt><trkpt lat="44.7608169" lon="7.7504657"><ele>259.0</ele><time>2026-05-03T14:50:48.206Z</time></trkpt><trkpt lat="44.7605038" lon="7.750425"><ele>260.0</ele><time>2026-05-03T14:50:49.206Z</time></trkpt><trkpt lat="44.7601957" lon="7.7503848"><ele>260.0</ele><time>2026-05-03T14:50:50.205Z</time></trkpt><trkpt lat="44.7598866" lon="7.750346"><ele>260.0</ele><time>2026-05-03T14:50:51.205Z</time></trkpt><trkpt lat="44.7595765" lon="7.7503127"><ele>259.5</ele><time>2026-05-03T14:50:52.205Z</time></trkpt><trkpt lat="44.7592709" lon="7.7502808"><ele>259.0</ele><time>2026-05-03T14:50:53.205Z</time></trkpt><trkpt lat="44.7589651" lon="7.7502464"><ele>259.0</ele><time>2026-05-03T14:50:54.205Z</time></trkpt><trkpt lat="44.7586627" lon="7.750215"><ele>259.0</ele><time>2026-05-03T14:50:55.205Z</time></trkpt><trkpt lat="44.7583554" lon="7.7501866"><ele>259.5</ele><time>2026-05-03T14:50:56.206Z</time></trkpt><trkpt lat="44.7580429" lon="7.7501534"><ele>260.0</ele><time>2026-05-03T14:50:57.205Z</time></trkpt><trkpt lat="44.7577302" lon="7.7501259"><ele>261.0</ele><time>2026-05-03T14:50:58.205Z</time></trkpt><trkpt lat="44.7574193" lon="7.7500979"><ele>262.0</ele><time>2026-05-03T14:50:59.205Z</time></trkpt><trkpt lat="44.7571078" lon="7.7500715"><ele>260.0</ele><time>2026-05-03T14:51:00.205Z</time></trkpt><trkpt lat="44.7567992" lon="7.7500386"><ele>258.0</ele><time>2026-05-03T14:51:01.206Z</time></trkpt><trkpt lat="44.7564855" lon="7.7500079"><ele>258.0</ele><time>2026-05-03T14:51:02.205Z</time></trkpt><trkpt lat="44.7561744" lon="7.7499873"><ele>258.0</ele><time>2026-05-03T14:51:03.205Z</time></trkpt><trkpt lat="44.7558671" lon="7.7499674"><ele>258.5</ele><time>2026-05-03T14:51:04.206Z</time></trkpt><trkpt lat="44.7555585" lon="7.749958"><ele>259.0</ele><time>2026-05-03T14:51:05.205Z</time></trkpt><trkpt lat="44.7552459" lon="7.7499461"><ele>260.0</ele><time>2026-05-03T14:51:06.206Z</time></trkpt><trkpt lat="44.7549329" lon="7.7499392"><ele>261.0</ele><time>2026-05-03T14:51:07.205Z</time></trkpt><trkpt lat="44.7546234" lon="7.749935"><ele>261.5</ele><time>2026-05-03T14:51:08.205Z</time></trkpt><trkpt lat="44.7543098" lon="7.7499325"><ele>262.0</ele><time>2026-05-03T14:51:09.205Z</time></trkpt><trkpt lat="44.7539963" lon="7.7499398"><ele>262.0</ele><time>2026-05-03T14:51:10.206Z</time></trkpt><trkpt lat="44.7536849" lon="7.7499446"><ele>262.0</ele><time>2026-05-03T14:51:11.205Z</time></trkpt><trkpt lat="44.7533744" lon="7.7499442"><ele>262.5</ele><time>2026-05-03T14:51:12.205Z</time></trkpt><trkpt lat="44.7530601" lon="7.7499482"><ele>263.0</ele><time>2026-05-03T14:51:13.205Z</time></trkpt><trkpt lat="44.752751" lon="7.7499534"><ele>263.5</ele><time>2026-05-03T14:51:14.205Z</time></trkpt><trkpt lat="44.7524416" lon="7.7499725"><ele>264.0</ele><time>2026-05-03T14:51:15.206Z</time></trkpt><trkpt lat="44.7521278" lon="7.7499941"><ele>263.5</ele><time>2026-05-03T14:51:16.205Z</time></trkpt><trkpt lat="44.7518136" lon="7.7500194"><ele>263.0</ele><time>2026-05-03T14:51:17.206Z</time></trkpt><trkpt lat="44.7514976" lon="7.750042"><ele>263.0</ele><time>2026-05-03T14:51:18.206Z</time></trkpt><trkpt lat="44.7511859" lon="7.75007"><ele>263.0</ele><time>2026-05-03T14:51:19.205Z</time></trkpt><trkpt lat="44.750869" lon="7.7501023"><ele>263.5</ele><time>2026-05-03T14:51:20.205Z</time></trkpt><trkpt lat="44.7505509" lon="7.7501322"><ele>264.0</ele><time>2026-05-03T14:51:21.205Z</time></trkpt><trkpt lat="44.7502343" lon="7.7501718"><ele>262.5</ele><time>2026-05-03T14:51:22.205Z</time></trkpt><trkpt lat="44.7499211" lon="7.7502113"><ele>261.0</ele><time>2026-05-03T14:51:23.205Z</time></trkpt><trkpt lat="44.7496093" lon="7.7502529"><ele>261.5</ele><time>2026-05-03T14:51:24.206Z</time></trkpt><trkpt lat="44.7493005" lon="7.750295"><ele>262.0</ele><time>2026-05-03T14:51:25.205Z</time></trkpt><trkpt lat="44.7489944" lon="7.7503471"><ele>262.0</ele><time>2026-05-03T14:51:26.205Z</time></trkpt><trkpt lat="44.7486899" lon="7.750401"><ele>262.0</ele><time>2026-05-03T14:51:27.205Z</time></trkpt><trkpt lat="44.7483863" lon="7.7504552"><ele>262.0</ele><time>2026-05-03T14:51:28.205Z</time></trkpt><trkpt lat="44.7480845" lon="7.7505127"><ele>262.0</ele><time>2026-05-03T14:51:29.205Z</time></trkpt><trkpt lat="44.7477839" lon="7.7505708"><ele>263.5</ele><time>2026-05-03T14:51:30.205Z</time></trkpt><trkpt lat="44.7474827" lon="7.750627"><ele>265.0</ele><time>2026-05-03T14:51:31.206Z</time></trkpt><trkpt lat="44.7471841" lon="7.7506922"><ele>265.0</ele><time>2026-05-03T14:51:32.205Z</time></trkpt><trkpt lat="44.7468872" lon="7.7507642"><ele>265.0</ele><time>2026-05-03T14:51:33.205Z</time></trkpt><trkpt lat="44.7465895" lon="7.7508383"><ele>264.5</ele><time>2026-05-03T14:51:34.205Z</time></trkpt><trkpt lat="44.7462928" lon="7.7509117"><ele>264.0</ele><time>2026-05-03T14:51:35.205Z</time></trkpt><trkpt lat="44.7459962" lon="7.7509898"><ele>264.0</ele><time>2026-05-03T14:51:36.206Z</time></trkpt><trkpt lat="44.745699" lon="7.7510719"><ele>264.0</ele><time>2026-05-03T14:51:37.205Z</time></trkpt><trkpt lat="44.7454029" lon="7.7511532"><ele>263.0</ele><time>2026-05-03T14:51:38.205Z</time></trkpt><trkpt lat="44.7451079" lon="7.7512342"><ele>262.0</ele><time>2026-05-03T14:51:39.205Z</time></trkpt><trkpt lat="44.7448109" lon="7.7513143"><ele>262.0</ele><time>2026-05-03T14:51:40.205Z</time></trkpt><trkpt lat="44.7445126" lon="7.7513912"><ele>262.0</ele><time>2026-05-03T14:51:41.205Z</time></trkpt><trkpt lat="44.7442157" lon="7.7514708"><ele>262.5</ele><time>2026-05-03T14:51:42.206Z</time></trkpt><trkpt lat="44.7439179" lon="7.7515574"><ele>263.0</ele><time>2026-05-03T14:51:43.205Z</time></trkpt><trkpt lat="44.7436206" lon="7.7516459"><ele>264.0</ele><time>2026-05-03T14:51:44.205Z</time></trkpt><trkpt lat="44.743323" lon="7.7517369"><ele>265.0</ele><time>2026-05-03T14:51:45.205Z</time></trkpt><trkpt lat="44.7430256" lon="7.751828"><ele>264.5</ele><time>2026-05-03T14:51:46.206Z</time></trkpt><trkpt lat="44.7427214" lon="7.7519155"><ele>264.0</ele><time>2026-05-03T14:51:47.206Z</time></trkpt><trkpt lat="44.7424134" lon="7.752002"><ele>264.0</ele><time>2026-05-03T14:51:48.206Z</time></trkpt><trkpt lat="44.7421023" lon="7.7520924"><ele>264.0</ele><time>2026-05-03T14:51:49.206Z</time></trkpt><trkpt lat="44.7417912" lon="7.7521845"><ele>264.0</ele><time>2026-05-03T14:51:50.205Z</time></trkpt><trkpt lat="44.7414833" lon="7.752271"><ele>264.0</ele><time>2026-05-03T14:51:51.206Z</time></trkpt><trkpt lat="44.7411764" lon="7.7523594"><ele>265.0</ele><time>2026-05-03T14:51:52.206Z</time></trkpt><trkpt lat="44.7408723" lon="7.7524492"><ele>266.0</ele><time>2026-05-03T14:51:53.205Z</time></trkpt><trkpt lat="44.7405691" lon="7.7525339"><ele>266.0</ele><time>2026-05-03T14:51:54.205Z</time></trkpt><trkpt lat="44.7402663" lon="7.7526241"><ele>266.0</ele><time>2026-05-03T14:51:55.206Z</time></trkpt><trkpt lat="44.73996" lon="7.7527071"><ele>266.0</ele><time>2026-05-03T14:51:56.206Z</time></trkpt><trkpt lat="44.7396538" lon="7.7527955"><ele>266.0</ele><time>2026-05-03T14:51:57.205Z</time></trkpt><trkpt lat="44.7393487" lon="7.7528833"><ele>266.0</ele><time>2026-05-03T14:51:58.205Z</time></trkpt><trkpt lat="44.7390417" lon="7.7529734"><ele>266.0</ele><time>2026-05-03T14:51:59.205Z</time></trkpt><trkpt lat="44.7387342" lon="7.7530622"><ele>266.0</ele><time>2026-05-03T14:52:00.205Z</time></trkpt><trkpt lat="44.7384274" lon="7.7531537"><ele>266.0</ele><time>2026-05-03T14:52:01.205Z</time></trkpt><trkpt lat="44.7381146" lon="7.7532446"><ele>266.0</ele><time>2026-05-03T14:52:02.205Z</time></trkpt><trkpt lat="44.7378048" lon="7.7533339"><ele>266.0</ele><time>2026-05-03T14:52:03.205Z</time></trkpt><trkpt lat="44.7374923" lon="7.7534231"><ele>266.0</ele><time>2026-05-03T14:52:04.205Z</time></trkpt><trkpt lat="44.7371833" lon="7.7535061"><ele>266.0</ele><time>2026-05-03T14:52:05.206Z</time></trkpt><trkpt lat="44.736871" lon="7.7535974"><ele>266.5</ele><time>2026-05-03T14:52:06.205Z</time></trkpt><trkpt lat="44.73656" lon="7.7536832"><ele>267.0</ele><time>2026-05-03T14:52:07.205Z</time></trkpt><trkpt lat="44.7362495" lon="7.7537701"><ele>267.0</ele><time>2026-05-03T14:52:08.205Z</time></trkpt><trkpt lat="44.735941" lon="7.7538592"><ele>267.0</ele><time>2026-05-03T14:52:09.206Z</time></trkpt><trkpt lat="44.7356276" lon="7.7539492"><ele>267.0</ele><time>2026-05-03T14:52:10.205Z</time></trkpt><trkpt lat="44.7353202" lon="7.7540386"><ele>267.0</ele><time>2026-05-03T14:52:11.206Z</time></trkpt><trkpt lat="44.7350072" lon="7.7541311"><ele>267.0</ele><time>2026-05-03T14:52:12.206Z</time></trkpt><trkpt lat="44.734694" lon="7.7542171"><ele>267.0</ele><time>2026-05-03T14:52:13.206Z</time></trkpt><trkpt lat="44.7343847" lon="7.7543005"><ele>267.5</ele><time>2026-05-03T14:52:14.206Z</time></trkpt><trkpt lat="44.7340764" lon="7.7543931"><ele>268.0</ele><time>2026-05-03T14:52:15.205Z</time></trkpt><trkpt lat="44.7337703" lon="7.7544789"><ele>268.5</ele><time>2026-05-03T14:52:16.205Z</time></trkpt><trkpt lat="44.7334612" lon="7.7545677"><ele>269.0</ele><time>2026-05-03T14:52:17.205Z</time></trkpt><trkpt lat="44.7331511" lon="7.7546526"><ele>269.0</ele><time>2026-05-03T14:52:18.205Z</time></trkpt><trkpt lat="44.7328422" lon="7.7547443"><ele>269.0</ele><time>2026-05-03T14:52:19.205Z</time></trkpt><trkpt lat="44.7325354" lon="7.7548372"><ele>269.0</ele><time>2026-05-03T14:52:20.205Z</time></trkpt><trkpt lat="44.7322302" lon="7.7549263"><ele>269.0</ele><time>2026-05-03T14:52:21.205Z</time></trkpt><trkpt lat="44.7319278" lon="7.755015"><ele>268.5</ele><time>2026-05-03T14:52:22.205Z</time></trkpt><trkpt lat="44.731628" lon="7.7551033"><ele>268.0</ele><time>2026-05-03T14:52:23.205Z</time></trkpt><trkpt lat="44.7313314" lon="7.7551885"><ele>268.0</ele><time>2026-05-03T14:52:24.206Z</time></trkpt><trkpt lat="44.7310333" lon="7.7552753"><ele>268.0</ele><time>2026-05-03T14:52:25.206Z</time></trkpt><trkpt lat="44.7307359" lon="7.7553576"><ele>268.0</ele><time>2026-05-03T14:52:26.206Z</time></trkpt><trkpt lat="44.7304374" lon="7.7554439"><ele>268.0</ele><time>2026-05-03T14:52:27.205Z</time></trkpt><trkpt lat="44.7301365" lon="7.7555298"><ele>268.5</ele><time>2026-05-03T14:52:28.205Z</time></trkpt><trkpt lat="44.729837" lon="7.7556165"><ele>269.0</ele><time>2026-05-03T14:52:29.206Z</time></trkpt><trkpt lat="44.7295358" lon="7.7557036"><ele>269.0</ele><time>2026-05-03T14:52:30.205Z</time></trkpt><trkpt lat="44.7292394" lon="7.7557887"><ele>269.0</ele><time>2026-05-03T14:52:31.205Z</time></trkpt><trkpt lat="44.7289414" lon="7.7558747"><ele>269.0</ele><time>2026-05-03T14:52:32.205Z</time></trkpt><trkpt lat="44.7286405" lon="7.7559596"><ele>269.0</ele><time>2026-05-03T14:52:33.206Z</time></trkpt><trkpt lat="44.7283341" lon="7.7560487"><ele>269.0</ele><time>2026-05-03T14:52:34.206Z</time></trkpt><trkpt lat="44.7280271" lon="7.7561374"><ele>269.0</ele><time>2026-05-03T14:52:35.205Z</time></trkpt><trkpt lat="44.7277176" lon="7.7562278"><ele>268.5</ele><time>2026-05-03T14:52:36.206Z</time></trkpt><trkpt lat="44.727411" lon="7.7563189"><ele>268.0</ele><time>2026-05-03T14:52:37.205Z</time></trkpt><trkpt lat="44.7271062" lon="7.7564091"><ele>268.5</ele><time>2026-05-03T14:52:38.205Z</time></trkpt><trkpt lat="44.7268019" lon="7.756498"><ele>269.0</ele><time>2026-05-03T14:52:39.205Z</time></trkpt><trkpt lat="44.7264975" lon="7.7565855"><ele>269.0</ele><time>2026-05-03T14:52:40.205Z</time></trkpt><trkpt lat="44.726192" lon="7.7566724"><ele>269.0</ele><time>2026-05-03T14:52:41.205Z</time></trkpt><trkpt lat="44.7258897" lon="7.7567612"><ele>270.0</ele><time>2026-05-03T14:52:42.205Z</time></trkpt><trkpt lat="44.725589" lon="7.7568475"><ele>271.0</ele><time>2026-05-03T14:52:43.205Z</time></trkpt><trkpt lat="44.7252885" lon="7.7569343"><ele>270.0</ele><time>2026-05-03T14:52:44.205Z</time></trkpt><trkpt lat="44.7249912" lon="7.757018"><ele>269.0</ele><time>2026-05-03T14:52:45.205Z</time></trkpt><trkpt lat="44.7246924" lon="7.7571008"><ele>270.0</ele><time>2026-05-03T14:52:46.205Z</time></trkpt><trkpt lat="44.7243906" lon="7.7571841"><ele>271.0</ele><time>2026-05-03T14:52:47.205Z</time></trkpt><trkpt lat="44.7240887" lon="7.7572716"><ele>271.0</ele><time>2026-05-03T14:52:48.205Z</time></trkpt><trkpt lat="44.7237849" lon="7.7573567"><ele>271.0</ele><time>2026-05-03T14:52:49.205Z</time></trkpt><trkpt lat="44.723482" lon="7.7574403"><ele>271.0</ele><time>2026-05-03T14:52:50.205Z</time></trkpt><trkpt lat="44.7231766" lon="7.7575237"><ele>271.0</ele><time>2026-05-03T14:52:51.205Z</time></trkpt><trkpt lat="44.7228705" lon="7.7576104"><ele>271.5</ele><time>2026-05-03T14:52:52.205Z</time></trkpt><trkpt lat="44.7225686" lon="7.7576965"><ele>272.0</ele><time>2026-05-03T14:52:53.206Z</time></trkpt><trkpt lat="44.722266" lon="7.757784"><ele>272.0</ele><time>2026-05-03T14:52:54.206Z</time></trkpt><trkpt lat="44.7219642" lon="7.7578807"><ele>272.0</ele><time>2026-05-03T14:52:55.205Z</time></trkpt><trkpt lat="44.7216596" lon="7.7579813"><ele>272.0</ele><time>2026-05-03T14:52:56.205Z</time></trkpt><trkpt lat="44.7213556" lon="7.7580813"><ele>272.0</ele><time>2026-05-03T14:52:57.205Z</time></trkpt><trkpt lat="44.7210496" lon="7.7581822"><ele>272.0</ele><time>2026-05-03T14:52:58.205Z</time></trkpt><trkpt lat="44.7207419" lon="7.7582762"><ele>272.0</ele><time>2026-05-03T14:52:59.205Z</time></trkpt><trkpt lat="44.7204371" lon="7.7583706"><ele>272.0</ele><time>2026-05-03T14:53:00.205Z</time></trkpt><trkpt lat="44.7201293" lon="7.7584579"><ele>272.0</ele><time>2026-05-03T14:53:01.205Z</time></trkpt><trkpt lat="44.7198244" lon="7.7585419"><ele>272.5</ele><time>2026-05-03T14:53:02.205Z</time></trkpt><trkpt lat="44.7195178" lon="7.7586262"><ele>273.0</ele><time>2026-05-03T14:53:03.206Z</time></trkpt><trkpt lat="44.7192132" lon="7.7587138"><ele>273.0</ele><time>2026-05-03T14:53:04.205Z</time></trkpt><trkpt lat="44.718909" lon="7.7588016"><ele>273.0</ele><time>2026-05-03T14:53:05.206Z</time></trkpt><trkpt lat="44.7186022" lon="7.7588888"><ele>273.5</ele><time>2026-05-03T14:53:06.205Z</time></trkpt><trkpt lat="44.718295" lon="7.7589794"><ele>274.0</ele><time>2026-05-03T14:53:07.205Z</time></trkpt><trkpt lat="44.7179885" lon="7.7590698"><ele>275.0</ele><time>2026-05-03T14:53:08.205Z</time></trkpt><trkpt lat="44.7176821" lon="7.7591579"><ele>276.0</ele><time>2026-05-03T14:53:09.204Z</time></trkpt><trkpt lat="44.7173769" lon="7.759242"><ele>276.0</ele><time>2026-05-03T14:53:10.205Z</time></trkpt><trkpt lat="44.7170704" lon="7.759325"><ele>276.0</ele><time>2026-05-03T14:53:11.205Z</time></trkpt><trkpt lat="44.7167622" lon="7.7594053"><ele>275.0</ele><time>2026-05-03T14:53:12.205Z</time></trkpt><trkpt lat="44.7164569" lon="7.7594852"><ele>274.0</ele><time>2026-05-03T14:53:13.205Z</time></trkpt><trkpt lat="44.7161518" lon="7.7595672"><ele>274.0</ele><time>2026-05-03T14:53:14.205Z</time></trkpt><trkpt lat="44.7158525" lon="7.7596498"><ele>274.0</ele><time>2026-05-03T14:53:15.206Z</time></trkpt><trkpt lat="44.7155497" lon="7.759731"><ele>274.0</ele><time>2026-05-03T14:53:16.205Z</time></trkpt><trkpt lat="44.7152493" lon="7.7598168"><ele>274.0</ele><time>2026-05-03T14:53:17.206Z</time></trkpt><trkpt lat="44.7149485" lon="7.7599016"><ele>273.5</ele><time>2026-05-03T14:53:18.206Z</time></trkpt><trkpt lat="44.7146489" lon="7.7599877"><ele>273.0</ele><time>2026-05-03T14:53:19.205Z</time></trkpt><trkpt lat="44.7143494" lon="7.7600742"><ele>273.0</ele><time>2026-05-03T14:53:20.205Z</time></trkpt><trkpt lat="44.7140473" lon="7.7601586"><ele>273.0</ele><time>2026-05-03T14:53:21.206Z</time></trkpt><trkpt lat="44.7137422" lon="7.7602441"><ele>273.5</ele><time>2026-05-03T14:53:22.205Z</time></trkpt><trkpt lat="44.7134387" lon="7.7603305"><ele>274.0</ele><time>2026-05-03T14:53:23.206Z</time></trkpt><trkpt lat="44.7131329" lon="7.7604173"><ele>274.0</ele><time>2026-05-03T14:53:24.206Z</time></trkpt><trkpt lat="44.7128294" lon="7.7605033"><ele>274.0</ele><time>2026-05-03T14:53:25.205Z</time></trkpt><trkpt lat="44.712527" lon="7.7605902"><ele>275.0</ele><time>2026-05-03T14:53:26.206Z</time></trkpt><trkpt lat="44.712224" lon="7.760676"><ele>276.0</ele><time>2026-05-03T14:53:27.205Z</time></trkpt><trkpt lat="44.7119202" lon="7.7607652"><ele>276.5</ele><time>2026-05-03T14:53:28.206Z</time></trkpt><trkpt lat="44.7116161" lon="7.7608521"><ele>277.0</ele><time>2026-05-03T14:53:29.206Z</time></trkpt><trkpt lat="44.7113122" lon="7.7609387"><ele>276.5</ele><time>2026-05-03T14:53:30.205Z</time></trkpt><trkpt lat="44.7110087" lon="7.761027"><ele>276.0</ele><time>2026-05-03T14:53:31.205Z</time></trkpt><trkpt lat="44.7107041" lon="7.7611179"><ele>276.0</ele><time>2026-05-03T14:53:32.205Z</time></trkpt><trkpt lat="44.7103986" lon="7.7612099"><ele>276.0</ele><time>2026-05-03T14:53:33.205Z</time></trkpt><trkpt lat="44.7100945" lon="7.7612955"><ele>277.0</ele><time>2026-05-03T14:53:34.205Z</time></trkpt><trkpt lat="44.709791" lon="7.7613835"><ele>278.0</ele><time>2026-05-03T14:53:35.206Z</time></trkpt><trkpt lat="44.7094852" lon="7.7614698"><ele>277.5</ele><time>2026-05-03T14:53:36.205Z</time></trkpt><trkpt lat="44.7091771" lon="7.7615601"><ele>277.0</ele><time>2026-05-03T14:53:37.205Z</time></trkpt><trkpt lat="44.7088667" lon="7.7616492"><ele>277.5</ele><time>2026-05-03T14:53:38.205Z</time></trkpt><trkpt lat="44.708557" lon="7.7617392"><ele>278.0</ele><time>2026-05-03T14:53:39.205Z</time></trkpt><trkpt lat="44.7082486" lon="7.7618234"><ele>277.5</ele><time>2026-05-03T14:53:40.205Z</time></trkpt><trkpt lat="44.7079433" lon="7.7619099"><ele>277.0</ele><time>2026-05-03T14:53:41.206Z</time></trkpt><trkpt lat="44.7076366" lon="7.761996"><ele>277.0</ele><time>2026-05-03T14:53:42.206Z</time></trkpt><trkpt lat="44.7073331" lon="7.7620783"><ele>277.0</ele><time>2026-05-03T14:53:43.205Z</time></trkpt><trkpt lat="44.7070303" lon="7.7621612"><ele>276.5</ele><time>2026-05-03T14:53:44.205Z</time></trkpt><trkpt lat="44.70673" lon="7.7622442"><ele>276.0</ele><time>2026-05-03T14:53:45.205Z</time></trkpt><trkpt lat="44.7064319" lon="7.7623282"><ele>276.0</ele><time>2026-05-03T14:53:46.206Z</time></trkpt><trkpt lat="44.7061338" lon="7.7624139"><ele>276.0</ele><time>2026-05-03T14:53:47.205Z</time></trkpt><trkpt lat="44.7058331" lon="7.7625027"><ele>276.5</ele><time>2026-05-03T14:53:48.206Z</time></trkpt><trkpt lat="44.7055327" lon="7.7625944"><ele>277.0</ele><time>2026-05-03T14:53:49.205Z</time></trkpt><trkpt lat="44.7052317" lon="7.7626829"><ele>278.5</ele><time>2026-05-03T14:53:50.206Z</time></trkpt><trkpt lat="44.7049274" lon="7.7627705"><ele>280.0</ele><time>2026-05-03T14:53:51.205Z</time></trkpt><trkpt lat="44.7046235" lon="7.7628599"><ele>280.0</ele><time>2026-05-03T14:53:52.206Z</time></trkpt><trkpt lat="44.7043219" lon="7.7629481"><ele>280.0</ele><time>2026-05-03T14:53:53.205Z</time></trkpt><trkpt lat="44.7040201" lon="7.7630412"><ele>280.0</ele><time>2026-05-03T14:53:54.206Z</time></trkpt><trkpt lat="44.7037161" lon="7.7631351"><ele>280.0</ele><time>2026-05-03T14:53:55.205Z</time></trkpt><trkpt lat="44.7034127" lon="7.7632278"><ele>279.5</ele><time>2026-05-03T14:53:56.205Z</time></trkpt><trkpt lat="44.7031119" lon="7.7633218"><ele>279.0</ele><time>2026-05-03T14:53:57.206Z</time></trkpt><trkpt lat="44.70281" lon="7.7634144"><ele>279.0</ele><time>2026-05-03T14:53:58.205Z</time></trkpt><trkpt lat="44.7025071" lon="7.7635062"><ele>279.0</ele><time>2026-05-03T14:53:59.205Z</time></trkpt><trkpt lat="44.7022051" lon="7.7635988"><ele>279.5</ele><time>2026-05-03T14:54:00.205Z</time></trkpt><trkpt lat="44.7019048" lon="7.7636885"><ele>280.0</ele><time>2026-05-03T14:54:01.205Z</time></trkpt><trkpt lat="44.7016031" lon="7.763776"><ele>280.0</ele><time>2026-05-03T14:54:02.205Z</time></trkpt><trkpt lat="44.7013026" lon="7.7638591"><ele>280.0</ele><time>2026-05-03T14:54:03.205Z</time></trkpt><trkpt lat="44.7010046" lon="7.7639441"><ele>281.0</ele><time>2026-05-03T14:54:04.205Z</time></trkpt><trkpt lat="44.7007062" lon="7.7640318"><ele>282.0</ele><time>2026-05-03T14:54:05.205Z</time></trkpt><trkpt lat="44.7004109" lon="7.7641184"><ele>282.0</ele><time>2026-05-03T14:54:06.205Z</time></trkpt><trkpt lat="44.700117" lon="7.7642045"><ele>282.0</ele><time>2026-05-03T14:54:07.205Z</time></trkpt><trkpt lat="44.6998227" lon="7.7642912"><ele>282.0</ele><time>2026-05-03T14:54:08.205Z</time></trkpt><trkpt lat="44.6995263" lon="7.7643731"><ele>282.0</ele><time>2026-05-03T14:54:09.206Z</time></trkpt><trkpt lat="44.6992228" lon="7.7644489"><ele>282.0</ele><time>2026-05-03T14:54:10.206Z</time></trkpt><trkpt lat="44.6989201" lon="7.7645205"><ele>282.0</ele><time>2026-05-03T14:54:11.206Z</time></trkpt><trkpt lat="44.6986203" lon="7.7645973"><ele>282.5</ele><time>2026-05-03T14:54:12.205Z</time></trkpt><trkpt lat="44.6983207" lon="7.7646792"><ele>283.0</ele><time>2026-05-03T14:54:13.206Z</time></trkpt><trkpt lat="44.6980202" lon="7.7647592"><ele>284.0</ele><time>2026-05-03T14:54:14.205Z</time></trkpt><trkpt lat="44.6977226" lon="7.7648456"><ele>285.0</ele><time>2026-05-03T14:54:15.206Z</time></trkpt><trkpt lat="44.6974248" lon="7.7649333"><ele>285.0</ele><time>2026-05-03T14:54:16.206Z</time></trkpt><trkpt lat="44.697129" lon="7.7650191"><ele>285.0</ele><time>2026-05-03T14:54:17.205Z</time></trkpt><trkpt lat="44.6968347" lon="7.7651054"><ele>284.5</ele><time>2026-05-03T14:54:18.205Z</time></trkpt><trkpt lat="44.6965395" lon="7.7651888"><ele>284.0</ele><time>2026-05-03T14:54:19.205Z</time></trkpt><trkpt lat="44.69624" lon="7.7652732"><ele>284.5</ele><time>2026-05-03T14:54:20.205Z</time></trkpt><trkpt lat="44.6959402" lon="7.7653565"><ele>285.0</ele><time>2026-05-03T14:54:21.205Z</time></trkpt><trkpt lat="44.6956391" lon="7.7654402"><ele>285.0</ele><time>2026-05-03T14:54:22.206Z</time></trkpt><trkpt lat="44.6953403" lon="7.7655273"><ele>285.0</ele><time>2026-05-03T14:54:23.206Z</time></trkpt><trkpt lat="44.6950417" lon="7.76561"><ele>285.5</ele><time>2026-05-03T14:54:24.205Z</time></trkpt><trkpt lat="44.6947457" lon="7.7656951"><ele>286.0</ele><time>2026-05-03T14:54:25.205Z</time></trkpt><trkpt lat="44.6944504" lon="7.7657811"><ele>285.5</ele><time>2026-05-03T14:54:26.206Z</time></trkpt><trkpt lat="44.694156" lon="7.7658647"><ele>285.0</ele><time>2026-05-03T14:54:27.205Z</time></trkpt><trkpt lat="44.6938593" lon="7.7659496"><ele>285.0</ele><time>2026-05-03T14:54:28.205Z</time></trkpt><trkpt lat="44.693563" lon="7.7660386"><ele>285.0</ele><time>2026-05-03T14:54:29.206Z</time></trkpt><trkpt lat="44.6932671" lon="7.7661257"><ele>285.0</ele><time>2026-05-03T14:54:30.206Z</time></trkpt><trkpt lat="44.6929668" lon="7.7662167"><ele>285.0</ele><time>2026-05-03T14:54:31.206Z</time></trkpt><trkpt lat="44.6926679" lon="7.7663017"><ele>285.0</ele><time>2026-05-03T14:54:32.205Z</time></trkpt><trkpt lat="44.6923651" lon="7.7663876"><ele>285.0</ele><time>2026-05-03T14:54:33.205Z</time></trkpt><trkpt lat="44.6920623" lon="7.766473"><ele>285.5</ele><time>2026-05-03T14:54:34.206Z</time></trkpt><trkpt lat="44.69176" lon="7.7665648"><ele>286.0</ele><time>2026-05-03T14:54:35.21Z</time></trkpt><trkpt lat="44.6914604" lon="7.7666559"><ele>286.0</ele><time>2026-05-03T14:54:36.21Z</time></trkpt><trkpt lat="44.6911585" lon="7.766743"><ele>286.0</ele><time>2026-05-03T14:54:37.211Z</time></trkpt><trkpt lat="44.6908564" lon="7.766827"><ele>285.5</ele><time>2026-05-03T14:54:38.21Z</time></trkpt><trkpt lat="44.6905556" lon="7.7669081"><ele>285.0</ele><time>2026-05-03T14:54:39.211Z</time></trkpt><trkpt lat="44.6902509" lon="7.7669944"><ele>285.0</ele><time>2026-05-03T14:54:40.211Z</time></trkpt><trkpt lat="44.6899457" lon="7.7670789"><ele>285.0</ele><time>2026-05-03T14:54:41.21Z</time></trkpt><trkpt lat="44.6896424" lon="7.7671642"><ele>285.5</ele><time>2026-05-03T14:54:42.211Z</time></trkpt><trkpt lat="44.6893352" lon="7.7672517"><ele>286.0</ele><time>2026-05-03T14:54:43.21Z</time></trkpt><trkpt lat="44.6890256" lon="7.7673417"><ele>286.0</ele><time>2026-05-03T14:54:44.211Z</time></trkpt><trkpt lat="44.6887154" lon="7.7674327"><ele>286.0</ele><time>2026-05-03T14:54:45.21Z</time></trkpt><trkpt lat="44.688406" lon="7.7675233"><ele>286.0</ele><time>2026-05-03T14:54:46.21Z</time></trkpt><trkpt lat="44.6880964" lon="7.7676156"><ele>286.0</ele><time>2026-05-03T14:54:47.21Z</time></trkpt><trkpt lat="44.687788" lon="7.7677074"><ele>286.0</ele><time>2026-05-03T14:54:48.211Z</time></trkpt><trkpt lat="44.6874778" lon="7.7677959"><ele>286.0</ele><time>2026-05-03T14:54:49.211Z</time></trkpt><trkpt lat="44.6871693" lon="7.7678855"><ele>287.0</ele><time>2026-05-03T14:54:50.21Z</time></trkpt><trkpt lat="44.6868596" lon="7.7679755"><ele>288.0</ele><time>2026-05-03T14:54:51.211Z</time></trkpt><trkpt lat="44.6865516" lon="7.7680644"><ele>288.0</ele><time>2026-05-03T14:54:52.21Z</time></trkpt><trkpt lat="44.6862477" lon="7.7681508"><ele>288.0</ele><time>2026-05-03T14:54:53.21Z</time></trkpt><trkpt lat="44.6859437" lon="7.7682333"><ele>288.0</ele><time>2026-05-03T14:54:54.211Z</time></trkpt><trkpt lat="44.685639" lon="7.7683166"><ele>288.0</ele><time>2026-05-03T14:54:55.21Z</time></trkpt><trkpt lat="44.6853314" lon="7.7684034"><ele>288.0</ele><time>2026-05-03T14:54:56.21Z</time></trkpt><trkpt lat="44.6850206" lon="7.7684938"><ele>288.0</ele><time>2026-05-03T14:54:57.211Z</time></trkpt><trkpt lat="44.6847066" lon="7.7685845"><ele>287.5</ele><time>2026-05-03T14:54:58.211Z</time></trkpt><trkpt lat="44.6843973" lon="7.7686739"><ele>287.0</ele><time>2026-05-03T14:54:59.211Z</time></trkpt><trkpt lat="44.6840865" lon="7.7687589"><ele>287.0</ele><time>2026-05-03T14:55:00.211Z</time></trkpt><trkpt lat="44.6837746" lon="7.7688508"><ele>287.0</ele><time>2026-05-03T14:55:01.21Z</time></trkpt><trkpt lat="44.6834614" lon="7.7689455"><ele>287.0</ele><time>2026-05-03T14:55:02.21Z</time></trkpt><trkpt lat="44.6831507" lon="7.7690352"><ele>287.0</ele><time>2026-05-03T14:55:03.21Z</time></trkpt><trkpt lat="44.6828399" lon="7.769122"><ele>286.5</ele><time>2026-05-03T14:55:04.21Z</time></trkpt><trkpt lat="44.6825306" lon="7.7692124"><ele>286.0</ele><time>2026-05-03T14:55:05.21Z</time></trkpt><trkpt lat="44.6822201" lon="7.7693035"><ele>287.0</ele><time>2026-05-03T14:55:06.21Z</time></trkpt><trkpt lat="44.6819123" lon="7.7693911"><ele>288.0</ele><time>2026-05-03T14:55:07.21Z</time></trkpt><trkpt lat="44.6816091" lon="7.7694765"><ele>288.0</ele><time>2026-05-03T14:55:08.21Z</time></trkpt><trkpt lat="44.6813057" lon="7.7695622"><ele>288.0</ele><time>2026-05-03T14:55:09.211Z</time></trkpt><trkpt lat="44.6809996" lon="7.7696492"><ele>288.5</ele><time>2026-05-03T14:55:10.21Z</time></trkpt><trkpt lat="44.6806896" lon="7.7697353"><ele>289.0</ele><time>2026-05-03T14:55:11.211Z</time></trkpt><trkpt lat="44.6803804" lon="7.7698235"><ele>289.5</ele><time>2026-05-03T14:55:12.21Z</time></trkpt><trkpt lat="44.6800657" lon="7.7699161"><ele>290.0</ele><time>2026-05-03T14:55:13.211Z</time></trkpt><trkpt lat="44.6797505" lon="7.7700123"><ele>290.0</ele><time>2026-05-03T14:55:14.21Z</time></trkpt><trkpt lat="44.6794357" lon="7.7701069"><ele>290.0</ele><time>2026-05-03T14:55:15.21Z</time></trkpt><trkpt lat="44.6791212" lon="7.7701996"><ele>290.5</ele><time>2026-05-03T14:55:16.211Z</time></trkpt><trkpt lat="44.6788079" lon="7.7702924"><ele>291.0</ele><time>2026-05-03T14:55:17.211Z</time></trkpt><trkpt lat="44.6784946" lon="7.7703841"><ele>292.5</ele><time>2026-05-03T14:55:18.21Z</time></trkpt><trkpt lat="44.6781821" lon="7.770475"><ele>294.0</ele><time>2026-05-03T14:55:19.21Z</time></trkpt><trkpt lat="44.6778714" lon="7.770565"><ele>292.5</ele><time>2026-05-03T14:55:20.211Z</time></trkpt><trkpt lat="44.6775614" lon="7.7706517"><ele>291.0</ele><time>2026-05-03T14:55:21.21Z</time></trkpt><trkpt lat="44.6772528" lon="7.7707414"><ele>291.0</ele><time>2026-05-03T14:55:22.211Z</time></trkpt><trkpt lat="44.6769417" lon="7.7708311"><ele>291.0</ele><time>2026-05-03T14:55:23.211Z</time></trkpt><trkpt lat="44.6766327" lon="7.7709191"><ele>291.0</ele><time>2026-05-03T14:55:24.211Z</time></trkpt><trkpt lat="44.6763242" lon="7.7710064"><ele>291.0</ele><time>2026-05-03T14:55:25.21Z</time></trkpt><trkpt lat="44.6760156" lon="7.7710967"><ele>292.5</ele><time>2026-05-03T14:55:26.21Z</time></trkpt><trkpt lat="44.6757089" lon="7.7711949"><ele>294.0</ele><time>2026-05-03T14:55:27.21Z</time></trkpt><trkpt lat="44.6754048" lon="7.771293"><ele>293.5</ele><time>2026-05-03T14:55:28.211Z</time></trkpt><trkpt lat="44.6751045" lon="7.7713897"><ele>293.0</ele><time>2026-05-03T14:55:29.21Z</time></trkpt><trkpt lat="44.6748081" lon="7.7714825"><ele>293.0</ele><time>2026-05-03T14:55:30.211Z</time></trkpt><trkpt lat="44.6745155" lon="7.771574"><ele>293.0</ele><time>2026-05-03T14:55:31.211Z</time></trkpt><trkpt lat="44.6742272" lon="7.7716577"><ele>293.5</ele><time>2026-05-03T14:55:32.21Z</time></trkpt><trkpt lat="44.6739384" lon="7.7717383"><ele>294.0</ele><time>2026-05-03T14:55:33.21Z</time></trkpt><trkpt lat="44.6736468" lon="7.7718213"><ele>293.5</ele><time>2026-05-03T14:55:34.21Z</time></trkpt><trkpt lat="44.6733586" lon="7.7719012"><ele>293.0</ele><time>2026-05-03T14:55:35.211Z</time></trkpt><trkpt lat="44.6730647" lon="7.7719816"><ele>293.5</ele><time>2026-05-03T14:55:36.21Z</time></trkpt><trkpt lat="44.6727658" lon="7.7720668"><ele>294.0</ele><time>2026-05-03T14:55:37.211Z</time></trkpt><trkpt lat="44.6724617" lon="7.7721514"><ele>294.0</ele><time>2026-05-03T14:55:38.211Z</time></trkpt><trkpt lat="44.6721559" lon="7.7722365"><ele>294.0</ele><time>2026-05-03T14:55:39.21Z</time></trkpt><trkpt lat="44.6718505" lon="7.7723207"><ele>294.0</ele><time>2026-05-03T14:55:40.21Z</time></trkpt><trkpt lat="44.6715415" lon="7.7724089"><ele>294.0</ele><time>2026-05-03T14:55:41.21Z</time></trkpt><trkpt lat="44.6712317" lon="7.7724978"><ele>295.5</ele><time>2026-05-03T14:55:42.21Z</time></trkpt><trkpt lat="44.6709212" lon="7.7725893"><ele>297.0</ele><time>2026-05-03T14:55:43.21Z</time></trkpt><trkpt lat="44.670611" lon="7.7726792"><ele>296.0</ele><time>2026-05-03T14:55:44.21Z</time></trkpt><trkpt lat="44.6702997" lon="7.7727703"><ele>295.0</ele><time>2026-05-03T14:55:45.211Z</time></trkpt><trkpt lat="44.6699866" lon="7.7728623"><ele>295.0</ele><time>2026-05-03T14:55:46.211Z</time></trkpt><trkpt lat="44.6696747" lon="7.7729531"><ele>295.0</ele><time>2026-05-03T14:55:47.21Z</time></trkpt><trkpt lat="44.6693607" lon="7.7730462"><ele>295.0</ele><time>2026-05-03T14:55:48.21Z</time></trkpt><trkpt lat="44.6690457" lon="7.7731342"><ele>295.0</ele><time>2026-05-03T14:55:49.211Z</time></trkpt><trkpt lat="44.6687332" lon="7.7732195"><ele>295.5</ele><time>2026-05-03T14:55:50.21Z</time></trkpt><trkpt lat="44.6684211" lon="7.7733069"><ele>296.0</ele><time>2026-05-03T14:55:51.211Z</time></trkpt><trkpt lat="44.6681108" lon="7.7733974"><ele>296.0</ele><time>2026-05-03T14:55:52.21Z</time></trkpt><trkpt lat="44.6678039" lon="7.7734837"><ele>296.0</ele><time>2026-05-03T14:55:53.21Z</time></trkpt><trkpt lat="44.6674987" lon="7.7735704"><ele>295.5</ele><time>2026-05-03T14:55:54.211Z</time></trkpt><trkpt lat="44.6671945" lon="7.7736565"><ele>295.0</ele><time>2026-05-03T14:55:55.211Z</time></trkpt><trkpt lat="44.6668934" lon="7.7737416"><ele>296.0</ele><time>2026-05-03T14:55:56.21Z</time></trkpt><trkpt lat="44.6665987" lon="7.7738251"><ele>297.0</ele><time>2026-05-03T14:55:57.21Z</time></trkpt><trkpt lat="44.6663024" lon="7.7739058"><ele>298.0</ele><time>2026-05-03T14:55:58.21Z</time></trkpt><trkpt lat="44.6660042" lon="7.7739733"><ele>299.0</ele><time>2026-05-03T14:55:59.21Z</time></trkpt><trkpt lat="44.6657026" lon="7.7740443"><ele>299.0</ele><time>2026-05-03T14:56:00.21Z</time></trkpt><trkpt lat="44.6654008" lon="7.7741261"><ele>299.0</ele><time>2026-05-03T14:56:01.21Z</time></trkpt><trkpt lat="44.6651011" lon="7.774211"><ele>299.0</ele><time>2026-05-03T14:56:02.21Z</time></trkpt><trkpt lat="44.6647995" lon="7.7743006"><ele>299.0</ele><time>2026-05-03T14:56:03.21Z</time></trkpt><trkpt lat="44.6644944" lon="7.7743923"><ele>300.5</ele><time>2026-05-03T14:56:04.21Z</time></trkpt><trkpt lat="44.6641868" lon="7.7744848"><ele>302.0</ele><time>2026-05-03T14:56:05.211Z</time></trkpt><trkpt lat="44.6638792" lon="7.7745737"><ele>300.0</ele><time>2026-05-03T14:56:06.211Z</time></trkpt><trkpt lat="44.6635726" lon="7.77466"><ele>298.0</ele><time>2026-05-03T14:56:07.21Z</time></trkpt><trkpt lat="44.6632633" lon="7.7747459"><ele>298.0</ele><time>2026-05-03T14:56:08.21Z</time></trkpt><trkpt lat="44.6629547" lon="7.7748333"><ele>298.0</ele><time>2026-05-03T14:56:09.21Z</time></trkpt><trkpt lat="44.6626447" lon="7.7749218"><ele>298.5</ele><time>2026-05-03T14:56:10.21Z</time></trkpt><trkpt lat="44.6623343" lon="7.7750126"><ele>299.0</ele><time>2026-05-03T14:56:11.21Z</time></trkpt><trkpt lat="44.6620257" lon="7.7751044"><ele>300.0</ele><time>2026-05-03T14:56:12.21Z</time></trkpt><trkpt lat="44.6617119" lon="7.7751952"><ele>301.0</ele><time>2026-05-03T14:56:13.211Z</time></trkpt><trkpt lat="44.6613978" lon="7.7752836"><ele>300.0</ele><time>2026-05-03T14:56:14.21Z</time></trkpt><trkpt lat="44.6610839" lon="7.7753708"><ele>299.0</ele><time>2026-05-03T14:56:15.21Z</time></trkpt><trkpt lat="44.6607671" lon="7.7754608"><ele>299.0</ele><time>2026-05-03T14:56:16.21Z</time></trkpt><trkpt lat="44.6604521" lon="7.7755509"><ele>299.0</ele><time>2026-05-03T14:56:17.21Z</time></trkpt><trkpt lat="44.6601387" lon="7.7756422"><ele>299.5</ele><time>2026-05-03T14:56:18.21Z</time></trkpt><trkpt lat="44.6598257" lon="7.7757304"><ele>300.0</ele><time>2026-05-03T14:56:19.21Z</time></trkpt><trkpt lat="44.6595108" lon="7.775821"><ele>300.5</ele><time>2026-05-03T14:56:20.21Z</time></trkpt><trkpt lat="44.6591978" lon="7.775912"><ele>301.0</ele><time>2026-05-03T14:56:21.21Z</time></trkpt><trkpt lat="44.6588851" lon="7.7760038"><ele>302.0</ele><time>2026-05-03T14:56:22.21Z</time></trkpt><trkpt lat="44.6585714" lon="7.7760944"><ele>303.0</ele><time>2026-05-03T14:56:23.21Z</time></trkpt><trkpt lat="44.6582577" lon="7.7761855"><ele>303.0</ele><time>2026-05-03T14:56:24.21Z</time></trkpt><trkpt lat="44.6579428" lon="7.77628"><ele>303.0</ele><time>2026-05-03T14:56:25.21Z</time></trkpt><trkpt lat="44.6576254" lon="7.7763729"><ele>303.5</ele><time>2026-05-03T14:56:26.21Z</time></trkpt><trkpt lat="44.6573053" lon="7.77646"><ele>304.0</ele><time>2026-05-03T14:56:27.21Z</time></trkpt><trkpt lat="44.6569835" lon="7.7765509"><ele>304.0</ele><time>2026-05-03T14:56:28.21Z</time></trkpt><trkpt lat="44.6566639" lon="7.7766468"><ele>304.0</ele><time>2026-05-03T14:56:29.21Z</time></trkpt><trkpt lat="44.6563435" lon="7.7767412"><ele>303.0</ele><time>2026-05-03T14:56:30.21Z</time></trkpt><trkpt lat="44.6560307" lon="7.776832"><ele>302.0</ele><time>2026-05-03T14:56:31.21Z</time></trkpt><trkpt lat="44.6557221" lon="7.7769201"><ele>302.0</ele><time>2026-05-03T14:56:32.211Z</time></trkpt><trkpt lat="44.6554142" lon="7.7770057"><ele>302.0</ele><time>2026-05-03T14:56:33.211Z</time></trkpt><trkpt lat="44.6551063" lon="7.7770884"><ele>302.0</ele><time>2026-05-03T14:56:34.211Z</time></trkpt><trkpt lat="44.6547987" lon="7.777177"><ele>302.0</ele><time>2026-05-03T14:56:35.21Z</time></trkpt><trkpt lat="44.6544924" lon="7.7772644"><ele>302.0</ele><time>2026-05-03T14:56:36.21Z</time></trkpt><trkpt lat="44.6541863" lon="7.7773529"><ele>302.0</ele><time>2026-05-03T14:56:37.21Z</time></trkpt><trkpt lat="44.6538806" lon="7.7774407"><ele>303.0</ele><time>2026-05-03T14:56:38.21Z</time></trkpt><trkpt lat="44.6535761" lon="7.7775302"><ele>304.0</ele><time>2026-05-03T14:56:39.21Z</time></trkpt><trkpt lat="44.6532759" lon="7.7776179"><ele>303.5</ele><time>2026-05-03T14:56:40.21Z</time></trkpt><trkpt lat="44.6529728" lon="7.777703"><ele>303.0</ele><time>2026-05-03T14:56:41.21Z</time></trkpt><trkpt lat="44.6526686" lon="7.7777846"><ele>303.0</ele><time>2026-05-03T14:56:42.21Z</time></trkpt><trkpt lat="44.6523643" lon="7.7778639"><ele>303.0</ele><time>2026-05-03T14:56:43.21Z</time></trkpt><trkpt lat="44.6520596" lon="7.7779422"><ele>304.5</ele><time>2026-05-03T14:56:44.21Z</time></trkpt><trkpt lat="44.6517539" lon="7.7780203"><ele>306.0</ele><time>2026-05-03T14:56:45.211Z</time></trkpt><trkpt lat="44.6514457" lon="7.7780942"><ele>306.0</ele><time>2026-05-03T14:56:46.21Z</time></trkpt><trkpt lat="44.6511361" lon="7.778163"><ele>306.0</ele><time>2026-05-03T14:56:47.21Z</time></trkpt><trkpt lat="44.6508241" lon="7.778231"><ele>306.0</ele><time>2026-05-03T14:56:48.21Z</time></trkpt><trkpt lat="44.650512" lon="7.7782965"><ele>306.0</ele><time>2026-05-03T14:56:49.21Z</time></trkpt><trkpt lat="44.650197" lon="7.778364"><ele>305.5</ele><time>2026-05-03T14:56:50.211Z</time></trkpt><trkpt lat="44.649879" lon="7.7784257"><ele>305.0</ele><time>2026-05-03T14:56:51.21Z</time></trkpt><trkpt lat="44.6495593" lon="7.7784863"><ele>305.0</ele><time>2026-05-03T14:56:52.21Z</time></trkpt><trkpt lat="44.6492364" lon="7.7785386"><ele>305.0</ele><time>2026-05-03T14:56:53.21Z</time></trkpt><trkpt lat="44.6489131" lon="7.7785883"><ele>307.0</ele><time>2026-05-03T14:56:54.211Z</time></trkpt><trkpt lat="44.6485904" lon="7.7786389"><ele>309.0</ele><time>2026-05-03T14:56:55.211Z</time></trkpt><trkpt lat="44.6482659" lon="7.7786831"><ele>309.0</ele><time>2026-05-03T14:56:56.21Z</time></trkpt><trkpt lat="44.6479447" lon="7.7787269"><ele>309.0</ele><time>2026-05-03T14:56:57.21Z</time></trkpt><trkpt lat="44.6476259" lon="7.7787668"><ele>308.5</ele><time>2026-05-03T14:56:58.21Z</time></trkpt><trkpt lat="44.6473062" lon="7.7788037"><ele>308.0</ele><time>2026-05-03T14:56:59.211Z</time></trkpt><trkpt lat="44.6469877" lon="7.7788377"><ele>308.0</ele><time>2026-05-03T14:57:00.211Z</time></trkpt><trkpt lat="44.6466702" lon="7.7788638"><ele>308.0</ele><time>2026-05-03T14:57:01.21Z</time></trkpt><trkpt lat="44.6463559" lon="7.7788884"><ele>307.5</ele><time>2026-05-03T14:57:02.21Z</time></trkpt><trkpt lat="44.6460417" lon="7.7789076"><ele>307.0</ele><time>2026-05-03T14:57:03.21Z</time></trkpt><trkpt lat="44.6457237" lon="7.7789284"><ele>307.0</ele><time>2026-05-03T14:57:04.21Z</time></trkpt><trkpt lat="44.6454034" lon="7.7789401"><ele>307.0</ele><time>2026-05-03T14:57:05.211Z</time></trkpt><trkpt lat="44.6450813" lon="7.7789499"><ele>307.0</ele><time>2026-05-03T14:57:06.21Z</time></trkpt><trkpt lat="44.6447593" lon="7.7789567"><ele>307.0</ele><time>2026-05-03T14:57:07.211Z</time></trkpt><trkpt lat="44.6444405" lon="7.7789582"><ele>306.5</ele><time>2026-05-03T14:57:08.211Z</time></trkpt><trkpt lat="44.644123" lon="7.7789616"><ele>306.0</ele><time>2026-05-03T14:57:09.21Z</time></trkpt><trkpt lat="44.6438048" lon="7.7789636"><ele>306.0</ele><time>2026-05-03T14:57:10.21Z</time></trkpt><trkpt lat="44.6434859" lon="7.7789668"><ele>306.0</ele><time>2026-05-03T14:57:11.21Z</time></trkpt><trkpt lat="44.643168" lon="7.7789675"><ele>306.0</ele><time>2026-05-03T14:57:12.21Z</time></trkpt><trkpt lat="44.6428464" lon="7.7789635"><ele>306.0</ele><time>2026-05-03T14:57:13.211Z</time></trkpt><trkpt lat="44.6425247" lon="7.7789564"><ele>306.0</ele><time>2026-05-03T14:57:14.21Z</time></trkpt><trkpt lat="44.6422034" lon="7.7789528"><ele>306.0</ele><time>2026-05-03T14:57:15.211Z</time></trkpt><trkpt lat="44.6418857" lon="7.7789383"><ele>307.5</ele><time>2026-05-03T14:57:16.21Z</time></trkpt><trkpt lat="44.6415727" lon="7.7789221"><ele>309.0</ele><time>2026-05-03T14:57:17.211Z</time></trkpt><trkpt lat="44.6412658" lon="7.7789009"><ele>308.5</ele><time>2026-05-03T14:57:18.211Z</time></trkpt><trkpt lat="44.6409622" lon="7.7788749"><ele>308.0</ele><time>2026-05-03T14:57:19.21Z</time></trkpt><trkpt lat="44.640666" lon="7.7788471"><ele>308.0</ele><time>2026-05-03T14:57:20.21Z</time></trkpt><trkpt lat="44.6403724" lon="7.7788139"><ele>308.0</ele><time>2026-05-03T14:57:21.21Z</time></trkpt><trkpt lat="44.6400776" lon="7.7787791"><ele>307.5</ele><time>2026-05-03T14:57:22.21Z</time></trkpt><trkpt lat="44.6397762" lon="7.7787418"><ele>307.0</ele><time>2026-05-03T14:57:23.21Z</time></trkpt><trkpt lat="44.6394712" lon="7.7786955"><ele>308.0</ele><time>2026-05-03T14:57:24.21Z</time></trkpt><trkpt lat="44.6391625" lon="7.7786499"><ele>309.0</ele><time>2026-05-03T14:57:25.21Z</time></trkpt><trkpt lat="44.6388495" lon="7.778597"><ele>309.5</ele><time>2026-05-03T14:57:26.21Z</time></trkpt><trkpt lat="44.6385339" lon="7.7785435"><ele>310.0</ele><time>2026-05-03T14:57:27.21Z</time></trkpt><trkpt lat="44.6382138" lon="7.7784905"><ele>310.0</ele><time>2026-05-03T14:57:28.21Z</time></trkpt><trkpt lat="44.6378961" lon="7.7784343"><ele>310.0</ele><time>2026-05-03T14:57:29.211Z</time></trkpt><trkpt lat="44.6375801" lon="7.7783718"><ele>310.0</ele><time>2026-05-03T14:57:30.21Z</time></trkpt><trkpt lat="44.6372649" lon="7.7783028"><ele>310.0</ele><time>2026-05-03T14:57:31.211Z</time></trkpt><trkpt lat="44.6369471" lon="7.7782248"><ele>309.5</ele><time>2026-05-03T14:57:32.21Z</time></trkpt><trkpt lat="44.6366299" lon="7.77814"><ele>309.0</ele><time>2026-05-03T14:57:33.21Z</time></trkpt><trkpt lat="44.6363116" lon="7.7780529"><ele>310.0</ele><time>2026-05-03T14:57:34.21Z</time></trkpt><trkpt lat="44.6359947" lon="7.777969"><ele>311.0</ele><time>2026-05-03T14:57:35.211Z</time></trkpt><trkpt lat="44.6356733" lon="7.7778846"><ele>311.0</ele><time>2026-05-03T14:57:36.21Z</time></trkpt><trkpt lat="44.6353517" lon="7.7777956"><ele>311.0</ele><time>2026-05-03T14:57:37.21Z</time></trkpt><trkpt lat="44.6350345" lon="7.7777068"><ele>310.5</ele><time>2026-05-03T14:57:38.21Z</time></trkpt><trkpt lat="44.6347206" lon="7.7776163"><ele>310.0</ele><time>2026-05-03T14:57:39.21Z</time></trkpt><trkpt lat="44.6344109" lon="7.7775192"><ele>310.0</ele><time>2026-05-03T14:57:40.211Z</time></trkpt><trkpt lat="44.6341044" lon="7.7774206"><ele>310.0</ele><time>2026-05-03T14:57:41.21Z</time></trkpt><trkpt lat="44.6337972" lon="7.7773192"><ele>310.5</ele><time>2026-05-03T14:57:42.21Z</time></trkpt><trkpt lat="44.6334972" lon="7.7772196"><ele>311.0</ele><time>2026-05-03T14:57:43.211Z</time></trkpt><trkpt lat="44.633202" lon="7.7771187"><ele>311.0</ele><time>2026-05-03T14:57:44.211Z</time></trkpt><trkpt lat="44.632907" lon="7.7770123"><ele>311.0</ele><time>2026-05-03T14:57:45.21Z</time></trkpt><trkpt lat="44.6326122" lon="7.7769051"><ele>311.0</ele><time>2026-05-03T14:57:46.211Z</time></trkpt><trkpt lat="44.632316" lon="7.7767982"><ele>311.0</ele><time>2026-05-03T14:57:47.21Z</time></trkpt><trkpt lat="44.6320178" lon="7.7766854"><ele>311.5</ele><time>2026-05-03T14:57:48.21Z</time></trkpt><trkpt lat="44.6317173" lon="7.7765651"><ele>312.0</ele><time>2026-05-03T14:57:49.21Z</time></trkpt><trkpt lat="44.6314157" lon="7.7764367"><ele>312.0</ele><time>2026-05-03T14:57:50.21Z</time></trkpt><trkpt lat="44.6311123" lon="7.7763103"><ele>312.0</ele><time>2026-05-03T14:57:51.21Z</time></trkpt><trkpt lat="44.6308117" lon="7.7761838"><ele>312.0</ele><time>2026-05-03T14:57:52.211Z</time></trkpt><trkpt lat="44.6305133" lon="7.7760519"><ele>312.0</ele><time>2026-05-03T14:57:53.21Z</time></trkpt><trkpt lat="44.6302117" lon="7.7759202"><ele>312.0</ele><time>2026-05-03T14:57:54.21Z</time></trkpt><trkpt lat="44.6299105" lon="7.7757811"><ele>312.0</ele><time>2026-05-03T14:57:55.21Z</time></trkpt><trkpt lat="44.6296077" lon="7.7756374"><ele>312.0</ele><time>2026-05-03T14:57:56.21Z</time></trkpt><trkpt lat="44.6293024" lon="7.7754907"><ele>312.0</ele><time>2026-05-03T14:57:57.21Z</time></trkpt><trkpt lat="44.6289975" lon="7.7753337"><ele>311.5</ele><time>2026-05-03T14:57:58.21Z</time></trkpt><trkpt lat="44.6286919" lon="7.7751744"><ele>311.0</ele><time>2026-05-03T14:57:59.21Z</time></trkpt><trkpt lat="44.6283848" lon="7.775014"><ele>312.0</ele><time>2026-05-03T14:58:00.211Z</time></trkpt><trkpt lat="44.6280808" lon="7.7748544"><ele>313.0</ele><time>2026-05-03T14:58:01.21Z</time></trkpt><trkpt lat="44.6277774" lon="7.774695"><ele>313.0</ele><time>2026-05-03T14:58:02.21Z</time></trkpt><trkpt lat="44.6274805" lon="7.7745309"><ele>313.0</ele><time>2026-05-03T14:58:03.211Z</time></trkpt><trkpt lat="44.6271874" lon="7.7743632"><ele>313.5</ele><time>2026-05-03T14:58:04.21Z</time></trkpt><trkpt lat="44.6269018" lon="7.7741965"><ele>314.0</ele><time>2026-05-03T14:58:05.211Z</time></trkpt><trkpt lat="44.6266188" lon="7.774033"><ele>314.0</ele><time>2026-05-03T14:58:06.21Z</time></trkpt><trkpt lat="44.626337" lon="7.7738674"><ele>314.0</ele><time>2026-05-03T14:58:07.21Z</time></trkpt><trkpt lat="44.6260571" lon="7.7736958"><ele>314.0</ele><time>2026-05-03T14:58:08.21Z</time></trkpt><trkpt lat="44.6257756" lon="7.7735231"><ele>314.0</ele><time>2026-05-03T14:58:09.211Z</time></trkpt><trkpt lat="44.6254902" lon="7.7733444"><ele>315.0</ele><time>2026-05-03T14:58:10.21Z</time></trkpt><trkpt lat="44.6252035" lon="7.7731608"><ele>316.0</ele><time>2026-05-03T14:58:11.21Z</time></trkpt><trkpt lat="44.6249137" lon="7.7729785"><ele>316.0</ele><time>2026-05-03T14:58:12.21Z</time></trkpt><trkpt lat="44.6246255" lon="7.7727912"><ele>316.0</ele><time>2026-05-03T14:58:13.211Z</time></trkpt><trkpt lat="44.624335" lon="7.7725969"><ele>316.0</ele><time>2026-05-03T14:58:14.21Z</time></trkpt><trkpt lat="44.6240421" lon="7.7724063"><ele>316.0</ele><time>2026-05-03T14:58:15.21Z</time></trkpt><trkpt lat="44.6237497" lon="7.772216"><ele>316.0</ele><time>2026-05-03T14:58:16.21Z</time></trkpt><trkpt lat="44.6234607" lon="7.772031"><ele>316.0</ele><time>2026-05-03T14:58:17.211Z</time></trkpt><trkpt lat="44.6231746" lon="7.7718481"><ele>315.5</ele><time>2026-05-03T14:58:18.21Z</time></trkpt><trkpt lat="44.6228925" lon="7.771671"><ele>315.0</ele><time>2026-05-03T14:58:19.21Z</time></trkpt><trkpt lat="44.6226132" lon="7.7714923"><ele>315.0</ele><time>2026-05-03T14:58:20.211Z</time></trkpt><trkpt lat="44.6223359" lon="7.7713108"><ele>315.0</ele><time>2026-05-03T14:58:21.211Z</time></trkpt><trkpt lat="44.622059" lon="7.7711334"><ele>315.0</ele><time>2026-05-03T14:58:22.21Z</time></trkpt><trkpt lat="44.6217836" lon="7.7709535"><ele>315.0</ele><time>2026-05-03T14:58:23.211Z</time></trkpt><trkpt lat="44.6215082" lon="7.7707748"><ele>315.0</ele><time>2026-05-03T14:58:24.211Z</time></trkpt><trkpt lat="44.6212291" lon="7.7705962"><ele>315.0</ele><time>2026-05-03T14:58:25.211Z</time></trkpt><trkpt lat="44.6209514" lon="7.7704175"><ele>315.0</ele><time>2026-05-03T14:58:26.21Z</time></trkpt><trkpt lat="44.6206735" lon="7.7702367"><ele>315.0</ele><time>2026-05-03T14:58:27.21Z</time></trkpt><trkpt lat="44.6203962" lon="7.7700522"><ele>315.5</ele><time>2026-05-03T14:58:28.211Z</time></trkpt><trkpt lat="44.6201162" lon="7.7698673"><ele>316.0</ele><time>2026-05-03T14:58:29.21Z</time></trkpt><trkpt lat="44.6198352" lon="7.7696894"><ele>316.0</ele><time>2026-05-03T14:58:30.21Z</time></trkpt><trkpt lat="44.6195514" lon="7.7695056"><ele>316.0</ele><time>2026-05-03T14:58:31.21Z</time></trkpt><trkpt lat="44.6192685" lon="7.7693229"><ele>316.5</ele><time>2026-05-03T14:58:32.21Z</time></trkpt><trkpt lat="44.618981" lon="7.7691356"><ele>317.0</ele><time>2026-05-03T14:58:33.211Z</time></trkpt><trkpt lat="44.6186969" lon="7.768947"><ele>317.5</ele><time>2026-05-03T14:58:34.21Z</time></trkpt><trkpt lat="44.6184126" lon="7.7687574"><ele>318.0</ele><time>2026-05-03T14:58:35.21Z</time></trkpt><trkpt lat="44.6181222" lon="7.7685679"><ele>318.0</ele><time>2026-05-03T14:58:36.211Z</time></trkpt><trkpt lat="44.6178318" lon="7.768388"><ele>318.0</ele><time>2026-05-03T14:58:37.211Z</time></trkpt><trkpt lat="44.6175395" lon="7.7682019"><ele>318.0</ele><time>2026-05-03T14:58:38.21Z</time></trkpt><trkpt lat="44.617252" lon="7.7680163"><ele>318.0</ele><time>2026-05-03T14:58:39.21Z</time></trkpt><trkpt lat="44.6169642" lon="7.7678324"><ele>318.0</ele><time>2026-05-03T14:58:40.21Z</time></trkpt><trkpt lat="44.6166768" lon="7.7676518"><ele>318.0</ele><time>2026-05-03T14:58:41.21Z</time></trkpt><trkpt lat="44.6163878" lon="7.7674702"><ele>318.0</ele><time>2026-05-03T14:58:42.21Z</time></trkpt><trkpt lat="44.6161018" lon="7.7672878"><ele>318.0</ele><time>2026-05-03T14:58:43.21Z</time></trkpt><trkpt lat="44.61582" lon="7.7671003"><ele>318.0</ele><time>2026-05-03T14:58:44.211Z</time></trkpt><trkpt lat="44.6155384" lon="7.7669131"><ele>318.0</ele><time>2026-05-03T14:58:45.211Z</time></trkpt><trkpt lat="44.6152536" lon="7.7667274"><ele>319.0</ele><time>2026-05-03T14:58:46.21Z</time></trkpt><trkpt lat="44.6149691" lon="7.7665418"><ele>320.0</ele><time>2026-05-03T14:58:47.21Z</time></trkpt><trkpt lat="44.6146819" lon="7.7663552"><ele>320.0</ele><time>2026-05-03T14:58:48.211Z</time></trkpt><trkpt lat="44.6143948" lon="7.7661735"><ele>320.0</ele><time>2026-05-03T14:58:49.21Z</time></trkpt><trkpt lat="44.6141072" lon="7.7659898"><ele>320.0</ele><time>2026-05-03T14:58:50.21Z</time></trkpt><trkpt lat="44.6138188" lon="7.7658021"><ele>320.0</ele><time>2026-05-03T14:58:51.21Z</time></trkpt><trkpt lat="44.6135292" lon="7.7656145"><ele>319.5</ele><time>2026-05-03T14:58:52.21Z</time></trkpt><trkpt lat="44.6132396" lon="7.7654283"><ele>319.0</ele><time>2026-05-03T14:58:53.21Z</time></trkpt><trkpt lat="44.6129515" lon="7.7652418"><ele>320.0</ele><time>2026-05-03T14:58:54.21Z</time></trkpt><trkpt lat="44.6126597" lon="7.7650611"><ele>321.0</ele><time>2026-05-03T14:58:55.21Z</time></trkpt><trkpt lat="44.6123669" lon="7.7648828"><ele>321.0</ele><time>2026-05-03T14:58:56.211Z</time></trkpt><trkpt lat="44.6120759" lon="7.7647038"><ele>321.0</ele><time>2026-05-03T14:58:57.21Z</time></trkpt><trkpt lat="44.6117847" lon="7.764522"><ele>321.0</ele><time>2026-05-03T14:58:58.21Z</time></trkpt><trkpt lat="44.611493" lon="7.7643393"><ele>321.0</ele><time>2026-05-03T14:58:59.21Z</time></trkpt><trkpt lat="44.6112022" lon="7.7641531"><ele>321.5</ele><time>2026-05-03T14:59:00.21Z</time></trkpt><trkpt lat="44.6109109" lon="7.7639666"><ele>322.0</ele><time>2026-05-03T14:59:01.211Z</time></trkpt><trkpt lat="44.6106173" lon="7.7637842"><ele>322.0</ele><time>2026-05-03T14:59:02.21Z</time></trkpt><trkpt lat="44.6103264" lon="7.7636074"><ele>322.0</ele><time>2026-05-03T14:59:03.211Z</time></trkpt><trkpt lat="44.6100372" lon="7.7634292"><ele>322.0</ele><time>2026-05-03T14:59:04.21Z</time></trkpt><trkpt lat="44.6097457" lon="7.7632535"><ele>322.0</ele><time>2026-05-03T14:59:05.21Z</time></trkpt><trkpt lat="44.6094484" lon="7.7630839"><ele>322.0</ele><time>2026-05-03T14:59:06.21Z</time></trkpt><trkpt lat="44.6091459" lon="7.7629157"><ele>322.0</ele><time>2026-05-03T14:59:07.21Z</time></trkpt><trkpt lat="44.6088409" lon="7.7627595"><ele>322.0</ele><time>2026-05-03T14:59:08.211Z</time></trkpt><trkpt lat="44.608538" lon="7.7626151"><ele>322.0</ele><time>2026-05-03T14:59:09.21Z</time></trkpt><trkpt lat="44.6082388" lon="7.762478"><ele>322.0</ele><time>2026-05-03T14:59:10.211Z</time></trkpt><trkpt lat="44.6079412" lon="7.7623425"><ele>322.0</ele><time>2026-05-03T14:59:11.21Z</time></trkpt><trkpt lat="44.6076386" lon="7.7622111"><ele>323.5</ele><time>2026-05-03T14:59:12.211Z</time></trkpt><trkpt lat="44.6073327" lon="7.7620885"><ele>325.0</ele><time>2026-05-03T14:59:13.21Z</time></trkpt><trkpt lat="44.607025" lon="7.7619652"><ele>323.5</ele><time>2026-05-03T14:59:14.211Z</time></trkpt><trkpt lat="44.6067169" lon="7.7618463"><ele>322.0</ele><time>2026-05-03T14:59:15.211Z</time></trkpt><trkpt lat="44.6064061" lon="7.7617325"><ele>322.0</ele><time>2026-05-03T14:59:16.21Z</time></trkpt><trkpt lat="44.6060915" lon="7.7616232"><ele>322.0</ele><time>2026-05-03T14:59:17.21Z</time></trkpt><trkpt lat="44.6057752" lon="7.7615223"><ele>322.0</ele><time>2026-05-03T14:59:18.21Z</time></trkpt><trkpt lat="44.605462" lon="7.761428"><ele>322.0</ele><time>2026-05-03T14:59:19.211Z</time></trkpt><trkpt lat="44.605148" lon="7.7613309"><ele>322.0</ele><time>2026-05-03T14:59:20.21Z</time></trkpt><trkpt lat="44.6048317" lon="7.7612435"><ele>322.0</ele><time>2026-05-03T14:59:21.21Z</time></trkpt><trkpt lat="44.6045151" lon="7.7611635"><ele>323.5</ele><time>2026-05-03T14:59:22.21Z</time></trkpt><trkpt lat="44.6041991" lon="7.7610952"><ele>325.0</ele><time>2026-05-03T14:59:23.21Z</time></trkpt><trkpt lat="44.6038793" lon="7.7610274"><ele>324.5</ele><time>2026-05-03T14:59:24.21Z</time></trkpt><trkpt lat="44.603559" lon="7.7609643"><ele>324.0</ele><time>2026-05-03T14:59:25.211Z</time></trkpt><trkpt lat="44.6032369" lon="7.7609062"><ele>324.0</ele><time>2026-05-03T14:59:26.211Z</time></trkpt><trkpt lat="44.6029127" lon="7.7608516"><ele>324.0</ele><time>2026-05-03T14:59:27.21Z</time></trkpt><trkpt lat="44.6025892" lon="7.7608019"><ele>324.0</ele><time>2026-05-03T14:59:28.21Z</time></trkpt><trkpt lat="44.6022673" lon="7.7607566"><ele>324.0</ele><time>2026-05-03T14:59:29.211Z</time></trkpt><trkpt lat="44.601947" lon="7.7607168"><ele>324.5</ele><time>2026-05-03T14:59:30.211Z</time></trkpt><trkpt lat="44.6016284" lon="7.760684"><ele>325.0</ele><time>2026-05-03T14:59:31.21Z</time></trkpt><trkpt lat="44.6013121" lon="7.760659"><ele>324.5</ele><time>2026-05-03T14:59:32.21Z</time></trkpt><trkpt lat="44.6009991" lon="7.7606401"><ele>324.0</ele><time>2026-05-03T14:59:33.211Z</time></trkpt><trkpt lat="44.6006895" lon="7.7606284"><ele>324.0</ele><time>2026-05-03T14:59:34.211Z</time></trkpt><trkpt lat="44.6003819" lon="7.7606235"><ele>324.0</ele><time>2026-05-03T14:59:35.21Z</time></trkpt><trkpt lat="44.6000695" lon="7.7606195"><ele>325.0</ele><time>2026-05-03T14:59:36.21Z</time></trkpt><trkpt lat="44.5997598" lon="7.7606188"><ele>326.0</ele><time>2026-05-03T14:59:37.21Z</time></trkpt><trkpt lat="44.5994489" lon="7.7606203"><ele>327.5</ele><time>2026-05-03T14:59:38.21Z</time></trkpt><trkpt lat="44.5991382" lon="7.7606227"><ele>329.0</ele><time>2026-05-03T14:59:39.21Z</time></trkpt><trkpt lat="44.5988268" lon="7.7606344"><ele>329.5</ele><time>2026-05-03T14:59:40.211Z</time></trkpt><trkpt lat="44.5985119" lon="7.7606533"><ele>330.0</ele><time>2026-05-03T14:59:41.21Z</time></trkpt><trkpt lat="44.5981953" lon="7.7606811"><ele>330.0</ele><time>2026-05-03T14:59:42.21Z</time></trkpt><trkpt lat="44.5978782" lon="7.7607081"><ele>330.0</ele><time>2026-05-03T14:59:43.211Z</time></trkpt><trkpt lat="44.5975625" lon="7.7607385"><ele>328.5</ele><time>2026-05-03T14:59:44.21Z</time></trkpt><trkpt lat="44.5972484" lon="7.7607724"><ele>327.0</ele><time>2026-05-03T14:59:45.211Z</time></trkpt><trkpt lat="44.5969401" lon="7.7608167"><ele>327.0</ele><time>2026-05-03T14:59:46.21Z</time></trkpt><trkpt lat="44.5966358" lon="7.760866"><ele>327.0</ele><time>2026-05-03T14:59:47.211Z</time></trkpt><trkpt lat="44.5963299" lon="7.7609171"><ele>327.0</ele><time>2026-05-03T14:59:48.211Z</time></trkpt><trkpt lat="44.5960237" lon="7.760973"><ele>327.0</ele><time>2026-05-03T14:59:49.21Z</time></trkpt><trkpt lat="44.5957179" lon="7.7610395"><ele>327.0</ele><time>2026-05-03T14:59:50.21Z</time></trkpt><trkpt lat="44.595415" lon="7.7611105"><ele>327.0</ele><time>2026-05-03T14:59:51.211Z</time></trkpt><trkpt lat="44.5951145" lon="7.7611833"><ele>326.5</ele><time>2026-05-03T14:59:52.21Z</time></trkpt><trkpt lat="44.5948165" lon="7.7612548"><ele>326.0</ele><time>2026-05-03T14:59:53.211Z</time></trkpt><trkpt lat="44.594525" lon="7.7613334"><ele>327.5</ele><time>2026-05-03T14:59:54.211Z</time></trkpt><trkpt lat="44.594232" lon="7.7614234"><ele>329.0</ele><time>2026-05-03T14:59:55.21Z</time></trkpt><trkpt lat="44.5939354" lon="7.7615149"><ele>328.5</ele><time>2026-05-03T14:59:56.21Z</time></trkpt><trkpt lat="44.5936349" lon="7.7616113"><ele>328.0</ele><time>2026-05-03T14:59:57.21Z</time></trkpt><trkpt lat="44.593329" lon="7.7617141"><ele>328.0</ele><time>2026-05-03T14:59:58.21Z</time></trkpt><trkpt lat="44.5930206" lon="7.761825"><ele>328.0</ele><time>2026-05-03T14:59:59.21Z</time></trkpt><trkpt lat="44.592714" lon="7.7619396"><ele>329.0</ele><time>2026-05-03T15:00:00.21Z</time></trkpt><trkpt lat="44.5924032" lon="7.7620593"><ele>330.0</ele><time>2026-05-03T15:00:01.211Z</time></trkpt><trkpt lat="44.5920946" lon="7.762183"><ele>329.0</ele><time>2026-05-03T15:00:02.21Z</time></trkpt><trkpt lat="44.5917903" lon="7.7623138"><ele>328.0</ele><time>2026-05-03T15:00:03.21Z</time></trkpt><trkpt lat="44.5914878" lon="7.7624518"><ele>328.0</ele><time>2026-05-03T15:00:04.21Z</time></trkpt><trkpt lat="44.5911883" lon="7.7625929"><ele>328.0</ele><time>2026-05-03T15:00:05.21Z</time></trkpt><trkpt lat="44.5908898" lon="7.7627377"><ele>328.0</ele><time>2026-05-03T15:00:06.21Z</time></trkpt><trkpt lat="44.5905924" lon="7.7628842"><ele>328.0</ele><time>2026-05-03T15:00:07.21Z</time></trkpt><trkpt lat="44.5902984" lon="7.7630371"><ele>328.0</ele><time>2026-05-03T15:00:08.211Z</time></trkpt><trkpt lat="44.5900064" lon="7.7631929"><ele>328.0</ele><time>2026-05-03T15:00:09.21Z</time></trkpt><trkpt lat="44.5897177" lon="7.7633524"><ele>328.0</ele><time>2026-05-03T15:00:10.21Z</time></trkpt><trkpt lat="44.5894305" lon="7.7635178"><ele>328.0</ele><time>2026-05-03T15:00:11.21Z</time></trkpt><trkpt lat="44.5891434" lon="7.7636857"><ele>328.5</ele><time>2026-05-03T15:00:12.21Z</time></trkpt><trkpt lat="44.5888569" lon="7.7638608"><ele>329.0</ele><time>2026-05-03T15:00:13.211Z</time></trkpt><trkpt lat="44.5885747" lon="7.7640396"><ele>329.0</ele><time>2026-05-03T15:00:14.211Z</time></trkpt><trkpt lat="44.5882914" lon="7.7642265"><ele>329.0</ele><time>2026-05-03T15:00:15.21Z</time></trkpt><trkpt lat="44.5880094" lon="7.7644169"><ele>324.0</ele><time>2026-05-03T15:00:16.211Z</time></trkpt><trkpt lat="44.5877284" lon="7.7646001"><ele>319.0</ele><time>2026-05-03T15:00:17.211Z</time></trkpt><trkpt lat="44.5874464" lon="7.7647903"><ele>319.0</ele><time>2026-05-03T15:00:18.21Z</time></trkpt><trkpt lat="44.5871689" lon="7.7649777"><ele>319.0</ele><time>2026-05-03T15:00:19.21Z</time></trkpt><trkpt lat="44.5868923" lon="7.7651706"><ele>311.5</ele><time>2026-05-03T15:00:20.21Z</time></trkpt><trkpt lat="44.5866116" lon="7.7653657"><ele>304.0</ele><time>2026-05-03T15:00:21.21Z</time></trkpt><trkpt lat="44.5863316" lon="7.765562"><ele>302.0</ele><time>2026-05-03T15:00:22.21Z</time></trkpt><trkpt lat="44.5860516" lon="7.765758"><ele>300.0</ele><time>2026-05-03T15:00:23.21Z</time></trkpt><trkpt lat="44.58577" lon="7.7659516"><ele>297.0</ele><time>2026-05-03T15:00:24.211Z</time></trkpt><trkpt lat="44.5854887" lon="7.7661457"><ele>294.0</ele><time>2026-05-03T15:00:25.211Z</time></trkpt><trkpt lat="44.585204" lon="7.766334"><ele>294.0</ele><time>2026-05-03T15:00:26.211Z</time></trkpt><trkpt lat="44.5849208" lon="7.7665288"><ele>294.0</ele><time>2026-05-03T15:00:27.21Z</time></trkpt><trkpt lat="44.5846401" lon="7.766725"><ele>291.5</ele><time>2026-05-03T15:00:28.21Z</time></trkpt><trkpt lat="44.5843594" lon="7.7669207"><ele>289.0</ele><time>2026-05-03T15:00:29.21Z</time></trkpt><trkpt lat="44.5840789" lon="7.767122"><ele>289.0</ele><time>2026-05-03T15:00:30.21Z</time></trkpt><trkpt lat="44.5837983" lon="7.7673189"><ele>289.0</ele><time>2026-05-03T15:00:31.21Z</time></trkpt><trkpt lat="44.5835204" lon="7.7675102"><ele>289.0</ele><time>2026-05-03T15:00:32.21Z</time></trkpt><trkpt lat="44.5832399" lon="7.7676983"><ele>289.0</ele><time>2026-05-03T15:00:33.21Z</time></trkpt><trkpt lat="44.5829619" lon="7.7678904"><ele>291.5</ele><time>2026-05-03T15:00:34.21Z</time></trkpt><trkpt lat="44.5826833" lon="7.7680881"><ele>294.0</ele><time>2026-05-03T15:00:35.21Z</time></trkpt><trkpt lat="44.5824049" lon="7.7682835"><ele>294.0</ele><time>2026-05-03T15:00:36.21Z</time></trkpt><trkpt lat="44.5821264" lon="7.7684753"><ele>294.0</ele><time>2026-05-03T15:00:37.21Z</time></trkpt><trkpt lat="44.5818482" lon="7.768666"><ele>290.5</ele><time>2026-05-03T15:00:38.211Z</time></trkpt><trkpt lat="44.581569" lon="7.7688587"><ele>287.0</ele><time>2026-05-03T15:00:39.21Z</time></trkpt><trkpt lat="44.5812879" lon="7.7690491"><ele>285.5</ele><time>2026-05-03T15:00:40.21Z</time></trkpt><trkpt lat="44.5810091" lon="7.7692398"><ele>284.0</ele><time>2026-05-03T15:00:41.211Z</time></trkpt><trkpt lat="44.5807313" lon="7.7694327"><ele>284.0</ele><time>2026-05-03T15:00:42.211Z</time></trkpt><trkpt lat="44.5804521" lon="7.7696232"><ele>284.0</ele><time>2026-05-03T15:00:43.21Z</time></trkpt><trkpt lat="44.5801676" lon="7.7698216"><ele>284.0</ele><time>2026-05-03T15:00:44.21Z</time></trkpt><trkpt lat="44.5798842" lon="7.7700177"><ele>284.0</ele><time>2026-05-03T15:00:45.21Z</time></trkpt><trkpt lat="44.5796037" lon="7.770213"><ele>279.0</ele><time>2026-05-03T15:00:46.21Z</time></trkpt><trkpt lat="44.5793225" lon="7.7704092"><ele>274.0</ele><time>2026-05-03T15:00:47.21Z</time></trkpt><trkpt lat="44.5790418" lon="7.770606"><ele>274.0</ele><time>2026-05-03T15:00:48.211Z</time></trkpt><trkpt lat="44.5787632" lon="7.7708042"><ele>274.0</ele><time>2026-05-03T15:00:49.21Z</time></trkpt><trkpt lat="44.578486" lon="7.771005"><ele>271.5</ele><time>2026-05-03T15:00:50.21Z</time></trkpt><trkpt lat="44.5782071" lon="7.7712074"><ele>269.0</ele><time>2026-05-03T15:00:51.21Z</time></trkpt><trkpt lat="44.577926" lon="7.7714065"><ele>269.5</ele><time>2026-05-03T15:00:52.21Z</time></trkpt><trkpt lat="44.5776418" lon="7.7716128"><ele>270.0</ele><time>2026-05-03T15:00:53.21Z</time></trkpt><trkpt lat="44.5773581" lon="7.7718131"><ele>270.0</ele><time>2026-05-03T15:00:54.21Z</time></trkpt><trkpt lat="44.5770789" lon="7.7720059"><ele>270.0</ele><time>2026-05-03T15:00:55.211Z</time></trkpt><trkpt lat="44.5768044" lon="7.7721959"><ele>270.0</ele><time>2026-05-03T15:00:56.21Z</time></trkpt><trkpt lat="44.5765328" lon="7.7723865"><ele>270.0</ele><time>2026-05-03T15:00:57.21Z</time></trkpt><trkpt lat="44.5762631" lon="7.7725787"><ele>268.5</ele><time>2026-05-03T15:00:58.21Z</time></trkpt><trkpt lat="44.5759936" lon="7.7727692"><ele>267.0</ele><time>2026-05-03T15:00:59.21Z</time></trkpt><trkpt lat="44.5757233" lon="7.7729563"><ele>267.0</ele><time>2026-05-03T15:01:00.211Z</time></trkpt><trkpt lat="44.5754521" lon="7.7731404"><ele>267.0</ele><time>2026-05-03T15:01:01.211Z</time></trkpt><trkpt lat="44.5751787" lon="7.773325"><ele>269.0</ele><time>2026-05-03T15:01:02.21Z</time></trkpt><trkpt lat="44.5749049" lon="7.773511"><ele>271.0</ele><time>2026-05-03T15:01:03.21Z</time></trkpt><trkpt lat="44.5746287" lon="7.7737024"><ele>274.5</ele><time>2026-05-03T15:01:04.211Z</time></trkpt><trkpt lat="44.5743507" lon="7.7738868"><ele>278.0</ele><time>2026-05-03T15:01:05.211Z</time></trkpt><trkpt lat="44.5740734" lon="7.7740681"><ele>278.0</ele><time>2026-05-03T15:01:06.21Z</time></trkpt><trkpt lat="44.5737912" lon="7.7742497"><ele>278.0</ele><time>2026-05-03T15:01:07.211Z</time></trkpt><trkpt lat="44.5735124" lon="7.774435"><ele>281.5</ele><time>2026-05-03T15:01:08.21Z</time></trkpt><trkpt lat="44.5732354" lon="7.7746237"><ele>285.0</ele><time>2026-05-03T15:01:09.21Z</time></trkpt><trkpt lat="44.5729617" lon="7.7748084"><ele>288.5</ele><time>2026-05-03T15:01:10.21Z</time></trkpt><trkpt lat="44.5726867" lon="7.7749985"><ele>292.0</ele><time>2026-05-03T15:01:11.21Z</time></trkpt><trkpt lat="44.5724101" lon="7.7751877"><ele>292.0</ele><time>2026-05-03T15:01:12.21Z</time></trkpt><trkpt lat="44.5721354" lon="7.7753719"><ele>292.0</ele><time>2026-05-03T15:01:13.211Z</time></trkpt><trkpt lat="44.5718603" lon="7.7755565"><ele>299.0</ele><time>2026-05-03T15:01:14.211Z</time></trkpt><trkpt lat="44.5715867" lon="7.7757471"><ele>306.0</ele><time>2026-05-03T15:01:15.21Z</time></trkpt><trkpt lat="44.571312" lon="7.7759392"><ele>315.5</ele><time>2026-05-03T15:01:16.213Z</time></trkpt><trkpt lat="44.5710357" lon="7.7761348"><ele>325.0</ele><time>2026-05-03T15:01:17.213Z</time></trkpt><trkpt lat="44.5707594" lon="7.7763235"><ele>325.0</ele><time>2026-05-03T15:01:18.213Z</time></trkpt><trkpt lat="44.5704801" lon="7.7765136"><ele>325.0</ele><time>2026-05-03T15:01:19.214Z</time></trkpt><trkpt lat="44.5701986" lon="7.7767067"><ele>334.5</ele><time>2026-05-03T15:01:20.213Z</time></trkpt><trkpt lat="44.5699176" lon="7.7769041"><ele>344.0</ele><time>2026-05-03T15:01:21.214Z</time></trkpt><trkpt lat="44.5696332" lon="7.7771029"><ele>347.0</ele><time>2026-05-03T15:01:22.213Z</time></trkpt><trkpt lat="44.5693498" lon="7.7772993"><ele>350.0</ele><time>2026-05-03T15:01:23.213Z</time></trkpt><trkpt lat="44.5690661" lon="7.777499"><ele>356.5</ele><time>2026-05-03T15:01:24.213Z</time></trkpt><trkpt lat="44.5687824" lon="7.7776938"><ele>363.0</ele><time>2026-05-03T15:01:25.213Z</time></trkpt><trkpt lat="44.5685031" lon="7.7778868"><ele>363.5</ele><time>2026-05-03T15:01:26.213Z</time></trkpt><trkpt lat="44.5682243" lon="7.7780789"><ele>364.0</ele><time>2026-05-03T15:01:27.213Z</time></trkpt><trkpt lat="44.5679441" lon="7.7782688"><ele>363.5</ele><time>2026-05-03T15:01:28.214Z</time></trkpt><trkpt lat="44.5676634" lon="7.7784589"><ele>363.0</ele><time>2026-05-03T15:01:29.213Z</time></trkpt><trkpt lat="44.5673811" lon="7.7786523"><ele>363.0</ele><time>2026-05-03T15:01:30.213Z</time></trkpt><trkpt lat="44.5670985" lon="7.7788459"><ele>363.0</ele><time>2026-05-03T15:01:31.213Z</time></trkpt><trkpt lat="44.5668158" lon="7.7790436"><ele>365.5</ele><time>2026-05-03T15:01:32.213Z</time></trkpt><trkpt lat="44.5665303" lon="7.7792424"><ele>368.0</ele><time>2026-05-03T15:01:33.214Z</time></trkpt><trkpt lat="44.5662464" lon="7.7794413"><ele>369.5</ele><time>2026-05-03T15:01:34.214Z</time></trkpt><trkpt lat="44.5659638" lon="7.7796401"><ele>371.0</ele><time>2026-05-03T15:01:35.213Z</time></trkpt><trkpt lat="44.5656816" lon="7.779839"><ele>371.0</ele><time>2026-05-03T15:01:36.213Z</time></trkpt><trkpt lat="44.5654017" lon="7.7800316"><ele>371.0</ele><time>2026-05-03T15:01:37.213Z</time></trkpt><trkpt lat="44.5651204" lon="7.7802208"><ele>377.5</ele><time>2026-05-03T15:01:38.213Z</time></trkpt><trkpt lat="44.5648406" lon="7.7804127"><ele>384.0</ele><time>2026-05-03T15:01:39.214Z</time></trkpt><trkpt lat="44.56456" lon="7.780603"><ele>385.5</ele><time>2026-05-03T15:01:40.214Z</time></trkpt><trkpt lat="44.56428" lon="7.7807872"><ele>387.0</ele><time>2026-05-03T15:01:41.214Z</time></trkpt><trkpt lat="44.563998" lon="7.7809684"><ele>388.0</ele><time>2026-05-03T15:01:42.214Z</time></trkpt><trkpt lat="44.5637109" lon="7.7811458"><ele>389.0</ele><time>2026-05-03T15:01:43.213Z</time></trkpt><trkpt lat="44.5634179" lon="7.7813196"><ele>389.0</ele><time>2026-05-03T15:01:44.213Z</time></trkpt><trkpt lat="44.5631217" lon="7.7814933"><ele>389.0</ele><time>2026-05-03T15:01:45.214Z</time></trkpt><trkpt lat="44.5628227" lon="7.7816545"><ele>389.5</ele><time>2026-05-03T15:01:46.213Z</time></trkpt><trkpt lat="44.5625195" lon="7.7818093"><ele>390.0</ele><time>2026-05-03T15:01:47.213Z</time></trkpt><trkpt lat="44.5622179" lon="7.7819662"><ele>390.5</ele><time>2026-05-03T15:01:48.214Z</time></trkpt><trkpt lat="44.5619115" lon="7.7821142"><ele>391.0</ele><time>2026-05-03T15:01:49.213Z</time></trkpt><trkpt lat="44.5616043" lon="7.7822488"><ele>391.0</ele><time>2026-05-03T15:01:50.214Z</time></trkpt><trkpt lat="44.5612994" lon="7.7823791"><ele>391.0</ele><time>2026-05-03T15:01:51.213Z</time></trkpt><trkpt lat="44.560995" lon="7.7824948"><ele>391.0</ele><time>2026-05-03T15:01:52.214Z</time></trkpt><trkpt lat="44.5606856" lon="7.7826069"><ele>391.0</ele><time>2026-05-03T15:01:53.213Z</time></trkpt><trkpt lat="44.5603763" lon="7.7827169"><ele>392.0</ele><time>2026-05-03T15:01:54.214Z</time></trkpt><trkpt lat="44.5600704" lon="7.7828256"><ele>393.0</ele><time>2026-05-03T15:01:55.213Z</time></trkpt><trkpt lat="44.5597613" lon="7.782921"><ele>394.0</ele><time>2026-05-03T15:01:56.213Z</time></trkpt><trkpt lat="44.55945" lon="7.7830123"><ele>395.0</ele><time>2026-05-03T15:01:57.213Z</time></trkpt><trkpt lat="44.5591415" lon="7.7830985"><ele>395.0</ele><time>2026-05-03T15:01:58.213Z</time></trkpt><trkpt lat="44.5588314" lon="7.7831761"><ele>395.0</ele><time>2026-05-03T15:01:59.213Z</time></trkpt><trkpt lat="44.5585178" lon="7.783251"><ele>395.5</ele><time>2026-05-03T15:02:00.213Z</time></trkpt><trkpt lat="44.5582027" lon="7.7833178"><ele>396.0</ele><time>2026-05-03T15:02:01.213Z</time></trkpt><trkpt lat="44.5578873" lon="7.7833805"><ele>395.5</ele><time>2026-05-03T15:02:02.214Z</time></trkpt><trkpt lat="44.5575672" lon="7.7834378"><ele>395.0</ele><time>2026-05-03T15:02:03.213Z</time></trkpt><trkpt lat="44.5572469" lon="7.7835007"><ele>395.5</ele><time>2026-05-03T15:02:04.213Z</time></trkpt><trkpt lat="44.5569275" lon="7.7835621"><ele>396.0</ele><time>2026-05-03T15:02:05.213Z</time></trkpt><trkpt lat="44.5566099" lon="7.7836263"><ele>396.0</ele><time>2026-05-03T15:02:06.213Z</time></trkpt><trkpt lat="44.5562903" lon="7.7836911"><ele>396.0</ele><time>2026-05-03T15:02:07.214Z</time></trkpt><trkpt lat="44.5559694" lon="7.7837553"><ele>396.0</ele><time>2026-05-03T15:02:08.214Z</time></trkpt><trkpt lat="44.5556516" lon="7.7838153"><ele>396.0</ele><time>2026-05-03T15:02:09.213Z</time></trkpt><trkpt lat="44.5553391" lon="7.7838754"><ele>396.5</ele><time>2026-05-03T15:02:10.213Z</time></trkpt><trkpt lat="44.5550299" lon="7.7839332"><ele>397.0</ele><time>2026-05-03T15:02:11.213Z</time></trkpt><trkpt lat="44.5547264" lon="7.7839882"><ele>396.0</ele><time>2026-05-03T15:02:12.214Z</time></trkpt><trkpt lat="44.5544255" lon="7.7840447"><ele>395.0</ele><time>2026-05-03T15:02:13.213Z</time></trkpt><trkpt lat="44.5541311" lon="7.7841008"><ele>395.0</ele><time>2026-05-03T15:02:14.213Z</time></trkpt><trkpt lat="44.5538431" lon="7.7841535"><ele>395.0</ele><time>2026-05-03T15:02:15.213Z</time></trkpt><trkpt lat="44.5535712" lon="7.7842011"><ele>394.0</ele><time>2026-05-03T15:02:16.213Z</time></trkpt><trkpt lat="44.5533157" lon="7.7842458"><ele>393.0</ele><time>2026-05-03T15:02:17.214Z</time></trkpt><trkpt lat="44.5530753" lon="7.7842918"><ele>393.0</ele><time>2026-05-03T15:02:18.214Z</time></trkpt><trkpt lat="44.5528353" lon="7.7843323"><ele>393.0</ele><time>2026-05-03T15:02:19.213Z</time></trkpt><trkpt lat="44.5525972" lon="7.7843715"><ele>393.0</ele><time>2026-05-03T15:02:20.213Z</time></trkpt><trkpt lat="44.5523598" lon="7.7844102"><ele>393.0</ele><time>2026-05-03T15:02:21.213Z</time></trkpt><trkpt lat="44.5521166" lon="7.7844503"><ele>394.0</ele><time>2026-05-03T15:02:22.214Z</time></trkpt><trkpt lat="44.551875" lon="7.7844912"><ele>395.0</ele><time>2026-05-03T15:02:23.213Z</time></trkpt><trkpt lat="44.5516376" lon="7.7845362"><ele>395.0</ele><time>2026-05-03T15:02:24.213Z</time></trkpt><trkpt lat="44.5514129" lon="7.784574"><ele>395.0</ele><time>2026-05-03T15:02:25.213Z</time></trkpt><trkpt lat="44.5512032" lon="7.784615"><ele>395.0</ele><time>2026-05-03T15:02:26.213Z</time></trkpt><trkpt lat="44.5510066" lon="7.7846481"><ele>395.0</ele><time>2026-05-03T15:02:27.213Z</time></trkpt><trkpt lat="44.5508242" lon="7.7846833"><ele>395.0</ele><time>2026-05-03T15:02:28.213Z</time></trkpt><trkpt lat="44.5506515" lon="7.784718"><ele>395.0</ele><time>2026-05-03T15:02:29.214Z</time></trkpt><trkpt lat="44.5504847" lon="7.7847544"><ele>395.5</ele><time>2026-05-03T15:02:30.213Z</time></trkpt><trkpt lat="44.5503291" lon="7.7847872"><ele>396.0</ele><time>2026-05-03T15:02:31.214Z</time></trkpt><trkpt lat="44.550186" lon="7.7848043"><ele>396.5</ele><time>2026-05-03T15:02:32.213Z</time></trkpt><trkpt lat="44.5500484" lon="7.784813"><ele>397.0</ele><time>2026-05-03T15:02:33.213Z</time></trkpt><trkpt lat="44.5499148" lon="7.7848047"><ele>397.0</ele><time>2026-05-03T15:02:34.213Z</time></trkpt><trkpt lat="44.5497917" lon="7.7847927"><ele>397.0</ele><time>2026-05-03T15:02:35.214Z</time></trkpt><trkpt lat="44.5496764" lon="7.7847913"><ele>397.0</ele><time>2026-05-03T15:02:36.213Z</time></trkpt><trkpt lat="44.5495658" lon="7.7848025"><ele>397.0</ele><time>2026-05-03T15:02:37.213Z</time></trkpt><trkpt lat="44.5494658" lon="7.784816"><ele>397.33333333333337</ele><time>2026-05-03T15:02:38.214Z</time></trkpt><trkpt lat="44.5493765" lon="7.7848181"><ele>397.6666666666667</ele><time>2026-05-03T15:02:39.213Z</time></trkpt><trkpt lat="44.5492995" lon="7.7848015"><ele>398.0</ele><time>2026-05-03T15:02:40.213Z</time></trkpt><trkpt lat="44.5492284" lon="7.7847741"><ele>398.33333333333337</ele><time>2026-05-03T15:02:41.213Z</time></trkpt><trkpt lat="44.5491424" lon="7.7846826"><ele>398.6666666666667</ele><time>2026-05-03T15:02:43.214Z</time></trkpt><trkpt lat="44.5491127" lon="7.7845766"><ele>399.0</ele><time>2026-05-03T15:02:45.213Z</time></trkpt><trkpt lat="44.5490487" lon="7.7845859"><ele>399.0</ele><time>2026-05-03T15:04:17.213Z</time></trkpt><trkpt lat="44.5489824" lon="7.7845617"><ele>399.0</ele><time>2026-05-03T15:04:34.213Z</time></trkpt><trkpt lat="44.5489426" lon="7.7844924"><ele>399.0</ele><time>2026-05-03T15:04:45.272Z</time></trkpt><trkpt lat="44.5492595" lon="7.7848366"><ele>399.0</ele><time>2026-05-03T15:06:58.169Z</time></trkpt><trkpt lat="44.5489615" lon="7.7845288"><ele>399.0</ele><time>2026-05-03T15:07:03.51Z</time></trkpt><trkpt lat="44.5489293" lon="7.7846459"><ele>399.0</ele><time>2026-05-03T15:08:00.262Z</time></trkpt><trkpt lat="44.54895" lon="7.7848183"><ele>399.0</ele><time>2026-05-03T15:08:01.216Z</time></trkpt><trkpt lat="44.5489639" lon="7.7849463"><ele>399.0</ele><time>2026-05-03T15:08:03.216Z</time></trkpt><trkpt lat="44.5489794" lon="7.785086"><ele>399.0</ele><time>2026-05-03T15:08:05.265Z</time></trkpt><trkpt lat="44.5489684" lon="7.7849241"><ele>399.0</ele><time>2026-05-03T15:08:08.268Z</time></trkpt><trkpt lat="44.5489726" lon="7.7847955"><ele>399.0</ele><time>2026-05-03T15:08:11.27Z</time></trkpt><trkpt lat="44.5489866" lon="7.7847087"><ele>399.0</ele><time>2026-05-03T15:08:13.216Z</time></trkpt><trkpt lat="44.5491181" lon="7.7847397"><ele>399.0</ele><time>2026-05-03T15:08:18.216Z</time></trkpt><trkpt lat="44.5490104" lon="7.7849718"><ele>399.0</ele><time>2026-05-03T15:08:21.275Z</time></trkpt><trkpt lat="44.5489836" lon="7.7850754"><ele>399.0</ele><time>2026-05-03T15:08:24.216Z</time></trkpt><trkpt lat="44.548936" lon="7.7851514"><ele>399.0</ele><time>2026-05-03T15:08:29.28Z</time></trkpt><trkpt lat="44.5488428" lon="7.7850409"><ele>399.0</ele><time>2026-05-03T15:09:17.217Z</time></trkpt><trkpt lat="44.5488741" lon="7.7849628"><ele>399.0</ele><time>2026-05-03T15:09:31.118Z</time></trkpt><trkpt lat="44.5488931" lon="7.7848713"><ele>399.0</ele><time>2026-05-03T15:09:34.22Z</time></trkpt><trkpt lat="44.5490311" lon="7.7848197"><ele>399.0</ele><time>2026-05-03T15:10:01.237Z</time></trkpt><trkpt lat="44.5489883" lon="7.7846945"><ele>399.0</ele><time>2026-05-03T15:10:21.25Z</time></trkpt><trkpt lat="44.5490472" lon="7.784627"><ele>399.0</ele><time>2026-05-03T15:10:36.282Z</time></trkpt><trkpt lat="44.5491081" lon="7.784574"><ele>399.0</ele><time>2026-05-03T15:10:40.261Z</time></trkpt><trkpt lat="44.5489747" lon="7.7846356"><ele>399.0</ele><time>2026-05-03T15:14:35.217Z</time></trkpt><trkpt lat="44.5489007" lon="7.7846615"><ele>399.0</ele><time>2026-05-03T15:14:36.219Z</time></trkpt><trkpt lat="44.5488272" lon="7.7846876"><ele>399.0</ele><time>2026-05-03T15:14:37.219Z</time></trkpt><trkpt lat="44.5487546" lon="7.7847176"><ele>399.0</ele><time>2026-05-03T15:14:38.22Z</time></trkpt><trkpt lat="44.5486824" lon="7.78475"><ele>399.0</ele><time>2026-05-03T15:14:39.219Z</time></trkpt><trkpt lat="44.548603" lon="7.7847837"><ele>399.0</ele><time>2026-05-03T15:14:40.22Z</time></trkpt><trkpt lat="44.5485124" lon="7.7848192"><ele>399.0</ele><time>2026-05-03T15:14:41.219Z</time></trkpt><trkpt lat="44.5484168" lon="7.7848547"><ele>399.25</ele><time>2026-05-03T15:14:42.22Z</time></trkpt><trkpt lat="44.5483112" lon="7.7848944"><ele>399.5</ele><time>2026-05-03T15:14:43.22Z</time></trkpt><trkpt lat="44.5482029" lon="7.7849356"><ele>399.75</ele><time>2026-05-03T15:14:44.219Z</time></trkpt><trkpt lat="44.5480929" lon="7.7849867"><ele>400.0</ele><time>2026-05-03T15:14:45.219Z</time></trkpt><trkpt lat="44.5479898" lon="7.7850558"><ele>400.0</ele><time>2026-05-03T15:14:46.22Z</time></trkpt><trkpt lat="44.5478836" lon="7.7851397"><ele>400.0</ele><time>2026-05-03T15:14:47.219Z</time></trkpt><trkpt lat="44.5477709" lon="7.7852229"><ele>400.0</ele><time>2026-05-03T15:14:48.22Z</time></trkpt><trkpt lat="44.5476429" lon="7.7852844"><ele>400.0</ele><time>2026-05-03T15:14:49.219Z</time></trkpt><trkpt lat="44.5474934" lon="7.7853254"><ele>400.0</ele><time>2026-05-03T15:14:50.219Z</time></trkpt><trkpt lat="44.5473329" lon="7.7853567"><ele>400.0</ele><time>2026-05-03T15:14:51.22Z</time></trkpt><trkpt lat="44.5471759" lon="7.7853929"><ele>400.0</ele><time>2026-05-03T15:14:52.22Z</time></trkpt><trkpt lat="44.5470028" lon="7.7854353"><ele>400.33333333333337</ele><time>2026-05-03T15:14:53.219Z</time></trkpt><trkpt lat="44.5468162" lon="7.7854834"><ele>400.66666666666663</ele><time>2026-05-03T15:14:54.219Z</time></trkpt><trkpt lat="44.5466154" lon="7.7855315"><ele>401.0</ele><time>2026-05-03T15:14:55.219Z</time></trkpt><trkpt lat="44.546404" lon="7.7855779"><ele>400.0</ele><time>2026-05-03T15:14:56.219Z</time></trkpt><trkpt lat="44.5461843" lon="7.7856238"><ele>399.0</ele><time>2026-05-03T15:14:57.219Z</time></trkpt><trkpt lat="44.5459495" lon="7.7856768"><ele>399.0</ele><time>2026-05-03T15:14:58.22Z</time></trkpt><trkpt lat="44.54571" lon="7.7857273"><ele>399.0</ele><time>2026-05-03T15:14:59.22Z</time></trkpt><trkpt lat="44.5454691" lon="7.7857695"><ele>398.5</ele><time>2026-05-03T15:15:00.219Z</time></trkpt><trkpt lat="44.5452324" lon="7.785807"><ele>398.0</ele><time>2026-05-03T15:15:01.219Z</time></trkpt><trkpt lat="44.5449911" lon="7.7858434"><ele>398.0</ele><time>2026-05-03T15:15:02.22Z</time></trkpt><trkpt lat="44.5447471" lon="7.78587"><ele>398.0</ele><time>2026-05-03T15:15:03.219Z</time></trkpt><trkpt lat="44.5445006" lon="7.7859088"><ele>398.5</ele><time>2026-05-03T15:15:04.219Z</time></trkpt><trkpt lat="44.5442417" lon="7.7859886"><ele>399.0</ele><time>2026-05-03T15:15:05.219Z</time></trkpt><trkpt lat="44.543965" lon="7.7860789"><ele>399.5</ele><time>2026-05-03T15:15:06.219Z</time></trkpt><trkpt lat="44.5436804" lon="7.7861677"><ele>400.0</ele><time>2026-05-03T15:15:07.219Z</time></trkpt><trkpt lat="44.5433868" lon="7.7862558"><ele>400.0</ele><time>2026-05-03T15:15:08.22Z</time></trkpt><trkpt lat="44.5430862" lon="7.7863431"><ele>400.0</ele><time>2026-05-03T15:15:09.219Z</time></trkpt><trkpt lat="44.542778" lon="7.7864384"><ele>400.5</ele><time>2026-05-03T15:15:10.219Z</time></trkpt><trkpt lat="44.5424648" lon="7.7865339"><ele>401.0</ele><time>2026-05-03T15:15:11.219Z</time></trkpt><trkpt lat="44.5421455" lon="7.7866203"><ele>401.0</ele><time>2026-05-03T15:15:12.219Z</time></trkpt><trkpt lat="44.5418291" lon="7.7867055"><ele>401.0</ele><time>2026-05-03T15:15:13.22Z</time></trkpt><trkpt lat="44.5415124" lon="7.7867986"><ele>400.5</ele><time>2026-05-03T15:15:14.219Z</time></trkpt><trkpt lat="44.5411955" lon="7.7869006"><ele>400.0</ele><time>2026-05-03T15:15:15.219Z</time></trkpt><trkpt lat="44.5408777" lon="7.7870095"><ele>400.0</ele><time>2026-05-03T15:15:16.219Z</time></trkpt><trkpt lat="44.5405598" lon="7.7871287"><ele>400.0</ele><time>2026-05-03T15:15:17.22Z</time></trkpt><trkpt lat="44.5402427" lon="7.7872555"><ele>401.0</ele><time>2026-05-03T15:15:18.219Z</time></trkpt><trkpt lat="44.5399265" lon="7.7873836"><ele>402.0</ele><time>2026-05-03T15:15:19.219Z</time></trkpt><trkpt lat="44.5396104" lon="7.7875157"><ele>402.5</ele><time>2026-05-03T15:15:20.219Z</time></trkpt><trkpt lat="44.5392912" lon="7.7876492"><ele>403.0</ele><time>2026-05-03T15:15:21.219Z</time></trkpt><trkpt lat="44.5389719" lon="7.7877863"><ele>402.5</ele><time>2026-05-03T15:15:22.22Z</time></trkpt><trkpt lat="44.5386563" lon="7.7879309"><ele>402.0</ele><time>2026-05-03T15:15:23.219Z</time></trkpt><trkpt lat="44.5383395" lon="7.7880798"><ele>402.0</ele><time>2026-05-03T15:15:24.22Z</time></trkpt><trkpt lat="44.5380233" lon="7.7882323"><ele>402.0</ele><time>2026-05-03T15:15:25.219Z</time></trkpt><trkpt lat="44.5377073" lon="7.7883879"><ele>401.5</ele><time>2026-05-03T15:15:26.219Z</time></trkpt><trkpt lat="44.5373933" lon="7.7885487"><ele>401.0</ele><time>2026-05-03T15:15:27.22Z</time></trkpt><trkpt lat="44.5370785" lon="7.788716"><ele>401.0</ele><time>2026-05-03T15:15:28.219Z</time></trkpt><trkpt lat="44.536764" lon="7.7888875"><ele>401.0</ele><time>2026-05-03T15:15:29.219Z</time></trkpt><trkpt lat="44.5364479" lon="7.7890636"><ele>401.0</ele><time>2026-05-03T15:15:30.219Z</time></trkpt><trkpt lat="44.5361317" lon="7.7892441"><ele>401.0</ele><time>2026-05-03T15:15:31.219Z</time></trkpt><trkpt lat="44.5358183" lon="7.7894262"><ele>401.0</ele><time>2026-05-03T15:15:32.219Z</time></trkpt><trkpt lat="44.5355126" lon="7.7895997"><ele>401.0</ele><time>2026-05-03T15:15:33.219Z</time></trkpt><trkpt lat="44.5352106" lon="7.7897723"><ele>401.0</ele><time>2026-05-03T15:15:34.219Z</time></trkpt><trkpt lat="44.5349097" lon="7.7899466"><ele>401.0</ele><time>2026-05-03T15:15:35.219Z</time></trkpt><trkpt lat="44.5346112" lon="7.7901194"><ele>401.5</ele><time>2026-05-03T15:15:36.219Z</time></trkpt><trkpt lat="44.5343115" lon="7.790291"><ele>402.0</ele><time>2026-05-03T15:15:37.219Z</time></trkpt><trkpt lat="44.534013" lon="7.7904611"><ele>403.5</ele><time>2026-05-03T15:15:38.22Z</time></trkpt><trkpt lat="44.533712" lon="7.7906299"><ele>405.0</ele><time>2026-05-03T15:15:39.219Z</time></trkpt><trkpt lat="44.5334108" lon="7.7908034"><ele>405.0</ele><time>2026-05-03T15:15:40.219Z</time></trkpt><trkpt lat="44.5331117" lon="7.7909773"><ele>405.0</ele><time>2026-05-03T15:15:41.22Z</time></trkpt><trkpt lat="44.5328154" lon="7.7911507"><ele>404.0</ele><time>2026-05-03T15:15:42.22Z</time></trkpt><trkpt lat="44.5325214" lon="7.7913185"><ele>403.0</ele><time>2026-05-03T15:15:43.22Z</time></trkpt><trkpt lat="44.5322321" lon="7.7914842"><ele>403.0</ele><time>2026-05-03T15:15:44.219Z</time></trkpt><trkpt lat="44.5319487" lon="7.7916473"><ele>403.0</ele><time>2026-05-03T15:15:45.219Z</time></trkpt><trkpt lat="44.5316649" lon="7.7918087"><ele>402.0</ele><time>2026-05-03T15:15:46.22Z</time></trkpt><trkpt lat="44.5313773" lon="7.791977"><ele>401.0</ele><time>2026-05-03T15:15:47.219Z</time></trkpt><trkpt lat="44.5310857" lon="7.7921484"><ele>394.0</ele><time>2026-05-03T15:15:48.22Z</time></trkpt><trkpt lat="44.5307974" lon="7.792316"><ele>387.0</ele><time>2026-05-03T15:15:49.219Z</time></trkpt><trkpt lat="44.5305099" lon="7.7924809"><ele>378.0</ele><time>2026-05-03T15:15:50.219Z</time></trkpt><trkpt lat="44.5302231" lon="7.7926469"><ele>369.0</ele><time>2026-05-03T15:15:51.219Z</time></trkpt><trkpt lat="44.5299326" lon="7.7928179"><ele>367.0</ele><time>2026-05-03T15:15:52.219Z</time></trkpt><trkpt lat="44.5296388" lon="7.7929924"><ele>365.0</ele><time>2026-05-03T15:15:53.219Z</time></trkpt><trkpt lat="44.5293447" lon="7.7931759"><ele>364.5</ele><time>2026-05-03T15:15:54.219Z</time></trkpt><trkpt lat="44.529047" lon="7.7933563"><ele>364.0</ele><time>2026-05-03T15:15:55.22Z</time></trkpt><trkpt lat="44.5287484" lon="7.7935381"><ele>362.5</ele><time>2026-05-03T15:15:56.219Z</time></trkpt><trkpt lat="44.5284498" lon="7.7937128"><ele>361.0</ele><time>2026-05-03T15:15:57.22Z</time></trkpt><trkpt lat="44.5281513" lon="7.7938878"><ele>361.5</ele><time>2026-05-03T15:15:58.219Z</time></trkpt><trkpt lat="44.5278511" lon="7.7940629"><ele>362.0</ele><time>2026-05-03T15:15:59.22Z</time></trkpt><trkpt lat="44.5275481" lon="7.7942381"><ele>362.0</ele><time>2026-05-03T15:16:00.22Z</time></trkpt><trkpt lat="44.5272413" lon="7.7944131"><ele>362.0</ele><time>2026-05-03T15:16:01.219Z</time></trkpt><trkpt lat="44.5269297" lon="7.7945835"><ele>362.0</ele><time>2026-05-03T15:16:02.22Z</time></trkpt><trkpt lat="44.5266205" lon="7.7947457"><ele>362.0</ele><time>2026-05-03T15:16:03.219Z</time></trkpt><trkpt lat="44.5263112" lon="7.7949135"><ele>361.5</ele><time>2026-05-03T15:16:04.22Z</time></trkpt><trkpt lat="44.5260041" lon="7.7950864"><ele>361.0</ele><time>2026-05-03T15:16:05.219Z</time></trkpt><trkpt lat="44.525699" lon="7.7952591"><ele>363.0</ele><time>2026-05-03T15:16:06.219Z</time></trkpt><trkpt lat="44.5253925" lon="7.7954363"><ele>365.0</ele><time>2026-05-03T15:16:07.22Z</time></trkpt><trkpt lat="44.5250856" lon="7.7956113"><ele>365.0</ele><time>2026-05-03T15:16:08.219Z</time></trkpt><trkpt lat="44.52478" lon="7.7957824"><ele>365.0</ele><time>2026-05-03T15:16:09.219Z</time></trkpt><trkpt lat="44.5244741" lon="7.7959537"><ele>364.0</ele><time>2026-05-03T15:16:10.219Z</time></trkpt><trkpt lat="44.5241703" lon="7.7961261"><ele>363.0</ele><time>2026-05-03T15:16:11.219Z</time></trkpt><trkpt lat="44.5238644" lon="7.7963009"><ele>363.5</ele><time>2026-05-03T15:16:12.22Z</time></trkpt><trkpt lat="44.523558" lon="7.7964774"><ele>364.0</ele><time>2026-05-03T15:16:13.22Z</time></trkpt><trkpt lat="44.5232513" lon="7.7966542"><ele>364.0</ele><time>2026-05-03T15:16:14.219Z</time></trkpt><trkpt lat="44.5229447" lon="7.7968286"><ele>364.0</ele><time>2026-05-03T15:16:15.219Z</time></trkpt><trkpt lat="44.52264" lon="7.7970042"><ele>363.5</ele><time>2026-05-03T15:16:16.219Z</time></trkpt><trkpt lat="44.5223344" lon="7.7971831"><ele>363.0</ele><time>2026-05-03T15:16:17.22Z</time></trkpt><trkpt lat="44.5220261" lon="7.7973633"><ele>363.0</ele><time>2026-05-03T15:16:18.22Z</time></trkpt><trkpt lat="44.5217218" lon="7.7975359"><ele>363.0</ele><time>2026-05-03T15:16:19.219Z</time></trkpt><trkpt lat="44.5214188" lon="7.7977092"><ele>362.5</ele><time>2026-05-03T15:16:20.219Z</time></trkpt><trkpt lat="44.5211187" lon="7.79788"><ele>362.0</ele><time>2026-05-03T15:16:21.22Z</time></trkpt><trkpt lat="44.5208186" lon="7.7980524"><ele>362.0</ele><time>2026-05-03T15:16:22.219Z</time></trkpt><trkpt lat="44.5205185" lon="7.7982225"><ele>362.0</ele><time>2026-05-03T15:16:23.219Z</time></trkpt><trkpt lat="44.5202236" lon="7.7983913"><ele>361.0</ele><time>2026-05-03T15:16:24.219Z</time></trkpt><trkpt lat="44.5199316" lon="7.7985634"><ele>360.0</ele><time>2026-05-03T15:16:25.219Z</time></trkpt><trkpt lat="44.5196386" lon="7.7987297"><ele>361.0</ele><time>2026-05-03T15:16:26.219Z</time></trkpt><trkpt lat="44.5193515" lon="7.7988956"><ele>362.0</ele><time>2026-05-03T15:16:27.219Z</time></trkpt><trkpt lat="44.5190676" lon="7.7990649"><ele>362.0</ele><time>2026-05-03T15:16:28.219Z</time></trkpt><trkpt lat="44.5187812" lon="7.7992322"><ele>362.0</ele><time>2026-05-03T15:16:29.219Z</time></trkpt><trkpt lat="44.5184912" lon="7.7994006"><ele>363.0</ele><time>2026-05-03T15:16:30.22Z</time></trkpt><trkpt lat="44.5181976" lon="7.7995725"><ele>364.0</ele><time>2026-05-03T15:16:31.219Z</time></trkpt><trkpt lat="44.5179091" lon="7.799728"><ele>364.5</ele><time>2026-05-03T15:16:32.219Z</time></trkpt><trkpt lat="44.5176164" lon="7.7998947"><ele>365.0</ele><time>2026-05-03T15:16:33.22Z</time></trkpt><trkpt lat="44.517324" lon="7.8000641"><ele>364.5</ele><time>2026-05-03T15:16:34.219Z</time></trkpt><trkpt lat="44.5170338" lon="7.8002382"><ele>364.0</ele><time>2026-05-03T15:16:35.22Z</time></trkpt><trkpt lat="44.5167439" lon="7.8004088"><ele>364.0</ele><time>2026-05-03T15:16:36.219Z</time></trkpt><trkpt lat="44.5164473" lon="7.8005791"><ele>364.0</ele><time>2026-05-03T15:16:37.219Z</time></trkpt><trkpt lat="44.5161589" lon="7.8007398"><ele>363.0</ele><time>2026-05-03T15:16:38.219Z</time></trkpt><trkpt lat="44.5158653" lon="7.8009125"><ele>362.0</ele><time>2026-05-03T15:16:39.219Z</time></trkpt><trkpt lat="44.5155777" lon="7.8010838"><ele>362.0</ele><time>2026-05-03T15:16:40.22Z</time></trkpt><trkpt lat="44.5152892" lon="7.8012661"><ele>362.0</ele><time>2026-05-03T15:16:41.219Z</time></trkpt><trkpt lat="44.5149962" lon="7.8014397"><ele>362.0</ele><time>2026-05-03T15:16:42.219Z</time></trkpt><trkpt lat="44.5147" lon="7.80162"><ele>362.0</ele><time>2026-05-03T15:16:43.22Z</time></trkpt><trkpt lat="44.514403" lon="7.8017965"><ele>362.0</ele><time>2026-05-03T15:16:44.219Z</time></trkpt><trkpt lat="44.5141078" lon="7.8019735"><ele>362.0</ele><time>2026-05-03T15:16:45.22Z</time></trkpt><trkpt lat="44.5138078" lon="7.8021466"><ele>361.5</ele><time>2026-05-03T15:16:46.219Z</time></trkpt><trkpt lat="44.5135039" lon="7.8023191"><ele>361.0</ele><time>2026-05-03T15:16:47.22Z</time></trkpt><trkpt lat="44.5132025" lon="7.8024909"><ele>361.0</ele><time>2026-05-03T15:16:48.219Z</time></trkpt><trkpt lat="44.5129038" lon="7.8026598"><ele>361.0</ele><time>2026-05-03T15:16:49.22Z</time></trkpt><trkpt lat="44.5126045" lon="7.8028228"><ele>361.0</ele><time>2026-05-03T15:16:50.22Z</time></trkpt><trkpt lat="44.5123044" lon="7.8029844"><ele>361.0</ele><time>2026-05-03T15:16:51.219Z</time></trkpt><trkpt lat="44.5120039" lon="7.8031499"><ele>361.0</ele><time>2026-05-03T15:16:52.219Z</time></trkpt><trkpt lat="44.511707" lon="7.803321"><ele>361.0</ele><time>2026-05-03T15:16:53.219Z</time></trkpt><trkpt lat="44.5114079" lon="7.8034941"><ele>361.5</ele><time>2026-05-03T15:16:54.219Z</time></trkpt><trkpt lat="44.5111101" lon="7.8036657"><ele>362.0</ele><time>2026-05-03T15:16:55.22Z</time></trkpt><trkpt lat="44.5108162" lon="7.8038327"><ele>362.0</ele><time>2026-05-03T15:16:56.22Z</time></trkpt><trkpt lat="44.5105244" lon="7.8039982"><ele>362.0</ele><time>2026-05-03T15:16:57.22Z</time></trkpt><trkpt lat="44.5102363" lon="7.8041654"><ele>362.0</ele><time>2026-05-03T15:16:58.219Z</time></trkpt><trkpt lat="44.5099507" lon="7.8043333"><ele>362.0</ele><time>2026-05-03T15:16:59.219Z</time></trkpt><trkpt lat="44.5096675" lon="7.8045048"><ele>362.5</ele><time>2026-05-03T15:17:00.22Z</time></trkpt><trkpt lat="44.5093875" lon="7.8046765"><ele>363.0</ele><time>2026-05-03T15:17:01.22Z</time></trkpt><trkpt lat="44.5091033" lon="7.8048485"><ele>363.0</ele><time>2026-05-03T15:17:02.219Z</time></trkpt><trkpt lat="44.5088194" lon="7.8050175"><ele>363.0</ele><time>2026-05-03T15:17:03.219Z</time></trkpt><trkpt lat="44.5085336" lon="7.8051867"><ele>364.0</ele><time>2026-05-03T15:17:04.219Z</time></trkpt><trkpt lat="44.5082438" lon="7.8053545"><ele>365.0</ele><time>2026-05-03T15:17:05.219Z</time></trkpt><trkpt lat="44.5079537" lon="7.8055233"><ele>365.5</ele><time>2026-05-03T15:17:06.22Z</time></trkpt><trkpt lat="44.5076602" lon="7.8056904"><ele>366.0</ele><time>2026-05-03T15:17:07.219Z</time></trkpt><trkpt lat="44.5073642" lon="7.8058572"><ele>370.5</ele><time>2026-05-03T15:17:08.22Z</time></trkpt><trkpt lat="44.5070676" lon="7.806025"><ele>375.0</ele><time>2026-05-03T15:17:09.219Z</time></trkpt><trkpt lat="44.5067667" lon="7.8061864"><ele>375.0</ele><time>2026-05-03T15:17:10.22Z</time></trkpt><trkpt lat="44.5064601" lon="7.8063521"><ele>375.0</ele><time>2026-05-03T15:17:11.22Z</time></trkpt><trkpt lat="44.5061552" lon="7.806517"><ele>377.5</ele><time>2026-05-03T15:17:12.219Z</time></trkpt><trkpt lat="44.5058523" lon="7.8066837"><ele>380.0</ele><time>2026-05-03T15:17:13.219Z</time></trkpt><trkpt lat="44.5055517" lon="7.8068547"><ele>386.0</ele><time>2026-05-03T15:17:14.219Z</time></trkpt><trkpt lat="44.5052506" lon="7.8070293"><ele>392.0</ele><time>2026-05-03T15:17:15.219Z</time></trkpt><trkpt lat="44.5049487" lon="7.8072083"><ele>392.0</ele><time>2026-05-03T15:17:16.219Z</time></trkpt><trkpt lat="44.5046544" lon="7.8073827"><ele>392.0</ele><time>2026-05-03T15:17:17.219Z</time></trkpt><trkpt lat="44.5043544" lon="7.8075447"><ele>398.0</ele><time>2026-05-03T15:17:18.22Z</time></trkpt><trkpt lat="44.5040611" lon="7.8077177"><ele>404.0</ele><time>2026-05-03T15:17:19.219Z</time></trkpt><trkpt lat="44.5037663" lon="7.8078881"><ele>404.0</ele><time>2026-05-03T15:17:20.22Z</time></trkpt><trkpt lat="44.5034722" lon="7.80806"><ele>404.0</ele><time>2026-05-03T15:17:21.22Z</time></trkpt><trkpt lat="44.5031809" lon="7.80823"><ele>406.5</ele><time>2026-05-03T15:17:22.219Z</time></trkpt><trkpt lat="44.502884" lon="7.8083987"><ele>409.0</ele><time>2026-05-03T15:17:23.219Z</time></trkpt><trkpt lat="44.5025929" lon="7.8085672"><ele>410.0</ele><time>2026-05-03T15:17:24.219Z</time></trkpt><trkpt lat="44.5022981" lon="7.8087351"><ele>411.0</ele><time>2026-05-03T15:17:25.22Z</time></trkpt><trkpt lat="44.5020033" lon="7.8089047"><ele>411.5</ele><time>2026-05-03T15:17:26.219Z</time></trkpt><trkpt lat="44.501707" lon="7.809077"><ele>412.0</ele><time>2026-05-03T15:17:27.22Z</time></trkpt><trkpt lat="44.5014128" lon="7.8092438"><ele>412.0</ele><time>2026-05-03T15:17:28.22Z</time></trkpt><trkpt lat="44.5011181" lon="7.809412"><ele>412.0</ele><time>2026-05-03T15:17:29.22Z</time></trkpt><trkpt lat="44.5008217" lon="7.8095864"><ele>412.0</ele><time>2026-05-03T15:17:30.219Z</time></trkpt><trkpt lat="44.5005279" lon="7.8097597"><ele>412.0</ele><time>2026-05-03T15:17:31.219Z</time></trkpt><trkpt lat="44.5002286" lon="7.8099306"><ele>412.0</ele><time>2026-05-03T15:17:32.219Z</time></trkpt><trkpt lat="44.4999299" lon="7.8101021"><ele>412.0</ele><time>2026-05-03T15:17:33.219Z</time></trkpt><trkpt lat="44.4996285" lon="7.8102809"><ele>412.5</ele><time>2026-05-03T15:17:34.219Z</time></trkpt><trkpt lat="44.4993256" lon="7.8104528"><ele>413.0</ele><time>2026-05-03T15:17:35.219Z</time></trkpt><trkpt lat="44.4990212" lon="7.8106211"><ele>413.5</ele><time>2026-05-03T15:17:36.219Z</time></trkpt><trkpt lat="44.4987187" lon="7.8107937"><ele>414.0</ele><time>2026-05-03T15:17:37.22Z</time></trkpt><trkpt lat="44.4984166" lon="7.8109655"><ele>414.5</ele><time>2026-05-03T15:17:38.219Z</time></trkpt><trkpt lat="44.4981161" lon="7.8111414"><ele>415.0</ele><time>2026-05-03T15:17:39.22Z</time></trkpt><trkpt lat="44.4978119" lon="7.8113239"><ele>415.0</ele><time>2026-05-03T15:17:40.219Z</time></trkpt><trkpt lat="44.4975144" lon="7.8115084"><ele>415.0</ele><time>2026-05-03T15:17:41.219Z</time></trkpt><trkpt lat="44.4972148" lon="7.8116954"><ele>412.5</ele><time>2026-05-03T15:17:42.219Z</time></trkpt><trkpt lat="44.4969221" lon="7.8118911"><ele>410.0</ele><time>2026-05-03T15:17:43.22Z</time></trkpt><trkpt lat="44.4966294" lon="7.8120959"><ele>410.0</ele><time>2026-05-03T15:17:44.219Z</time></trkpt><trkpt lat="44.4963372" lon="7.812301"><ele>410.0</ele><time>2026-05-03T15:17:45.22Z</time></trkpt><trkpt lat="44.4960433" lon="7.8125077"><ele>408.5</ele><time>2026-05-03T15:17:46.22Z</time></trkpt><trkpt lat="44.4957506" lon="7.8127174"><ele>407.0</ele><time>2026-05-03T15:17:47.219Z</time></trkpt><trkpt lat="44.4954561" lon="7.8129164"><ele>407.5</ele><time>2026-05-03T15:17:48.22Z</time></trkpt><trkpt lat="44.4951634" lon="7.8131164"><ele>408.0</ele><time>2026-05-03T15:17:49.219Z</time></trkpt><trkpt lat="44.4948687" lon="7.8133252"><ele>408.0</ele><time>2026-05-03T15:17:50.22Z</time></trkpt><trkpt lat="44.4945796" lon="7.8135301"><ele>408.0</ele><time>2026-05-03T15:17:51.22Z</time></trkpt><trkpt lat="44.4942867" lon="7.8137354"><ele>408.0</ele><time>2026-05-03T15:17:52.22Z</time></trkpt><trkpt lat="44.4939971" lon="7.8139347"><ele>408.0</ele><time>2026-05-03T15:17:53.219Z</time></trkpt><trkpt lat="44.4937012" lon="7.814137"><ele>408.0</ele><time>2026-05-03T15:17:54.219Z</time></trkpt><trkpt lat="44.4934093" lon="7.8143388"><ele>408.0</ele><time>2026-05-03T15:17:55.22Z</time></trkpt><trkpt lat="44.4931184" lon="7.8145404"><ele>408.0</ele><time>2026-05-03T15:17:56.22Z</time></trkpt><trkpt lat="44.4928276" lon="7.8147466"><ele>408.0</ele><time>2026-05-03T15:17:57.22Z</time></trkpt><trkpt lat="44.4925421" lon="7.8149473"><ele>408.0</ele><time>2026-05-03T15:17:58.219Z</time></trkpt><trkpt lat="44.4922556" lon="7.8151546"><ele>408.0</ele><time>2026-05-03T15:17:59.22Z</time></trkpt><trkpt lat="44.4919682" lon="7.8153544"><ele>409.5</ele><time>2026-05-03T15:18:00.219Z</time></trkpt><trkpt lat="44.4916807" lon="7.8155596"><ele>411.0</ele><time>2026-05-03T15:18:01.22Z</time></trkpt><trkpt lat="44.49139" lon="7.8157616"><ele>410.5</ele><time>2026-05-03T15:18:02.219Z</time></trkpt><trkpt lat="44.4910995" lon="7.8159656"><ele>410.0</ele><time>2026-05-03T15:18:03.22Z</time></trkpt><trkpt lat="44.4908077" lon="7.8161736"><ele>410.0</ele><time>2026-05-03T15:18:04.22Z</time></trkpt><trkpt lat="44.4905218" lon="7.8163783"><ele>410.0</ele><time>2026-05-03T15:18:05.219Z</time></trkpt><trkpt lat="44.4902337" lon="7.8165837"><ele>409.5</ele><time>2026-05-03T15:18:06.219Z</time></trkpt><trkpt lat="44.4899481" lon="7.8167837"><ele>409.0</ele><time>2026-05-03T15:18:07.219Z</time></trkpt><trkpt lat="44.4896568" lon="7.816989"><ele>410.5</ele><time>2026-05-03T15:18:08.219Z</time></trkpt><trkpt lat="44.489366" lon="7.8171916"><ele>412.0</ele><time>2026-05-03T15:18:09.219Z</time></trkpt><trkpt lat="44.4890695" lon="7.8173995"><ele>412.0</ele><time>2026-05-03T15:18:10.22Z</time></trkpt><trkpt lat="44.4887774" lon="7.8176055"><ele>412.0</ele><time>2026-05-03T15:18:11.219Z</time></trkpt><trkpt lat="44.4884852" lon="7.8178068"><ele>411.5</ele><time>2026-05-03T15:18:12.219Z</time></trkpt><trkpt lat="44.4881948" lon="7.8180103"><ele>411.0</ele><time>2026-05-03T15:18:13.219Z</time></trkpt><trkpt lat="44.4879008" lon="7.8182179"><ele>410.5</ele><time>2026-05-03T15:18:14.219Z</time></trkpt><trkpt lat="44.4876071" lon="7.8184238"><ele>410.0</ele><time>2026-05-03T15:18:15.22Z</time></trkpt><trkpt lat="44.4873161" lon="7.8186248"><ele>410.5</ele><time>2026-05-03T15:18:16.22Z</time></trkpt><trkpt lat="44.487027" lon="7.8188289"><ele>411.0</ele><time>2026-05-03T15:18:17.22Z</time></trkpt><trkpt lat="44.4867383" lon="7.8190388"><ele>411.0</ele><time>2026-05-03T15:18:18.219Z</time></trkpt><trkpt lat="44.4864459" lon="7.8192423"><ele>411.0</ele><time>2026-05-03T15:18:19.22Z</time></trkpt><trkpt lat="44.4861587" lon="7.8194427"><ele>412.0</ele><time>2026-05-03T15:18:20.219Z</time></trkpt><trkpt lat="44.4858698" lon="7.8196461"><ele>413.0</ele><time>2026-05-03T15:18:21.219Z</time></trkpt><trkpt lat="44.4855775" lon="7.8198503"><ele>413.5</ele><time>2026-05-03T15:18:22.219Z</time></trkpt><trkpt lat="44.4852804" lon="7.8200551"><ele>414.0</ele><time>2026-05-03T15:18:23.219Z</time></trkpt><trkpt lat="44.484988" lon="7.8202625"><ele>413.0</ele><time>2026-05-03T15:18:24.219Z</time></trkpt><trkpt lat="44.4846958" lon="7.8204696"><ele>412.0</ele><time>2026-05-03T15:18:25.219Z</time></trkpt><trkpt lat="44.4844026" lon="7.8206787"><ele>412.0</ele><time>2026-05-03T15:18:26.219Z</time></trkpt><trkpt lat="44.4841091" lon="7.8208839"><ele>412.0</ele><time>2026-05-03T15:18:27.219Z</time></trkpt><trkpt lat="44.4838187" lon="7.8210919"><ele>411.0</ele><time>2026-05-03T15:18:28.219Z</time></trkpt><trkpt lat="44.4835255" lon="7.8212942"><ele>410.0</ele><time>2026-05-03T15:18:29.219Z</time></trkpt><trkpt lat="44.4832341" lon="7.8214982"><ele>410.0</ele><time>2026-05-03T15:18:30.22Z</time></trkpt><trkpt lat="44.4829452" lon="7.8217013"><ele>410.0</ele><time>2026-05-03T15:18:31.219Z</time></trkpt><trkpt lat="44.4826588" lon="7.8219079"><ele>410.0</ele><time>2026-05-03T15:18:32.219Z</time></trkpt><trkpt lat="44.4823753" lon="7.8221158"><ele>410.0</ele><time>2026-05-03T15:18:33.22Z</time></trkpt><trkpt lat="44.4820877" lon="7.8223187"><ele>410.0</ele><time>2026-05-03T15:18:34.22Z</time></trkpt><trkpt lat="44.4818004" lon="7.8225187"><ele>410.0</ele><time>2026-05-03T15:18:35.219Z</time></trkpt><trkpt lat="44.4815141" lon="7.8227149"><ele>409.5</ele><time>2026-05-03T15:18:36.219Z</time></trkpt><trkpt lat="44.4812283" lon="7.8229159"><ele>409.0</ele><time>2026-05-03T15:18:37.22Z</time></trkpt><trkpt lat="44.4809479" lon="7.8231136"><ele>409.0</ele><time>2026-05-03T15:18:38.22Z</time></trkpt><trkpt lat="44.4806677" lon="7.8233095"><ele>409.0</ele><time>2026-05-03T15:18:39.22Z</time></trkpt><trkpt lat="44.4803936" lon="7.8234957"><ele>409.5</ele><time>2026-05-03T15:18:40.219Z</time></trkpt><trkpt lat="44.4801249" lon="7.823676"><ele>410.0</ele><time>2026-05-03T15:18:41.22Z</time></trkpt><trkpt lat="44.4798625" lon="7.8238588"><ele>410.0</ele><time>2026-05-03T15:18:42.219Z</time></trkpt><trkpt lat="44.4796051" lon="7.8240397"><ele>410.0</ele><time>2026-05-03T15:18:43.219Z</time></trkpt><trkpt lat="44.4793481" lon="7.8242201"><ele>408.5</ele><time>2026-05-03T15:18:44.219Z</time></trkpt><trkpt lat="44.4790946" lon="7.8244061"><ele>407.0</ele><time>2026-05-03T15:18:45.219Z</time></trkpt><trkpt lat="44.4788356" lon="7.8245907"><ele>407.5</ele><time>2026-05-03T15:18:46.22Z</time></trkpt><trkpt lat="44.4785738" lon="7.824769"><ele>408.0</ele><time>2026-05-03T15:18:47.219Z</time></trkpt><trkpt lat="44.4783092" lon="7.8249554"><ele>408.5</ele><time>2026-05-03T15:18:48.219Z</time></trkpt><trkpt lat="44.4780411" lon="7.8251466"><ele>409.0</ele><time>2026-05-03T15:18:49.22Z</time></trkpt><trkpt lat="44.4777736" lon="7.825339"><ele>409.0</ele><time>2026-05-03T15:18:50.219Z</time></trkpt><trkpt lat="44.4775035" lon="7.8255393"><ele>409.0</ele><time>2026-05-03T15:18:51.219Z</time></trkpt><trkpt lat="44.477233" lon="7.8257429"><ele>408.5</ele><time>2026-05-03T15:18:52.22Z</time></trkpt><trkpt lat="44.4769559" lon="7.825948"><ele>408.0</ele><time>2026-05-03T15:18:53.219Z</time></trkpt><trkpt lat="44.4766775" lon="7.826148"><ele>407.5</ele><time>2026-05-03T15:18:54.219Z</time></trkpt><trkpt lat="44.4763965" lon="7.8263482"><ele>407.0</ele><time>2026-05-03T15:18:55.219Z</time></trkpt><trkpt lat="44.4761166" lon="7.8265436"><ele>408.5</ele><time>2026-05-03T15:18:56.22Z</time></trkpt><trkpt lat="44.4758356" lon="7.8267432"><ele>410.0</ele><time>2026-05-03T15:18:57.219Z</time></trkpt><trkpt lat="44.4755501" lon="7.82694"><ele>410.5</ele><time>2026-05-03T15:18:58.219Z</time></trkpt><trkpt lat="44.4752652" lon="7.8271363"><ele>411.0</ele><time>2026-05-03T15:18:59.219Z</time></trkpt><trkpt lat="44.4749763" lon="7.8273167"><ele>411.0</ele><time>2026-05-03T15:19:00.219Z</time></trkpt><trkpt lat="44.4746827" lon="7.8274981"><ele>411.0</ele><time>2026-05-03T15:19:01.219Z</time></trkpt><trkpt lat="44.4743825" lon="7.8276621"><ele>408.0</ele><time>2026-05-03T15:19:02.219Z</time></trkpt><trkpt lat="44.4740769" lon="7.8278227"><ele>405.0</ele><time>2026-05-03T15:19:03.22Z</time></trkpt><trkpt lat="44.4737712" lon="7.8279751"><ele>405.0</ele><time>2026-05-03T15:19:04.219Z</time></trkpt><trkpt lat="44.4734627" lon="7.8281273"><ele>405.0</ele><time>2026-05-03T15:19:05.219Z</time></trkpt><trkpt lat="44.4731528" lon="7.8282778"><ele>403.5</ele><time>2026-05-03T15:19:06.22Z</time></trkpt><trkpt lat="44.4728428" lon="7.8284266"><ele>402.0</ele><time>2026-05-03T15:19:07.219Z</time></trkpt><trkpt lat="44.4725291" lon="7.8285767"><ele>402.0</ele><time>2026-05-03T15:19:08.22Z</time></trkpt><trkpt lat="44.4722242" lon="7.8287242"><ele>402.0</ele><time>2026-05-03T15:19:09.219Z</time></trkpt><trkpt lat="44.4719164" lon="7.8288858"><ele>402.5</ele><time>2026-05-03T15:19:10.219Z</time></trkpt><trkpt lat="44.4716086" lon="7.8290422"><ele>403.0</ele><time>2026-05-03T15:19:11.219Z</time></trkpt><trkpt lat="44.4713009" lon="7.8292036"><ele>402.5</ele><time>2026-05-03T15:19:12.219Z</time></trkpt><trkpt lat="44.4709908" lon="7.8293534"><ele>402.0</ele><time>2026-05-03T15:19:13.219Z</time></trkpt><trkpt lat="44.4706856" lon="7.8295104"><ele>402.5</ele><time>2026-05-03T15:19:14.219Z</time></trkpt><trkpt lat="44.4703779" lon="7.8296634"><ele>403.0</ele><time>2026-05-03T15:19:15.22Z</time></trkpt><trkpt lat="44.4700714" lon="7.8298299"><ele>403.0</ele><time>2026-05-03T15:19:16.219Z</time></trkpt><trkpt lat="44.4697706" lon="7.829986"><ele>403.0</ele><time>2026-05-03T15:19:17.22Z</time></trkpt><trkpt lat="44.4694882" lon="7.8301334"><ele>396.5</ele><time>2026-05-03T15:19:18.219Z</time></trkpt><trkpt lat="44.469213" lon="7.8302741"><ele>390.0</ele><time>2026-05-03T15:19:19.219Z</time></trkpt><trkpt lat="44.4689476" lon="7.8304105"><ele>387.0</ele><time>2026-05-03T15:19:20.22Z</time></trkpt><trkpt lat="44.46868" lon="7.8305452"><ele>384.0</ele><time>2026-05-03T15:19:21.219Z</time></trkpt><trkpt lat="44.4684039" lon="7.8306867"><ele>384.0</ele><time>2026-05-03T15:19:22.219Z</time></trkpt><trkpt lat="44.468123" lon="7.8308308"><ele>384.0</ele><time>2026-05-03T15:19:23.219Z</time></trkpt><trkpt lat="44.4678351" lon="7.8309804"><ele>380.5</ele><time>2026-05-03T15:19:24.219Z</time></trkpt><trkpt lat="44.4675466" lon="7.8311295"><ele>377.0</ele><time>2026-05-03T15:19:25.219Z</time></trkpt><trkpt lat="44.4672535" lon="7.8312796"><ele>376.5</ele><time>2026-05-03T15:19:26.22Z</time></trkpt><trkpt lat="44.4669564" lon="7.8314277"><ele>376.0</ele><time>2026-05-03T15:19:27.219Z</time></trkpt><trkpt lat="44.4666637" lon="7.8315813"><ele>376.0</ele><time>2026-05-03T15:19:28.219Z</time></trkpt><trkpt lat="44.466371" lon="7.8317373"><ele>376.0</ele><time>2026-05-03T15:19:29.219Z</time></trkpt><trkpt lat="44.4660731" lon="7.8318974"><ele>375.5</ele><time>2026-05-03T15:19:30.219Z</time></trkpt><trkpt lat="44.4657699" lon="7.8320492"><ele>375.0</ele><time>2026-05-03T15:19:31.22Z</time></trkpt><trkpt lat="44.4654661" lon="7.8321978"><ele>375.0</ele><time>2026-05-03T15:19:32.22Z</time></trkpt><trkpt lat="44.4651623" lon="7.8323472"><ele>375.0</ele><time>2026-05-03T15:19:33.219Z</time></trkpt><trkpt lat="44.4648558" lon="7.8325031"><ele>374.5</ele><time>2026-05-03T15:19:34.219Z</time></trkpt><trkpt lat="44.4645475" lon="7.8326595"><ele>374.0</ele><time>2026-05-03T15:19:35.219Z</time></trkpt><trkpt lat="44.4642355" lon="7.8328149"><ele>374.0</ele><time>2026-05-03T15:19:36.219Z</time></trkpt><trkpt lat="44.4639285" lon="7.8329719"><ele>374.0</ele><time>2026-05-03T15:19:37.219Z</time></trkpt><trkpt lat="44.4636223" lon="7.8331299"><ele>373.5</ele><time>2026-05-03T15:19:38.22Z</time></trkpt><trkpt lat="44.4633166" lon="7.8332889"><ele>373.0</ele><time>2026-05-03T15:19:39.22Z</time></trkpt><trkpt lat="44.4630083" lon="7.8334474"><ele>372.5</ele><time>2026-05-03T15:19:40.22Z</time></trkpt><trkpt lat="44.4627058" lon="7.8336065"><ele>372.0</ele><time>2026-05-03T15:19:41.22Z</time></trkpt><trkpt lat="44.4624017" lon="7.8337606"><ele>371.5</ele><time>2026-05-03T15:19:42.219Z</time></trkpt><trkpt lat="44.462098" lon="7.8339134"><ele>371.0</ele><time>2026-05-03T15:19:43.219Z</time></trkpt><trkpt lat="44.4617937" lon="7.8340709"><ele>371.0</ele><time>2026-05-03T15:19:44.22Z</time></trkpt><trkpt lat="44.4614855" lon="7.8342258"><ele>371.0</ele><time>2026-05-03T15:19:45.22Z</time></trkpt><trkpt lat="44.4611807" lon="7.8343786"><ele>371.0</ele><time>2026-05-03T15:19:46.22Z</time></trkpt><trkpt lat="44.4608744" lon="7.834533"><ele>371.0</ele><time>2026-05-03T15:19:47.219Z</time></trkpt><trkpt lat="44.4605631" lon="7.8346976"><ele>363.5</ele><time>2026-05-03T15:19:48.22Z</time></trkpt><trkpt lat="44.4602522" lon="7.8348595"><ele>356.0</ele><time>2026-05-03T15:19:49.22Z</time></trkpt><trkpt lat="44.4599439" lon="7.8350215"><ele>354.5</ele><time>2026-05-03T15:19:50.22Z</time></trkpt><trkpt lat="44.4596352" lon="7.8351797"><ele>353.0</ele><time>2026-05-03T15:19:51.219Z</time></trkpt><trkpt lat="44.4593299" lon="7.8353352"><ele>346.5</ele><time>2026-05-03T15:19:52.219Z</time></trkpt><trkpt lat="44.4590216" lon="7.835492"><ele>340.0</ele><time>2026-05-03T15:19:53.22Z</time></trkpt><trkpt lat="44.4587125" lon="7.835646"><ele>336.5</ele><time>2026-05-03T15:19:54.22Z</time></trkpt><trkpt lat="44.4584048" lon="7.8357949"><ele>333.0</ele><time>2026-05-03T15:19:55.219Z</time></trkpt><trkpt lat="44.4580973" lon="7.8359508"><ele>328.5</ele><time>2026-05-03T15:19:56.219Z</time></trkpt><trkpt lat="44.4577901" lon="7.8361127"><ele>324.0</ele><time>2026-05-03T15:19:57.22Z</time></trkpt><trkpt lat="44.4574817" lon="7.8362685"><ele>324.0</ele><time>2026-05-03T15:19:58.22Z</time></trkpt><trkpt lat="44.4571777" lon="7.836427"><ele>324.0</ele><time>2026-05-03T15:19:59.22Z</time></trkpt><trkpt lat="44.4568732" lon="7.836585"><ele>321.0</ele><time>2026-05-03T15:20:00.219Z</time></trkpt><trkpt lat="44.4565687" lon="7.8367418"><ele>318.0</ele><time>2026-05-03T15:20:01.22Z</time></trkpt><trkpt lat="44.4562665" lon="7.8369003"><ele>312.0</ele><time>2026-05-03T15:20:02.219Z</time></trkpt><trkpt lat="44.4559647" lon="7.8370529"><ele>306.0</ele><time>2026-05-03T15:20:03.219Z</time></trkpt><trkpt lat="44.455661" lon="7.8372072"><ele>306.0</ele><time>2026-05-03T15:20:04.219Z</time></trkpt><trkpt lat="44.4553611" lon="7.8373647"><ele>306.0</ele><time>2026-05-03T15:20:05.219Z</time></trkpt><trkpt lat="44.4550558" lon="7.8375147"><ele>306.5</ele><time>2026-05-03T15:20:06.219Z</time></trkpt><trkpt lat="44.454751" lon="7.8376623"><ele>307.0</ele><time>2026-05-03T15:20:07.219Z</time></trkpt><trkpt lat="44.4544488" lon="7.8378196"><ele>307.5</ele><time>2026-05-03T15:20:08.22Z</time></trkpt><trkpt lat="44.4541488" lon="7.8379757"><ele>308.0</ele><time>2026-05-03T15:20:09.219Z</time></trkpt><trkpt lat="44.4538477" lon="7.8381372"><ele>308.0</ele><time>2026-05-03T15:20:10.219Z</time></trkpt><trkpt lat="44.4535456" lon="7.8382983"><ele>308.0</ele><time>2026-05-03T15:20:11.219Z</time></trkpt><trkpt lat="44.4532431" lon="7.8384523"><ele>319.0</ele><time>2026-05-03T15:20:12.22Z</time></trkpt><trkpt lat="44.4529385" lon="7.8386051"><ele>330.0</ele><time>2026-05-03T15:20:13.22Z</time></trkpt><trkpt lat="44.4526341" lon="7.8387613"><ele>330.0</ele><time>2026-05-03T15:20:14.22Z</time></trkpt><trkpt lat="44.4523248" lon="7.8389156"><ele>330.0</ele><time>2026-05-03T15:20:15.219Z</time></trkpt><trkpt lat="44.4520183" lon="7.8390674"><ele>340.0</ele><time>2026-05-03T15:20:16.219Z</time></trkpt><trkpt lat="44.4517109" lon="7.8392245"><ele>350.0</ele><time>2026-05-03T15:20:17.22Z</time></trkpt><trkpt lat="44.4514067" lon="7.8393754"><ele>361.0</ele><time>2026-05-03T15:20:18.219Z</time></trkpt><trkpt lat="44.4511081" lon="7.8395295"><ele>372.0</ele><time>2026-05-03T15:20:19.219Z</time></trkpt><trkpt lat="44.4508046" lon="7.8396898"><ele>372.0</ele><time>2026-05-03T15:20:20.22Z</time></trkpt><trkpt lat="44.4505012" lon="7.8398515"><ele>372.0</ele><time>2026-05-03T15:20:21.219Z</time></trkpt><trkpt lat="44.4502018" lon="7.8400165"><ele>379.5</ele><time>2026-05-03T15:20:22.219Z</time></trkpt><trkpt lat="44.4499021" lon="7.8401815"><ele>387.0</ele><time>2026-05-03T15:20:23.219Z</time></trkpt><trkpt lat="44.4496073" lon="7.8403562"><ele>387.0</ele><time>2026-05-03T15:20:24.22Z</time></trkpt><trkpt lat="44.4493122" lon="7.8405359"><ele>387.0</ele><time>2026-05-03T15:20:25.219Z</time></trkpt><trkpt lat="44.449015" lon="7.8407124"><ele>387.0</ele><time>2026-05-03T15:20:26.219Z</time></trkpt><trkpt lat="44.4487184" lon="7.8408847"><ele>387.0</ele><time>2026-05-03T15:20:27.219Z</time></trkpt><trkpt lat="44.4484225" lon="7.8410639"><ele>387.0</ele><time>2026-05-03T15:20:28.219Z</time></trkpt><trkpt lat="44.4481253" lon="7.8412409"><ele>387.0</ele><time>2026-05-03T15:20:29.219Z</time></trkpt><trkpt lat="44.4478257" lon="7.8414126"><ele>386.5</ele><time>2026-05-03T15:20:30.219Z</time></trkpt><trkpt lat="44.4475272" lon="7.8415923"><ele>386.0</ele><time>2026-05-03T15:20:31.219Z</time></trkpt><trkpt lat="44.4472324" lon="7.8417784"><ele>385.0</ele><time>2026-05-03T15:20:32.219Z</time></trkpt><trkpt lat="44.4469356" lon="7.8419623"><ele>384.0</ele><time>2026-05-03T15:20:33.219Z</time></trkpt><trkpt lat="44.4466394" lon="7.8421421"><ele>384.0</ele><time>2026-05-03T15:20:34.219Z</time></trkpt><trkpt lat="44.4463458" lon="7.8423126"><ele>384.0</ele><time>2026-05-03T15:20:35.22Z</time></trkpt><trkpt lat="44.4460558" lon="7.842493"><ele>385.0</ele><time>2026-05-03T15:20:36.219Z</time></trkpt><trkpt lat="44.4457654" lon="7.842663"><ele>386.0</ele><time>2026-05-03T15:20:37.22Z</time></trkpt><trkpt lat="44.4454775" lon="7.8428441"><ele>385.5</ele><time>2026-05-03T15:20:38.219Z</time></trkpt><trkpt lat="44.4451838" lon="7.8430162"><ele>385.0</ele><time>2026-05-03T15:20:39.219Z</time></trkpt><trkpt lat="44.4448911" lon="7.8431895"><ele>385.0</ele><time>2026-05-03T15:20:40.22Z</time></trkpt><trkpt lat="44.4445987" lon="7.8433609"><ele>385.0</ele><time>2026-05-03T15:20:41.219Z</time></trkpt><trkpt lat="44.4443054" lon="7.843537"><ele>385.0</ele><time>2026-05-03T15:20:42.22Z</time></trkpt><trkpt lat="44.4440127" lon="7.8437074"><ele>385.0</ele><time>2026-05-03T15:20:43.219Z</time></trkpt><trkpt lat="44.4437246" lon="7.8438826"><ele>384.5</ele><time>2026-05-03T15:20:44.219Z</time></trkpt><trkpt lat="44.443435" lon="7.8440602"><ele>384.0</ele><time>2026-05-03T15:20:45.219Z</time></trkpt><trkpt lat="44.4431474" lon="7.8442378"><ele>383.5</ele><time>2026-05-03T15:20:46.219Z</time></trkpt><trkpt lat="44.4428616" lon="7.8444187"><ele>383.0</ele><time>2026-05-03T15:20:47.219Z</time></trkpt><trkpt lat="44.4425733" lon="7.8445897"><ele>383.0</ele><time>2026-05-03T15:20:48.219Z</time></trkpt><trkpt lat="44.442291" lon="7.8447616"><ele>383.0</ele><time>2026-05-03T15:20:49.22Z</time></trkpt><trkpt lat="44.442007" lon="7.8449371"><ele>383.0</ele><time>2026-05-03T15:20:50.219Z</time></trkpt><trkpt lat="44.4417246" lon="7.8451036"><ele>383.0</ele><time>2026-05-03T15:20:51.219Z</time></trkpt><trkpt lat="44.4414412" lon="7.8452723"><ele>383.0</ele><time>2026-05-03T15:20:52.22Z</time></trkpt><trkpt lat="44.4411562" lon="7.8454442"><ele>383.0</ele><time>2026-05-03T15:20:53.219Z</time></trkpt><trkpt lat="44.4408712" lon="7.8456215"><ele>383.0</ele><time>2026-05-03T15:20:54.219Z</time></trkpt><trkpt lat="44.4405835" lon="7.8458012"><ele>383.0</ele><time>2026-05-03T15:20:55.22Z</time></trkpt><trkpt lat="44.4403016" lon="7.8459729"><ele>382.5</ele><time>2026-05-03T15:20:56.219Z</time></trkpt><trkpt lat="44.4400166" lon="7.8461335"><ele>382.0</ele><time>2026-05-03T15:20:57.219Z</time></trkpt><trkpt lat="44.4397381" lon="7.8462993"><ele>382.0</ele><time>2026-05-03T15:20:58.219Z</time></trkpt><trkpt lat="44.4394545" lon="7.8464654"><ele>382.0</ele><time>2026-05-03T15:20:59.219Z</time></trkpt><trkpt lat="44.4391687" lon="7.8466384"><ele>381.5</ele><time>2026-05-03T15:21:00.219Z</time></trkpt><trkpt lat="44.4388864" lon="7.8468106"><ele>381.0</ele><time>2026-05-03T15:21:01.219Z</time></trkpt><trkpt lat="44.4386027" lon="7.8469855"><ele>382.0</ele><time>2026-05-03T15:21:02.22Z</time></trkpt><trkpt lat="44.4383194" lon="7.847157"><ele>383.0</ele><time>2026-05-03T15:21:03.219Z</time></trkpt><trkpt lat="44.4380353" lon="7.8473256"><ele>383.5</ele><time>2026-05-03T15:21:04.22Z</time></trkpt><trkpt lat="44.4377539" lon="7.8474932"><ele>384.0</ele><time>2026-05-03T15:21:05.219Z</time></trkpt><trkpt lat="44.4374733" lon="7.8476611"><ele>384.5</ele><time>2026-05-03T15:21:06.219Z</time></trkpt><trkpt lat="44.437195" lon="7.8478306"><ele>385.0</ele><time>2026-05-03T15:21:07.219Z</time></trkpt><trkpt lat="44.4369145" lon="7.8479996"><ele>386.5</ele><time>2026-05-03T15:21:08.219Z</time></trkpt><trkpt lat="44.436631" lon="7.8481701"><ele>388.0</ele><time>2026-05-03T15:21:09.219Z</time></trkpt><trkpt lat="44.4363454" lon="7.8483403"><ele>387.0</ele><time>2026-05-03T15:21:10.219Z</time></trkpt><trkpt lat="44.4360608" lon="7.8485093"><ele>386.0</ele><time>2026-05-03T15:21:11.219Z</time></trkpt><trkpt lat="44.4357771" lon="7.8486779"><ele>386.0</ele><time>2026-05-03T15:21:12.219Z</time></trkpt><trkpt lat="44.4354913" lon="7.848846"><ele>386.0</ele><time>2026-05-03T15:21:13.219Z</time></trkpt><trkpt lat="44.4352061" lon="7.8490198"><ele>386.0</ele><time>2026-05-03T15:21:14.219Z</time></trkpt><trkpt lat="44.4349185" lon="7.8491951"><ele>386.0</ele><time>2026-05-03T15:21:15.219Z</time></trkpt><trkpt lat="44.4346333" lon="7.8493714"><ele>386.0</ele><time>2026-05-03T15:21:16.219Z</time></trkpt><trkpt lat="44.4343498" lon="7.8495463"><ele>386.0</ele><time>2026-05-03T15:21:17.215Z</time></trkpt><trkpt lat="44.4340629" lon="7.849721"><ele>385.0</ele><time>2026-05-03T15:21:18.216Z</time></trkpt><trkpt lat="44.4337761" lon="7.8498907"><ele>384.0</ele><time>2026-05-03T15:21:19.215Z</time></trkpt><trkpt lat="44.4334905" lon="7.8500615"><ele>383.0</ele><time>2026-05-03T15:21:20.215Z</time></trkpt><trkpt lat="44.4332084" lon="7.8502334"><ele>382.0</ele><time>2026-05-03T15:21:21.216Z</time></trkpt><trkpt lat="44.4329238" lon="7.8504062"><ele>375.5</ele><time>2026-05-03T15:21:22.215Z</time></trkpt><trkpt lat="44.4326412" lon="7.8505732"><ele>369.0</ele><time>2026-05-03T15:21:23.216Z</time></trkpt><trkpt lat="44.4323581" lon="7.8507376"><ele>362.0</ele><time>2026-05-03T15:21:24.215Z</time></trkpt><trkpt lat="44.4320764" lon="7.8509066"><ele>355.0</ele><time>2026-05-03T15:21:25.215Z</time></trkpt><trkpt lat="44.431794" lon="7.8510791"><ele>350.5</ele><time>2026-05-03T15:21:26.215Z</time></trkpt><trkpt lat="44.4315108" lon="7.8512541"><ele>346.0</ele><time>2026-05-03T15:21:27.215Z</time></trkpt><trkpt lat="44.431229" lon="7.8514303"><ele>344.5</ele><time>2026-05-03T15:21:28.215Z</time></trkpt><trkpt lat="44.4309487" lon="7.8516085"><ele>343.0</ele><time>2026-05-03T15:21:29.216Z</time></trkpt><trkpt lat="44.4306669" lon="7.8517879"><ele>356.0</ele><time>2026-05-03T15:21:30.215Z</time></trkpt><trkpt lat="44.4303834" lon="7.8519649"><ele>369.0</ele><time>2026-05-03T15:21:31.216Z</time></trkpt><trkpt lat="44.4300955" lon="7.852143"><ele>369.0</ele><time>2026-05-03T15:21:32.215Z</time></trkpt><trkpt lat="44.4298089" lon="7.8523154"><ele>369.0</ele><time>2026-05-03T15:21:33.216Z</time></trkpt><trkpt lat="44.4295241" lon="7.8524899"><ele>373.5</ele><time>2026-05-03T15:21:34.215Z</time></trkpt><trkpt lat="44.4292424" lon="7.852658"><ele>378.0</ele><time>2026-05-03T15:21:35.215Z</time></trkpt><trkpt lat="44.428961" lon="7.852826"><ele>379.0</ele><time>2026-05-03T15:21:36.216Z</time></trkpt><trkpt lat="44.4286797" lon="7.8529955"><ele>380.0</ele><time>2026-05-03T15:21:37.215Z</time></trkpt><trkpt lat="44.4283993" lon="7.8531692"><ele>380.0</ele><time>2026-05-03T15:21:38.215Z</time></trkpt><trkpt lat="44.4281208" lon="7.8533399"><ele>380.0</ele><time>2026-05-03T15:21:39.216Z</time></trkpt><trkpt lat="44.4278424" lon="7.8535063"><ele>380.0</ele><time>2026-05-03T15:21:40.215Z</time></trkpt><trkpt lat="44.427562" lon="7.8536713"><ele>380.0</ele><time>2026-05-03T15:21:41.215Z</time></trkpt><trkpt lat="44.4272807" lon="7.8538371"><ele>380.5</ele><time>2026-05-03T15:21:42.216Z</time></trkpt><trkpt lat="44.427002" lon="7.8540028"><ele>381.0</ele><time>2026-05-03T15:21:43.215Z</time></trkpt><trkpt lat="44.4267198" lon="7.854166"><ele>381.0</ele><time>2026-05-03T15:21:44.216Z</time></trkpt><trkpt lat="44.4264408" lon="7.8543354"><ele>381.0</ele><time>2026-05-03T15:21:45.216Z</time></trkpt><trkpt lat="44.426162" lon="7.8545024"><ele>382.0</ele><time>2026-05-03T15:21:46.215Z</time></trkpt><trkpt lat="44.4258831" lon="7.8546663"><ele>383.0</ele><time>2026-05-03T15:21:47.216Z</time></trkpt><trkpt lat="44.4256029" lon="7.8548294"><ele>383.5</ele><time>2026-05-03T15:21:48.216Z</time></trkpt><trkpt lat="44.4253218" lon="7.8549992"><ele>384.0</ele><time>2026-05-03T15:21:49.216Z</time></trkpt><trkpt lat="44.4250361" lon="7.8551768"><ele>384.0</ele><time>2026-05-03T15:21:50.215Z</time></trkpt><trkpt lat="44.4247557" lon="7.855355"><ele>384.0</ele><time>2026-05-03T15:21:51.215Z</time></trkpt><trkpt lat="44.4244731" lon="7.8555301"><ele>382.0</ele><time>2026-05-03T15:21:52.215Z</time></trkpt><trkpt lat="44.4241868" lon="7.8557042"><ele>380.0</ele><time>2026-05-03T15:21:53.215Z</time></trkpt><trkpt lat="44.4239009" lon="7.855879"><ele>379.5</ele><time>2026-05-03T15:21:54.216Z</time></trkpt><trkpt lat="44.423615" lon="7.8560516"><ele>379.0</ele><time>2026-05-03T15:21:55.216Z</time></trkpt><trkpt lat="44.4233292" lon="7.8562232"><ele>379.0</ele><time>2026-05-03T15:21:56.216Z</time></trkpt><trkpt lat="44.4230441" lon="7.8563893"><ele>379.0</ele><time>2026-05-03T15:21:57.216Z</time></trkpt><trkpt lat="44.4227584" lon="7.8565599"><ele>378.0</ele><time>2026-05-03T15:21:58.215Z</time></trkpt><trkpt lat="44.4224744" lon="7.856736"><ele>377.0</ele><time>2026-05-03T15:21:59.216Z</time></trkpt><trkpt lat="44.4221906" lon="7.8569125"><ele>375.0</ele><time>2026-05-03T15:22:00.216Z</time></trkpt><trkpt lat="44.4219081" lon="7.857092"><ele>373.0</ele><time>2026-05-03T15:22:01.215Z</time></trkpt><trkpt lat="44.4216273" lon="7.8572757"><ele>373.0</ele><time>2026-05-03T15:22:02.215Z</time></trkpt><trkpt lat="44.4213533" lon="7.8574687"><ele>373.0</ele><time>2026-05-03T15:22:03.215Z</time></trkpt><trkpt lat="44.4210803" lon="7.8576639"><ele>370.0</ele><time>2026-05-03T15:22:04.215Z</time></trkpt><trkpt lat="44.420808" lon="7.8578633"><ele>367.0</ele><time>2026-05-03T15:22:05.215Z</time></trkpt><trkpt lat="44.4205357" lon="7.8580645"><ele>358.5</ele><time>2026-05-03T15:22:06.216Z</time></trkpt><trkpt lat="44.4202614" lon="7.8582662"><ele>350.0</ele><time>2026-05-03T15:22:07.216Z</time></trkpt><trkpt lat="44.4199899" lon="7.8584682"><ele>347.0</ele><time>2026-05-03T15:22:08.215Z</time></trkpt><trkpt lat="44.4197201" lon="7.8586694"><ele>344.0</ele><time>2026-05-03T15:22:09.215Z</time></trkpt><trkpt lat="44.419455" lon="7.8588713"><ele>353.0</ele><time>2026-05-03T15:22:10.215Z</time></trkpt><trkpt lat="44.4191943" lon="7.8590891"><ele>362.0</ele><time>2026-05-03T15:22:11.216Z</time></trkpt><trkpt lat="44.4189492" lon="7.8593402"><ele>368.5</ele><time>2026-05-03T15:22:12.215Z</time></trkpt><trkpt lat="44.4187169" lon="7.859606"><ele>375.0</ele><time>2026-05-03T15:22:13.215Z</time></trkpt><trkpt lat="44.4185023" lon="7.859896"><ele>374.0</ele><time>2026-05-03T15:22:14.215Z</time></trkpt><trkpt lat="44.4183012" lon="7.8601987"><ele>373.0</ele><time>2026-05-03T15:22:15.215Z</time></trkpt><trkpt lat="44.4181137" lon="7.8605265"><ele>367.5</ele><time>2026-05-03T15:22:16.216Z</time></trkpt><trkpt lat="44.4179384" lon="7.860866"><ele>362.0</ele><time>2026-05-03T15:22:17.216Z</time></trkpt><trkpt lat="44.4177809" lon="7.861225"><ele>362.0</ele><time>2026-05-03T15:22:18.216Z</time></trkpt><trkpt lat="44.417636" lon="7.8615966"><ele>362.0</ele><time>2026-05-03T15:22:19.215Z</time></trkpt><trkpt lat="44.4175099" lon="7.86198"><ele>361.0</ele><time>2026-05-03T15:22:20.215Z</time></trkpt><trkpt lat="44.4173994" lon="7.8623748"><ele>360.0</ele><time>2026-05-03T15:22:21.215Z</time></trkpt><trkpt lat="44.417316" lon="7.8627817"><ele>353.0</ele><time>2026-05-03T15:22:22.215Z</time></trkpt><trkpt lat="44.4172527" lon="7.8631985"><ele>346.0</ele><time>2026-05-03T15:22:23.215Z</time></trkpt><trkpt lat="44.417207" lon="7.8636151"><ele>337.0</ele><time>2026-05-03T15:22:24.215Z</time></trkpt><trkpt lat="44.4171809" lon="7.8640342"><ele>328.0</ele><time>2026-05-03T15:22:25.215Z</time></trkpt><trkpt lat="44.4171715" lon="7.864457"><ele>326.0</ele><time>2026-05-03T15:22:26.215Z</time></trkpt><trkpt lat="44.4171853" lon="7.8648825"><ele>324.0</ele><time>2026-05-03T15:22:27.215Z</time></trkpt><trkpt lat="44.417216" lon="7.8653086"><ele>324.0</ele><time>2026-05-03T15:22:28.215Z</time></trkpt><trkpt lat="44.4172664" lon="7.8657306"><ele>324.0</ele><time>2026-05-03T15:22:29.216Z</time></trkpt><trkpt lat="44.4173375" lon="7.8661411"><ele>324.0</ele><time>2026-05-03T15:22:30.215Z</time></trkpt><trkpt lat="44.4174138" lon="7.8665489"><ele>324.0</ele><time>2026-05-03T15:22:31.215Z</time></trkpt><trkpt lat="44.417491" lon="7.8669586"><ele>328.0</ele><time>2026-05-03T15:22:32.216Z</time></trkpt><trkpt lat="44.4175665" lon="7.8673722"><ele>332.0</ele><time>2026-05-03T15:22:33.215Z</time></trkpt><trkpt lat="44.4176351" lon="7.8677895"><ele>342.0</ele><time>2026-05-03T15:22:34.215Z</time></trkpt><trkpt lat="44.4177012" lon="7.8682097"><ele>352.0</ele><time>2026-05-03T15:22:35.215Z</time></trkpt><trkpt lat="44.41777" lon="7.8686256"><ele>365.0</ele><time>2026-05-03T15:22:36.215Z</time></trkpt><trkpt lat="44.417841" lon="7.8690348"><ele>378.0</ele><time>2026-05-03T15:22:37.213Z</time></trkpt><trkpt lat="44.4179172" lon="7.8694425"><ele>382.5</ele><time>2026-05-03T15:22:38.215Z</time></trkpt><trkpt lat="44.418003" lon="7.8698388"><ele>387.0</ele><time>2026-05-03T15:22:39.215Z</time></trkpt><trkpt lat="44.4181158" lon="7.8702215"><ele>389.5</ele><time>2026-05-03T15:22:40.216Z</time></trkpt><trkpt lat="44.4182564" lon="7.8705972"><ele>392.0</ele><time>2026-05-03T15:22:41.215Z</time></trkpt><trkpt lat="44.4184165" lon="7.8709636"><ele>397.0</ele><time>2026-05-03T15:22:42.215Z</time></trkpt><trkpt lat="44.4185917" lon="7.8713189"><ele>402.0</ele><time>2026-05-03T15:22:43.216Z</time></trkpt><trkpt lat="44.4187729" lon="7.8716761"><ele>401.0</ele><time>2026-05-03T15:22:44.216Z</time></trkpt><trkpt lat="44.4189487" lon="7.8720348"><ele>400.0</ele><time>2026-05-03T15:22:45.215Z</time></trkpt><trkpt lat="44.419125" lon="7.8723936"><ele>406.5</ele><time>2026-05-03T15:22:46.216Z</time></trkpt><trkpt lat="44.4192927" lon="7.8727476"><ele>413.0</ele><time>2026-05-03T15:22:47.216Z</time></trkpt><trkpt lat="44.4194652" lon="7.8730984"><ele>411.5</ele><time>2026-05-03T15:22:48.215Z</time></trkpt><trkpt lat="44.4196379" lon="7.8734501"><ele>410.0</ele><time>2026-05-03T15:22:49.215Z</time></trkpt><trkpt lat="44.4198081" lon="7.8738028"><ele>410.0</ele><time>2026-05-03T15:22:50.215Z</time></trkpt><trkpt lat="44.4199764" lon="7.8741518"><ele>410.0</ele><time>2026-05-03T15:22:51.216Z</time></trkpt><trkpt lat="44.4201445" lon="7.8745043"><ele>418.5</ele><time>2026-05-03T15:22:52.215Z</time></trkpt><trkpt lat="44.4203091" lon="7.8748577"><ele>427.0</ele><time>2026-05-03T15:22:53.215Z</time></trkpt><trkpt lat="44.4228755" lon="7.8801656"><ele>424.0</ele><time>2026-05-03T15:23:08.215Z</time></trkpt><trkpt lat="44.4230254" lon="7.8805082"><ele>421.0</ele><time>2026-05-03T15:23:09.215Z</time></trkpt><trkpt lat="44.4231732" lon="7.8808464"><ele>422.5</ele><time>2026-05-03T15:23:10.215Z</time></trkpt><trkpt lat="44.4233009" lon="7.8811924"><ele>424.0</ele><time>2026-05-03T15:23:11.216Z</time></trkpt><trkpt lat="44.4234077" lon="7.8815485"><ele>424.5</ele><time>2026-05-03T15:23:12.216Z</time></trkpt><trkpt lat="44.4235" lon="7.8819234"><ele>425.0</ele><time>2026-05-03T15:23:13.216Z</time></trkpt><trkpt lat="44.42357" lon="7.8823113"><ele>424.5</ele><time>2026-05-03T15:23:14.215Z</time></trkpt><trkpt lat="44.4236196" lon="7.8827104"><ele>424.0</ele><time>2026-05-03T15:23:15.215Z</time></trkpt><trkpt lat="44.4236494" lon="7.8831177"><ele>424.0</ele><time>2026-05-03T15:23:16.216Z</time></trkpt><trkpt lat="44.4236654" lon="7.8835336"><ele>424.0</ele><time>2026-05-03T15:23:17.215Z</time></trkpt><trkpt lat="44.4236682" lon="7.8839456"><ele>423.0</ele><time>2026-05-03T15:23:18.216Z</time></trkpt><trkpt lat="44.4236407" lon="7.8843666"><ele>422.0</ele><time>2026-05-03T15:23:19.215Z</time></trkpt><trkpt lat="44.4235866" lon="7.8847709"><ele>420.0</ele><time>2026-05-03T15:23:20.215Z</time></trkpt><trkpt lat="44.4235014" lon="7.8851672"><ele>418.0</ele><time>2026-05-03T15:23:21.215Z</time></trkpt><trkpt lat="44.423387" lon="7.8855643"><ele>417.0</ele><time>2026-05-03T15:23:22.215Z</time></trkpt><trkpt lat="44.4232609" lon="7.8859433"><ele>416.0</ele><time>2026-05-03T15:23:23.216Z</time></trkpt><trkpt lat="44.4231121" lon="7.8863108"><ele>417.5</ele><time>2026-05-03T15:23:24.215Z</time></trkpt><trkpt lat="44.4229353" lon="7.8866516"><ele>419.0</ele><time>2026-05-03T15:23:25.216Z</time></trkpt><trkpt lat="44.4227398" lon="7.886994"><ele>419.0</ele><time>2026-05-03T15:23:26.215Z</time></trkpt><trkpt lat="44.4225352" lon="7.8873205"><ele>419.0</ele><time>2026-05-03T15:23:27.216Z</time></trkpt><trkpt lat="44.4223215" lon="7.8876425"><ele>420.5</ele><time>2026-05-03T15:23:28.215Z</time></trkpt><trkpt lat="44.4220916" lon="7.8879498"><ele>422.0</ele><time>2026-05-03T15:23:29.215Z</time></trkpt><trkpt lat="44.4218528" lon="7.8882486"><ele>419.5</ele><time>2026-05-03T15:23:30.215Z</time></trkpt><trkpt lat="44.4215989" lon="7.8885371"><ele>417.0</ele><time>2026-05-03T15:23:31.215Z</time></trkpt><trkpt lat="44.4213484" lon="7.8888199"><ele>417.0</ele><time>2026-05-03T15:23:32.216Z</time></trkpt><trkpt lat="44.4211039" lon="7.8890931"><ele>417.0</ele><time>2026-05-03T15:23:33.215Z</time></trkpt><trkpt lat="44.4208579" lon="7.8893686"><ele>417.0</ele><time>2026-05-03T15:23:34.215Z</time></trkpt><trkpt lat="44.4206093" lon="7.8896412"><ele>417.0</ele><time>2026-05-03T15:23:35.215Z</time></trkpt><trkpt lat="44.4203616" lon="7.889925"><ele>412.0</ele><time>2026-05-03T15:23:36.215Z</time></trkpt><trkpt lat="44.4201163" lon="7.8902005"><ele>407.0</ele><time>2026-05-03T15:23:37.215Z</time></trkpt><trkpt lat="44.4198699" lon="7.8904819"><ele>406.5</ele><time>2026-05-03T15:23:38.215Z</time></trkpt><trkpt lat="44.4196225" lon="7.8907549"><ele>406.0</ele><time>2026-05-03T15:23:39.215Z</time></trkpt><trkpt lat="44.4193772" lon="7.8910343"><ele>406.0</ele><time>2026-05-03T15:23:40.216Z</time></trkpt><trkpt lat="44.4191316" lon="7.8913136"><ele>406.0</ele><time>2026-05-03T15:23:41.215Z</time></trkpt><trkpt lat="44.4188916" lon="7.8915934"><ele>410.5</ele><time>2026-05-03T15:23:42.216Z</time></trkpt><trkpt lat="44.4186558" lon="7.891874"><ele>415.0</ele><time>2026-05-03T15:23:43.216Z</time></trkpt><trkpt lat="44.4184319" lon="7.892167"><ele>415.0</ele><time>2026-05-03T15:23:44.215Z</time></trkpt><trkpt lat="44.4182141" lon="7.8924652"><ele>415.0</ele><time>2026-05-03T15:23:45.215Z</time></trkpt><trkpt lat="44.4179986" lon="7.8927724"><ele>415.5</ele><time>2026-05-03T15:23:46.215Z</time></trkpt><trkpt lat="44.4177924" lon="7.8930995"><ele>416.0</ele><time>2026-05-03T15:23:47.215Z</time></trkpt><trkpt lat="44.4175962" lon="7.8934294"><ele>416.0</ele><time>2026-05-03T15:23:48.215Z</time></trkpt><trkpt lat="44.4174068" lon="7.893765"><ele>416.0</ele><time>2026-05-03T15:23:49.215Z</time></trkpt><trkpt lat="44.4172238" lon="7.8941133"><ele>419.5</ele><time>2026-05-03T15:23:50.216Z</time></trkpt><trkpt lat="44.4170488" lon="7.8944767"><ele>423.0</ele><time>2026-05-03T15:23:51.216Z</time></trkpt><trkpt lat="44.4168826" lon="7.8948391"><ele>420.0</ele><time>2026-05-03T15:23:52.216Z</time></trkpt><trkpt lat="44.4167266" lon="7.8952073"><ele>417.0</ele><time>2026-05-03T15:23:53.215Z</time></trkpt><trkpt lat="44.4165733" lon="7.8955823"><ele>416.5</ele><time>2026-05-03T15:23:54.215Z</time></trkpt><trkpt lat="44.4164219" lon="7.8959448"><ele>416.0</ele><time>2026-05-03T15:23:55.215Z</time></trkpt><trkpt lat="44.4162718" lon="7.8962933"><ele>417.5</ele><time>2026-05-03T15:23:56.215Z</time></trkpt><trkpt lat="44.4161231" lon="7.8966284"><ele>419.0</ele><time>2026-05-03T15:23:57.216Z</time></trkpt><trkpt lat="44.4159756" lon="7.896965"><ele>419.0</ele><time>2026-05-03T15:23:58.215Z</time></trkpt><trkpt lat="44.4158341" lon="7.8972938"><ele>419.0</ele><time>2026-05-03T15:23:59.215Z</time></trkpt><trkpt lat="44.4156909" lon="7.8976317"><ele>419.5</ele><time>2026-05-03T15:24:00.215Z</time></trkpt><trkpt lat="44.4155485" lon="7.8979633"><ele>420.0</ele><time>2026-05-03T15:24:01.215Z</time></trkpt><trkpt lat="44.4154043" lon="7.8982978"><ele>413.0</ele><time>2026-05-03T15:24:02.215Z</time></trkpt><trkpt lat="44.415262" lon="7.8986357"><ele>406.0</ele><time>2026-05-03T15:24:03.215Z</time></trkpt><trkpt lat="44.4151224" lon="7.8989773"><ele>395.0</ele><time>2026-05-03T15:24:04.215Z</time></trkpt><trkpt lat="44.4149875" lon="7.8993075"><ele>384.0</ele><time>2026-05-03T15:24:05.216Z</time></trkpt><trkpt lat="44.4148497" lon="7.8996355"><ele>384.0</ele><time>2026-05-03T15:24:06.215Z</time></trkpt><trkpt lat="44.4147109" lon="7.8999725"><ele>384.0</ele><time>2026-05-03T15:24:07.215Z</time></trkpt><trkpt lat="44.4145728" lon="7.9003094"><ele>397.0</ele><time>2026-05-03T15:24:08.215Z</time></trkpt><trkpt lat="44.4144295" lon="7.9006399"><ele>410.0</ele><time>2026-05-03T15:24:09.216Z</time></trkpt><trkpt lat="44.4142884" lon="7.900982"><ele>412.5</ele><time>2026-05-03T15:24:10.215Z</time></trkpt><trkpt lat="44.4141587" lon="7.901332"><ele>415.0</ele><time>2026-05-03T15:24:11.215Z</time></trkpt><trkpt lat="44.4140548" lon="7.9016916"><ele>417.0</ele><time>2026-05-03T15:24:12.215Z</time></trkpt><trkpt lat="44.413965" lon="7.902058"><ele>419.0</ele><time>2026-05-03T15:24:13.216Z</time></trkpt><trkpt lat="44.4138953" lon="7.9024194"><ele>420.5</ele><time>2026-05-03T15:24:14.215Z</time></trkpt><trkpt lat="44.4138424" lon="7.9027924"><ele>422.0</ele><time>2026-05-03T15:24:15.215Z</time></trkpt><trkpt lat="44.4138043" lon="7.9031859"><ele>430.0</ele><time>2026-05-03T15:24:16.215Z</time></trkpt><trkpt lat="44.4137849" lon="7.9035723"><ele>438.0</ele><time>2026-05-03T15:24:17.215Z</time></trkpt><trkpt lat="44.4137619" lon="7.9039616"><ele>437.0</ele><time>2026-05-03T15:24:18.216Z</time></trkpt><trkpt lat="44.4137404" lon="7.904359"><ele>436.0</ele><time>2026-05-03T15:24:19.215Z</time></trkpt><trkpt lat="44.4137205" lon="7.904755"><ele>435.5</ele><time>2026-05-03T15:24:20.215Z</time></trkpt><trkpt lat="44.4136906" lon="7.9051449"><ele>435.0</ele><time>2026-05-03T15:24:21.216Z</time></trkpt><trkpt lat="44.413658" lon="7.9055361"><ele>431.0</ele><time>2026-05-03T15:24:22.216Z</time></trkpt><trkpt lat="44.4136054" lon="7.9059201"><ele>427.0</ele><time>2026-05-03T15:24:23.215Z</time></trkpt><trkpt lat="44.4135293" lon="7.9063045"><ele>427.0</ele><time>2026-05-03T15:24:24.216Z</time></trkpt><trkpt lat="44.4134319" lon="7.9066832"><ele>427.0</ele><time>2026-05-03T15:24:25.215Z</time></trkpt><trkpt lat="44.4133245" lon="7.9070596"><ele>424.0</ele><time>2026-05-03T15:24:26.216Z</time></trkpt><trkpt lat="44.4131944" lon="7.9074264"><ele>421.0</ele><time>2026-05-03T15:24:27.215Z</time></trkpt><trkpt lat="44.4130408" lon="7.9077817"><ele>421.5</ele><time>2026-05-03T15:24:28.215Z</time></trkpt><trkpt lat="44.4128753" lon="7.9081262"><ele>422.0</ele><time>2026-05-03T15:24:29.215Z</time></trkpt><trkpt lat="44.4126923" lon="7.9084526"><ele>422.0</ele><time>2026-05-03T15:24:30.215Z</time></trkpt><trkpt lat="44.4124995" lon="7.9087732"><ele>422.0</ele><time>2026-05-03T15:24:31.216Z</time></trkpt><trkpt lat="44.4123049" lon="7.9090979"><ele>421.0</ele><time>2026-05-03T15:24:32.216Z</time></trkpt><trkpt lat="44.4121058" lon="7.9094161"><ele>420.0</ele><time>2026-05-03T15:24:33.215Z</time></trkpt><trkpt lat="44.4119121" lon="7.9097425"><ele>420.0</ele><time>2026-05-03T15:24:34.216Z</time></trkpt><trkpt lat="44.4117187" lon="7.9100725"><ele>420.0</ele><time>2026-05-03T15:24:35.215Z</time></trkpt><trkpt lat="44.4115269" lon="7.9104"><ele>416.5</ele><time>2026-05-03T15:24:36.216Z</time></trkpt><trkpt lat="44.4113358" lon="7.9107324"><ele>413.0</ele><time>2026-05-03T15:24:37.215Z</time></trkpt><trkpt lat="44.4111475" lon="7.9110513"><ele>411.0</ele><time>2026-05-03T15:24:38.215Z</time></trkpt><trkpt lat="44.4109604" lon="7.911371"><ele>409.0</ele><time>2026-05-03T15:24:39.216Z</time></trkpt><trkpt lat="44.4107761" lon="7.9116971"><ele>406.5</ele><time>2026-05-03T15:24:40.216Z</time></trkpt><trkpt lat="44.410587" lon="7.9120221"><ele>404.0</ele><time>2026-05-03T15:24:41.215Z</time></trkpt><trkpt lat="44.4103956" lon="7.9123393"><ele>401.5</ele><time>2026-05-03T15:24:42.215Z</time></trkpt><trkpt lat="44.4102086" lon="7.9126641"><ele>399.0</ele><time>2026-05-03T15:24:43.215Z</time></trkpt><trkpt lat="44.4100208" lon="7.9129869"><ele>399.0</ele><time>2026-05-03T15:24:44.215Z</time></trkpt><trkpt lat="44.4098295" lon="7.913311"><ele>399.0</ele><time>2026-05-03T15:24:45.216Z</time></trkpt><trkpt lat="44.4096393" lon="7.9136366"><ele>397.5</ele><time>2026-05-03T15:24:46.216Z</time></trkpt><trkpt lat="44.4094544" lon="7.9139675"><ele>396.0</ele><time>2026-05-03T15:24:47.215Z</time></trkpt><trkpt lat="44.4092676" lon="7.9143007"><ele>403.5</ele><time>2026-05-03T15:24:48.215Z</time></trkpt><trkpt lat="44.4090764" lon="7.9146277"><ele>411.0</ele><time>2026-05-03T15:24:49.215Z</time></trkpt><trkpt lat="44.4088825" lon="7.9149623"><ele>415.5</ele><time>2026-05-03T15:24:50.215Z</time></trkpt><trkpt lat="44.4086913" lon="7.9152937"><ele>420.0</ele><time>2026-05-03T15:24:51.215Z</time></trkpt><trkpt lat="44.408502" lon="7.9156227"><ele>418.5</ele><time>2026-05-03T15:24:52.216Z</time></trkpt><trkpt lat="44.4083175" lon="7.9159487"><ele>417.0</ele><time>2026-05-03T15:24:53.215Z</time></trkpt><trkpt lat="44.4081356" lon="7.9162831"><ele>418.5</ele><time>2026-05-03T15:24:54.215Z</time></trkpt><trkpt lat="44.4079597" lon="7.9166207"><ele>420.0</ele><time>2026-05-03T15:24:55.216Z</time></trkpt><trkpt lat="44.407783" lon="7.9169639"><ele>420.0</ele><time>2026-05-03T15:24:56.215Z</time></trkpt><trkpt lat="44.4076067" lon="7.9173043"><ele>420.0</ele><time>2026-05-03T15:24:57.216Z</time></trkpt><trkpt lat="44.4074274" lon="7.9176492"><ele>417.0</ele><time>2026-05-03T15:24:58.216Z</time></trkpt><trkpt lat="44.4072441" lon="7.9179906"><ele>414.0</ele><time>2026-05-03T15:24:59.216Z</time></trkpt><trkpt lat="44.4070568" lon="7.9183322"><ele>417.0</ele><time>2026-05-03T15:25:00.216Z</time></trkpt><trkpt lat="44.4068614" lon="7.9186712"><ele>420.0</ele><time>2026-05-03T15:25:01.216Z</time></trkpt><trkpt lat="44.4066687" lon="7.9190173"><ele>419.0</ele><time>2026-05-03T15:25:02.215Z</time></trkpt><trkpt lat="44.4064764" lon="7.9193563"><ele>418.0</ele><time>2026-05-03T15:25:03.215Z</time></trkpt><trkpt lat="44.4062832" lon="7.9196965"><ele>418.5</ele><time>2026-05-03T15:25:04.215Z</time></trkpt><trkpt lat="44.4060912" lon="7.9200357"><ele>419.0</ele><time>2026-05-03T15:25:05.216Z</time></trkpt><trkpt lat="44.4059" lon="7.920375"><ele>419.0</ele><time>2026-05-03T15:25:06.215Z</time></trkpt><trkpt lat="44.4057097" lon="7.9207121"><ele>419.0</ele><time>2026-05-03T15:25:07.215Z</time></trkpt><trkpt lat="44.4055188" lon="7.9210527"><ele>421.0</ele><time>2026-05-03T15:25:08.216Z</time></trkpt><trkpt lat="44.4053255" lon="7.9213813"><ele>423.0</ele><time>2026-05-03T15:25:09.216Z</time></trkpt><trkpt lat="44.4051367" lon="7.9217134"><ele>420.0</ele><time>2026-05-03T15:25:10.216Z</time></trkpt><trkpt lat="44.4049523" lon="7.9220471"><ele>417.0</ele><time>2026-05-03T15:25:11.215Z</time></trkpt><trkpt lat="44.4047753" lon="7.9223937"><ele>419.0</ele><time>2026-05-03T15:25:12.215Z</time></trkpt><trkpt lat="44.4046093" lon="7.9227512"><ele>421.0</ele><time>2026-05-03T15:25:13.215Z</time></trkpt><trkpt lat="44.4044574" lon="7.9231244"><ele>419.5</ele><time>2026-05-03T15:25:14.215Z</time></trkpt><trkpt lat="44.4043125" lon="7.9235003"><ele>418.0</ele><time>2026-05-03T15:25:15.215Z</time></trkpt><trkpt lat="44.4041781" lon="7.9238925"><ele>417.5</ele><time>2026-05-03T15:25:16.216Z</time></trkpt><trkpt lat="44.4040474" lon="7.9242905"><ele>417.0</ele><time>2026-05-03T15:25:17.216Z</time></trkpt><trkpt lat="44.4039281" lon="7.9246905"><ele>420.0</ele><time>2026-05-03T15:25:18.216Z</time></trkpt><trkpt lat="44.4038252" lon="7.9250902"><ele>423.0</ele><time>2026-05-03T15:25:19.216Z</time></trkpt><trkpt lat="44.40373" lon="7.9254955"><ele>422.5</ele><time>2026-05-03T15:25:20.215Z</time></trkpt><trkpt lat="44.4036498" lon="7.925912"><ele>422.0</ele><time>2026-05-03T15:25:21.215Z</time></trkpt><trkpt lat="44.4035756" lon="7.9263342"><ele>424.0</ele><time>2026-05-03T15:25:22.215Z</time></trkpt><trkpt lat="44.4035142" lon="7.9267572"><ele>426.0</ele><time>2026-05-03T15:25:23.215Z</time></trkpt><trkpt lat="44.4034646" lon="7.9271809"><ele>427.5</ele><time>2026-05-03T15:25:24.216Z</time></trkpt><trkpt lat="44.4034278" lon="7.9276039"><ele>429.0</ele><time>2026-05-03T15:25:25.216Z</time></trkpt><trkpt lat="44.4034031" lon="7.9280281"><ele>428.5</ele><time>2026-05-03T15:25:26.216Z</time></trkpt><trkpt lat="44.4033951" lon="7.9284554"><ele>428.0</ele><time>2026-05-03T15:25:27.215Z</time></trkpt><trkpt lat="44.4033919" lon="7.9288814"><ele>429.0</ele><time>2026-05-03T15:25:28.215Z</time></trkpt><trkpt lat="44.4034003" lon="7.9293123"><ele>430.0</ele><time>2026-05-03T15:25:29.215Z</time></trkpt><trkpt lat="44.403417" lon="7.9297437"><ele>431.0</ele><time>2026-05-03T15:25:30.216Z</time></trkpt><trkpt lat="44.4034462" lon="7.9301769"><ele>432.0</ele><time>2026-05-03T15:25:31.216Z</time></trkpt><trkpt lat="44.4034899" lon="7.9306094"><ele>431.0</ele><time>2026-05-03T15:25:32.216Z</time></trkpt><trkpt lat="44.4035541" lon="7.9310419"><ele>430.0</ele><time>2026-05-03T15:25:33.216Z</time></trkpt><trkpt lat="44.4036246" lon="7.9314706"><ele>428.0</ele><time>2026-05-03T15:25:34.215Z</time></trkpt><trkpt lat="44.4037052" lon="7.9318906"><ele>426.0</ele><time>2026-05-03T15:25:35.215Z</time></trkpt><trkpt lat="44.403798" lon="7.9323069"><ele>424.0</ele><time>2026-05-03T15:25:36.215Z</time></trkpt><trkpt lat="44.4039056" lon="7.932724"><ele>422.0</ele><time>2026-05-03T15:25:37.215Z</time></trkpt><trkpt lat="44.4040224" lon="7.9331295"><ele>423.0</ele><time>2026-05-03T15:25:38.216Z</time></trkpt><trkpt lat="44.4041493" lon="7.933534"><ele>424.0</ele><time>2026-05-03T15:25:39.215Z</time></trkpt><trkpt lat="44.4042663" lon="7.9339479"><ele>423.5</ele><time>2026-05-03T15:25:40.215Z</time></trkpt><trkpt lat="44.4043901" lon="7.9343598"><ele>423.0</ele><time>2026-05-03T15:25:41.215Z</time></trkpt><trkpt lat="44.4045111" lon="7.9347673"><ele>423.0</ele><time>2026-05-03T15:25:42.216Z</time></trkpt><trkpt lat="44.4046357" lon="7.9351704"><ele>423.0</ele><time>2026-05-03T15:25:43.215Z</time></trkpt><trkpt lat="44.4047587" lon="7.9355698"><ele>422.5</ele><time>2026-05-03T15:25:44.216Z</time></trkpt><trkpt lat="44.4048785" lon="7.935969"><ele>422.0</ele><time>2026-05-03T15:25:45.215Z</time></trkpt><trkpt lat="44.4050026" lon="7.936367"><ele>421.0</ele><time>2026-05-03T15:25:46.215Z</time></trkpt><trkpt lat="44.4051252" lon="7.9367676"><ele>420.0</ele><time>2026-05-03T15:25:47.215Z</time></trkpt><trkpt lat="44.4052471" lon="7.9371703"><ele>419.5</ele><time>2026-05-03T15:25:48.215Z</time></trkpt><trkpt lat="44.4053695" lon="7.9375779"><ele>419.0</ele><time>2026-05-03T15:25:49.215Z</time></trkpt><trkpt lat="44.4054951" lon="7.9379886"><ele>419.0</ele><time>2026-05-03T15:25:50.215Z</time></trkpt><trkpt lat="44.4056189" lon="7.9383997"><ele>419.0</ele><time>2026-05-03T15:25:51.216Z</time></trkpt><trkpt lat="44.4057422" lon="7.9388068"><ele>419.0</ele><time>2026-05-03T15:25:52.215Z</time></trkpt><trkpt lat="44.405868" lon="7.9392145"><ele>419.0</ele><time>2026-05-03T15:25:53.215Z</time></trkpt><trkpt lat="44.4059937" lon="7.9396196"><ele>419.0</ele><time>2026-05-03T15:25:54.216Z</time></trkpt><trkpt lat="44.4061136" lon="7.9400242"><ele>419.0</ele><time>2026-05-03T15:25:55.215Z</time></trkpt><trkpt lat="44.4062341" lon="7.9404297"><ele>419.0</ele><time>2026-05-03T15:25:56.215Z</time></trkpt><trkpt lat="44.4063559" lon="7.9408303"><ele>419.0</ele><time>2026-05-03T15:25:57.215Z</time></trkpt><trkpt lat="44.4064807" lon="7.9412374"><ele>419.0</ele><time>2026-05-03T15:25:58.215Z</time></trkpt><trkpt lat="44.4066082" lon="7.9416406"><ele>419.0</ele><time>2026-05-03T15:25:59.215Z</time></trkpt><trkpt lat="44.4067384" lon="7.9420449"><ele>419.0</ele><time>2026-05-03T15:26:00.215Z</time></trkpt><trkpt lat="44.4068705" lon="7.9424473"><ele>419.0</ele><time>2026-05-03T15:26:01.215Z</time></trkpt><trkpt lat="44.4069986" lon="7.9428479"><ele>419.0</ele><time>2026-05-03T15:26:02.215Z</time></trkpt><trkpt lat="44.4071243" lon="7.943256"><ele>419.0</ele><time>2026-05-03T15:26:03.216Z</time></trkpt><trkpt lat="44.4072502" lon="7.9436606"><ele>417.0</ele><time>2026-05-03T15:26:04.215Z</time></trkpt><trkpt lat="44.4073801" lon="7.9440657"><ele>415.0</ele><time>2026-05-03T15:26:05.215Z</time></trkpt><trkpt lat="44.4075096" lon="7.9444727"><ele>414.5</ele><time>2026-05-03T15:26:06.215Z</time></trkpt><trkpt lat="44.407637" lon="7.9448754"><ele>414.0</ele><time>2026-05-03T15:26:07.215Z</time></trkpt><trkpt lat="44.407763" lon="7.9452846"><ele>413.0</ele><time>2026-05-03T15:26:08.215Z</time></trkpt><trkpt lat="44.4078895" lon="7.9456857"><ele>412.0</ele><time>2026-05-03T15:26:09.215Z</time></trkpt><trkpt lat="44.4080093" lon="7.9460887"><ele>409.0</ele><time>2026-05-03T15:26:10.215Z</time></trkpt><trkpt lat="44.408131" lon="7.9464962"><ele>406.0</ele><time>2026-05-03T15:26:11.216Z</time></trkpt><trkpt lat="44.4082502" lon="7.946897"><ele>405.0</ele><time>2026-05-03T15:26:12.216Z</time></trkpt><trkpt lat="44.4083733" lon="7.9473019"><ele>404.0</ele><time>2026-05-03T15:26:13.216Z</time></trkpt><trkpt lat="44.4084975" lon="7.9477042"><ele>400.5</ele><time>2026-05-03T15:26:14.215Z</time></trkpt><trkpt lat="44.4086174" lon="7.9481067"><ele>397.0</ele><time>2026-05-03T15:26:15.215Z</time></trkpt><trkpt lat="44.4087408" lon="7.9485083"><ele>397.0</ele><time>2026-05-03T15:26:16.215Z</time></trkpt><trkpt lat="44.4088645" lon="7.9489114"><ele>397.0</ele><time>2026-05-03T15:26:17.215Z</time></trkpt><trkpt lat="44.4089882" lon="7.9493126"><ele>397.0</ele><time>2026-05-03T15:26:18.215Z</time></trkpt><trkpt lat="44.409112" lon="7.9497195"><ele>397.0</ele><time>2026-05-03T15:26:19.215Z</time></trkpt><trkpt lat="44.4092347" lon="7.9501238"><ele>393.0</ele><time>2026-05-03T15:26:20.215Z</time></trkpt><trkpt lat="44.4093605" lon="7.9505237"><ele>389.0</ele><time>2026-05-03T15:26:21.215Z</time></trkpt><trkpt lat="44.4094848" lon="7.9509163"><ele>390.0</ele><time>2026-05-03T15:26:22.216Z</time></trkpt><trkpt lat="44.4096058" lon="7.9513076"><ele>391.0</ele><time>2026-05-03T15:26:23.215Z</time></trkpt><trkpt lat="44.4097263" lon="7.9516994"><ele>390.5</ele><time>2026-05-03T15:26:24.216Z</time></trkpt><trkpt lat="44.4098448" lon="7.9520997"><ele>390.0</ele><time>2026-05-03T15:26:25.215Z</time></trkpt><trkpt lat="44.4099651" lon="7.9525004"><ele>389.0</ele><time>2026-05-03T15:26:26.215Z</time></trkpt><trkpt lat="44.4100883" lon="7.9529042"><ele>388.0</ele><time>2026-05-03T15:26:27.215Z</time></trkpt><trkpt lat="44.4102117" lon="7.9533084"><ele>382.0</ele><time>2026-05-03T15:26:28.215Z</time></trkpt><trkpt lat="44.4103358" lon="7.95371"><ele>376.0</ele><time>2026-05-03T15:26:29.215Z</time></trkpt><trkpt lat="44.4104615" lon="7.9541098"><ele>361.0</ele><time>2026-05-03T15:26:30.215Z</time></trkpt><trkpt lat="44.4105892" lon="7.9545077"><ele>346.0</ele><time>2026-05-03T15:26:31.215Z</time></trkpt><trkpt lat="44.4107153" lon="7.9549114"><ele>347.0</ele><time>2026-05-03T15:26:32.215Z</time></trkpt><trkpt lat="44.4108393" lon="7.955314"><ele>348.0</ele><time>2026-05-03T15:26:33.215Z</time></trkpt><trkpt lat="44.4109603" lon="7.9557194"><ele>350.5</ele><time>2026-05-03T15:26:34.215Z</time></trkpt><trkpt lat="44.4110782" lon="7.9561217"><ele>353.0</ele><time>2026-05-03T15:26:35.215Z</time></trkpt><trkpt lat="44.4111952" lon="7.9565226"><ele>353.5</ele><time>2026-05-03T15:26:36.215Z</time></trkpt><trkpt lat="44.4113056" lon="7.9569243"><ele>354.0</ele><time>2026-05-03T15:26:37.216Z</time></trkpt><trkpt lat="44.411403" lon="7.9573348"><ele>368.0</ele><time>2026-05-03T15:26:38.215Z</time></trkpt><trkpt lat="44.4114799" lon="7.9577407"><ele>382.0</ele><time>2026-05-03T15:26:39.215Z</time></trkpt><trkpt lat="44.4115445" lon="7.9581483"><ele>384.0</ele><time>2026-05-03T15:26:40.216Z</time></trkpt><trkpt lat="44.411592" lon="7.9585622"><ele>386.0</ele><time>2026-05-03T15:26:41.216Z</time></trkpt><trkpt lat="44.4116283" lon="7.9589764"><ele>386.5</ele><time>2026-05-03T15:26:42.215Z</time></trkpt><trkpt lat="44.4116517" lon="7.9593887"><ele>387.0</ele><time>2026-05-03T15:26:43.215Z</time></trkpt><trkpt lat="44.411665" lon="7.9598009"><ele>386.0</ele><time>2026-05-03T15:26:44.215Z</time></trkpt><trkpt lat="44.4116647" lon="7.9602141"><ele>385.0</ele><time>2026-05-03T15:26:45.216Z</time></trkpt><trkpt lat="44.4116548" lon="7.9606272"><ele>381.0</ele><time>2026-05-03T15:26:46.216Z</time></trkpt><trkpt lat="44.4116339" lon="7.9610392"><ele>377.0</ele><time>2026-05-03T15:26:47.215Z</time></trkpt><trkpt lat="44.4116018" lon="7.9614465"><ele>374.0</ele><time>2026-05-03T15:26:48.216Z</time></trkpt><trkpt lat="44.4115548" lon="7.9618489"><ele>371.0</ele><time>2026-05-03T15:26:49.215Z</time></trkpt><trkpt lat="44.4114938" lon="7.9622562"><ele>371.0</ele><time>2026-05-03T15:26:50.216Z</time></trkpt><trkpt lat="44.4114161" lon="7.9626778"><ele>371.0</ele><time>2026-05-03T15:26:51.216Z</time></trkpt><trkpt lat="44.4113231" lon="7.9631056"><ele>377.5</ele><time>2026-05-03T15:26:52.215Z</time></trkpt><trkpt lat="44.411217" lon="7.9635386"><ele>384.0</ele><time>2026-05-03T15:26:53.216Z</time></trkpt><trkpt lat="44.4110946" lon="7.9639632"><ele>389.0</ele><time>2026-05-03T15:26:54.216Z</time></trkpt><trkpt lat="44.4109586" lon="7.9643843"><ele>394.0</ele><time>2026-05-03T15:26:55.215Z</time></trkpt><trkpt lat="44.4108082" lon="7.9647978"><ele>395.5</ele><time>2026-05-03T15:26:56.215Z</time></trkpt><trkpt lat="44.4106452" lon="7.9651968"><ele>397.0</ele><time>2026-05-03T15:26:57.215Z</time></trkpt><trkpt lat="44.4104678" lon="7.9655829"><ele>397.5</ele><time>2026-05-03T15:26:58.215Z</time></trkpt><trkpt lat="44.4102757" lon="7.9659441"><ele>398.0</ele><time>2026-05-03T15:26:59.215Z</time></trkpt><trkpt lat="44.4100738" lon="7.9662919"><ele>398.0</ele><time>2026-05-03T15:27:00.216Z</time></trkpt><trkpt lat="44.4098638" lon="7.9666221"><ele>398.0</ele><time>2026-05-03T15:27:01.215Z</time></trkpt><trkpt lat="44.4096485" lon="7.9669368"><ele>398.5</ele><time>2026-05-03T15:27:02.215Z</time></trkpt><trkpt lat="44.4094212" lon="7.967231"><ele>399.0</ele><time>2026-05-03T15:27:03.215Z</time></trkpt><trkpt lat="44.4091924" lon="7.9675196"><ele>399.5</ele><time>2026-05-03T15:27:04.216Z</time></trkpt><trkpt lat="44.4089578" lon="7.9678003"><ele>400.0</ele><time>2026-05-03T15:27:05.215Z</time></trkpt><trkpt lat="44.4087157" lon="7.9680596"><ele>399.5</ele><time>2026-05-03T15:27:06.216Z</time></trkpt><trkpt lat="44.408461" lon="7.9683045"><ele>399.0</ele><time>2026-05-03T15:27:07.215Z</time></trkpt><trkpt lat="44.4082003" lon="7.9685392"><ele>400.0</ele><time>2026-05-03T15:27:08.216Z</time></trkpt><trkpt lat="44.4079281" lon="7.9687631"><ele>401.0</ele><time>2026-05-03T15:27:09.216Z</time></trkpt><trkpt lat="44.4076544" lon="7.9689774"><ele>401.0</ele><time>2026-05-03T15:27:10.215Z</time></trkpt><trkpt lat="44.4073786" lon="7.9691931"><ele>401.0</ele><time>2026-05-03T15:27:11.216Z</time></trkpt><trkpt lat="44.4071058" lon="7.9694071"><ele>403.5</ele><time>2026-05-03T15:27:12.215Z</time></trkpt><trkpt lat="44.4068383" lon="7.9696209"><ele>406.0</ele><time>2026-05-03T15:27:13.215Z</time></trkpt><trkpt lat="44.406572" lon="7.9698428"><ele>406.5</ele><time>2026-05-03T15:27:14.215Z</time></trkpt><trkpt lat="44.4063034" lon="7.9700651"><ele>407.0</ele><time>2026-05-03T15:27:15.215Z</time></trkpt><trkpt lat="44.4060331" lon="7.9702879"><ele>407.0</ele><time>2026-05-03T15:27:16.216Z</time></trkpt><trkpt lat="44.4057597" lon="7.9705101"><ele>407.0</ele><time>2026-05-03T15:27:17.215Z</time></trkpt><trkpt lat="44.405489" lon="7.9707332"><ele>408.5</ele><time>2026-05-03T15:27:18.216Z</time></trkpt><trkpt lat="44.4052199" lon="7.9709528"><ele>410.0</ele><time>2026-05-03T15:27:19.216Z</time></trkpt><trkpt lat="44.4049521" lon="7.9711703"><ele>410.0</ele><time>2026-05-03T15:27:20.215Z</time></trkpt><trkpt lat="44.4046858" lon="7.9713857"><ele>410.0</ele><time>2026-05-03T15:27:21.215Z</time></trkpt><trkpt lat="44.4044166" lon="7.9716024"><ele>410.5</ele><time>2026-05-03T15:27:22.215Z</time></trkpt><trkpt lat="44.4041486" lon="7.9718176"><ele>411.0</ele><time>2026-05-03T15:27:23.215Z</time></trkpt><trkpt lat="44.4038797" lon="7.9720324"><ele>412.0</ele><time>2026-05-03T15:27:24.215Z</time></trkpt><trkpt lat="44.4036122" lon="7.9722425"><ele>413.0</ele><time>2026-05-03T15:27:25.215Z</time></trkpt><trkpt lat="44.4033457" lon="7.9724581"><ele>413.0</ele><time>2026-05-03T15:27:26.215Z</time></trkpt><trkpt lat="44.4030757" lon="7.97267"><ele>413.0</ele><time>2026-05-03T15:27:27.215Z</time></trkpt><trkpt lat="44.4028036" lon="7.9728809"><ele>414.0</ele><time>2026-05-03T15:27:28.216Z</time></trkpt><trkpt lat="44.4025341" lon="7.9730966"><ele>415.0</ele><time>2026-05-03T15:27:29.215Z</time></trkpt><trkpt lat="44.4022654" lon="7.9733104"><ele>415.5</ele><time>2026-05-03T15:27:30.215Z</time></trkpt><trkpt lat="44.4019963" lon="7.9735297"><ele>416.0</ele><time>2026-05-03T15:27:31.215Z</time></trkpt><trkpt lat="44.4017239" lon="7.9737458"><ele>416.0</ele><time>2026-05-03T15:27:32.215Z</time></trkpt><trkpt lat="44.4014529" lon="7.9739685"><ele>416.0</ele><time>2026-05-03T15:27:33.215Z</time></trkpt><trkpt lat="44.401182" lon="7.9741882"><ele>419.0</ele><time>2026-05-03T15:27:34.216Z</time></trkpt><trkpt lat="44.4009118" lon="7.9744067"><ele>422.0</ele><time>2026-05-03T15:27:35.215Z</time></trkpt><trkpt lat="44.4006419" lon="7.9746274"><ele>425.0</ele><time>2026-05-03T15:27:36.215Z</time></trkpt><trkpt lat="44.4003714" lon="7.9748498"><ele>428.0</ele><time>2026-05-03T15:27:37.215Z</time></trkpt><trkpt lat="44.4001003" lon="7.9750659"><ele>428.0</ele><time>2026-05-03T15:27:38.215Z</time></trkpt><trkpt lat="44.3998282" lon="7.9752818"><ele>428.0</ele><time>2026-05-03T15:27:39.215Z</time></trkpt><trkpt lat="44.3995593" lon="7.9754987"><ele>429.0</ele><time>2026-05-03T15:27:40.216Z</time></trkpt><trkpt lat="44.3992908" lon="7.9757129"><ele>430.0</ele><time>2026-05-03T15:27:41.215Z</time></trkpt><trkpt lat="44.3990259" lon="7.9759319"><ele>432.0</ele><time>2026-05-03T15:27:42.216Z</time></trkpt><trkpt lat="44.3987677" lon="7.9761687"><ele>434.0</ele><time>2026-05-03T15:27:43.215Z</time></trkpt><trkpt lat="44.3985208" lon="7.9764245"><ele>432.0</ele><time>2026-05-03T15:27:44.215Z</time></trkpt><trkpt lat="44.3982851" lon="7.976706"><ele>430.0</ele><time>2026-05-03T15:27:45.215Z</time></trkpt><trkpt lat="44.3980642" lon="7.9770137"><ele>431.0</ele><time>2026-05-03T15:27:46.215Z</time></trkpt><trkpt lat="44.397859" lon="7.9773385"><ele>432.0</ele><time>2026-05-03T15:27:47.215Z</time></trkpt><trkpt lat="44.3976748" lon="7.9776799"><ele>432.0</ele><time>2026-05-03T15:27:48.215Z</time></trkpt><trkpt lat="44.397506" lon="7.9780321"><ele>432.0</ele><time>2026-05-03T15:27:49.215Z</time></trkpt><trkpt lat="44.3973523" lon="7.9784037"><ele>432.0</ele><time>2026-05-03T15:27:50.215Z</time></trkpt><trkpt lat="44.3972114" lon="7.9787919"><ele>432.0</ele><time>2026-05-03T15:27:51.215Z</time></trkpt><trkpt lat="44.3970816" lon="7.9791903"><ele>434.0</ele><time>2026-05-03T15:27:52.216Z</time></trkpt><trkpt lat="44.396951" lon="7.9795883"><ele>436.0</ele><time>2026-05-03T15:27:53.215Z</time></trkpt><trkpt lat="44.3968202" lon="7.9799862"><ele>434.5</ele><time>2026-05-03T15:27:54.215Z</time></trkpt><trkpt lat="44.3966852" lon="7.9803857"><ele>433.0</ele><time>2026-05-03T15:27:55.216Z</time></trkpt><trkpt lat="44.396548" lon="7.9807863"><ele>434.0</ele><time>2026-05-03T15:27:56.216Z</time></trkpt><trkpt lat="44.396409" lon="7.9811956"><ele>435.0</ele><time>2026-05-03T15:27:57.227Z</time></trkpt><trkpt lat="44.3962727" lon="7.9816085"><ele>433.0</ele><time>2026-05-03T15:27:58.227Z</time></trkpt><trkpt lat="44.3961384" lon="7.9820231"><ele>431.0</ele><time>2026-05-03T15:27:59.227Z</time></trkpt><trkpt lat="44.3960025" lon="7.982434"><ele>429.5</ele><time>2026-05-03T15:28:00.227Z</time></trkpt><trkpt lat="44.3958667" lon="7.9828456"><ele>428.0</ele><time>2026-05-03T15:28:01.228Z</time></trkpt><trkpt lat="44.3957324" lon="7.9832528"><ele>427.0</ele><time>2026-05-03T15:28:02.227Z</time></trkpt><trkpt lat="44.3956016" lon="7.9836583"><ele>426.0</ele><time>2026-05-03T15:28:03.227Z</time></trkpt><trkpt lat="44.3954705" lon="7.9840591"><ele>429.0</ele><time>2026-05-03T15:28:04.228Z</time></trkpt><trkpt lat="44.3953386" lon="7.9844586"><ele>432.0</ele><time>2026-05-03T15:28:05.227Z</time></trkpt><trkpt lat="44.3952058" lon="7.9848602"><ele>431.0</ele><time>2026-05-03T15:28:06.227Z</time></trkpt><trkpt lat="44.3950724" lon="7.9852664"><ele>430.0</ele><time>2026-05-03T15:28:07.227Z</time></trkpt><trkpt lat="44.3949382" lon="7.985677"><ele>430.5</ele><time>2026-05-03T15:28:08.228Z</time></trkpt><trkpt lat="44.3948048" lon="7.9860895"><ele>431.0</ele><time>2026-05-03T15:28:09.227Z</time></trkpt><trkpt lat="44.3946702" lon="7.9865002"><ele>432.5</ele><time>2026-05-03T15:28:10.228Z</time></trkpt><trkpt lat="44.3945346" lon="7.9869149"><ele>434.0</ele><time>2026-05-03T15:28:11.228Z</time></trkpt><trkpt lat="44.3943982" lon="7.9873292"><ele>430.5</ele><time>2026-05-03T15:28:12.227Z</time></trkpt><trkpt lat="44.3942619" lon="7.9877416"><ele>427.0</ele><time>2026-05-03T15:28:13.228Z</time></trkpt><trkpt lat="44.3941232" lon="7.9881571"><ele>425.0</ele><time>2026-05-03T15:28:14.227Z</time></trkpt><trkpt lat="44.3939853" lon="7.9885728"><ele>423.0</ele><time>2026-05-03T15:28:15.228Z</time></trkpt><trkpt lat="44.3938486" lon="7.9889864"><ele>425.5</ele><time>2026-05-03T15:28:16.227Z</time></trkpt><trkpt lat="44.3937113" lon="7.9893969"><ele>428.0</ele><time>2026-05-03T15:28:17.228Z</time></trkpt><trkpt lat="44.3935788" lon="7.9898107"><ele>426.0</ele><time>2026-05-03T15:28:18.227Z</time></trkpt><trkpt lat="44.3934426" lon="7.9902192"><ele>424.0</ele><time>2026-05-03T15:28:19.227Z</time></trkpt><trkpt lat="44.3933079" lon="7.9906257"><ele>422.5</ele><time>2026-05-03T15:28:20.227Z</time></trkpt><trkpt lat="44.3931728" lon="7.9910325"><ele>421.0</ele><time>2026-05-03T15:28:21.227Z</time></trkpt><trkpt lat="44.3930386" lon="7.9914402"><ele>421.5</ele><time>2026-05-03T15:28:22.227Z</time></trkpt><trkpt lat="44.392904" lon="7.9918458"><ele>422.0</ele><time>2026-05-03T15:28:23.228Z</time></trkpt><trkpt lat="44.3927716" lon="7.992253"><ele>422.5</ele><time>2026-05-03T15:28:24.227Z</time></trkpt><trkpt lat="44.3926391" lon="7.9926643"><ele>423.0</ele><time>2026-05-03T15:28:25.227Z</time></trkpt><trkpt lat="44.3925058" lon="7.9930716"><ele>422.0</ele><time>2026-05-03T15:28:26.228Z</time></trkpt><trkpt lat="44.3923702" lon="7.9934783"><ele>421.0</ele><time>2026-05-03T15:28:27.227Z</time></trkpt><trkpt lat="44.3922354" lon="7.9938843"><ele>422.5</ele><time>2026-05-03T15:28:28.227Z</time></trkpt><trkpt lat="44.3921013" lon="7.9942867"><ele>424.0</ele><time>2026-05-03T15:28:29.228Z</time></trkpt><trkpt lat="44.3919681" lon="7.9946923"><ele>423.5</ele><time>2026-05-03T15:28:30.227Z</time></trkpt><trkpt lat="44.3918328" lon="7.9950933"><ele>423.0</ele><time>2026-05-03T15:28:31.227Z</time></trkpt><trkpt lat="44.3916972" lon="7.9954983"><ele>424.5</ele><time>2026-05-03T15:28:32.227Z</time></trkpt><trkpt lat="44.3915634" lon="7.9958982"><ele>426.0</ele><time>2026-05-03T15:28:33.228Z</time></trkpt><trkpt lat="44.3914314" lon="7.9963014"><ele>428.0</ele><time>2026-05-03T15:28:34.227Z</time></trkpt><trkpt lat="44.3913003" lon="7.9967074"><ele>430.0</ele><time>2026-05-03T15:28:35.227Z</time></trkpt><trkpt lat="44.3911675" lon="7.9971109"><ele>428.0</ele><time>2026-05-03T15:28:36.227Z</time></trkpt><trkpt lat="44.3910349" lon="7.9975073"><ele>426.0</ele><time>2026-05-03T15:28:37.227Z</time></trkpt><trkpt lat="44.3909069" lon="7.9978984"><ele>426.0</ele><time>2026-05-03T15:28:38.227Z</time></trkpt><trkpt lat="44.3907779" lon="7.9982889"><ele>426.0</ele><time>2026-05-03T15:28:39.228Z</time></trkpt><trkpt lat="44.3906485" lon="7.9986778"><ele>425.5</ele><time>2026-05-03T15:28:40.227Z</time></trkpt><trkpt lat="44.390519" lon="7.9990689"><ele>425.0</ele><time>2026-05-03T15:28:41.227Z</time></trkpt><trkpt lat="44.3903894" lon="7.9994661"><ele>426.5</ele><time>2026-05-03T15:28:42.227Z</time></trkpt><trkpt lat="44.3902603" lon="7.9998623"><ele>428.0</ele><time>2026-05-03T15:28:43.227Z</time></trkpt><trkpt lat="44.3901275" lon="8.0002564"><ele>428.0</ele><time>2026-05-03T15:28:44.227Z</time></trkpt><trkpt lat="44.3899995" lon="8.0006548"><ele>428.0</ele><time>2026-05-03T15:28:45.228Z</time></trkpt><trkpt lat="44.3898721" lon="8.0010679"><ele>428.0</ele><time>2026-05-03T15:28:46.228Z</time></trkpt><trkpt lat="44.3897449" lon="8.0014804"><ele>428.0</ele><time>2026-05-03T15:28:47.228Z</time></trkpt><trkpt lat="44.3896157" lon="8.001899"><ele>428.5</ele><time>2026-05-03T15:28:48.227Z</time></trkpt><trkpt lat="44.3894851" lon="8.002318"><ele>429.0</ele><time>2026-05-03T15:28:49.227Z</time></trkpt><trkpt lat="44.3893539" lon="8.002734"><ele>429.0</ele><time>2026-05-03T15:28:50.228Z</time></trkpt><trkpt lat="44.3892176" lon="8.0031484"><ele>429.0</ele><time>2026-05-03T15:28:51.227Z</time></trkpt><trkpt lat="44.3890817" lon="8.0035627"><ele>429.5</ele><time>2026-05-03T15:28:52.228Z</time></trkpt><trkpt lat="44.3889484" lon="8.0039714"><ele>430.0</ele><time>2026-05-03T15:28:53.227Z</time></trkpt><trkpt lat="44.388812" lon="8.0043869"><ele>435.0</ele><time>2026-05-03T15:28:54.228Z</time></trkpt><trkpt lat="44.3886722" lon="8.0048033"><ele>440.0</ele><time>2026-05-03T15:28:55.227Z</time></trkpt><trkpt lat="44.3885367" lon="8.0052187"><ele>440.5</ele><time>2026-05-03T15:28:56.228Z</time></trkpt><trkpt lat="44.3884008" lon="8.0056296"><ele>441.0</ele><time>2026-05-03T15:28:57.227Z</time></trkpt><trkpt lat="44.3882691" lon="8.0060282"><ele>439.5</ele><time>2026-05-03T15:28:58.227Z</time></trkpt><trkpt lat="44.3881363" lon="8.0064193"><ele>438.0</ele><time>2026-05-03T15:28:59.228Z</time></trkpt><trkpt lat="44.3879898" lon="8.0068081"><ele>438.5</ele><time>2026-05-03T15:29:00.228Z</time></trkpt><trkpt lat="44.3878162" lon="8.0071854"><ele>439.0</ele><time>2026-05-03T15:29:01.228Z</time></trkpt><trkpt lat="44.3876288" lon="8.0075476"><ele>439.0</ele><time>2026-05-03T15:29:02.227Z</time></trkpt><trkpt lat="44.3874217" lon="8.0078883"><ele>439.0</ele><time>2026-05-03T15:29:03.227Z</time></trkpt><trkpt lat="44.3871926" lon="8.0082062"><ele>441.5</ele><time>2026-05-03T15:29:04.227Z</time></trkpt><trkpt lat="44.3869447" lon="8.0085065"><ele>444.0</ele><time>2026-05-03T15:29:05.228Z</time></trkpt><trkpt lat="44.3866804" lon="8.0087944"><ele>444.0</ele><time>2026-05-03T15:29:06.227Z</time></trkpt><trkpt lat="44.3864139" lon="8.009077"><ele>444.0</ele><time>2026-05-03T15:29:07.227Z</time></trkpt><trkpt lat="44.3861459" lon="8.0093677"><ele>443.5</ele><time>2026-05-03T15:29:08.228Z</time></trkpt><trkpt lat="44.3858792" lon="8.0096471"><ele>443.0</ele><time>2026-05-03T15:29:09.228Z</time></trkpt><trkpt lat="44.3856166" lon="8.0099316"><ele>440.0</ele><time>2026-05-03T15:29:10.227Z</time></trkpt><trkpt lat="44.3853545" lon="8.0102123"><ele>437.0</ele><time>2026-05-03T15:29:11.227Z</time></trkpt><trkpt lat="44.3850922" lon="8.0104963"><ele>437.0</ele><time>2026-05-03T15:29:12.228Z</time></trkpt><trkpt lat="44.3848284" lon="8.0107821"><ele>437.0</ele><time>2026-05-03T15:29:13.228Z</time></trkpt><trkpt lat="44.3845622" lon="8.0110657"><ele>436.5</ele><time>2026-05-03T15:29:14.227Z</time></trkpt><trkpt lat="44.3842923" lon="8.0113431"><ele>436.0</ele><time>2026-05-03T15:29:15.227Z</time></trkpt><trkpt lat="44.3840281" lon="8.011623"><ele>436.5</ele><time>2026-05-03T15:29:16.228Z</time></trkpt><trkpt lat="44.3837665" lon="8.0118961"><ele>437.0</ele><time>2026-05-03T15:29:17.228Z</time></trkpt><trkpt lat="44.3835094" lon="8.0121736"><ele>437.0</ele><time>2026-05-03T15:29:18.227Z</time></trkpt><trkpt lat="44.3832566" lon="8.0124423"><ele>437.0</ele><time>2026-05-03T15:29:19.227Z</time></trkpt><trkpt lat="44.383001" lon="8.0127062"><ele>431.0</ele><time>2026-05-03T15:29:20.227Z</time></trkpt><trkpt lat="44.3827445" lon="8.0129707"><ele>425.0</ele><time>2026-05-03T15:29:21.227Z</time></trkpt><trkpt lat="44.3824847" lon="8.0132316"><ele>422.5</ele><time>2026-05-03T15:29:22.227Z</time></trkpt><trkpt lat="44.3822234" lon="8.0134951"><ele>420.0</ele><time>2026-05-03T15:29:23.228Z</time></trkpt><trkpt lat="44.3819635" lon="8.0137539"><ele>420.0</ele><time>2026-05-03T15:29:24.227Z</time></trkpt><trkpt lat="44.3817067" lon="8.0140136"><ele>420.0</ele><time>2026-05-03T15:29:25.228Z</time></trkpt><trkpt lat="44.3814525" lon="8.0142699"><ele>419.5</ele><time>2026-05-03T15:29:26.228Z</time></trkpt><trkpt lat="44.3811998" lon="8.0145271"><ele>419.0</ele><time>2026-05-03T15:29:27.227Z</time></trkpt><trkpt lat="44.3809432" lon="8.0147836"><ele>418.5</ele><time>2026-05-03T15:29:28.227Z</time></trkpt><trkpt lat="44.380693" lon="8.0150407"><ele>418.0</ele><time>2026-05-03T15:29:29.227Z</time></trkpt><trkpt lat="44.3804419" lon="8.0152998"><ele>419.0</ele><time>2026-05-03T15:29:30.227Z</time></trkpt><trkpt lat="44.3801897" lon="8.0155572"><ele>420.0</ele><time>2026-05-03T15:29:31.227Z</time></trkpt><trkpt lat="44.379933" lon="8.0158153"><ele>418.0</ele><time>2026-05-03T15:29:32.227Z</time></trkpt><trkpt lat="44.3796758" lon="8.01608"><ele>416.0</ele><time>2026-05-03T15:29:33.227Z</time></trkpt><trkpt lat="44.3794189" lon="8.016342"><ele>416.0</ele><time>2026-05-03T15:29:34.228Z</time></trkpt><trkpt lat="44.3791656" lon="8.016603"><ele>416.0</ele><time>2026-05-03T15:29:35.227Z</time></trkpt><trkpt lat="44.3789095" lon="8.0168622"><ele>417.0</ele><time>2026-05-03T15:29:36.228Z</time></trkpt><trkpt lat="44.378657" lon="8.0171129"><ele>418.0</ele><time>2026-05-03T15:29:37.228Z</time></trkpt><trkpt lat="44.3784051" lon="8.0173696"><ele>417.5</ele><time>2026-05-03T15:29:38.227Z</time></trkpt><trkpt lat="44.3781541" lon="8.0176314"><ele>417.0</ele><time>2026-05-03T15:29:39.225Z</time></trkpt><trkpt lat="44.3778979" lon="8.0178922"><ele>418.0</ele><time>2026-05-03T15:29:40.227Z</time></trkpt><trkpt lat="44.3776395" lon="8.0181521"><ele>419.0</ele><time>2026-05-03T15:29:41.227Z</time></trkpt><trkpt lat="44.3773783" lon="8.0184121"><ele>419.0</ele><time>2026-05-03T15:29:42.228Z</time></trkpt><trkpt lat="44.3771148" lon="8.0186793"><ele>419.0</ele><time>2026-05-03T15:29:43.227Z</time></trkpt><trkpt lat="44.3768545" lon="8.0189458"><ele>418.5</ele><time>2026-05-03T15:29:44.227Z</time></trkpt><trkpt lat="44.3765925" lon="8.019215"><ele>418.0</ele><time>2026-05-03T15:29:45.227Z</time></trkpt><trkpt lat="44.3763302" lon="8.0194957"><ele>418.5</ele><time>2026-05-03T15:29:46.227Z</time></trkpt><trkpt lat="44.3760777" lon="8.0197888"><ele>419.0</ele><time>2026-05-03T15:29:47.227Z</time></trkpt><trkpt lat="44.3758332" lon="8.0200877"><ele>419.0</ele><time>2026-05-03T15:29:48.227Z</time></trkpt><trkpt lat="44.3755944" lon="8.0203997"><ele>419.0</ele><time>2026-05-03T15:29:49.227Z</time></trkpt><trkpt lat="44.3753658" lon="8.0207144"><ele>420.5</ele><time>2026-05-03T15:29:50.227Z</time></trkpt><trkpt lat="44.3751409" lon="8.0210438"><ele>422.0</ele><time>2026-05-03T15:29:51.228Z</time></trkpt><trkpt lat="44.3749252" lon="8.0213761"><ele>422.0</ele><time>2026-05-03T15:29:52.227Z</time></trkpt><trkpt lat="44.3747151" lon="8.0217128"><ele>422.0</ele><time>2026-05-03T15:29:53.227Z</time></trkpt><trkpt lat="44.3745085" lon="8.0220557"><ele>422.0</ele><time>2026-05-03T15:29:54.227Z</time></trkpt><trkpt lat="44.3743082" lon="8.0224046"><ele>422.0</ele><time>2026-05-03T15:29:55.227Z</time></trkpt><trkpt lat="44.3741071" lon="8.0227535"><ele>422.0</ele><time>2026-05-03T15:29:56.227Z</time></trkpt><trkpt lat="44.3739052" lon="8.0230897"><ele>422.0</ele><time>2026-05-03T15:29:57.228Z</time></trkpt><trkpt lat="44.3737037" lon="8.0234344"><ele>422.5</ele><time>2026-05-03T15:29:58.228Z</time></trkpt><trkpt lat="44.3735043" lon="8.0237742"><ele>423.0</ele><time>2026-05-03T15:29:59.227Z</time></trkpt><trkpt lat="44.3733076" lon="8.0241115"><ele>423.0</ele><time>2026-05-03T15:30:00.228Z</time></trkpt><trkpt lat="44.3731116" lon="8.0244474"><ele>423.0</ele><time>2026-05-03T15:30:01.227Z</time></trkpt><trkpt lat="44.3729138" lon="8.0247824"><ele>423.0</ele><time>2026-05-03T15:30:02.227Z</time></trkpt><trkpt lat="44.3727178" lon="8.0251144"><ele>423.0</ele><time>2026-05-03T15:30:03.227Z</time></trkpt><trkpt lat="44.3725218" lon="8.0254424"><ele>423.0</ele><time>2026-05-03T15:30:04.228Z</time></trkpt><trkpt lat="44.3723261" lon="8.0257671"><ele>423.0</ele><time>2026-05-03T15:30:05.227Z</time></trkpt><trkpt lat="44.3721365" lon="8.0260923"><ele>424.5</ele><time>2026-05-03T15:30:06.228Z</time></trkpt><trkpt lat="44.3719467" lon="8.0264168"><ele>426.0</ele><time>2026-05-03T15:30:07.227Z</time></trkpt><trkpt lat="44.3717557" lon="8.0267382"><ele>426.0</ele><time>2026-05-03T15:30:08.228Z</time></trkpt><trkpt lat="44.3715681" lon="8.0270542"><ele>426.0</ele><time>2026-05-03T15:30:09.227Z</time></trkpt><trkpt lat="44.3713825" lon="8.0273702"><ele>430.5</ele><time>2026-05-03T15:30:10.227Z</time></trkpt><trkpt lat="44.3712004" lon="8.0276859"><ele>435.0</ele><time>2026-05-03T15:30:11.227Z</time></trkpt><trkpt lat="44.3710161" lon="8.0280032"><ele>433.0</ele><time>2026-05-03T15:30:12.227Z</time></trkpt><trkpt lat="44.3708335" lon="8.0283142"><ele>431.0</ele><time>2026-05-03T15:30:13.227Z</time></trkpt><trkpt lat="44.3706532" lon="8.0286282"><ele>436.0</ele><time>2026-05-03T15:30:14.228Z</time></trkpt><trkpt lat="44.3704743" lon="8.0289534"><ele>441.0</ele><time>2026-05-03T15:30:15.227Z</time></trkpt><trkpt lat="44.3703069" lon="8.029289"><ele>441.0</ele><time>2026-05-03T15:30:16.228Z</time></trkpt><trkpt lat="44.3701587" lon="8.0296369"><ele>441.0</ele><time>2026-05-03T15:30:17.227Z</time></trkpt><trkpt lat="44.3700257" lon="8.0299974"><ele>438.5</ele><time>2026-05-03T15:30:18.228Z</time></trkpt><trkpt lat="44.3699183" lon="8.0303649"><ele>436.0</ele><time>2026-05-03T15:30:19.227Z</time></trkpt><trkpt lat="44.3698308" lon="8.0307361"><ele>436.0</ele><time>2026-05-03T15:30:20.227Z</time></trkpt><trkpt lat="44.3697586" lon="8.0311134"><ele>436.0</ele><time>2026-05-03T15:30:21.227Z</time></trkpt><trkpt lat="44.3697044" lon="8.0314909"><ele>440.0</ele><time>2026-05-03T15:30:22.227Z</time></trkpt><trkpt lat="44.3696643" lon="8.0318695"><ele>444.0</ele><time>2026-05-03T15:30:23.227Z</time></trkpt><trkpt lat="44.3696357" lon="8.0322486"><ele>442.0</ele><time>2026-05-03T15:30:24.227Z</time></trkpt><trkpt lat="44.369624" lon="8.032626"><ele>440.0</ele><time>2026-05-03T15:30:25.227Z</time></trkpt><trkpt lat="44.3696331" lon="8.032997"><ele>444.0</ele><time>2026-05-03T15:30:26.227Z</time></trkpt><trkpt lat="44.3696583" lon="8.033363"><ele>448.0</ele><time>2026-05-03T15:30:27.227Z</time></trkpt><trkpt lat="44.3697004" lon="8.0337219"><ele>437.5</ele><time>2026-05-03T15:30:28.227Z</time></trkpt><trkpt lat="44.3697549" lon="8.0340851"><ele>427.0</ele><time>2026-05-03T15:30:29.227Z</time></trkpt><trkpt lat="44.3698248" lon="8.0344424"><ele>424.5</ele><time>2026-05-03T15:30:30.227Z</time></trkpt><trkpt lat="44.3699092" lon="8.034786"><ele>422.0</ele><time>2026-05-03T15:30:31.227Z</time></trkpt><trkpt lat="44.3700147" lon="8.0351168"><ele>420.0</ele><time>2026-05-03T15:30:32.228Z</time></trkpt><trkpt lat="44.370126" lon="8.0354337"><ele>418.0</ele><time>2026-05-03T15:30:33.228Z</time></trkpt><trkpt lat="44.3702433" lon="8.0357326"><ele>414.5</ele><time>2026-05-03T15:30:34.228Z</time></trkpt><trkpt lat="44.3703605" lon="8.0360096"><ele>411.0</ele><time>2026-05-03T15:30:35.228Z</time></trkpt><trkpt lat="44.370474" lon="8.0362729"><ele>413.33333333333337</ele><time>2026-05-03T15:30:36.228Z</time></trkpt><trkpt lat="44.3705841" lon="8.0365222"><ele>415.6666666666667</ele><time>2026-05-03T15:30:37.228Z</time></trkpt><trkpt lat="44.3707095" lon="8.0367473"><ele>418.0</ele><time>2026-05-03T15:30:38.228Z</time></trkpt><trkpt lat="44.3708316" lon="8.0369552"><ele>418.0</ele><time>2026-05-03T15:30:39.228Z</time></trkpt><trkpt lat="44.3709593" lon="8.0371566"><ele>418.0</ele><time>2026-05-03T15:30:40.228Z</time></trkpt><trkpt lat="44.3710909" lon="8.0373548"><ele>418.0</ele><time>2026-05-03T15:30:41.228Z</time></trkpt><trkpt lat="44.3712194" lon="8.0375582"><ele>420.33333333333337</ele><time>2026-05-03T15:30:42.228Z</time></trkpt><trkpt lat="44.3713314" lon="8.0377518"><ele>422.66666666666663</ele><time>2026-05-03T15:30:43.228Z</time></trkpt><trkpt lat="44.3714187" lon="8.0379383"><ele>425.0</ele><time>2026-05-03T15:30:44.228Z</time></trkpt><trkpt lat="44.3714705" lon="8.0381285"><ele>429.0</ele><time>2026-05-03T15:30:45.228Z</time></trkpt><trkpt lat="44.3714853" lon="8.0383158"><ele>433.0</ele><time>2026-05-03T15:30:46.228Z</time></trkpt><trkpt lat="44.3714719" lon="8.0385071"><ele>433.0</ele><time>2026-05-03T15:30:47.228Z</time></trkpt></trkseg><trkseg><trkpt lat="44.3373833" lon="8.0571595"><ele>461.0</ele><time>2026-05-03T15:39:59.231Z</time></trkpt><trkpt lat="44.3373321" lon="8.0570577"><ele>461.0</ele><time>2026-05-03T15:40:01.232Z</time></trkpt><trkpt lat="44.3372504" lon="8.0570508"><ele>461.0</ele><time>2026-05-03T15:40:04.232Z</time></trkpt><trkpt lat="44.3371373" lon="8.0570012"><ele>461.0</ele><time>2026-05-03T15:40:06.231Z</time></trkpt><trkpt lat="44.3369609" lon="8.0568488"><ele>461.5</ele><time>2026-05-03T15:40:08.232Z</time></trkpt><trkpt lat="44.3368408" lon="8.0567504"><ele>462.0</ele><time>2026-05-03T15:40:09.231Z</time></trkpt><trkpt lat="44.3367234" lon="8.0566375"><ele>462.5</ele><time>2026-05-03T15:40:10.231Z</time></trkpt><trkpt lat="44.3365936" lon="8.0565191"><ele>463.0</ele><time>2026-05-03T15:40:11.231Z</time></trkpt><trkpt lat="44.3364577" lon="8.0564004"><ele>462.6666666666667</ele><time>2026-05-03T15:40:12.232Z</time></trkpt><trkpt lat="44.3363193" lon="8.0562724"><ele>462.33333333333337</ele><time>2026-05-03T15:40:13.231Z</time></trkpt><trkpt lat="44.3361735" lon="8.0561313"><ele>462.0</ele><time>2026-05-03T15:40:14.232Z</time></trkpt><trkpt lat="44.3360167" lon="8.0559846"><ele>462.0</ele><time>2026-05-03T15:40:15.231Z</time></trkpt><trkpt lat="44.3358477" lon="8.0558262"><ele>462.0</ele><time>2026-05-03T15:40:16.232Z</time></trkpt><trkpt lat="44.3356758" lon="8.0556654"><ele>462.0</ele><time>2026-05-03T15:40:17.232Z</time></trkpt><trkpt lat="44.3355034" lon="8.055502"><ele>462.66666666666663</ele><time>2026-05-03T15:40:18.231Z</time></trkpt><trkpt lat="44.3353231" lon="8.0553264"><ele>463.3333333333333</ele><time>2026-05-03T15:40:19.231Z</time></trkpt><trkpt lat="44.3351401" lon="8.0551512"><ele>464.0</ele><time>2026-05-03T15:40:20.231Z</time></trkpt><trkpt lat="44.3349533" lon="8.0549706"><ele>465.0</ele><time>2026-05-03T15:40:21.231Z</time></trkpt><trkpt lat="44.3347656" lon="8.054792"><ele>466.0</ele><time>2026-05-03T15:40:22.231Z</time></trkpt><trkpt lat="44.3345784" lon="8.0546161"><ele>466.0</ele><time>2026-05-03T15:40:23.231Z</time></trkpt><trkpt lat="44.3343849" lon="8.054444"><ele>466.0</ele><time>2026-05-03T15:40:24.231Z</time></trkpt><trkpt lat="44.3341898" lon="8.0542863"><ele>466.0</ele><time>2026-05-03T15:40:25.232Z</time></trkpt><trkpt lat="44.3339777" lon="8.0541604"><ele>466.0</ele><time>2026-05-03T15:40:26.231Z</time></trkpt><trkpt lat="44.3337538" lon="8.0540544"><ele>471.5</ele><time>2026-05-03T15:40:27.231Z</time></trkpt><trkpt lat="44.3335159" lon="8.0539778"><ele>477.0</ele><time>2026-05-03T15:40:28.231Z</time></trkpt><trkpt lat="44.3332731" lon="8.0539273"><ele>472.5</ele><time>2026-05-03T15:40:29.232Z</time></trkpt><trkpt lat="44.333019" lon="8.053879"><ele>468.0</ele><time>2026-05-03T15:40:30.231Z</time></trkpt><trkpt lat="44.3327596" lon="8.0538198"><ele>468.0</ele><time>2026-05-03T15:40:31.232Z</time></trkpt><trkpt lat="44.3324971" lon="8.0537593"><ele>468.0</ele><time>2026-05-03T15:40:32.231Z</time></trkpt><trkpt lat="44.3322325" lon="8.0536986"><ele>465.5</ele><time>2026-05-03T15:40:33.232Z</time></trkpt><trkpt lat="44.3319687" lon="8.0536359"><ele>463.0</ele><time>2026-05-03T15:40:34.231Z</time></trkpt><trkpt lat="44.3317051" lon="8.0535753"><ele>463.0</ele><time>2026-05-03T15:40:35.232Z</time></trkpt><trkpt lat="44.3314449" lon="8.0535153"><ele>463.0</ele><time>2026-05-03T15:40:36.231Z</time></trkpt><trkpt lat="44.3311789" lon="8.0534536"><ele>462.5</ele><time>2026-05-03T15:40:37.231Z</time></trkpt><trkpt lat="44.3309127" lon="8.0533919"><ele>462.0</ele><time>2026-05-03T15:40:38.231Z</time></trkpt><trkpt lat="44.3306489" lon="8.0533353"><ele>463.0</ele><time>2026-05-03T15:40:39.232Z</time></trkpt><trkpt lat="44.3303812" lon="8.0532729"><ele>464.0</ele><time>2026-05-03T15:40:40.232Z</time></trkpt><trkpt lat="44.3301127" lon="8.0532157"><ele>464.0</ele><time>2026-05-03T15:40:41.231Z</time></trkpt><trkpt lat="44.3298449" lon="8.0531564"><ele>464.0</ele><time>2026-05-03T15:40:42.231Z</time></trkpt><trkpt lat="44.3295708" lon="8.0530987"><ele>464.5</ele><time>2026-05-03T15:40:43.232Z</time></trkpt><trkpt lat="44.3293021" lon="8.0530358"><ele>465.0</ele><time>2026-05-03T15:40:44.231Z</time></trkpt><trkpt lat="44.3290335" lon="8.0529766"><ele>464.5</ele><time>2026-05-03T15:40:45.232Z</time></trkpt><trkpt lat="44.3287672" lon="8.0529203"><ele>464.0</ele><time>2026-05-03T15:40:46.232Z</time></trkpt><trkpt lat="44.3284987" lon="8.0528613"><ele>464.0</ele><time>2026-05-03T15:40:47.231Z</time></trkpt><trkpt lat="44.3282357" lon="8.0528011"><ele>464.0</ele><time>2026-05-03T15:40:48.231Z</time></trkpt><trkpt lat="44.3279711" lon="8.0527428"><ele>464.5</ele><time>2026-05-03T15:40:49.231Z</time></trkpt><trkpt lat="44.3277052" lon="8.0526792"><ele>465.0</ele><time>2026-05-03T15:40:50.231Z</time></trkpt><trkpt lat="44.3274432" lon="8.0526219"><ele>464.5</ele><time>2026-05-03T15:40:51.231Z</time></trkpt><trkpt lat="44.327178" lon="8.0525603"><ele>464.0</ele><time>2026-05-03T15:40:52.231Z</time></trkpt><trkpt lat="44.3269106" lon="8.0525011"><ele>464.0</ele><time>2026-05-03T15:40:53.231Z</time></trkpt><trkpt lat="44.3266424" lon="8.0524423"><ele>464.0</ele><time>2026-05-03T15:40:54.231Z</time></trkpt><trkpt lat="44.3263715" lon="8.0523872"><ele>464.0</ele><time>2026-05-03T15:40:55.231Z</time></trkpt><trkpt lat="44.3260965" lon="8.0523288"><ele>464.0</ele><time>2026-05-03T15:40:56.231Z</time></trkpt><trkpt lat="44.3258222" lon="8.0522696"><ele>465.0</ele><time>2026-05-03T15:40:57.231Z</time></trkpt><trkpt lat="44.3255457" lon="8.0522118"><ele>466.0</ele><time>2026-05-03T15:40:58.231Z</time></trkpt><trkpt lat="44.3252724" lon="8.0521477"><ele>466.0</ele><time>2026-05-03T15:40:59.231Z</time></trkpt><trkpt lat="44.3250069" lon="8.0520879"><ele>466.0</ele><time>2026-05-03T15:41:00.232Z</time></trkpt><trkpt lat="44.3247455" lon="8.0520325"><ele>467.0</ele><time>2026-05-03T15:41:01.231Z</time></trkpt><trkpt lat="44.3244976" lon="8.051976"><ele>468.0</ele><time>2026-05-03T15:41:02.231Z</time></trkpt><trkpt lat="44.3242622" lon="8.0519211"><ele>468.0</ele><time>2026-05-03T15:41:03.231Z</time></trkpt><trkpt lat="44.3240384" lon="8.0518707"><ele>468.0</ele><time>2026-05-03T15:41:04.231Z</time></trkpt><trkpt lat="44.3238201" lon="8.05182"><ele>468.0</ele><time>2026-05-03T15:41:05.231Z</time></trkpt><trkpt lat="44.3236071" lon="8.0517686"><ele>468.33333333333337</ele><time>2026-05-03T15:41:06.232Z</time></trkpt><trkpt lat="44.3233943" lon="8.0517238"><ele>468.6666666666667</ele><time>2026-05-03T15:41:07.231Z</time></trkpt><trkpt lat="44.3231764" lon="8.0516766"><ele>469.0</ele><time>2026-05-03T15:41:08.232Z</time></trkpt><trkpt lat="44.3229654" lon="8.0516261"><ele>470.6666666666667</ele><time>2026-05-03T15:41:09.231Z</time></trkpt><trkpt lat="44.3227503" lon="8.0515718"><ele>472.33333333333337</ele><time>2026-05-03T15:41:10.231Z</time></trkpt><trkpt lat="44.3225237" lon="8.0515144"><ele>474.0</ele><time>2026-05-03T15:41:11.231Z</time></trkpt><trkpt lat="44.3222905" lon="8.0514586"><ele>473.5</ele><time>2026-05-03T15:41:12.231Z</time></trkpt><trkpt lat="44.3220541" lon="8.051402"><ele>473.0</ele><time>2026-05-03T15:41:13.231Z</time></trkpt><trkpt lat="44.3218223" lon="8.0513497"><ele>473.0</ele><time>2026-05-03T15:41:14.231Z</time></trkpt><trkpt lat="44.3215904" lon="8.0512994"><ele>473.0</ele><time>2026-05-03T15:41:15.231Z</time></trkpt><trkpt lat="44.3213597" lon="8.0512471"><ele>472.0</ele><time>2026-05-03T15:41:16.231Z</time></trkpt><trkpt lat="44.3211267" lon="8.0511917"><ele>471.0</ele><time>2026-05-03T15:41:17.232Z</time></trkpt><trkpt lat="44.3208916" lon="8.0511382"><ele>471.0</ele><time>2026-05-03T15:41:18.237Z</time></trkpt><trkpt lat="44.3206629" lon="8.0510912"><ele>471.0</ele><time>2026-05-03T15:41:19.236Z</time></trkpt><trkpt lat="44.3204341" lon="8.0510411"><ele>472.0</ele><time>2026-05-03T15:41:20.236Z</time></trkpt><trkpt lat="44.3202099" lon="8.0509909"><ele>473.0</ele><time>2026-05-03T15:41:21.236Z</time></trkpt><trkpt lat="44.3199808" lon="8.0509427"><ele>473.0</ele><time>2026-05-03T15:41:22.237Z</time></trkpt><trkpt lat="44.3197478" lon="8.0508952"><ele>473.0</ele><time>2026-05-03T15:41:23.236Z</time></trkpt><trkpt lat="44.3195167" lon="8.0508367"><ele>481.5</ele><time>2026-05-03T15:41:24.237Z</time></trkpt><trkpt lat="44.3192899" lon="8.050791"><ele>490.0</ele><time>2026-05-03T15:41:25.236Z</time></trkpt><trkpt lat="44.3190628" lon="8.0507386"><ele>484.5</ele><time>2026-05-03T15:41:26.236Z</time></trkpt><trkpt lat="44.3188355" lon="8.0506753"><ele>479.0</ele><time>2026-05-03T15:41:27.237Z</time></trkpt><trkpt lat="44.3186091" lon="8.0506062"><ele>479.0</ele><time>2026-05-03T15:41:28.237Z</time></trkpt><trkpt lat="44.3183901" lon="8.050525"><ele>479.0</ele><time>2026-05-03T15:41:29.236Z</time></trkpt><trkpt lat="44.3181822" lon="8.0504466"><ele>479.0</ele><time>2026-05-03T15:41:30.236Z</time></trkpt><trkpt lat="44.3179874" lon="8.0503709"><ele>478.66666666666663</ele><time>2026-05-03T15:41:31.236Z</time></trkpt><trkpt lat="44.3177859" lon="8.0502973"><ele>478.33333333333337</ele><time>2026-05-03T15:41:32.237Z</time></trkpt><trkpt lat="44.3175915" lon="8.0502221"><ele>478.0</ele><time>2026-05-03T15:41:33.236Z</time></trkpt><trkpt lat="44.3173903" lon="8.050147"><ele>478.33333333333337</ele><time>2026-05-03T15:41:34.236Z</time></trkpt><trkpt lat="44.3171805" lon="8.050073"><ele>478.66666666666663</ele><time>2026-05-03T15:41:35.236Z</time></trkpt><trkpt lat="44.3169669" lon="8.0499908"><ele>479.0</ele><time>2026-05-03T15:41:36.236Z</time></trkpt><trkpt lat="44.3167485" lon="8.0499045"><ele>479.66666666666663</ele><time>2026-05-03T15:41:37.237Z</time></trkpt><trkpt lat="44.3165352" lon="8.0498216"><ele>480.33333333333337</ele><time>2026-05-03T15:41:38.236Z</time></trkpt><trkpt lat="44.3163217" lon="8.0497396"><ele>481.0</ele><time>2026-05-03T15:41:39.236Z</time></trkpt><trkpt lat="44.3161057" lon="8.0496544"><ele>481.33333333333337</ele><time>2026-05-03T15:41:40.237Z</time></trkpt><trkpt lat="44.3158968" lon="8.0495769"><ele>481.66666666666663</ele><time>2026-05-03T15:41:41.237Z</time></trkpt><trkpt lat="44.3156932" lon="8.0494983"><ele>482.0</ele><time>2026-05-03T15:41:42.237Z</time></trkpt><trkpt lat="44.3155009" lon="8.0494182"><ele>481.0</ele><time>2026-05-03T15:41:43.236Z</time></trkpt><trkpt lat="44.3153084" lon="8.0493411"><ele>480.0</ele><time>2026-05-03T15:41:44.236Z</time></trkpt><trkpt lat="44.3151154" lon="8.049271"><ele>479.0</ele><time>2026-05-03T15:41:45.237Z</time></trkpt><trkpt lat="44.314925" lon="8.0491993"><ele>479.0</ele><time>2026-05-03T15:41:46.237Z</time></trkpt><trkpt lat="44.3147401" lon="8.0491342"><ele>479.0</ele><time>2026-05-03T15:41:47.236Z</time></trkpt><trkpt lat="44.3145634" lon="8.0490678"><ele>479.0</ele><time>2026-05-03T15:41:48.236Z</time></trkpt><trkpt lat="44.3143945" lon="8.0490046"><ele>478.66666666666663</ele><time>2026-05-03T15:41:49.236Z</time></trkpt><trkpt lat="44.314229" lon="8.0489428"><ele>478.33333333333337</ele><time>2026-05-03T15:41:50.236Z</time></trkpt><trkpt lat="44.3140623" lon="8.0488778"><ele>478.0</ele><time>2026-05-03T15:41:51.236Z</time></trkpt><trkpt lat="44.3138924" lon="8.0488127"><ele>478.0</ele><time>2026-05-03T15:41:52.237Z</time></trkpt><trkpt lat="44.3137246" lon="8.0487482"><ele>478.0</ele><time>2026-05-03T15:41:53.236Z</time></trkpt><trkpt lat="44.3135555" lon="8.0486794"><ele>478.0</ele><time>2026-05-03T15:41:54.237Z</time></trkpt><trkpt lat="44.3133789" lon="8.0486177"><ele>478.0</ele><time>2026-05-03T15:41:55.236Z</time></trkpt><trkpt lat="44.3132054" lon="8.0485518"><ele>478.0</ele><time>2026-05-03T15:41:56.237Z</time></trkpt><trkpt lat="44.3130239" lon="8.0484862"><ele>478.0</ele><time>2026-05-03T15:41:57.236Z</time></trkpt><trkpt lat="44.3128449" lon="8.048416"><ele>478.33333333333337</ele><time>2026-05-03T15:41:58.237Z</time></trkpt><trkpt lat="44.3126652" lon="8.0483473"><ele>478.66666666666663</ele><time>2026-05-03T15:41:59.236Z</time></trkpt><trkpt lat="44.3124849" lon="8.0482764"><ele>479.0</ele><time>2026-05-03T15:42:00.236Z</time></trkpt><trkpt lat="44.3122947" lon="8.0482047"><ele>480.0</ele><time>2026-05-03T15:42:01.236Z</time></trkpt><trkpt lat="44.3121126" lon="8.0481359"><ele>481.0</ele><time>2026-05-03T15:42:02.236Z</time></trkpt><trkpt lat="44.311939" lon="8.0480679"><ele>482.0</ele><time>2026-05-03T15:42:03.236Z</time></trkpt><trkpt lat="44.3117668" lon="8.0480001"><ele>482.0</ele><time>2026-05-03T15:42:04.236Z</time></trkpt><trkpt lat="44.3115961" lon="8.047935"><ele>482.0</ele><time>2026-05-03T15:42:05.237Z</time></trkpt><trkpt lat="44.3114244" lon="8.0478714"><ele>482.0</ele><time>2026-05-03T15:42:06.236Z</time></trkpt><trkpt lat="44.3112527" lon="8.0478024"><ele>482.3333333333333</ele><time>2026-05-03T15:42:07.236Z</time></trkpt><trkpt lat="44.3110782" lon="8.0477362"><ele>482.66666666666663</ele><time>2026-05-03T15:42:08.237Z</time></trkpt><trkpt lat="44.3109102" lon="8.04768"><ele>483.0</ele><time>2026-05-03T15:42:09.237Z</time></trkpt><trkpt lat="44.3107464" lon="8.0476169"><ele>483.0</ele><time>2026-05-03T15:42:10.238Z</time></trkpt><trkpt lat="44.3105937" lon="8.0475571"><ele>483.0</ele><time>2026-05-03T15:42:11.237Z</time></trkpt><trkpt lat="44.3104383" lon="8.047494"><ele>483.0</ele><time>2026-05-03T15:42:12.238Z</time></trkpt><trkpt lat="44.310288" lon="8.0474388"><ele>483.25</ele><time>2026-05-03T15:42:13.238Z</time></trkpt><trkpt lat="44.310142" lon="8.047389"><ele>483.5</ele><time>2026-05-03T15:42:14.237Z</time></trkpt><trkpt lat="44.3099966" lon="8.0473374"><ele>483.75</ele><time>2026-05-03T15:42:15.238Z</time></trkpt><trkpt lat="44.3098553" lon="8.0472833"><ele>484.0</ele><time>2026-05-03T15:42:16.238Z</time></trkpt><trkpt lat="44.3097132" lon="8.0472334"><ele>484.0</ele><time>2026-05-03T15:42:17.237Z</time></trkpt><trkpt lat="44.3095834" lon="8.0471827"><ele>484.0</ele><time>2026-05-03T15:42:18.237Z</time></trkpt><trkpt lat="44.3094567" lon="8.0471322"><ele>484.0</ele><time>2026-05-03T15:42:19.237Z</time></trkpt><trkpt lat="44.3093371" lon="8.0470863"><ele>484.0</ele><time>2026-05-03T15:42:20.237Z</time></trkpt><trkpt lat="44.3092156" lon="8.0470393"><ele>484.0</ele><time>2026-05-03T15:42:21.237Z</time></trkpt><trkpt lat="44.3090933" lon="8.0469936"><ele>484.0</ele><time>2026-05-03T15:42:22.238Z</time></trkpt><trkpt lat="44.3089755" lon="8.0469431"><ele>484.0</ele><time>2026-05-03T15:42:23.238Z</time></trkpt><trkpt lat="44.3088653" lon="8.046899"><ele>484.0</ele><time>2026-05-03T15:42:24.237Z</time></trkpt><trkpt lat="44.3087515" lon="8.0468605"><ele>484.25</ele><time>2026-05-03T15:42:25.237Z</time></trkpt><trkpt lat="44.3086341" lon="8.046816"><ele>484.5</ele><time>2026-05-03T15:42:26.237Z</time></trkpt><trkpt lat="44.3085065" lon="8.0467677"><ele>484.75</ele><time>2026-05-03T15:42:27.237Z</time></trkpt><trkpt lat="44.3083809" lon="8.0467183"><ele>485.0</ele><time>2026-05-03T15:42:28.237Z</time></trkpt><trkpt lat="44.3082665" lon="8.0466705"><ele>486.0</ele><time>2026-05-03T15:42:29.237Z</time></trkpt><trkpt lat="44.3081534" lon="8.0466261"><ele>487.0</ele><time>2026-05-03T15:42:30.237Z</time></trkpt><trkpt lat="44.3080409" lon="8.0465861"><ele>488.0</ele><time>2026-05-03T15:42:31.238Z</time></trkpt><trkpt lat="44.3079306" lon="8.0465461"><ele>489.0</ele><time>2026-05-03T15:42:32.238Z</time></trkpt><trkpt lat="44.3078277" lon="8.0465065"><ele>489.1666666666667</ele><time>2026-05-03T15:42:33.237Z</time></trkpt><trkpt lat="44.3077357" lon="8.0464705"><ele>489.33333333333337</ele><time>2026-05-03T15:42:34.237Z</time></trkpt><trkpt lat="44.3076605" lon="8.0464453"><ele>489.5</ele><time>2026-05-03T15:42:35.237Z</time></trkpt><trkpt lat="44.3075606" lon="8.0463957"><ele>489.6666666666667</ele><time>2026-05-03T15:42:37.237Z</time></trkpt><trkpt lat="44.3074894" lon="8.0463696"><ele>489.83333333333337</ele><time>2026-05-03T15:42:40.237Z</time></trkpt><trkpt lat="44.3074222" lon="8.0463463"><ele>490.0</ele><time>2026-05-03T15:42:44.237Z</time></trkpt><trkpt lat="44.3073655" lon="8.0462866"><ele>490.0</ele><time>2026-05-03T15:43:03.238Z</time></trkpt><trkpt lat="44.3072585" lon="8.0462466"><ele>490.0</ele><time>2026-05-03T15:43:06.237Z</time></trkpt><trkpt lat="44.3071904" lon="8.0462274"><ele>490.0</ele><time>2026-05-03T15:43:07.237Z</time></trkpt><trkpt lat="44.3071055" lon="8.0461867"><ele>490.0</ele><time>2026-05-03T15:43:08.237Z</time></trkpt><trkpt lat="44.3069941" lon="8.0461447"><ele>490.0</ele><time>2026-05-03T15:43:09.238Z</time></trkpt><trkpt lat="44.3068671" lon="8.0460974"><ele>489.0</ele><time>2026-05-03T15:43:10.237Z</time></trkpt><trkpt lat="44.3067299" lon="8.0460448"><ele>488.0</ele><time>2026-05-03T15:43:11.238Z</time></trkpt><trkpt lat="44.3065822" lon="8.045987"><ele>487.0</ele><time>2026-05-03T15:43:12.238Z</time></trkpt><trkpt lat="44.3064281" lon="8.0459294"><ele>486.6666666666667</ele><time>2026-05-03T15:43:13.238Z</time></trkpt><trkpt lat="44.3062701" lon="8.045869"><ele>486.33333333333337</ele><time>2026-05-03T15:43:14.237Z</time></trkpt><trkpt lat="44.3061001" lon="8.0458075"><ele>486.0</ele><time>2026-05-03T15:43:15.237Z</time></trkpt><trkpt lat="44.3059187" lon="8.0457462"><ele>486.0</ele><time>2026-05-03T15:43:16.238Z</time></trkpt><trkpt lat="44.3057335" lon="8.0456752"><ele>486.0</ele><time>2026-05-03T15:43:17.237Z</time></trkpt><trkpt lat="44.3055558" lon="8.0456127"><ele>486.0</ele><time>2026-05-03T15:43:18.237Z</time></trkpt><trkpt lat="44.3053748" lon="8.0455492"><ele>486.0</ele><time>2026-05-03T15:43:19.237Z</time></trkpt><trkpt lat="44.3052027" lon="8.0454869"><ele>486.0</ele><time>2026-05-03T15:43:20.237Z</time></trkpt><trkpt lat="44.3050391" lon="8.0454299"><ele>486.0</ele><time>2026-05-03T15:43:21.237Z</time></trkpt><trkpt lat="44.3048757" lon="8.0453709"><ele>486.66666666666663</ele><time>2026-05-03T15:43:22.237Z</time></trkpt><trkpt lat="44.3047103" lon="8.0453108"><ele>487.3333333333333</ele><time>2026-05-03T15:43:23.237Z</time></trkpt><trkpt lat="44.3045427" lon="8.0452462"><ele>488.0</ele><time>2026-05-03T15:43:24.238Z</time></trkpt><trkpt lat="44.3043747" lon="8.0451803"><ele>488.0</ele><time>2026-05-03T15:43:25.237Z</time></trkpt><trkpt lat="44.3042048" lon="8.0451098"><ele>488.0</ele><time>2026-05-03T15:43:26.238Z</time></trkpt><trkpt lat="44.3040282" lon="8.0450401"><ele>488.0</ele><time>2026-05-03T15:43:27.237Z</time></trkpt><trkpt lat="44.3038517" lon="8.0449699"><ele>490.0</ele><time>2026-05-03T15:43:28.237Z</time></trkpt><trkpt lat="44.3036786" lon="8.0449044"><ele>492.0</ele><time>2026-05-03T15:43:29.237Z</time></trkpt><trkpt lat="44.3034996" lon="8.0448404"><ele>494.0</ele><time>2026-05-03T15:43:30.238Z</time></trkpt><trkpt lat="44.3033241" lon="8.0447776"><ele>494.0</ele><time>2026-05-03T15:43:31.237Z</time></trkpt><trkpt lat="44.3031544" lon="8.0447016"><ele>494.0</ele><time>2026-05-03T15:43:32.238Z</time></trkpt><trkpt lat="44.3029896" lon="8.0446281"><ele>494.0</ele><time>2026-05-03T15:43:33.237Z</time></trkpt><trkpt lat="44.3028155" lon="8.0445647"><ele>494.0</ele><time>2026-05-03T15:43:34.237Z</time></trkpt><trkpt lat="44.3026359" lon="8.0444875"><ele>494.0</ele><time>2026-05-03T15:43:35.237Z</time></trkpt><trkpt lat="44.3024562" lon="8.04442"><ele>494.0</ele><time>2026-05-03T15:43:36.238Z</time></trkpt><trkpt lat="44.3022771" lon="8.0443453"><ele>493.66666666666663</ele><time>2026-05-03T15:43:37.237Z</time></trkpt><trkpt lat="44.3021025" lon="8.0442884"><ele>493.33333333333337</ele><time>2026-05-03T15:43:38.237Z</time></trkpt><trkpt lat="44.3019523" lon="8.0442417"><ele>493.0</ele><time>2026-05-03T15:43:39.238Z</time></trkpt><trkpt lat="44.301814" lon="8.0442199"><ele>493.0</ele><time>2026-05-03T15:43:40.237Z</time></trkpt><trkpt lat="44.3016811" lon="8.0442176"><ele>493.0</ele><time>2026-05-03T15:43:41.238Z</time></trkpt><trkpt lat="44.3015378" lon="8.0442428"><ele>493.0</ele><time>2026-05-03T15:43:42.237Z</time></trkpt><trkpt lat="44.301399" lon="8.0442958"><ele>493.0</ele><time>2026-05-03T15:43:43.237Z</time></trkpt><trkpt lat="44.3012699" lon="8.0443588"><ele>493.0</ele><time>2026-05-03T15:43:44.237Z</time></trkpt><trkpt lat="44.3011534" lon="8.0444167"><ele>493.0</ele><time>2026-05-03T15:43:45.237Z</time></trkpt><trkpt lat="44.3010446" lon="8.0444747"><ele>493.0</ele><time>2026-05-03T15:43:46.237Z</time></trkpt><trkpt lat="44.3009274" lon="8.0445399"><ele>493.0</ele><time>2026-05-03T15:43:47.237Z</time></trkpt><trkpt lat="44.3008094" lon="8.0446083"><ele>493.0</ele><time>2026-05-03T15:43:48.237Z</time></trkpt><trkpt lat="44.3006756" lon="8.0446798"><ele>493.0</ele><time>2026-05-03T15:43:49.237Z</time></trkpt><trkpt lat="44.3005246" lon="8.04476"><ele>493.0</ele><time>2026-05-03T15:43:50.237Z</time></trkpt><trkpt lat="44.3003677" lon="8.0448528"><ele>491.6666666666667</ele><time>2026-05-03T15:43:51.237Z</time></trkpt><trkpt lat="44.3002006" lon="8.0449361"><ele>490.33333333333337</ele><time>2026-05-03T15:43:52.237Z</time></trkpt><trkpt lat="44.3000207" lon="8.0450068"><ele>489.0</ele><time>2026-05-03T15:43:53.237Z</time></trkpt><trkpt lat="44.2998403" lon="8.0450385"><ele>488.66666666666663</ele><time>2026-05-03T15:43:54.237Z</time></trkpt><trkpt lat="44.2996609" lon="8.0450209"><ele>488.3333333333333</ele><time>2026-05-03T15:43:55.238Z</time></trkpt><trkpt lat="44.2994858" lon="8.0449621"><ele>488.0</ele><time>2026-05-03T15:43:56.237Z</time></trkpt><trkpt lat="44.2993343" lon="8.0448643"><ele>488.66666666666663</ele><time>2026-05-03T15:43:57.238Z</time></trkpt><trkpt lat="44.2992044" lon="8.044716"><ele>489.33333333333337</ele><time>2026-05-03T15:43:58.237Z</time></trkpt><trkpt lat="44.2990821" lon="8.0445307"><ele>490.0</ele><time>2026-05-03T15:43:59.238Z</time></trkpt><trkpt lat="44.2989737" lon="8.0442997"><ele>490.0</ele><time>2026-05-03T15:44:00.237Z</time></trkpt><trkpt lat="44.2988782" lon="8.0440515"><ele>490.0</ele><time>2026-05-03T15:44:01.237Z</time></trkpt><trkpt lat="44.298777" lon="8.0438276"><ele>490.0</ele><time>2026-05-03T15:44:02.238Z</time></trkpt><trkpt lat="44.2986644" lon="8.0436091"><ele>490.0</ele><time>2026-05-03T15:44:03.238Z</time></trkpt><trkpt lat="44.2985397" lon="8.0434057"><ele>490.0</ele><time>2026-05-03T15:44:04.237Z</time></trkpt><trkpt lat="44.2983937" lon="8.0432346"><ele>490.0</ele><time>2026-05-03T15:44:05.237Z</time></trkpt><trkpt lat="44.298225" lon="8.0430708"><ele>490.6666666666667</ele><time>2026-05-03T15:44:06.237Z</time></trkpt><trkpt lat="44.2980544" lon="8.0429181"><ele>491.33333333333337</ele><time>2026-05-03T15:44:07.237Z</time></trkpt><trkpt lat="44.2978996" lon="8.0427757"><ele>492.0</ele><time>2026-05-03T15:44:08.237Z</time></trkpt><trkpt lat="44.2977427" lon="8.0426576"><ele>492.0</ele><time>2026-05-03T15:44:09.238Z</time></trkpt><trkpt lat="44.2975776" lon="8.0425679"><ele>492.0</ele><time>2026-05-03T15:44:10.237Z</time></trkpt><trkpt lat="44.2973979" lon="8.042487"><ele>492.0</ele><time>2026-05-03T15:44:11.238Z</time></trkpt><trkpt lat="44.2972123" lon="8.0423704"><ele>492.66666666666663</ele><time>2026-05-03T15:44:12.237Z</time></trkpt><trkpt lat="44.2970429" lon="8.0422255"><ele>493.3333333333333</ele><time>2026-05-03T15:44:13.238Z</time></trkpt><trkpt lat="44.2968841" lon="8.0420718"><ele>494.0</ele><time>2026-05-03T15:44:14.237Z</time></trkpt><trkpt lat="44.2967428" lon="8.0418911"><ele>494.0</ele><time>2026-05-03T15:44:15.238Z</time></trkpt><trkpt lat="44.2966182" lon="8.0416904"><ele>494.0</ele><time>2026-05-03T15:44:16.238Z</time></trkpt><trkpt lat="44.2965103" lon="8.0414552"><ele>494.0</ele><time>2026-05-03T15:44:17.237Z</time></trkpt><trkpt lat="44.296416" lon="8.041228"><ele>493.5</ele><time>2026-05-03T15:44:18.238Z</time></trkpt><trkpt lat="44.2963474" lon="8.0410275"><ele>493.0</ele><time>2026-05-03T15:44:19.238Z</time></trkpt><trkpt lat="44.2962805" lon="8.0408557"><ele>492.5</ele><time>2026-05-03T15:44:20.238Z</time></trkpt><trkpt lat="44.2962177" lon="8.0406982"><ele>492.0</ele><time>2026-05-03T15:44:21.237Z</time></trkpt><trkpt lat="44.296158" lon="8.0405479"><ele>492.0</ele><time>2026-05-03T15:44:22.238Z</time></trkpt><trkpt lat="44.2960924" lon="8.0403777"><ele>492.0</ele><time>2026-05-03T15:44:23.237Z</time></trkpt><trkpt lat="44.2960222" lon="8.0402059"><ele>492.0</ele><time>2026-05-03T15:44:24.237Z</time></trkpt><trkpt lat="44.2959526" lon="8.0400418"><ele>492.0</ele><time>2026-05-03T15:44:25.237Z</time></trkpt><trkpt lat="44.2958763" lon="8.0398807"><ele>491.5</ele><time>2026-05-03T15:44:26.237Z</time></trkpt><trkpt lat="44.2957999" lon="8.0397271"><ele>491.0</ele><time>2026-05-03T15:44:27.237Z</time></trkpt><trkpt lat="44.2957127" lon="8.0395779"><ele>490.5</ele><time>2026-05-03T15:44:28.237Z</time></trkpt><trkpt lat="44.2956232" lon="8.0394253"><ele>490.0</ele><time>2026-05-03T15:44:29.238Z</time></trkpt><trkpt lat="44.2955365" lon="8.0392716"><ele>490.5</ele><time>2026-05-03T15:44:30.237Z</time></trkpt><trkpt lat="44.2954509" lon="8.0391126"><ele>491.0</ele><time>2026-05-03T15:44:31.237Z</time></trkpt><trkpt lat="44.2953628" lon="8.0389532"><ele>491.5</ele><time>2026-05-03T15:44:32.237Z</time></trkpt><trkpt lat="44.2952729" lon="8.0387921"><ele>492.0</ele><time>2026-05-03T15:44:33.237Z</time></trkpt><trkpt lat="44.2951823" lon="8.0386289"><ele>492.0</ele><time>2026-05-03T15:44:34.237Z</time></trkpt><trkpt lat="44.2950903" lon="8.038461"><ele>492.0</ele><time>2026-05-03T15:44:35.238Z</time></trkpt><trkpt lat="44.2949999" lon="8.0382915"><ele>492.0</ele><time>2026-05-03T15:44:36.238Z</time></trkpt><trkpt lat="44.2949119" lon="8.0381272"><ele>491.66666666666663</ele><time>2026-05-03T15:44:37.237Z</time></trkpt><trkpt lat="44.2948213" lon="8.0379591"><ele>491.3333333333333</ele><time>2026-05-03T15:44:38.238Z</time></trkpt><trkpt lat="44.2947294" lon="8.0377845"><ele>491.0</ele><time>2026-05-03T15:44:39.237Z</time></trkpt><trkpt lat="44.294632" lon="8.0376137"><ele>492.3333333333333</ele><time>2026-05-03T15:44:40.237Z</time></trkpt><trkpt lat="44.2945351" lon="8.0374387"><ele>493.66666666666663</ele><time>2026-05-03T15:44:41.238Z</time></trkpt><trkpt lat="44.2944387" lon="8.0372593"><ele>495.0</ele><time>2026-05-03T15:44:42.237Z</time></trkpt><trkpt lat="44.2943385" lon="8.0370775"><ele>495.0</ele><time>2026-05-03T15:44:43.238Z</time></trkpt><trkpt lat="44.2942394" lon="8.0368976"><ele>495.0</ele><time>2026-05-03T15:44:44.237Z</time></trkpt><trkpt lat="44.2941451" lon="8.0367282"><ele>495.0</ele><time>2026-05-03T15:44:45.237Z</time></trkpt><trkpt lat="44.294056" lon="8.0365725"><ele>495.25</ele><time>2026-05-03T15:44:46.237Z</time></trkpt><trkpt lat="44.2939744" lon="8.0364233"><ele>495.5</ele><time>2026-05-03T15:44:47.238Z</time></trkpt><trkpt lat="44.2938898" lon="8.0362931"><ele>495.75</ele><time>2026-05-03T15:44:48.237Z</time></trkpt><trkpt lat="44.2938029" lon="8.0361664"><ele>496.0</ele><time>2026-05-03T15:44:49.237Z</time></trkpt><trkpt lat="44.2937024" lon="8.0360496"><ele>496.0</ele><time>2026-05-03T15:44:50.237Z</time></trkpt><trkpt lat="44.2935952" lon="8.0359467"><ele>496.0</ele><time>2026-05-03T15:44:51.237Z</time></trkpt><trkpt lat="44.2934785" lon="8.0358682"><ele>496.0</ele><time>2026-05-03T15:44:52.237Z</time></trkpt><trkpt lat="44.2933502" lon="8.0358161"><ele>496.0</ele><time>2026-05-03T15:44:53.237Z</time></trkpt><trkpt lat="44.2932194" lon="8.0357617"><ele>496.6666666666667</ele><time>2026-05-03T15:44:54.237Z</time></trkpt><trkpt lat="44.2930762" lon="8.0357077"><ele>497.33333333333337</ele><time>2026-05-03T15:44:55.237Z</time></trkpt><trkpt lat="44.2929249" lon="8.0356545"><ele>498.0</ele><time>2026-05-03T15:44:56.237Z</time></trkpt><trkpt lat="44.2927638" lon="8.0355937"><ele>498.0</ele><time>2026-05-03T15:44:57.238Z</time></trkpt><trkpt lat="44.2926054" lon="8.0355229"><ele>498.0</ele><time>2026-05-03T15:44:58.237Z</time></trkpt><trkpt lat="44.2924508" lon="8.0354661"><ele>498.0</ele><time>2026-05-03T15:44:59.238Z</time></trkpt><trkpt lat="44.2922943" lon="8.0354028"><ele>497.33333333333337</ele><time>2026-05-03T15:45:00.237Z</time></trkpt><trkpt lat="44.292137" lon="8.0353388"><ele>496.6666666666667</ele><time>2026-05-03T15:45:01.237Z</time></trkpt><trkpt lat="44.2919753" lon="8.0352711"><ele>496.0</ele><time>2026-05-03T15:45:02.237Z</time></trkpt><trkpt lat="44.2918153" lon="8.0352001"><ele>496.0</ele><time>2026-05-03T15:45:03.237Z</time></trkpt><trkpt lat="44.2916616" lon="8.0351332"><ele>496.0</ele><time>2026-05-03T15:45:04.238Z</time></trkpt><trkpt lat="44.2915034" lon="8.0350709"><ele>496.0</ele><time>2026-05-03T15:45:05.237Z</time></trkpt><trkpt lat="44.2913419" lon="8.0350049"><ele>497.0</ele><time>2026-05-03T15:45:06.237Z</time></trkpt><trkpt lat="44.2911865" lon="8.03494"><ele>498.0</ele><time>2026-05-03T15:45:07.237Z</time></trkpt><trkpt lat="44.291029" lon="8.034871"><ele>499.0</ele><time>2026-05-03T15:45:08.237Z</time></trkpt><trkpt lat="44.2908718" lon="8.0347978"><ele>499.0</ele><time>2026-05-03T15:45:09.238Z</time></trkpt><trkpt lat="44.2907128" lon="8.0347345"><ele>499.0</ele><time>2026-05-03T15:45:10.237Z</time></trkpt><trkpt lat="44.2905567" lon="8.0346735"><ele>499.0</ele><time>2026-05-03T15:45:11.238Z</time></trkpt><trkpt lat="44.2903995" lon="8.03461"><ele>498.33333333333337</ele><time>2026-05-03T15:45:12.237Z</time></trkpt><trkpt lat="44.2902475" lon="8.0345434"><ele>497.66666666666663</ele><time>2026-05-03T15:45:13.237Z</time></trkpt><trkpt lat="44.290096" lon="8.0344851"><ele>497.0</ele><time>2026-05-03T15:45:14.238Z</time></trkpt><trkpt lat="44.2899442" lon="8.0344288"><ele>497.0</ele><time>2026-05-03T15:45:15.238Z</time></trkpt><trkpt lat="44.2897967" lon="8.0343725"><ele>497.0</ele><time>2026-05-03T15:45:16.237Z</time></trkpt><trkpt lat="44.289648" lon="8.0343134"><ele>497.0</ele><time>2026-05-03T15:45:17.237Z</time></trkpt><trkpt lat="44.2895002" lon="8.0342563"><ele>496.66666666666663</ele><time>2026-05-03T15:45:18.238Z</time></trkpt><trkpt lat="44.2893537" lon="8.0341989"><ele>496.33333333333337</ele><time>2026-05-03T15:45:19.237Z</time></trkpt><trkpt lat="44.2892079" lon="8.0341386"><ele>496.0</ele><time>2026-05-03T15:45:20.237Z</time></trkpt><trkpt lat="44.2890625" lon="8.0340701"><ele>499.6666666666667</ele><time>2026-05-03T15:45:21.237Z</time></trkpt><trkpt lat="44.2889149" lon="8.0340087"><ele>503.33333333333337</ele><time>2026-05-03T15:45:22.237Z</time></trkpt><trkpt lat="44.288768" lon="8.0339412"><ele>507.0</ele><time>2026-05-03T15:45:23.237Z</time></trkpt><trkpt lat="44.2886187" lon="8.0338618"><ele>507.0</ele><time>2026-05-03T15:45:24.237Z</time></trkpt><trkpt lat="44.2884669" lon="8.0337796"><ele>507.0</ele><time>2026-05-03T15:45:25.237Z</time></trkpt><trkpt lat="44.288299" lon="8.0336913"><ele>507.0</ele><time>2026-05-03T15:45:26.237Z</time></trkpt><trkpt lat="44.288109" lon="8.0335981"><ele>505.66666666666663</ele><time>2026-05-03T15:45:27.238Z</time></trkpt><trkpt lat="44.287903" lon="8.033497"><ele>504.3333333333333</ele><time>2026-05-03T15:45:28.237Z</time></trkpt><trkpt lat="44.2876856" lon="8.0334001"><ele>503.0</ele><time>2026-05-03T15:45:29.237Z</time></trkpt><trkpt lat="44.2874564" lon="8.0333183"><ele>511.0</ele><time>2026-05-03T15:45:30.237Z</time></trkpt><trkpt lat="44.2872198" lon="8.0332582"><ele>519.0</ele><time>2026-05-03T15:45:31.238Z</time></trkpt><trkpt lat="44.2869705" lon="8.0332145"><ele>519.0</ele><time>2026-05-03T15:45:32.238Z</time></trkpt><trkpt lat="44.2867188" lon="8.0331656"><ele>519.0</ele><time>2026-05-03T15:45:33.237Z</time></trkpt><trkpt lat="44.2864676" lon="8.0331038"><ele>516.0</ele><time>2026-05-03T15:45:34.238Z</time></trkpt><trkpt lat="44.2862193" lon="8.0330255"><ele>513.0</ele><time>2026-05-03T15:45:35.237Z</time></trkpt><trkpt lat="44.285977" lon="8.0329395"><ele>513.0</ele><time>2026-05-03T15:45:36.237Z</time></trkpt><trkpt lat="44.285742" lon="8.0328545"><ele>513.0</ele><time>2026-05-03T15:45:37.237Z</time></trkpt><trkpt lat="44.2855131" lon="8.0327778"><ele>512.5</ele><time>2026-05-03T15:45:38.238Z</time></trkpt><trkpt lat="44.2852888" lon="8.0327146"><ele>512.0</ele><time>2026-05-03T15:45:39.237Z</time></trkpt><trkpt lat="44.2850659" lon="8.0326813"><ele>512.0</ele><time>2026-05-03T15:45:40.237Z</time></trkpt><trkpt lat="44.2848364" lon="8.0326951"><ele>512.0</ele><time>2026-05-03T15:45:41.237Z</time></trkpt><trkpt lat="44.2846077" lon="8.0327358"><ele>512.0</ele><time>2026-05-03T15:45:42.238Z</time></trkpt><trkpt lat="44.2843763" lon="8.0327483"><ele>512.0</ele><time>2026-05-03T15:45:43.237Z</time></trkpt><trkpt lat="44.2841444" lon="8.0327196"><ele>511.0</ele><time>2026-05-03T15:45:44.237Z</time></trkpt><trkpt lat="44.2839174" lon="8.0326747"><ele>510.0</ele><time>2026-05-03T15:45:45.237Z</time></trkpt><trkpt lat="44.2836884" lon="8.0326367"><ele>510.0</ele><time>2026-05-03T15:45:46.237Z</time></trkpt><trkpt lat="44.2834591" lon="8.0326516"><ele>510.0</ele><time>2026-05-03T15:45:47.237Z</time></trkpt><trkpt lat="44.2832263" lon="8.032698"><ele>521.5</ele><time>2026-05-03T15:45:48.238Z</time></trkpt><trkpt lat="44.2829935" lon="8.0327949"><ele>533.0</ele><time>2026-05-03T15:45:49.237Z</time></trkpt><trkpt lat="44.2827694" lon="8.0329244"><ele>533.0</ele><time>2026-05-03T15:45:50.237Z</time></trkpt><trkpt lat="44.282559" lon="8.0330734"><ele>533.0</ele><time>2026-05-03T15:45:51.237Z</time></trkpt><trkpt lat="44.2823495" lon="8.0332283"><ele>531.5</ele><time>2026-05-03T15:45:52.238Z</time></trkpt><trkpt lat="44.2821481" lon="8.0333888"><ele>530.0</ele><time>2026-05-03T15:45:53.237Z</time></trkpt><trkpt lat="44.2819524" lon="8.0335614"><ele>530.0</ele><time>2026-05-03T15:45:54.237Z</time></trkpt><trkpt lat="44.2817578" lon="8.0337454"><ele>530.0</ele><time>2026-05-03T15:45:55.238Z</time></trkpt><trkpt lat="44.2815685" lon="8.0339284"><ele>538.5</ele><time>2026-05-03T15:45:56.238Z</time></trkpt><trkpt lat="44.2813756" lon="8.0341149"><ele>547.0</ele><time>2026-05-03T15:45:57.237Z</time></trkpt><trkpt lat="44.2811791" lon="8.0342989"><ele>528.0</ele><time>2026-05-03T15:45:58.237Z</time></trkpt><trkpt lat="44.2809765" lon="8.0344719"><ele>509.0</ele><time>2026-05-03T15:45:59.237Z</time></trkpt><trkpt lat="44.2807744" lon="8.03463"><ele>508.3333333333333</ele><time>2026-05-03T15:46:00.237Z</time></trkpt><trkpt lat="44.2805778" lon="8.0347823"><ele>507.66666666666663</ele><time>2026-05-03T15:46:01.237Z</time></trkpt><trkpt lat="44.2803921" lon="8.0349265"><ele>507.0</ele><time>2026-05-03T15:46:02.237Z</time></trkpt><trkpt lat="44.2802224" lon="8.0350524"><ele>507.0</ele><time>2026-05-03T15:46:03.238Z</time></trkpt><trkpt lat="44.2800521" lon="8.0351414"><ele>507.0</ele><time>2026-05-03T15:46:04.237Z</time></trkpt><trkpt lat="44.279883" lon="8.0351771"><ele>507.0</ele><time>2026-05-03T15:46:05.238Z</time></trkpt><trkpt lat="44.2797114" lon="8.035171"><ele>507.0</ele><time>2026-05-03T15:46:06.237Z</time></trkpt><trkpt lat="44.2795312" lon="8.0351112"><ele>507.0</ele><time>2026-05-03T15:46:07.237Z</time></trkpt><trkpt lat="44.2793693" lon="8.0350082"><ele>507.0</ele><time>2026-05-03T15:46:08.238Z</time></trkpt><trkpt lat="44.279229" lon="8.0348592"><ele>508.33333333333337</ele><time>2026-05-03T15:46:09.237Z</time></trkpt><trkpt lat="44.2791041" lon="8.034704"><ele>509.6666666666667</ele><time>2026-05-03T15:46:10.238Z</time></trkpt><trkpt lat="44.2789714" lon="8.034576"><ele>511.0</ele><time>2026-05-03T15:46:11.238Z</time></trkpt><trkpt lat="44.2788282" lon="8.0344745"><ele>511.0</ele><time>2026-05-03T15:46:12.238Z</time></trkpt><trkpt lat="44.2786541" lon="8.0344196"><ele>511.0</ele><time>2026-05-03T15:46:13.238Z</time></trkpt><trkpt lat="44.278456" lon="8.0343793"><ele>511.0</ele><time>2026-05-03T15:46:14.237Z</time></trkpt><trkpt lat="44.2782385" lon="8.034369"><ele>511.6666666666667</ele><time>2026-05-03T15:46:15.237Z</time></trkpt><trkpt lat="44.2780179" lon="8.0343637"><ele>512.3333333333334</ele><time>2026-05-03T15:46:16.237Z</time></trkpt><trkpt lat="44.2777902" lon="8.0343596"><ele>513.0</ele><time>2026-05-03T15:46:17.238Z</time></trkpt><trkpt lat="44.2775551" lon="8.0343496"><ele>513.0</ele><time>2026-05-03T15:46:18.238Z</time></trkpt><trkpt lat="44.2773122" lon="8.0343442"><ele>513.0</ele><time>2026-05-03T15:46:19.237Z</time></trkpt><trkpt lat="44.2770696" lon="8.0343313"><ele>515.5</ele><time>2026-05-03T15:46:20.238Z</time></trkpt><trkpt lat="44.2768276" lon="8.0343217"><ele>518.0</ele><time>2026-05-03T15:46:21.237Z</time></trkpt><trkpt lat="44.2765935" lon="8.0343167"><ele>517.6666666666666</ele><time>2026-05-03T15:46:22.237Z</time></trkpt><trkpt lat="44.2763758" lon="8.0343067"><ele>517.3333333333334</ele><time>2026-05-03T15:46:23.237Z</time></trkpt><trkpt lat="44.2761709" lon="8.034271"><ele>517.0</ele><time>2026-05-03T15:46:24.237Z</time></trkpt><trkpt lat="44.2759764" lon="8.0341886"><ele>519.0</ele><time>2026-05-03T15:46:25.238Z</time></trkpt><trkpt lat="44.2757894" lon="8.0340492"><ele>521.0</ele><time>2026-05-03T15:46:26.238Z</time></trkpt><trkpt lat="44.2756037" lon="8.033874"><ele>523.0</ele><time>2026-05-03T15:46:27.237Z</time></trkpt><trkpt lat="44.2754149" lon="8.0336887"><ele>523.0</ele><time>2026-05-03T15:46:28.237Z</time></trkpt><trkpt lat="44.2752184" lon="8.033511"><ele>523.0</ele><time>2026-05-03T15:46:29.237Z</time></trkpt><trkpt lat="44.2750348" lon="8.0333374"><ele>521.6666666666667</ele><time>2026-05-03T15:46:30.238Z</time></trkpt><trkpt lat="44.2748696" lon="8.033151"><ele>520.3333333333334</ele><time>2026-05-03T15:46:31.237Z</time></trkpt><trkpt lat="44.2747238" lon="8.0329198"><ele>519.0</ele><time>2026-05-03T15:46:32.237Z</time></trkpt><trkpt lat="44.2745888" lon="8.032649"><ele>527.0</ele><time>2026-05-03T15:46:33.237Z</time></trkpt><trkpt lat="44.2744562" lon="8.0323724"><ele>535.0</ele><time>2026-05-03T15:46:34.237Z</time></trkpt><trkpt lat="44.2743365" lon="8.0320909"><ele>535.0</ele><time>2026-05-03T15:46:35.237Z</time></trkpt><trkpt lat="44.2742172" lon="8.0318229"><ele>535.0</ele><time>2026-05-03T15:46:36.238Z</time></trkpt><trkpt lat="44.2741059" lon="8.0315726"><ele>535.0</ele><time>2026-05-03T15:46:37.237Z</time></trkpt><trkpt lat="44.2739863" lon="8.031341"><ele>531.6666666666667</ele><time>2026-05-03T15:46:38.238Z</time></trkpt><trkpt lat="44.2738495" lon="8.0311449"><ele>528.3333333333334</ele><time>2026-05-03T15:46:39.238Z</time></trkpt><trkpt lat="44.2736879" lon="8.0309876"><ele>525.0</ele><time>2026-05-03T15:46:40.238Z</time></trkpt><trkpt lat="44.2735012" lon="8.0308847"><ele>525.0</ele><time>2026-05-03T15:46:41.238Z</time></trkpt><trkpt lat="44.2732892" lon="8.0308253"><ele>525.0</ele><time>2026-05-03T15:46:42.237Z</time></trkpt><trkpt lat="44.2730637" lon="8.0307693"><ele>525.0</ele><time>2026-05-03T15:46:43.237Z</time></trkpt><trkpt lat="44.2728279" lon="8.0306992"><ele>523.5</ele><time>2026-05-03T15:46:44.237Z</time></trkpt><trkpt lat="44.2725814" lon="8.0306376"><ele>522.0</ele><time>2026-05-03T15:46:45.238Z</time></trkpt><trkpt lat="44.272339" lon="8.0305598"><ele>520.5</ele><time>2026-05-03T15:46:46.237Z</time></trkpt><trkpt lat="44.2720908" lon="8.0304873"><ele>519.0</ele><time>2026-05-03T15:46:47.237Z</time></trkpt><trkpt lat="44.2718384" lon="8.030409"><ele>519.0</ele><time>2026-05-03T15:46:48.237Z</time></trkpt><trkpt lat="44.2715894" lon="8.0303312"><ele>519.0</ele><time>2026-05-03T15:46:49.237Z</time></trkpt><trkpt lat="44.2713394" lon="8.0302597"><ele>520.0</ele><time>2026-05-03T15:46:50.237Z</time></trkpt><trkpt lat="44.2710993" lon="8.0301878"><ele>521.0</ele><time>2026-05-03T15:46:51.237Z</time></trkpt><trkpt lat="44.2708539" lon="8.0301179"><ele>521.0</ele><time>2026-05-03T15:46:52.237Z</time></trkpt><trkpt lat="44.2706132" lon="8.03005"><ele>521.0</ele><time>2026-05-03T15:46:53.238Z</time></trkpt><trkpt lat="44.2703785" lon="8.0299859"><ele>523.0</ele><time>2026-05-03T15:46:54.237Z</time></trkpt><trkpt lat="44.2701474" lon="8.0299168"><ele>525.0</ele><time>2026-05-03T15:46:55.237Z</time></trkpt><trkpt lat="44.2699177" lon="8.029849"><ele>522.0</ele><time>2026-05-03T15:46:56.237Z</time></trkpt><trkpt lat="44.2696864" lon="8.0297811"><ele>519.0</ele><time>2026-05-03T15:46:57.237Z</time></trkpt><trkpt lat="44.2694546" lon="8.0297069"><ele>519.0</ele><time>2026-05-03T15:46:58.237Z</time></trkpt><trkpt lat="44.2692213" lon="8.0296106"><ele>519.0</ele><time>2026-05-03T15:46:59.237Z</time></trkpt><trkpt lat="44.2689949" lon="8.0294853"><ele>517.5</ele><time>2026-05-03T15:47:00.237Z</time></trkpt><trkpt lat="44.2687759" lon="8.0293488"><ele>516.0</ele><time>2026-05-03T15:47:01.238Z</time></trkpt><trkpt lat="44.2685632" lon="8.0292057"><ele>516.0</ele><time>2026-05-03T15:47:02.237Z</time></trkpt><trkpt lat="44.268358" lon="8.0290757"><ele>516.0</ele><time>2026-05-03T15:47:03.238Z</time></trkpt><trkpt lat="44.2681508" lon="8.028939"><ele>517.0</ele><time>2026-05-03T15:47:04.238Z</time></trkpt><trkpt lat="44.2679418" lon="8.0288023"><ele>518.0</ele><time>2026-05-03T15:47:05.237Z</time></trkpt><trkpt lat="44.2677305" lon="8.0286735"><ele>518.0</ele><time>2026-05-03T15:47:06.237Z</time></trkpt><trkpt lat="44.2675229" lon="8.0285455"><ele>518.0</ele><time>2026-05-03T15:47:07.238Z</time></trkpt><trkpt lat="44.2673127" lon="8.0284148"><ele>519.0</ele><time>2026-05-03T15:47:08.237Z</time></trkpt><trkpt lat="44.2670959" lon="8.0282775"><ele>520.0</ele><time>2026-05-03T15:47:09.238Z</time></trkpt><trkpt lat="44.2668783" lon="8.0281392"><ele>520.0</ele><time>2026-05-03T15:47:10.237Z</time></trkpt><trkpt lat="44.2666571" lon="8.0280024"><ele>520.0</ele><time>2026-05-03T15:47:11.237Z</time></trkpt><trkpt lat="44.2664324" lon="8.0278687"><ele>521.0</ele><time>2026-05-03T15:47:12.237Z</time></trkpt><trkpt lat="44.2662039" lon="8.0277288"><ele>522.0</ele><time>2026-05-03T15:47:13.237Z</time></trkpt><trkpt lat="44.2659734" lon="8.0275862"><ele>523.5</ele><time>2026-05-03T15:47:14.237Z</time></trkpt><trkpt lat="44.2657433" lon="8.027444"><ele>525.0</ele><time>2026-05-03T15:47:15.238Z</time></trkpt><trkpt lat="44.2655146" lon="8.0272995"><ele>526.0</ele><time>2026-05-03T15:47:16.237Z</time></trkpt><trkpt lat="44.2652862" lon="8.0271489"><ele>527.0</ele><time>2026-05-03T15:47:17.237Z</time></trkpt><trkpt lat="44.2650573" lon="8.0270035"><ele>527.0</ele><time>2026-05-03T15:47:18.238Z</time></trkpt><trkpt lat="44.264825" lon="8.0268548"><ele>527.0</ele><time>2026-05-03T15:47:19.237Z</time></trkpt><trkpt lat="44.2646001" lon="8.0267138"><ele>528.0</ele><time>2026-05-03T15:47:20.238Z</time></trkpt><trkpt lat="44.2643756" lon="8.0265779"><ele>529.0</ele><time>2026-05-03T15:47:21.237Z</time></trkpt><trkpt lat="44.2641519" lon="8.026434"><ele>529.0</ele><time>2026-05-03T15:47:22.237Z</time></trkpt><trkpt lat="44.2639244" lon="8.0262908"><ele>529.0</ele><time>2026-05-03T15:47:23.237Z</time></trkpt><trkpt lat="44.2637014" lon="8.0261431"><ele>529.0</ele><time>2026-05-03T15:47:24.237Z</time></trkpt><trkpt lat="44.2634851" lon="8.0260059"><ele>529.0</ele><time>2026-05-03T15:47:25.237Z</time></trkpt><trkpt lat="44.2632752" lon="8.0258714"><ele>529.0</ele><time>2026-05-03T15:47:26.237Z</time></trkpt><trkpt lat="44.2630703" lon="8.0257462"><ele>529.0</ele><time>2026-05-03T15:47:27.237Z</time></trkpt><trkpt lat="44.2628671" lon="8.0256191"><ele>529.0</ele><time>2026-05-03T15:47:28.237Z</time></trkpt><trkpt lat="44.2626549" lon="8.025493"><ele>529.0</ele><time>2026-05-03T15:47:29.237Z</time></trkpt><trkpt lat="44.2624375" lon="8.0253565"><ele>529.0</ele><time>2026-05-03T15:47:30.237Z</time></trkpt><trkpt lat="44.2622177" lon="8.0252145"><ele>526.5</ele><time>2026-05-03T15:47:31.238Z</time></trkpt><trkpt lat="44.2619925" lon="8.0250701"><ele>524.0</ele><time>2026-05-03T15:47:32.237Z</time></trkpt><trkpt lat="44.2617589" lon="8.0249326"><ele>524.0</ele><time>2026-05-03T15:47:33.237Z</time></trkpt><trkpt lat="44.2615307" lon="8.0247876"><ele>524.0</ele><time>2026-05-03T15:47:34.238Z</time></trkpt><trkpt lat="44.2612982" lon="8.0246426"><ele>526.0</ele><time>2026-05-03T15:47:35.237Z</time></trkpt><trkpt lat="44.2610668" lon="8.0244953"><ele>528.0</ele><time>2026-05-03T15:47:36.237Z</time></trkpt><trkpt lat="44.2608358" lon="8.0243555"><ele>526.5</ele><time>2026-05-03T15:47:37.238Z</time></trkpt><trkpt lat="44.2606052" lon="8.0242096"><ele>525.0</ele><time>2026-05-03T15:47:38.237Z</time></trkpt><trkpt lat="44.2603725" lon="8.0240618"><ele>532.0</ele><time>2026-05-03T15:47:39.237Z</time></trkpt><trkpt lat="44.2601396" lon="8.0239159"><ele>539.0</ele><time>2026-05-03T15:47:40.238Z</time></trkpt><trkpt lat="44.2599186" lon="8.0237742"><ele>534.0</ele><time>2026-05-03T15:47:41.237Z</time></trkpt><trkpt lat="44.2597016" lon="8.0236388"><ele>529.0</ele><time>2026-05-03T15:47:42.237Z</time></trkpt><trkpt lat="44.259496" lon="8.0235111"><ele>529.0</ele><time>2026-05-03T15:47:43.237Z</time></trkpt><trkpt lat="44.2593085" lon="8.0233692"><ele>529.0</ele><time>2026-05-03T15:47:44.237Z</time></trkpt><trkpt lat="44.2591346" lon="8.0231946"><ele>529.0</ele><time>2026-05-03T15:47:45.238Z</time></trkpt><trkpt lat="44.2589858" lon="8.0230116"><ele>530.3333333333334</ele><time>2026-05-03T15:47:46.237Z</time></trkpt><trkpt lat="44.2588525" lon="8.022833"><ele>531.6666666666666</ele><time>2026-05-03T15:47:47.237Z</time></trkpt><trkpt lat="44.2587363" lon="8.0226742"><ele>533.0</ele><time>2026-05-03T15:47:48.238Z</time></trkpt><trkpt lat="44.2586271" lon="8.0225255"><ele>534.75</ele><time>2026-05-03T15:47:49.237Z</time></trkpt><trkpt lat="44.2585278" lon="8.0223896"><ele>536.5</ele><time>2026-05-03T15:47:50.237Z</time></trkpt><trkpt lat="44.2584361" lon="8.0222681"><ele>538.25</ele><time>2026-05-03T15:47:51.237Z</time></trkpt><trkpt lat="44.2583455" lon="8.0221414"><ele>540.0</ele><time>2026-05-03T15:47:52.238Z</time></trkpt><trkpt lat="44.2582504" lon="8.0220191"><ele>540.0</ele><time>2026-05-03T15:47:53.237Z</time></trkpt><trkpt lat="44.2581544" lon="8.0218927"><ele>540.0</ele><time>2026-05-03T15:47:54.237Z</time></trkpt><trkpt lat="44.2580568" lon="8.0217741"><ele>540.0</ele><time>2026-05-03T15:47:55.238Z</time></trkpt><trkpt lat="44.2579561" lon="8.021657"><ele>540.0</ele><time>2026-05-03T15:47:56.238Z</time></trkpt><trkpt lat="44.2578436" lon="8.0215562"><ele>540.5</ele><time>2026-05-03T15:47:57.237Z</time></trkpt><trkpt lat="44.2577221" lon="8.0214616"><ele>541.0</ele><time>2026-05-03T15:47:58.237Z</time></trkpt><trkpt lat="44.2575922" lon="8.0213745"><ele>541.5</ele><time>2026-05-03T15:47:59.238Z</time></trkpt><trkpt lat="44.2574586" lon="8.0212886"><ele>542.0</ele><time>2026-05-03T15:48:00.239Z</time></trkpt><trkpt lat="44.2573234" lon="8.0211992"><ele>539.6666666666666</ele><time>2026-05-03T15:48:01.238Z</time></trkpt><trkpt lat="44.2571776" lon="8.0211047"><ele>537.3333333333334</ele><time>2026-05-03T15:48:02.239Z</time></trkpt><trkpt lat="44.2570205" lon="8.0210062"><ele>535.0</ele><time>2026-05-03T15:48:03.238Z</time></trkpt><trkpt lat="44.2568399" lon="8.0208801"><ele>537.3333333333334</ele><time>2026-05-03T15:48:04.239Z</time></trkpt><trkpt lat="44.256656" lon="8.0207383"><ele>539.6666666666666</ele><time>2026-05-03T15:48:05.238Z</time></trkpt><trkpt lat="44.2564637" lon="8.0205994"><ele>542.0</ele><time>2026-05-03T15:48:06.238Z</time></trkpt><trkpt lat="44.2562767" lon="8.0204808"><ele>542.0</ele><time>2026-05-03T15:48:07.239Z</time></trkpt><trkpt lat="44.2560928" lon="8.0203649"><ele>542.0</ele><time>2026-05-03T15:48:08.239Z</time></trkpt><trkpt lat="44.2559216" lon="8.0202665"><ele>542.0</ele><time>2026-05-03T15:48:09.238Z</time></trkpt><trkpt lat="44.2557593" lon="8.0201805"><ele>541.6666666666666</ele><time>2026-05-03T15:48:10.238Z</time></trkpt><trkpt lat="44.2555991" lon="8.020116"><ele>541.3333333333334</ele><time>2026-05-03T15:48:11.239Z</time></trkpt><trkpt lat="44.2554422" lon="8.0200722"><ele>541.0</ele><time>2026-05-03T15:48:12.239Z</time></trkpt><trkpt lat="44.2552821" lon="8.0200595"><ele>541.0</ele><time>2026-05-03T15:48:13.238Z</time></trkpt><trkpt lat="44.2551204" lon="8.0200533"><ele>541.0</ele><time>2026-05-03T15:48:14.238Z</time></trkpt><trkpt lat="44.2549652" lon="8.0200522"><ele>541.0</ele><time>2026-05-03T15:48:15.238Z</time></trkpt><trkpt lat="44.2548093" lon="8.0200535"><ele>544.3333333333334</ele><time>2026-05-03T15:48:16.239Z</time></trkpt><trkpt lat="44.2546575" lon="8.0200655"><ele>547.6666666666666</ele><time>2026-05-03T15:48:17.238Z</time></trkpt><trkpt lat="44.2544981" lon="8.0200911"><ele>551.0</ele><time>2026-05-03T15:48:18.238Z</time></trkpt><trkpt lat="44.2543153" lon="8.0201198"><ele>551.0</ele><time>2026-05-03T15:48:19.238Z</time></trkpt><trkpt lat="44.254118" lon="8.0201557"><ele>551.0</ele><time>2026-05-03T15:48:20.239Z</time></trkpt><trkpt lat="44.2539113" lon="8.0201914"><ele>551.0</ele><time>2026-05-03T15:48:21.238Z</time></trkpt><trkpt lat="44.2537017" lon="8.0202154"><ele>555.3333333333333</ele><time>2026-05-03T15:48:22.238Z</time></trkpt><trkpt lat="44.2535074" lon="8.0202409"><ele>559.6666666666666</ele><time>2026-05-03T15:48:23.238Z</time></trkpt><trkpt lat="44.253335" lon="8.0202723"><ele>564.0</ele><time>2026-05-03T15:48:24.238Z</time></trkpt><trkpt lat="44.2531679" lon="8.0203033"><ele>564.6666666666666</ele><time>2026-05-03T15:48:25.238Z</time></trkpt><trkpt lat="44.2530077" lon="8.0203471"><ele>565.3333333333333</ele><time>2026-05-03T15:48:26.239Z</time></trkpt><trkpt lat="44.2528562" lon="8.0203943"><ele>566.0</ele><time>2026-05-03T15:48:27.239Z</time></trkpt><trkpt lat="44.2527276" lon="8.0204432"><ele>566.0</ele><time>2026-05-03T15:48:28.238Z</time></trkpt><trkpt lat="44.2526188" lon="8.0204978"><ele>566.0</ele><time>2026-05-03T15:48:29.238Z</time></trkpt><trkpt lat="44.2525002" lon="8.0205577"><ele>566.0</ele><time>2026-05-03T15:48:30.238Z</time></trkpt><trkpt lat="44.2523655" lon="8.020626"><ele>566.0</ele><time>2026-05-03T15:48:31.24Z</time></trkpt><trkpt lat="44.2522297" lon="8.020697"><ele>566.3333333333333</ele><time>2026-05-03T15:48:32.239Z</time></trkpt><trkpt lat="44.2520893" lon="8.0207754"><ele>566.6666666666666</ele><time>2026-05-03T15:48:33.239Z</time></trkpt><trkpt lat="44.2519545" lon="8.0208711"><ele>567.0</ele><time>2026-05-03T15:48:34.24Z</time></trkpt><trkpt lat="44.2518064" lon="8.0209826"><ele>560.3333333333334</ele><time>2026-05-03T15:48:35.239Z</time></trkpt><trkpt lat="44.2516474" lon="8.0211017"><ele>553.6666666666667</ele><time>2026-05-03T15:48:36.239Z</time></trkpt><trkpt lat="44.2514869" lon="8.0212119"><ele>547.0</ele><time>2026-05-03T15:48:37.239Z</time></trkpt><trkpt lat="44.2513261" lon="8.0213083"><ele>547.0</ele><time>2026-05-03T15:48:38.239Z</time></trkpt><trkpt lat="44.2511578" lon="8.0213811"><ele>547.0</ele><time>2026-05-03T15:48:39.239Z</time></trkpt><trkpt lat="44.2509804" lon="8.0214203"><ele>547.0</ele><time>2026-05-03T15:48:40.24Z</time></trkpt><trkpt lat="44.2507929" lon="8.0214429"><ele>546.6666666666667</ele><time>2026-05-03T15:48:41.239Z</time></trkpt><trkpt lat="44.2506065" lon="8.0214569"><ele>546.3333333333334</ele><time>2026-05-03T15:48:42.24Z</time></trkpt><trkpt lat="44.2504259" lon="8.0214714"><ele>546.0</ele><time>2026-05-03T15:48:43.239Z</time></trkpt><trkpt lat="44.2502463" lon="8.0214746"><ele>546.0</ele><time>2026-05-03T15:48:44.24Z</time></trkpt><trkpt lat="44.2500619" lon="8.0214766"><ele>546.0</ele><time>2026-05-03T15:48:45.24Z</time></trkpt><trkpt lat="44.249879" lon="8.0214825"><ele>546.0</ele><time>2026-05-03T15:48:46.24Z</time></trkpt><trkpt lat="44.2496949" lon="8.0214898"><ele>544.0</ele><time>2026-05-03T15:48:47.239Z</time></trkpt><trkpt lat="44.249515" lon="8.0214903"><ele>542.0</ele><time>2026-05-03T15:48:48.239Z</time></trkpt><trkpt lat="44.2493375" lon="8.0214968"><ele>540.0</ele><time>2026-05-03T15:48:49.24Z</time></trkpt><trkpt lat="44.2491598" lon="8.0215008"><ele>540.0</ele><time>2026-05-03T15:48:50.239Z</time></trkpt><trkpt lat="44.2489885" lon="8.0215072"><ele>540.0</ele><time>2026-05-03T15:48:51.239Z</time></trkpt><trkpt lat="44.2488179" lon="8.0215108"><ele>540.0</ele><time>2026-05-03T15:48:52.239Z</time></trkpt><trkpt lat="44.2486465" lon="8.0215156"><ele>540.0</ele><time>2026-05-03T15:48:53.239Z</time></trkpt><trkpt lat="44.2484759" lon="8.0215207"><ele>540.0</ele><time>2026-05-03T15:48:54.24Z</time></trkpt><trkpt lat="44.2483077" lon="8.0215288"><ele>540.0</ele><time>2026-05-03T15:48:55.24Z</time></trkpt><trkpt lat="44.2481473" lon="8.0215357"><ele>542.6666666666666</ele><time>2026-05-03T15:48:56.239Z</time></trkpt><trkpt lat="44.2479883" lon="8.0215448"><ele>545.3333333333333</ele><time>2026-05-03T15:48:57.239Z</time></trkpt><trkpt lat="44.247833" lon="8.0215511"><ele>548.0</ele><time>2026-05-03T15:48:58.24Z</time></trkpt><trkpt lat="44.2476799" lon="8.0215559"><ele>548.0</ele><time>2026-05-03T15:48:59.24Z</time></trkpt><trkpt lat="44.2475237" lon="8.0215624"><ele>548.0</ele><time>2026-05-03T15:49:00.239Z</time></trkpt><trkpt lat="44.2473679" lon="8.0215657"><ele>548.0</ele><time>2026-05-03T15:49:01.239Z</time></trkpt><trkpt lat="44.2472099" lon="8.0215682"><ele>550.0</ele><time>2026-05-03T15:49:02.239Z</time></trkpt><trkpt lat="44.2470535" lon="8.0215745"><ele>552.0</ele><time>2026-05-03T15:49:03.239Z</time></trkpt><trkpt lat="44.2468965" lon="8.0215751"><ele>554.0</ele><time>2026-05-03T15:49:04.24Z</time></trkpt><trkpt lat="44.246735" lon="8.0215802"><ele>554.0</ele><time>2026-05-03T15:49:05.239Z</time></trkpt><trkpt lat="44.2465711" lon="8.0215833"><ele>554.0</ele><time>2026-05-03T15:49:06.239Z</time></trkpt><trkpt lat="44.2464017" lon="8.0215895"><ele>554.0</ele><time>2026-05-03T15:49:07.239Z</time></trkpt><trkpt lat="44.2462329" lon="8.0215953"><ele>556.3333333333333</ele><time>2026-05-03T15:49:08.239Z</time></trkpt><trkpt lat="44.2460613" lon="8.0215999"><ele>558.6666666666666</ele><time>2026-05-03T15:49:09.24Z</time></trkpt><trkpt lat="44.2458881" lon="8.0216046"><ele>561.0</ele><time>2026-05-03T15:49:10.24Z</time></trkpt><trkpt lat="44.2457144" lon="8.0216064"><ele>561.3333333333334</ele><time>2026-05-03T15:49:11.239Z</time></trkpt><trkpt lat="44.2455526" lon="8.0216057"><ele>561.6666666666667</ele><time>2026-05-03T15:49:12.239Z</time></trkpt><trkpt lat="44.2453985" lon="8.0216095"><ele>562.0</ele><time>2026-05-03T15:49:13.239Z</time></trkpt><trkpt lat="44.2452434" lon="8.0216131"><ele>562.0</ele><time>2026-05-03T15:49:14.239Z</time></trkpt><trkpt lat="44.2450842" lon="8.0216114"><ele>562.0</ele><time>2026-05-03T15:49:15.239Z</time></trkpt><trkpt lat="44.2449341" lon="8.0216045"><ele>562.0</ele><time>2026-05-03T15:49:16.24Z</time></trkpt><trkpt lat="44.2448007" lon="8.021604"><ele>562.0</ele><time>2026-05-03T15:49:17.24Z</time></trkpt><trkpt lat="44.244686" lon="8.0216186"><ele>560.8000000000001</ele><time>2026-05-03T15:49:18.239Z</time></trkpt><trkpt lat="44.2445875" lon="8.0216203"><ele>559.6</ele><time>2026-05-03T15:49:19.24Z</time></trkpt><trkpt lat="44.2444942" lon="8.0216264"><ele>558.4000000000001</ele><time>2026-05-03T15:49:20.24Z</time></trkpt><trkpt lat="44.2443957" lon="8.0216356"><ele>557.2</ele><time>2026-05-03T15:49:21.239Z</time></trkpt><trkpt lat="44.2442849" lon="8.0216408"><ele>556.0</ele><time>2026-05-03T15:49:22.239Z</time></trkpt><trkpt lat="44.2441632" lon="8.0216536"><ele>553.3333333333334</ele><time>2026-05-03T15:49:23.239Z</time></trkpt><trkpt lat="44.2440253" lon="8.0216574"><ele>550.6666666666666</ele><time>2026-05-03T15:49:24.239Z</time></trkpt><trkpt lat="44.2438708" lon="8.0216614"><ele>548.0</ele><time>2026-05-03T15:49:25.239Z</time></trkpt><trkpt lat="44.2437057" lon="8.0216567"><ele>548.0</ele><time>2026-05-03T15:49:26.239Z</time></trkpt><trkpt lat="44.2435249" lon="8.0216517"><ele>548.0</ele><time>2026-05-03T15:49:27.239Z</time></trkpt><trkpt lat="44.2433433" lon="8.0216545"><ele>548.0</ele><time>2026-05-03T15:49:28.24Z</time></trkpt><trkpt lat="44.2431528" lon="8.021659"><ele>548.6666666666666</ele><time>2026-05-03T15:49:29.24Z</time></trkpt><trkpt lat="44.2429517" lon="8.0216672"><ele>549.3333333333334</ele><time>2026-05-03T15:49:30.239Z</time></trkpt><trkpt lat="44.2427513" lon="8.0216742"><ele>550.0</ele><time>2026-05-03T15:49:31.239Z</time></trkpt><trkpt lat="44.2425474" lon="8.0216822"><ele>550.0</ele><time>2026-05-03T15:49:32.239Z</time></trkpt><trkpt lat="44.2423462" lon="8.0216726"><ele>550.0</ele><time>2026-05-03T15:49:33.24Z</time></trkpt><trkpt lat="44.2421356" lon="8.0216535"><ele>550.0</ele><time>2026-05-03T15:49:34.239Z</time></trkpt><trkpt lat="44.2419316" lon="8.0216107"><ele>550.0</ele><time>2026-05-03T15:49:35.24Z</time></trkpt><trkpt lat="44.241728" lon="8.0215201"><ele>550.0</ele><time>2026-05-03T15:49:36.24Z</time></trkpt><trkpt lat="44.2415129" lon="8.0214174"><ele>550.0</ele><time>2026-05-03T15:49:37.24Z</time></trkpt><trkpt lat="44.2413068" lon="8.0213253"><ele>550.0</ele><time>2026-05-03T15:49:38.239Z</time></trkpt><trkpt lat="44.2411118" lon="8.021234"><ele>550.0</ele><time>2026-05-03T15:49:39.239Z</time></trkpt><trkpt lat="44.2409222" lon="8.021133"><ele>550.0</ele><time>2026-05-03T15:49:40.24Z</time></trkpt><trkpt lat="44.2407434" lon="8.0210043"><ele>550.0</ele><time>2026-05-03T15:49:41.239Z</time></trkpt><trkpt lat="44.2405732" lon="8.0208345"><ele>550.0</ele><time>2026-05-03T15:49:42.239Z</time></trkpt><trkpt lat="44.2404255" lon="8.0206114"><ele>550.0</ele><time>2026-05-03T15:49:43.239Z</time></trkpt><trkpt lat="44.2402897" lon="8.0203546"><ele>550.0</ele><time>2026-05-03T15:49:44.239Z</time></trkpt><trkpt lat="44.2401748" lon="8.0200801"><ele>550.0</ele><time>2026-05-03T15:49:45.239Z</time></trkpt><trkpt lat="44.2400528" lon="8.0198144"><ele>549.3333333333334</ele><time>2026-05-03T15:49:46.239Z</time></trkpt><trkpt lat="44.2399317" lon="8.0195531"><ele>548.6666666666666</ele><time>2026-05-03T15:49:47.24Z</time></trkpt><trkpt lat="44.2398235" lon="8.0193155"><ele>548.0</ele><time>2026-05-03T15:49:48.24Z</time></trkpt><trkpt lat="44.2397465" lon="8.019125"><ele>548.0</ele><time>2026-05-03T15:49:49.24Z</time></trkpt><trkpt lat="44.239688" lon="8.0189922"><ele>548.0</ele><time>2026-05-03T15:49:50.239Z</time></trkpt><trkpt lat="44.2396268" lon="8.0188822"><ele>548.0</ele><time>2026-05-03T15:49:52.239Z</time></trkpt><trkpt lat="44.2395765" lon="8.018786"><ele>548.0</ele><time>2026-05-03T15:49:55.24Z</time></trkpt><trkpt lat="44.2395391" lon="8.0187039"><ele>548.0</ele><time>2026-05-03T15:49:57.24Z</time></trkpt><trkpt lat="44.2395105" lon="8.0185673"><ele>548.0</ele><time>2026-05-03T15:50:00.24Z</time></trkpt><trkpt lat="44.2394797" lon="8.0184743"><ele>548.0</ele><time>2026-05-03T15:50:01.239Z</time></trkpt><trkpt lat="44.2394513" lon="8.0183465"><ele>548.0</ele><time>2026-05-03T15:50:02.24Z</time></trkpt><trkpt lat="44.2394213" lon="8.018212"><ele>548.0</ele><time>2026-05-03T15:50:03.24Z</time></trkpt><trkpt lat="44.2393809" lon="8.0180543"><ele>548.0</ele><time>2026-05-03T15:50:04.239Z</time></trkpt><trkpt lat="44.2393414" lon="8.0178891"><ele>548.0</ele><time>2026-05-03T15:50:05.24Z</time></trkpt><trkpt lat="44.2392939" lon="8.0176996"><ele>548.0</ele><time>2026-05-03T15:50:06.239Z</time></trkpt><trkpt lat="44.2392357" lon="8.0174936"><ele>548.0</ele><time>2026-05-03T15:50:07.239Z</time></trkpt><trkpt lat="44.2391673" lon="8.0172719"><ele>547.6666666666666</ele><time>2026-05-03T15:50:08.239Z</time></trkpt><trkpt lat="44.2390879" lon="8.0170495"><ele>547.3333333333334</ele><time>2026-05-03T15:50:09.239Z</time></trkpt><trkpt lat="44.2389888" lon="8.0168275"><ele>547.0</ele><time>2026-05-03T15:50:10.239Z</time></trkpt><trkpt lat="44.238875" lon="8.0166139"><ele>547.0</ele><time>2026-05-03T15:50:11.24Z</time></trkpt><trkpt lat="44.2387514" lon="8.0164063"><ele>547.0</ele><time>2026-05-03T15:50:12.24Z</time></trkpt><trkpt lat="44.2386104" lon="8.0162061"><ele>547.0</ele><time>2026-05-03T15:50:13.239Z</time></trkpt><trkpt lat="44.2384549" lon="8.0160101"><ele>547.0</ele><time>2026-05-03T15:50:14.24Z</time></trkpt><trkpt lat="44.2382793" lon="8.0158273"><ele>547.0</ele><time>2026-05-03T15:50:15.24Z</time></trkpt><trkpt lat="44.2380903" lon="8.0156583"><ele>547.0</ele><time>2026-05-03T15:50:16.239Z</time></trkpt><trkpt lat="44.2378858" lon="8.0155076"><ele>546.5</ele><time>2026-05-03T15:50:17.239Z</time></trkpt><trkpt lat="44.2376738" lon="8.0153807"><ele>546.0</ele><time>2026-05-03T15:50:18.239Z</time></trkpt><trkpt lat="44.2374532" lon="8.0152779"><ele>546.5</ele><time>2026-05-03T15:50:19.239Z</time></trkpt><trkpt lat="44.2372247" lon="8.0152176"><ele>547.0</ele><time>2026-05-03T15:50:20.24Z</time></trkpt><trkpt lat="44.2369881" lon="8.0151773"><ele>547.0</ele><time>2026-05-03T15:50:21.239Z</time></trkpt><trkpt lat="44.2367405" lon="8.0151634"><ele>547.0</ele><time>2026-05-03T15:50:22.239Z</time></trkpt><trkpt lat="44.2364997" lon="8.0151646"><ele>546.5</ele><time>2026-05-03T15:50:23.239Z</time></trkpt><trkpt lat="44.2362682" lon="8.0151631"><ele>546.0</ele><time>2026-05-03T15:50:24.239Z</time></trkpt><trkpt lat="44.2360438" lon="8.0151566"><ele>546.0</ele><time>2026-05-03T15:50:25.239Z</time></trkpt><trkpt lat="44.2358186" lon="8.0151537"><ele>546.0</ele><time>2026-05-03T15:50:26.239Z</time></trkpt><trkpt lat="44.2355837" lon="8.0151524"><ele>548.0</ele><time>2026-05-03T15:50:27.239Z</time></trkpt><trkpt lat="44.2353499" lon="8.0151442"><ele>550.0</ele><time>2026-05-03T15:50:28.24Z</time></trkpt><trkpt lat="44.235121" lon="8.0151308"><ele>550.0</ele><time>2026-05-03T15:50:29.239Z</time></trkpt><trkpt lat="44.234904" lon="8.0151193"><ele>550.0</ele><time>2026-05-03T15:50:30.24Z</time></trkpt><trkpt lat="44.2346975" lon="8.0151095"><ele>550.0</ele><time>2026-05-03T15:50:31.239Z</time></trkpt><trkpt lat="44.2345026" lon="8.0151177"><ele>550.3333333333334</ele><time>2026-05-03T15:50:32.239Z</time></trkpt><trkpt lat="44.234304" lon="8.0151501"><ele>550.6666666666666</ele><time>2026-05-03T15:50:33.24Z</time></trkpt><trkpt lat="44.2341062" lon="8.0152004"><ele>551.0</ele><time>2026-05-03T15:50:34.239Z</time></trkpt><trkpt lat="44.2339141" lon="8.0152645"><ele>552.6666666666666</ele><time>2026-05-03T15:50:35.239Z</time></trkpt><trkpt lat="44.2337263" lon="8.0153339"><ele>554.3333333333334</ele><time>2026-05-03T15:50:36.239Z</time></trkpt><trkpt lat="44.2335463" lon="8.0154346"><ele>556.0</ele><time>2026-05-03T15:50:37.24Z</time></trkpt><trkpt lat="44.2333609" lon="8.0155589"><ele>556.0</ele><time>2026-05-03T15:50:38.239Z</time></trkpt><trkpt lat="44.2331656" lon="8.0157049"><ele>556.0</ele><time>2026-05-03T15:50:39.239Z</time></trkpt><trkpt lat="44.232961" lon="8.0158546"><ele>558.0</ele><time>2026-05-03T15:50:40.239Z</time></trkpt><trkpt lat="44.2327514" lon="8.0159918"><ele>560.0</ele><time>2026-05-03T15:50:41.239Z</time></trkpt><trkpt lat="44.2325537" lon="8.0161268"><ele>560.0</ele><time>2026-05-03T15:50:42.24Z</time></trkpt><trkpt lat="44.2323625" lon="8.0162579"><ele>560.0</ele><time>2026-05-03T15:50:43.24Z</time></trkpt><trkpt lat="44.2321829" lon="8.0163779"><ele>560.0</ele><time>2026-05-03T15:50:44.239Z</time></trkpt><trkpt lat="44.2320041" lon="8.0165071"><ele>560.6666666666666</ele><time>2026-05-03T15:50:45.239Z</time></trkpt><trkpt lat="44.2318185" lon="8.0166322"><ele>561.3333333333334</ele><time>2026-05-03T15:50:46.239Z</time></trkpt><trkpt lat="44.2316261" lon="8.0167557"><ele>562.0</ele><time>2026-05-03T15:50:47.24Z</time></trkpt><trkpt lat="44.2314221" lon="8.0168817"><ele>566.0</ele><time>2026-05-03T15:50:48.239Z</time></trkpt><trkpt lat="44.2312088" lon="8.017009"><ele>570.0</ele><time>2026-05-03T15:50:49.239Z</time></trkpt><trkpt lat="44.230992" lon="8.0171253"><ele>570.0</ele><time>2026-05-03T15:50:50.239Z</time></trkpt><trkpt lat="44.2307691" lon="8.0172297"><ele>570.0</ele><time>2026-05-03T15:50:51.24Z</time></trkpt><trkpt lat="44.2305454" lon="8.0173077"><ele>571.5</ele><time>2026-05-03T15:50:52.239Z</time></trkpt><trkpt lat="44.2303205" lon="8.0173608"><ele>573.0</ele><time>2026-05-03T15:50:53.239Z</time></trkpt><trkpt lat="44.2300899" lon="8.0173883"><ele>573.0</ele><time>2026-05-03T15:50:54.239Z</time></trkpt><trkpt lat="44.2298573" lon="8.0173898"><ele>573.0</ele><time>2026-05-03T15:50:55.24Z</time></trkpt><trkpt lat="44.2296259" lon="8.0173638"><ele>570.5</ele><time>2026-05-03T15:50:56.24Z</time></trkpt><trkpt lat="44.22939" lon="8.0173114"><ele>568.0</ele><time>2026-05-03T15:50:57.239Z</time></trkpt><trkpt lat="44.2291556" lon="8.0172299"><ele>566.0</ele><time>2026-05-03T15:50:58.239Z</time></trkpt><trkpt lat="44.2289227" lon="8.0171241"><ele>564.0</ele><time>2026-05-03T15:50:59.24Z</time></trkpt><trkpt lat="44.2287021" lon="8.0169951"><ele>564.0</ele><time>2026-05-03T15:51:00.239Z</time></trkpt><trkpt lat="44.2284857" lon="8.0168554"><ele>564.0</ele><time>2026-05-03T15:51:01.239Z</time></trkpt><trkpt lat="44.2282707" lon="8.0167114"><ele>570.0</ele><time>2026-05-03T15:51:02.239Z</time></trkpt><trkpt lat="44.2280531" lon="8.0165783"><ele>576.0</ele><time>2026-05-03T15:51:03.239Z</time></trkpt><trkpt lat="44.2278354" lon="8.0164412"><ele>576.0</ele><time>2026-05-03T15:51:04.24Z</time></trkpt><trkpt lat="44.2276197" lon="8.0163114"><ele>576.0</ele><time>2026-05-03T15:51:05.239Z</time></trkpt><trkpt lat="44.2274029" lon="8.0161863"><ele>571.0</ele><time>2026-05-03T15:51:06.24Z</time></trkpt><trkpt lat="44.2271879" lon="8.0160645"><ele>566.0</ele><time>2026-05-03T15:51:07.24Z</time></trkpt><trkpt lat="44.226973" lon="8.0159476"><ele>566.0</ele><time>2026-05-03T15:51:08.24Z</time></trkpt><trkpt lat="44.2267643" lon="8.0158403"><ele>566.0</ele><time>2026-05-03T15:51:09.239Z</time></trkpt><trkpt lat="44.2265616" lon="8.0157477"><ele>566.0</ele><time>2026-05-03T15:51:10.239Z</time></trkpt><trkpt lat="44.2263627" lon="8.0156593"><ele>568.0</ele><time>2026-05-03T15:51:11.24Z</time></trkpt><trkpt lat="44.2261657" lon="8.0155866"><ele>570.0</ele><time>2026-05-03T15:51:12.24Z</time></trkpt><trkpt lat="44.2259684" lon="8.0155105"><ele>572.0</ele><time>2026-05-03T15:51:13.239Z</time></trkpt><trkpt lat="44.2257737" lon="8.0154433"><ele>568.0</ele><time>2026-05-03T15:51:14.24Z</time></trkpt><trkpt lat="44.2255791" lon="8.0153921"><ele>564.0</ele><time>2026-05-03T15:51:15.24Z</time></trkpt><trkpt lat="44.2253766" lon="8.0153354"><ele>560.0</ele><time>2026-05-03T15:51:16.24Z</time></trkpt><trkpt lat="44.2251697" lon="8.0152902"><ele>560.0</ele><time>2026-05-03T15:51:17.239Z</time></trkpt><trkpt lat="44.224966" lon="8.01525"><ele>560.0</ele><time>2026-05-03T15:51:18.239Z</time></trkpt><trkpt lat="44.2247627" lon="8.0152173"><ele>560.0</ele><time>2026-05-03T15:51:19.239Z</time></trkpt><trkpt lat="44.2245609" lon="8.0151908"><ele>560.3333333333333</ele><time>2026-05-03T15:51:20.239Z</time></trkpt><trkpt lat="44.2243611" lon="8.015168"><ele>560.6666666666666</ele><time>2026-05-03T15:51:21.239Z</time></trkpt><trkpt lat="44.2241623" lon="8.0151486"><ele>561.0</ele><time>2026-05-03T15:51:22.239Z</time></trkpt><trkpt lat="44.2239654" lon="8.015138"><ele>561.0</ele><time>2026-05-03T15:51:23.239Z</time></trkpt><trkpt lat="44.223762" lon="8.0151235"><ele>561.0</ele><time>2026-05-03T15:51:24.24Z</time></trkpt><trkpt lat="44.2235535" lon="8.0151099"><ele>561.0</ele><time>2026-05-03T15:51:25.24Z</time></trkpt><trkpt lat="44.2233479" lon="8.0150937"><ele>560.6666666666666</ele><time>2026-05-03T15:51:26.239Z</time></trkpt><trkpt lat="44.2231454" lon="8.0150781"><ele>560.3333333333333</ele><time>2026-05-03T15:51:27.239Z</time></trkpt><trkpt lat="44.2229431" lon="8.015066"><ele>560.0</ele><time>2026-05-03T15:51:28.239Z</time></trkpt><trkpt lat="44.2227403" lon="8.0150527"><ele>560.0</ele><time>2026-05-03T15:51:29.239Z</time></trkpt><trkpt lat="44.2225392" lon="8.0150417"><ele>560.0</ele><time>2026-05-03T15:51:30.239Z</time></trkpt><trkpt lat="44.2223454" lon="8.0150309"><ele>560.0</ele><time>2026-05-03T15:51:31.239Z</time></trkpt><trkpt lat="44.2221595" lon="8.0150124"><ele>560.3333333333333</ele><time>2026-05-03T15:51:32.239Z</time></trkpt><trkpt lat="44.2219639" lon="8.0150017"><ele>560.6666666666666</ele><time>2026-05-03T15:51:33.239Z</time></trkpt><trkpt lat="44.2217666" lon="8.0149866"><ele>561.0</ele><time>2026-05-03T15:51:34.24Z</time></trkpt><trkpt lat="44.2215652" lon="8.0149735"><ele>562.6666666666666</ele><time>2026-05-03T15:51:35.239Z</time></trkpt><trkpt lat="44.221364" lon="8.0149543"><ele>564.3333333333333</ele><time>2026-05-03T15:51:36.239Z</time></trkpt><trkpt lat="44.2211614" lon="8.0149409"><ele>566.0</ele><time>2026-05-03T15:51:37.239Z</time></trkpt><trkpt lat="44.2209562" lon="8.0149324"><ele>566.0</ele><time>2026-05-03T15:51:38.24Z</time></trkpt><trkpt lat="44.2207523" lon="8.0149179"><ele>566.0</ele><time>2026-05-03T15:51:39.239Z</time></trkpt><trkpt lat="44.2205481" lon="8.0149051"><ele>566.0</ele><time>2026-05-03T15:51:40.24Z</time></trkpt><trkpt lat="44.2203508" lon="8.0148869"><ele>565.6666666666666</ele><time>2026-05-03T15:51:41.239Z</time></trkpt><trkpt lat="44.2201571" lon="8.0148744"><ele>565.3333333333334</ele><time>2026-05-03T15:51:42.24Z</time></trkpt><trkpt lat="44.2199643" lon="8.0148536"><ele>565.0</ele><time>2026-05-03T15:51:43.24Z</time></trkpt><trkpt lat="44.2197629" lon="8.0148367"><ele>564.6666666666667</ele><time>2026-05-03T15:51:44.24Z</time></trkpt><trkpt lat="44.2195649" lon="8.0148156"><ele>564.3333333333334</ele><time>2026-05-03T15:51:45.24Z</time></trkpt><trkpt lat="44.2193757" lon="8.0148041"><ele>564.0</ele><time>2026-05-03T15:51:46.24Z</time></trkpt><trkpt lat="44.2191875" lon="8.0147979"><ele>564.0</ele><time>2026-05-03T15:51:47.239Z</time></trkpt><trkpt lat="44.2190072" lon="8.0147863"><ele>564.0</ele><time>2026-05-03T15:51:48.239Z</time></trkpt><trkpt lat="44.2188352" lon="8.0147738"><ele>564.0</ele><time>2026-05-03T15:51:49.24Z</time></trkpt><trkpt lat="44.2186786" lon="8.0147608"><ele>564.25</ele><time>2026-05-03T15:51:50.24Z</time></trkpt><trkpt lat="44.2185297" lon="8.014751"><ele>564.5</ele><time>2026-05-03T15:51:51.24Z</time></trkpt><trkpt lat="44.2183951" lon="8.0147442"><ele>564.75</ele><time>2026-05-03T15:51:52.239Z</time></trkpt><trkpt lat="44.2182726" lon="8.0147359"><ele>565.0</ele><time>2026-05-03T15:51:53.239Z</time></trkpt><trkpt lat="44.2181642" lon="8.0147219"><ele>565.0</ele><time>2026-05-03T15:51:54.24Z</time></trkpt><trkpt lat="44.2180686" lon="8.0147107"><ele>565.0</ele><time>2026-05-03T15:51:55.239Z</time></trkpt><trkpt lat="44.2179823" lon="8.0147104"><ele>565.0</ele><time>2026-05-03T15:51:56.239Z</time></trkpt><trkpt lat="44.2179089" lon="8.0147005"><ele>565.0</ele><time>2026-05-03T15:51:57.239Z</time></trkpt><trkpt lat="44.2178097" lon="8.0146561"><ele>565.0</ele><time>2026-05-03T15:51:59.239Z</time></trkpt><trkpt lat="44.2177477" lon="8.0146833"><ele>565.0</ele><time>2026-05-03T15:54:30.239Z</time></trkpt><trkpt lat="44.2176648" lon="8.0146911"><ele>565.0</ele><time>2026-05-03T15:54:32.239Z</time></trkpt><trkpt lat="44.2175229" lon="8.0146793"><ele>565.0</ele><time>2026-05-03T15:54:34.239Z</time></trkpt><trkpt lat="44.2174166" lon="8.0146788"><ele>565.0</ele><time>2026-05-03T15:54:35.24Z</time></trkpt><trkpt lat="44.217291" lon="8.014671"><ele>565.0</ele><time>2026-05-03T15:54:36.239Z</time></trkpt><trkpt lat="44.2171559" lon="8.0146573"><ele>565.0</ele><time>2026-05-03T15:54:37.239Z</time></trkpt><trkpt lat="44.2170122" lon="8.0146465"><ele>565.0</ele><time>2026-05-03T15:54:38.239Z</time></trkpt><trkpt lat="44.2168536" lon="8.0146342"><ele>565.0</ele><time>2026-05-03T15:54:39.242Z</time></trkpt><trkpt lat="44.2166914" lon="8.014629"><ele>565.0</ele><time>2026-05-03T15:54:40.242Z</time></trkpt><trkpt lat="44.2165214" lon="8.0146174"><ele>565.0</ele><time>2026-05-03T15:54:41.242Z</time></trkpt><trkpt lat="44.216347" lon="8.0146073"><ele>565.0</ele><time>2026-05-03T15:54:42.242Z</time></trkpt><trkpt lat="44.2161663" lon="8.0145954"><ele>565.3333333333334</ele><time>2026-05-03T15:54:43.242Z</time></trkpt><trkpt lat="44.2159845" lon="8.0145842"><ele>565.6666666666666</ele><time>2026-05-03T15:54:44.242Z</time></trkpt><trkpt lat="44.215797" lon="8.0145673"><ele>566.0</ele><time>2026-05-03T15:54:45.242Z</time></trkpt><trkpt lat="44.2156065" lon="8.0145511"><ele>566.6666666666666</ele><time>2026-05-03T15:54:46.242Z</time></trkpt><trkpt lat="44.215418" lon="8.0145394"><ele>567.3333333333334</ele><time>2026-05-03T15:54:47.242Z</time></trkpt><trkpt lat="44.2152292" lon="8.0145281"><ele>568.0</ele><time>2026-05-03T15:54:48.242Z</time></trkpt><trkpt lat="44.2150352" lon="8.0145142"><ele>568.0</ele><time>2026-05-03T15:54:49.243Z</time></trkpt><trkpt lat="44.2148416" lon="8.0145"><ele>568.0</ele><time>2026-05-03T15:54:50.242Z</time></trkpt><trkpt lat="44.2146453" lon="8.0144878"><ele>568.0</ele><time>2026-05-03T15:54:51.242Z</time></trkpt><trkpt lat="44.2144442" lon="8.0144739"><ele>568.3333333333334</ele><time>2026-05-03T15:54:52.242Z</time></trkpt><trkpt lat="44.2142422" lon="8.0144541"><ele>568.6666666666666</ele><time>2026-05-03T15:54:53.242Z</time></trkpt><trkpt lat="44.2140375" lon="8.0144393"><ele>569.0</ele><time>2026-05-03T15:54:54.242Z</time></trkpt><trkpt lat="44.2138353" lon="8.0144212"><ele>569.6666666666666</ele><time>2026-05-03T15:54:55.243Z</time></trkpt><trkpt lat="44.213629" lon="8.014405"><ele>570.3333333333334</ele><time>2026-05-03T15:54:56.242Z</time></trkpt><trkpt lat="44.2134244" lon="8.0143863"><ele>571.0</ele><time>2026-05-03T15:54:57.242Z</time></trkpt><trkpt lat="44.2132293" lon="8.0143684"><ele>571.0</ele><time>2026-05-03T15:54:58.242Z</time></trkpt><trkpt lat="44.2130491" lon="8.0143574"><ele>571.0</ele><time>2026-05-03T15:54:59.243Z</time></trkpt><trkpt lat="44.2128807" lon="8.0143395"><ele>571.0</ele><time>2026-05-03T15:55:00.242Z</time></trkpt><trkpt lat="44.2127241" lon="8.0143346"><ele>571.0</ele><time>2026-05-03T15:55:01.243Z</time></trkpt><trkpt lat="44.2125773" lon="8.0143263"><ele>571.0</ele><time>2026-05-03T15:55:02.243Z</time></trkpt><trkpt lat="44.212438" lon="8.0143143"><ele>571.0</ele><time>2026-05-03T15:55:03.242Z</time></trkpt><trkpt lat="44.2122987" lon="8.0143022"><ele>571.0</ele><time>2026-05-03T15:55:04.242Z</time></trkpt><trkpt lat="44.2121551" lon="8.0142906"><ele>571.25</ele><time>2026-05-03T15:55:05.242Z</time></trkpt><trkpt lat="44.2120197" lon="8.014285"><ele>571.5</ele><time>2026-05-03T15:55:06.242Z</time></trkpt><trkpt lat="44.2118964" lon="8.014283"><ele>571.75</ele><time>2026-05-03T15:55:07.242Z</time></trkpt><trkpt lat="44.2117776" lon="8.0142848"><ele>572.0</ele><time>2026-05-03T15:55:08.242Z</time></trkpt><trkpt lat="44.2116549" lon="8.0142906"><ele>572.0</ele><time>2026-05-03T15:55:09.242Z</time></trkpt><trkpt lat="44.2115331" lon="8.0143011"><ele>572.0</ele><time>2026-05-03T15:55:10.242Z</time></trkpt><trkpt lat="44.2114061" lon="8.0143146"><ele>572.0</ele><time>2026-05-03T15:55:11.242Z</time></trkpt><trkpt lat="44.2112881" lon="8.0143319"><ele>572.0</ele><time>2026-05-03T15:55:12.243Z</time></trkpt><trkpt lat="44.2111737" lon="8.014357"><ele>572.2</ele><time>2026-05-03T15:55:13.242Z</time></trkpt><trkpt lat="44.2110682" lon="8.0143772"><ele>572.4000000000001</ele><time>2026-05-03T15:55:14.242Z</time></trkpt><trkpt lat="44.2109745" lon="8.0144069"><ele>572.5999999999999</ele><time>2026-05-03T15:55:15.242Z</time></trkpt><trkpt lat="44.2108793" lon="8.0144442"><ele>572.8</ele><time>2026-05-03T15:55:16.243Z</time></trkpt><trkpt lat="44.2107828" lon="8.0144856"><ele>573.0</ele><time>2026-05-03T15:55:17.243Z</time></trkpt><trkpt lat="44.2106934" lon="8.0145163"><ele>573.5</ele><time>2026-05-03T15:55:18.242Z</time></trkpt><trkpt lat="44.2106126" lon="8.0145479"><ele>574.0</ele><time>2026-05-03T15:55:19.242Z</time></trkpt><trkpt lat="44.210535" lon="8.0145757"><ele>574.5</ele><time>2026-05-03T15:55:20.242Z</time></trkpt><trkpt lat="44.2104556" lon="8.0146062"><ele>575.0</ele><time>2026-05-03T15:55:21.243Z</time></trkpt><trkpt lat="44.2103763" lon="8.0146372"><ele>575.5</ele><time>2026-05-03T15:55:22.242Z</time></trkpt><trkpt lat="44.2102949" lon="8.0146748"><ele>576.0</ele><time>2026-05-03T15:55:23.242Z</time></trkpt><trkpt lat="44.2102186" lon="8.0147103"><ele>576.0</ele><time>2026-05-03T15:55:24.243Z</time></trkpt><trkpt lat="44.2101191" lon="8.0147545"><ele>576.0</ele><time>2026-05-03T15:55:26.242Z</time></trkpt><trkpt lat="44.2100364" lon="8.0147895"><ele>576.0</ele><time>2026-05-03T15:55:28.243Z</time></trkpt><trkpt lat="44.2099381" lon="8.0148223"><ele>576.0</ele><time>2026-05-03T15:55:30.243Z</time></trkpt><trkpt lat="44.209809" lon="8.0148612"><ele>576.0</ele><time>2026-05-03T15:55:32.243Z</time></trkpt><trkpt lat="44.2097326" lon="8.0148853"><ele>576.1666666666666</ele><time>2026-05-03T15:55:33.242Z</time></trkpt><trkpt lat="44.2096508" lon="8.0149051"><ele>576.3333333333334</ele><time>2026-05-03T15:55:34.242Z</time></trkpt><trkpt lat="44.2095677" lon="8.0149174"><ele>576.5</ele><time>2026-05-03T15:55:35.243Z</time></trkpt><trkpt lat="44.2094775" lon="8.0149243"><ele>576.6666666666667</ele><time>2026-05-03T15:55:36.242Z</time></trkpt><trkpt lat="44.2093818" lon="8.0149212"><ele>576.8333333333334</ele><time>2026-05-03T15:55:37.242Z</time></trkpt><trkpt lat="44.2092852" lon="8.0149158"><ele>577.0</ele><time>2026-05-03T15:55:38.242Z</time></trkpt><trkpt lat="44.2091881" lon="8.0149094"><ele>577.0</ele><time>2026-05-03T15:55:39.242Z</time></trkpt><trkpt lat="44.2090888" lon="8.0148995"><ele>577.0</ele><time>2026-05-03T15:55:40.243Z</time></trkpt><trkpt lat="44.2089824" lon="8.0148925"><ele>577.0</ele><time>2026-05-03T15:55:41.242Z</time></trkpt><trkpt lat="44.2088721" lon="8.014888"><ele>577.0</ele><time>2026-05-03T15:55:42.242Z</time></trkpt><trkpt lat="44.2087554" lon="8.0148794"><ele>577.0</ele><time>2026-05-03T15:55:43.242Z</time></trkpt><trkpt lat="44.2086344" lon="8.0148733"><ele>577.0</ele><time>2026-05-03T15:55:44.242Z</time></trkpt><trkpt lat="44.2084883" lon="8.0148708"><ele>577.0</ele><time>2026-05-03T15:55:45.243Z</time></trkpt><trkpt lat="44.2083271" lon="8.0148691"><ele>577.0</ele><time>2026-05-03T15:55:46.242Z</time></trkpt><trkpt lat="44.2081623" lon="8.0148487"><ele>577.3333333333334</ele><time>2026-05-03T15:55:47.242Z</time></trkpt><trkpt lat="44.2079987" lon="8.014822"><ele>577.6666666666666</ele><time>2026-05-03T15:55:48.242Z</time></trkpt><trkpt lat="44.2078342" lon="8.0148068"><ele>578.0</ele><time>2026-05-03T15:55:49.243Z</time></trkpt><trkpt lat="44.207661" lon="8.0147929"><ele>578.0</ele><time>2026-05-03T15:55:50.242Z</time></trkpt><trkpt lat="44.2074824" lon="8.0147814"><ele>578.0</ele><time>2026-05-03T15:55:51.242Z</time></trkpt><trkpt lat="44.2073011" lon="8.0147693"><ele>578.0</ele><time>2026-05-03T15:55:52.242Z</time></trkpt><trkpt lat="44.2071179" lon="8.0147528"><ele>578.3333333333333</ele><time>2026-05-03T15:55:53.242Z</time></trkpt><trkpt lat="44.2069347" lon="8.0147331"><ele>578.6666666666666</ele><time>2026-05-03T15:55:54.242Z</time></trkpt><trkpt lat="44.2067494" lon="8.0147166"><ele>579.0</ele><time>2026-05-03T15:55:55.242Z</time></trkpt><trkpt lat="44.2065672" lon="8.0147045"><ele>580.3333333333334</ele><time>2026-05-03T15:55:56.242Z</time></trkpt><trkpt lat="44.2063928" lon="8.0146939"><ele>581.6666666666667</ele><time>2026-05-03T15:55:57.242Z</time></trkpt><trkpt lat="44.206213" lon="8.0146836"><ele>583.0</ele><time>2026-05-03T15:55:58.242Z</time></trkpt><trkpt lat="44.2060367" lon="8.0146686"><ele>583.0</ele><time>2026-05-03T15:55:59.243Z</time></trkpt><trkpt lat="44.205856" lon="8.0146533"><ele>583.0</ele><time>2026-05-03T15:56:00.242Z</time></trkpt><trkpt lat="44.2056764" lon="8.0146389"><ele>583.0</ele><time>2026-05-03T15:56:01.242Z</time></trkpt><trkpt lat="44.2055034" lon="8.0146252"><ele>584.0</ele><time>2026-05-03T15:56:02.243Z</time></trkpt><trkpt lat="44.2053385" lon="8.014609"><ele>585.0</ele><time>2026-05-03T15:56:03.242Z</time></trkpt><trkpt lat="44.2051809" lon="8.014604"><ele>586.0</ele><time>2026-05-03T15:56:04.243Z</time></trkpt><trkpt lat="44.2050352" lon="8.0145955"><ele>586.0</ele><time>2026-05-03T15:56:05.242Z</time></trkpt><trkpt lat="44.2048957" lon="8.0145821"><ele>586.0</ele><time>2026-05-03T15:56:06.242Z</time></trkpt><trkpt lat="44.2047482" lon="8.0145361"><ele>586.0</ele><time>2026-05-03T15:56:07.242Z</time></trkpt><trkpt lat="44.2045999" lon="8.0144717"><ele>586.0</ele><time>2026-05-03T15:56:08.243Z</time></trkpt><trkpt lat="44.204452" lon="8.0144052"><ele>586.0</ele><time>2026-05-03T15:56:09.242Z</time></trkpt><trkpt lat="44.2043049" lon="8.0143296"><ele>586.0</ele><time>2026-05-03T15:56:10.242Z</time></trkpt><trkpt lat="44.2041618" lon="8.01426"><ele>586.0</ele><time>2026-05-03T15:56:11.243Z</time></trkpt><trkpt lat="44.2040279" lon="8.0142038"><ele>586.0</ele><time>2026-05-03T15:56:12.242Z</time></trkpt><trkpt lat="44.2039028" lon="8.0141436"><ele>585.75</ele><time>2026-05-03T15:56:13.243Z</time></trkpt><trkpt lat="44.2037778" lon="8.0140908"><ele>585.5</ele><time>2026-05-03T15:56:14.242Z</time></trkpt><trkpt lat="44.2036474" lon="8.0140421"><ele>585.25</ele><time>2026-05-03T15:56:15.243Z</time></trkpt><trkpt lat="44.203508" lon="8.0139844"><ele>585.0</ele><time>2026-05-03T15:56:16.243Z</time></trkpt><trkpt lat="44.2033539" lon="8.0139193"><ele>585.0</ele><time>2026-05-03T15:56:17.243Z</time></trkpt><trkpt lat="44.2031851" lon="8.0138499"><ele>585.0</ele><time>2026-05-03T15:56:18.243Z</time></trkpt><trkpt lat="44.2030155" lon="8.0137708"><ele>585.0</ele><time>2026-05-03T15:56:19.243Z</time></trkpt><trkpt lat="44.2028316" lon="8.013693"><ele>585.0</ele><time>2026-05-03T15:56:20.242Z</time></trkpt><trkpt lat="44.2026355" lon="8.0136142"><ele>585.0</ele><time>2026-05-03T15:56:21.242Z</time></trkpt><trkpt lat="44.2024326" lon="8.0135382"><ele>585.0</ele><time>2026-05-03T15:56:22.243Z</time></trkpt><trkpt lat="44.202224" lon="8.0134582"><ele>585.0</ele><time>2026-05-03T15:56:23.242Z</time></trkpt><trkpt lat="44.2020182" lon="8.0133865"><ele>585.0</ele><time>2026-05-03T15:56:24.242Z</time></trkpt><trkpt lat="44.2018129" lon="8.0133076"><ele>585.0</ele><time>2026-05-03T15:56:25.242Z</time></trkpt><trkpt lat="44.2016008" lon="8.0132212"><ele>585.0</ele><time>2026-05-03T15:56:26.242Z</time></trkpt><trkpt lat="44.2013897" lon="8.0131348"><ele>585.0</ele><time>2026-05-03T15:56:27.242Z</time></trkpt><trkpt lat="44.2011786" lon="8.0130446"><ele>585.0</ele><time>2026-05-03T15:56:28.242Z</time></trkpt><trkpt lat="44.2009601" lon="8.0129601"><ele>585.0</ele><time>2026-05-03T15:56:29.243Z</time></trkpt><trkpt lat="44.200736" lon="8.0128722"><ele>585.0</ele><time>2026-05-03T15:56:30.243Z</time></trkpt><trkpt lat="44.2005086" lon="8.0127813"><ele>585.0</ele><time>2026-05-03T15:56:31.242Z</time></trkpt><trkpt lat="44.2002716" lon="8.0126877"><ele>585.0</ele><time>2026-05-03T15:56:32.243Z</time></trkpt><trkpt lat="44.2000326" lon="8.0125918"><ele>584.5</ele><time>2026-05-03T15:56:33.243Z</time></trkpt><trkpt lat="44.1997913" lon="8.0124965"><ele>584.0</ele><time>2026-05-03T15:56:34.243Z</time></trkpt><trkpt lat="44.1995469" lon="8.0123987"><ele>590.0</ele><time>2026-05-03T15:56:35.242Z</time></trkpt><trkpt lat="44.1993062" lon="8.0122985"><ele>596.0</ele><time>2026-05-03T15:56:36.242Z</time></trkpt><trkpt lat="44.1990671" lon="8.0122007"><ele>596.0</ele><time>2026-05-03T15:56:37.242Z</time></trkpt><trkpt lat="44.1988289" lon="8.0121053"><ele>596.0</ele><time>2026-05-03T15:56:38.243Z</time></trkpt><trkpt lat="44.1985941" lon="8.0120006"><ele>596.0</ele><time>2026-05-03T15:56:39.243Z</time></trkpt><trkpt lat="44.19835" lon="8.0119024"><ele>596.0</ele><time>2026-05-03T15:56:40.242Z</time></trkpt><trkpt lat="44.198101" lon="8.0118005"><ele>594.0</ele><time>2026-05-03T15:56:41.243Z</time></trkpt><trkpt lat="44.1978452" lon="8.0116988"><ele>592.0</ele><time>2026-05-03T15:56:42.244Z</time></trkpt><trkpt lat="44.1975834" lon="8.0116105"><ele>606.0</ele><time>2026-05-03T15:56:43.244Z</time></trkpt><trkpt lat="44.197317" lon="8.0115406"><ele>620.0</ele><time>2026-05-03T15:56:44.243Z</time></trkpt><trkpt lat="44.1970481" lon="8.0114821"><ele>620.0</ele><time>2026-05-03T15:56:45.243Z</time></trkpt><trkpt lat="44.1967798" lon="8.0114248"><ele>620.0</ele><time>2026-05-03T15:56:46.243Z</time></trkpt><trkpt lat="44.1965162" lon="8.0113568"><ele>616.5</ele><time>2026-05-03T15:56:47.243Z</time></trkpt><trkpt lat="44.1962525" lon="8.0112862"><ele>613.0</ele><time>2026-05-03T15:56:48.244Z</time></trkpt><trkpt lat="44.1959859" lon="8.0112038"><ele>613.0</ele><time>2026-05-03T15:56:49.244Z</time></trkpt><trkpt lat="44.1957151" lon="8.0111141"><ele>613.0</ele><time>2026-05-03T15:56:50.244Z</time></trkpt><trkpt lat="44.1954531" lon="8.0110192"><ele>606.0</ele><time>2026-05-03T15:56:51.243Z</time></trkpt><trkpt lat="44.195192" lon="8.0109194"><ele>599.0</ele><time>2026-05-03T15:56:52.243Z</time></trkpt><trkpt lat="44.1949294" lon="8.0108175"><ele>609.5</ele><time>2026-05-03T15:56:53.243Z</time></trkpt><trkpt lat="44.1946707" lon="8.0107134"><ele>620.0</ele><time>2026-05-03T15:56:54.244Z</time></trkpt><trkpt lat="44.1944136" lon="8.0106025"><ele>620.0</ele><time>2026-05-03T15:56:55.243Z</time></trkpt><trkpt lat="44.1941591" lon="8.0104835"><ele>620.0</ele><time>2026-05-03T15:56:56.244Z</time></trkpt><trkpt lat="44.1938978" lon="8.0103712"><ele>613.0</ele><time>2026-05-03T15:56:57.244Z</time></trkpt><trkpt lat="44.1936341" lon="8.0102561"><ele>606.0</ele><time>2026-05-03T15:56:58.243Z</time></trkpt><trkpt lat="44.1933738" lon="8.0101367"><ele>601.5</ele><time>2026-05-03T15:56:59.243Z</time></trkpt><trkpt lat="44.1931123" lon="8.0100218"><ele>597.0</ele><time>2026-05-03T15:57:00.244Z</time></trkpt><trkpt lat="44.1928523" lon="8.0099112"><ele>600.5</ele><time>2026-05-03T15:57:01.244Z</time></trkpt><trkpt lat="44.1925903" lon="8.0098008"><ele>604.0</ele><time>2026-05-03T15:57:02.244Z</time></trkpt><trkpt lat="44.1923305" lon="8.0096862"><ele>604.0</ele><time>2026-05-03T15:57:03.243Z</time></trkpt><trkpt lat="44.1920797" lon="8.0095717"><ele>604.0</ele><time>2026-05-03T15:57:04.243Z</time></trkpt><trkpt lat="44.1918381" lon="8.0094622"><ele>604.0</ele><time>2026-05-03T15:57:05.243Z</time></trkpt><trkpt lat="44.1916005" lon="8.0093343"><ele>604.0</ele><time>2026-05-03T15:57:06.244Z</time></trkpt><trkpt lat="44.1913695" lon="8.0091736"><ele>607.0</ele><time>2026-05-03T15:57:07.243Z</time></trkpt><trkpt lat="44.1911517" lon="8.0089775"><ele>610.0</ele><time>2026-05-03T15:57:08.243Z</time></trkpt><trkpt lat="44.1909443" lon="8.0087638"><ele>610.0</ele><time>2026-05-03T15:57:09.243Z</time></trkpt><trkpt lat="44.1907569" lon="8.0085118"><ele>610.0</ele><time>2026-05-03T15:57:10.243Z</time></trkpt><trkpt lat="44.1905856" lon="8.0082416"><ele>603.5</ele><time>2026-05-03T15:57:11.243Z</time></trkpt><trkpt lat="44.1904594" lon="8.0079334"><ele>597.0</ele><time>2026-05-03T15:57:12.243Z</time></trkpt><trkpt lat="44.1903529" lon="8.00761"><ele>599.0</ele><time>2026-05-03T15:57:13.243Z</time></trkpt><trkpt lat="44.1902744" lon="8.007252"><ele>601.0</ele><time>2026-05-03T15:57:14.243Z</time></trkpt><trkpt lat="44.1902099" lon="8.0068655"><ele>604.5</ele><time>2026-05-03T15:57:15.243Z</time></trkpt><trkpt lat="44.1901292" lon="8.0064798"><ele>608.0</ele><time>2026-05-03T15:57:16.243Z</time></trkpt><trkpt lat="44.1900516" lon="8.0060888"><ele>612.5</ele><time>2026-05-03T15:57:17.243Z</time></trkpt><trkpt lat="44.1899696" lon="8.0057079"><ele>617.0</ele><time>2026-05-03T15:57:18.243Z</time></trkpt><trkpt lat="44.1898769" lon="8.0053458"><ele>610.5</ele><time>2026-05-03T15:57:19.244Z</time></trkpt><trkpt lat="44.1897709" lon="8.0049954"><ele>604.0</ele><time>2026-05-03T15:57:20.243Z</time></trkpt><trkpt lat="44.1896601" lon="8.0046584"><ele>604.0</ele><time>2026-05-03T15:57:21.243Z</time></trkpt><trkpt lat="44.1895487" lon="8.0043137"><ele>604.0</ele><time>2026-05-03T15:57:22.243Z</time></trkpt><trkpt lat="44.1894335" lon="8.0039733"><ele>608.0</ele><time>2026-05-03T15:57:23.243Z</time></trkpt><trkpt lat="44.189343" lon="8.003626"><ele>612.0</ele><time>2026-05-03T15:57:24.243Z</time></trkpt><trkpt lat="44.1892734" lon="8.0032736"><ele>612.0</ele><time>2026-05-03T15:57:25.243Z</time></trkpt><trkpt lat="44.1892253" lon="8.0029067"><ele>612.0</ele><time>2026-05-03T15:57:26.243Z</time></trkpt><trkpt lat="44.1891874" lon="8.0025434"><ele>613.0</ele><time>2026-05-03T15:57:27.243Z</time></trkpt><trkpt lat="44.1891542" lon="8.0021865"><ele>614.0</ele><time>2026-05-03T15:57:28.244Z</time></trkpt><trkpt lat="44.1891095" lon="8.0018259"><ele>614.5</ele><time>2026-05-03T15:57:29.244Z</time></trkpt><trkpt lat="44.1890513" lon="8.0014737"><ele>615.0</ele><time>2026-05-03T15:57:30.243Z</time></trkpt><trkpt lat="44.188991" lon="8.0011302"><ele>609.5</ele><time>2026-05-03T15:57:31.243Z</time></trkpt><trkpt lat="44.1889265" lon="8.0008101"><ele>604.0</ele><time>2026-05-03T15:57:32.244Z</time></trkpt><trkpt lat="44.1888505" lon="8.0004939"><ele>604.0</ele><time>2026-05-03T15:57:33.243Z</time></trkpt><trkpt lat="44.1887564" lon="8.0001795"><ele>604.0</ele><time>2026-05-03T15:57:34.244Z</time></trkpt><trkpt lat="44.1886221" lon="7.9998787"><ele>604.0</ele><time>2026-05-03T15:57:35.244Z</time></trkpt><trkpt lat="44.1884586" lon="7.9996058"><ele>604.0</ele><time>2026-05-03T15:57:36.243Z</time></trkpt><trkpt lat="44.1882824" lon="7.9993462"><ele>604.5</ele><time>2026-05-03T15:57:37.243Z</time></trkpt><trkpt lat="44.1881187" lon="7.9990907"><ele>605.0</ele><time>2026-05-03T15:57:38.243Z</time></trkpt><trkpt lat="44.1879662" lon="7.9988308"><ele>605.0</ele><time>2026-05-03T15:57:39.243Z</time></trkpt><trkpt lat="44.1878352" lon="7.9985456"><ele>605.0</ele><time>2026-05-03T15:57:40.243Z</time></trkpt><trkpt lat="44.1877263" lon="7.9982265"><ele>606.0</ele><time>2026-05-03T15:57:41.24Z</time></trkpt><trkpt lat="44.1876377" lon="7.9978823"><ele>607.0</ele><time>2026-05-03T15:57:42.243Z</time></trkpt><trkpt lat="44.1875447" lon="7.9975351"><ele>607.5</ele><time>2026-05-03T15:57:43.243Z</time></trkpt><trkpt lat="44.1874559" lon="7.9971923"><ele>608.0</ele><time>2026-05-03T15:57:44.244Z</time></trkpt><trkpt lat="44.1873699" lon="7.9968617"><ele>609.0</ele><time>2026-05-03T15:57:45.243Z</time></trkpt><trkpt lat="44.1872853" lon="7.99655"><ele>610.0</ele><time>2026-05-03T15:57:46.244Z</time></trkpt><trkpt lat="44.1872065" lon="7.9962553"><ele>610.0</ele><time>2026-05-03T15:57:47.244Z</time></trkpt><trkpt lat="44.1871341" lon="7.9959739"><ele>610.0</ele><time>2026-05-03T15:57:48.243Z</time></trkpt><trkpt lat="44.1870641" lon="7.9957156"><ele>610.0</ele><time>2026-05-03T15:57:49.243Z</time></trkpt><trkpt lat="44.1869835" lon="7.9954726"><ele>610.6666666666667</ele><time>2026-05-03T15:57:50.244Z</time></trkpt><trkpt lat="44.1868688" lon="7.9952569"><ele>611.3333333333334</ele><time>2026-05-03T15:57:51.244Z</time></trkpt><trkpt lat="44.1867388" lon="7.9950662"><ele>612.0</ele><time>2026-05-03T15:57:52.243Z</time></trkpt><trkpt lat="44.1866065" lon="7.9948968"><ele>612.3333333333334</ele><time>2026-05-03T15:57:53.243Z</time></trkpt><trkpt lat="44.1864827" lon="7.9947524"><ele>612.6666666666667</ele><time>2026-05-03T15:57:54.243Z</time></trkpt><trkpt lat="44.1863697" lon="7.9946181"><ele>613.0</ele><time>2026-05-03T15:57:55.243Z</time></trkpt><trkpt lat="44.1862498" lon="7.9944839"><ele>613.0</ele><time>2026-05-03T15:57:56.243Z</time></trkpt><trkpt lat="44.1861232" lon="7.9943303"><ele>613.0</ele><time>2026-05-03T15:57:57.244Z</time></trkpt><trkpt lat="44.1859937" lon="7.9941586"><ele>613.0</ele><time>2026-05-03T15:57:58.243Z</time></trkpt><trkpt lat="44.185859" lon="7.9939738"><ele>613.0</ele><time>2026-05-03T15:57:59.243Z</time></trkpt><trkpt lat="44.1857102" lon="7.9937937"><ele>613.0</ele><time>2026-05-03T15:58:00.243Z</time></trkpt><trkpt lat="44.1855323" lon="7.9936169"><ele>613.0</ele><time>2026-05-03T15:58:01.243Z</time></trkpt><trkpt lat="44.1853521" lon="7.9934498"><ele>613.6666666666667</ele><time>2026-05-03T15:58:02.244Z</time></trkpt><trkpt lat="44.1851707" lon="7.9932975"><ele>614.3333333333334</ele><time>2026-05-03T15:58:03.243Z</time></trkpt><trkpt lat="44.1849986" lon="7.9931344"><ele>615.0</ele><time>2026-05-03T15:58:04.243Z</time></trkpt><trkpt lat="44.18483" lon="7.9929529"><ele>614.3333333333334</ele><time>2026-05-03T15:58:05.243Z</time></trkpt><trkpt lat="44.1846787" lon="7.9927389"><ele>613.6666666666667</ele><time>2026-05-03T15:58:06.243Z</time></trkpt><trkpt lat="44.1845556" lon="7.9924743"><ele>613.0</ele><time>2026-05-03T15:58:07.243Z</time></trkpt><trkpt lat="44.1844474" lon="7.9921525"><ele>613.0</ele><time>2026-05-03T15:58:08.244Z</time></trkpt><trkpt lat="44.1843363" lon="7.9918256"><ele>613.0</ele><time>2026-05-03T15:58:09.244Z</time></trkpt><trkpt lat="44.1842174" lon="7.9915032"><ele>614.0</ele><time>2026-05-03T15:58:10.243Z</time></trkpt><trkpt lat="44.1840929" lon="7.9911846"><ele>615.0</ele><time>2026-05-03T15:58:11.244Z</time></trkpt><trkpt lat="44.1839729" lon="7.9908687"><ele>613.5</ele><time>2026-05-03T15:58:12.244Z</time></trkpt><trkpt lat="44.1838663" lon="7.9905503"><ele>612.0</ele><time>2026-05-03T15:58:13.243Z</time></trkpt><trkpt lat="44.1837833" lon="7.9902222"><ele>612.5</ele><time>2026-05-03T15:58:14.243Z</time></trkpt><trkpt lat="44.1837217" lon="7.9898817"><ele>613.0</ele><time>2026-05-03T15:58:15.243Z</time></trkpt><trkpt lat="44.1836834" lon="7.9895405"><ele>613.0</ele><time>2026-05-03T15:58:16.243Z</time></trkpt><trkpt lat="44.1836683" lon="7.9892096"><ele>613.0</ele><time>2026-05-03T15:58:17.243Z</time></trkpt><trkpt lat="44.1836589" lon="7.9888712"><ele>614.0</ele><time>2026-05-03T15:58:18.243Z</time></trkpt><trkpt lat="44.1836486" lon="7.9885336"><ele>615.0</ele><time>2026-05-03T15:58:19.243Z</time></trkpt><trkpt lat="44.1836226" lon="7.9881781"><ele>615.0</ele><time>2026-05-03T15:58:20.244Z</time></trkpt><trkpt lat="44.1835824" lon="7.9878233"><ele>615.0</ele><time>2026-05-03T15:58:21.243Z</time></trkpt><trkpt lat="44.1835217" lon="7.9874649"><ele>619.0</ele><time>2026-05-03T15:58:22.243Z</time></trkpt><trkpt lat="44.1834439" lon="7.9871146"><ele>623.0</ele><time>2026-05-03T15:58:23.244Z</time></trkpt><trkpt lat="44.1833482" lon="7.9867761"><ele>620.5</ele><time>2026-05-03T15:58:24.244Z</time></trkpt><trkpt lat="44.1832407" lon="7.9864404"><ele>618.0</ele><time>2026-05-03T15:58:25.243Z</time></trkpt><trkpt lat="44.1831203" lon="7.986112"><ele>619.5</ele><time>2026-05-03T15:58:26.243Z</time></trkpt><trkpt lat="44.18298" lon="7.9857917"><ele>621.0</ele><time>2026-05-03T15:58:27.244Z</time></trkpt><trkpt lat="44.182823" lon="7.9854812"><ele>621.0</ele><time>2026-05-03T15:58:28.244Z</time></trkpt><trkpt lat="44.1826517" lon="7.9851828"><ele>621.0</ele><time>2026-05-03T15:58:29.243Z</time></trkpt><trkpt lat="44.1824669" lon="7.9849004"><ele>619.0</ele><time>2026-05-03T15:58:30.243Z</time></trkpt><trkpt lat="44.1822787" lon="7.9846109"><ele>617.0</ele><time>2026-05-03T15:58:31.244Z</time></trkpt><trkpt lat="44.1820844" lon="7.984314"><ele>621.0</ele><time>2026-05-03T15:58:32.243Z</time></trkpt><trkpt lat="44.1818889" lon="7.9840181"><ele>625.0</ele><time>2026-05-03T15:58:33.244Z</time></trkpt><trkpt lat="44.181702" lon="7.9837214"><ele>625.0</ele><time>2026-05-03T15:58:34.243Z</time></trkpt><trkpt lat="44.1815175" lon="7.9834219"><ele>625.0</ele><time>2026-05-03T15:58:35.244Z</time></trkpt><trkpt lat="44.1813331" lon="7.9831352"><ele>623.0</ele><time>2026-05-03T15:58:36.243Z</time></trkpt><trkpt lat="44.1811422" lon="7.9828558"><ele>621.0</ele><time>2026-05-03T15:58:37.244Z</time></trkpt><trkpt lat="44.1809337" lon="7.9825923"><ele>622.5</ele><time>2026-05-03T15:58:38.243Z</time></trkpt><trkpt lat="44.1807062" lon="7.9823526"><ele>624.0</ele><time>2026-05-03T15:58:39.244Z</time></trkpt><trkpt lat="44.1804595" lon="7.9821301"><ele>624.0</ele><time>2026-05-03T15:58:40.243Z</time></trkpt><trkpt lat="44.1801893" lon="7.9819561"><ele>624.0</ele><time>2026-05-03T15:58:41.243Z</time></trkpt><trkpt lat="44.1799137" lon="7.9818055"><ele>629.5</ele><time>2026-05-03T15:58:42.244Z</time></trkpt><trkpt lat="44.1796294" lon="7.9816797"><ele>635.0</ele><time>2026-05-03T15:58:43.243Z</time></trkpt><trkpt lat="44.1793464" lon="7.9815708"><ele>635.0</ele><time>2026-05-03T15:58:44.244Z</time></trkpt><trkpt lat="44.1790641" lon="7.9814655"><ele>635.0</ele><time>2026-05-03T15:58:45.243Z</time></trkpt><trkpt lat="44.178783" lon="7.9813671"><ele>631.5</ele><time>2026-05-03T15:58:46.244Z</time></trkpt><trkpt lat="44.1785011" lon="7.9812593"><ele>628.0</ele><time>2026-05-03T15:58:47.243Z</time></trkpt><trkpt lat="44.1782251" lon="7.9811513"><ele>627.0</ele><time>2026-05-03T15:58:48.243Z</time></trkpt><trkpt lat="44.177958" lon="7.9810431"><ele>626.0</ele><time>2026-05-03T15:58:49.243Z</time></trkpt><trkpt lat="44.1776952" lon="7.980941"><ele>626.0</ele><time>2026-05-03T15:58:50.243Z</time></trkpt><trkpt lat="44.1774436" lon="7.9808705"><ele>626.0</ele><time>2026-05-03T15:58:51.243Z</time></trkpt><trkpt lat="44.1771868" lon="7.9808405"><ele>627.0</ele><time>2026-05-03T15:58:52.243Z</time></trkpt><trkpt lat="44.1769259" lon="7.9808442"><ele>628.0</ele><time>2026-05-03T15:58:53.243Z</time></trkpt><trkpt lat="44.1766943" lon="7.9808579"><ele>627.3333333333334</ele><time>2026-05-03T15:58:54.243Z</time></trkpt><trkpt lat="44.1764832" lon="7.9808594"><ele>626.6666666666666</ele><time>2026-05-03T15:58:55.243Z</time></trkpt><trkpt lat="44.1762867" lon="7.9808116"><ele>626.0</ele><time>2026-05-03T15:58:56.243Z</time></trkpt><trkpt lat="44.176106" lon="7.9807252"><ele>626.0</ele><time>2026-05-03T15:58:57.243Z</time></trkpt><trkpt lat="44.1759477" lon="7.9805566"><ele>626.0</ele><time>2026-05-03T15:58:58.243Z</time></trkpt><trkpt lat="44.1757999" lon="7.9803304"><ele>626.0</ele><time>2026-05-03T15:58:59.243Z</time></trkpt><trkpt lat="44.1756671" lon="7.980073"><ele>627.5</ele><time>2026-05-03T15:59:00.243Z</time></trkpt><trkpt lat="44.1755257" lon="7.979796"><ele>629.0</ele><time>2026-05-03T15:59:01.243Z</time></trkpt><trkpt lat="44.1753647" lon="7.9795115"><ele>629.0</ele><time>2026-05-03T15:59:02.243Z</time></trkpt><trkpt lat="44.1751803" lon="7.9792327"><ele>629.0</ele><time>2026-05-03T15:59:03.243Z</time></trkpt><trkpt lat="44.1749865" lon="7.9789594"><ele>629.0</ele><time>2026-05-03T15:59:04.243Z</time></trkpt><trkpt lat="44.174782" lon="7.9786946"><ele>629.0</ele><time>2026-05-03T15:59:05.244Z</time></trkpt><trkpt lat="44.1745573" lon="7.9784465"><ele>631.5</ele><time>2026-05-03T15:59:06.243Z</time></trkpt><trkpt lat="44.1743049" lon="7.978228"><ele>634.0</ele><time>2026-05-03T15:59:07.244Z</time></trkpt><trkpt lat="44.1740584" lon="7.9780223"><ele>632.5</ele><time>2026-05-03T15:59:08.243Z</time></trkpt><trkpt lat="44.1738072" lon="7.9778231"><ele>631.0</ele><time>2026-05-03T15:59:09.243Z</time></trkpt><trkpt lat="44.1735578" lon="7.9776241"><ele>630.0</ele><time>2026-05-03T15:59:10.244Z</time></trkpt><trkpt lat="44.173302" lon="7.9774244"><ele>629.0</ele><time>2026-05-03T15:59:11.243Z</time></trkpt><trkpt lat="44.1730495" lon="7.9772297"><ele>629.0</ele><time>2026-05-03T15:59:12.243Z</time></trkpt><trkpt lat="44.1727899" lon="7.9770579"><ele>629.0</ele><time>2026-05-03T15:59:13.243Z</time></trkpt><trkpt lat="44.1725196" lon="7.97692"><ele>629.0</ele><time>2026-05-03T15:59:14.243Z</time></trkpt><trkpt lat="44.1722354" lon="7.9768148"><ele>629.0</ele><time>2026-05-03T15:59:15.243Z</time></trkpt><trkpt lat="44.1719535" lon="7.9767307"><ele>633.0</ele><time>2026-05-03T15:59:16.244Z</time></trkpt><trkpt lat="44.1716656" lon="7.976663"><ele>637.0</ele><time>2026-05-03T15:59:17.244Z</time></trkpt><trkpt lat="44.1713762" lon="7.9766023"><ele>637.0</ele><time>2026-05-03T15:59:18.243Z</time></trkpt><trkpt lat="44.1710917" lon="7.9765331"><ele>637.0</ele><time>2026-05-03T15:59:19.244Z</time></trkpt><trkpt lat="44.1708163" lon="7.9764372"><ele>636.0</ele><time>2026-05-03T15:59:20.243Z</time></trkpt><trkpt lat="44.1705542" lon="7.9763001"><ele>635.0</ele><time>2026-05-03T15:59:21.244Z</time></trkpt><trkpt lat="44.1703038" lon="7.9760941"><ele>635.0</ele><time>2026-05-03T15:59:22.243Z</time></trkpt><trkpt lat="44.1700679" lon="7.9758917"><ele>635.0</ele><time>2026-05-03T15:59:23.244Z</time></trkpt><trkpt lat="44.1698302" lon="7.9756853"><ele>636.0</ele><time>2026-05-03T15:59:24.243Z</time></trkpt><trkpt lat="44.1695942" lon="7.9754871"><ele>637.0</ele><time>2026-05-03T15:59:25.243Z</time></trkpt><trkpt lat="44.1693558" lon="7.9752873"><ele>637.0</ele><time>2026-05-03T15:59:26.244Z</time></trkpt><trkpt lat="44.1691151" lon="7.9750906"><ele>637.0</ele><time>2026-05-03T15:59:27.243Z</time></trkpt><trkpt lat="44.1688694" lon="7.9748833"><ele>640.0</ele><time>2026-05-03T15:59:28.243Z</time></trkpt><trkpt lat="44.1686279" lon="7.9746747"><ele>643.0</ele><time>2026-05-03T15:59:29.243Z</time></trkpt><trkpt lat="44.168388" lon="7.9744718"><ele>643.0</ele><time>2026-05-03T15:59:30.243Z</time></trkpt><trkpt lat="44.1681553" lon="7.9742746"><ele>643.0</ele><time>2026-05-03T15:59:31.244Z</time></trkpt><trkpt lat="44.1679425" lon="7.9740731"><ele>643.0</ele><time>2026-05-03T15:59:32.243Z</time></trkpt><trkpt lat="44.167762" lon="7.973872"><ele>643.0</ele><time>2026-05-03T15:59:33.244Z</time></trkpt><trkpt lat="44.1676083" lon="7.9736586"><ele>643.0</ele><time>2026-05-03T15:59:34.243Z</time></trkpt><trkpt lat="44.1674735" lon="7.9734336"><ele>644.6666666666667</ele><time>2026-05-03T15:59:35.243Z</time></trkpt><trkpt lat="44.1673392" lon="7.9732039"><ele>646.3333333333334</ele><time>2026-05-03T15:59:36.243Z</time></trkpt><trkpt lat="44.1671844" lon="7.9730074"><ele>648.0</ele><time>2026-05-03T15:59:37.243Z</time></trkpt><trkpt lat="44.1670099" lon="7.9728433"><ele>648.0</ele><time>2026-05-03T15:59:38.243Z</time></trkpt><trkpt lat="44.1668141" lon="7.9727037"><ele>648.0</ele><time>2026-05-03T15:59:39.243Z</time></trkpt><trkpt lat="44.1665989" lon="7.9725981"><ele>648.0</ele><time>2026-05-03T15:59:40.244Z</time></trkpt><trkpt lat="44.1663762" lon="7.9725191"><ele>648.6666666666666</ele><time>2026-05-03T15:59:41.244Z</time></trkpt><trkpt lat="44.1661581" lon="7.9724604"><ele>649.3333333333333</ele><time>2026-05-03T15:59:42.243Z</time></trkpt><trkpt lat="44.165946" lon="7.9724084"><ele>650.0</ele><time>2026-05-03T15:59:43.244Z</time></trkpt><trkpt lat="44.1657391" lon="7.9723523"><ele>649.6666666666666</ele><time>2026-05-03T15:59:44.244Z</time></trkpt><trkpt lat="44.1655336" lon="7.9723004"><ele>649.3333333333334</ele><time>2026-05-03T15:59:45.243Z</time></trkpt><trkpt lat="44.1653362" lon="7.972252"><ele>649.0</ele><time>2026-05-03T15:59:46.243Z</time></trkpt><trkpt lat="44.1651516" lon="7.972205"><ele>649.0</ele><time>2026-05-03T15:59:47.244Z</time></trkpt><trkpt lat="44.1649704" lon="7.9721553"><ele>649.0</ele><time>2026-05-03T15:59:48.243Z</time></trkpt><trkpt lat="44.1647859" lon="7.9721051"><ele>649.0</ele><time>2026-05-03T15:59:49.243Z</time></trkpt><trkpt lat="44.1646045" lon="7.972051"><ele>648.3333333333334</ele><time>2026-05-03T15:59:50.243Z</time></trkpt><trkpt lat="44.1644275" lon="7.9719949"><ele>647.6666666666666</ele><time>2026-05-03T15:59:51.243Z</time></trkpt><trkpt lat="44.164252" lon="7.9719268"><ele>647.0</ele><time>2026-05-03T15:59:52.243Z</time></trkpt><trkpt lat="44.1640851" lon="7.971829"><ele>647.0</ele><time>2026-05-03T15:59:53.244Z</time></trkpt><trkpt lat="44.1639241" lon="7.9716952"><ele>647.0</ele><time>2026-05-03T15:59:54.243Z</time></trkpt><trkpt lat="44.1637691" lon="7.9715586"><ele>647.0</ele><time>2026-05-03T15:59:55.243Z</time></trkpt><trkpt lat="44.1636304" lon="7.9714234"><ele>648.0</ele><time>2026-05-03T15:59:56.243Z</time></trkpt><trkpt lat="44.163498" lon="7.9713034"><ele>649.0</ele><time>2026-05-03T15:59:57.243Z</time></trkpt><trkpt lat="44.163366" lon="7.9711879"><ele>650.0</ele><time>2026-05-03T15:59:58.243Z</time></trkpt><trkpt lat="44.163233" lon="7.9710764"><ele>650.3333333333333</ele><time>2026-05-03T15:59:59.243Z</time></trkpt><trkpt lat="44.1630957" lon="7.970959"><ele>650.6666666666666</ele><time>2026-05-03T16:00:00.244Z</time></trkpt><trkpt lat="44.1629647" lon="7.970834"><ele>651.0</ele><time>2026-05-03T16:00:01.243Z</time></trkpt><trkpt lat="44.1628432" lon="7.9707075"><ele>651.0</ele><time>2026-05-03T16:00:02.243Z</time></trkpt><trkpt lat="44.1627338" lon="7.9705808"><ele>651.0</ele><time>2026-05-03T16:00:03.243Z</time></trkpt><trkpt lat="44.1626337" lon="7.9704484"><ele>651.0</ele><time>2026-05-03T16:00:04.243Z</time></trkpt><trkpt lat="44.1625419" lon="7.9703084"><ele>651.0</ele><time>2026-05-03T16:00:05.244Z</time></trkpt><trkpt lat="44.1624641" lon="7.9701411"><ele>650.6666666666666</ele><time>2026-05-03T16:00:06.243Z</time></trkpt><trkpt lat="44.1623931" lon="7.9699558"><ele>650.3333333333333</ele><time>2026-05-03T16:00:07.243Z</time></trkpt><trkpt lat="44.162326" lon="7.9697544"><ele>650.0</ele><time>2026-05-03T16:00:08.243Z</time></trkpt><trkpt lat="44.1622502" lon="7.9695223"><ele>650.0</ele><time>2026-05-03T16:00:09.244Z</time></trkpt><trkpt lat="44.1621753" lon="7.9692985"><ele>650.0</ele><time>2026-05-03T16:00:10.243Z</time></trkpt><trkpt lat="44.1621074" lon="7.9690832"><ele>650.0</ele><time>2026-05-03T16:00:11.243Z</time></trkpt><trkpt lat="44.1620445" lon="7.9688775"><ele>651.6666666666666</ele><time>2026-05-03T16:00:12.244Z</time></trkpt><trkpt lat="44.1619838" lon="7.9686752"><ele>653.3333333333334</ele><time>2026-05-03T16:00:13.244Z</time></trkpt><trkpt lat="44.1619313" lon="7.9684777"><ele>655.0</ele><time>2026-05-03T16:00:14.243Z</time></trkpt><trkpt lat="44.1618892" lon="7.9682769"><ele>656.0</ele><time>2026-05-03T16:00:15.244Z</time></trkpt><trkpt lat="44.161873" lon="7.9680619"><ele>657.0</ele><time>2026-05-03T16:00:16.243Z</time></trkpt><trkpt lat="44.1618637" lon="7.9678449"><ele>658.0</ele><time>2026-05-03T16:00:17.244Z</time></trkpt><trkpt lat="44.1618464" lon="7.9676295"><ele>660.3333333333334</ele><time>2026-05-03T16:00:18.243Z</time></trkpt><trkpt lat="44.1618253" lon="7.9674164"><ele>662.6666666666666</ele><time>2026-05-03T16:00:19.244Z</time></trkpt><trkpt lat="44.1617985" lon="7.9672011"><ele>665.0</ele><time>2026-05-03T16:00:20.244Z</time></trkpt><trkpt lat="44.1617653" lon="7.9669804"><ele>665.0</ele><time>2026-05-03T16:00:21.243Z</time></trkpt><trkpt lat="44.1617304" lon="7.9667617"><ele>665.0</ele><time>2026-05-03T16:00:22.243Z</time></trkpt><trkpt lat="44.161687" lon="7.9665584"><ele>665.0</ele><time>2026-05-03T16:00:23.243Z</time></trkpt><trkpt lat="44.1616335" lon="7.9663733"><ele>666.75</ele><time>2026-05-03T16:00:24.243Z</time></trkpt><trkpt lat="44.1615485" lon="7.9662038"><ele>668.5</ele><time>2026-05-03T16:00:25.243Z</time></trkpt><trkpt lat="44.161448" lon="7.9660552"><ele>670.25</ele><time>2026-05-03T16:00:26.244Z</time></trkpt><trkpt lat="44.1613378" lon="7.9659102"><ele>672.0</ele><time>2026-05-03T16:00:27.243Z</time></trkpt><trkpt lat="44.1612374" lon="7.9657716"><ele>667.25</ele><time>2026-05-03T16:00:28.244Z</time></trkpt><trkpt lat="44.1611525" lon="7.9656011"><ele>662.5</ele><time>2026-05-03T16:00:29.244Z</time></trkpt><trkpt lat="44.1610872" lon="7.9654201"><ele>657.75</ele><time>2026-05-03T16:00:30.244Z</time></trkpt><trkpt lat="44.1610376" lon="7.9652294"><ele>653.0</ele><time>2026-05-03T16:00:31.243Z</time></trkpt><trkpt lat="44.1609842" lon="7.9650302"><ele>654.6666666666666</ele><time>2026-05-03T16:00:32.244Z</time></trkpt><trkpt lat="44.1609272" lon="7.964833"><ele>656.3333333333334</ele><time>2026-05-03T16:00:33.243Z</time></trkpt><trkpt lat="44.1608633" lon="7.9646402"><ele>658.0</ele><time>2026-05-03T16:00:34.243Z</time></trkpt><trkpt lat="44.160789" lon="7.9644481"><ele>658.0</ele><time>2026-05-03T16:00:35.243Z</time></trkpt><trkpt lat="44.1607088" lon="7.964259"><ele>658.0</ele><time>2026-05-03T16:00:36.244Z</time></trkpt><trkpt lat="44.1606371" lon="7.9640536"><ele>658.0</ele><time>2026-05-03T16:00:37.244Z</time></trkpt><trkpt lat="44.160574" lon="7.9638267"><ele>659.3333333333334</ele><time>2026-05-03T16:00:38.243Z</time></trkpt><trkpt lat="44.1605187" lon="7.9635967"><ele>660.6666666666666</ele><time>2026-05-03T16:00:39.243Z</time></trkpt><trkpt lat="44.1604691" lon="7.9633642"><ele>662.0</ele><time>2026-05-03T16:00:40.243Z</time></trkpt><trkpt lat="44.1604224" lon="7.9631331"><ele>662.0</ele><time>2026-05-03T16:00:41.243Z</time></trkpt><trkpt lat="44.160385" lon="7.9628983"><ele>662.0</ele><time>2026-05-03T16:00:42.243Z</time></trkpt><trkpt lat="44.1603562" lon="7.9626544"><ele>662.0</ele><time>2026-05-03T16:00:43.244Z</time></trkpt><trkpt lat="44.1603429" lon="7.9624068"><ele>663.0</ele><time>2026-05-03T16:00:44.244Z</time></trkpt><trkpt lat="44.1603403" lon="7.9621667"><ele>664.0</ele><time>2026-05-03T16:00:45.243Z</time></trkpt><trkpt lat="44.1603519" lon="7.9619309"><ele>665.0</ele><time>2026-05-03T16:00:46.243Z</time></trkpt><trkpt lat="44.1603683" lon="7.9616989"><ele>663.6666666666666</ele><time>2026-05-03T16:00:47.244Z</time></trkpt><trkpt lat="44.1603879" lon="7.9614656"><ele>662.3333333333334</ele><time>2026-05-03T16:00:48.243Z</time></trkpt><trkpt lat="44.160413" lon="7.9612297"><ele>661.0</ele><time>2026-05-03T16:00:49.244Z</time></trkpt><trkpt lat="44.1604345" lon="7.9610066"><ele>661.6666666666667</ele><time>2026-05-03T16:00:50.243Z</time></trkpt><trkpt lat="44.1604514" lon="7.9607845"><ele>662.3333333333334</ele><time>2026-05-03T16:00:51.243Z</time></trkpt><trkpt lat="44.1604668" lon="7.9605585"><ele>663.0</ele><time>2026-05-03T16:00:52.243Z</time></trkpt><trkpt lat="44.1604783" lon="7.9603252"><ele>663.0</ele><time>2026-05-03T16:00:53.243Z</time></trkpt><trkpt lat="44.1604823" lon="7.9600938"><ele>663.0</ele><time>2026-05-03T16:00:54.243Z</time></trkpt><trkpt lat="44.1604683" lon="7.9598604"><ele>663.0</ele><time>2026-05-03T16:00:55.244Z</time></trkpt><trkpt lat="44.1604283" lon="7.9596292"><ele>663.0</ele><time>2026-05-03T16:00:56.243Z</time></trkpt><trkpt lat="44.1603729" lon="7.9594084"><ele>663.0</ele><time>2026-05-03T16:00:57.243Z</time></trkpt><trkpt lat="44.1603129" lon="7.9591881"><ele>663.0</ele><time>2026-05-03T16:00:58.243Z</time></trkpt><trkpt lat="44.1602491" lon="7.9589724"><ele>663.0</ele><time>2026-05-03T16:00:59.243Z</time></trkpt><trkpt lat="44.1601789" lon="7.9587583"><ele>663.0</ele><time>2026-05-03T16:01:00.243Z</time></trkpt><trkpt lat="44.160105" lon="7.9585493"><ele>663.0</ele><time>2026-05-03T16:01:01.244Z</time></trkpt><trkpt lat="44.1600212" lon="7.9583431"><ele>662.6666666666666</ele><time>2026-05-03T16:01:02.243Z</time></trkpt><trkpt lat="44.1599272" lon="7.9581436"><ele>662.3333333333333</ele><time>2026-05-03T16:01:03.243Z</time></trkpt><trkpt lat="44.1598225" lon="7.9579588"><ele>662.0</ele><time>2026-05-03T16:01:04.244Z</time></trkpt><trkpt lat="44.1597007" lon="7.9577929"><ele>662.0</ele><time>2026-05-03T16:01:05.244Z</time></trkpt><trkpt lat="44.1595773" lon="7.9576241"><ele>662.0</ele><time>2026-05-03T16:01:06.244Z</time></trkpt><trkpt lat="44.1594589" lon="7.9574656"><ele>662.0</ele><time>2026-05-03T16:01:07.243Z</time></trkpt><trkpt lat="44.1593384" lon="7.9573113"><ele>662.0</ele><time>2026-05-03T16:01:08.243Z</time></trkpt><trkpt lat="44.1592133" lon="7.9571434"><ele>662.0</ele><time>2026-05-03T16:01:09.244Z</time></trkpt><trkpt lat="44.159085" lon="7.9569715"><ele>662.0</ele><time>2026-05-03T16:01:10.243Z</time></trkpt><trkpt lat="44.1589583" lon="7.9568039"><ele>663.0</ele><time>2026-05-03T16:01:11.244Z</time></trkpt><trkpt lat="44.1588424" lon="7.9566492"><ele>664.0</ele><time>2026-05-03T16:01:12.243Z</time></trkpt><trkpt lat="44.1587308" lon="7.9564935"><ele>665.0</ele><time>2026-05-03T16:01:13.244Z</time></trkpt><trkpt lat="44.1586229" lon="7.9563283"><ele>665.0</ele><time>2026-05-03T16:01:14.244Z</time></trkpt><trkpt lat="44.1585244" lon="7.9561491"><ele>665.0</ele><time>2026-05-03T16:01:15.243Z</time></trkpt><trkpt lat="44.1584492" lon="7.9559535"><ele>665.0</ele><time>2026-05-03T16:01:16.243Z</time></trkpt><trkpt lat="44.1583831" lon="7.9557575"><ele>666.5</ele><time>2026-05-03T16:01:17.244Z</time></trkpt><trkpt lat="44.1583433" lon="7.9555571"><ele>668.0</ele><time>2026-05-03T16:01:18.243Z</time></trkpt><trkpt lat="44.1583197" lon="7.9553652"><ele>669.5</ele><time>2026-05-03T16:01:19.247Z</time></trkpt><trkpt lat="44.1583027" lon="7.9551664"><ele>671.0</ele><time>2026-05-03T16:01:20.247Z</time></trkpt><trkpt lat="44.1582858" lon="7.9549603"><ele>672.0</ele><time>2026-05-03T16:01:21.248Z</time></trkpt><trkpt lat="44.1582795" lon="7.9547342"><ele>673.0</ele><time>2026-05-03T16:01:22.247Z</time></trkpt><trkpt lat="44.1582669" lon="7.9544835"><ele>674.0</ele><time>2026-05-03T16:01:23.247Z</time></trkpt><trkpt lat="44.1582593" lon="7.9542104"><ele>673.6666666666666</ele><time>2026-05-03T16:01:24.248Z</time></trkpt><trkpt lat="44.1582567" lon="7.9539133"><ele>673.3333333333334</ele><time>2026-05-03T16:01:25.247Z</time></trkpt><trkpt lat="44.1582624" lon="7.9535996"><ele>673.0</ele><time>2026-05-03T16:01:26.247Z</time></trkpt><trkpt lat="44.1582596" lon="7.9532897"><ele>673.6666666666667</ele><time>2026-05-03T16:01:27.248Z</time></trkpt><trkpt lat="44.1582541" lon="7.9529878"><ele>674.3333333333334</ele><time>2026-05-03T16:01:28.247Z</time></trkpt><trkpt lat="44.1582478" lon="7.9526789"><ele>675.0</ele><time>2026-05-03T16:01:29.248Z</time></trkpt><trkpt lat="44.1582459" lon="7.9523637"><ele>676.3333333333334</ele><time>2026-05-03T16:01:30.248Z</time></trkpt><trkpt lat="44.1582461" lon="7.9520511"><ele>677.6666666666667</ele><time>2026-05-03T16:01:31.247Z</time></trkpt><trkpt lat="44.1582461" lon="7.9517549"><ele>679.0</ele><time>2026-05-03T16:01:32.248Z</time></trkpt><trkpt lat="44.1582475" lon="7.9514745"><ele>680.0</ele><time>2026-05-03T16:01:33.247Z</time></trkpt><trkpt lat="44.1582521" lon="7.9512078"><ele>681.0</ele><time>2026-05-03T16:01:34.247Z</time></trkpt><trkpt lat="44.1582621" lon="7.9509342"><ele>682.0</ele><time>2026-05-03T16:01:35.248Z</time></trkpt><trkpt lat="44.1582762" lon="7.9506422"><ele>682.6666666666667</ele><time>2026-05-03T16:01:36.248Z</time></trkpt><trkpt lat="44.1582864" lon="7.9503404"><ele>683.3333333333334</ele><time>2026-05-03T16:01:37.247Z</time></trkpt><trkpt lat="44.1582949" lon="7.950023"><ele>684.0</ele><time>2026-05-03T16:01:38.247Z</time></trkpt><trkpt lat="44.1583104" lon="7.949702"><ele>684.0</ele><time>2026-05-03T16:01:39.247Z</time></trkpt><trkpt lat="44.1583342" lon="7.9493763"><ele>684.0</ele><time>2026-05-03T16:01:40.248Z</time></trkpt><trkpt lat="44.1583524" lon="7.9490324"><ele>683.5</ele><time>2026-05-03T16:01:41.247Z</time></trkpt><trkpt lat="44.1583734" lon="7.9486645"><ele>683.0</ele><time>2026-05-03T16:01:42.247Z</time></trkpt><trkpt lat="44.1583918" lon="7.9482819"><ele>681.0</ele><time>2026-05-03T16:01:43.247Z</time></trkpt><trkpt lat="44.1584057" lon="7.9478874"><ele>679.0</ele><time>2026-05-03T16:01:44.247Z</time></trkpt><trkpt lat="44.1584108" lon="7.947492"><ele>679.0</ele><time>2026-05-03T16:01:45.247Z</time></trkpt><trkpt lat="44.1584006" lon="7.9471314"><ele>679.0</ele><time>2026-05-03T16:01:46.248Z</time></trkpt><trkpt lat="44.1583844" lon="7.946811"><ele>679.5</ele><time>2026-05-03T16:01:47.247Z</time></trkpt><trkpt lat="44.1583702" lon="7.946486"><ele>680.0</ele><time>2026-05-03T16:01:48.247Z</time></trkpt><trkpt lat="44.1583524" lon="7.9461705"><ele>679.3333333333333</ele><time>2026-05-03T16:01:49.247Z</time></trkpt><trkpt lat="44.1583318" lon="7.945872"><ele>678.6666666666666</ele><time>2026-05-03T16:01:50.248Z</time></trkpt><trkpt lat="44.1583176" lon="7.9456015"><ele>678.0</ele><time>2026-05-03T16:01:51.248Z</time></trkpt><trkpt lat="44.158313" lon="7.945372"><ele>678.0</ele><time>2026-05-03T16:01:52.248Z</time></trkpt><trkpt lat="44.1582943" lon="7.9451861"><ele>678.0</ele><time>2026-05-03T16:01:53.249Z</time></trkpt><trkpt lat="44.1582348" lon="7.9450038"><ele>678.0</ele><time>2026-05-03T16:01:54.248Z</time></trkpt><trkpt lat="44.1581431" lon="7.944822"><ele>678.0</ele><time>2026-05-03T16:01:55.249Z</time></trkpt><trkpt lat="44.1580445" lon="7.944634"><ele>677.0</ele><time>2026-05-03T16:01:56.248Z</time></trkpt><trkpt lat="44.1579709" lon="7.9444206"><ele>676.0</ele><time>2026-05-03T16:01:57.249Z</time></trkpt><trkpt lat="44.1579354" lon="7.9441172"><ele>675.0</ele><time>2026-05-03T16:01:58.248Z</time></trkpt><trkpt lat="44.1579074" lon="7.9438183"><ele>674.0</ele><time>2026-05-03T16:01:59.249Z</time></trkpt><trkpt lat="44.1578754" lon="7.9435057"><ele>673.0</ele><time>2026-05-03T16:02:00.248Z</time></trkpt><trkpt lat="44.1578371" lon="7.9431785"><ele>673.0</ele><time>2026-05-03T16:02:01.248Z</time></trkpt><trkpt lat="44.1577976" lon="7.9428462"><ele>673.0</ele><time>2026-05-03T16:02:02.248Z</time></trkpt><trkpt lat="44.1577501" lon="7.9425148"><ele>673.5</ele><time>2026-05-03T16:02:03.248Z</time></trkpt><trkpt lat="44.1577054" lon="7.9421846"><ele>674.0</ele><time>2026-05-03T16:02:04.249Z</time></trkpt><trkpt lat="44.1576609" lon="7.9418362"><ele>676.0</ele><time>2026-05-03T16:02:05.249Z</time></trkpt><trkpt lat="44.1576115" lon="7.9414833"><ele>678.0</ele><time>2026-05-03T16:02:06.249Z</time></trkpt><trkpt lat="44.1575563" lon="7.9411295"><ele>678.5</ele><time>2026-05-03T16:02:07.248Z</time></trkpt><trkpt lat="44.1575047" lon="7.9407779"><ele>679.0</ele><time>2026-05-03T16:02:08.248Z</time></trkpt><trkpt lat="44.1574558" lon="7.9404406"><ele>679.0</ele><time>2026-05-03T16:02:09.248Z</time></trkpt><trkpt lat="44.157408" lon="7.9401054"><ele>679.0</ele><time>2026-05-03T16:02:10.248Z</time></trkpt><trkpt lat="44.1573628" lon="7.9397759"><ele>682.0</ele><time>2026-05-03T16:02:11.248Z</time></trkpt><trkpt lat="44.1573225" lon="7.9394451"><ele>685.0</ele><time>2026-05-03T16:02:12.248Z</time></trkpt><trkpt lat="44.1572819" lon="7.9391197"><ele>685.0</ele><time>2026-05-03T16:02:13.248Z</time></trkpt><trkpt lat="44.1572436" lon="7.9387923"><ele>685.0</ele><time>2026-05-03T16:02:14.248Z</time></trkpt><trkpt lat="44.1572007" lon="7.9384625"><ele>685.0</ele><time>2026-05-03T16:02:15.248Z</time></trkpt><trkpt lat="44.1571597" lon="7.9381295"><ele>685.0</ele><time>2026-05-03T16:02:16.248Z</time></trkpt><trkpt lat="44.1571235" lon="7.9377919"><ele>685.5</ele><time>2026-05-03T16:02:17.249Z</time></trkpt><trkpt lat="44.1570935" lon="7.9374537"><ele>686.0</ele><time>2026-05-03T16:02:18.249Z</time></trkpt><trkpt lat="44.1570716" lon="7.9371165"><ele>686.0</ele><time>2026-05-03T16:02:19.248Z</time></trkpt><trkpt lat="44.1570522" lon="7.9367837"><ele>686.0</ele><time>2026-05-03T16:02:20.248Z</time></trkpt><trkpt lat="44.1570343" lon="7.936454"><ele>686.0</ele><time>2026-05-03T16:02:21.248Z</time></trkpt><trkpt lat="44.1570131" lon="7.9361289"><ele>686.0</ele><time>2026-05-03T16:02:22.248Z</time></trkpt><trkpt lat="44.1569892" lon="7.9358158"><ele>686.0</ele><time>2026-05-03T16:02:23.248Z</time></trkpt><trkpt lat="44.1569551" lon="7.9355167"><ele>686.0</ele><time>2026-05-03T16:02:24.248Z</time></trkpt><trkpt lat="44.1569143" lon="7.935219"><ele>686.0</ele><time>2026-05-03T16:02:25.249Z</time></trkpt><trkpt lat="44.1568639" lon="7.9349172"><ele>685.5</ele><time>2026-05-03T16:02:26.248Z</time></trkpt><trkpt lat="44.1568092" lon="7.9346145"><ele>685.0</ele><time>2026-05-03T16:02:27.248Z</time></trkpt><trkpt lat="44.1567468" lon="7.9343072"><ele>686.0</ele><time>2026-05-03T16:02:28.248Z</time></trkpt><trkpt lat="44.156688" lon="7.9339961"><ele>687.0</ele><time>2026-05-03T16:02:29.248Z</time></trkpt><trkpt lat="44.1566379" lon="7.9336806"><ele>687.5</ele><time>2026-05-03T16:02:30.249Z</time></trkpt><trkpt lat="44.1565925" lon="7.9333655"><ele>688.0</ele><time>2026-05-03T16:02:31.248Z</time></trkpt><trkpt lat="44.1565459" lon="7.9330409"><ele>688.0</ele><time>2026-05-03T16:02:32.248Z</time></trkpt><trkpt lat="44.1564938" lon="7.9327153"><ele>688.0</ele><time>2026-05-03T16:02:33.248Z</time></trkpt><trkpt lat="44.1564484" lon="7.9324033"><ele>688.0</ele><time>2026-05-03T16:02:34.248Z</time></trkpt><trkpt lat="44.1564007" lon="7.932098"><ele>688.0</ele><time>2026-05-03T16:02:35.248Z</time></trkpt><trkpt lat="44.1563489" lon="7.9318065"><ele>688.0</ele><time>2026-05-03T16:02:36.248Z</time></trkpt><trkpt lat="44.1563038" lon="7.9315219"><ele>687.6666666666667</ele><time>2026-05-03T16:02:37.249Z</time></trkpt><trkpt lat="44.1562611" lon="7.9312464"><ele>687.3333333333334</ele><time>2026-05-03T16:02:38.249Z</time></trkpt><trkpt lat="44.1562167" lon="7.9309816"><ele>687.0</ele><time>2026-05-03T16:02:39.248Z</time></trkpt><trkpt lat="44.1561725" lon="7.9307299"><ele>687.6666666666666</ele><time>2026-05-03T16:02:40.248Z</time></trkpt><trkpt lat="44.1561331" lon="7.9304986"><ele>688.3333333333333</ele><time>2026-05-03T16:02:41.248Z</time></trkpt><trkpt lat="44.1560938" lon="7.930282"><ele>689.0</ele><time>2026-05-03T16:02:42.248Z</time></trkpt><trkpt lat="44.1560569" lon="7.9300669"><ele>689.3333333333333</ele><time>2026-05-03T16:02:43.249Z</time></trkpt><trkpt lat="44.1560188" lon="7.9298393"><ele>689.6666666666666</ele><time>2026-05-03T16:02:44.248Z</time></trkpt><trkpt lat="44.1559823" lon="7.9296083"><ele>690.0</ele><time>2026-05-03T16:02:45.248Z</time></trkpt><trkpt lat="44.1559324" lon="7.9293613"><ele>690.0</ele><time>2026-05-03T16:02:46.248Z</time></trkpt><trkpt lat="44.1558822" lon="7.9290956"><ele>690.0</ele><time>2026-05-03T16:02:47.248Z</time></trkpt><trkpt lat="44.1558285" lon="7.9288011"><ele>690.0</ele><time>2026-05-03T16:02:48.248Z</time></trkpt><trkpt lat="44.155785" lon="7.9284827"><ele>692.0</ele><time>2026-05-03T16:02:49.249Z</time></trkpt><trkpt lat="44.1557391" lon="7.9281573"><ele>694.0</ele><time>2026-05-03T16:02:50.248Z</time></trkpt><trkpt lat="44.1556849" lon="7.9278216"><ele>694.5</ele><time>2026-05-03T16:02:51.248Z</time></trkpt><trkpt lat="44.1556312" lon="7.9274716"><ele>695.0</ele><time>2026-05-03T16:02:52.248Z</time></trkpt><trkpt lat="44.155571" lon="7.9271086"><ele>695.0</ele><time>2026-05-03T16:02:53.249Z</time></trkpt><trkpt lat="44.1555107" lon="7.9267361"><ele>695.0</ele><time>2026-05-03T16:02:54.248Z</time></trkpt><trkpt lat="44.1554515" lon="7.9263669"><ele>695.5</ele><time>2026-05-03T16:02:55.248Z</time></trkpt><trkpt lat="44.1553982" lon="7.9260027"><ele>696.0</ele><time>2026-05-03T16:02:56.248Z</time></trkpt><trkpt lat="44.1553415" lon="7.9256482"><ele>696.0</ele><time>2026-05-03T16:02:57.248Z</time></trkpt><trkpt lat="44.1552823" lon="7.9252948"><ele>696.0</ele><time>2026-05-03T16:02:58.249Z</time></trkpt><trkpt lat="44.1552258" lon="7.9249453"><ele>696.0</ele><time>2026-05-03T16:02:59.248Z</time></trkpt><trkpt lat="44.1551684" lon="7.9245934"><ele>696.0</ele><time>2026-05-03T16:03:00.248Z</time></trkpt><trkpt lat="44.1551116" lon="7.9242399"><ele>696.5</ele><time>2026-05-03T16:03:01.249Z</time></trkpt><trkpt lat="44.1550576" lon="7.9238926"><ele>697.0</ele><time>2026-05-03T16:03:02.248Z</time></trkpt><trkpt lat="44.1550027" lon="7.9235531"><ele>698.0</ele><time>2026-05-03T16:03:03.248Z</time></trkpt><trkpt lat="44.1549474" lon="7.9232122"><ele>699.0</ele><time>2026-05-03T16:03:04.248Z</time></trkpt><trkpt lat="44.1548903" lon="7.922867"><ele>698.5</ele><time>2026-05-03T16:03:05.248Z</time></trkpt><trkpt lat="44.1548289" lon="7.922518"><ele>698.0</ele><time>2026-05-03T16:03:06.248Z</time></trkpt><trkpt lat="44.1547708" lon="7.9221639"><ele>698.0</ele><time>2026-05-03T16:03:07.249Z</time></trkpt><trkpt lat="44.1547119" lon="7.9218185"><ele>698.0</ele><time>2026-05-03T16:03:08.248Z</time></trkpt><trkpt lat="44.1546657" lon="7.9214805"><ele>698.0</ele><time>2026-05-03T16:03:09.248Z</time></trkpt><trkpt lat="44.1546315" lon="7.9211427"><ele>698.0</ele><time>2026-05-03T16:03:10.248Z</time></trkpt><trkpt lat="44.1546095" lon="7.9207995"><ele>698.0</ele><time>2026-05-03T16:03:11.249Z</time></trkpt><trkpt lat="44.1546004" lon="7.9204606"><ele>698.0</ele><time>2026-05-03T16:03:12.248Z</time></trkpt><trkpt lat="44.1546095" lon="7.920114"><ele>700.5</ele><time>2026-05-03T16:03:13.248Z</time></trkpt><trkpt lat="44.154633" lon="7.9197583"><ele>703.0</ele><time>2026-05-03T16:03:14.249Z</time></trkpt><trkpt lat="44.1546714" lon="7.9194022"><ele>704.0</ele><time>2026-05-03T16:03:15.249Z</time></trkpt><trkpt lat="44.1547186" lon="7.9190521"><ele>705.0</ele><time>2026-05-03T16:03:16.248Z</time></trkpt><trkpt lat="44.154765" lon="7.918705"><ele>705.0</ele><time>2026-05-03T16:03:17.248Z</time></trkpt><trkpt lat="44.1548079" lon="7.9183712"><ele>705.0</ele><time>2026-05-03T16:03:18.249Z</time></trkpt><trkpt lat="44.154848" lon="7.9180534"><ele>707.3333333333334</ele><time>2026-05-03T16:03:19.248Z</time></trkpt><trkpt lat="44.154885" lon="7.9177517"><ele>709.6666666666667</ele><time>2026-05-03T16:03:20.248Z</time></trkpt><trkpt lat="44.1549244" lon="7.9174643"><ele>712.0</ele><time>2026-05-03T16:03:21.248Z</time></trkpt><trkpt lat="44.1549622" lon="7.917215"><ele>712.25</ele><time>2026-05-03T16:03:22.248Z</time></trkpt><trkpt lat="44.1549973" lon="7.9170075"><ele>712.5</ele><time>2026-05-03T16:03:23.249Z</time></trkpt><trkpt lat="44.1550433" lon="7.9168328"><ele>712.75</ele><time>2026-05-03T16:03:24.248Z</time></trkpt><trkpt lat="44.1550944" lon="7.9166748"><ele>713.0</ele><time>2026-05-03T16:03:25.248Z</time></trkpt><trkpt lat="44.1551167" lon="7.9164697"><ele>714.3333333333333</ele><time>2026-05-03T16:03:26.248Z</time></trkpt><trkpt lat="44.1550761" lon="7.9162317"><ele>715.6666666666666</ele><time>2026-05-03T16:03:27.248Z</time></trkpt><trkpt lat="44.1550218" lon="7.915972"><ele>717.0</ele><time>2026-05-03T16:03:28.248Z</time></trkpt><trkpt lat="44.1549448" lon="7.9156837"><ele>712.5</ele><time>2026-05-03T16:03:29.249Z</time></trkpt><trkpt lat="44.1548624" lon="7.9153869"><ele>708.0</ele><time>2026-05-03T16:03:30.248Z</time></trkpt><trkpt lat="44.1547768" lon="7.9150792"><ele>709.0</ele><time>2026-05-03T16:03:31.248Z</time></trkpt><trkpt lat="44.154697" lon="7.9147612"><ele>710.0</ele><time>2026-05-03T16:03:32.248Z</time></trkpt><trkpt lat="44.1546227" lon="7.9144501"><ele>711.5</ele><time>2026-05-03T16:03:33.248Z</time></trkpt><trkpt lat="44.1545401" lon="7.9141422"><ele>713.0</ele><time>2026-05-03T16:03:34.248Z</time></trkpt><trkpt lat="44.1544477" lon="7.9138427"><ele>713.0</ele><time>2026-05-03T16:03:35.249Z</time></trkpt><trkpt lat="44.1543392" lon="7.9135549"><ele>713.0</ele><time>2026-05-03T16:03:36.249Z</time></trkpt><trkpt lat="44.1542192" lon="7.9132819"><ele>712.3333333333333</ele><time>2026-05-03T16:03:37.248Z</time></trkpt><trkpt lat="44.1540928" lon="7.9130214"><ele>711.6666666666666</ele><time>2026-05-03T16:03:38.248Z</time></trkpt><trkpt lat="44.1539523" lon="7.9127795"><ele>711.0</ele><time>2026-05-03T16:03:39.248Z</time></trkpt><trkpt lat="44.1537954" lon="7.9125626"><ele>713.6666666666666</ele><time>2026-05-03T16:03:40.248Z</time></trkpt><trkpt lat="44.153629" lon="7.9123801"><ele>716.3333333333333</ele><time>2026-05-03T16:03:41.248Z</time></trkpt><trkpt lat="44.1534549" lon="7.912234"><ele>719.0</ele><time>2026-05-03T16:03:42.248Z</time></trkpt><trkpt lat="44.153277" lon="7.9121232"><ele>719.0</ele><time>2026-05-03T16:03:43.248Z</time></trkpt><trkpt lat="44.1530905" lon="7.9120622"><ele>719.0</ele><time>2026-05-03T16:03:44.249Z</time></trkpt><trkpt lat="44.15289" lon="7.9120558"><ele>719.0</ele><time>2026-05-03T16:03:45.249Z</time></trkpt><trkpt lat="44.152675" lon="7.9120721"><ele>719.0</ele><time>2026-05-03T16:03:46.248Z</time></trkpt><trkpt lat="44.1524591" lon="7.9120939"><ele>719.0</ele><time>2026-05-03T16:03:47.249Z</time></trkpt><trkpt lat="44.1522549" lon="7.9121121"><ele>719.0</ele><time>2026-05-03T16:03:48.248Z</time></trkpt><trkpt lat="44.1520669" lon="7.91212"><ele>718.6666666666666</ele><time>2026-05-03T16:03:49.249Z</time></trkpt><trkpt lat="44.151893" lon="7.9121244"><ele>718.3333333333334</ele><time>2026-05-03T16:03:50.248Z</time></trkpt><trkpt lat="44.1517242" lon="7.9121231"><ele>718.0</ele><time>2026-05-03T16:03:51.249Z</time></trkpt><trkpt lat="44.1515708" lon="7.9121311"><ele>720.75</ele><time>2026-05-03T16:03:52.248Z</time></trkpt><trkpt lat="44.1514319" lon="7.9121482"><ele>723.5</ele><time>2026-05-03T16:03:53.249Z</time></trkpt><trkpt lat="44.1513071" lon="7.9121767"><ele>726.25</ele><time>2026-05-03T16:03:54.248Z</time></trkpt><trkpt lat="44.1511809" lon="7.9122347"><ele>729.0</ele><time>2026-05-03T16:03:55.248Z</time></trkpt><trkpt lat="44.1510607" lon="7.9123465"><ele>729.0</ele><time>2026-05-03T16:03:56.249Z</time></trkpt><trkpt lat="44.1509488" lon="7.9124847"><ele>729.0</ele><time>2026-05-03T16:03:57.248Z</time></trkpt><trkpt lat="44.1508494" lon="7.9126152"><ele>729.0</ele><time>2026-05-03T16:03:58.249Z</time></trkpt><trkpt lat="44.1507476" lon="7.9127567"><ele>729.0</ele><time>2026-05-03T16:03:59.248Z</time></trkpt><trkpt lat="44.1506459" lon="7.9129097"><ele>729.75</ele><time>2026-05-03T16:04:00.248Z</time></trkpt><trkpt lat="44.1505503" lon="7.9130661"><ele>730.5</ele><time>2026-05-03T16:04:01.248Z</time></trkpt><trkpt lat="44.1504601" lon="7.9132247"><ele>731.25</ele><time>2026-05-03T16:04:02.248Z</time></trkpt><trkpt lat="44.1503826" lon="7.9133793"><ele>732.0</ele><time>2026-05-03T16:04:03.248Z</time></trkpt><trkpt lat="44.1503132" lon="7.9135328"><ele>731.25</ele><time>2026-05-03T16:04:04.249Z</time></trkpt><trkpt lat="44.1502328" lon="7.9136838"><ele>730.5</ele><time>2026-05-03T16:04:05.248Z</time></trkpt><trkpt lat="44.1501253" lon="7.9138121"><ele>729.75</ele><time>2026-05-03T16:04:06.248Z</time></trkpt><trkpt lat="44.1499875" lon="7.9139142"><ele>729.0</ele><time>2026-05-03T16:04:07.248Z</time></trkpt><trkpt lat="44.1498421" lon="7.9140046"><ele>729.0</ele><time>2026-05-03T16:04:08.249Z</time></trkpt><trkpt lat="44.149705" lon="7.9140786"><ele>729.0</ele><time>2026-05-03T16:04:09.248Z</time></trkpt><trkpt lat="44.1495692" lon="7.9141413"><ele>729.0</ele><time>2026-05-03T16:04:10.248Z</time></trkpt><trkpt lat="44.1494303" lon="7.9141953"><ele>729.0</ele><time>2026-05-03T16:04:11.248Z</time></trkpt><trkpt lat="44.149275" lon="7.9142424"><ele>726.3333333333334</ele><time>2026-05-03T16:04:12.248Z</time></trkpt><trkpt lat="44.1491082" lon="7.91429"><ele>723.6666666666667</ele><time>2026-05-03T16:04:13.248Z</time></trkpt><trkpt lat="44.1489363" lon="7.9143322"><ele>721.0</ele><time>2026-05-03T16:04:14.248Z</time></trkpt><trkpt lat="44.14877" lon="7.9143792"><ele>721.0</ele><time>2026-05-03T16:04:15.249Z</time></trkpt><trkpt lat="44.1485949" lon="7.9144055"><ele>721.0</ele><time>2026-05-03T16:04:16.248Z</time></trkpt><trkpt lat="44.1484313" lon="7.9144201"><ele>721.0</ele><time>2026-05-03T16:04:17.248Z</time></trkpt><trkpt lat="44.1482706" lon="7.914434"><ele>721.5</ele><time>2026-05-03T16:04:18.249Z</time></trkpt><trkpt lat="44.1481214" lon="7.9144344"><ele>722.0</ele><time>2026-05-03T16:04:19.248Z</time></trkpt><trkpt lat="44.1479874" lon="7.9144317"><ele>722.5</ele><time>2026-05-03T16:04:20.248Z</time></trkpt><trkpt lat="44.1478628" lon="7.9144194"><ele>723.0</ele><time>2026-05-03T16:04:21.248Z</time></trkpt><trkpt lat="44.1477642" lon="7.9143378"><ele>723.75</ele><time>2026-05-03T16:04:22.248Z</time></trkpt><trkpt lat="44.1476831" lon="7.9142277"><ele>724.5</ele><time>2026-05-03T16:04:23.249Z</time></trkpt><trkpt lat="44.1476342" lon="7.9140771"><ele>725.25</ele><time>2026-05-03T16:04:24.248Z</time></trkpt><trkpt lat="44.1476297" lon="7.9138969"><ele>726.0</ele><time>2026-05-03T16:04:25.249Z</time></trkpt><trkpt lat="44.147645" lon="7.9137198"><ele>726.0</ele><time>2026-05-03T16:04:26.248Z</time></trkpt><trkpt lat="44.147673" lon="7.9135606"><ele>726.0</ele><time>2026-05-03T16:04:27.248Z</time></trkpt><trkpt lat="44.1477164" lon="7.9134421"><ele>726.0</ele><time>2026-05-03T16:04:28.248Z</time></trkpt><trkpt lat="44.1477732" lon="7.9133306"><ele>726.0</ele><time>2026-05-03T16:04:29.249Z</time></trkpt><trkpt lat="44.1478307" lon="7.9132092"><ele>726.0</ele><time>2026-05-03T16:04:30.249Z</time></trkpt><trkpt lat="44.1478793" lon="7.9130641"><ele>727.5</ele><time>2026-05-03T16:04:31.248Z</time></trkpt><trkpt lat="44.1479287" lon="7.9129019"><ele>729.0</ele><time>2026-05-03T16:04:32.248Z</time></trkpt><trkpt lat="44.1479723" lon="7.9127126"><ele>730.5</ele><time>2026-05-03T16:04:33.248Z</time></trkpt><trkpt lat="44.1480005" lon="7.9124973"><ele>732.0</ele><time>2026-05-03T16:04:34.249Z</time></trkpt><trkpt lat="44.1480212" lon="7.9122722"><ele>732.0</ele><time>2026-05-03T16:04:35.248Z</time></trkpt><trkpt lat="44.1480367" lon="7.9120398"><ele>732.0</ele><time>2026-05-03T16:04:36.248Z</time></trkpt><trkpt lat="44.1480516" lon="7.9118079"><ele>732.0</ele><time>2026-05-03T16:04:37.249Z</time></trkpt><trkpt lat="44.1480779" lon="7.9115802"><ele>732.75</ele><time>2026-05-03T16:04:38.248Z</time></trkpt><trkpt lat="44.1481144" lon="7.9113637"><ele>733.5</ele><time>2026-05-03T16:04:39.249Z</time></trkpt><trkpt lat="44.1481614" lon="7.9111705"><ele>734.25</ele><time>2026-05-03T16:04:40.248Z</time></trkpt><trkpt lat="44.1482159" lon="7.9110017"><ele>735.0</ele><time>2026-05-03T16:04:41.248Z</time></trkpt><trkpt lat="44.1482708" lon="7.9108597"><ele>735.2</ele><time>2026-05-03T16:04:42.248Z</time></trkpt><trkpt lat="44.1483089" lon="7.9107231"><ele>735.4</ele><time>2026-05-03T16:04:43.248Z</time></trkpt><trkpt lat="44.148305" lon="7.9105757"><ele>735.5999999999999</ele><time>2026-05-03T16:04:44.248Z</time></trkpt><trkpt lat="44.1482694" lon="7.9104283"><ele>735.8</ele><time>2026-05-03T16:04:45.248Z</time></trkpt><trkpt lat="44.1482052" lon="7.9102885"><ele>736.0</ele><time>2026-05-03T16:04:46.248Z</time></trkpt><trkpt lat="44.1481258" lon="7.9101551"><ele>738.25</ele><time>2026-05-03T16:04:47.248Z</time></trkpt><trkpt lat="44.1480353" lon="7.9100171"><ele>740.5</ele><time>2026-05-03T16:04:48.248Z</time></trkpt><trkpt lat="44.1479415" lon="7.9098918"><ele>742.75</ele><time>2026-05-03T16:04:49.248Z</time></trkpt><trkpt lat="44.1478328" lon="7.9097975"><ele>745.0</ele><time>2026-05-03T16:04:50.249Z</time></trkpt><trkpt lat="44.1476986" lon="7.9097315"><ele>745.0</ele><time>2026-05-03T16:04:51.248Z</time></trkpt><trkpt lat="44.1475396" lon="7.9097263"><ele>745.0</ele><time>2026-05-03T16:04:52.248Z</time></trkpt><trkpt lat="44.1473706" lon="7.9097373"><ele>745.0</ele><time>2026-05-03T16:04:53.248Z</time></trkpt><trkpt lat="44.1471994" lon="7.9097359"><ele>742.3333333333334</ele><time>2026-05-03T16:04:54.248Z</time></trkpt><trkpt lat="44.1470274" lon="7.9097112"><ele>739.6666666666666</ele><time>2026-05-03T16:04:55.248Z</time></trkpt><trkpt lat="44.1468547" lon="7.9096626"><ele>737.0</ele><time>2026-05-03T16:04:56.248Z</time></trkpt><trkpt lat="44.1466876" lon="7.9095832"><ele>735.6666666666666</ele><time>2026-05-03T16:04:57.248Z</time></trkpt><trkpt lat="44.1465378" lon="7.9094654"><ele>734.3333333333334</ele><time>2026-05-03T16:04:58.248Z</time></trkpt><trkpt lat="44.1464009" lon="7.9093145"><ele>733.0</ele><time>2026-05-03T16:04:59.248Z</time></trkpt><trkpt lat="44.1462595" lon="7.9091348"><ele>733.0</ele><time>2026-05-03T16:05:00.248Z</time></trkpt><trkpt lat="44.146118" lon="7.908934"><ele>733.0</ele><time>2026-05-03T16:05:01.248Z</time></trkpt><trkpt lat="44.1459886" lon="7.9087091"><ele>733.0</ele><time>2026-05-03T16:05:02.249Z</time></trkpt><trkpt lat="44.1458723" lon="7.9084675"><ele>732.0</ele><time>2026-05-03T16:05:03.249Z</time></trkpt><trkpt lat="44.145762" lon="7.9082261"><ele>731.0</ele><time>2026-05-03T16:05:04.249Z</time></trkpt><trkpt lat="44.1456524" lon="7.9079873"><ele>730.0</ele><time>2026-05-03T16:05:05.248Z</time></trkpt><trkpt lat="44.1455439" lon="7.9077515"><ele>731.6666666666667</ele><time>2026-05-03T16:05:06.249Z</time></trkpt><trkpt lat="44.1454377" lon="7.9075191"><ele>733.3333333333334</ele><time>2026-05-03T16:05:07.248Z</time></trkpt><trkpt lat="44.1453356" lon="7.9072877"><ele>735.0</ele><time>2026-05-03T16:05:08.248Z</time></trkpt><trkpt lat="44.1452331" lon="7.9070604"><ele>735.0</ele><time>2026-05-03T16:05:09.249Z</time></trkpt><trkpt lat="44.1451293" lon="7.9068363"><ele>735.0</ele><time>2026-05-03T16:05:10.248Z</time></trkpt><trkpt lat="44.145024" lon="7.9066102"><ele>735.0</ele><time>2026-05-03T16:05:11.248Z</time></trkpt><trkpt lat="44.1449245" lon="7.9063963"><ele>734.3333333333334</ele><time>2026-05-03T16:05:12.249Z</time></trkpt><trkpt lat="44.1448278" lon="7.9061989"><ele>733.6666666666667</ele><time>2026-05-03T16:05:13.249Z</time></trkpt><trkpt lat="44.1447258" lon="7.9060056"><ele>733.0</ele><time>2026-05-03T16:05:14.249Z</time></trkpt><trkpt lat="44.144612" lon="7.9058239"><ele>736.0</ele><time>2026-05-03T16:05:15.248Z</time></trkpt><trkpt lat="44.1444852" lon="7.9056641"><ele>739.0</ele><time>2026-05-03T16:05:16.248Z</time></trkpt><trkpt lat="44.1443563" lon="7.9055169"><ele>742.0</ele><time>2026-05-03T16:05:17.249Z</time></trkpt><trkpt lat="44.1442278" lon="7.9053709"><ele>742.0</ele><time>2026-05-03T16:05:18.248Z</time></trkpt><trkpt lat="44.1440942" lon="7.9052319"><ele>742.0</ele><time>2026-05-03T16:05:19.248Z</time></trkpt><trkpt lat="44.1439643" lon="7.9050868"><ele>742.0</ele><time>2026-05-03T16:05:20.248Z</time></trkpt><trkpt lat="44.1438359" lon="7.9049472"><ele>741.6666666666667</ele><time>2026-05-03T16:05:21.248Z</time></trkpt><trkpt lat="44.1437044" lon="7.9048056"><ele>741.3333333333334</ele><time>2026-05-03T16:05:22.248Z</time></trkpt><trkpt lat="44.1435593" lon="7.9046568"><ele>741.0</ele><time>2026-05-03T16:05:23.248Z</time></trkpt><trkpt lat="44.1433963" lon="7.9044912"><ele>741.0</ele><time>2026-05-03T16:05:24.248Z</time></trkpt><trkpt lat="44.1432243" lon="7.9043098"><ele>741.0</ele><time>2026-05-03T16:05:25.248Z</time></trkpt><trkpt lat="44.143052" lon="7.9041185"><ele>741.0</ele><time>2026-05-03T16:05:26.248Z</time></trkpt><trkpt lat="44.1428823" lon="7.9039177"><ele>742.0</ele><time>2026-05-03T16:05:27.248Z</time></trkpt><trkpt lat="44.1427102" lon="7.9037128"><ele>743.0</ele><time>2026-05-03T16:05:28.248Z</time></trkpt><trkpt lat="44.142526" lon="7.9035037"><ele>743.5</ele><time>2026-05-03T16:05:29.249Z</time></trkpt><trkpt lat="44.1423363" lon="7.9032875"><ele>744.0</ele><time>2026-05-03T16:05:30.248Z</time></trkpt><trkpt lat="44.1421364" lon="7.9030756"><ele>744.0</ele><time>2026-05-03T16:05:31.248Z</time></trkpt><trkpt lat="44.1419385" lon="7.9028641"><ele>744.0</ele><time>2026-05-03T16:05:32.248Z</time></trkpt><trkpt lat="44.1417408" lon="7.9026473"><ele>743.5</ele><time>2026-05-03T16:05:33.248Z</time></trkpt><trkpt lat="44.1415489" lon="7.902429"><ele>743.0</ele><time>2026-05-03T16:05:34.248Z</time></trkpt><trkpt lat="44.141356" lon="7.9022169"><ele>743.0</ele><time>2026-05-03T16:05:35.249Z</time></trkpt><trkpt lat="44.1411609" lon="7.90201"><ele>743.0</ele><time>2026-05-03T16:05:36.248Z</time></trkpt><trkpt lat="44.1409706" lon="7.9018051"><ele>745.0</ele><time>2026-05-03T16:05:37.248Z</time></trkpt><trkpt lat="44.1407937" lon="7.9016283"><ele>747.0</ele><time>2026-05-03T16:05:38.249Z</time></trkpt><trkpt lat="44.1406315" lon="7.9014571"><ele>749.0</ele><time>2026-05-03T16:05:39.248Z</time></trkpt><trkpt lat="44.1404686" lon="7.9013187"><ele>749.0</ele><time>2026-05-03T16:05:40.248Z</time></trkpt><trkpt lat="44.1402884" lon="7.9012139"><ele>749.0</ele><time>2026-05-03T16:05:41.248Z</time></trkpt><trkpt lat="44.1400805" lon="7.9011479"><ele>749.0</ele><time>2026-05-03T16:05:42.248Z</time></trkpt><trkpt lat="44.1398721" lon="7.9010987"><ele>747.0</ele><time>2026-05-03T16:05:43.249Z</time></trkpt><trkpt lat="44.1396784" lon="7.9010582"><ele>745.0</ele><time>2026-05-03T16:05:44.248Z</time></trkpt><trkpt lat="44.1394967" lon="7.9010103"><ele>743.0</ele><time>2026-05-03T16:05:45.248Z</time></trkpt><trkpt lat="44.1393304" lon="7.9009146"><ele>748.3333333333333</ele><time>2026-05-03T16:05:46.248Z</time></trkpt><trkpt lat="44.1391859" lon="7.9008181"><ele>753.6666666666666</ele><time>2026-05-03T16:05:47.248Z</time></trkpt><trkpt lat="44.1390305" lon="7.9007661"><ele>759.0</ele><time>2026-05-03T16:05:48.249Z</time></trkpt><trkpt lat="44.1388693" lon="7.9007993"><ele>762.6666666666667</ele><time>2026-05-03T16:05:49.248Z</time></trkpt><trkpt lat="44.1387209" lon="7.9008682"><ele>766.3333333333334</ele><time>2026-05-03T16:05:50.248Z</time></trkpt><trkpt lat="44.1385743" lon="7.9009638"><ele>770.0</ele><time>2026-05-03T16:05:51.249Z</time></trkpt><trkpt lat="44.1384214" lon="7.9010137"><ele>763.0</ele><time>2026-05-03T16:05:52.248Z</time></trkpt><trkpt lat="44.1382403" lon="7.9010083"><ele>756.0</ele><time>2026-05-03T16:05:53.249Z</time></trkpt><trkpt lat="44.1380404" lon="7.901"><ele>749.0</ele><time>2026-05-03T16:05:54.248Z</time></trkpt><trkpt lat="44.137839" lon="7.9010241"><ele>749.0</ele><time>2026-05-03T16:05:55.248Z</time></trkpt><trkpt lat="44.137634" lon="7.9010481"><ele>749.0</ele><time>2026-05-03T16:05:56.249Z</time></trkpt><trkpt lat="44.1374352" lon="7.9010439"><ele>749.0</ele><time>2026-05-03T16:05:57.249Z</time></trkpt><trkpt lat="44.1372279" lon="7.9010133"><ele>748.3333333333333</ele><time>2026-05-03T16:05:58.249Z</time></trkpt><trkpt lat="44.1370169" lon="7.9009998"><ele>747.6666666666666</ele><time>2026-05-03T16:05:59.248Z</time></trkpt><trkpt lat="44.136813" lon="7.9009973"><ele>747.0</ele><time>2026-05-03T16:06:00.249Z</time></trkpt><trkpt lat="44.1366334" lon="7.9010013"><ele>747.0</ele><time>2026-05-03T16:06:01.248Z</time></trkpt><trkpt lat="44.1364663" lon="7.9009445"><ele>747.0</ele><time>2026-05-03T16:06:02.248Z</time></trkpt><trkpt lat="44.1363033" lon="7.9008357"><ele>747.0</ele><time>2026-05-03T16:06:03.248Z</time></trkpt><trkpt lat="44.1361437" lon="7.9006984"><ele>749.3333333333334</ele><time>2026-05-03T16:06:04.248Z</time></trkpt><trkpt lat="44.1359678" lon="7.9005664"><ele>751.6666666666667</ele><time>2026-05-03T16:06:05.249Z</time></trkpt><trkpt lat="44.1357715" lon="7.9004373"><ele>754.0</ele><time>2026-05-03T16:06:06.249Z</time></trkpt><trkpt lat="44.1355677" lon="7.900326"><ele>754.0</ele><time>2026-05-03T16:06:07.248Z</time></trkpt><trkpt lat="44.1353589" lon="7.9002387"><ele>754.0</ele><time>2026-05-03T16:06:08.248Z</time></trkpt><trkpt lat="44.1351515" lon="7.9002158"><ele>754.0</ele><time>2026-05-03T16:06:09.249Z</time></trkpt><trkpt lat="44.1349476" lon="7.900201"><ele>753.0</ele><time>2026-05-03T16:06:10.248Z</time></trkpt><trkpt lat="44.1347398" lon="7.9001664"><ele>752.0</ele><time>2026-05-03T16:06:11.248Z</time></trkpt><trkpt lat="44.1345276" lon="7.900084"><ele>751.0</ele><time>2026-05-03T16:06:12.248Z</time></trkpt><trkpt lat="44.1343145" lon="7.899955"><ele>756.0</ele><time>2026-05-03T16:06:13.248Z</time></trkpt><trkpt lat="44.1340857" lon="7.8998188"><ele>761.0</ele><time>2026-05-03T16:06:14.248Z</time></trkpt><trkpt lat="44.1338473" lon="7.8996935"><ele>761.0</ele><time>2026-05-03T16:06:15.248Z</time></trkpt><trkpt lat="44.1335977" lon="7.8996032"><ele>761.0</ele><time>2026-05-03T16:06:16.248Z</time></trkpt><trkpt lat="44.1333444" lon="7.8995213"><ele>758.5</ele><time>2026-05-03T16:06:17.248Z</time></trkpt><trkpt lat="44.1330937" lon="7.899435"><ele>756.0</ele><time>2026-05-03T16:06:18.248Z</time></trkpt><trkpt lat="44.1328503" lon="7.8993297"><ele>760.5</ele><time>2026-05-03T16:06:19.248Z</time></trkpt><trkpt lat="44.1326069" lon="7.8992131"><ele>765.0</ele><time>2026-05-03T16:06:20.248Z</time></trkpt><trkpt lat="44.1323605" lon="7.8990946"><ele>765.0</ele><time>2026-05-03T16:06:21.249Z</time></trkpt><trkpt lat="44.1321153" lon="7.8989748"><ele>765.0</ele><time>2026-05-03T16:06:22.248Z</time></trkpt><trkpt lat="44.1318739" lon="7.8988402"><ele>765.0</ele><time>2026-05-03T16:06:23.249Z</time></trkpt><trkpt lat="44.1316286" lon="7.8987061"><ele>765.0</ele><time>2026-05-03T16:06:24.248Z</time></trkpt><trkpt lat="44.1313874" lon="7.898558"><ele>769.5</ele><time>2026-05-03T16:06:25.249Z</time></trkpt><trkpt lat="44.1311519" lon="7.8984114"><ele>774.0</ele><time>2026-05-03T16:06:26.248Z</time></trkpt><trkpt lat="44.1309381" lon="7.8982614"><ele>774.0</ele><time>2026-05-03T16:06:27.248Z</time></trkpt><trkpt lat="44.1307423" lon="7.8980813"><ele>774.0</ele><time>2026-05-03T16:06:28.248Z</time></trkpt><trkpt lat="44.1305708" lon="7.8978574"><ele>774.0</ele><time>2026-05-03T16:06:29.248Z</time></trkpt><trkpt lat="44.1304076" lon="7.8976004"><ele>774.0</ele><time>2026-05-03T16:06:30.248Z</time></trkpt><trkpt lat="44.1302511" lon="7.8973339"><ele>774.0</ele><time>2026-05-03T16:06:31.248Z</time></trkpt><trkpt lat="44.1300758" lon="7.8971045"><ele>774.0</ele><time>2026-05-03T16:06:32.248Z</time></trkpt><trkpt lat="44.1298766" lon="7.8969278"><ele>775.0</ele><time>2026-05-03T16:06:33.249Z</time></trkpt><trkpt lat="44.1296625" lon="7.8968084"><ele>776.0</ele><time>2026-05-03T16:06:34.248Z</time></trkpt><trkpt lat="44.1294222" lon="7.8967527"><ele>782.0</ele><time>2026-05-03T16:06:35.248Z</time></trkpt><trkpt lat="44.1291643" lon="7.8967283"><ele>788.0</ele><time>2026-05-03T16:06:36.248Z</time></trkpt><trkpt lat="44.1288925" lon="7.8967331"><ele>788.0</ele><time>2026-05-03T16:06:37.249Z</time></trkpt><trkpt lat="44.1286177" lon="7.896733"><ele>788.0</ele><time>2026-05-03T16:06:38.248Z</time></trkpt><trkpt lat="44.1283456" lon="7.8967351"><ele>787.5</ele><time>2026-05-03T16:06:39.248Z</time></trkpt><trkpt lat="44.1280903" lon="7.8967351"><ele>787.0</ele><time>2026-05-03T16:06:40.248Z</time></trkpt><trkpt lat="44.1278397" lon="7.8967247"><ele>787.0</ele><time>2026-05-03T16:06:41.249Z</time></trkpt><trkpt lat="44.1275941" lon="7.8966799"><ele>787.0</ele><time>2026-05-03T16:06:42.249Z</time></trkpt><trkpt lat="44.1273557" lon="7.8965781"><ele>782.0</ele><time>2026-05-03T16:06:43.248Z</time></trkpt><trkpt lat="44.1271134" lon="7.8964529"><ele>777.0</ele><time>2026-05-03T16:06:44.249Z</time></trkpt><trkpt lat="44.1268727" lon="7.8963271"><ele>777.0</ele><time>2026-05-03T16:06:45.248Z</time></trkpt><trkpt lat="44.1266397" lon="7.8961943"><ele>777.0</ele><time>2026-05-03T16:06:46.248Z</time></trkpt><trkpt lat="44.1264133" lon="7.8960468"><ele>778.5</ele><time>2026-05-03T16:06:47.249Z</time></trkpt><trkpt lat="44.1261978" lon="7.8958599"><ele>780.0</ele><time>2026-05-03T16:06:48.248Z</time></trkpt><trkpt lat="44.125997" lon="7.8956795"><ele>780.0</ele><time>2026-05-03T16:06:49.248Z</time></trkpt><trkpt lat="44.1258071" lon="7.8955052"><ele>780.0</ele><time>2026-05-03T16:06:50.248Z</time></trkpt><trkpt lat="44.1256354" lon="7.8953465"><ele>780.0</ele><time>2026-05-03T16:06:51.248Z</time></trkpt><trkpt lat="44.1254726" lon="7.8951958"><ele>780.3333333333333</ele><time>2026-05-03T16:06:52.248Z</time></trkpt><trkpt lat="44.1253171" lon="7.8950496"><ele>780.6666666666666</ele><time>2026-05-03T16:06:53.248Z</time></trkpt><trkpt lat="44.1251643" lon="7.8949034"><ele>781.0</ele><time>2026-05-03T16:06:54.248Z</time></trkpt><trkpt lat="44.125015" lon="7.8947742"><ele>779.3333333333333</ele><time>2026-05-03T16:06:55.249Z</time></trkpt><trkpt lat="44.1248639" lon="7.8946618"><ele>777.6666666666667</ele><time>2026-05-03T16:06:56.248Z</time></trkpt><trkpt lat="44.1247122" lon="7.8945577"><ele>776.0</ele><time>2026-05-03T16:06:57.249Z</time></trkpt><trkpt lat="44.1245611" lon="7.8944556"><ele>776.0</ele><time>2026-05-03T16:06:58.248Z</time></trkpt><trkpt lat="44.1244081" lon="7.8943709"><ele>776.0</ele><time>2026-05-03T16:06:59.249Z</time></trkpt><trkpt lat="44.1242543" lon="7.894295"><ele>776.0</ele><time>2026-05-03T16:07:00.248Z</time></trkpt><trkpt lat="44.1240999" lon="7.8942333"><ele>777.0</ele><time>2026-05-03T16:07:01.249Z</time></trkpt><trkpt lat="44.123945" lon="7.8941692"><ele>778.0</ele><time>2026-05-03T16:07:02.248Z</time></trkpt><trkpt lat="44.12379" lon="7.8940928"><ele>779.0</ele><time>2026-05-03T16:07:03.248Z</time></trkpt><trkpt lat="44.123636" lon="7.8939982"><ele>779.0</ele><time>2026-05-03T16:07:04.249Z</time></trkpt><trkpt lat="44.1234885" lon="7.8939055"><ele>779.0</ele><time>2026-05-03T16:07:05.248Z</time></trkpt><trkpt lat="44.1233433" lon="7.8938177"><ele>779.0</ele><time>2026-05-03T16:07:06.249Z</time></trkpt><trkpt lat="44.1231977" lon="7.8937467"><ele>778.0</ele><time>2026-05-03T16:07:07.248Z</time></trkpt><trkpt lat="44.1230485" lon="7.8936858"><ele>777.0</ele><time>2026-05-03T16:07:08.249Z</time></trkpt><trkpt lat="44.1228945" lon="7.89364"><ele>776.0</ele><time>2026-05-03T16:07:09.249Z</time></trkpt><trkpt lat="44.1227414" lon="7.8935831"><ele>776.0</ele><time>2026-05-03T16:07:10.248Z</time></trkpt><trkpt lat="44.1226037" lon="7.8935161"><ele>776.0</ele><time>2026-05-03T16:07:11.248Z</time></trkpt><trkpt lat="44.1224785" lon="7.8934476"><ele>776.0</ele><time>2026-05-03T16:07:12.248Z</time></trkpt><trkpt lat="44.1223748" lon="7.8933675"><ele>776.0</ele><time>2026-05-03T16:07:13.248Z</time></trkpt><trkpt lat="44.1222826" lon="7.8932696"><ele>775.75</ele><time>2026-05-03T16:07:14.248Z</time></trkpt><trkpt lat="44.1222126" lon="7.8931304"><ele>775.5</ele><time>2026-05-03T16:07:15.249Z</time></trkpt><trkpt lat="44.122157" lon="7.8929656"><ele>775.25</ele><time>2026-05-03T16:07:16.248Z</time></trkpt><trkpt lat="44.1221076" lon="7.8927894"><ele>775.0</ele><time>2026-05-03T16:07:17.248Z</time></trkpt><trkpt lat="44.1220598" lon="7.8926199"><ele>777.0</ele><time>2026-05-03T16:07:18.248Z</time></trkpt><trkpt lat="44.122014" lon="7.892444"><ele>779.0</ele><time>2026-05-03T16:07:19.248Z</time></trkpt><trkpt lat="44.1219601" lon="7.8922562"><ele>781.0</ele><time>2026-05-03T16:07:20.248Z</time></trkpt><trkpt lat="44.1219005" lon="7.8920694"><ele>783.0</ele><time>2026-05-03T16:07:21.248Z</time></trkpt><trkpt lat="44.1218251" lon="7.8918998"><ele>782.0</ele><time>2026-05-03T16:07:22.248Z</time></trkpt><trkpt lat="44.1217336" lon="7.89174"><ele>781.0</ele><time>2026-05-03T16:07:23.248Z</time></trkpt><trkpt lat="44.121636" lon="7.8915899"><ele>780.0</ele><time>2026-05-03T16:07:24.248Z</time></trkpt><trkpt lat="44.1215462" lon="7.8914541"><ele>779.0</ele><time>2026-05-03T16:07:25.248Z</time></trkpt><trkpt lat="44.1214602" lon="7.8913305"><ele>779.0</ele><time>2026-05-03T16:07:26.248Z</time></trkpt><trkpt lat="44.1213913" lon="7.8911945"><ele>779.0</ele><time>2026-05-03T16:07:27.248Z</time></trkpt><trkpt lat="44.1213514" lon="7.8910454"><ele>779.0</ele><time>2026-05-03T16:07:28.248Z</time></trkpt><trkpt lat="44.121339" lon="7.8908773"><ele>779.0</ele><time>2026-05-03T16:07:29.248Z</time></trkpt><trkpt lat="44.1213525" lon="7.890701"><ele>779.0</ele><time>2026-05-03T16:07:30.248Z</time></trkpt><trkpt lat="44.1213816" lon="7.8905209"><ele>779.0</ele><time>2026-05-03T16:07:31.249Z</time></trkpt><trkpt lat="44.1213972" lon="7.8903264"><ele>779.0</ele><time>2026-05-03T16:07:32.249Z</time></trkpt><trkpt lat="44.1213991" lon="7.890122"><ele>779.0</ele><time>2026-05-03T16:07:33.249Z</time></trkpt><trkpt lat="44.1213881" lon="7.8899116"><ele>779.25</ele><time>2026-05-03T16:07:34.248Z</time></trkpt><trkpt lat="44.121359" lon="7.8897088"><ele>779.5</ele><time>2026-05-03T16:07:35.248Z</time></trkpt><trkpt lat="44.1213356" lon="7.8895138"><ele>779.75</ele><time>2026-05-03T16:07:36.248Z</time></trkpt><trkpt lat="44.1213243" lon="7.8893162"><ele>780.0</ele><time>2026-05-03T16:07:37.248Z</time></trkpt><trkpt lat="44.1213235" lon="7.8890928"><ele>781.3333333333333</ele><time>2026-05-03T16:07:38.248Z</time></trkpt><trkpt lat="44.1213304" lon="7.8888385"><ele>782.6666666666666</ele><time>2026-05-03T16:07:39.248Z</time></trkpt><trkpt lat="44.1213525" lon="7.8885459"><ele>784.0</ele><time>2026-05-03T16:07:40.248Z</time></trkpt><trkpt lat="44.1213809" lon="7.8882278"><ele>785.5</ele><time>2026-05-03T16:07:41.248Z</time></trkpt><trkpt lat="44.1214127" lon="7.8878967"><ele>787.0</ele><time>2026-05-03T16:07:42.248Z</time></trkpt><trkpt lat="44.121447" lon="7.8875659"><ele>787.0</ele><time>2026-05-03T16:07:43.248Z</time></trkpt><trkpt lat="44.1214757" lon="7.8872367"><ele>787.0</ele><time>2026-05-03T16:07:44.249Z</time></trkpt><trkpt lat="44.1214936" lon="7.886921"><ele>788.5</ele><time>2026-05-03T16:07:45.248Z</time></trkpt><trkpt lat="44.1214877" lon="7.8865946"><ele>790.0</ele><time>2026-05-03T16:07:46.249Z</time></trkpt><trkpt lat="44.1214531" lon="7.8862655"><ele>790.0</ele><time>2026-05-03T16:07:47.249Z</time></trkpt><trkpt lat="44.1213997" lon="7.8859338"><ele>790.0</ele><time>2026-05-03T16:07:48.248Z</time></trkpt><trkpt lat="44.1213229" lon="7.8856155"><ele>789.5</ele><time>2026-05-03T16:07:49.248Z</time></trkpt><trkpt lat="44.1212269" lon="7.8853087"><ele>789.0</ele><time>2026-05-03T16:07:50.248Z</time></trkpt><trkpt lat="44.1211434" lon="7.8849815"><ele>794.5</ele><time>2026-05-03T16:07:51.249Z</time></trkpt><trkpt lat="44.1210767" lon="7.8846312"><ele>800.0</ele><time>2026-05-03T16:07:52.248Z</time></trkpt><trkpt lat="44.1210287" lon="7.8842659"><ele>803.0</ele><time>2026-05-03T16:07:53.249Z</time></trkpt><trkpt lat="44.1209824" lon="7.8839141"><ele>806.0</ele><time>2026-05-03T16:07:54.249Z</time></trkpt><trkpt lat="44.1209204" lon="7.8835781"><ele>810.0</ele><time>2026-05-03T16:07:55.248Z</time></trkpt><trkpt lat="44.1208362" lon="7.8832727"><ele>814.0</ele><time>2026-05-03T16:07:56.248Z</time></trkpt><trkpt lat="44.1207355" lon="7.8829978"><ele>808.0</ele><time>2026-05-03T16:07:57.249Z</time></trkpt><trkpt lat="44.1206125" lon="7.8827597"><ele>802.0</ele><time>2026-05-03T16:07:58.249Z</time></trkpt><trkpt lat="44.1204588" lon="7.8825577"><ele>796.0</ele><time>2026-05-03T16:07:59.249Z</time></trkpt><trkpt lat="44.1202909" lon="7.8823645"><ele>796.0</ele><time>2026-05-03T16:08:00.251Z</time></trkpt><trkpt lat="44.1201205" lon="7.8821545"><ele>796.0</ele><time>2026-05-03T16:08:01.251Z</time></trkpt><trkpt lat="44.119963" lon="7.881911"><ele>794.5</ele><time>2026-05-03T16:08:02.251Z</time></trkpt><trkpt lat="44.1198363" lon="7.8816329"><ele>793.0</ele><time>2026-05-03T16:08:03.251Z</time></trkpt><trkpt lat="44.1197219" lon="7.881334"><ele>793.0</ele><time>2026-05-03T16:08:04.252Z</time></trkpt><trkpt lat="44.1196086" lon="7.8810415"><ele>793.0</ele><time>2026-05-03T16:08:05.251Z</time></trkpt><trkpt lat="44.1195037" lon="7.8807431"><ele>795.0</ele><time>2026-05-03T16:08:06.252Z</time></trkpt><trkpt lat="44.119421" lon="7.8804281"><ele>797.0</ele><time>2026-05-03T16:08:07.252Z</time></trkpt><trkpt lat="44.1193505" lon="7.8800917"><ele>801.5</ele><time>2026-05-03T16:08:08.251Z</time></trkpt><trkpt lat="44.1192792" lon="7.8797445"><ele>806.0</ele><time>2026-05-03T16:08:09.251Z</time></trkpt><trkpt lat="44.1192053" lon="7.8793977"><ele>808.0</ele><time>2026-05-03T16:08:10.252Z</time></trkpt><trkpt lat="44.1191254" lon="7.8790527"><ele>810.0</ele><time>2026-05-03T16:08:11.252Z</time></trkpt><trkpt lat="44.1190397" lon="7.8787126"><ele>803.5</ele><time>2026-05-03T16:08:12.252Z</time></trkpt><trkpt lat="44.1189536" lon="7.8783836"><ele>797.0</ele><time>2026-05-03T16:08:13.251Z</time></trkpt><trkpt lat="44.1188658" lon="7.8780738"><ele>797.0</ele><time>2026-05-03T16:08:14.252Z</time></trkpt><trkpt lat="44.11879" lon="7.8778007"><ele>797.0</ele><time>2026-05-03T16:08:15.251Z</time></trkpt><trkpt lat="44.1187337" lon="7.8775434"><ele>797.0</ele><time>2026-05-03T16:08:16.252Z</time></trkpt><trkpt lat="44.1187145" lon="7.8772993"><ele>797.6666666666667</ele><time>2026-05-03T16:08:17.251Z</time></trkpt><trkpt lat="44.1187368" lon="7.8770708"><ele>798.3333333333333</ele><time>2026-05-03T16:08:18.251Z</time></trkpt><trkpt lat="44.1188024" lon="7.8768493"><ele>799.0</ele><time>2026-05-03T16:08:19.251Z</time></trkpt><trkpt lat="44.118889" lon="7.8766229"><ele>799.6666666666666</ele><time>2026-05-03T16:08:20.252Z</time></trkpt><trkpt lat="44.1189587" lon="7.876377"><ele>800.3333333333333</ele><time>2026-05-03T16:08:21.251Z</time></trkpt><trkpt lat="44.1189887" lon="7.8761118"><ele>801.0</ele><time>2026-05-03T16:08:22.251Z</time></trkpt><trkpt lat="44.118974" lon="7.8758367"><ele>801.0</ele><time>2026-05-03T16:08:23.252Z</time></trkpt><trkpt lat="44.1189022" lon="7.8755589"><ele>801.0</ele><time>2026-05-03T16:08:24.251Z</time></trkpt><trkpt lat="44.1188047" lon="7.8752738"><ele>801.0</ele><time>2026-05-03T16:08:25.251Z</time></trkpt><trkpt lat="44.1187082" lon="7.8749763"><ele>803.0</ele><time>2026-05-03T16:08:26.252Z</time></trkpt><trkpt lat="44.1186101" lon="7.8746795"><ele>805.0</ele><time>2026-05-03T16:08:27.252Z</time></trkpt><trkpt lat="44.1185103" lon="7.8743857"><ele>808.0</ele><time>2026-05-03T16:08:28.252Z</time></trkpt><trkpt lat="44.1184172" lon="7.8740867"><ele>811.0</ele><time>2026-05-03T16:08:29.251Z</time></trkpt><trkpt lat="44.1183425" lon="7.8737911"><ele>811.0</ele><time>2026-05-03T16:08:30.251Z</time></trkpt><trkpt lat="44.1182883" lon="7.8734842"><ele>811.0</ele><time>2026-05-03T16:08:31.251Z</time></trkpt><trkpt lat="44.1182552" lon="7.8731646"><ele>811.3333333333333</ele><time>2026-05-03T16:08:32.252Z</time></trkpt><trkpt lat="44.1182304" lon="7.8728503"><ele>811.6666666666667</ele><time>2026-05-03T16:08:33.251Z</time></trkpt><trkpt lat="44.1182362" lon="7.8725449"><ele>812.0</ele><time>2026-05-03T16:08:34.251Z</time></trkpt><trkpt lat="44.1182684" lon="7.8722562"><ele>813.6666666666667</ele><time>2026-05-03T16:08:35.251Z</time></trkpt><trkpt lat="44.1183124" lon="7.8719823"><ele>815.3333333333333</ele><time>2026-05-03T16:08:36.251Z</time></trkpt><trkpt lat="44.1183399" lon="7.8717184"><ele>817.0</ele><time>2026-05-03T16:08:37.252Z</time></trkpt><trkpt lat="44.1183249" lon="7.8714468"><ele>817.0</ele><time>2026-05-03T16:08:38.251Z</time></trkpt><trkpt lat="44.1182791" lon="7.8711652"><ele>817.0</ele><time>2026-05-03T16:08:39.251Z</time></trkpt><trkpt lat="44.1182117" lon="7.8708787"><ele>817.0</ele><time>2026-05-03T16:08:40.252Z</time></trkpt><trkpt lat="44.1181282" lon="7.8706164"><ele>814.6666666666666</ele><time>2026-05-03T16:08:41.251Z</time></trkpt><trkpt lat="44.1180394" lon="7.8703862"><ele>812.3333333333333</ele><time>2026-05-03T16:08:42.251Z</time></trkpt><trkpt lat="44.1179702" lon="7.8701694"><ele>810.0</ele><time>2026-05-03T16:08:43.252Z</time></trkpt><trkpt lat="44.1179228" lon="7.8699608"><ele>810.0</ele><time>2026-05-03T16:08:44.252Z</time></trkpt><trkpt lat="44.1179075" lon="7.8697561"><ele>810.0</ele><time>2026-05-03T16:08:45.252Z</time></trkpt><trkpt lat="44.1179256" lon="7.8695349"><ele>810.0</ele><time>2026-05-03T16:08:46.252Z</time></trkpt><trkpt lat="44.1179636" lon="7.8692883"><ele>811.3333333333333</ele><time>2026-05-03T16:08:47.252Z</time></trkpt><trkpt lat="44.11801" lon="7.8690276"><ele>812.6666666666666</ele><time>2026-05-03T16:08:48.252Z</time></trkpt><trkpt lat="44.1180589" lon="7.8687864"><ele>814.0</ele><time>2026-05-03T16:08:49.252Z</time></trkpt><trkpt lat="44.1181067" lon="7.8685693"><ele>814.0</ele><time>2026-05-03T16:08:50.251Z</time></trkpt><trkpt lat="44.1181476" lon="7.8683735"><ele>814.0</ele><time>2026-05-03T16:08:51.252Z</time></trkpt><trkpt lat="44.1181791" lon="7.8682112"><ele>814.0</ele><time>2026-05-03T16:08:52.252Z</time></trkpt><trkpt lat="44.1181971" lon="7.8680843"><ele>814.0</ele><time>2026-05-03T16:08:53.251Z</time></trkpt><trkpt lat="44.1181876" lon="7.8679869"><ele>814.0</ele><time>2026-05-03T16:08:54.251Z</time></trkpt><trkpt lat="44.1181315" lon="7.8678922"><ele>814.0</ele><time>2026-05-03T16:08:55.251Z</time></trkpt><trkpt lat="44.1180403" lon="7.867807"><ele>814.0</ele><time>2026-05-03T16:08:56.252Z</time></trkpt><trkpt lat="44.1179323" lon="7.8677126"><ele>814.0</ele><time>2026-05-03T16:08:57.251Z</time></trkpt><trkpt lat="44.117816" lon="7.8676096"><ele>814.0</ele><time>2026-05-03T16:08:58.252Z</time></trkpt><trkpt lat="44.1177054" lon="7.8675039"><ele>815.75</ele><time>2026-05-03T16:08:59.252Z</time></trkpt><trkpt lat="44.1175928" lon="7.8674211"><ele>817.5</ele><time>2026-05-03T16:09:00.252Z</time></trkpt><trkpt lat="44.1174676" lon="7.8674046"><ele>819.25</ele><time>2026-05-03T16:09:01.251Z</time></trkpt><trkpt lat="44.1173213" lon="7.8674349"><ele>821.0</ele><time>2026-05-03T16:09:02.251Z</time></trkpt><trkpt lat="44.117153" lon="7.8674777"><ele>825.0</ele><time>2026-05-03T16:09:03.251Z</time></trkpt><trkpt lat="44.1169642" lon="7.8674953"><ele>829.0</ele><time>2026-05-03T16:09:04.251Z</time></trkpt><trkpt lat="44.1167538" lon="7.8674911"><ele>833.0</ele><time>2026-05-03T16:09:05.252Z</time></trkpt><trkpt lat="44.1165353" lon="7.8674822"><ele>835.6666666666667</ele><time>2026-05-03T16:09:06.252Z</time></trkpt><trkpt lat="44.1163117" lon="7.8674645"><ele>838.3333333333333</ele><time>2026-05-03T16:09:07.251Z</time></trkpt><trkpt lat="44.116095" lon="7.8674715"><ele>841.0</ele><time>2026-05-03T16:09:08.251Z</time></trkpt><trkpt lat="44.1158734" lon="7.8675085"><ele>838.0</ele><time>2026-05-03T16:09:09.251Z</time></trkpt><trkpt lat="44.1156467" lon="7.8675613"><ele>835.0</ele><time>2026-05-03T16:09:10.252Z</time></trkpt><trkpt lat="44.1154208" lon="7.8676204"><ele>835.0</ele><time>2026-05-03T16:09:11.252Z</time></trkpt><trkpt lat="44.1151993" lon="7.8677061"><ele>835.0</ele><time>2026-05-03T16:09:12.251Z</time></trkpt><trkpt lat="44.1149862" lon="7.8678184"><ele>836.6666666666666</ele><time>2026-05-03T16:09:13.252Z</time></trkpt><trkpt lat="44.1147828" lon="7.8679508"><ele>838.3333333333333</ele><time>2026-05-03T16:09:14.252Z</time></trkpt><trkpt lat="44.1146113" lon="7.868082"><ele>840.0</ele><time>2026-05-03T16:09:15.252Z</time></trkpt><trkpt lat="44.1144572" lon="7.8682173"><ele>840.0</ele><time>2026-05-03T16:09:16.252Z</time></trkpt><trkpt lat="44.1143051" lon="7.8683316"><ele>840.0</ele><time>2026-05-03T16:09:17.251Z</time></trkpt><trkpt lat="44.1141358" lon="7.8684025"><ele>840.0</ele><time>2026-05-03T16:09:18.251Z</time></trkpt><trkpt lat="44.1139533" lon="7.8684207"><ele>842.6666666666667</ele><time>2026-05-03T16:09:19.251Z</time></trkpt><trkpt lat="44.1137454" lon="7.8684269"><ele>845.3333333333334</ele><time>2026-05-03T16:09:20.251Z</time></trkpt><trkpt lat="44.1135413" lon="7.8684759"><ele>848.0</ele><time>2026-05-03T16:09:21.251Z</time></trkpt><trkpt lat="44.1133454" lon="7.8685663"><ele>850.6666666666667</ele><time>2026-05-03T16:09:22.251Z</time></trkpt><trkpt lat="44.1131734" lon="7.8686808"><ele>853.3333333333333</ele><time>2026-05-03T16:09:23.251Z</time></trkpt><trkpt lat="44.1129937" lon="7.8688127"><ele>856.0</ele><time>2026-05-03T16:09:24.251Z</time></trkpt><trkpt lat="44.1128097" lon="7.8689181"><ele>856.0</ele><time>2026-05-03T16:09:25.251Z</time></trkpt><trkpt lat="44.1126175" lon="7.8690009"><ele>856.0</ele><time>2026-05-03T16:09:26.251Z</time></trkpt><trkpt lat="44.1124143" lon="7.8690596"><ele>856.0</ele><time>2026-05-03T16:09:27.252Z</time></trkpt><trkpt lat="44.1122064" lon="7.8691014"><ele>857.3333333333333</ele><time>2026-05-03T16:09:28.251Z</time></trkpt><trkpt lat="44.1120126" lon="7.8691467"><ele>858.6666666666667</ele><time>2026-05-03T16:09:29.251Z</time></trkpt><trkpt lat="44.111827" lon="7.8691535"><ele>860.0</ele><time>2026-05-03T16:09:30.252Z</time></trkpt><trkpt lat="44.1116246" lon="7.8690919"><ele>862.0</ele><time>2026-05-03T16:09:31.251Z</time></trkpt><trkpt lat="44.1114146" lon="7.8690273"><ele>864.0</ele><time>2026-05-03T16:09:32.252Z</time></trkpt><trkpt lat="44.1112051" lon="7.8689977"><ele>866.0</ele><time>2026-05-03T16:09:33.251Z</time></trkpt><trkpt lat="44.1109978" lon="7.8690324"><ele>866.0</ele><time>2026-05-03T16:09:34.251Z</time></trkpt><trkpt lat="44.1107769" lon="7.8691087"><ele>866.0</ele><time>2026-05-03T16:09:35.252Z</time></trkpt><trkpt lat="44.1105609" lon="7.8691904"><ele>866.6666666666667</ele><time>2026-05-03T16:09:36.252Z</time></trkpt><trkpt lat="44.1103536" lon="7.869266"><ele>867.3333333333333</ele><time>2026-05-03T16:09:37.251Z</time></trkpt><trkpt lat="44.1101616" lon="7.8693307"><ele>868.0</ele><time>2026-05-03T16:09:38.251Z</time></trkpt><trkpt lat="44.1099879" lon="7.8693491"><ele>868.25</ele><time>2026-05-03T16:09:39.252Z</time></trkpt><trkpt lat="44.1098373" lon="7.8693201"><ele>868.5</ele><time>2026-05-03T16:09:40.251Z</time></trkpt><trkpt lat="44.1097058" lon="7.8692967"><ele>868.75</ele><time>2026-05-03T16:09:41.252Z</time></trkpt><trkpt lat="44.1095861" lon="7.8693057"><ele>869.0</ele><time>2026-05-03T16:09:42.253Z</time></trkpt><trkpt lat="44.1094796" lon="7.869351"><ele>869.0000000000001</ele><time>2026-05-03T16:09:43.252Z</time></trkpt><trkpt lat="44.1093914" lon="7.8694189"><ele>869.0</ele><time>2026-05-03T16:09:44.252Z</time></trkpt><trkpt lat="44.1093191" lon="7.8694937"><ele>869.0</ele><time>2026-05-03T16:09:45.252Z</time></trkpt><trkpt lat="44.1092646" lon="7.8695569"><ele>869.0</ele><time>2026-05-03T16:09:46.253Z</time></trkpt><trkpt lat="44.1092253" lon="7.8696371"><ele>869.0000000000001</ele><time>2026-05-03T16:09:48.252Z</time></trkpt><trkpt lat="44.1091826" lon="7.8697031"><ele>869.0</ele><time>2026-05-03T16:09:55.252Z</time></trkpt><trkpt lat="44.1091417" lon="7.8697962"><ele>869.0</ele><time>2026-05-03T16:09:57.252Z</time></trkpt><trkpt lat="44.1090993" lon="7.8698795"><ele>869.0</ele><time>2026-05-03T16:09:58.253Z</time></trkpt><trkpt lat="44.1090512" lon="7.8699684"><ele>869.0</ele><time>2026-05-03T16:09:59.252Z</time></trkpt><trkpt lat="44.1090022" lon="7.8700641"><ele>869.0</ele><time>2026-05-03T16:10:00.252Z</time></trkpt><trkpt lat="44.1089605" lon="7.87014"><ele>869.0</ele><time>2026-05-03T16:10:01.252Z</time></trkpt><trkpt lat="44.1089177" lon="7.870208"><ele>869.0</ele><time>2026-05-03T16:10:02.252Z</time></trkpt><trkpt lat="44.1088758" lon="7.8702739"><ele>869.0</ele><time>2026-05-03T16:10:03.252Z</time></trkpt><trkpt lat="44.1087867" lon="7.8703945"><ele>868.2</ele><time>2026-05-03T16:10:05.252Z</time></trkpt><trkpt lat="44.1087245" lon="7.8704651"><ele>867.4000000000001</ele><time>2026-05-03T16:10:06.252Z</time></trkpt><trkpt lat="44.1086511" lon="7.8705407"><ele>866.6</ele><time>2026-05-03T16:10:07.253Z</time></trkpt><trkpt lat="44.1085741" lon="7.8706135"><ele>865.8</ele><time>2026-05-03T16:10:08.253Z</time></trkpt><trkpt lat="44.1084855" lon="7.870686"><ele>865.0</ele><time>2026-05-03T16:10:09.253Z</time></trkpt><trkpt lat="44.1083887" lon="7.8707675"><ele>865.0</ele><time>2026-05-03T16:10:10.252Z</time></trkpt><trkpt lat="44.1082868" lon="7.8708388"><ele>865.0</ele><time>2026-05-03T16:10:11.253Z</time></trkpt><trkpt lat="44.1081764" lon="7.8709008"><ele>865.0</ele><time>2026-05-03T16:10:12.252Z</time></trkpt><trkpt lat="44.1080577" lon="7.8709309"><ele>865.0</ele><time>2026-05-03T16:10:13.252Z</time></trkpt><trkpt lat="44.1079355" lon="7.8709516"><ele>865.75</ele><time>2026-05-03T16:10:14.253Z</time></trkpt><trkpt lat="44.1078125" lon="7.8709639"><ele>866.5</ele><time>2026-05-03T16:10:15.252Z</time></trkpt><trkpt lat="44.10769" lon="7.8709809"><ele>867.25</ele><time>2026-05-03T16:10:16.253Z</time></trkpt><trkpt lat="44.1075736" lon="7.8710004"><ele>868.0</ele><time>2026-05-03T16:10:17.252Z</time></trkpt><trkpt lat="44.1074605" lon="7.871043"><ele>868.5999999999999</ele><time>2026-05-03T16:10:18.253Z</time></trkpt><trkpt lat="44.1073591" lon="7.8711066"><ele>869.1999999999999</ele><time>2026-05-03T16:10:19.253Z</time></trkpt><trkpt lat="44.107262" lon="7.8711682"><ele>869.8</ele><time>2026-05-03T16:10:20.253Z</time></trkpt><trkpt lat="44.1071623" lon="7.8712169"><ele>870.4</ele><time>2026-05-03T16:10:21.252Z</time></trkpt><trkpt lat="44.1070492" lon="7.8712455"><ele>871.0</ele><time>2026-05-03T16:10:22.252Z</time></trkpt><trkpt lat="44.1069291" lon="7.8712485"><ele>871.0</ele><time>2026-05-03T16:10:23.252Z</time></trkpt><trkpt lat="44.1068096" lon="7.8712358"><ele>871.0</ele><time>2026-05-03T16:10:24.253Z</time></trkpt><trkpt lat="44.1066925" lon="7.8712092"><ele>871.0</ele><time>2026-05-03T16:10:25.253Z</time></trkpt><trkpt lat="44.1065695" lon="7.8711734"><ele>871.0</ele><time>2026-05-03T16:10:26.252Z</time></trkpt><trkpt lat="44.1064476" lon="7.8711201"><ele>870.75</ele><time>2026-05-03T16:10:27.252Z</time></trkpt><trkpt lat="44.106324" lon="7.8710792"><ele>870.5</ele><time>2026-05-03T16:10:28.252Z</time></trkpt><trkpt lat="44.1062033" lon="7.8710316"><ele>870.25</ele><time>2026-05-03T16:10:29.252Z</time></trkpt><trkpt lat="44.1060818" lon="7.870991"><ele>870.0</ele><time>2026-05-03T16:10:30.252Z</time></trkpt><trkpt lat="44.1059579" lon="7.8709652"><ele>870.0</ele><time>2026-05-03T16:10:31.253Z</time></trkpt><trkpt lat="44.1058271" lon="7.8709532"><ele>870.0</ele><time>2026-05-03T16:10:32.252Z</time></trkpt><trkpt lat="44.1056875" lon="7.8709378"><ele>870.0</ele><time>2026-05-03T16:10:33.252Z</time></trkpt><trkpt lat="44.105543" lon="7.8709302"><ele>870.0</ele><time>2026-05-03T16:10:34.252Z</time></trkpt><trkpt lat="44.1053733" lon="7.8709268"><ele>873.3333333333333</ele><time>2026-05-03T16:10:35.253Z</time></trkpt><trkpt lat="44.1051845" lon="7.8709294"><ele>876.6666666666666</ele><time>2026-05-03T16:10:36.252Z</time></trkpt><trkpt lat="44.1049748" lon="7.8709319"><ele>880.0</ele><time>2026-05-03T16:10:37.252Z</time></trkpt><trkpt lat="44.1047477" lon="7.8709341"><ele>880.0</ele><time>2026-05-03T16:10:38.252Z</time></trkpt><trkpt lat="44.1045084" lon="7.8709043"><ele>880.0</ele><time>2026-05-03T16:10:39.252Z</time></trkpt><trkpt lat="44.1042672" lon="7.8708394"><ele>881.5</ele><time>2026-05-03T16:10:40.252Z</time></trkpt><trkpt lat="44.1040246" lon="7.8707645"><ele>883.0</ele><time>2026-05-03T16:10:41.252Z</time></trkpt><trkpt lat="44.1037796" lon="7.8706835"><ele>883.0</ele><time>2026-05-03T16:10:42.253Z</time></trkpt><trkpt lat="44.1035365" lon="7.8706062"><ele>883.0</ele><time>2026-05-03T16:10:43.252Z</time></trkpt><trkpt lat="44.1032982" lon="7.8705315"><ele>884.0</ele><time>2026-05-03T16:10:44.252Z</time></trkpt><trkpt lat="44.1030612" lon="7.870471"><ele>885.0</ele><time>2026-05-03T16:10:45.253Z</time></trkpt><trkpt lat="44.1028279" lon="7.8704415"><ele>885.0</ele><time>2026-05-03T16:10:46.252Z</time></trkpt><trkpt lat="44.1025868" lon="7.8704851"><ele>885.0</ele><time>2026-05-03T16:10:47.253Z</time></trkpt><trkpt lat="44.1023419" lon="7.8705523"><ele>888.0</ele><time>2026-05-03T16:10:48.252Z</time></trkpt><trkpt lat="44.1020869" lon="7.8706297"><ele>891.0</ele><time>2026-05-03T16:10:49.253Z</time></trkpt><trkpt lat="44.1018292" lon="7.8707031"><ele>892.0</ele><time>2026-05-03T16:10:50.252Z</time></trkpt><trkpt lat="44.1015687" lon="7.8707777"><ele>893.0</ele><time>2026-05-03T16:10:51.252Z</time></trkpt><trkpt lat="44.1013063" lon="7.8708468"><ele>893.0</ele><time>2026-05-03T16:10:52.252Z</time></trkpt><trkpt lat="44.1010471" lon="7.8709168"><ele>893.0</ele><time>2026-05-03T16:10:53.253Z</time></trkpt><trkpt lat="44.1007923" lon="7.8709845"><ele>889.5</ele><time>2026-05-03T16:10:54.252Z</time></trkpt><trkpt lat="44.1005479" lon="7.8710377"><ele>886.0</ele><time>2026-05-03T16:10:55.253Z</time></trkpt><trkpt lat="44.1003081" lon="7.8710843"><ele>886.0</ele><time>2026-05-03T16:10:56.252Z</time></trkpt><trkpt lat="44.1000786" lon="7.8711287"><ele>886.0</ele><time>2026-05-03T16:10:57.252Z</time></trkpt><trkpt lat="44.0998584" lon="7.8711625"><ele>887.3333333333333</ele><time>2026-05-03T16:10:58.252Z</time></trkpt><trkpt lat="44.0996339" lon="7.8711659"><ele>888.6666666666667</ele><time>2026-05-03T16:10:59.252Z</time></trkpt><trkpt lat="44.0994156" lon="7.87111"><ele>890.0</ele><time>2026-05-03T16:11:00.253Z</time></trkpt><trkpt lat="44.0992056" lon="7.8710463"><ele>890.6666666666667</ele><time>2026-05-03T16:11:01.253Z</time></trkpt><trkpt lat="44.0989952" lon="7.8710346"><ele>891.3333333333333</ele><time>2026-05-03T16:11:02.252Z</time></trkpt><trkpt lat="44.0987626" lon="7.8710919"><ele>892.0</ele><time>2026-05-03T16:11:03.252Z</time></trkpt><trkpt lat="44.0985426" lon="7.8711854"><ele>892.0</ele><time>2026-05-03T16:11:04.252Z</time></trkpt><trkpt lat="44.0983318" lon="7.8712619"><ele>892.0</ele><time>2026-05-03T16:11:05.252Z</time></trkpt><trkpt lat="44.0981301" lon="7.8713335"><ele>892.0</ele><time>2026-05-03T16:11:06.253Z</time></trkpt><trkpt lat="44.0979397" lon="7.8713902"><ele>893.0</ele><time>2026-05-03T16:11:07.252Z</time></trkpt><trkpt lat="44.0977681" lon="7.8714515"><ele>894.0</ele><time>2026-05-03T16:11:08.253Z</time></trkpt><trkpt lat="44.0976068" lon="7.8715041"><ele>895.0</ele><time>2026-05-03T16:11:09.252Z</time></trkpt><trkpt lat="44.0974578" lon="7.8715466"><ele>896.25</ele><time>2026-05-03T16:11:10.252Z</time></trkpt><trkpt lat="44.0973119" lon="7.8715885"><ele>897.5</ele><time>2026-05-03T16:11:11.252Z</time></trkpt><trkpt lat="44.097168" lon="7.8716318"><ele>898.75</ele><time>2026-05-03T16:11:12.252Z</time></trkpt><trkpt lat="44.0970239" lon="7.8716774"><ele>900.0</ele><time>2026-05-03T16:11:13.252Z</time></trkpt><trkpt lat="44.0968716" lon="7.8717204"><ele>900.0</ele><time>2026-05-03T16:11:14.252Z</time></trkpt><trkpt lat="44.0967183" lon="7.8717624"><ele>900.0</ele><time>2026-05-03T16:11:15.252Z</time></trkpt><trkpt lat="44.0965586" lon="7.871808"><ele>900.0</ele><time>2026-05-03T16:11:16.253Z</time></trkpt><trkpt lat="44.0963849" lon="7.8718683"><ele>900.3333333333333</ele><time>2026-05-03T16:11:17.252Z</time></trkpt><trkpt lat="44.0962049" lon="7.871931"><ele>900.6666666666666</ele><time>2026-05-03T16:11:18.253Z</time></trkpt><trkpt lat="44.096019" lon="7.8719955"><ele>901.0</ele><time>2026-05-03T16:11:19.252Z</time></trkpt><trkpt lat="44.0958183" lon="7.8720452"><ele>902.3333333333333</ele><time>2026-05-03T16:11:20.253Z</time></trkpt><trkpt lat="44.0956085" lon="7.8721015"><ele>903.6666666666667</ele><time>2026-05-03T16:11:21.252Z</time></trkpt><trkpt lat="44.0953913" lon="7.8721615"><ele>905.0</ele><time>2026-05-03T16:11:22.253Z</time></trkpt><trkpt lat="44.0951719" lon="7.8722234"><ele>905.0</ele><time>2026-05-03T16:11:23.253Z</time></trkpt><trkpt lat="44.0949458" lon="7.8722908"><ele>905.0</ele><time>2026-05-03T16:11:24.253Z</time></trkpt><trkpt lat="44.0947167" lon="7.8723624"><ele>907.0</ele><time>2026-05-03T16:11:25.252Z</time></trkpt><trkpt lat="44.0944856" lon="7.8724392"><ele>909.0</ele><time>2026-05-03T16:11:26.252Z</time></trkpt><trkpt lat="44.0942582" lon="7.8725146"><ele>907.3333333333333</ele><time>2026-05-03T16:11:27.252Z</time></trkpt><trkpt lat="44.0940437" lon="7.8725723"><ele>905.6666666666666</ele><time>2026-05-03T16:11:28.252Z</time></trkpt><trkpt lat="44.0938464" lon="7.8726353"><ele>904.0</ele><time>2026-05-03T16:11:29.252Z</time></trkpt><trkpt lat="44.0936644" lon="7.8727066"><ele>904.0</ele><time>2026-05-03T16:11:30.252Z</time></trkpt><trkpt lat="44.0935036" lon="7.8727997"><ele>904.0</ele><time>2026-05-03T16:11:31.252Z</time></trkpt><trkpt lat="44.0933565" lon="7.8729003"><ele>904.0</ele><time>2026-05-03T16:11:32.252Z</time></trkpt><trkpt lat="44.0932187" lon="7.8730081"><ele>905.5</ele><time>2026-05-03T16:11:33.252Z</time></trkpt><trkpt lat="44.0930839" lon="7.8730885"><ele>907.0</ele><time>2026-05-03T16:11:34.253Z</time></trkpt><trkpt lat="44.0929614" lon="7.8731439"><ele>908.5</ele><time>2026-05-03T16:11:35.252Z</time></trkpt><trkpt lat="44.0928465" lon="7.8731634"><ele>910.0</ele><time>2026-05-03T16:11:36.252Z</time></trkpt><trkpt lat="44.092724" lon="7.8731674"><ele>910.0</ele><time>2026-05-03T16:11:37.252Z</time></trkpt><trkpt lat="44.0925859" lon="7.8731459"><ele>910.0</ele><time>2026-05-03T16:11:38.253Z</time></trkpt><trkpt lat="44.0924333" lon="7.8731057"><ele>910.0</ele><time>2026-05-03T16:11:39.252Z</time></trkpt><trkpt lat="44.0922642" lon="7.8730689"><ele>912.0</ele><time>2026-05-03T16:11:40.252Z</time></trkpt><trkpt lat="44.0920934" lon="7.8730575"><ele>914.0</ele><time>2026-05-03T16:11:41.253Z</time></trkpt><trkpt lat="44.091908" lon="7.8731281"><ele>916.0</ele><time>2026-05-03T16:11:42.253Z</time></trkpt><trkpt lat="44.0917191" lon="7.8732719"><ele>915.3333333333333</ele><time>2026-05-03T16:11:43.252Z</time></trkpt><trkpt lat="44.0915366" lon="7.8733895"><ele>914.6666666666667</ele><time>2026-05-03T16:11:44.252Z</time></trkpt><trkpt lat="44.0913387" lon="7.8734549"><ele>914.0</ele><time>2026-05-03T16:11:45.252Z</time></trkpt><trkpt lat="44.0911193" lon="7.8734895"><ele>914.0</ele><time>2026-05-03T16:11:46.253Z</time></trkpt><trkpt lat="44.0908822" lon="7.8735112"><ele>914.0</ele><time>2026-05-03T16:11:47.252Z</time></trkpt><trkpt lat="44.0906398" lon="7.873542"><ele>915.0</ele><time>2026-05-03T16:11:48.252Z</time></trkpt><trkpt lat="44.0903952" lon="7.8735747"><ele>916.0</ele><time>2026-05-03T16:11:49.252Z</time></trkpt><trkpt lat="44.0901393" lon="7.873601"><ele>916.5</ele><time>2026-05-03T16:11:50.253Z</time></trkpt><trkpt lat="44.0898842" lon="7.8736432"><ele>917.0</ele><time>2026-05-03T16:11:51.252Z</time></trkpt><trkpt lat="44.0896425" lon="7.8736787"><ele>917.0</ele><time>2026-05-03T16:11:52.252Z</time></trkpt><trkpt lat="44.0894196" lon="7.8737049"><ele>917.0</ele><time>2026-05-03T16:11:53.252Z</time></trkpt><trkpt lat="44.0892081" lon="7.8736847"><ele>917.0</ele><time>2026-05-03T16:11:54.252Z</time></trkpt><trkpt lat="44.0890043" lon="7.8735947"><ele>919.5</ele><time>2026-05-03T16:11:55.252Z</time></trkpt><trkpt lat="44.0887976" lon="7.8734522"><ele>922.0</ele><time>2026-05-03T16:11:56.252Z</time></trkpt><trkpt lat="44.0885938" lon="7.8732989"><ele>924.3333333333333</ele><time>2026-05-03T16:11:57.252Z</time></trkpt><trkpt lat="44.0883962" lon="7.8731774"><ele>926.6666666666667</ele><time>2026-05-03T16:11:58.252Z</time></trkpt><trkpt lat="44.0881877" lon="7.8730919"><ele>929.0</ele><time>2026-05-03T16:11:59.252Z</time></trkpt><trkpt lat="44.0879689" lon="7.8730603"><ele>929.0</ele><time>2026-05-03T16:12:00.253Z</time></trkpt><trkpt lat="44.0877384" lon="7.8730336"><ele>929.0</ele><time>2026-05-03T16:12:01.252Z</time></trkpt><trkpt lat="44.0875067" lon="7.8729927"><ele>929.5</ele><time>2026-05-03T16:12:02.252Z</time></trkpt><trkpt lat="44.0872848" lon="7.8729108"><ele>930.0</ele><time>2026-05-03T16:12:03.252Z</time></trkpt><trkpt lat="44.0870635" lon="7.8728416"><ele>930.0</ele><time>2026-05-03T16:12:04.252Z</time></trkpt><trkpt lat="44.0868325" lon="7.872797"><ele>930.0</ele><time>2026-05-03T16:12:05.253Z</time></trkpt><trkpt lat="44.0866011" lon="7.8727777"><ele>930.5</ele><time>2026-05-03T16:12:06.252Z</time></trkpt><trkpt lat="44.0863685" lon="7.8727765"><ele>931.0</ele><time>2026-05-03T16:12:07.253Z</time></trkpt><trkpt lat="44.0861472" lon="7.8727654"><ele>931.0</ele><time>2026-05-03T16:12:08.253Z</time></trkpt><trkpt lat="44.0859351" lon="7.8727708"><ele>931.0</ele><time>2026-05-03T16:12:09.252Z</time></trkpt><trkpt lat="44.0857365" lon="7.87279"><ele>931.0</ele><time>2026-05-03T16:12:10.253Z</time></trkpt><trkpt lat="44.0855586" lon="7.8728055"><ele>932.6666666666666</ele><time>2026-05-03T16:12:11.252Z</time></trkpt><trkpt lat="44.0853966" lon="7.8728208"><ele>934.3333333333333</ele><time>2026-05-03T16:12:12.252Z</time></trkpt><trkpt lat="44.0852435" lon="7.872829"><ele>936.0</ele><time>2026-05-03T16:12:13.252Z</time></trkpt><trkpt lat="44.0851049" lon="7.8728329"><ele>936.0</ele><time>2026-05-03T16:12:14.252Z</time></trkpt><trkpt lat="44.0849745" lon="7.8728401"><ele>936.0</ele><time>2026-05-03T16:12:15.253Z</time></trkpt><trkpt lat="44.0848645" lon="7.8728373"><ele>936.0</ele><time>2026-05-03T16:12:16.252Z</time></trkpt><trkpt lat="44.084761" lon="7.8728308"><ele>936.0</ele><time>2026-05-03T16:12:17.252Z</time></trkpt><trkpt lat="44.0846536" lon="7.8728123"><ele>937.0</ele><time>2026-05-03T16:12:18.252Z</time></trkpt><trkpt lat="44.0845492" lon="7.8727875"><ele>937.9999999999999</ele><time>2026-05-03T16:12:19.252Z</time></trkpt><trkpt lat="44.0844711" lon="7.8727695"><ele>938.9999999999999</ele><time>2026-05-03T16:12:20.253Z</time></trkpt><trkpt lat="44.0843819" lon="7.872748"><ele>940.0</ele><time>2026-05-03T16:12:22.253Z</time></trkpt><trkpt lat="44.0843192" lon="7.8727268"><ele>941.0</ele><time>2026-05-03T16:15:23.257Z</time></trkpt><trkpt lat="44.0842036" lon="7.8727135"><ele>941.0</ele><time>2026-05-03T16:15:25.256Z</time></trkpt><trkpt lat="44.0841308" lon="7.8727076"><ele>940.9999999999999</ele><time>2026-05-03T16:15:26.256Z</time></trkpt><trkpt lat="44.0840366" lon="7.8726943"><ele>940.9999999999999</ele><time>2026-05-03T16:15:27.256Z</time></trkpt><trkpt lat="44.0839299" lon="7.8726836"><ele>941.0</ele><time>2026-05-03T16:15:28.256Z</time></trkpt><trkpt lat="44.0838084" lon="7.8726818"><ele>941.0</ele><time>2026-05-03T16:15:29.256Z</time></trkpt><trkpt lat="44.0836711" lon="7.8727033"><ele>939.3333333333334</ele><time>2026-05-03T16:15:30.257Z</time></trkpt><trkpt lat="44.0835275" lon="7.8727389"><ele>937.6666666666667</ele><time>2026-05-03T16:15:31.256Z</time></trkpt><trkpt lat="44.0833738" lon="7.8727816"><ele>936.0</ele><time>2026-05-03T16:15:32.256Z</time></trkpt><trkpt lat="44.0832182" lon="7.872822"><ele>935.6666666666667</ele><time>2026-05-03T16:15:33.256Z</time></trkpt><trkpt lat="44.0830546" lon="7.8728637"><ele>935.3333333333334</ele><time>2026-05-03T16:15:34.256Z</time></trkpt><trkpt lat="44.0828771" lon="7.8728825"><ele>935.0</ele><time>2026-05-03T16:15:35.256Z</time></trkpt><trkpt lat="44.0826995" lon="7.8728633"><ele>935.0</ele><time>2026-05-03T16:15:36.257Z</time></trkpt><trkpt lat="44.0825115" lon="7.8728109"><ele>935.0</ele><time>2026-05-03T16:15:37.256Z</time></trkpt><trkpt lat="44.0823065" lon="7.8727316"><ele>935.0</ele><time>2026-05-03T16:15:38.256Z</time></trkpt><trkpt lat="44.0820884" lon="7.8726247"><ele>931.0</ele><time>2026-05-03T16:15:39.257Z</time></trkpt><trkpt lat="44.0818618" lon="7.8725232"><ele>927.0</ele><time>2026-05-03T16:15:40.256Z</time></trkpt><trkpt lat="44.0816335" lon="7.8724025"><ele>923.0</ele><time>2026-05-03T16:15:41.257Z</time></trkpt><trkpt lat="44.081399" lon="7.8722829"><ele>919.0</ele><time>2026-05-03T16:15:42.257Z</time></trkpt><trkpt lat="44.0811804" lon="7.8721803"><ele>919.0</ele><time>2026-05-03T16:15:43.257Z</time></trkpt><trkpt lat="44.0809633" lon="7.8720892"><ele>919.0</ele><time>2026-05-03T16:15:44.257Z</time></trkpt><trkpt lat="44.0807559" lon="7.8719989"><ele>919.0</ele><time>2026-05-03T16:15:45.256Z</time></trkpt><trkpt lat="44.080562" lon="7.8719186"><ele>912.0</ele><time>2026-05-03T16:15:46.256Z</time></trkpt><trkpt lat="44.0803893" lon="7.8718406"><ele>905.0</ele><time>2026-05-03T16:15:47.256Z</time></trkpt><trkpt lat="44.0802459" lon="7.8717486"><ele>898.0</ele><time>2026-05-03T16:15:48.257Z</time></trkpt><trkpt lat="44.080142" lon="7.8715958"><ele>898.0</ele><time>2026-05-03T16:15:49.257Z</time></trkpt><trkpt lat="44.0800603" lon="7.8713957"><ele>898.0</ele><time>2026-05-03T16:15:50.256Z</time></trkpt><trkpt lat="44.0800044" lon="7.8711801"><ele>898.0</ele><time>2026-05-03T16:15:51.257Z</time></trkpt><trkpt lat="44.0799775" lon="7.8709499"><ele>901.0</ele><time>2026-05-03T16:15:52.256Z</time></trkpt><trkpt lat="44.079974" lon="7.8707063"><ele>904.0</ele><time>2026-05-03T16:15:53.256Z</time></trkpt><trkpt lat="44.0799596" lon="7.8704828"><ele>907.0</ele><time>2026-05-03T16:15:54.256Z</time></trkpt><trkpt lat="44.0799055" lon="7.8702929"><ele>894.0</ele><time>2026-05-03T16:15:55.256Z</time></trkpt><trkpt lat="44.0798187" lon="7.870113"><ele>881.0</ele><time>2026-05-03T16:15:56.257Z</time></trkpt><trkpt lat="44.0797273" lon="7.8699404"><ele>868.0</ele><time>2026-05-03T16:15:57.257Z</time></trkpt><trkpt lat="44.0796466" lon="7.869787"><ele>855.0</ele><time>2026-05-03T16:15:58.256Z</time></trkpt><trkpt lat="44.0796138" lon="7.8696449"><ele>855.0</ele><time>2026-05-03T16:15:59.256Z</time></trkpt><trkpt lat="44.0796257" lon="7.8694957"><ele>855.0</ele><time>2026-05-03T16:16:00.256Z</time></trkpt><trkpt lat="44.0796884" lon="7.8693495"><ele>855.0</ele><time>2026-05-03T16:16:01.257Z</time></trkpt><trkpt lat="44.0797811" lon="7.8692079"><ele>855.0</ele><time>2026-05-03T16:16:02.257Z</time></trkpt><trkpt lat="44.0798933" lon="7.8690714"><ele>865.25</ele><time>2026-05-03T16:16:03.257Z</time></trkpt><trkpt lat="44.0800171" lon="7.8689258"><ele>875.5</ele><time>2026-05-03T16:16:04.257Z</time></trkpt><trkpt lat="44.0801302" lon="7.8687864"><ele>885.75</ele><time>2026-05-03T16:16:05.256Z</time></trkpt><trkpt lat="44.0802272" lon="7.868658"><ele>896.0</ele><time>2026-05-03T16:16:06.256Z</time></trkpt><trkpt lat="44.0802864" lon="7.8684834"><ele>888.3333333333334</ele><time>2026-05-03T16:16:07.256Z</time></trkpt><trkpt lat="44.0803015" lon="7.8682817"><ele>880.6666666666667</ele><time>2026-05-03T16:16:08.256Z</time></trkpt><trkpt lat="44.0803186" lon="7.8680591"><ele>873.0</ele><time>2026-05-03T16:16:09.256Z</time></trkpt><trkpt lat="44.0803715" lon="7.8678613"><ele>873.0</ele><time>2026-05-03T16:16:10.256Z</time></trkpt><trkpt lat="44.0804651" lon="7.8676475"><ele>873.0</ele><time>2026-05-03T16:16:11.256Z</time></trkpt><trkpt lat="44.0805659" lon="7.867419"><ele>873.0</ele><time>2026-05-03T16:16:12.256Z</time></trkpt><trkpt lat="44.0806698" lon="7.8672001"><ele>873.6666666666667</ele><time>2026-05-03T16:16:13.257Z</time></trkpt><trkpt lat="44.0807535" lon="7.8669904"><ele>874.3333333333334</ele><time>2026-05-03T16:16:14.256Z</time></trkpt><trkpt lat="44.0807986" lon="7.8667754"><ele>875.0</ele><time>2026-05-03T16:16:15.256Z</time></trkpt><trkpt lat="44.0808128" lon="7.8665298"><ele>875.0</ele><time>2026-05-03T16:16:16.257Z</time></trkpt><trkpt lat="44.0808062" lon="7.8662716"><ele>875.0</ele><time>2026-05-03T16:16:17.257Z</time></trkpt><trkpt lat="44.0808023" lon="7.8660094"><ele>875.0</ele><time>2026-05-03T16:16:18.257Z</time></trkpt><trkpt lat="44.0808224" lon="7.8657584"><ele>873.0</ele><time>2026-05-03T16:16:19.256Z</time></trkpt><trkpt lat="44.0808572" lon="7.8655255"><ele>871.0</ele><time>2026-05-03T16:16:20.257Z</time></trkpt><trkpt lat="44.0808656" lon="7.8653255"><ele>869.0</ele><time>2026-05-03T16:16:21.256Z</time></trkpt><trkpt lat="44.0808407" lon="7.8651528"><ele>867.0</ele><time>2026-05-03T16:16:22.256Z</time></trkpt><trkpt lat="44.080769" lon="7.8650236"><ele>861.75</ele><time>2026-05-03T16:16:23.256Z</time></trkpt><trkpt lat="44.0806626" lon="7.8649405"><ele>856.5</ele><time>2026-05-03T16:16:24.256Z</time></trkpt><trkpt lat="44.0805439" lon="7.8648866"><ele>851.25</ele><time>2026-05-03T16:16:25.256Z</time></trkpt><trkpt lat="44.0804248" lon="7.8648448"><ele>846.0</ele><time>2026-05-03T16:16:26.257Z</time></trkpt><trkpt lat="44.0803097" lon="7.8647854"><ele>846.0</ele><time>2026-05-03T16:16:27.256Z</time></trkpt><trkpt lat="44.0802376" lon="7.8646865"><ele>846.0</ele><time>2026-05-03T16:16:28.257Z</time></trkpt><trkpt lat="44.0802083" lon="7.8645637"><ele>846.0</ele><time>2026-05-03T16:16:29.256Z</time></trkpt><trkpt lat="44.0802213" lon="7.864422"><ele>846.0</ele><time>2026-05-03T16:16:30.256Z</time></trkpt><trkpt lat="44.0802553" lon="7.8642448"><ele>846.0</ele><time>2026-05-03T16:16:31.257Z</time></trkpt><trkpt lat="44.0802984" lon="7.8640523"><ele>845.3333333333333</ele><time>2026-05-03T16:16:32.257Z</time></trkpt><trkpt lat="44.0803576" lon="7.8638635"><ele>844.6666666666666</ele><time>2026-05-03T16:16:33.256Z</time></trkpt><trkpt lat="44.0804494" lon="7.8636893"><ele>844.0</ele><time>2026-05-03T16:16:34.256Z</time></trkpt><trkpt lat="44.0805546" lon="7.863512"><ele>848.3333333333333</ele><time>2026-05-03T16:16:35.256Z</time></trkpt><trkpt lat="44.0806544" lon="7.8633382"><ele>852.6666666666667</ele><time>2026-05-03T16:16:36.256Z</time></trkpt><trkpt lat="44.0807413" lon="7.8631569"><ele>857.0</ele><time>2026-05-03T16:16:37.257Z</time></trkpt><trkpt lat="44.080795" lon="7.862953"><ele>857.0</ele><time>2026-05-03T16:16:38.256Z</time></trkpt><trkpt lat="44.0808115" lon="7.8627472"><ele>857.0</ele><time>2026-05-03T16:16:39.256Z</time></trkpt><trkpt lat="44.0807743" lon="7.8625183"><ele>857.0</ele><time>2026-05-03T16:16:40.256Z</time></trkpt><trkpt lat="44.0807024" lon="7.8622712"><ele>843.6666666666667</ele><time>2026-05-03T16:16:41.257Z</time></trkpt><trkpt lat="44.0806258" lon="7.8620098"><ele>830.3333333333333</ele><time>2026-05-03T16:16:42.257Z</time></trkpt><trkpt lat="44.080547" lon="7.8617191"><ele>817.0</ele><time>2026-05-03T16:16:43.256Z</time></trkpt><trkpt lat="44.0804718" lon="7.8614402"><ele>816.6666666666666</ele><time>2026-05-03T16:16:44.256Z</time></trkpt><trkpt lat="44.0804046" lon="7.861151"><ele>816.3333333333333</ele><time>2026-05-03T16:16:45.256Z</time></trkpt><trkpt lat="44.0803475" lon="7.8608513"><ele>816.0</ele><time>2026-05-03T16:16:46.256Z</time></trkpt><trkpt lat="44.0802986" lon="7.8605512"><ele>815.6666666666667</ele><time>2026-05-03T16:16:47.256Z</time></trkpt><trkpt lat="44.0802603" lon="7.8602718"><ele>815.3333333333334</ele><time>2026-05-03T16:16:48.256Z</time></trkpt><trkpt lat="44.0802262" lon="7.8600098"><ele>815.0</ele><time>2026-05-03T16:16:49.256Z</time></trkpt><trkpt lat="44.0802165" lon="7.8597756"><ele>815.0</ele><time>2026-05-03T16:16:50.257Z</time></trkpt><trkpt lat="44.0802386" lon="7.8595571"><ele>815.0</ele><time>2026-05-03T16:16:51.258Z</time></trkpt><trkpt lat="44.080302" lon="7.8593656"><ele>815.0</ele><time>2026-05-03T16:16:52.257Z</time></trkpt><trkpt lat="44.0804093" lon="7.85922"><ele>811.3333333333334</ele><time>2026-05-03T16:16:53.257Z</time></trkpt><trkpt lat="44.0805494" lon="7.859107"><ele>807.6666666666667</ele><time>2026-05-03T16:16:54.257Z</time></trkpt><trkpt lat="44.0806935" lon="7.8590181"><ele>804.0</ele><time>2026-05-03T16:16:55.257Z</time></trkpt><trkpt lat="44.0808268" lon="7.8589318"><ele>809.6</ele><time>2026-05-03T16:16:56.258Z</time></trkpt><trkpt lat="44.0809334" lon="7.8588571"><ele>815.2</ele><time>2026-05-03T16:16:57.257Z</time></trkpt><trkpt lat="44.0810088" lon="7.8587673"><ele>820.8000000000001</ele><time>2026-05-03T16:16:58.257Z</time></trkpt><trkpt lat="44.0810329" lon="7.8586708"><ele>826.4000000000001</ele><time>2026-05-03T16:16:59.257Z</time></trkpt><trkpt lat="44.0810124" lon="7.8585708"><ele>832.0</ele><time>2026-05-03T16:17:00.257Z</time></trkpt><trkpt lat="44.080939" lon="7.8584863"><ele>828.75</ele><time>2026-05-03T16:17:01.258Z</time></trkpt><trkpt lat="44.0808402" lon="7.8584184"><ele>825.5</ele><time>2026-05-03T16:17:02.257Z</time></trkpt><trkpt lat="44.0807391" lon="7.8583329"><ele>822.25</ele><time>2026-05-03T16:17:03.257Z</time></trkpt><trkpt lat="44.0806633" lon="7.858203"><ele>819.0</ele><time>2026-05-03T16:17:04.257Z</time></trkpt><trkpt lat="44.0806142" lon="7.8580173"><ele>808.75</ele><time>2026-05-03T16:17:05.257Z</time></trkpt><trkpt lat="44.0805891" lon="7.8578303"><ele>798.5</ele><time>2026-05-03T16:17:06.257Z</time></trkpt><trkpt lat="44.0805962" lon="7.857658"><ele>788.25</ele><time>2026-05-03T16:17:07.257Z</time></trkpt><trkpt lat="44.0806345" lon="7.8574987"><ele>778.0</ele><time>2026-05-03T16:17:08.258Z</time></trkpt><trkpt lat="44.0806465" lon="7.8573642"><ele>777.75</ele><time>2026-05-03T16:17:09.257Z</time></trkpt><trkpt lat="44.080614" lon="7.8572451"><ele>777.5</ele><time>2026-05-03T16:17:10.257Z</time></trkpt><trkpt lat="44.0805217" lon="7.8571363"><ele>777.25</ele><time>2026-05-03T16:17:11.257Z</time></trkpt><trkpt lat="44.0804069" lon="7.8570421"><ele>777.0</ele><time>2026-05-03T16:17:12.257Z</time></trkpt><trkpt lat="44.0803002" lon="7.8569453"><ele>777.0</ele><time>2026-05-03T16:17:13.257Z</time></trkpt><trkpt lat="44.0802187" lon="7.8568199"><ele>777.0</ele><time>2026-05-03T16:17:14.258Z</time></trkpt><trkpt lat="44.0801643" lon="7.8566545"><ele>777.0</ele><time>2026-05-03T16:17:15.257Z</time></trkpt><trkpt lat="44.0801464" lon="7.8564819"><ele>777.0</ele><time>2026-05-03T16:17:16.258Z</time></trkpt><trkpt lat="44.0801638" lon="7.8563262"><ele>778.5</ele><time>2026-05-03T16:17:17.257Z</time></trkpt><trkpt lat="44.0802292" lon="7.8562034"><ele>780.0</ele><time>2026-05-03T16:17:18.258Z</time></trkpt><trkpt lat="44.0803175" lon="7.8561071"><ele>781.5</ele><time>2026-05-03T16:17:19.258Z</time></trkpt><trkpt lat="44.0804286" lon="7.8560069"><ele>783.0</ele><time>2026-05-03T16:17:20.257Z</time></trkpt><trkpt lat="44.0805322" lon="7.8558641"><ele>783.0</ele><time>2026-05-03T16:17:21.257Z</time></trkpt><trkpt lat="44.0806128" lon="7.8556834"><ele>783.0</ele><time>2026-05-03T16:17:22.257Z</time></trkpt><trkpt lat="44.0806707" lon="7.8554996"><ele>783.0</ele><time>2026-05-03T16:17:23.257Z</time></trkpt><trkpt lat="44.0807154" lon="7.8553363"><ele>783.0</ele><time>2026-05-03T16:17:24.258Z</time></trkpt><trkpt lat="44.0807487" lon="7.8551986"><ele>783.0</ele><time>2026-05-03T16:17:25.257Z</time></trkpt><trkpt lat="44.0807368" lon="7.8550808"><ele>783.0</ele><time>2026-05-03T16:17:26.257Z</time></trkpt><trkpt lat="44.080686" lon="7.8550022"><ele>783.0</ele><time>2026-05-03T16:17:27.257Z</time></trkpt><trkpt lat="44.0806191" lon="7.8549834"><ele>783.0</ele><time>2026-05-03T16:17:28.257Z</time></trkpt><trkpt lat="44.0805476" lon="7.8550304"><ele>783.0</ele><time>2026-05-03T16:17:29.257Z</time></trkpt><trkpt lat="44.0804868" lon="7.8551258"><ele>783.0</ele><time>2026-05-03T16:17:30.257Z</time></trkpt><trkpt lat="44.0804567" lon="7.855262"><ele>783.0</ele><time>2026-05-03T16:17:31.257Z</time></trkpt><trkpt lat="44.0804297" lon="7.85543"><ele>783.0</ele><time>2026-05-03T16:17:32.257Z</time></trkpt><trkpt lat="44.0803858" lon="7.8556149"><ele>783.0</ele><time>2026-05-03T16:17:33.258Z</time></trkpt><trkpt lat="44.0803029" lon="7.8557895"><ele>783.0</ele><time>2026-05-03T16:17:34.257Z</time></trkpt><trkpt lat="44.0801858" lon="7.855926"><ele>786.0</ele><time>2026-05-03T16:17:35.257Z</time></trkpt><trkpt lat="44.0800491" lon="7.8560242"><ele>789.0</ele><time>2026-05-03T16:17:36.257Z</time></trkpt><trkpt lat="44.0799049" lon="7.8560999"><ele>792.0</ele><time>2026-05-03T16:17:37.258Z</time></trkpt><trkpt lat="44.0797732" lon="7.8561812"><ele>783.5</ele><time>2026-05-03T16:17:38.258Z</time></trkpt><trkpt lat="44.07968" lon="7.8562864"><ele>775.0</ele><time>2026-05-03T16:17:39.257Z</time></trkpt><trkpt lat="44.0796133" lon="7.8564306"><ele>766.5</ele><time>2026-05-03T16:17:40.257Z</time></trkpt><trkpt lat="44.0795932" lon="7.8566038"><ele>758.0</ele><time>2026-05-03T16:17:41.257Z</time></trkpt><trkpt lat="44.0796069" lon="7.8567952"><ele>762.75</ele><time>2026-05-03T16:17:42.257Z</time></trkpt><trkpt lat="44.0796583" lon="7.8569737"><ele>767.5</ele><time>2026-05-03T16:17:43.258Z</time></trkpt><trkpt lat="44.0797537" lon="7.8571198"><ele>772.25</ele><time>2026-05-03T16:17:44.257Z</time></trkpt><trkpt lat="44.0798708" lon="7.857245"><ele>777.0</ele><time>2026-05-03T16:17:45.258Z</time></trkpt><trkpt lat="44.0799804" lon="7.8573637"><ele>777.0</ele><time>2026-05-03T16:17:46.258Z</time></trkpt><trkpt lat="44.0800474" lon="7.8575138"><ele>777.0</ele><time>2026-05-03T16:17:47.257Z</time></trkpt><trkpt lat="44.0800718" lon="7.8576924"><ele>777.0</ele><time>2026-05-03T16:17:48.257Z</time></trkpt><trkpt lat="44.0800526" lon="7.8578859"><ele>777.0</ele><time>2026-05-03T16:17:49.257Z</time></trkpt><trkpt lat="44.0800132" lon="7.8580849"><ele>777.25</ele><time>2026-05-03T16:17:50.258Z</time></trkpt><trkpt lat="44.0799533" lon="7.8582512"><ele>777.5</ele><time>2026-05-03T16:17:51.257Z</time></trkpt><trkpt lat="44.0798661" lon="7.8583724"><ele>777.75</ele><time>2026-05-03T16:17:52.258Z</time></trkpt><trkpt lat="44.0797619" lon="7.8584158"><ele>778.0</ele><time>2026-05-03T16:17:53.257Z</time></trkpt><trkpt lat="44.0796338" lon="7.8584234"><ele>773.6666666666666</ele><time>2026-05-03T16:17:54.257Z</time></trkpt><trkpt lat="44.079504" lon="7.8584309"><ele>769.3333333333333</ele><time>2026-05-03T16:17:55.257Z</time></trkpt><trkpt lat="44.079368" lon="7.858537"><ele>765.0</ele><time>2026-05-03T16:17:56.258Z</time></trkpt><trkpt lat="44.0792391" lon="7.8587002"><ele>765.0</ele><time>2026-05-03T16:17:57.257Z</time></trkpt><trkpt lat="44.0791475" lon="7.8588762"><ele>765.0</ele><time>2026-05-03T16:17:58.258Z</time></trkpt><trkpt lat="44.0790912" lon="7.8590753"><ele>765.0</ele><time>2026-05-03T16:17:59.257Z</time></trkpt><trkpt lat="44.0790609" lon="7.8593079"><ele>756.0</ele><time>2026-05-03T16:18:00.258Z</time></trkpt><trkpt lat="44.0790563" lon="7.85955"><ele>747.0</ele><time>2026-05-03T16:18:01.257Z</time></trkpt><trkpt lat="44.0790338" lon="7.8597855"><ele>738.0</ele><time>2026-05-03T16:18:02.257Z</time></trkpt><trkpt lat="44.0789824" lon="7.8599978"><ele>741.6666666666666</ele><time>2026-05-03T16:18:03.258Z</time></trkpt><trkpt lat="44.0788901" lon="7.8602025"><ele>745.3333333333333</ele><time>2026-05-03T16:18:04.257Z</time></trkpt><trkpt lat="44.078776" lon="7.8604074"><ele>749.0</ele><time>2026-05-03T16:18:05.258Z</time></trkpt><trkpt lat="44.0786589" lon="7.860605"><ele>749.0</ele><time>2026-05-03T16:18:06.257Z</time></trkpt><trkpt lat="44.0785357" lon="7.8607821"><ele>749.0</ele><time>2026-05-03T16:18:07.257Z</time></trkpt><trkpt lat="44.0784066" lon="7.8609218"><ele>749.0</ele><time>2026-05-03T16:18:08.258Z</time></trkpt><trkpt lat="44.0782823" lon="7.8610359"><ele>745.5</ele><time>2026-05-03T16:18:09.257Z</time></trkpt><trkpt lat="44.0781794" lon="7.8611744"><ele>742.0</ele><time>2026-05-03T16:18:10.258Z</time></trkpt><trkpt lat="44.0780954" lon="7.8613493"><ele>738.5</ele><time>2026-05-03T16:18:11.258Z</time></trkpt><trkpt lat="44.0780313" lon="7.8615343"><ele>735.0</ele><time>2026-05-03T16:18:12.257Z</time></trkpt><trkpt lat="44.0779655" lon="7.8616993"><ele>735.0</ele><time>2026-05-03T16:18:13.257Z</time></trkpt><trkpt lat="44.0778935" lon="7.8618193"><ele>735.0</ele><time>2026-05-03T16:18:14.257Z</time></trkpt><trkpt lat="44.077819" lon="7.8618761"><ele>735.0</ele><time>2026-05-03T16:18:15.258Z</time></trkpt><trkpt lat="44.0777285" lon="7.8618819"><ele>735.0</ele><time>2026-05-03T16:18:16.257Z</time></trkpt><trkpt lat="44.0776364" lon="7.8618217"><ele>735.0</ele><time>2026-05-03T16:18:17.257Z</time></trkpt><trkpt lat="44.0775351" lon="7.8617296"><ele>730.5</ele><time>2026-05-03T16:18:18.257Z</time></trkpt><trkpt lat="44.0774009" lon="7.8616717"><ele>726.0</ele><time>2026-05-03T16:18:19.257Z</time></trkpt><trkpt lat="44.0772481" lon="7.8616382"><ele>721.5</ele><time>2026-05-03T16:18:20.257Z</time></trkpt><trkpt lat="44.0770982" lon="7.8616697"><ele>717.0</ele><time>2026-05-03T16:18:21.257Z</time></trkpt><trkpt lat="44.0769514" lon="7.8617192"><ele>721.0</ele><time>2026-05-03T16:18:22.257Z</time></trkpt><trkpt lat="44.0768242" lon="7.8618283"><ele>725.0</ele><time>2026-05-03T16:18:23.257Z</time></trkpt><trkpt lat="44.0767208" lon="7.8619965"><ele>729.0</ele><time>2026-05-03T16:18:24.257Z</time></trkpt><trkpt lat="44.0766236" lon="7.8621702"><ele>726.25</ele><time>2026-05-03T16:18:25.258Z</time></trkpt><trkpt lat="44.0765318" lon="7.8623265"><ele>723.5</ele><time>2026-05-03T16:18:26.258Z</time></trkpt><trkpt lat="44.0764832" lon="7.8625006"><ele>720.75</ele><time>2026-05-03T16:18:27.257Z</time></trkpt><trkpt lat="44.0764661" lon="7.8626946"><ele>718.0</ele><time>2026-05-03T16:18:28.257Z</time></trkpt><trkpt lat="44.0764095" lon="7.8628588"><ele>718.0</ele><time>2026-05-03T16:18:29.257Z</time></trkpt><trkpt lat="44.0763206" lon="7.863013"><ele>718.0</ele><time>2026-05-03T16:18:30.258Z</time></trkpt><trkpt lat="44.0762074" lon="7.8631474"><ele>718.0</ele><time>2026-05-03T16:18:31.257Z</time></trkpt><trkpt lat="44.0760909" lon="7.8632685"><ele>718.0</ele><time>2026-05-03T16:18:32.257Z</time></trkpt><trkpt lat="44.0759815" lon="7.8633981"><ele>718.0</ele><time>2026-05-03T16:18:33.257Z</time></trkpt><trkpt lat="44.0758938" lon="7.8635571"><ele>718.0</ele><time>2026-05-03T16:18:34.257Z</time></trkpt><trkpt lat="44.0758352" lon="7.8637491"><ele>718.0</ele><time>2026-05-03T16:18:35.258Z</time></trkpt><trkpt lat="44.0757943" lon="7.863955"><ele>718.0</ele><time>2026-05-03T16:18:36.257Z</time></trkpt><trkpt lat="44.075756" lon="7.8641409"><ele>715.5</ele><time>2026-05-03T16:18:37.257Z</time></trkpt><trkpt lat="44.0757395" lon="7.8643189"><ele>713.0</ele><time>2026-05-03T16:18:38.257Z</time></trkpt><trkpt lat="44.0757718" lon="7.8644946"><ele>710.5</ele><time>2026-05-03T16:18:39.258Z</time></trkpt><trkpt lat="44.0758453" lon="7.8646636"><ele>708.0</ele><time>2026-05-03T16:18:40.258Z</time></trkpt><trkpt lat="44.0759179" lon="7.8648286"><ele>708.0</ele><time>2026-05-03T16:18:41.257Z</time></trkpt><trkpt lat="44.0759518" lon="7.8649998"><ele>708.0</ele><time>2026-05-03T16:18:42.257Z</time></trkpt><trkpt lat="44.0759746" lon="7.8651883"><ele>708.0</ele><time>2026-05-03T16:18:43.258Z</time></trkpt><trkpt lat="44.0759779" lon="7.8653679"><ele>708.0</ele><time>2026-05-03T16:18:44.258Z</time></trkpt><trkpt lat="44.0759693" lon="7.8655565"><ele>706.5</ele><time>2026-05-03T16:18:45.257Z</time></trkpt><trkpt lat="44.0759628" lon="7.865741"><ele>705.0</ele><time>2026-05-03T16:18:46.257Z</time></trkpt><trkpt lat="44.0759658" lon="7.8659229"><ele>703.5</ele><time>2026-05-03T16:18:47.257Z</time></trkpt><trkpt lat="44.0759764" lon="7.866093"><ele>702.0</ele><time>2026-05-03T16:18:48.257Z</time></trkpt><trkpt lat="44.0759957" lon="7.8662536"><ele>700.6</ele><time>2026-05-03T16:18:49.258Z</time></trkpt><trkpt lat="44.0760207" lon="7.8664049"><ele>699.2</ele><time>2026-05-03T16:18:50.258Z</time></trkpt><trkpt lat="44.0760438" lon="7.8665525"><ele>697.8</ele><time>2026-05-03T16:18:51.257Z</time></trkpt><trkpt lat="44.0760685" lon="7.8666936"><ele>696.4</ele><time>2026-05-03T16:18:52.258Z</time></trkpt><trkpt lat="44.0760986" lon="7.8668201"><ele>695.0</ele><time>2026-05-03T16:18:53.257Z</time></trkpt><trkpt lat="44.076125" lon="7.8669277"><ele>695.0</ele><time>2026-05-03T16:18:54.258Z</time></trkpt><trkpt lat="44.0761507" lon="7.8670143"><ele>695.0</ele><time>2026-05-03T16:18:55.257Z</time></trkpt><trkpt lat="44.0761868" lon="7.8671143"><ele>695.0</ele><time>2026-05-03T16:18:57.257Z</time></trkpt><trkpt lat="44.076233" lon="7.8671851"><ele>695.0</ele><time>2026-05-03T16:20:58.257Z</time></trkpt><trkpt lat="44.0763142" lon="7.8673127"><ele>695.0</ele><time>2026-05-03T16:21:01.257Z</time></trkpt><trkpt lat="44.0763522" lon="7.8673899"><ele>695.0</ele><time>2026-05-03T16:21:02.258Z</time></trkpt><trkpt lat="44.0763733" lon="7.8674915"><ele>695.0</ele><time>2026-05-03T16:21:03.257Z</time></trkpt><trkpt lat="44.0763984" lon="7.8675755"><ele>695.0</ele><time>2026-05-03T16:21:04.258Z</time></trkpt><trkpt lat="44.0764019" lon="7.867675"><ele>695.0</ele><time>2026-05-03T16:21:05.257Z</time></trkpt><trkpt lat="44.0763761" lon="7.8677716"><ele>695.0</ele><time>2026-05-03T16:21:06.257Z</time></trkpt><trkpt lat="44.0763149" lon="7.8678365"><ele>695.0</ele><time>2026-05-03T16:21:07.258Z</time></trkpt><trkpt lat="44.0762321" lon="7.8678653"><ele>695.0</ele><time>2026-05-03T16:21:08.257Z</time></trkpt><trkpt lat="44.0761395" lon="7.8678581"><ele>702.0</ele><time>2026-05-03T16:21:09.257Z</time></trkpt><trkpt lat="44.0760313" lon="7.8678286"><ele>709.0</ele><time>2026-05-03T16:21:10.258Z</time></trkpt><trkpt lat="44.0759278" lon="7.8677812"><ele>716.0</ele><time>2026-05-03T16:21:11.257Z</time></trkpt><trkpt lat="44.0758255" lon="7.8677362"><ele>723.0</ele><time>2026-05-03T16:21:12.258Z</time></trkpt><trkpt lat="44.075716" lon="7.867697"><ele>730.0</ele><time>2026-05-03T16:21:13.257Z</time></trkpt><trkpt lat="44.0755988" lon="7.8676629"><ele>731.25</ele><time>2026-05-03T16:21:14.258Z</time></trkpt><trkpt lat="44.0754752" lon="7.8676321"><ele>732.5</ele><time>2026-05-03T16:21:15.257Z</time></trkpt><trkpt lat="44.0753522" lon="7.8676009"><ele>733.75</ele><time>2026-05-03T16:21:16.257Z</time></trkpt><trkpt lat="44.0752331" lon="7.8675766"><ele>735.0</ele><time>2026-05-03T16:21:17.258Z</time></trkpt><trkpt lat="44.0751162" lon="7.8675638"><ele>724.5</ele><time>2026-05-03T16:21:18.257Z</time></trkpt><trkpt lat="44.0750014" lon="7.8675427"><ele>714.0</ele><time>2026-05-03T16:21:19.257Z</time></trkpt><trkpt lat="44.0748834" lon="7.8675115"><ele>703.5</ele><time>2026-05-03T16:21:20.261Z</time></trkpt><trkpt lat="44.0747698" lon="7.8674631"><ele>693.0</ele><time>2026-05-03T16:21:21.261Z</time></trkpt><trkpt lat="44.074663" lon="7.8674075"><ele>693.0</ele><time>2026-05-03T16:21:22.261Z</time></trkpt><trkpt lat="44.0745633" lon="7.8673422"><ele>693.0</ele><time>2026-05-03T16:21:23.261Z</time></trkpt><trkpt lat="44.0744607" lon="7.8672834"><ele>693.0</ele><time>2026-05-03T16:21:24.261Z</time></trkpt><trkpt lat="44.0743487" lon="7.8672462"><ele>693.0</ele><time>2026-05-03T16:21:25.262Z</time></trkpt><trkpt lat="44.0742346" lon="7.8672245"><ele>693.0</ele><time>2026-05-03T16:21:26.261Z</time></trkpt><trkpt lat="44.0741206" lon="7.8672195"><ele>693.0</ele><time>2026-05-03T16:21:27.262Z</time></trkpt><trkpt lat="44.074" lon="7.8672305"><ele>693.0</ele><time>2026-05-03T16:21:28.261Z</time></trkpt><trkpt lat="44.0738748" lon="7.8672495"><ele>693.0</ele><time>2026-05-03T16:21:29.261Z</time></trkpt><trkpt lat="44.073752" lon="7.8672621"><ele>692.0</ele><time>2026-05-03T16:21:30.261Z</time></trkpt><trkpt lat="44.0736312" lon="7.867265"><ele>691.0</ele><time>2026-05-03T16:21:31.261Z</time></trkpt><trkpt lat="44.0735106" lon="7.8672469"><ele>690.0</ele><time>2026-05-03T16:21:32.261Z</time></trkpt><trkpt lat="44.0733855" lon="7.8672006"><ele>689.0</ele><time>2026-05-03T16:21:33.261Z</time></trkpt><trkpt lat="44.0732625" lon="7.8671576"><ele>689.0</ele><time>2026-05-03T16:21:34.261Z</time></trkpt><trkpt lat="44.0731369" lon="7.8671472"><ele>689.0</ele><time>2026-05-03T16:21:35.262Z</time></trkpt><trkpt lat="44.0730092" lon="7.8671681"><ele>689.0</ele><time>2026-05-03T16:21:36.261Z</time></trkpt><trkpt lat="44.0728859" lon="7.8672025"><ele>689.0</ele><time>2026-05-03T16:21:37.261Z</time></trkpt><trkpt lat="44.0727741" lon="7.8672195"><ele>689.0</ele><time>2026-05-03T16:21:38.261Z</time></trkpt><trkpt lat="44.072658" lon="7.8671963"><ele>689.0</ele><time>2026-05-03T16:21:39.262Z</time></trkpt><trkpt lat="44.0725503" lon="7.8671292"><ele>689.0</ele><time>2026-05-03T16:21:40.261Z</time></trkpt><trkpt lat="44.0724439" lon="7.8670676"><ele>689.0</ele><time>2026-05-03T16:21:41.262Z</time></trkpt><trkpt lat="44.072329" lon="7.8670455"><ele>689.25</ele><time>2026-05-03T16:21:42.261Z</time></trkpt><trkpt lat="44.0722049" lon="7.8670465"><ele>689.5</ele><time>2026-05-03T16:21:43.262Z</time></trkpt><trkpt lat="44.0720767" lon="7.8670604"><ele>689.75</ele><time>2026-05-03T16:21:44.262Z</time></trkpt><trkpt lat="44.0719475" lon="7.8670475"><ele>690.0</ele><time>2026-05-03T16:21:45.261Z</time></trkpt><trkpt lat="44.0718192" lon="7.8670071"><ele>690.0</ele><time>2026-05-03T16:21:46.261Z</time></trkpt><trkpt lat="44.0717018" lon="7.8669356"><ele>690.0</ele><time>2026-05-03T16:21:47.261Z</time></trkpt><trkpt lat="44.0715911" lon="7.8668441"><ele>690.0</ele><time>2026-05-03T16:21:48.262Z</time></trkpt><trkpt lat="44.071478" lon="7.8667675"><ele>690.0</ele><time>2026-05-03T16:21:49.261Z</time></trkpt><trkpt lat="44.0713659" lon="7.8667272"><ele>682.0</ele><time>2026-05-03T16:21:50.262Z</time></trkpt><trkpt lat="44.0712516" lon="7.8667099"><ele>674.0</ele><time>2026-05-03T16:21:51.261Z</time></trkpt><trkpt lat="44.0711404" lon="7.8666819"><ele>666.0</ele><time>2026-05-03T16:21:52.261Z</time></trkpt><trkpt lat="44.0710374" lon="7.8666274"><ele>658.0</ele><time>2026-05-03T16:21:53.261Z</time></trkpt><trkpt lat="44.070945" lon="7.8665512"><ele>650.0</ele><time>2026-05-03T16:21:54.261Z</time></trkpt><trkpt lat="44.0708628" lon="7.8664589"><ele>650.0</ele><time>2026-05-03T16:21:55.261Z</time></trkpt><trkpt lat="44.0707874" lon="7.8663669"><ele>650.0</ele><time>2026-05-03T16:21:56.262Z</time></trkpt><trkpt lat="44.0707038" lon="7.8663083"><ele>650.0</ele><time>2026-05-03T16:21:57.261Z</time></trkpt><trkpt lat="44.070615" lon="7.8662942"><ele>650.0</ele><time>2026-05-03T16:21:58.261Z</time></trkpt><trkpt lat="44.0705292" lon="7.8663367"><ele>650.0</ele><time>2026-05-03T16:21:59.261Z</time></trkpt><trkpt lat="44.0704565" lon="7.8664261"><ele>646.5</ele><time>2026-05-03T16:22:00.261Z</time></trkpt><trkpt lat="44.0704013" lon="7.8665523"><ele>643.0</ele><time>2026-05-03T16:22:01.262Z</time></trkpt><trkpt lat="44.0703512" lon="7.8667019"><ele>639.5</ele><time>2026-05-03T16:22:02.262Z</time></trkpt><trkpt lat="44.0702968" lon="7.8668656"><ele>636.0</ele><time>2026-05-03T16:22:03.261Z</time></trkpt><trkpt lat="44.070232" lon="7.8670391"><ele>636.0</ele><time>2026-05-03T16:22:04.262Z</time></trkpt><trkpt lat="44.0701542" lon="7.8672169"><ele>636.0</ele><time>2026-05-03T16:22:05.261Z</time></trkpt><trkpt lat="44.0700708" lon="7.8673778"><ele>636.0</ele><time>2026-05-03T16:22:06.261Z</time></trkpt><trkpt lat="44.0699844" lon="7.8675239"><ele>636.0</ele><time>2026-05-03T16:22:07.262Z</time></trkpt><trkpt lat="44.0698924" lon="7.8676504"><ele>631.25</ele><time>2026-05-03T16:22:08.262Z</time></trkpt><trkpt lat="44.0697968" lon="7.8677595"><ele>626.5</ele><time>2026-05-03T16:22:09.261Z</time></trkpt><trkpt lat="44.0696927" lon="7.8678547"><ele>621.75</ele><time>2026-05-03T16:22:10.261Z</time></trkpt><trkpt lat="44.0696001" lon="7.8679597"><ele>617.0</ele><time>2026-05-03T16:22:11.261Z</time></trkpt><trkpt lat="44.0695291" lon="7.8680865"><ele>617.0</ele><time>2026-05-03T16:22:12.261Z</time></trkpt><trkpt lat="44.0694833" lon="7.8682233"><ele>617.0</ele><time>2026-05-03T16:22:13.261Z</time></trkpt><trkpt lat="44.0694592" lon="7.8683672"><ele>617.0</ele><time>2026-05-03T16:22:14.261Z</time></trkpt><trkpt lat="44.0694528" lon="7.868508"><ele>617.0</ele><time>2026-05-03T16:22:15.261Z</time></trkpt><trkpt lat="44.0694723" lon="7.8686396"><ele>617.0</ele><time>2026-05-03T16:22:16.261Z</time></trkpt><trkpt lat="44.0695234" lon="7.8687508"><ele>615.8000000000001</ele><time>2026-05-03T16:22:17.261Z</time></trkpt><trkpt lat="44.0696012" lon="7.8688408"><ele>614.6</ele><time>2026-05-03T16:22:18.261Z</time></trkpt><trkpt lat="44.0696807" lon="7.8689202"><ele>613.4000000000001</ele><time>2026-05-03T16:22:19.261Z</time></trkpt><trkpt lat="44.0697609" lon="7.8690106"><ele>612.2</ele><time>2026-05-03T16:22:20.261Z</time></trkpt><trkpt lat="44.0698288" lon="7.8691189"><ele>611.0</ele><time>2026-05-03T16:22:21.261Z</time></trkpt><trkpt lat="44.0698788" lon="7.8692528"><ele>607.5</ele><time>2026-05-03T16:22:22.261Z</time></trkpt><trkpt lat="44.0699145" lon="7.8694065"><ele>604.0</ele><time>2026-05-03T16:22:23.262Z</time></trkpt><trkpt lat="44.0699363" lon="7.8695712"><ele>600.5</ele><time>2026-05-03T16:22:24.262Z</time></trkpt><trkpt lat="44.0699508" lon="7.8697552"><ele>597.0</ele><time>2026-05-03T16:22:25.261Z</time></trkpt><trkpt lat="44.0699675" lon="7.869961"><ele>603.0</ele><time>2026-05-03T16:22:26.261Z</time></trkpt><trkpt lat="44.0699851" lon="7.8701729"><ele>609.0</ele><time>2026-05-03T16:22:27.261Z</time></trkpt><trkpt lat="44.0700018" lon="7.8703769"><ele>615.0</ele><time>2026-05-03T16:22:28.261Z</time></trkpt><trkpt lat="44.0700206" lon="7.8705779"><ele>621.0</ele><time>2026-05-03T16:22:29.261Z</time></trkpt><trkpt lat="44.0700374" lon="7.8707757"><ele>619.5</ele><time>2026-05-03T16:22:30.262Z</time></trkpt><trkpt lat="44.070055" lon="7.8709718"><ele>618.0</ele><time>2026-05-03T16:22:31.261Z</time></trkpt><trkpt lat="44.0700668" lon="7.8711615"><ele>616.5</ele><time>2026-05-03T16:22:32.262Z</time></trkpt><trkpt lat="44.0700687" lon="7.8713407"><ele>615.0</ele><time>2026-05-03T16:22:33.262Z</time></trkpt><trkpt lat="44.0700777" lon="7.8715041"><ele>615.0</ele><time>2026-05-03T16:22:34.261Z</time></trkpt><trkpt lat="44.0700903" lon="7.8716588"><ele>615.0</ele><time>2026-05-03T16:22:35.262Z</time></trkpt><trkpt lat="44.0701104" lon="7.8718144"><ele>615.0</ele><time>2026-05-03T16:22:36.262Z</time></trkpt><trkpt lat="44.0701353" lon="7.8719695"><ele>615.0</ele><time>2026-05-03T16:22:37.262Z</time></trkpt><trkpt lat="44.0701688" lon="7.8721063"><ele>615.0</ele><time>2026-05-03T16:22:38.262Z</time></trkpt><trkpt lat="44.0702182" lon="7.8722316"><ele>614.3333333333334</ele><time>2026-05-03T16:22:39.262Z</time></trkpt><trkpt lat="44.0702732" lon="7.8723548"><ele>613.6666666666666</ele><time>2026-05-03T16:22:40.263Z</time></trkpt><trkpt lat="44.0703168" lon="7.8724835"><ele>613.0</ele><time>2026-05-03T16:22:41.262Z</time></trkpt><trkpt lat="44.0703482" lon="7.8726039"><ele>612.3333333333333</ele><time>2026-05-03T16:22:42.263Z</time></trkpt><trkpt lat="44.0703556" lon="7.872717"><ele>611.6666666666666</ele><time>2026-05-03T16:22:43.262Z</time></trkpt><trkpt lat="44.0703423" lon="7.8728097"><ele>611.0</ele><time>2026-05-03T16:22:44.262Z</time></trkpt><trkpt lat="44.0702303" lon="7.8728939"><ele>611.0</ele><time>2026-05-03T16:22:46.263Z</time></trkpt><trkpt lat="44.0701405" lon="7.8728899"><ele>611.0</ele><time>2026-05-03T16:22:47.262Z</time></trkpt><trkpt lat="44.0700228" lon="7.8728773"><ele>611.0</ele><time>2026-05-03T16:22:48.262Z</time></trkpt><trkpt lat="44.0698854" lon="7.8728578"><ele>611.0</ele><time>2026-05-03T16:22:49.263Z</time></trkpt><trkpt lat="44.069726" lon="7.8728306"><ele>611.0</ele><time>2026-05-03T16:22:50.262Z</time></trkpt><trkpt lat="44.0695612" lon="7.8727833"><ele>611.0</ele><time>2026-05-03T16:22:51.263Z</time></trkpt><trkpt lat="44.0694117" lon="7.8727502"><ele>611.0</ele><time>2026-05-03T16:22:52.263Z</time></trkpt><trkpt lat="44.0692832" lon="7.8727491"><ele>611.0</ele><time>2026-05-03T16:22:53.262Z</time></trkpt><trkpt lat="44.0691771" lon="7.8728057"><ele>610.5</ele><time>2026-05-03T16:22:54.262Z</time></trkpt><trkpt lat="44.0690805" lon="7.872916"><ele>610.0</ele><time>2026-05-03T16:22:55.262Z</time></trkpt><trkpt lat="44.0689937" lon="7.873031"><ele>609.5</ele><time>2026-05-03T16:22:56.262Z</time></trkpt><trkpt lat="44.0688952" lon="7.8730994"><ele>609.0</ele><time>2026-05-03T16:22:57.263Z</time></trkpt><trkpt lat="44.0687707" lon="7.8731144"><ele>609.0</ele><time>2026-05-03T16:22:58.262Z</time></trkpt><trkpt lat="44.0686262" lon="7.8730812"><ele>609.0</ele><time>2026-05-03T16:22:59.262Z</time></trkpt><trkpt lat="44.0684663" lon="7.8730197"><ele>609.0</ele><time>2026-05-03T16:23:00.262Z</time></trkpt><trkpt lat="44.0683008" lon="7.8729679"><ele>605.0</ele><time>2026-05-03T16:23:01.262Z</time></trkpt><trkpt lat="44.0681397" lon="7.8729363"><ele>601.0</ele><time>2026-05-03T16:23:02.262Z</time></trkpt><trkpt lat="44.0679791" lon="7.8729644"><ele>597.0</ele><time>2026-05-03T16:23:03.262Z</time></trkpt><trkpt lat="44.067836" lon="7.8730434"><ele>597.0</ele><time>2026-05-03T16:23:04.263Z</time></trkpt><trkpt lat="44.0676899" lon="7.873126"><ele>597.0</ele><time>2026-05-03T16:23:05.262Z</time></trkpt><trkpt lat="44.0675332" lon="7.873155"><ele>597.0</ele><time>2026-05-03T16:23:06.262Z</time></trkpt><trkpt lat="44.0673744" lon="7.8731372"><ele>591.75</ele><time>2026-05-03T16:23:07.263Z</time></trkpt><trkpt lat="44.0672222" lon="7.8730912"><ele>586.5</ele><time>2026-05-03T16:23:08.262Z</time></trkpt><trkpt lat="44.0670846" lon="7.873059"><ele>581.25</ele><time>2026-05-03T16:23:09.262Z</time></trkpt><trkpt lat="44.0669669" lon="7.8730902"><ele>576.0</ele><time>2026-05-03T16:23:10.263Z</time></trkpt><trkpt lat="44.0668552" lon="7.8731733"><ele>576.0</ele><time>2026-05-03T16:23:11.262Z</time></trkpt><trkpt lat="44.0667421" lon="7.8732911"><ele>576.0</ele><time>2026-05-03T16:23:12.262Z</time></trkpt><trkpt lat="44.0666204" lon="7.8734178"><ele>576.0</ele><time>2026-05-03T16:23:13.262Z</time></trkpt><trkpt lat="44.0664688" lon="7.8735157"><ele>579.0</ele><time>2026-05-03T16:23:14.263Z</time></trkpt><trkpt lat="44.0662964" lon="7.873588"><ele>582.0</ele><time>2026-05-03T16:23:15.262Z</time></trkpt><trkpt lat="44.0661125" lon="7.8736539"><ele>585.0</ele><time>2026-05-03T16:23:16.262Z</time></trkpt><trkpt lat="44.0659272" lon="7.873729"><ele>569.3333333333334</ele><time>2026-05-03T16:23:17.263Z</time></trkpt><trkpt lat="44.0657514" lon="7.873805"><ele>553.6666666666667</ele><time>2026-05-03T16:23:18.263Z</time></trkpt><trkpt lat="44.065593" lon="7.8738777"><ele>538.0</ele><time>2026-05-03T16:23:19.262Z</time></trkpt><trkpt lat="44.0654704" lon="7.8739713"><ele>538.0</ele><time>2026-05-03T16:23:20.262Z</time></trkpt><trkpt lat="44.0653786" lon="7.8740939"><ele>538.0</ele><time>2026-05-03T16:23:21.262Z</time></trkpt><trkpt lat="44.0653233" lon="7.8742505"><ele>538.0</ele><time>2026-05-03T16:23:22.262Z</time></trkpt><trkpt lat="44.0653207" lon="7.8744362"><ele>538.0</ele><time>2026-05-03T16:23:23.263Z</time></trkpt><trkpt lat="44.0653481" lon="7.8746521"><ele>538.6666666666667</ele><time>2026-05-03T16:23:24.262Z</time></trkpt><trkpt lat="44.0654102" lon="7.8748666"><ele>539.3333333333334</ele><time>2026-05-03T16:23:25.263Z</time></trkpt><trkpt lat="44.0654756" lon="7.875081"><ele>540.0</ele><time>2026-05-03T16:23:26.262Z</time></trkpt><trkpt lat="44.065525" lon="7.8752828"><ele>541.25</ele><time>2026-05-03T16:23:27.263Z</time></trkpt><trkpt lat="44.0655312" lon="7.8754742"><ele>542.5</ele><time>2026-05-03T16:23:28.262Z</time></trkpt><trkpt lat="44.0654888" lon="7.8756583"><ele>543.75</ele><time>2026-05-03T16:23:29.262Z</time></trkpt><trkpt lat="44.0654082" lon="7.8758053"><ele>545.0</ele><time>2026-05-03T16:23:30.263Z</time></trkpt><trkpt lat="44.0652895" lon="7.8759248"><ele>542.0</ele><time>2026-05-03T16:23:31.263Z</time></trkpt><trkpt lat="44.065145" lon="7.876064"><ele>539.0</ele><time>2026-05-03T16:23:32.262Z</time></trkpt><trkpt lat="44.0649847" lon="7.8762268"><ele>536.0</ele><time>2026-05-03T16:23:33.262Z</time></trkpt><trkpt lat="44.0648182" lon="7.8764109"><ele>536.0</ele><time>2026-05-03T16:23:34.262Z</time></trkpt><trkpt lat="44.0646355" lon="7.8765987"><ele>536.0</ele><time>2026-05-03T16:23:35.262Z</time></trkpt><trkpt lat="44.064445" lon="7.8767888"><ele>537.5</ele><time>2026-05-03T16:23:36.262Z</time></trkpt><trkpt lat="44.0642503" lon="7.876973"><ele>539.0</ele><time>2026-05-03T16:23:37.262Z</time></trkpt><trkpt lat="44.0640543" lon="7.8771436"><ele>539.0</ele><time>2026-05-03T16:23:38.263Z</time></trkpt><trkpt lat="44.063864" lon="7.8773092"><ele>539.0</ele><time>2026-05-03T16:23:39.262Z</time></trkpt><trkpt lat="44.0636873" lon="7.8774652"><ele>539.0</ele><time>2026-05-03T16:23:40.262Z</time></trkpt><trkpt lat="44.0635221" lon="7.8775987"><ele>550.6666666666666</ele><time>2026-05-03T16:23:41.263Z</time></trkpt><trkpt lat="44.0633524" lon="7.8776651"><ele>562.3333333333334</ele><time>2026-05-03T16:23:42.263Z</time></trkpt><trkpt lat="44.0631823" lon="7.8776665"><ele>574.0</ele><time>2026-05-03T16:23:43.262Z</time></trkpt><trkpt lat="44.0630104" lon="7.8776286"><ele>574.0</ele><time>2026-05-03T16:23:44.263Z</time></trkpt><trkpt lat="44.0628473" lon="7.8775815"><ele>574.0</ele><time>2026-05-03T16:23:45.263Z</time></trkpt><trkpt lat="44.0626651" lon="7.8776152"><ele>574.0</ele><time>2026-05-03T16:23:46.263Z</time></trkpt><trkpt lat="44.062478" lon="7.8777155"><ele>567.0</ele><time>2026-05-03T16:23:47.263Z</time></trkpt><trkpt lat="44.0622895" lon="7.8777943"><ele>560.0</ele><time>2026-05-03T16:23:48.262Z</time></trkpt><trkpt lat="44.0620897" lon="7.8778506"><ele>553.0</ele><time>2026-05-03T16:23:49.262Z</time></trkpt><trkpt lat="44.0618967" lon="7.8778802"><ele>553.0</ele><time>2026-05-03T16:23:50.262Z</time></trkpt><trkpt lat="44.06169" lon="7.8778936"><ele>553.0</ele><time>2026-05-03T16:23:51.262Z</time></trkpt><trkpt lat="44.0614727" lon="7.8778848"><ele>553.0</ele><time>2026-05-03T16:23:52.262Z</time></trkpt><trkpt lat="44.0612639" lon="7.8778646"><ele>545.0</ele><time>2026-05-03T16:23:53.262Z</time></trkpt><trkpt lat="44.0610652" lon="7.8778434"><ele>537.0</ele><time>2026-05-03T16:23:54.263Z</time></trkpt><trkpt lat="44.0608965" lon="7.8778439"><ele>529.0</ele><time>2026-05-03T16:23:55.263Z</time></trkpt><trkpt lat="44.0607598" lon="7.8778639"><ele>517.3333333333334</ele><time>2026-05-03T16:23:56.262Z</time></trkpt><trkpt lat="44.0606429" lon="7.8779738"><ele>505.66666666666663</ele><time>2026-05-03T16:23:57.263Z</time></trkpt><trkpt lat="44.0605186" lon="7.8781134"><ele>494.0</ele><time>2026-05-03T16:23:58.263Z</time></trkpt><trkpt lat="44.0603988" lon="7.8782618"><ele>494.0</ele><time>2026-05-03T16:23:59.262Z</time></trkpt><trkpt lat="44.0603024" lon="7.8784331"><ele>494.0</ele><time>2026-05-03T16:24:00.263Z</time></trkpt><trkpt lat="44.06024" lon="7.8786175"><ele>494.0</ele><time>2026-05-03T16:24:01.262Z</time></trkpt><trkpt lat="44.0602325" lon="7.8788125"><ele>494.0</ele><time>2026-05-03T16:24:02.263Z</time></trkpt><trkpt lat="44.0602765" lon="7.8790314"><ele>492.0</ele><time>2026-05-03T16:24:03.262Z</time></trkpt><trkpt lat="44.0603539" lon="7.879249"><ele>490.0</ele><time>2026-05-03T16:24:04.263Z</time></trkpt><trkpt lat="44.0604675" lon="7.879484"><ele>488.0</ele><time>2026-05-03T16:24:05.262Z</time></trkpt><trkpt lat="44.060579" lon="7.8797303"><ele>490.0</ele><time>2026-05-03T16:24:06.262Z</time></trkpt><trkpt lat="44.0606693" lon="7.8800008"><ele>492.0</ele><time>2026-05-03T16:24:07.262Z</time></trkpt><trkpt lat="44.060739" lon="7.8802949"><ele>494.0</ele><time>2026-05-03T16:24:08.262Z</time></trkpt><trkpt lat="44.0607906" lon="7.8806128"><ele>489.0</ele><time>2026-05-03T16:24:09.262Z</time></trkpt><trkpt lat="44.0608486" lon="7.8809358"><ele>484.0</ele><time>2026-05-03T16:24:10.262Z</time></trkpt><trkpt lat="44.0609125" lon="7.881246"><ele>484.0</ele><time>2026-05-03T16:24:11.262Z</time></trkpt><trkpt lat="44.0609771" lon="7.8815439"><ele>484.0</ele><time>2026-05-03T16:24:12.262Z</time></trkpt><trkpt lat="44.061044" lon="7.881824"><ele>484.0</ele><time>2026-05-03T16:24:13.262Z</time></trkpt><trkpt lat="44.0611083" lon="7.8820677"><ele>484.75</ele><time>2026-05-03T16:24:14.262Z</time></trkpt><trkpt lat="44.0611623" lon="7.8822775"><ele>485.5</ele><time>2026-05-03T16:24:15.262Z</time></trkpt><trkpt lat="44.0611983" lon="7.8824478"><ele>486.25</ele><time>2026-05-03T16:24:16.262Z</time></trkpt><trkpt lat="44.0611947" lon="7.8826002"><ele>487.0</ele><time>2026-05-03T16:24:17.262Z</time></trkpt><trkpt lat="44.0611411" lon="7.8827211"><ele>491.75</ele><time>2026-05-03T16:24:18.262Z</time></trkpt><trkpt lat="44.0610456" lon="7.8828134"><ele>496.5</ele><time>2026-05-03T16:24:19.262Z</time></trkpt><trkpt lat="44.0609243" lon="7.8828401"><ele>501.25</ele><time>2026-05-03T16:24:20.263Z</time></trkpt><trkpt lat="44.0607894" lon="7.8828076"><ele>506.0</ele><time>2026-05-03T16:24:21.262Z</time></trkpt><trkpt lat="44.0606409" lon="7.8827126"><ele>500.0</ele><time>2026-05-03T16:24:22.262Z</time></trkpt><trkpt lat="44.0604796" lon="7.8825854"><ele>494.0</ele><time>2026-05-03T16:24:23.262Z</time></trkpt><trkpt lat="44.0603009" lon="7.8824624"><ele>488.0</ele><time>2026-05-03T16:24:24.263Z</time></trkpt><trkpt lat="44.0601301" lon="7.8823427"><ele>488.0</ele><time>2026-05-03T16:24:25.262Z</time></trkpt><trkpt lat="44.0599621" lon="7.8822466"><ele>488.0</ele><time>2026-05-03T16:24:26.262Z</time></trkpt><trkpt lat="44.0597836" lon="7.8822196"><ele>488.0</ele><time>2026-05-03T16:24:27.263Z</time></trkpt><trkpt lat="44.0595966" lon="7.8822388"><ele>483.66666666666663</ele><time>2026-05-03T16:24:28.263Z</time></trkpt><trkpt lat="44.0594138" lon="7.8822913"><ele>479.33333333333337</ele><time>2026-05-03T16:24:29.262Z</time></trkpt><trkpt lat="44.0592356" lon="7.882341"><ele>475.0</ele><time>2026-05-03T16:24:30.263Z</time></trkpt><trkpt lat="44.0590548" lon="7.8823403"><ele>473.33333333333337</ele><time>2026-05-03T16:24:31.262Z</time></trkpt><trkpt lat="44.0588626" lon="7.8822966"><ele>471.66666666666663</ele><time>2026-05-03T16:24:32.262Z</time></trkpt><trkpt lat="44.058675" lon="7.8822174"><ele>470.0</ele><time>2026-05-03T16:24:33.262Z</time></trkpt><trkpt lat="44.0585109" lon="7.882105"><ele>470.0</ele><time>2026-05-03T16:24:34.262Z</time></trkpt><trkpt lat="44.0583756" lon="7.8819807"><ele>470.0</ele><time>2026-05-03T16:24:35.263Z</time></trkpt><trkpt lat="44.0582508" lon="7.8818962"><ele>470.0</ele><time>2026-05-03T16:24:36.262Z</time></trkpt><trkpt lat="44.0581203" lon="7.8818877"><ele>470.0</ele><time>2026-05-03T16:24:37.262Z</time></trkpt><trkpt lat="44.0579935" lon="7.881958"><ele>461.0</ele><time>2026-05-03T16:24:38.263Z</time></trkpt><trkpt lat="44.0578839" lon="7.8820901"><ele>452.0</ele><time>2026-05-03T16:24:39.262Z</time></trkpt><trkpt lat="44.0577839" lon="7.8822443"><ele>443.0</ele><time>2026-05-03T16:24:40.262Z</time></trkpt><trkpt lat="44.0577139" lon="7.8823863"><ele>434.0</ele><time>2026-05-03T16:24:41.262Z</time></trkpt><trkpt lat="44.057675" lon="7.8825592"><ele>434.75</ele><time>2026-05-03T16:24:42.262Z</time></trkpt><trkpt lat="44.0576891" lon="7.8827519"><ele>435.5</ele><time>2026-05-03T16:24:43.262Z</time></trkpt><trkpt lat="44.0577536" lon="7.8829202"><ele>436.25</ele><time>2026-05-03T16:24:44.262Z</time></trkpt><trkpt lat="44.0578304" lon="7.8830961"><ele>437.0</ele><time>2026-05-03T16:24:45.262Z</time></trkpt><trkpt lat="44.0578727" lon="7.8832857"><ele>437.0</ele><time>2026-05-03T16:24:46.263Z</time></trkpt><trkpt lat="44.0578704" lon="7.8835028"><ele>437.0</ele><time>2026-05-03T16:24:47.262Z</time></trkpt><trkpt lat="44.057858" lon="7.8836932"><ele>437.0</ele><time>2026-05-03T16:24:48.263Z</time></trkpt><trkpt lat="44.0578142" lon="7.8838331"><ele>437.0</ele><time>2026-05-03T16:24:49.262Z</time></trkpt><trkpt lat="44.0577262" lon="7.8839413"><ele>437.0</ele><time>2026-05-03T16:24:50.262Z</time></trkpt><trkpt lat="44.0576165" lon="7.8840304"><ele>437.0</ele><time>2026-05-03T16:24:51.263Z</time></trkpt><trkpt lat="44.057519" lon="7.8841262"><ele>437.0</ele><time>2026-05-03T16:24:52.262Z</time></trkpt><trkpt lat="44.05747" lon="7.8842532"><ele>437.0</ele><time>2026-05-03T16:24:53.262Z</time></trkpt><trkpt lat="44.057467" lon="7.8843961"><ele>436.75</ele><time>2026-05-03T16:24:54.263Z</time></trkpt><trkpt lat="44.0575003" lon="7.8845634"><ele>436.5</ele><time>2026-05-03T16:24:55.262Z</time></trkpt><trkpt lat="44.0575723" lon="7.8847525"><ele>436.25</ele><time>2026-05-03T16:24:56.263Z</time></trkpt><trkpt lat="44.0576505" lon="7.8849333"><ele>436.0</ele><time>2026-05-03T16:24:57.263Z</time></trkpt><trkpt lat="44.0577124" lon="7.8851064"><ele>437.6</ele><time>2026-05-03T16:24:58.262Z</time></trkpt><trkpt lat="44.0577525" lon="7.8852564"><ele>439.20000000000005</ele><time>2026-05-03T16:24:59.262Z</time></trkpt><trkpt lat="44.0577554" lon="7.8854049"><ele>440.79999999999995</ele><time>2026-05-03T16:25:00.262Z</time></trkpt><trkpt lat="44.0577046" lon="7.8855166"><ele>442.4</ele><time>2026-05-03T16:25:01.262Z</time></trkpt><trkpt lat="44.0576132" lon="7.8856083"><ele>444.0</ele><time>2026-05-03T16:25:02.263Z</time></trkpt><trkpt lat="44.0574836" lon="7.8856697"><ele>437.0</ele><time>2026-05-03T16:25:03.263Z</time></trkpt><trkpt lat="44.057337" lon="7.8857079"><ele>430.0</ele><time>2026-05-03T16:25:04.263Z</time></trkpt><trkpt lat="44.0571941" lon="7.885723"><ele>423.0</ele><time>2026-05-03T16:25:05.263Z</time></trkpt><trkpt lat="44.057074" lon="7.8857255"><ele>416.0</ele><time>2026-05-03T16:25:06.263Z</time></trkpt><trkpt lat="44.0569667" lon="7.8857465"><ele>416.0</ele><time>2026-05-03T16:25:07.262Z</time></trkpt><trkpt lat="44.0568661" lon="7.8858454"><ele>416.0</ele><time>2026-05-03T16:25:08.262Z</time></trkpt><trkpt lat="44.0567576" lon="7.8859963"><ele>416.0</ele><time>2026-05-03T16:25:09.263Z</time></trkpt><trkpt lat="44.0566424" lon="7.8861698"><ele>416.0</ele><time>2026-05-03T16:25:10.263Z</time></trkpt><trkpt lat="44.0565295" lon="7.8863356"><ele>414.25</ele><time>2026-05-03T16:25:11.262Z</time></trkpt><trkpt lat="44.0564269" lon="7.8864969"><ele>412.5</ele><time>2026-05-03T16:25:12.262Z</time></trkpt><trkpt lat="44.0563579" lon="7.8866761"><ele>410.75</ele><time>2026-05-03T16:25:13.263Z</time></trkpt><trkpt lat="44.0563404" lon="7.886879"><ele>409.0</ele><time>2026-05-03T16:25:14.262Z</time></trkpt><trkpt lat="44.056333" lon="7.8870892"><ele>409.0</ele><time>2026-05-03T16:25:15.262Z</time></trkpt><trkpt lat="44.0562958" lon="7.8872895"><ele>409.0</ele><time>2026-05-03T16:25:16.262Z</time></trkpt><trkpt lat="44.0562132" lon="7.8874732"><ele>409.0</ele><time>2026-05-03T16:25:17.262Z</time></trkpt><trkpt lat="44.0560959" lon="7.8876277"><ele>407.0</ele><time>2026-05-03T16:25:18.262Z</time></trkpt><trkpt lat="44.0559546" lon="7.8877803"><ele>405.0</ele><time>2026-05-03T16:25:19.262Z</time></trkpt><trkpt lat="44.0557985" lon="7.887952"><ele>403.0</ele><time>2026-05-03T16:25:20.262Z</time></trkpt><trkpt lat="44.0556401" lon="7.8881375"><ele>403.0</ele><time>2026-05-03T16:25:21.262Z</time></trkpt><trkpt lat="44.0554816" lon="7.8883255"><ele>403.0</ele><time>2026-05-03T16:25:22.263Z</time></trkpt><trkpt lat="44.0553274" lon="7.8885242"><ele>403.0</ele><time>2026-05-03T16:25:23.262Z</time></trkpt><trkpt lat="44.0551683" lon="7.888713"><ele>405.33333333333337</ele><time>2026-05-03T16:25:24.262Z</time></trkpt><trkpt lat="44.0550046" lon="7.8888853"><ele>407.66666666666663</ele><time>2026-05-03T16:25:25.262Z</time></trkpt><trkpt lat="44.0548314" lon="7.8890452"><ele>410.0</ele><time>2026-05-03T16:25:26.263Z</time></trkpt><trkpt lat="44.0546619" lon="7.8891961"><ele>407.3333333333333</ele><time>2026-05-03T16:25:27.263Z</time></trkpt><trkpt lat="44.0545106" lon="7.8893443"><ele>404.66666666666663</ele><time>2026-05-03T16:25:28.262Z</time></trkpt><trkpt lat="44.0543851" lon="7.889508"><ele>402.0</ele><time>2026-05-03T16:25:29.263Z</time></trkpt><trkpt lat="44.0542874" lon="7.8897006"><ele>402.0</ele><time>2026-05-03T16:25:30.262Z</time></trkpt><trkpt lat="44.054219" lon="7.8899207"><ele>402.0</ele><time>2026-05-03T16:25:31.262Z</time></trkpt><trkpt lat="44.0541479" lon="7.890145"><ele>402.0</ele><time>2026-05-03T16:25:32.262Z</time></trkpt><trkpt lat="44.0540505" lon="7.890349"><ele>397.0</ele><time>2026-05-03T16:25:33.262Z</time></trkpt><trkpt lat="44.0539276" lon="7.8905329"><ele>392.0</ele><time>2026-05-03T16:25:34.263Z</time></trkpt><trkpt lat="44.0537922" lon="7.8907166"><ele>387.0</ele><time>2026-05-03T16:25:35.263Z</time></trkpt><trkpt lat="44.053655" lon="7.8908986"><ele>388.0</ele><time>2026-05-03T16:25:36.263Z</time></trkpt><trkpt lat="44.0535228" lon="7.8910721"><ele>389.0</ele><time>2026-05-03T16:25:37.262Z</time></trkpt><trkpt lat="44.0533943" lon="7.8912385"><ele>390.0</ele><time>2026-05-03T16:25:38.262Z</time></trkpt><trkpt lat="44.0532717" lon="7.8914017"><ele>385.0</ele><time>2026-05-03T16:25:39.263Z</time></trkpt><trkpt lat="44.053173" lon="7.8915744"><ele>380.0</ele><time>2026-05-03T16:25:40.263Z</time></trkpt><trkpt lat="44.0531057" lon="7.8917527"><ele>375.0</ele><time>2026-05-03T16:25:41.263Z</time></trkpt><trkpt lat="44.0530667" lon="7.8919205"><ele>370.0</ele><time>2026-05-03T16:25:42.262Z</time></trkpt><trkpt lat="44.0530645" lon="7.8920762"><ele>369.25</ele><time>2026-05-03T16:25:43.263Z</time></trkpt><trkpt lat="44.0531089" lon="7.8922212"><ele>368.5</ele><time>2026-05-03T16:25:44.262Z</time></trkpt><trkpt lat="44.0531752" lon="7.8923652"><ele>367.75</ele><time>2026-05-03T16:25:45.262Z</time></trkpt><trkpt lat="44.0532231" lon="7.8925178"><ele>367.0</ele><time>2026-05-03T16:25:46.263Z</time></trkpt><trkpt lat="44.0532443" lon="7.8926499"><ele>363.6</ele><time>2026-05-03T16:25:47.262Z</time></trkpt><trkpt lat="44.0532125" lon="7.8927699"><ele>360.20000000000005</ele><time>2026-05-03T16:25:48.262Z</time></trkpt><trkpt lat="44.0531422" lon="7.8928854"><ele>356.8</ele><time>2026-05-03T16:25:49.262Z</time></trkpt><trkpt lat="44.0530459" lon="7.8929827"><ele>353.4</ele><time>2026-05-03T16:25:50.262Z</time></trkpt><trkpt lat="44.0529793" lon="7.8930953"><ele>350.0</ele><time>2026-05-03T16:25:51.262Z</time></trkpt><trkpt lat="44.052973" lon="7.8932452"><ele>350.0</ele><time>2026-05-03T16:25:52.262Z</time></trkpt><trkpt lat="44.0530139" lon="7.893408"><ele>350.0</ele><time>2026-05-03T16:25:53.262Z</time></trkpt><trkpt lat="44.0530822" lon="7.8935891"><ele>350.0</ele><time>2026-05-03T16:25:54.262Z</time></trkpt><trkpt lat="44.0531761" lon="7.8938008"><ele>346.33333333333337</ele><time>2026-05-03T16:25:55.263Z</time></trkpt><trkpt lat="44.0532499" lon="7.8940204"><ele>342.6666666666667</ele><time>2026-05-03T16:25:56.262Z</time></trkpt><trkpt lat="44.0533111" lon="7.8942299"><ele>339.0</ele><time>2026-05-03T16:25:57.263Z</time></trkpt><trkpt lat="44.0533673" lon="7.8944261"><ele>344.5</ele><time>2026-05-03T16:25:58.262Z</time></trkpt><trkpt lat="44.0534165" lon="7.8946113"><ele>350.0</ele><time>2026-05-03T16:25:59.262Z</time></trkpt><trkpt lat="44.0534391" lon="7.8947925"><ele>355.5</ele><time>2026-05-03T16:26:00.263Z</time></trkpt><trkpt lat="44.0534318" lon="7.8949694"><ele>361.0</ele><time>2026-05-03T16:26:01.262Z</time></trkpt><trkpt lat="44.0533827" lon="7.8951317"><ele>363.75</ele><time>2026-05-03T16:26:02.262Z</time></trkpt><trkpt lat="44.0532949" lon="7.8952547"><ele>366.5</ele><time>2026-05-03T16:26:03.262Z</time></trkpt><trkpt lat="44.0531817" lon="7.8953472"><ele>369.25</ele><time>2026-05-03T16:26:04.262Z</time></trkpt><trkpt lat="44.0530562" lon="7.8953884"><ele>372.0</ele><time>2026-05-03T16:26:05.262Z</time></trkpt><trkpt lat="44.0529457" lon="7.8954426"><ele>362.25</ele><time>2026-05-03T16:26:06.262Z</time></trkpt><trkpt lat="44.0528607" lon="7.89557"><ele>352.5</ele><time>2026-05-03T16:26:07.262Z</time></trkpt><trkpt lat="44.0528042" lon="7.8957504"><ele>342.75</ele><time>2026-05-03T16:26:08.262Z</time></trkpt><trkpt lat="44.0527739" lon="7.8959794"><ele>333.0</ele><time>2026-05-03T16:26:09.262Z</time></trkpt><trkpt lat="44.0527535" lon="7.8962443"><ele>333.0</ele><time>2026-05-03T16:26:10.262Z</time></trkpt><trkpt lat="44.0527384" lon="7.8965138"><ele>333.0</ele><time>2026-05-03T16:26:11.262Z</time></trkpt><trkpt lat="44.0527064" lon="7.896802"><ele>333.0</ele><time>2026-05-03T16:26:12.262Z</time></trkpt><trkpt lat="44.0526526" lon="7.8970885"><ele>337.0</ele><time>2026-05-03T16:26:13.262Z</time></trkpt><trkpt lat="44.0525689" lon="7.8973479"><ele>341.0</ele><time>2026-05-03T16:26:14.262Z</time></trkpt><trkpt lat="44.0524548" lon="7.8976044"><ele>345.0</ele><time>2026-05-03T16:26:15.263Z</time></trkpt><trkpt lat="44.0523349" lon="7.8978649"><ele>337.6666666666667</ele><time>2026-05-03T16:26:16.262Z</time></trkpt><trkpt lat="44.052214" lon="7.8981296"><ele>330.33333333333337</ele><time>2026-05-03T16:26:17.262Z</time></trkpt><trkpt lat="44.0520902" lon="7.8983788"><ele>323.0</ele><time>2026-05-03T16:26:18.262Z</time></trkpt><trkpt lat="44.0519692" lon="7.8986196"><ele>323.0</ele><time>2026-05-03T16:26:19.262Z</time></trkpt><trkpt lat="44.0518627" lon="7.8988657"><ele>323.0</ele><time>2026-05-03T16:26:20.263Z</time></trkpt><trkpt lat="44.0517867" lon="7.8991532"><ele>323.0</ele><time>2026-05-03T16:26:21.262Z</time></trkpt><trkpt lat="44.0517374" lon="7.8994616"><ele>325.5</ele><time>2026-05-03T16:26:22.262Z</time></trkpt><trkpt lat="44.0516891" lon="7.8997866"><ele>328.0</ele><time>2026-05-03T16:26:23.262Z</time></trkpt><trkpt lat="44.0516317" lon="7.9001092"><ele>310.0</ele><time>2026-05-03T16:26:24.263Z</time></trkpt><trkpt lat="44.051559" lon="7.9004236"><ele>292.0</ele><time>2026-05-03T16:26:25.263Z</time></trkpt><trkpt lat="44.0514696" lon="7.9007264"><ele>298.5</ele><time>2026-05-03T16:26:26.262Z</time></trkpt><trkpt lat="44.0513693" lon="7.9010176"><ele>305.0</ele><time>2026-05-03T16:26:27.262Z</time></trkpt><trkpt lat="44.0512582" lon="7.9012916"><ele>305.0</ele><time>2026-05-03T16:26:28.262Z</time></trkpt><trkpt lat="44.0511395" lon="7.9015498"><ele>305.0</ele><time>2026-05-03T16:26:29.262Z</time></trkpt><trkpt lat="44.0510262" lon="7.9017975"><ele>305.0</ele><time>2026-05-03T16:26:30.262Z</time></trkpt><trkpt lat="44.05092" lon="7.9020289"><ele>308.33333333333337</ele><time>2026-05-03T16:26:31.262Z</time></trkpt><trkpt lat="44.0508219" lon="7.9022535"><ele>311.6666666666667</ele><time>2026-05-03T16:26:32.263Z</time></trkpt><trkpt lat="44.0507325" lon="7.9024809"><ele>315.0</ele><time>2026-05-03T16:26:33.262Z</time></trkpt><trkpt lat="44.0506448" lon="7.9026985"><ele>304.6666666666667</ele><time>2026-05-03T16:26:34.262Z</time></trkpt><trkpt lat="44.0505447" lon="7.9029011"><ele>294.33333333333337</ele><time>2026-05-03T16:26:35.262Z</time></trkpt><trkpt lat="44.0504286" lon="7.9030863"><ele>284.0</ele><time>2026-05-03T16:26:36.262Z</time></trkpt><trkpt lat="44.0503017" lon="7.9032585"><ele>285.6666666666667</ele><time>2026-05-03T16:26:37.262Z</time></trkpt><trkpt lat="44.0501686" lon="7.9034291"><ele>287.3333333333333</ele><time>2026-05-03T16:26:38.263Z</time></trkpt><trkpt lat="44.0500282" lon="7.9036126"><ele>289.0</ele><time>2026-05-03T16:26:39.262Z</time></trkpt><trkpt lat="44.0498851" lon="7.9038"><ele>283.3333333333333</ele><time>2026-05-03T16:26:40.262Z</time></trkpt><trkpt lat="44.0497329" lon="7.9039751"><ele>277.6666666666667</ele><time>2026-05-03T16:26:41.262Z</time></trkpt><trkpt lat="44.0495546" lon="7.9041283"><ele>272.0</ele><time>2026-05-03T16:26:42.263Z</time></trkpt><trkpt lat="44.0493508" lon="7.9042736"><ele>286.0</ele><time>2026-05-03T16:26:43.262Z</time></trkpt><trkpt lat="44.0491247" lon="7.9044027"><ele>300.0</ele><time>2026-05-03T16:26:44.262Z</time></trkpt><trkpt lat="44.0488892" lon="7.9045349"><ele>300.0</ele><time>2026-05-03T16:26:45.263Z</time></trkpt><trkpt lat="44.0486497" lon="7.9046799"><ele>300.0</ele><time>2026-05-03T16:26:46.263Z</time></trkpt><trkpt lat="44.0484033" lon="7.9048265"><ele>318.0</ele><time>2026-05-03T16:26:47.262Z</time></trkpt><trkpt lat="44.0481566" lon="7.9049756"><ele>336.0</ele><time>2026-05-03T16:26:48.263Z</time></trkpt><trkpt lat="44.0479116" lon="7.905122"><ele>246.0</ele><time>2026-05-03T16:26:49.263Z</time></trkpt><trkpt lat="44.0387737" lon="7.9241599"><ele>246.0</ele><time>2026-05-03T16:27:53.262Z</time></trkpt><trkpt lat="44.0386636" lon="7.9241691"><ele>246.00000000000003</ele><time>2026-05-03T16:27:54.262Z</time></trkpt><trkpt lat="44.0385722" lon="7.9241572"><ele>246.00000000000003</ele><time>2026-05-03T16:27:55.262Z</time></trkpt><trkpt lat="44.0384947" lon="7.9241672"><ele>246.0</ele><time>2026-05-03T16:27:56.262Z</time></trkpt><trkpt lat="44.0384261" lon="7.9241935"><ele>246.0</ele><time>2026-05-03T16:27:57.262Z</time></trkpt><trkpt lat="44.0383598" lon="7.9242963"><ele>247.5</ele><time>2026-05-03T16:27:58.263Z</time></trkpt><trkpt lat="44.0382938" lon="7.9244471"><ele>249.0</ele><time>2026-05-03T16:27:59.263Z</time></trkpt><trkpt lat="44.0382235" lon="7.924628"><ele>250.5</ele><time>2026-05-03T16:28:00.262Z</time></trkpt><trkpt lat="44.0381327" lon="7.9248356"><ele>252.0</ele><time>2026-05-03T16:28:01.264Z</time></trkpt><trkpt lat="44.0380187" lon="7.9250618"><ele>248.0</ele><time>2026-05-03T16:28:02.264Z</time></trkpt><trkpt lat="44.0378975" lon="7.9252992"><ele>244.0</ele><time>2026-05-03T16:28:03.264Z</time></trkpt><trkpt lat="44.0377809" lon="7.9255436"><ele>240.0</ele><time>2026-05-03T16:28:04.264Z</time></trkpt><trkpt lat="44.0376718" lon="7.9257971"><ele>238.0</ele><time>2026-05-03T16:28:05.264Z</time></trkpt><trkpt lat="44.0375653" lon="7.9260577"><ele>236.0</ele><time>2026-05-03T16:28:06.264Z</time></trkpt><trkpt lat="44.0374673" lon="7.9262947"><ele>234.0</ele><time>2026-05-03T16:28:07.265Z</time></trkpt><trkpt lat="44.0373773" lon="7.9265097"><ele>234.0</ele><time>2026-05-03T16:28:08.264Z</time></trkpt><trkpt lat="44.0372955" lon="7.9267116"><ele>234.0</ele><time>2026-05-03T16:28:09.264Z</time></trkpt><trkpt lat="44.0372091" lon="7.9269158"><ele>234.0</ele><time>2026-05-03T16:28:10.264Z</time></trkpt><trkpt lat="44.0371288" lon="7.9271128"><ele>231.33333333333331</ele><time>2026-05-03T16:28:11.265Z</time></trkpt><trkpt lat="44.0370412" lon="7.9273139"><ele>228.66666666666666</ele><time>2026-05-03T16:28:12.264Z</time></trkpt><trkpt lat="44.036953" lon="7.927508"><ele>226.0</ele><time>2026-05-03T16:28:13.264Z</time></trkpt><trkpt lat="44.0368728" lon="7.9276906"><ele>226.0</ele><time>2026-05-03T16:28:14.264Z</time></trkpt><trkpt lat="44.0367926" lon="7.9278717"><ele>226.0</ele><time>2026-05-03T16:28:15.264Z</time></trkpt><trkpt lat="44.0367186" lon="7.9280406"><ele>226.0</ele><time>2026-05-03T16:28:16.265Z</time></trkpt><trkpt lat="44.0366462" lon="7.9282138"><ele>226.0</ele><time>2026-05-03T16:28:17.264Z</time></trkpt><trkpt lat="44.0365729" lon="7.9283847"><ele>237.0</ele><time>2026-05-03T16:28:18.264Z</time></trkpt><trkpt lat="44.0365051" lon="7.9285466"><ele>248.0</ele><time>2026-05-03T16:28:19.265Z</time></trkpt><trkpt lat="44.036444" lon="7.9287113"><ele>259.0</ele><time>2026-05-03T16:28:20.264Z</time></trkpt><trkpt lat="44.0364017" lon="7.9288979"><ele>270.0</ele><time>2026-05-03T16:28:21.264Z</time></trkpt><trkpt lat="44.0363817" lon="7.9290859"><ele>266.3333333333333</ele><time>2026-05-03T16:28:22.264Z</time></trkpt><trkpt lat="44.0363803" lon="7.9292786"><ele>262.66666666666663</ele><time>2026-05-03T16:28:23.264Z</time></trkpt><trkpt lat="44.0363883" lon="7.9294702"><ele>259.0</ele><time>2026-05-03T16:28:24.264Z</time></trkpt><trkpt lat="44.0366381" lon="7.930021"><ele>267.66666666666663</ele><time>2026-05-03T16:28:27.264Z</time></trkpt><trkpt lat="44.036732" lon="7.9302775"><ele>276.3333333333333</ele><time>2026-05-03T16:28:28.264Z</time></trkpt><trkpt lat="44.0368194" lon="7.9305137"><ele>285.0</ele><time>2026-05-03T16:28:29.265Z</time></trkpt><trkpt lat="44.0369533" lon="7.9307411"><ele>296.0</ele><time>2026-05-03T16:28:30.264Z</time></trkpt><trkpt lat="44.0370983" lon="7.9309821"><ele>307.0</ele><time>2026-05-03T16:28:31.264Z</time></trkpt><trkpt lat="44.0372259" lon="7.9312403"><ele>307.0</ele><time>2026-05-03T16:28:32.264Z</time></trkpt><trkpt lat="44.0373525" lon="7.9314725"><ele>307.0</ele><time>2026-05-03T16:28:33.265Z</time></trkpt><trkpt lat="44.0374494" lon="7.9317162"><ele>307.0</ele><time>2026-05-03T16:28:34.265Z</time></trkpt><trkpt lat="44.0375329" lon="7.9319518"><ele>297.66666666666663</ele><time>2026-05-03T16:28:35.264Z</time></trkpt><trkpt lat="44.037595" lon="7.9321846"><ele>288.3333333333333</ele><time>2026-05-03T16:28:36.264Z</time></trkpt><trkpt lat="44.0376467" lon="7.9323944"><ele>279.0</ele><time>2026-05-03T16:28:37.264Z</time></trkpt><trkpt lat="44.0376686" lon="7.9326037"><ele>278.6666666666667</ele><time>2026-05-03T16:28:38.264Z</time></trkpt><trkpt lat="44.0376568" lon="7.9328285"><ele>278.33333333333337</ele><time>2026-05-03T16:28:39.264Z</time></trkpt><trkpt lat="44.0376076" lon="7.9330733"><ele>278.0</ele><time>2026-05-03T16:28:40.264Z</time></trkpt><trkpt lat="44.0375412" lon="7.9333209"><ele>274.0</ele><time>2026-05-03T16:28:41.264Z</time></trkpt><trkpt lat="44.0374741" lon="7.9335635"><ele>270.0</ele><time>2026-05-03T16:28:42.264Z</time></trkpt><trkpt lat="44.0374066" lon="7.9337864"><ele>266.0</ele><time>2026-05-03T16:28:43.264Z</time></trkpt><trkpt lat="44.0373432" lon="7.9339872"><ele>273.5</ele><time>2026-05-03T16:28:44.265Z</time></trkpt><trkpt lat="44.0372843" lon="7.9341568"><ele>281.0</ele><time>2026-05-03T16:28:45.264Z</time></trkpt><trkpt lat="44.0372184" lon="7.9343242"><ele>288.5</ele><time>2026-05-03T16:28:46.265Z</time></trkpt><trkpt lat="44.037145" lon="7.9344841"><ele>296.0</ele><time>2026-05-03T16:28:47.264Z</time></trkpt><trkpt lat="44.0370629" lon="7.9346643"><ele>296.0</ele><time>2026-05-03T16:28:48.264Z</time></trkpt><trkpt lat="44.0369739" lon="7.9348487"><ele>296.0</ele><time>2026-05-03T16:28:49.265Z</time></trkpt><trkpt lat="44.0368711" lon="7.9350353"><ele>296.0</ele><time>2026-05-03T16:28:50.264Z</time></trkpt><trkpt lat="44.0367881" lon="7.935221"><ele>292.5</ele><time>2026-05-03T16:28:51.264Z</time></trkpt><trkpt lat="44.0367042" lon="7.9353855"><ele>289.0</ele><time>2026-05-03T16:28:52.264Z</time></trkpt><trkpt lat="44.0366361" lon="7.9355428"><ele>285.5</ele><time>2026-05-03T16:28:53.264Z</time></trkpt><trkpt lat="44.0365789" lon="7.9357094"><ele>282.0</ele><time>2026-05-03T16:28:54.264Z</time></trkpt><trkpt lat="44.0365252" lon="7.9358806"><ele>291.0</ele><time>2026-05-03T16:28:55.265Z</time></trkpt><trkpt lat="44.0364727" lon="7.936065"><ele>300.0</ele><time>2026-05-03T16:28:56.264Z</time></trkpt><trkpt lat="44.0364185" lon="7.9362717"><ele>309.0</ele><time>2026-05-03T16:28:57.265Z</time></trkpt><trkpt lat="44.0363538" lon="7.9365078"><ele>308.6666666666667</ele><time>2026-05-03T16:28:58.265Z</time></trkpt><trkpt lat="44.0362873" lon="7.9367603"><ele>308.33333333333337</ele><time>2026-05-03T16:28:59.265Z</time></trkpt><trkpt lat="44.0362152" lon="7.9370275"><ele>308.0</ele><time>2026-05-03T16:29:00.264Z</time></trkpt><trkpt lat="44.036137" lon="7.9372957"><ele>304.6666666666667</ele><time>2026-05-03T16:29:01.264Z</time></trkpt><trkpt lat="44.0360546" lon="7.9375811"><ele>301.3333333333333</ele><time>2026-05-03T16:29:02.264Z</time></trkpt><trkpt lat="44.0359729" lon="7.937867"><ele>298.0</ele><time>2026-05-03T16:29:03.265Z</time></trkpt><trkpt lat="44.0358886" lon="7.9381471"><ele>309.66666666666663</ele><time>2026-05-03T16:29:04.264Z</time></trkpt><trkpt lat="44.035784" lon="7.9384039"><ele>321.3333333333333</ele><time>2026-05-03T16:29:05.264Z</time></trkpt><trkpt lat="44.0356509" lon="7.9386468"><ele>333.0</ele><time>2026-05-03T16:29:06.264Z</time></trkpt><trkpt lat="44.035496" lon="7.9388675"><ele>333.0</ele><time>2026-05-03T16:29:07.265Z</time></trkpt><trkpt lat="44.0353214" lon="7.9390695"><ele>333.0</ele><time>2026-05-03T16:29:08.264Z</time></trkpt><trkpt lat="44.0351297" lon="7.9392323"><ele>334.5</ele><time>2026-05-03T16:29:09.265Z</time></trkpt><trkpt lat="44.0349224" lon="7.9393632"><ele>336.0</ele><time>2026-05-03T16:29:10.264Z</time></trkpt><trkpt lat="44.0347033" lon="7.9394606"><ele>311.0</ele><time>2026-05-03T16:29:11.264Z</time></trkpt><trkpt lat="44.033163" lon="7.9395424"><ele>311.0</ele><time>2026-05-03T16:29:18.264Z</time></trkpt><trkpt lat="44.032941" lon="7.9395457"><ele>311.0</ele><time>2026-05-03T16:29:19.264Z</time></trkpt><trkpt lat="44.0326936" lon="7.939558"><ele>316.0</ele><time>2026-05-03T16:29:20.264Z</time></trkpt><trkpt lat="44.0324449" lon="7.9395632"><ele>321.0</ele><time>2026-05-03T16:29:21.265Z</time></trkpt><trkpt lat="44.0321891" lon="7.9395666"><ele>321.0</ele><time>2026-05-03T16:29:22.264Z</time></trkpt><trkpt lat="44.0319322" lon="7.9395639"><ele>321.0</ele><time>2026-05-03T16:29:23.265Z</time></trkpt><trkpt lat="44.0316734" lon="7.9395689"><ele>324.0</ele><time>2026-05-03T16:29:24.264Z</time></trkpt><trkpt lat="44.0314139" lon="7.9395748"><ele>327.0</ele><time>2026-05-03T16:29:25.264Z</time></trkpt><trkpt lat="44.0311492" lon="7.9395765"><ele>327.0</ele><time>2026-05-03T16:29:26.265Z</time></trkpt><trkpt lat="44.0308847" lon="7.9395771"><ele>327.0</ele><time>2026-05-03T16:29:27.262Z</time></trkpt><trkpt lat="44.0306221" lon="7.9395782"><ele>322.5</ele><time>2026-05-03T16:29:28.264Z</time></trkpt><trkpt lat="44.0303599" lon="7.9395787"><ele>318.0</ele><time>2026-05-03T16:29:29.264Z</time></trkpt><trkpt lat="44.0301005" lon="7.9395842"><ele>320.0</ele><time>2026-05-03T16:29:30.264Z</time></trkpt><trkpt lat="44.0298454" lon="7.9396064"><ele>322.0</ele><time>2026-05-03T16:29:31.265Z</time></trkpt><trkpt lat="44.0295875" lon="7.9396429"><ele>322.0</ele><time>2026-05-03T16:29:32.264Z</time></trkpt><trkpt lat="44.0293288" lon="7.9396846"><ele>322.0</ele><time>2026-05-03T16:29:33.265Z</time></trkpt><trkpt lat="44.0290706" lon="7.939739"><ele>333.5</ele><time>2026-05-03T16:29:34.264Z</time></trkpt><trkpt lat="44.0288129" lon="7.9398004"><ele>345.0</ele><time>2026-05-03T16:29:35.265Z</time></trkpt><trkpt lat="44.0285647" lon="7.9398771"><ele>345.0</ele><time>2026-05-03T16:29:36.265Z</time></trkpt><trkpt lat="44.0283254" lon="7.9399645"><ele>345.0</ele><time>2026-05-03T16:29:37.265Z</time></trkpt><trkpt lat="44.0280963" lon="7.9400537"><ele>330.0</ele><time>2026-05-03T16:29:38.264Z</time></trkpt><trkpt lat="44.0278789" lon="7.9401492"><ele>315.0</ele><time>2026-05-03T16:29:39.264Z</time></trkpt><trkpt lat="44.0276615" lon="7.9402591"><ele>316.0</ele><time>2026-05-03T16:29:40.264Z</time></trkpt><trkpt lat="44.0274518" lon="7.9403809"><ele>317.0</ele><time>2026-05-03T16:29:41.265Z</time></trkpt><trkpt lat="44.0272418" lon="7.9405117"><ele>317.0</ele><time>2026-05-03T16:29:42.264Z</time></trkpt><trkpt lat="44.0270382" lon="7.9406502"><ele>317.0</ele><time>2026-05-03T16:29:43.265Z</time></trkpt><trkpt lat="44.0268438" lon="7.9408004"><ele>317.0</ele><time>2026-05-03T16:29:44.265Z</time></trkpt><trkpt lat="44.0266655" lon="7.9409494"><ele>315.33333333333337</ele><time>2026-05-03T16:29:45.265Z</time></trkpt><trkpt lat="44.0264942" lon="7.9410933"><ele>313.6666666666667</ele><time>2026-05-03T16:29:46.264Z</time></trkpt><trkpt lat="44.0263402" lon="7.9412358"><ele>312.0</ele><time>2026-05-03T16:29:47.265Z</time></trkpt><trkpt lat="44.0261992" lon="7.9413764"><ele>312.0</ele><time>2026-05-03T16:29:48.265Z</time></trkpt><trkpt lat="44.026069" lon="7.9415008"><ele>312.0</ele><time>2026-05-03T16:29:49.265Z</time></trkpt><trkpt lat="44.0259668" lon="7.9416094"><ele>312.0</ele><time>2026-05-03T16:29:50.265Z</time></trkpt><trkpt lat="44.0258765" lon="7.9417129"><ele>312.0</ele><time>2026-05-03T16:29:51.264Z</time></trkpt><trkpt lat="44.0257982" lon="7.9418018"><ele>307.25</ele><time>2026-05-03T16:29:52.264Z</time></trkpt><trkpt lat="44.0257293" lon="7.9418887"><ele>302.5</ele><time>2026-05-03T16:29:53.264Z</time></trkpt><trkpt lat="44.0256534" lon="7.941988"><ele>297.75</ele><time>2026-05-03T16:29:54.264Z</time></trkpt><trkpt lat="44.0255644" lon="7.9421007"><ele>293.0</ele><time>2026-05-03T16:29:55.264Z</time></trkpt><trkpt lat="44.0254684" lon="7.9422362"><ele>293.0</ele><time>2026-05-03T16:29:56.265Z</time></trkpt><trkpt lat="44.0253798" lon="7.9423615"><ele>293.0</ele><time>2026-05-03T16:29:57.265Z</time></trkpt><trkpt lat="44.0252959" lon="7.9424884"><ele>293.0</ele><time>2026-05-03T16:29:58.265Z</time></trkpt><trkpt lat="44.0252149" lon="7.9426157"><ele>293.0</ele><time>2026-05-03T16:29:59.265Z</time></trkpt><trkpt lat="44.0251422" lon="7.9427347"><ele>292.75</ele><time>2026-05-03T16:30:00.265Z</time></trkpt><trkpt lat="44.025069" lon="7.942848"><ele>292.5</ele><time>2026-05-03T16:30:01.264Z</time></trkpt><trkpt lat="44.0249955" lon="7.9429572"><ele>292.25</ele><time>2026-05-03T16:30:02.265Z</time></trkpt><trkpt lat="44.0249162" lon="7.9430809"><ele>292.0</ele><time>2026-05-03T16:30:03.264Z</time></trkpt><trkpt lat="44.0248286" lon="7.9432124"><ele>292.0</ele><time>2026-05-03T16:30:04.264Z</time></trkpt><trkpt lat="44.0247453" lon="7.9433544"><ele>292.0</ele><time>2026-05-03T16:30:05.264Z</time></trkpt><trkpt lat="44.0246626" lon="7.9435147"><ele>292.0</ele><time>2026-05-03T16:30:06.264Z</time></trkpt><trkpt lat="44.0245821" lon="7.9436716"><ele>292.0</ele><time>2026-05-03T16:30:07.265Z</time></trkpt><trkpt lat="44.0245017" lon="7.9438297"><ele>292.0</ele><time>2026-05-03T16:30:08.264Z</time></trkpt><trkpt lat="44.0244152" lon="7.9439914"><ele>292.0</ele><time>2026-05-03T16:30:09.265Z</time></trkpt><trkpt lat="44.0243243" lon="7.9441592"><ele>292.0</ele><time>2026-05-03T16:30:10.264Z</time></trkpt><trkpt lat="44.0242326" lon="7.9443412"><ele>296.66666666666663</ele><time>2026-05-03T16:30:11.265Z</time></trkpt><trkpt lat="44.0241478" lon="7.9445261"><ele>301.3333333333333</ele><time>2026-05-03T16:30:12.265Z</time></trkpt><trkpt lat="44.0240672" lon="7.9446977"><ele>306.0</ele><time>2026-05-03T16:30:13.265Z</time></trkpt><trkpt lat="44.0239949" lon="7.9448723"><ele>307.0</ele><time>2026-05-03T16:30:14.264Z</time></trkpt><trkpt lat="44.0239079" lon="7.9450571"><ele>308.0</ele><time>2026-05-03T16:30:15.265Z</time></trkpt><trkpt lat="44.0238138" lon="7.9452629"><ele>309.0</ele><time>2026-05-03T16:30:16.264Z</time></trkpt><trkpt lat="44.0237233" lon="7.9454847"><ele>309.0</ele><time>2026-05-03T16:30:17.264Z</time></trkpt><trkpt lat="44.0236343" lon="7.9457016"><ele>309.0</ele><time>2026-05-03T16:30:18.264Z</time></trkpt><trkpt lat="44.0235513" lon="7.9458969"><ele>309.0</ele><time>2026-05-03T16:30:19.264Z</time></trkpt><trkpt lat="44.0234647" lon="7.9460969"><ele>309.3333333333333</ele><time>2026-05-03T16:30:20.264Z</time></trkpt><trkpt lat="44.0233688" lon="7.9463061"><ele>309.66666666666663</ele><time>2026-05-03T16:30:21.264Z</time></trkpt><trkpt lat="44.0232667" lon="7.9465297"><ele>310.0</ele><time>2026-05-03T16:30:22.264Z</time></trkpt><trkpt lat="44.0231713" lon="7.9467566"><ele>314.66666666666663</ele><time>2026-05-03T16:30:23.264Z</time></trkpt><trkpt lat="44.0230769" lon="7.9469697"><ele>319.3333333333333</ele><time>2026-05-03T16:30:24.265Z</time></trkpt><trkpt lat="44.0229874" lon="7.9471773"><ele>324.0</ele><time>2026-05-03T16:30:25.264Z</time></trkpt><trkpt lat="44.022898" lon="7.9473834"><ele>321.6666666666667</ele><time>2026-05-03T16:30:26.264Z</time></trkpt><trkpt lat="44.0228091" lon="7.9475804"><ele>319.33333333333337</ele><time>2026-05-03T16:30:27.264Z</time></trkpt><trkpt lat="44.0227208" lon="7.947778"><ele>317.0</ele><time>2026-05-03T16:30:28.264Z</time></trkpt><trkpt lat="44.0226304" lon="7.9479799"><ele>317.0</ele><time>2026-05-03T16:30:29.265Z</time></trkpt><trkpt lat="44.0225468" lon="7.9481756"><ele>317.0</ele><time>2026-05-03T16:30:30.264Z</time></trkpt><trkpt lat="44.0224664" lon="7.9483555"><ele>317.0</ele><time>2026-05-03T16:30:31.264Z</time></trkpt><trkpt lat="44.0223975" lon="7.9485397"><ele>321.0</ele><time>2026-05-03T16:30:32.264Z</time></trkpt><trkpt lat="44.02232" lon="7.9487165"><ele>325.0</ele><time>2026-05-03T16:30:33.264Z</time></trkpt><trkpt lat="44.0222397" lon="7.9488982"><ele>329.0</ele><time>2026-05-03T16:30:34.265Z</time></trkpt><trkpt lat="44.0221591" lon="7.9490813"><ele>329.6666666666667</ele><time>2026-05-03T16:30:35.265Z</time></trkpt><trkpt lat="44.0220721" lon="7.9492804"><ele>330.3333333333333</ele><time>2026-05-03T16:30:36.264Z</time></trkpt><trkpt lat="44.0219744" lon="7.9495"><ele>331.0</ele><time>2026-05-03T16:30:37.264Z</time></trkpt><trkpt lat="44.0218627" lon="7.9497492"><ele>331.0</ele><time>2026-05-03T16:30:38.264Z</time></trkpt><trkpt lat="44.0217468" lon="7.9500009"><ele>331.0</ele><time>2026-05-03T16:30:39.264Z</time></trkpt><trkpt lat="44.021636" lon="7.9502482"><ele>331.0</ele><time>2026-05-03T16:30:40.264Z</time></trkpt><trkpt lat="44.0215209" lon="7.9505212"><ele>345.5</ele><time>2026-05-03T16:30:41.264Z</time></trkpt><trkpt lat="44.0214045" lon="7.9508033"><ele>360.0</ele><time>2026-05-03T16:30:42.264Z</time></trkpt><trkpt lat="44.0212841" lon="7.9510718"><ele>360.0</ele><time>2026-05-03T16:30:43.265Z</time></trkpt><trkpt lat="44.0211681" lon="7.9513236"><ele>360.0</ele><time>2026-05-03T16:30:44.264Z</time></trkpt><trkpt lat="44.0210629" lon="7.9515574"><ele>360.0</ele><time>2026-05-03T16:30:45.265Z</time></trkpt><trkpt lat="44.0209612" lon="7.9517682"><ele>330.0</ele><time>2026-05-03T16:30:46.264Z</time></trkpt><trkpt lat="44.0091112" lon="7.9681422"><ele>330.0</ele><time>2026-05-03T16:31:51.265Z</time></trkpt><trkpt lat="44.0088425" lon="7.9683518"><ele>330.0</ele><time>2026-05-03T16:31:52.265Z</time></trkpt><trkpt lat="44.0085934" lon="7.9685313"><ele>337.0</ele><time>2026-05-03T16:31:53.266Z</time></trkpt><trkpt lat="44.0083394" lon="7.968731"><ele>344.0</ele><time>2026-05-03T16:31:54.266Z</time></trkpt><trkpt lat="44.0080793" lon="7.9689259"><ele>344.0</ele><time>2026-05-03T16:31:55.265Z</time></trkpt><trkpt lat="44.0078195" lon="7.969113"><ele>344.0</ele><time>2026-05-03T16:31:56.265Z</time></trkpt><trkpt lat="44.0075623" lon="7.9692992"><ele>353.0</ele><time>2026-05-03T16:31:57.265Z</time></trkpt><trkpt lat="44.0073039" lon="7.9694754"><ele>362.0</ele><time>2026-05-03T16:31:58.265Z</time></trkpt><trkpt lat="44.0068084" lon="7.969842"><ele>297.0</ele><time>2026-05-03T16:32:00.265Z</time></trkpt><trkpt lat="44.0027541" lon="7.9727748"><ele>297.0</ele><time>2026-05-03T16:32:16.265Z</time></trkpt><trkpt lat="44.0026288" lon="7.9729279"><ele>297.0</ele><time>2026-05-03T16:32:17.265Z</time></trkpt><trkpt lat="44.0023919" lon="7.9731141"><ele>297.0</ele><time>2026-05-03T16:32:18.265Z</time></trkpt><trkpt lat="44.0021474" lon="7.9732959"><ele>296.0</ele><time>2026-05-03T16:32:19.266Z</time></trkpt><trkpt lat="44.001904" lon="7.9734765"><ele>295.0</ele><time>2026-05-03T16:32:20.265Z</time></trkpt><trkpt lat="44.0016551" lon="7.9736642"><ele>306.5</ele><time>2026-05-03T16:32:21.266Z</time></trkpt><trkpt lat="44.0014114" lon="7.9738515"><ele>318.0</ele><time>2026-05-03T16:32:22.266Z</time></trkpt><trkpt lat="44.0011658" lon="7.9740422"><ele>328.0</ele><time>2026-05-03T16:32:23.265Z</time></trkpt><trkpt lat="44.0009171" lon="7.9742269"><ele>338.0</ele><time>2026-05-03T16:32:24.266Z</time></trkpt><trkpt lat="44.0006681" lon="7.9744208"><ele>344.5</ele><time>2026-05-03T16:32:25.266Z</time></trkpt><trkpt lat="44.000417" lon="7.9746112"><ele>351.0</ele><time>2026-05-03T16:32:26.266Z</time></trkpt><trkpt lat="44.0001655" lon="7.9748044"><ele>327.0</ele><time>2026-05-03T16:32:27.265Z</time></trkpt><trkpt lat="43.9958037" lon="7.9751162"><ele>319.0</ele><time>2026-05-03T16:32:43.265Z</time></trkpt><trkpt lat="43.9955512" lon="7.9749301"><ele>311.0</ele><time>2026-05-03T16:32:44.265Z</time></trkpt><trkpt lat="43.9953023" lon="7.9747207"><ele>311.0</ele><time>2026-05-03T16:32:45.265Z</time></trkpt><trkpt lat="43.9950675" lon="7.9745023"><ele>311.0</ele><time>2026-05-03T16:32:46.265Z</time></trkpt><trkpt lat="43.9948326" lon="7.9742839"><ele>312.0</ele><time>2026-05-03T16:32:47.265Z</time></trkpt><trkpt lat="43.9945948" lon="7.9740534"><ele>313.0</ele><time>2026-05-03T16:32:48.265Z</time></trkpt><trkpt lat="43.9943543" lon="7.9738373"><ele>324.5</ele><time>2026-05-03T16:32:49.266Z</time></trkpt><trkpt lat="43.9941194" lon="7.9736137"><ele>336.0</ele><time>2026-05-03T16:32:50.265Z</time></trkpt><trkpt lat="43.993875" lon="7.9733906"><ele>322.0</ele><time>2026-05-03T16:32:51.266Z</time></trkpt><trkpt lat="43.9936296" lon="7.9731642"><ele>308.0</ele><time>2026-05-03T16:32:52.265Z</time></trkpt><trkpt lat="43.9933864" lon="7.9729377"><ele>312.5</ele><time>2026-05-03T16:32:53.266Z</time></trkpt><trkpt lat="43.9931459" lon="7.9727153"><ele>317.0</ele><time>2026-05-03T16:32:54.265Z</time></trkpt><trkpt lat="43.9929112" lon="7.9724958"><ele>311.0</ele><time>2026-05-03T16:32:55.265Z</time></trkpt><trkpt lat="43.9926909" lon="7.9722645"><ele>305.0</ele><time>2026-05-03T16:32:56.265Z</time></trkpt><trkpt lat="43.9924978" lon="7.9719963"><ele>305.0</ele><time>2026-05-03T16:32:57.266Z</time></trkpt><trkpt lat="43.9923193" lon="7.9717089"><ele>305.0</ele><time>2026-05-03T16:32:58.265Z</time></trkpt><trkpt lat="43.9921468" lon="7.9714371"><ele>299.5</ele><time>2026-05-03T16:32:59.265Z</time></trkpt><trkpt lat="43.9919468" lon="7.9712099"><ele>294.0</ele><time>2026-05-03T16:33:00.265Z</time></trkpt><trkpt lat="43.9917288" lon="7.9710227"><ele>296.0</ele><time>2026-05-03T16:33:01.265Z</time></trkpt><trkpt lat="43.991481" lon="7.9708779"><ele>298.0</ele><time>2026-05-03T16:33:02.265Z</time></trkpt><trkpt lat="43.9912257" lon="7.9707886"><ele>294.0</ele><time>2026-05-03T16:33:03.265Z</time></trkpt><trkpt lat="43.9909602" lon="7.9707536"><ele>290.0</ele><time>2026-05-03T16:33:04.265Z</time></trkpt><trkpt lat="43.9906923" lon="7.9707709"><ele>290.0</ele><time>2026-05-03T16:33:05.265Z</time></trkpt><trkpt lat="43.9904085" lon="7.9708277"><ele>290.0</ele><time>2026-05-03T16:33:06.266Z</time></trkpt><trkpt lat="43.9901389" lon="7.9709031"><ele>293.5</ele><time>2026-05-03T16:33:07.265Z</time></trkpt><trkpt lat="43.9898831" lon="7.9709721"><ele>297.0</ele><time>2026-05-03T16:33:08.265Z</time></trkpt><trkpt lat="43.9896299" lon="7.9710296"><ele>297.0</ele><time>2026-05-03T16:33:09.266Z</time></trkpt><trkpt lat="43.9893747" lon="7.9710461"><ele>297.0</ele><time>2026-05-03T16:33:10.266Z</time></trkpt><trkpt lat="43.9891144" lon="7.9710193"><ele>296.5</ele><time>2026-05-03T16:33:11.265Z</time></trkpt><trkpt lat="43.9888552" lon="7.9709413"><ele>296.0</ele><time>2026-05-03T16:33:12.265Z</time></trkpt><trkpt lat="43.9885984" lon="7.9708139"><ele>287.5</ele><time>2026-05-03T16:33:13.265Z</time></trkpt><trkpt lat="43.9883483" lon="7.9706532"><ele>279.0</ele><time>2026-05-03T16:33:14.266Z</time></trkpt><trkpt lat="43.9881005" lon="7.9704889"><ele>279.0</ele><time>2026-05-03T16:33:15.265Z</time></trkpt><trkpt lat="43.9878542" lon="7.970329"><ele>279.0</ele><time>2026-05-03T16:33:16.266Z</time></trkpt><trkpt lat="43.9876053" lon="7.9701895"><ele>282.0</ele><time>2026-05-03T16:33:17.265Z</time></trkpt><trkpt lat="43.9873454" lon="7.970089"><ele>285.0</ele><time>2026-05-03T16:33:18.266Z</time></trkpt><trkpt lat="43.9870802" lon="7.9700403"><ele>285.0</ele><time>2026-05-03T16:33:19.265Z</time></trkpt><trkpt lat="43.986803" lon="7.9700527"><ele>285.0</ele><time>2026-05-03T16:33:20.265Z</time></trkpt><trkpt lat="43.9865206" lon="7.970099"><ele>286.5</ele><time>2026-05-03T16:33:21.266Z</time></trkpt><trkpt lat="43.9862337" lon="7.9701436"><ele>288.0</ele><time>2026-05-03T16:33:22.265Z</time></trkpt><trkpt lat="43.9859436" lon="7.9701934"><ele>284.0</ele><time>2026-05-03T16:33:23.265Z</time></trkpt><trkpt lat="43.9856668" lon="7.9702343"><ele>280.0</ele><time>2026-05-03T16:33:24.266Z</time></trkpt><trkpt lat="43.9853989" lon="7.9702835"><ele>280.0</ele><time>2026-05-03T16:33:25.266Z</time></trkpt><trkpt lat="43.9851451" lon="7.9703599"><ele>280.0</ele><time>2026-05-03T16:33:26.266Z</time></trkpt><trkpt lat="43.9848988" lon="7.970483"><ele>269.0</ele><time>2026-05-03T16:33:27.265Z</time></trkpt><trkpt lat="43.9846682" lon="7.9706459"><ele>258.0</ele><time>2026-05-03T16:33:28.265Z</time></trkpt><trkpt lat="43.9844518" lon="7.9708515"><ele>263.0</ele><time>2026-05-03T16:33:29.265Z</time></trkpt><trkpt lat="43.9842674" lon="7.9711172"><ele>268.0</ele><time>2026-05-03T16:33:30.265Z</time></trkpt><trkpt lat="43.9840912" lon="7.9713924"><ele>260.0</ele><time>2026-05-03T16:33:31.265Z</time></trkpt><trkpt lat="43.9839116" lon="7.9716738"><ele>252.0</ele><time>2026-05-03T16:33:32.265Z</time></trkpt><trkpt lat="43.9837309" lon="7.9719478"><ele>252.0</ele><time>2026-05-03T16:33:33.265Z</time></trkpt><trkpt lat="43.9835458" lon="7.9721933"><ele>252.0</ele><time>2026-05-03T16:33:34.265Z</time></trkpt><trkpt lat="43.9833517" lon="7.9724071"><ele>247.5</ele><time>2026-05-03T16:33:35.265Z</time></trkpt><trkpt lat="43.9831485" lon="7.9725731"><ele>243.0</ele><time>2026-05-03T16:33:36.266Z</time></trkpt><trkpt lat="43.9829375" lon="7.9726925"><ele>243.0</ele><time>2026-05-03T16:33:37.266Z</time></trkpt><trkpt lat="43.9827076" lon="7.9727813"><ele>243.0</ele><time>2026-05-03T16:33:38.266Z</time></trkpt><trkpt lat="43.9824594" lon="7.9728223"><ele>240.5</ele><time>2026-05-03T16:33:39.266Z</time></trkpt><trkpt lat="43.9822109" lon="7.9728156"><ele>238.0</ele><time>2026-05-03T16:33:40.266Z</time></trkpt><trkpt lat="43.981963" lon="7.9727595"><ele>238.0</ele><time>2026-05-03T16:33:41.266Z</time></trkpt><trkpt lat="43.981708" lon="7.9726556"><ele>238.0</ele><time>2026-05-03T16:33:42.265Z</time></trkpt><trkpt lat="43.9814508" lon="7.9725162"><ele>230.0</ele><time>2026-05-03T16:33:43.266Z</time></trkpt><trkpt lat="43.9811923" lon="7.9723622"><ele>222.0</ele><time>2026-05-03T16:33:44.265Z</time></trkpt><trkpt lat="43.9809271" lon="7.9722158"><ele>224.5</ele><time>2026-05-03T16:33:45.265Z</time></trkpt><trkpt lat="43.9806596" lon="7.9720653"><ele>227.0</ele><time>2026-05-03T16:33:46.266Z</time></trkpt><trkpt lat="43.9803931" lon="7.9719046"><ele>227.0</ele><time>2026-05-03T16:33:47.265Z</time></trkpt><trkpt lat="43.9801374" lon="7.9717516"><ele>227.0</ele><time>2026-05-03T16:33:48.265Z</time></trkpt><trkpt lat="43.9798894" lon="7.9716016"><ele>216.5</ele><time>2026-05-03T16:33:49.266Z</time></trkpt><trkpt lat="43.9796445" lon="7.9714554"><ele>206.0</ele><time>2026-05-03T16:33:50.265Z</time></trkpt><trkpt lat="43.9794068" lon="7.9713134"><ele>217.0</ele><time>2026-05-03T16:33:51.266Z</time></trkpt><trkpt lat="43.9791691" lon="7.9711891"><ele>228.0</ele><time>2026-05-03T16:33:52.266Z</time></trkpt><trkpt lat="43.9789263" lon="7.9711179"><ele>228.0</ele><time>2026-05-03T16:33:53.266Z</time></trkpt><trkpt lat="43.9786803" lon="7.9711066"><ele>228.0</ele><time>2026-05-03T16:33:54.265Z</time></trkpt><trkpt lat="43.9784369" lon="7.971134"><ele>229.5</ele><time>2026-05-03T16:33:55.265Z</time></trkpt><trkpt lat="43.9781974" lon="7.971226"><ele>231.0</ele><time>2026-05-03T16:33:56.266Z</time></trkpt><trkpt lat="43.9779811" lon="7.9713246"><ele>231.0</ele><time>2026-05-03T16:33:57.266Z</time></trkpt><trkpt lat="43.9777867" lon="7.9714671"><ele>231.0</ele><time>2026-05-03T16:33:58.265Z</time></trkpt><trkpt lat="43.9775953" lon="7.9716435"><ele>231.0</ele><time>2026-05-03T16:33:59.265Z</time></trkpt><trkpt lat="43.9774283" lon="7.9717632"><ele>234.33333333333331</ele><time>2026-05-03T16:34:00.265Z</time></trkpt><trkpt lat="43.9772569" lon="7.9719043"><ele>237.66666666666666</ele><time>2026-05-03T16:34:01.265Z</time></trkpt><trkpt lat="43.9770947" lon="7.9720138"><ele>241.0</ele><time>2026-05-03T16:34:02.265Z</time></trkpt><trkpt lat="43.9769393" lon="7.9721325"><ele>241.0</ele><time>2026-05-03T16:34:03.265Z</time></trkpt><trkpt lat="43.9767878" lon="7.972249"><ele>241.0</ele><time>2026-05-03T16:34:04.266Z</time></trkpt><trkpt lat="43.9766412" lon="7.9723586"><ele>241.0</ele><time>2026-05-03T16:34:05.265Z</time></trkpt><trkpt lat="43.9764915" lon="7.9724695"><ele>236.66666666666666</ele><time>2026-05-03T16:34:06.265Z</time></trkpt><trkpt lat="43.9763438" lon="7.9725585"><ele>232.33333333333331</ele><time>2026-05-03T16:34:07.265Z</time></trkpt><trkpt lat="43.9762045" lon="7.972735"><ele>228.0</ele><time>2026-05-03T16:34:08.265Z</time></trkpt><trkpt lat="43.976044" lon="7.9727955"><ele>228.0</ele><time>2026-05-03T16:34:09.266Z</time></trkpt><trkpt lat="43.9759409" lon="7.9729541"><ele>228.0</ele><time>2026-05-03T16:34:10.265Z</time></trkpt><trkpt lat="43.9758349" lon="7.9731442"><ele>228.0</ele><time>2026-05-03T16:34:11.266Z</time></trkpt><trkpt lat="43.9757324" lon="7.9733206"><ele>216.33333333333331</ele><time>2026-05-03T16:34:12.266Z</time></trkpt><trkpt lat="43.9756353" lon="7.9735106"><ele>204.66666666666666</ele><time>2026-05-03T16:34:13.265Z</time></trkpt><trkpt lat="43.9755462" lon="7.9737093"><ele>193.0</ele><time>2026-05-03T16:34:14.265Z</time></trkpt><trkpt lat="43.9754739" lon="7.9739142"><ele>193.0</ele><time>2026-05-03T16:34:15.266Z</time></trkpt><trkpt lat="43.9754137" lon="7.9741279"><ele>193.0</ele><time>2026-05-03T16:34:16.265Z</time></trkpt><trkpt lat="43.9753703" lon="7.9743465"><ele>193.0</ele><time>2026-05-03T16:34:17.265Z</time></trkpt><trkpt lat="43.9753367" lon="7.9745728"><ele>200.33333333333331</ele><time>2026-05-03T16:34:18.265Z</time></trkpt><trkpt lat="43.9753143" lon="7.974806"><ele>207.66666666666669</ele><time>2026-05-03T16:34:19.265Z</time></trkpt><trkpt lat="43.9753069" lon="7.9750584"><ele>215.0</ele><time>2026-05-03T16:34:20.266Z</time></trkpt><trkpt lat="43.9753192" lon="7.9753246"><ele>226.5</ele><time>2026-05-03T16:34:21.265Z</time></trkpt><trkpt lat="43.9753458" lon="7.9756116"><ele>238.0</ele><time>2026-05-03T16:34:22.266Z</time></trkpt><trkpt lat="43.9742327" lon="7.9812611"><ele>227.0</ele><time>2026-05-03T16:34:43.269Z</time></trkpt><trkpt lat="43.9740887" lon="7.9814832"><ele>216.0</ele><time>2026-05-03T16:34:44.269Z</time></trkpt><trkpt lat="43.9739528" lon="7.9816855"><ele>205.0</ele><time>2026-05-03T16:34:45.269Z</time></trkpt><trkpt lat="43.9738069" lon="7.9818782"><ele>205.0</ele><time>2026-05-03T16:34:46.269Z</time></trkpt><trkpt lat="43.9736598" lon="7.9820586"><ele>205.0</ele><time>2026-05-03T16:34:47.269Z</time></trkpt><trkpt lat="43.9624144" lon="7.9908452"><ele>179.0</ele><time>2026-05-03T16:35:38.269Z</time></trkpt><trkpt lat="43.962184" lon="7.9908842"><ele>153.0</ele><time>2026-05-03T16:35:39.27Z</time></trkpt><trkpt lat="43.9619324" lon="7.9909062"><ele>148.5</ele><time>2026-05-03T16:35:40.269Z</time></trkpt><trkpt lat="43.9616874" lon="7.9909276"><ele>144.0</ele><time>2026-05-03T16:35:41.269Z</time></trkpt><trkpt lat="43.9614496" lon="7.9909665"><ele>144.0</ele><time>2026-05-03T16:35:42.269Z</time></trkpt><trkpt lat="43.9612123" lon="7.9910473"><ele>144.0</ele><time>2026-05-03T16:35:43.27Z</time></trkpt><trkpt lat="43.9609807" lon="7.9911473"><ele>134.0</ele><time>2026-05-03T16:35:44.27Z</time></trkpt><trkpt lat="43.9607614" lon="7.9912635"><ele>124.0</ele><time>2026-05-03T16:35:45.27Z</time></trkpt><trkpt lat="43.9605505" lon="7.9914146"><ele>124.0</ele><time>2026-05-03T16:35:46.269Z</time></trkpt><trkpt lat="43.960342" lon="7.9915941"><ele>124.0</ele><time>2026-05-03T16:35:47.269Z</time></trkpt><trkpt lat="43.9601376" lon="7.9918052"><ele>122.0</ele><time>2026-05-03T16:35:48.27Z</time></trkpt><trkpt lat="43.9599304" lon="7.992028"><ele>120.0</ele><time>2026-05-03T16:35:49.27Z</time></trkpt><trkpt lat="43.9597204" lon="7.9922556"><ele>120.0</ele><time>2026-05-03T16:35:50.269Z</time></trkpt><trkpt lat="43.9595098" lon="7.9924861"><ele>120.0</ele><time>2026-05-03T16:35:51.27Z</time></trkpt><trkpt lat="43.9592968" lon="7.9927137"><ele>122.5</ele><time>2026-05-03T16:35:52.269Z</time></trkpt><trkpt lat="43.9590858" lon="7.9929405"><ele>125.0</ele><time>2026-05-03T16:35:53.269Z</time></trkpt><trkpt lat="43.9588767" lon="7.9931647"><ele>133.0</ele><time>2026-05-03T16:35:54.269Z</time></trkpt><trkpt lat="43.9586759" lon="7.9933823"><ele>141.0</ele><time>2026-05-03T16:35:55.269Z</time></trkpt><trkpt lat="43.9584835" lon="7.9936068"><ele>127.5</ele><time>2026-05-03T16:35:56.269Z</time></trkpt><trkpt lat="43.958313" lon="7.993848"><ele>114.0</ele><time>2026-05-03T16:35:57.27Z</time></trkpt><trkpt lat="43.9581634" lon="7.9941153"><ele>117.5</ele><time>2026-05-03T16:35:58.269Z</time></trkpt><trkpt lat="43.9580427" lon="7.9944156"><ele>121.0</ele><time>2026-05-03T16:35:59.27Z</time></trkpt><trkpt lat="43.9579437" lon="7.9947519"><ele>125.0</ele><time>2026-05-03T16:36:00.27Z</time></trkpt><trkpt lat="43.9578583" lon="7.9951009"><ele>129.0</ele><time>2026-05-03T16:36:01.27Z</time></trkpt><trkpt lat="43.9577764" lon="7.9954602"><ele>129.0</ele><time>2026-05-03T16:36:02.27Z</time></trkpt><trkpt lat="43.9576922" lon="7.9958197"><ele>129.0</ele><time>2026-05-03T16:36:03.27Z</time></trkpt><trkpt lat="43.9576126" lon="7.9961565"><ele>126.5</ele><time>2026-05-03T16:36:04.269Z</time></trkpt><trkpt lat="43.9575367" lon="7.9964806"><ele>124.0</ele><time>2026-05-03T16:36:05.269Z</time></trkpt><trkpt lat="43.9574484" lon="7.9968073"><ele>124.0</ele><time>2026-05-03T16:36:06.269Z</time></trkpt><trkpt lat="43.9573387" lon="7.9971273"><ele>124.0</ele><time>2026-05-03T16:36:07.269Z</time></trkpt><trkpt lat="43.9572011" lon="7.9974331"><ele>146.5</ele><time>2026-05-03T16:36:08.269Z</time></trkpt><trkpt lat="43.9570371" lon="7.9977321"><ele>169.0</ele><time>2026-05-03T16:36:09.269Z</time></trkpt><trkpt lat="43.9568609" lon="7.9980334"><ele>97.0</ele><time>2026-05-03T16:36:10.27Z</time></trkpt><trkpt lat="43.9514653" lon="8.0017966"><ele>97.0</ele><time>2026-05-03T16:36:42.269Z</time></trkpt><trkpt lat="43.9512756" lon="8.0017538"><ele>97.0</ele><time>2026-05-03T16:36:43.269Z</time></trkpt><trkpt lat="43.9510732" lon="8.001701"><ele>97.0</ele><time>2026-05-03T16:36:44.269Z</time></trkpt><trkpt lat="43.9508474" lon="8.0016617"><ele>92.5</ele><time>2026-05-03T16:36:45.269Z</time></trkpt><trkpt lat="43.9506146" lon="8.0016063"><ele>88.0</ele><time>2026-05-03T16:36:46.27Z</time></trkpt><trkpt lat="43.950374" lon="8.0015504"><ele>88.0</ele><time>2026-05-03T16:36:47.269Z</time></trkpt><trkpt lat="43.9501364" lon="8.0014863"><ele>88.0</ele><time>2026-05-03T16:36:48.269Z</time></trkpt><trkpt lat="43.9498974" lon="8.0014199"><ele>90.0</ele><time>2026-05-03T16:36:49.269Z</time></trkpt><trkpt lat="43.9496542" lon="8.0013504"><ele>92.0</ele><time>2026-05-03T16:36:50.27Z</time></trkpt><trkpt lat="43.9494098" lon="8.0012853"><ele>98.0</ele><time>2026-05-03T16:36:51.27Z</time></trkpt><trkpt lat="43.9491636" lon="8.0012197"><ele>104.0</ele><time>2026-05-03T16:36:52.269Z</time></trkpt><trkpt lat="43.9489208" lon="8.0011571"><ele>104.0</ele><time>2026-05-03T16:36:53.269Z</time></trkpt><trkpt lat="43.9486782" lon="8.0010981"><ele>104.0</ele><time>2026-05-03T16:36:54.269Z</time></trkpt><trkpt lat="43.9484384" lon="8.0010449"><ele>102.0</ele><time>2026-05-03T16:36:55.269Z</time></trkpt><trkpt lat="43.9482099" lon="8.0009905"><ele>100.0</ele><time>2026-05-03T16:36:56.269Z</time></trkpt><trkpt lat="43.9479985" lon="8.0009354"><ele>98.0</ele><time>2026-05-03T16:36:57.269Z</time></trkpt><trkpt lat="43.9477897" lon="8.0008736"><ele>101.33333333333333</ele><time>2026-05-03T16:36:58.269Z</time></trkpt><trkpt lat="43.9475863" lon="8.0008041"><ele>104.66666666666666</ele><time>2026-05-03T16:36:59.269Z</time></trkpt><trkpt lat="43.9473858" lon="8.0007289"><ele>108.0</ele><time>2026-05-03T16:37:00.269Z</time></trkpt><trkpt lat="43.9471987" lon="8.0006455"><ele>108.0</ele><time>2026-05-03T16:37:01.269Z</time></trkpt><trkpt lat="43.9470183" lon="8.0005643"><ele>108.0</ele><time>2026-05-03T16:37:02.27Z</time></trkpt><trkpt lat="43.9468496" lon="8.0004909"><ele>108.0</ele><time>2026-05-03T16:37:03.269Z</time></trkpt><trkpt lat="43.9466842" lon="8.0004247"><ele>107.5</ele><time>2026-05-03T16:37:04.269Z</time></trkpt><trkpt lat="43.9465316" lon="8.0003576"><ele>107.0</ele><time>2026-05-03T16:37:05.269Z</time></trkpt><trkpt lat="43.940859" lon="8.0026564"><ele>100.0</ele><time>2026-05-03T16:37:43.269Z</time></trkpt><trkpt lat="43.9407785" lon="8.0028098"><ele>93.0</ele><time>2026-05-03T16:37:44.269Z</time></trkpt><trkpt lat="43.9406595" lon="8.0029848"><ele>86.0</ele><time>2026-05-03T16:37:45.269Z</time></trkpt><trkpt lat="43.9405479" lon="8.0031335"><ele>86.0</ele><time>2026-05-03T16:37:46.269Z</time></trkpt><trkpt lat="43.9404556" lon="8.0032978"><ele>86.0</ele><time>2026-05-03T16:37:47.27Z</time></trkpt><trkpt lat="43.934797" lon="8.0139033"><ele>70.0</ele><time>2026-05-03T16:38:25.271Z</time></trkpt><trkpt lat="43.9346176" lon="8.0141958"><ele>54.0</ele><time>2026-05-03T16:38:26.271Z</time></trkpt><trkpt lat="43.9344481" lon="8.0145159"><ele>54.0</ele><time>2026-05-03T16:38:27.27Z</time></trkpt><trkpt lat="43.9342851" lon="8.0148182"><ele>54.0</ele><time>2026-05-03T16:38:28.27Z</time></trkpt><trkpt lat="43.9341198" lon="8.0151271"><ele>54.0</ele><time>2026-05-03T16:38:29.27Z</time></trkpt><trkpt lat="43.9339512" lon="8.0154236"><ele>54.0</ele><time>2026-05-03T16:38:30.27Z</time></trkpt><trkpt lat="43.9337791" lon="8.0157167"><ele>54.5</ele><time>2026-05-03T16:38:31.27Z</time></trkpt><trkpt lat="43.9336118" lon="8.0160052"><ele>55.0</ele><time>2026-05-03T16:38:32.27Z</time></trkpt><trkpt lat="43.9334445" lon="8.0162898"><ele>54.0</ele><time>2026-05-03T16:38:33.271Z</time></trkpt><trkpt lat="43.9332843" lon="8.0165672"><ele>53.0</ele><time>2026-05-03T16:38:34.27Z</time></trkpt><trkpt lat="43.933139" lon="8.0168394"><ele>53.0</ele><time>2026-05-03T16:38:35.271Z</time></trkpt><trkpt lat="43.9330064" lon="8.0171285"><ele>53.0</ele><time>2026-05-03T16:38:36.271Z</time></trkpt><trkpt lat="43.9328885" lon="8.0174361"><ele>57.5</ele><time>2026-05-03T16:38:37.27Z</time></trkpt><trkpt lat="43.9327873" lon="8.0177526"><ele>62.0</ele><time>2026-05-03T16:38:38.27Z</time></trkpt><trkpt lat="43.9327088" lon="8.0180973"><ele>66.0</ele><time>2026-05-03T16:38:39.27Z</time></trkpt><trkpt lat="43.9326555" lon="8.0184391"><ele>70.0</ele><time>2026-05-03T16:38:40.27Z</time></trkpt><trkpt lat="43.9326337" lon="8.0187672"><ele>70.0</ele><time>2026-05-03T16:38:41.271Z</time></trkpt><trkpt lat="43.9326306" lon="8.0190855"><ele>70.0</ele><time>2026-05-03T16:38:42.27Z</time></trkpt><trkpt lat="43.9326226" lon="8.0193656"><ele>70.0</ele><time>2026-05-03T16:38:43.27Z</time></trkpt><trkpt lat="43.9325969" lon="8.0196139"><ele>74.0</ele><time>2026-05-03T16:38:44.271Z</time></trkpt><trkpt lat="43.9325635" lon="8.0198582"><ele>78.0</ele><time>2026-05-03T16:38:45.271Z</time></trkpt><trkpt lat="43.9325088" lon="8.0200785"><ele>82.0</ele><time>2026-05-03T16:38:46.27Z</time></trkpt><trkpt lat="43.9324358" lon="8.0202758"><ele>77.33333333333333</ele><time>2026-05-03T16:38:47.27Z</time></trkpt><trkpt lat="43.9323384" lon="8.0204597"><ele>72.66666666666667</ele><time>2026-05-03T16:38:48.271Z</time></trkpt><trkpt lat="43.9322277" lon="8.0206462"><ele>68.0</ele><time>2026-05-03T16:38:49.271Z</time></trkpt><trkpt lat="43.9321079" lon="8.0208251"><ele>68.0</ele><time>2026-05-03T16:38:50.27Z</time></trkpt><trkpt lat="43.9319963" lon="8.0209843"><ele>68.0</ele><time>2026-05-03T16:38:51.27Z</time></trkpt><trkpt lat="43.9318861" lon="8.0211191"><ele>68.0</ele><time>2026-05-03T16:38:52.27Z</time></trkpt><trkpt lat="43.9317687" lon="8.0212316"><ele>68.0</ele><time>2026-05-03T16:38:53.27Z</time></trkpt><trkpt lat="43.931657" lon="8.0213139"><ele>64.75</ele><time>2026-05-03T16:38:54.27Z</time></trkpt><trkpt lat="43.9315475" lon="8.0213718"><ele>61.5</ele><time>2026-05-03T16:38:55.27Z</time></trkpt><trkpt lat="43.9314373" lon="8.021414"><ele>58.25</ele><time>2026-05-03T16:38:56.27Z</time></trkpt><trkpt lat="43.9313231" lon="8.0214259"><ele>55.0</ele><time>2026-05-03T16:38:57.271Z</time></trkpt><trkpt lat="43.9311991" lon="8.0214196"><ele>55.0</ele><time>2026-05-03T16:38:58.27Z</time></trkpt><trkpt lat="43.9310636" lon="8.0214044"><ele>55.0</ele><time>2026-05-03T16:38:59.271Z</time></trkpt><trkpt lat="43.930913" lon="8.0213647"><ele>55.0</ele><time>2026-05-03T16:39:00.271Z</time></trkpt><trkpt lat="43.9307418" lon="8.021307"><ele>54.666666666666664</ele><time>2026-05-03T16:39:01.27Z</time></trkpt><trkpt lat="43.9305613" lon="8.0212354"><ele>54.33333333333333</ele><time>2026-05-03T16:39:02.27Z</time></trkpt><trkpt lat="43.930371" lon="8.0211563"><ele>54.0</ele><time>2026-05-03T16:39:03.271Z</time></trkpt><trkpt lat="43.9301656" lon="8.021067"><ele>53.0</ele><time>2026-05-03T16:39:04.27Z</time></trkpt><trkpt lat="43.9299437" lon="8.0209762"><ele>52.0</ele><time>2026-05-03T16:39:05.27Z</time></trkpt><trkpt lat="43.9297203" lon="8.0208814"><ele>50.666666666666664</ele><time>2026-05-03T16:39:06.27Z</time></trkpt><trkpt lat="43.9295071" lon="8.0207935"><ele>49.33333333333333</ele><time>2026-05-03T16:39:07.27Z</time></trkpt><trkpt lat="43.92932" lon="8.0207178"><ele>48.0</ele><time>2026-05-03T16:39:08.27Z</time></trkpt><trkpt lat="43.9291562" lon="8.0206393"><ele>48.0</ele><time>2026-05-03T16:39:09.271Z</time></trkpt><trkpt lat="43.9290061" lon="8.0205637"><ele>48.0</ele><time>2026-05-03T16:39:10.27Z</time></trkpt><trkpt lat="43.9288649" lon="8.0204781"><ele>48.0</ele><time>2026-05-03T16:39:11.27Z</time></trkpt><trkpt lat="43.9287364" lon="8.0203901"><ele>48.0</ele><time>2026-05-03T16:39:12.271Z</time></trkpt><trkpt lat="43.9286204" lon="8.0202946"><ele>48.0</ele><time>2026-05-03T16:39:13.27Z</time></trkpt><trkpt lat="43.9285074" lon="8.0201911"><ele>48.0</ele><time>2026-05-03T16:39:14.27Z</time></trkpt><trkpt lat="43.9283803" lon="8.0200703"><ele>48.0</ele><time>2026-05-03T16:39:15.27Z</time></trkpt><trkpt lat="43.9282406" lon="8.0199361"><ele>47.0</ele><time>2026-05-03T16:39:16.27Z</time></trkpt><trkpt lat="43.9280929" lon="8.0197896"><ele>46.0</ele><time>2026-05-03T16:39:17.27Z</time></trkpt><trkpt lat="43.9279327" lon="8.0196553"><ele>45.0</ele><time>2026-05-03T16:39:18.27Z</time></trkpt><trkpt lat="43.927749" lon="8.0195777"><ele>45.666666666666664</ele><time>2026-05-03T16:39:19.27Z</time></trkpt><trkpt lat="43.9275538" lon="8.0195355"><ele>46.33333333333333</ele><time>2026-05-03T16:39:20.271Z</time></trkpt><trkpt lat="43.9273451" lon="8.0195555"><ele>47.0</ele><time>2026-05-03T16:39:21.271Z</time></trkpt><trkpt lat="43.9271474" lon="8.0196107"><ele>47.0</ele><time>2026-05-03T16:39:22.27Z</time></trkpt><trkpt lat="43.9269641" lon="8.0197168"><ele>47.0</ele><time>2026-05-03T16:39:23.27Z</time></trkpt><trkpt lat="43.9268143" lon="8.0198787"><ele>47.0</ele><time>2026-05-03T16:39:24.27Z</time></trkpt><trkpt lat="43.9266799" lon="8.0200562"><ele>47.5</ele><time>2026-05-03T16:39:25.27Z</time></trkpt><trkpt lat="43.9265707" lon="8.0202282"><ele>48.0</ele><time>2026-05-03T16:39:26.27Z</time></trkpt><trkpt lat="43.9264808" lon="8.0203948"><ele>48.5</ele><time>2026-05-03T16:39:27.271Z</time></trkpt><trkpt lat="43.9264003" lon="8.0205418"><ele>49.0</ele><time>2026-05-03T16:39:28.271Z</time></trkpt><trkpt lat="43.9263382" lon="8.0206601"><ele>49.0</ele><time>2026-05-03T16:39:29.27Z</time></trkpt><trkpt lat="43.9262707" lon="8.0207677"><ele>49.0</ele><time>2026-05-03T16:39:30.27Z</time></trkpt><trkpt lat="43.9262067" lon="8.0208761"><ele>49.0</ele><time>2026-05-03T16:39:31.27Z</time></trkpt><trkpt lat="43.9261324" lon="8.0209938"><ele>49.0</ele><time>2026-05-03T16:39:32.271Z</time></trkpt><trkpt lat="43.926049" lon="8.021113"><ele>49.0</ele><time>2026-05-03T16:39:33.27Z</time></trkpt><trkpt lat="43.9259503" lon="8.0212496"><ele>49.25</ele><time>2026-05-03T16:39:34.27Z</time></trkpt><trkpt lat="43.9258461" lon="8.0213858"><ele>49.5</ele><time>2026-05-03T16:39:35.27Z</time></trkpt><trkpt lat="43.9257471" lon="8.0215165"><ele>49.75</ele><time>2026-05-03T16:39:36.27Z</time></trkpt><trkpt lat="43.9256562" lon="8.0216475"><ele>50.0</ele><time>2026-05-03T16:39:37.27Z</time></trkpt><trkpt lat="43.9255531" lon="8.0217825"><ele>50.0</ele><time>2026-05-03T16:39:38.27Z</time></trkpt><trkpt lat="43.9254463" lon="8.0219165"><ele>50.0</ele><time>2026-05-03T16:39:39.27Z</time></trkpt><trkpt lat="43.9253494" lon="8.0220443"><ele>50.0</ele><time>2026-05-03T16:39:40.27Z</time></trkpt><trkpt lat="43.9252575" lon="8.0221661"><ele>50.0</ele><time>2026-05-03T16:39:41.27Z</time></trkpt><trkpt lat="43.9251672" lon="8.0222846"><ele>50.0</ele><time>2026-05-03T16:39:42.27Z</time></trkpt><trkpt lat="43.9250821" lon="8.0223998"><ele>50.0</ele><time>2026-05-03T16:39:43.271Z</time></trkpt><trkpt lat="43.9249957" lon="8.0225207"><ele>50.0</ele><time>2026-05-03T16:39:44.27Z</time></trkpt><trkpt lat="43.9248954" lon="8.0226484"><ele>50.0</ele><time>2026-05-03T16:39:45.27Z</time></trkpt><trkpt lat="43.9247858" lon="8.0227887"><ele>49.0</ele><time>2026-05-03T16:39:46.271Z</time></trkpt><trkpt lat="43.9246575" lon="8.0229496"><ele>48.0</ele><time>2026-05-03T16:39:47.271Z</time></trkpt><trkpt lat="43.9245095" lon="8.0231238"><ele>47.0</ele><time>2026-05-03T16:39:48.27Z</time></trkpt><trkpt lat="43.92435" lon="8.02329"><ele>45.666666666666664</ele><time>2026-05-03T16:39:49.27Z</time></trkpt><trkpt lat="43.9241986" lon="8.0234313"><ele>44.333333333333336</ele><time>2026-05-03T16:39:50.27Z</time></trkpt><trkpt lat="43.9240526" lon="8.0235653"><ele>43.0</ele><time>2026-05-03T16:39:51.27Z</time></trkpt><trkpt lat="43.9239303" lon="8.0237009"><ele>43.0</ele><time>2026-05-03T16:39:52.27Z</time></trkpt><trkpt lat="43.9238229" lon="8.0238293"><ele>43.0</ele><time>2026-05-03T16:39:53.271Z</time></trkpt><trkpt lat="43.9237253" lon="8.0239509"><ele>43.0</ele><time>2026-05-03T16:39:54.27Z</time></trkpt><trkpt lat="43.9236332" lon="8.0240611"><ele>43.0</ele><time>2026-05-03T16:39:55.271Z</time></trkpt><trkpt lat="43.9235532" lon="8.0241756"><ele>43.25</ele><time>2026-05-03T16:39:56.27Z</time></trkpt><trkpt lat="43.9234629" lon="8.024293"><ele>43.5</ele><time>2026-05-03T16:39:57.271Z</time></trkpt><trkpt lat="43.9233706" lon="8.0244013"><ele>43.75</ele><time>2026-05-03T16:39:58.271Z</time></trkpt><trkpt lat="43.9232915" lon="8.0245071"><ele>44.0</ele><time>2026-05-03T16:39:59.27Z</time></trkpt><trkpt lat="43.923215" lon="8.0246028"><ele>44.0</ele><time>2026-05-03T16:40:00.27Z</time></trkpt><trkpt lat="43.9231368" lon="8.0246989"><ele>44.0</ele><time>2026-05-03T16:40:01.27Z</time></trkpt><trkpt lat="43.9230388" lon="8.0247896"><ele>44.0</ele><time>2026-05-03T16:40:02.271Z</time></trkpt><trkpt lat="43.9229185" lon="8.0248723"><ele>44.0</ele><time>2026-05-03T16:40:03.27Z</time></trkpt><trkpt lat="43.9227887" lon="8.0249326"><ele>44.0</ele><time>2026-05-03T16:40:04.27Z</time></trkpt><trkpt lat="43.9226697" lon="8.0249671"><ele>44.0</ele><time>2026-05-03T16:40:05.271Z</time></trkpt><trkpt lat="43.9225372" lon="8.0249962"><ele>44.0</ele><time>2026-05-03T16:40:06.27Z</time></trkpt><trkpt lat="43.9223739" lon="8.0250264"><ele>44.0</ele><time>2026-05-03T16:40:07.27Z</time></trkpt><trkpt lat="43.9221812" lon="8.0250421"><ele>44.33333333333333</ele><time>2026-05-03T16:40:08.271Z</time></trkpt><trkpt lat="43.9219741" lon="8.0250477"><ele>44.666666666666664</ele><time>2026-05-03T16:40:09.27Z</time></trkpt><trkpt lat="43.9217617" lon="8.0250592"><ele>45.0</ele><time>2026-05-03T16:40:10.27Z</time></trkpt><trkpt lat="43.9215532" lon="8.025081"><ele>45.0</ele><time>2026-05-03T16:40:11.271Z</time></trkpt><trkpt lat="43.921351" lon="8.0251037"><ele>45.0</ele><time>2026-05-03T16:40:12.27Z</time></trkpt><trkpt lat="43.9211554" lon="8.0251213"><ele>45.0</ele><time>2026-05-03T16:40:13.27Z</time></trkpt><trkpt lat="43.9209657" lon="8.0251457"><ele>45.0</ele><time>2026-05-03T16:40:14.271Z</time></trkpt><trkpt lat="43.9207786" lon="8.0251674"><ele>45.0</ele><time>2026-05-03T16:40:15.271Z</time></trkpt><trkpt lat="43.9206" lon="8.025188"><ele>45.0</ele><time>2026-05-03T16:40:16.27Z</time></trkpt><trkpt lat="43.920426" lon="8.0252078"><ele>45.0</ele><time>2026-05-03T16:40:17.27Z</time></trkpt><trkpt lat="43.9202603" lon="8.0252314"><ele>45.0</ele><time>2026-05-03T16:40:18.271Z</time></trkpt><trkpt lat="43.920105" lon="8.0252568"><ele>45.0</ele><time>2026-05-03T16:40:19.271Z</time></trkpt><trkpt lat="43.9199562" lon="8.0252795"><ele>44.75</ele><time>2026-05-03T16:40:20.27Z</time></trkpt><trkpt lat="43.9198163" lon="8.0253033"><ele>44.5</ele><time>2026-05-03T16:40:21.271Z</time></trkpt><trkpt lat="43.9196786" lon="8.0253265"><ele>44.25</ele><time>2026-05-03T16:40:22.27Z</time></trkpt><trkpt lat="43.9195439" lon="8.0253535"><ele>44.0</ele><time>2026-05-03T16:40:23.27Z</time></trkpt><trkpt lat="43.9194039" lon="8.0253829"><ele>44.0</ele><time>2026-05-03T16:40:24.271Z</time></trkpt><trkpt lat="43.9192591" lon="8.0254155"><ele>44.0</ele><time>2026-05-03T16:40:25.271Z</time></trkpt><trkpt lat="43.919118" lon="8.0254521"><ele>44.0</ele><time>2026-05-03T16:40:26.27Z</time></trkpt><trkpt lat="43.9189857" lon="8.0254887"><ele>44.0</ele><time>2026-05-03T16:40:27.27Z</time></trkpt><trkpt lat="43.9188567" lon="8.025524"><ele>42.25</ele><time>2026-05-03T16:40:28.27Z</time></trkpt><trkpt lat="43.9187243" lon="8.0255579"><ele>40.5</ele><time>2026-05-03T16:40:29.27Z</time></trkpt><trkpt lat="43.9185896" lon="8.0255984"><ele>38.75</ele><time>2026-05-03T16:40:30.271Z</time></trkpt><trkpt lat="43.9184576" lon="8.0256462"><ele>37.0</ele><time>2026-05-03T16:40:31.27Z</time></trkpt><trkpt lat="43.9183345" lon="8.0256958"><ele>37.75</ele><time>2026-05-03T16:40:32.27Z</time></trkpt><trkpt lat="43.918218" lon="8.0257545"><ele>38.5</ele><time>2026-05-03T16:40:33.271Z</time></trkpt><trkpt lat="43.9181025" lon="8.0258165"><ele>39.25</ele><time>2026-05-03T16:40:34.271Z</time></trkpt><trkpt lat="43.9179828" lon="8.0258843"><ele>40.0</ele><time>2026-05-03T16:40:35.27Z</time></trkpt><trkpt lat="43.9178636" lon="8.0259486"><ele>40.0</ele><time>2026-05-03T16:40:36.27Z</time></trkpt><trkpt lat="43.9177445" lon="8.0259996"><ele>40.0</ele><time>2026-05-03T16:40:37.27Z</time></trkpt><trkpt lat="43.9176249" lon="8.0260396"><ele>40.0</ele><time>2026-05-03T16:40:38.27Z</time></trkpt><trkpt lat="43.917496" lon="8.0260611"><ele>40.0</ele><time>2026-05-03T16:40:39.27Z</time></trkpt><trkpt lat="43.9173673" lon="8.0260685"><ele>39.75</ele><time>2026-05-03T16:40:40.27Z</time></trkpt><trkpt lat="43.9172387" lon="8.0260523"><ele>39.5</ele><time>2026-05-03T16:40:41.271Z</time></trkpt><trkpt lat="43.9171172" lon="8.0260249"><ele>39.25</ele><time>2026-05-03T16:40:42.27Z</time></trkpt><trkpt lat="43.9169938" lon="8.0259873"><ele>39.0</ele><time>2026-05-03T16:40:43.27Z</time></trkpt><trkpt lat="43.9168681" lon="8.0259335"><ele>39.0</ele><time>2026-05-03T16:40:44.27Z</time></trkpt><trkpt lat="43.9167419" lon="8.0258814"><ele>39.0</ele><time>2026-05-03T16:40:45.271Z</time></trkpt><trkpt lat="43.9166207" lon="8.02583"><ele>39.0</ele><time>2026-05-03T16:40:46.271Z</time></trkpt><trkpt lat="43.9165033" lon="8.0257864"><ele>39.0</ele><time>2026-05-03T16:40:47.27Z</time></trkpt><trkpt lat="43.9163964" lon="8.025761"><ele>39.0</ele><time>2026-05-03T16:40:48.27Z</time></trkpt><trkpt lat="43.9162903" lon="8.0257549"><ele>39.0</ele><time>2026-05-03T16:40:49.27Z</time></trkpt><trkpt lat="43.9161761" lon="8.0257641"><ele>39.0</ele><time>2026-05-03T16:40:50.271Z</time></trkpt><trkpt lat="43.9160682" lon="8.0258021"><ele>39.0</ele><time>2026-05-03T16:40:51.271Z</time></trkpt><trkpt lat="43.9159668" lon="8.0258776"><ele>39.0</ele><time>2026-05-03T16:40:52.27Z</time></trkpt><trkpt lat="43.9158738" lon="8.025972"><ele>38.0</ele><time>2026-05-03T16:40:53.271Z</time></trkpt><trkpt lat="43.9157793" lon="8.026075"><ele>37.0</ele><time>2026-05-03T16:40:54.271Z</time></trkpt><trkpt lat="43.9156699" lon="8.0261595"><ele>36.0</ele><time>2026-05-03T16:40:55.27Z</time></trkpt><trkpt lat="43.9155458" lon="8.0262259"><ele>35.0</ele><time>2026-05-03T16:40:56.27Z</time></trkpt><trkpt lat="43.9154143" lon="8.0262785"><ele>35.0</ele><time>2026-05-03T16:40:57.271Z</time></trkpt><trkpt lat="43.9152858" lon="8.0263419"><ele>35.0</ele><time>2026-05-03T16:40:58.27Z</time></trkpt><trkpt lat="43.9151591" lon="8.0264292"><ele>35.0</ele><time>2026-05-03T16:40:59.27Z</time></trkpt><trkpt lat="43.9150158" lon="8.0265526"><ele>35.0</ele><time>2026-05-03T16:41:00.27Z</time></trkpt><trkpt lat="43.9148565" lon="8.0266858"><ele>37.666666666666664</ele><time>2026-05-03T16:41:01.27Z</time></trkpt><trkpt lat="43.9147046" lon="8.0268017"><ele>40.333333333333336</ele><time>2026-05-03T16:41:02.27Z</time></trkpt><trkpt lat="43.9145648" lon="8.0269033"><ele>43.0</ele><time>2026-05-03T16:41:03.27Z</time></trkpt><trkpt lat="43.9144422" lon="8.0269908"><ele>43.0</ele><time>2026-05-03T16:41:04.271Z</time></trkpt><trkpt lat="43.9143282" lon="8.0270811"><ele>43.0</ele><time>2026-05-03T16:41:05.27Z</time></trkpt><trkpt lat="43.9142357" lon="8.0271559"><ele>43.0</ele><time>2026-05-03T16:41:06.27Z</time></trkpt><trkpt lat="43.9141433" lon="8.0271763"><ele>43.0</ele><time>2026-05-03T16:41:07.27Z</time></trkpt><trkpt lat="43.9140537" lon="8.0271597"><ele>43.0</ele><time>2026-05-03T16:41:08.271Z</time></trkpt><trkpt lat="43.9139782" lon="8.027096"><ele>42.0</ele><time>2026-05-03T16:41:09.271Z</time></trkpt><trkpt lat="43.9139133" lon="8.0270218"><ele>41.0</ele><time>2026-05-03T16:41:10.271Z</time></trkpt><trkpt lat="43.913851" lon="8.0269415"><ele>40.0</ele><time>2026-05-03T16:41:11.27Z</time></trkpt><trkpt lat="43.9137878" lon="8.0268645"><ele>39.0</ele><time>2026-05-03T16:41:12.27Z</time></trkpt><trkpt lat="43.9137161" lon="8.0268069"><ele>38.0</ele><time>2026-05-03T16:41:13.271Z</time></trkpt><trkpt lat="43.9136317" lon="8.0267744"><ele>37.0</ele><time>2026-05-03T16:41:14.27Z</time></trkpt><trkpt lat="43.9135277" lon="8.0267533"><ele>37.0</ele><time>2026-05-03T16:41:15.271Z</time></trkpt><trkpt lat="43.9134225" lon="8.0267416"><ele>37.0</ele><time>2026-05-03T16:41:16.27Z</time></trkpt><trkpt lat="43.9133152" lon="8.0267416"><ele>37.0</ele><time>2026-05-03T16:41:17.27Z</time></trkpt><trkpt lat="43.9132034" lon="8.0267604"><ele>37.0</ele><time>2026-05-03T16:41:18.271Z</time></trkpt><trkpt lat="43.9130856" lon="8.0268075"><ele>37.0</ele><time>2026-05-03T16:41:19.27Z</time></trkpt><trkpt lat="43.9129662" lon="8.0268535"><ele>36.5</ele><time>2026-05-03T16:41:20.27Z</time></trkpt><trkpt lat="43.9128525" lon="8.026916"><ele>36.0</ele><time>2026-05-03T16:41:21.27Z</time></trkpt><trkpt lat="43.912734" lon="8.0269773"><ele>35.5</ele><time>2026-05-03T16:41:22.273Z</time></trkpt><trkpt lat="43.9126099" lon="8.0270343"><ele>35.0</ele><time>2026-05-03T16:41:23.273Z</time></trkpt><trkpt lat="43.9124946" lon="8.0270817"><ele>34.0</ele><time>2026-05-03T16:41:24.273Z</time></trkpt><trkpt lat="43.9123836" lon="8.0271231"><ele>33.0</ele><time>2026-05-03T16:41:25.273Z</time></trkpt><trkpt lat="43.912271" lon="8.0271667"><ele>32.0</ele><time>2026-05-03T16:41:26.273Z</time></trkpt><trkpt lat="43.9121636" lon="8.0272263"><ele>31.0</ele><time>2026-05-03T16:41:27.273Z</time></trkpt><trkpt lat="43.912064" lon="8.027309"><ele>31.0</ele><time>2026-05-03T16:41:28.273Z</time></trkpt><trkpt lat="43.9119694" lon="8.0274054"><ele>31.0</ele><time>2026-05-03T16:41:29.273Z</time></trkpt><trkpt lat="43.9118739" lon="8.0274967"><ele>31.0</ele><time>2026-05-03T16:41:30.273Z</time></trkpt><trkpt lat="43.911763" lon="8.0275611"><ele>31.0</ele><time>2026-05-03T16:41:31.273Z</time></trkpt><trkpt lat="43.9116533" lon="8.0276047"><ele>33.25</ele><time>2026-05-03T16:41:32.273Z</time></trkpt><trkpt lat="43.9115334" lon="8.0276223"><ele>35.5</ele><time>2026-05-03T16:41:33.273Z</time></trkpt><trkpt lat="43.9114152" lon="8.0276363"><ele>37.75</ele><time>2026-05-03T16:41:34.274Z</time></trkpt><trkpt lat="43.9112947" lon="8.0276502"><ele>40.0</ele><time>2026-05-03T16:41:35.273Z</time></trkpt><trkpt lat="43.9111754" lon="8.027658"><ele>40.0</ele><time>2026-05-03T16:41:36.273Z</time></trkpt><trkpt lat="43.9110566" lon="8.0276717"><ele>40.0</ele><time>2026-05-03T16:41:37.273Z</time></trkpt><trkpt lat="43.910939" lon="8.0276874"><ele>40.0</ele><time>2026-05-03T16:41:38.273Z</time></trkpt><trkpt lat="43.9108258" lon="8.0276963"><ele>40.0</ele><time>2026-05-03T16:41:39.274Z</time></trkpt><trkpt lat="43.9107056" lon="8.0276887"><ele>38.75</ele><time>2026-05-03T16:41:40.273Z</time></trkpt><trkpt lat="43.9105823" lon="8.0276664"><ele>37.5</ele><time>2026-05-03T16:41:41.273Z</time></trkpt><trkpt lat="43.9104584" lon="8.0276329"><ele>36.25</ele><time>2026-05-03T16:41:42.273Z</time></trkpt><trkpt lat="43.9103372" lon="8.0275902"><ele>35.0</ele><time>2026-05-03T16:41:43.273Z</time></trkpt><trkpt lat="43.9102152" lon="8.0275464"><ele>35.0</ele><time>2026-05-03T16:41:44.273Z</time></trkpt><trkpt lat="43.9100997" lon="8.0275036"><ele>35.0</ele><time>2026-05-03T16:41:45.274Z</time></trkpt><trkpt lat="43.9099866" lon="8.0274536"><ele>35.0</ele><time>2026-05-03T16:41:46.273Z</time></trkpt><trkpt lat="43.9098828" lon="8.0273861"><ele>35.0</ele><time>2026-05-03T16:41:47.273Z</time></trkpt><trkpt lat="43.9097908" lon="8.0272861"><ele>33.0</ele><time>2026-05-03T16:41:48.274Z</time></trkpt><trkpt lat="43.9097075" lon="8.0271646"><ele>31.0</ele><time>2026-05-03T16:41:49.274Z</time></trkpt><trkpt lat="43.9096317" lon="8.0270446"><ele>29.0</ele><time>2026-05-03T16:41:50.274Z</time></trkpt><trkpt lat="43.9095565" lon="8.026947"><ele>27.0</ele><time>2026-05-03T16:41:51.274Z</time></trkpt><trkpt lat="43.9094644" lon="8.0268875"><ele>25.0</ele><time>2026-05-03T16:41:52.274Z</time></trkpt><trkpt lat="43.9093605" lon="8.0268615"><ele>27.5</ele><time>2026-05-03T16:41:53.274Z</time></trkpt><trkpt lat="43.9092296" lon="8.0268518"><ele>30.0</ele><time>2026-05-03T16:41:54.273Z</time></trkpt><trkpt lat="43.9091008" lon="8.0268398"><ele>32.5</ele><time>2026-05-03T16:41:55.274Z</time></trkpt><trkpt lat="43.9089701" lon="8.0268276"><ele>35.0</ele><time>2026-05-03T16:41:56.273Z</time></trkpt><trkpt lat="43.9088403" lon="8.026813"><ele>35.0</ele><time>2026-05-03T16:41:57.273Z</time></trkpt><trkpt lat="43.9087097" lon="8.026795"><ele>35.0</ele><time>2026-05-03T16:41:58.273Z</time></trkpt><trkpt lat="43.9085808" lon="8.0267607"><ele>35.0</ele><time>2026-05-03T16:41:59.273Z</time></trkpt><trkpt lat="43.908455" lon="8.026726"><ele>35.0</ele><time>2026-05-03T16:42:00.273Z</time></trkpt><trkpt lat="43.9083256" lon="8.0266873"><ele>35.75</ele><time>2026-05-03T16:42:01.273Z</time></trkpt><trkpt lat="43.9081937" lon="8.0266448"><ele>36.5</ele><time>2026-05-03T16:42:02.273Z</time></trkpt><trkpt lat="43.9080595" lon="8.026605"><ele>37.25</ele><time>2026-05-03T16:42:03.273Z</time></trkpt><trkpt lat="43.9079259" lon="8.0265775"><ele>38.0</ele><time>2026-05-03T16:42:04.273Z</time></trkpt><trkpt lat="43.9077898" lon="8.0265686"><ele>37.25</ele><time>2026-05-03T16:42:05.273Z</time></trkpt><trkpt lat="43.9076519" lon="8.0265847"><ele>36.5</ele><time>2026-05-03T16:42:06.273Z</time></trkpt><trkpt lat="43.9075172" lon="8.0266146"><ele>35.75</ele><time>2026-05-03T16:42:07.273Z</time></trkpt><trkpt lat="43.9073878" lon="8.02665"><ele>35.0</ele><time>2026-05-03T16:42:08.273Z</time></trkpt><trkpt lat="43.9072607" lon="8.0266959"><ele>35.0</ele><time>2026-05-03T16:42:09.273Z</time></trkpt><trkpt lat="43.907136" lon="8.026751"><ele>35.0</ele><time>2026-05-03T16:42:10.273Z</time></trkpt><trkpt lat="43.9070143" lon="8.0268147"><ele>35.0</ele><time>2026-05-03T16:42:11.273Z</time></trkpt><trkpt lat="43.9068905" lon="8.0268815"><ele>35.0</ele><time>2026-05-03T16:42:12.274Z</time></trkpt><trkpt lat="43.9067726" lon="8.0269426"><ele>33.0</ele><time>2026-05-03T16:42:13.273Z</time></trkpt><trkpt lat="43.9066577" lon="8.0270027"><ele>31.0</ele><time>2026-05-03T16:42:14.274Z</time></trkpt><trkpt lat="43.9065413" lon="8.0270557"><ele>29.0</ele><time>2026-05-03T16:42:15.274Z</time></trkpt><trkpt lat="43.9064267" lon="8.0270934"><ele>27.0</ele><time>2026-05-03T16:42:16.274Z</time></trkpt><trkpt lat="43.9063098" lon="8.0271058"><ele>27.0</ele><time>2026-05-03T16:42:17.273Z</time></trkpt><trkpt lat="43.9061917" lon="8.0270922"><ele>27.0</ele><time>2026-05-03T16:42:18.273Z</time></trkpt><trkpt lat="43.9060784" lon="8.0270653"><ele>27.0</ele><time>2026-05-03T16:42:19.273Z</time></trkpt><trkpt lat="43.9059652" lon="8.0270449"><ele>27.0</ele><time>2026-05-03T16:42:20.274Z</time></trkpt><trkpt lat="43.9058528" lon="8.0270374"><ele>26.5</ele><time>2026-05-03T16:42:21.273Z</time></trkpt><trkpt lat="43.9057332" lon="8.0270576"><ele>26.0</ele><time>2026-05-03T16:42:22.274Z</time></trkpt><trkpt lat="43.9056096" lon="8.0270942"><ele>25.5</ele><time>2026-05-03T16:42:23.274Z</time></trkpt><trkpt lat="43.9054813" lon="8.0271369"><ele>25.0</ele><time>2026-05-03T16:42:24.273Z</time></trkpt><trkpt lat="43.9053502" lon="8.0271753"><ele>25.0</ele><time>2026-05-03T16:42:25.274Z</time></trkpt><trkpt lat="43.9052239" lon="8.0272053"><ele>25.0</ele><time>2026-05-03T16:42:26.273Z</time></trkpt><trkpt lat="43.9051072" lon="8.0272194"><ele>25.0</ele><time>2026-05-03T16:42:27.273Z</time></trkpt><trkpt lat="43.9049979" lon="8.0272291"><ele>25.0</ele><time>2026-05-03T16:42:28.273Z</time></trkpt><trkpt lat="43.9048923" lon="8.027242"><ele>24.25</ele><time>2026-05-03T16:42:29.274Z</time></trkpt><trkpt lat="43.9047803" lon="8.0272535"><ele>23.5</ele><time>2026-05-03T16:42:30.273Z</time></trkpt><trkpt lat="43.9046582" lon="8.0272614"><ele>22.75</ele><time>2026-05-03T16:42:31.274Z</time></trkpt><trkpt lat="43.904526" lon="8.0272545"><ele>22.0</ele><time>2026-05-03T16:42:32.274Z</time></trkpt><trkpt lat="43.9043738" lon="8.0272323"><ele>20.666666666666664</ele><time>2026-05-03T16:42:33.273Z</time></trkpt><trkpt lat="43.9042038" lon="8.0272033"><ele>19.333333333333332</ele><time>2026-05-03T16:42:34.273Z</time></trkpt><trkpt lat="43.9040377" lon="8.0271984"><ele>18.0</ele><time>2026-05-03T16:42:35.273Z</time></trkpt><trkpt lat="43.9038853" lon="8.0272102"><ele>18.0</ele><time>2026-05-03T16:42:36.273Z</time></trkpt><trkpt lat="43.9037442" lon="8.0272228"><ele>18.0</ele><time>2026-05-03T16:42:37.274Z</time></trkpt><trkpt lat="43.9036172" lon="8.0272378"><ele>18.0</ele><time>2026-05-03T16:42:38.274Z</time></trkpt><trkpt lat="43.9035046" lon="8.0272582"><ele>18.0</ele><time>2026-05-03T16:42:39.274Z</time></trkpt><trkpt lat="43.9033928" lon="8.0272933"><ele>17.8</ele><time>2026-05-03T16:42:40.274Z</time></trkpt><trkpt lat="43.9032998" lon="8.0273417"><ele>17.6</ele><time>2026-05-03T16:42:41.274Z</time></trkpt><trkpt lat="43.9032265" lon="8.0274185"><ele>17.4</ele><time>2026-05-03T16:42:42.274Z</time></trkpt><trkpt lat="43.9031865" lon="8.0275254"><ele>17.2</ele><time>2026-05-03T16:42:43.273Z</time></trkpt><trkpt lat="43.9031567" lon="8.0276435"><ele>17.0</ele><time>2026-05-03T16:42:44.274Z</time></trkpt><trkpt lat="43.903119" lon="8.0277533"><ele>21.0</ele><time>2026-05-03T16:42:45.273Z</time></trkpt><trkpt lat="43.9030751" lon="8.0278647"><ele>25.0</ele><time>2026-05-03T16:42:46.273Z</time></trkpt><trkpt lat="43.9030334" lon="8.0279898"><ele>29.000000000000004</ele><time>2026-05-03T16:42:47.273Z</time></trkpt><trkpt lat="43.9029891" lon="8.0281285"><ele>33.0</ele><time>2026-05-03T16:42:48.273Z</time></trkpt><trkpt lat="43.9029453" lon="8.0282687"><ele>37.0</ele><time>2026-05-03T16:42:49.273Z</time></trkpt><trkpt lat="43.9028956" lon="8.0284068"><ele>40.2</ele><time>2026-05-03T16:42:50.273Z</time></trkpt><trkpt lat="43.9028578" lon="8.0285457"><ele>43.400000000000006</ele><time>2026-05-03T16:42:51.273Z</time></trkpt><trkpt lat="43.9028284" lon="8.028678"><ele>46.599999999999994</ele><time>2026-05-03T16:42:52.273Z</time></trkpt><trkpt lat="43.9028022" lon="8.0288121"><ele>49.8</ele><time>2026-05-03T16:42:53.274Z</time></trkpt><trkpt lat="43.902784" lon="8.0289479"><ele>53.0</ele><time>2026-05-03T16:42:54.273Z</time></trkpt><trkpt lat="43.9027705" lon="8.0290871"><ele>54.4</ele><time>2026-05-03T16:42:55.274Z</time></trkpt><trkpt lat="43.9027568" lon="8.0292197"><ele>55.8</ele><time>2026-05-03T16:42:56.273Z</time></trkpt><trkpt lat="43.9027406" lon="8.0293524"><ele>57.2</ele><time>2026-05-03T16:42:57.274Z</time></trkpt><trkpt lat="43.9027232" lon="8.0294687"><ele>58.6</ele><time>2026-05-03T16:42:58.273Z</time></trkpt><trkpt lat="43.9026999" lon="8.029597"><ele>60.0</ele><time>2026-05-03T16:42:59.273Z</time></trkpt><trkpt lat="43.902683" lon="8.0297152"><ele>60.0</ele><time>2026-05-03T16:43:00.274Z</time></trkpt><trkpt lat="43.9026682" lon="8.0298273"><ele>60.0</ele><time>2026-05-03T16:43:01.274Z</time></trkpt><trkpt lat="43.9026571" lon="8.0299415"><ele>60.0</ele><time>2026-05-03T16:43:02.273Z</time></trkpt><trkpt lat="43.9026438" lon="8.0300575"><ele>60.0</ele><time>2026-05-03T16:43:03.273Z</time></trkpt><trkpt lat="43.9026295" lon="8.0301735"><ele>60.0</ele><time>2026-05-03T16:43:04.274Z</time></trkpt><trkpt lat="43.9026228" lon="8.030295"><ele>60.0</ele><time>2026-05-03T16:43:05.273Z</time></trkpt><trkpt lat="43.9026192" lon="8.0304242"><ele>59.0</ele><time>2026-05-03T16:43:06.274Z</time></trkpt><trkpt lat="43.9026165" lon="8.0305478"><ele>58.0</ele><time>2026-05-03T16:43:07.273Z</time></trkpt><trkpt lat="43.90262" lon="8.0306891"><ele>57.0</ele><time>2026-05-03T16:43:08.273Z</time></trkpt><trkpt lat="43.9026137" lon="8.0308473"><ele>56.0</ele><time>2026-05-03T16:43:09.274Z</time></trkpt><trkpt lat="43.9025995" lon="8.0310282"><ele>55.0</ele><time>2026-05-03T16:43:10.273Z</time></trkpt><trkpt lat="43.9025766" lon="8.0312044"><ele>48.0</ele><time>2026-05-03T16:43:11.273Z</time></trkpt><trkpt lat="43.9025418" lon="8.0313723"><ele>41.0</ele><time>2026-05-03T16:43:12.273Z</time></trkpt><trkpt lat="43.9024939" lon="8.0315186"><ele>34.0</ele><time>2026-05-03T16:43:13.273Z</time></trkpt><trkpt lat="43.9024282" lon="8.0316455"><ele>27.0</ele><time>2026-05-03T16:43:14.273Z</time></trkpt><trkpt lat="43.9023517" lon="8.0317605"><ele>27.0</ele><time>2026-05-03T16:43:15.274Z</time></trkpt><trkpt lat="43.9022615" lon="8.0318592"><ele>27.0</ele><time>2026-05-03T16:43:16.273Z</time></trkpt><trkpt lat="43.9021681" lon="8.0319533"><ele>27.0</ele><time>2026-05-03T16:43:17.273Z</time></trkpt><trkpt lat="43.90207" lon="8.0320416"><ele>27.0</ele><time>2026-05-03T16:43:18.273Z</time></trkpt><trkpt lat="43.9019741" lon="8.0321255"><ele>27.0</ele><time>2026-05-03T16:43:19.273Z</time></trkpt><trkpt lat="43.9018862" lon="8.0322105"><ele>27.000000000000004</ele><time>2026-05-03T16:43:20.273Z</time></trkpt><trkpt lat="43.9018043" lon="8.032293"><ele>27.000000000000004</ele><time>2026-05-03T16:43:21.273Z</time></trkpt><trkpt lat="43.901738" lon="8.0323819"><ele>27.0</ele><time>2026-05-03T16:43:22.273Z</time></trkpt><trkpt lat="43.9016747" lon="8.0324898"><ele>27.0</ele><time>2026-05-03T16:43:23.274Z</time></trkpt><trkpt lat="43.9016222" lon="8.032597"><ele>26.6</ele><time>2026-05-03T16:43:24.274Z</time></trkpt><trkpt lat="43.9015759" lon="8.0327112"><ele>26.200000000000003</ele><time>2026-05-03T16:43:25.273Z</time></trkpt><trkpt lat="43.9015227" lon="8.0328315"><ele>25.8</ele><time>2026-05-03T16:43:26.273Z</time></trkpt><trkpt lat="43.9014698" lon="8.032964"><ele>25.4</ele><time>2026-05-03T16:43:27.273Z</time></trkpt><trkpt lat="43.9014115" lon="8.0331038"><ele>25.0</ele><time>2026-05-03T16:43:28.273Z</time></trkpt><trkpt lat="43.9013465" lon="8.0332364"><ele>27.5</ele><time>2026-05-03T16:43:29.273Z</time></trkpt><trkpt lat="43.9012712" lon="8.033352"><ele>30.0</ele><time>2026-05-03T16:43:30.274Z</time></trkpt><trkpt lat="43.9011872" lon="8.0334496"><ele>32.5</ele><time>2026-05-03T16:43:31.273Z</time></trkpt><trkpt lat="43.9010988" lon="8.0335511"><ele>35.0</ele><time>2026-05-03T16:43:32.273Z</time></trkpt><trkpt lat="43.9010053" lon="8.0336414"><ele>35.0</ele><time>2026-05-03T16:43:33.273Z</time></trkpt><trkpt lat="43.9009285" lon="8.0337515"><ele>35.0</ele><time>2026-05-03T16:43:34.273Z</time></trkpt><trkpt lat="43.9008519" lon="8.0338506"><ele>35.0</ele><time>2026-05-03T16:43:35.274Z</time></trkpt><trkpt lat="43.900765" lon="8.0339454"><ele>35.0</ele><time>2026-05-03T16:43:36.274Z</time></trkpt><trkpt lat="43.9006722" lon="8.0340395"><ele>35.0</ele><time>2026-05-03T16:43:37.274Z</time></trkpt><trkpt lat="43.9005765" lon="8.0341326"><ele>34.0</ele><time>2026-05-03T16:43:38.273Z</time></trkpt><trkpt lat="43.9004968" lon="8.0342321"><ele>33.0</ele><time>2026-05-03T16:43:39.274Z</time></trkpt><trkpt lat="43.900421" lon="8.0343338"><ele>32.0</ele><time>2026-05-03T16:43:40.273Z</time></trkpt><trkpt lat="43.9003423" lon="8.0344329"><ele>31.0</ele><time>2026-05-03T16:43:41.274Z</time></trkpt><trkpt lat="43.9002524" lon="8.0345296"><ele>30.0</ele><time>2026-05-03T16:43:42.274Z</time></trkpt><trkpt lat="43.9001657" lon="8.0346367"><ele>28.25</ele><time>2026-05-03T16:43:43.274Z</time></trkpt><trkpt lat="43.9000781" lon="8.0347336"><ele>26.5</ele><time>2026-05-03T16:43:44.273Z</time></trkpt><trkpt lat="43.8999887" lon="8.0348382"><ele>24.75</ele><time>2026-05-03T16:43:45.274Z</time></trkpt><trkpt lat="43.8999005" lon="8.0349442"><ele>23.0</ele><time>2026-05-03T16:43:46.273Z</time></trkpt><trkpt lat="43.8998148" lon="8.035053"><ele>23.0</ele><time>2026-05-03T16:43:47.273Z</time></trkpt><trkpt lat="43.8997324" lon="8.0351563"><ele>23.0</ele><time>2026-05-03T16:43:48.273Z</time></trkpt><trkpt lat="43.8996476" lon="8.0352449"><ele>23.0</ele><time>2026-05-03T16:43:49.273Z</time></trkpt><trkpt lat="43.8995571" lon="8.0353331"><ele>23.0</ele><time>2026-05-03T16:43:50.273Z</time></trkpt><trkpt lat="43.8994627" lon="8.0354116"><ele>23.0</ele><time>2026-05-03T16:43:51.273Z</time></trkpt><trkpt lat="43.8993689" lon="8.0354775"><ele>23.0</ele><time>2026-05-03T16:43:52.273Z</time></trkpt><trkpt lat="43.8992764" lon="8.035544"><ele>23.0</ele><time>2026-05-03T16:43:53.273Z</time></trkpt><trkpt lat="43.8991889" lon="8.0356095"><ele>23.0</ele><time>2026-05-03T16:43:54.273Z</time></trkpt><trkpt lat="43.8991138" lon="8.0356677"><ele>23.0</ele><time>2026-05-03T16:43:55.273Z</time></trkpt><trkpt lat="43.8990441" lon="8.0357285"><ele>23.0</ele><time>2026-05-03T16:43:56.273Z</time></trkpt><trkpt lat="43.8989829" lon="8.0357789"><ele>23.0</ele><time>2026-05-03T16:43:57.273Z</time></trkpt><trkpt lat="43.8989261" lon="8.0358288"><ele>22.666666666666668</ele><time>2026-05-03T16:43:58.273Z</time></trkpt><trkpt lat="43.8988657" lon="8.0358764"><ele>22.333333333333336</ele><time>2026-05-03T16:43:59.273Z</time></trkpt><trkpt lat="43.8988053" lon="8.0359266"><ele>22.0</ele><time>2026-05-03T16:44:00.273Z</time></trkpt><trkpt lat="43.8987501" lon="8.0359778"><ele>21.666666666666668</ele><time>2026-05-03T16:44:01.273Z</time></trkpt><trkpt lat="43.8986536" lon="8.036081"><ele>21.333333333333332</ele><time>2026-05-03T16:44:03.273Z</time></trkpt><trkpt lat="43.8985862" lon="8.0361964"><ele>21.0</ele><time>2026-05-03T16:44:05.273Z</time></trkpt><trkpt lat="43.8985026" lon="8.0363045"><ele>20.0</ele><time>2026-05-03T16:44:07.273Z</time></trkpt><trkpt lat="43.8983994" lon="8.0363687"><ele>19.0</ele><time>2026-05-03T16:44:09.273Z</time></trkpt><trkpt lat="43.8983117" lon="8.0364377"><ele>18.0</ele><time>2026-05-03T16:44:11.273Z</time></trkpt><trkpt lat="43.89825" lon="8.0364643"><ele>17.0</ele><time>2026-05-03T16:44:12.273Z</time></trkpt><trkpt lat="43.898135" lon="8.0364969"><ele>16.0</ele><time>2026-05-03T16:44:14.273Z</time></trkpt><trkpt lat="43.898027" lon="8.0365072"><ele>15.999999999999998</ele><time>2026-05-03T16:44:16.273Z</time></trkpt><trkpt lat="43.8979568" lon="8.0365104"><ele>16.0</ele><time>2026-05-03T16:44:17.273Z</time></trkpt><trkpt lat="43.8978817" lon="8.0365357"><ele>16.0</ele><time>2026-05-03T16:44:18.273Z</time></trkpt><trkpt lat="43.8978" lon="8.0365671"><ele>16.0</ele><time>2026-05-03T16:44:19.273Z</time></trkpt><trkpt lat="43.8977234" lon="8.0365897"><ele>15.999999999999998</ele><time>2026-05-03T16:44:20.273Z</time></trkpt><trkpt lat="43.8976408" lon="8.0366263"><ele>16.0</ele><time>2026-05-03T16:44:21.274Z</time></trkpt><trkpt lat="43.897523" lon="8.0366831"><ele>16.25</ele><time>2026-05-03T16:44:23.274Z</time></trkpt><trkpt lat="43.8974499" lon="8.036719"><ele>16.5</ele><time>2026-05-03T16:44:24.273Z</time></trkpt><trkpt lat="43.8973494" lon="8.0367601"><ele>16.75</ele><time>2026-05-03T16:44:25.273Z</time></trkpt><trkpt lat="43.8972158" lon="8.0367875"><ele>17.0</ele><time>2026-05-03T16:44:26.274Z</time></trkpt><trkpt lat="43.8970651" lon="8.036837"><ele>17.0</ele><time>2026-05-03T16:44:27.274Z</time></trkpt><trkpt lat="43.8969068" lon="8.0368995"><ele>17.0</ele><time>2026-05-03T16:44:28.274Z</time></trkpt><trkpt lat="43.8967417" lon="8.0369542"><ele>17.0</ele><time>2026-05-03T16:44:29.273Z</time></trkpt><trkpt lat="43.8965674" lon="8.0370043"><ele>16.333333333333336</ele><time>2026-05-03T16:44:30.273Z</time></trkpt><trkpt lat="43.8964002" lon="8.0370557"><ele>15.666666666666668</ele><time>2026-05-03T16:44:31.273Z</time></trkpt><trkpt lat="43.8962411" lon="8.0371055"><ele>15.0</ele><time>2026-05-03T16:44:32.273Z</time></trkpt><trkpt lat="43.896094" lon="8.0371596"><ele>15.0</ele><time>2026-05-03T16:44:33.273Z</time></trkpt><trkpt lat="43.895946" lon="8.0372206"><ele>15.0</ele><time>2026-05-03T16:44:34.274Z</time></trkpt><trkpt lat="43.8958073" lon="8.0372703"><ele>15.0</ele><time>2026-05-03T16:44:35.274Z</time></trkpt><trkpt lat="43.8956675" lon="8.037327"><ele>15.0</ele><time>2026-05-03T16:44:36.274Z</time></trkpt><trkpt lat="43.8955233" lon="8.0373816"><ele>14.5</ele><time>2026-05-03T16:44:37.273Z</time></trkpt><trkpt lat="43.8953846" lon="8.037428"><ele>14.0</ele><time>2026-05-03T16:44:38.273Z</time></trkpt><trkpt lat="43.8952559" lon="8.0374755"><ele>13.5</ele><time>2026-05-03T16:44:39.273Z</time></trkpt><trkpt lat="43.8951341" lon="8.0375199"><ele>13.0</ele><time>2026-05-03T16:44:40.273Z</time></trkpt><trkpt lat="43.8950225" lon="8.0375609"><ele>13.0</ele><time>2026-05-03T16:44:41.273Z</time></trkpt><trkpt lat="43.8949149" lon="8.0375967"><ele>13.0</ele><time>2026-05-03T16:44:42.274Z</time></trkpt><trkpt lat="43.8948161" lon="8.0376326"><ele>13.0</ele><time>2026-05-03T16:44:43.273Z</time></trkpt><trkpt lat="43.8947155" lon="8.0376692"><ele>13.0</ele><time>2026-05-03T16:44:44.274Z</time></trkpt><trkpt lat="43.8946133" lon="8.0377076"><ele>13.0</ele><time>2026-05-03T16:44:45.273Z</time></trkpt><trkpt lat="43.8945127" lon="8.0377431"><ele>12.999999999999998</ele><time>2026-05-03T16:44:46.273Z</time></trkpt><trkpt lat="43.8944147" lon="8.0377801"><ele>13.0</ele><time>2026-05-03T16:44:47.273Z</time></trkpt><trkpt lat="43.8943186" lon="8.0378134"><ele>13.0</ele><time>2026-05-03T16:44:48.273Z</time></trkpt><trkpt lat="43.8942315" lon="8.03784"><ele>13.0</ele><time>2026-05-03T16:44:49.273Z</time></trkpt><trkpt lat="43.8941671" lon="8.0378674"><ele>12.999999999999998</ele><time>2026-05-03T16:44:50.273Z</time></trkpt><trkpt lat="43.8941026" lon="8.0378919"><ele>13.0</ele><time>2026-05-03T16:44:52.273Z</time></trkpt><trkpt lat="43.8940354" lon="8.0379229"><ele>12.999999999999998</ele><time>2026-05-03T16:44:54.273Z</time></trkpt><trkpt lat="43.893966" lon="8.0379421"><ele>13.0</ele><time>2026-05-03T16:44:55.273Z</time></trkpt><trkpt lat="43.8939015" lon="8.0379641"><ele>13.0</ele><time>2026-05-03T16:44:56.274Z</time></trkpt><trkpt lat="43.8938381" lon="8.0379851"><ele>13.0</ele><time>2026-05-03T16:44:57.274Z</time></trkpt><trkpt lat="43.8937692" lon="8.0380063"><ele>12.999999999999998</ele><time>2026-05-03T16:44:58.274Z</time></trkpt><trkpt lat="43.8936862" lon="8.0380416"><ele>13.0</ele><time>2026-05-03T16:44:59.274Z</time></trkpt><trkpt lat="43.8935765" lon="8.0380895"><ele>13.0</ele><time>2026-05-03T16:45:00.273Z</time></trkpt><trkpt lat="43.8934427" lon="8.0381402"><ele>13.0</ele><time>2026-05-03T16:45:01.273Z</time></trkpt><trkpt lat="43.8932991" lon="8.0381892"><ele>13.0</ele><time>2026-05-03T16:45:02.273Z</time></trkpt><trkpt lat="43.8931532" lon="8.0382302"><ele>13.0</ele><time>2026-05-03T16:45:03.273Z</time></trkpt><trkpt lat="43.893024" lon="8.0382662"><ele>13.0</ele><time>2026-05-03T16:45:04.273Z</time></trkpt><trkpt lat="43.8929202" lon="8.038311"><ele>13.0</ele><time>2026-05-03T16:45:05.273Z</time></trkpt><trkpt lat="43.8928425" lon="8.0383594"><ele>13.0</ele><time>2026-05-03T16:45:06.273Z</time></trkpt><trkpt lat="43.8927924" lon="8.0384344"><ele>13.0</ele><time>2026-05-03T16:45:07.273Z</time></trkpt><trkpt lat="43.8927673" lon="8.0385557"><ele>13.0</ele><time>2026-05-03T16:45:08.274Z</time></trkpt><trkpt lat="43.8927585" lon="8.0387164"><ele>13.0</ele><time>2026-05-03T16:45:09.274Z</time></trkpt><trkpt lat="43.8927524" lon="8.0388995"><ele>13.0</ele><time>2026-05-03T16:45:10.274Z</time></trkpt><trkpt lat="43.8927355" lon="8.0391003"><ele>13.0</ele><time>2026-05-03T16:45:11.273Z</time></trkpt><trkpt lat="43.8927156" lon="8.0393044"><ele>13.0</ele><time>2026-05-03T16:45:12.274Z</time></trkpt><trkpt lat="43.8926915" lon="8.0395142"><ele>13.75</ele><time>2026-05-03T16:45:13.273Z</time></trkpt><trkpt lat="43.8926586" lon="8.0397181"><ele>14.5</ele><time>2026-05-03T16:45:14.273Z</time></trkpt><trkpt lat="43.8926288" lon="8.0399061"><ele>15.25</ele><time>2026-05-03T16:45:15.273Z</time></trkpt><trkpt lat="43.8925911" lon="8.0400647"><ele>16.0</ele><time>2026-05-03T16:45:16.274Z</time></trkpt><trkpt lat="43.8925441" lon="8.0401925"><ele>15.999999999999998</ele><time>2026-05-03T16:45:17.274Z</time></trkpt><trkpt lat="43.8924909" lon="8.0402745"><ele>16.0</ele><time>2026-05-03T16:45:18.273Z</time></trkpt><trkpt lat="43.8924187" lon="8.0403337"><ele>16.0</ele><time>2026-05-03T16:45:20.273Z</time></trkpt><trkpt lat="43.8923507" lon="8.0403426"><ele>16.0</ele><time>2026-05-03T16:45:22.274Z</time></trkpt><trkpt lat="43.8922374" lon="8.0404202"><ele>15.999999999999998</ele><time>2026-05-03T16:45:24.274Z</time></trkpt><trkpt lat="43.8921962" lon="8.0405046"><ele>16.0</ele><time>2026-05-03T16:45:25.273Z</time></trkpt><trkpt lat="43.8921839" lon="8.0406217"><ele>16.0</ele><time>2026-05-03T16:45:26.274Z</time></trkpt><trkpt lat="43.8921874" lon="8.0407496"><ele>16.0</ele><time>2026-05-03T16:45:27.273Z</time></trkpt><trkpt lat="43.8921738" lon="8.0408988"><ele>16.0</ele><time>2026-05-03T16:45:28.273Z</time></trkpt><trkpt lat="43.8921366" lon="8.041056"><ele>16.0</ele><time>2026-05-03T16:45:29.274Z</time></trkpt><trkpt lat="43.8920726" lon="8.041199"><ele>16.0</ele><time>2026-05-03T16:45:30.273Z</time></trkpt><trkpt lat="43.8919913" lon="8.0413361"><ele>17.0</ele><time>2026-05-03T16:45:31.274Z</time></trkpt><trkpt lat="43.8918962" lon="8.0414566"><ele>18.0</ele><time>2026-05-03T16:45:32.273Z</time></trkpt><trkpt lat="43.8917912" lon="8.0415831"><ele>19.0</ele><time>2026-05-03T16:45:33.274Z</time></trkpt><trkpt lat="43.8916816" lon="8.0417138"><ele>20.0</ele><time>2026-05-03T16:45:34.274Z</time></trkpt><trkpt lat="43.8915669" lon="8.0418531"><ele>20.25</ele><time>2026-05-03T16:45:35.273Z</time></trkpt><trkpt lat="43.8914545" lon="8.0419866"><ele>20.5</ele><time>2026-05-03T16:45:36.273Z</time></trkpt><trkpt lat="43.8913393" lon="8.0420982"><ele>20.75</ele><time>2026-05-03T16:45:37.273Z</time></trkpt><trkpt lat="43.8912245" lon="8.0421878"><ele>21.0</ele><time>2026-05-03T16:45:38.273Z</time></trkpt><trkpt lat="43.8911013" lon="8.0422496"><ele>21.0</ele><time>2026-05-03T16:45:39.273Z</time></trkpt><trkpt lat="43.890969" lon="8.0422988"><ele>21.0</ele><time>2026-05-03T16:45:40.273Z</time></trkpt><trkpt lat="43.8908269" lon="8.0423405"><ele>21.0</ele><time>2026-05-03T16:45:41.274Z</time></trkpt><trkpt lat="43.8906861" lon="8.0423839"><ele>21.0</ele><time>2026-05-03T16:45:42.273Z</time></trkpt><trkpt lat="43.8905394" lon="8.0424234"><ele>21.5</ele><time>2026-05-03T16:45:43.273Z</time></trkpt><trkpt lat="43.8903949" lon="8.0424517"><ele>22.0</ele><time>2026-05-03T16:45:44.274Z</time></trkpt><trkpt lat="43.8902551" lon="8.0424819"><ele>22.5</ele><time>2026-05-03T16:45:45.273Z</time></trkpt><trkpt lat="43.890123" lon="8.0425158"><ele>23.0</ele><time>2026-05-03T16:45:46.273Z</time></trkpt><trkpt lat="43.889985" lon="8.0425705"><ele>23.0</ele><time>2026-05-03T16:45:47.273Z</time></trkpt><trkpt lat="43.8898626" lon="8.0426503"><ele>23.0</ele><time>2026-05-03T16:45:48.273Z</time></trkpt><trkpt lat="43.8897629" lon="8.0427519"><ele>23.0</ele><time>2026-05-03T16:45:49.273Z</time></trkpt><trkpt lat="43.8896907" lon="8.042866"><ele>23.0</ele><time>2026-05-03T16:45:50.273Z</time></trkpt><trkpt lat="43.8896514" lon="8.0430017"><ele>23.0</ele><time>2026-05-03T16:45:51.273Z</time></trkpt><trkpt lat="43.8896227" lon="8.0431385"><ele>23.0</ele><time>2026-05-03T16:45:52.274Z</time></trkpt><trkpt lat="43.8896031" lon="8.0432559"><ele>23.0</ele><time>2026-05-03T16:45:53.274Z</time></trkpt><trkpt lat="43.8895808" lon="8.0433507"><ele>23.0</ele><time>2026-05-03T16:45:54.274Z</time></trkpt><trkpt lat="43.8895883" lon="8.0434915"><ele>23.0</ele><time>2026-05-03T16:45:56.273Z</time></trkpt><trkpt lat="43.8897082" lon="8.0435428"><ele>23.599999999999998</ele><time>2026-05-03T16:45:58.273Z</time></trkpt><trkpt lat="43.8897906" lon="8.0435086"><ele>24.2</ele><time>2026-05-03T16:45:59.273Z</time></trkpt><trkpt lat="43.8898824" lon="8.0434642"><ele>24.8</ele><time>2026-05-03T16:46:00.273Z</time></trkpt><trkpt lat="43.8899865" lon="8.0434114"><ele>25.4</ele><time>2026-05-03T16:46:01.274Z</time></trkpt><trkpt lat="43.8901042" lon="8.043353"><ele>26.0</ele><time>2026-05-03T16:46:02.274Z</time></trkpt><trkpt lat="43.8902317" lon="8.0432974"><ele>25.5</ele><time>2026-05-03T16:46:03.273Z</time></trkpt><trkpt lat="43.8903661" lon="8.0432445"><ele>25.0</ele><time>2026-05-03T16:46:04.273Z</time></trkpt><trkpt lat="43.8905059" lon="8.0431936"><ele>24.5</ele><time>2026-05-03T16:46:05.273Z</time></trkpt><trkpt lat="43.8906475" lon="8.0431518"><ele>24.0</ele><time>2026-05-03T16:46:06.273Z</time></trkpt><trkpt lat="43.8907989" lon="8.0431196"><ele>26.0</ele><time>2026-05-03T16:46:07.273Z</time></trkpt><trkpt lat="43.8909541" lon="8.0430946"><ele>28.0</ele><time>2026-05-03T16:46:08.274Z</time></trkpt><trkpt lat="43.8911011" lon="8.043064"><ele>30.0</ele><time>2026-05-03T16:46:09.274Z</time></trkpt><trkpt lat="43.891238" lon="8.0430332"><ele>32.0</ele><time>2026-05-03T16:46:10.273Z</time></trkpt><trkpt lat="43.8913564" lon="8.0430026"><ele>31.999999999999996</ele><time>2026-05-03T16:46:11.273Z</time></trkpt><trkpt lat="43.8914549" lon="8.042965"><ele>32.0</ele><time>2026-05-03T16:46:12.274Z</time></trkpt><trkpt lat="43.8915278" lon="8.0429335"><ele>32.0</ele><time>2026-05-03T16:46:13.274Z</time></trkpt><trkpt lat="43.8916161" lon="8.042931"><ele>32.0</ele><time>2026-05-03T16:46:15.274Z</time></trkpt><trkpt lat="43.8915927" lon="8.043032"><ele>31.999999999999996</ele><time>2026-05-03T16:46:17.274Z</time></trkpt><trkpt lat="43.8915364" lon="8.0430769"><ele>32.0</ele><time>2026-05-03T16:46:18.275Z</time></trkpt><trkpt lat="43.8914713" lon="8.0431325"><ele>32.0</ele><time>2026-05-03T16:46:19.274Z</time></trkpt><trkpt lat="43.8913894" lon="8.0431963"><ele>32.0</ele><time>2026-05-03T16:46:20.274Z</time></trkpt><trkpt lat="43.8913013" lon="8.0432693"><ele>32.0</ele><time>2026-05-03T16:46:21.274Z</time></trkpt><trkpt lat="43.8912128" lon="8.0433433"><ele>32.0</ele><time>2026-05-03T16:46:22.274Z</time></trkpt><trkpt lat="43.8911217" lon="8.0434241"><ele>32.0</ele><time>2026-05-03T16:46:23.274Z</time></trkpt><trkpt lat="43.8910245" lon="8.0435088"><ele>33.5</ele><time>2026-05-03T16:46:24.274Z</time></trkpt><trkpt lat="43.8909299" lon="8.0436028"><ele>35.0</ele><time>2026-05-03T16:46:25.274Z</time></trkpt><trkpt lat="43.8908386" lon="8.0437033"><ele>36.5</ele><time>2026-05-03T16:46:26.275Z</time></trkpt><trkpt lat="43.8907604" lon="8.043814"><ele>38.0</ele><time>2026-05-03T16:46:27.274Z</time></trkpt><trkpt lat="43.890692" lon="8.0439365"><ele>38.0</ele><time>2026-05-03T16:46:28.275Z</time></trkpt><trkpt lat="43.8906143" lon="8.0440541"><ele>38.0</ele><time>2026-05-03T16:46:29.274Z</time></trkpt><trkpt lat="43.8905418" lon="8.044162"><ele>38.0</ele><time>2026-05-03T16:46:30.275Z</time></trkpt><trkpt lat="43.8904747" lon="8.0442629"><ele>38.0</ele><time>2026-05-03T16:46:31.274Z</time></trkpt><trkpt lat="43.8904319" lon="8.044351"><ele>38.0</ele><time>2026-05-03T16:46:32.275Z</time></trkpt><trkpt lat="43.8904012" lon="8.0444539"><ele>39.33333333333333</ele><time>2026-05-03T16:46:33.274Z</time></trkpt><trkpt lat="43.8903843" lon="8.0445698"><ele>40.666666666666664</ele><time>2026-05-03T16:46:34.275Z</time></trkpt><trkpt lat="43.8903724" lon="8.0446928"><ele>42.0</ele><time>2026-05-03T16:46:35.274Z</time></trkpt><trkpt lat="43.8903687" lon="8.0448038"><ele>43.333333333333336</ele><time>2026-05-03T16:46:36.274Z</time></trkpt><trkpt lat="43.890381" lon="8.0448914"><ele>44.66666666666667</ele><time>2026-05-03T16:46:37.275Z</time></trkpt><trkpt lat="43.8904943" lon="8.0449761"><ele>46.0</ele><time>2026-05-03T16:46:39.275Z</time></trkpt><trkpt lat="43.8905958" lon="8.045022"><ele>46.25</ele><time>2026-05-03T16:46:40.274Z</time></trkpt><trkpt lat="43.8907104" lon="8.0450614"><ele>46.5</ele><time>2026-05-03T16:46:41.274Z</time></trkpt><trkpt lat="43.8908479" lon="8.0450539"><ele>46.75</ele><time>2026-05-03T16:46:42.275Z</time></trkpt><trkpt lat="43.8909846" lon="8.0450622"><ele>47.0</ele><time>2026-05-03T16:46:43.274Z</time></trkpt><trkpt lat="43.8911278" lon="8.045058"><ele>48.5</ele><time>2026-05-03T16:46:44.274Z</time></trkpt><trkpt lat="43.8912778" lon="8.0450476"><ele>50.0</ele><time>2026-05-03T16:46:45.274Z</time></trkpt><trkpt lat="43.8914125" lon="8.0450683"><ele>51.5</ele><time>2026-05-03T16:46:46.274Z</time></trkpt><trkpt lat="43.8915507" lon="8.045079"><ele>53.0</ele><time>2026-05-03T16:46:47.274Z</time></trkpt><trkpt lat="43.8916755" lon="8.0450942"><ele>55.25</ele><time>2026-05-03T16:46:48.274Z</time></trkpt><trkpt lat="43.8918017" lon="8.045128"><ele>57.5</ele><time>2026-05-03T16:46:49.274Z</time></trkpt><trkpt lat="43.8919224" lon="8.0451659"><ele>59.75</ele><time>2026-05-03T16:46:50.275Z</time></trkpt><trkpt lat="43.8920287" lon="8.0452092"><ele>62.0</ele><time>2026-05-03T16:46:51.274Z</time></trkpt><trkpt lat="43.8921168" lon="8.0452809"><ele>62.0</ele><time>2026-05-03T16:46:52.275Z</time></trkpt><trkpt lat="43.892195" lon="8.0453743"><ele>62.0</ele><time>2026-05-03T16:46:53.275Z</time></trkpt><trkpt lat="43.8922605" lon="8.0454912"><ele>62.0</ele><time>2026-05-03T16:46:54.275Z</time></trkpt><trkpt lat="43.8923118" lon="8.0456312"><ele>62.0</ele><time>2026-05-03T16:46:55.274Z</time></trkpt><trkpt lat="43.892351" lon="8.0457841"><ele>62.0</ele><time>2026-05-03T16:46:56.274Z</time></trkpt><trkpt lat="43.8923934" lon="8.045939"><ele>62.2</ele><time>2026-05-03T16:46:57.274Z</time></trkpt><trkpt lat="43.8924476" lon="8.0460781"><ele>62.400000000000006</ele><time>2026-05-03T16:46:58.275Z</time></trkpt><trkpt lat="43.8925118" lon="8.0461938"><ele>62.599999999999994</ele><time>2026-05-03T16:46:59.274Z</time></trkpt><trkpt lat="43.8925759" lon="8.0462885"><ele>62.8</ele><time>2026-05-03T16:47:00.274Z</time></trkpt><trkpt lat="43.8926286" lon="8.0463587"><ele>63.0</ele><time>2026-05-03T16:47:01.275Z</time></trkpt><trkpt lat="43.892718" lon="8.0463952"><ele>63.0</ele><time>2026-05-03T16:47:03.274Z</time></trkpt><trkpt lat="43.892771" lon="8.0463409"><ele>63.0</ele><time>2026-05-03T16:47:05.274Z</time></trkpt><trkpt lat="43.8928355" lon="8.0462388"><ele>63.0</ele><time>2026-05-03T16:47:10.274Z</time></trkpt><trkpt lat="43.8929008" lon="8.0461435"><ele>63.0</ele><time>2026-05-03T16:47:12.274Z</time></trkpt><trkpt lat="43.8930059" lon="8.0460981"><ele>63.0</ele><time>2026-05-03T16:47:14.275Z</time></trkpt><trkpt lat="43.8930884" lon="8.0461239"><ele>63.0</ele><time>2026-05-03T16:47:15.274Z</time></trkpt><trkpt lat="43.8931587" lon="8.0461459"><ele>63.0</ele><time>2026-05-03T16:47:16.274Z</time></trkpt><trkpt lat="43.8932655" lon="8.0461116"><ele>63.0</ele><time>2026-05-03T16:47:18.275Z</time></trkpt><trkpt lat="43.8933341" lon="8.0460322"><ele>63.0</ele><time>2026-05-03T16:47:20.275Z</time></trkpt><trkpt lat="43.8933465" lon="8.0459357"><ele>63.0</ele><time>2026-05-03T16:47:25.275Z</time></trkpt></trkseg></trk></gpx>